<?xml version="1.0" encoding="UTF-8" standalone="no" ?>
<gpx xmlns="http://www.topografix.com/GPX/1/1" xmlns:xsi="http://www.w3.org/2001/XMLSchema-instance" xsi:schemaLocation="http://www.topografix.com/GPX/1/1 http://www.topografix.com/GPX/1/1/gpx.xsd" version="1.1" creator="VisuGPX - https://www.visugpx.com">
  <metadata>
    <name>Champagnat Cyclisme</name>
  </metadata>
  <trk>
    <name><![CDATA[Champagnat Cyclisme]]></name>
    <trkseg>
      <trkpt lat="46.48262" lon="5.36821">
        <ele>261.79998779297</ele>
        <time>2020-10-24T10:28:17.000Z</time>
      </trkpt>
      <trkpt lat="46.48253" lon="5.36811">
        <ele>261.20001220703</ele>
        <time>2020-10-24T10:28:18.000Z</time>
      </trkpt>
      <trkpt lat="46.48243" lon="5.36801">
        <ele>260.39999389648</ele>
        <time>2020-10-24T10:28:19.000Z</time>
      </trkpt>
      <trkpt lat="46.48233" lon="5.36793">
        <ele>259.79998779297</ele>
        <time>2020-10-24T10:28:20.000Z</time>
      </trkpt>
      <trkpt lat="46.48222" lon="5.36785">
        <ele>259</ele>
        <time>2020-10-24T10:28:21.000Z</time>
      </trkpt>
      <trkpt lat="46.48201" lon="5.36768">
        <ele>257</ele>
        <time>2020-10-24T10:28:23.000Z</time>
      </trkpt>
      <trkpt lat="46.48181" lon="5.36751">
        <ele>255</ele>
        <time>2020-10-24T10:28:25.000Z</time>
      </trkpt>
      <trkpt lat="46.48161" lon="5.36734">
        <ele>253.39999389648</ele>
        <time>2020-10-24T10:28:27.000Z</time>
      </trkpt>
      <trkpt lat="46.48141" lon="5.36718">
        <ele>252</ele>
        <time>2020-10-24T10:28:29.000Z</time>
      </trkpt>
      <trkpt lat="46.48132" lon="5.36711">
        <ele>251</ele>
        <time>2020-10-24T10:28:30.000Z</time>
      </trkpt>
      <trkpt lat="46.48124" lon="5.36704">
        <ele>250.19999694824</ele>
        <time>2020-10-24T10:28:31.000Z</time>
      </trkpt>
      <trkpt lat="46.48112" lon="5.36694">
        <ele>248.80000305176</ele>
        <time>2020-10-24T10:28:33.000Z</time>
      </trkpt>
      <trkpt lat="46.48111" lon="5.36682">
        <ele>248.39999389648</ele>
        <time>2020-10-24T10:28:35.000Z</time>
      </trkpt>
      <trkpt lat="46.48123" lon="5.36664">
        <ele>247.80000305176</ele>
        <time>2020-10-24T10:28:38.000Z</time>
      </trkpt>
      <trkpt lat="46.48128" lon="5.36658">
        <ele>247.80000305176</ele>
        <time>2020-10-24T10:28:39.000Z</time>
      </trkpt>
      <trkpt lat="46.48156" lon="5.36626">
        <ele>247</ele>
        <time>2020-10-24T10:28:44.000Z</time>
      </trkpt>
      <trkpt lat="46.48162" lon="5.3662">
        <ele>246.80000305176</ele>
        <time>2020-10-24T10:28:45.000Z</time>
      </trkpt>
      <trkpt lat="46.48176" lon="5.36609">
        <ele>246.60000610352</ele>
        <time>2020-10-24T10:28:47.000Z</time>
      </trkpt>
      <trkpt lat="46.48184" lon="5.36606">
        <ele>246.39999389648</ele>
        <time>2020-10-24T10:28:48.000Z</time>
      </trkpt>
      <trkpt lat="46.48213" lon="5.3659">
        <ele>245.80000305176</ele>
        <time>2020-10-24T10:28:52.000Z</time>
      </trkpt>
      <trkpt lat="46.48216" lon="5.3658">
        <ele>245.60000610352</ele>
        <time>2020-10-24T10:28:53.000Z</time>
      </trkpt>
      <trkpt lat="46.4822" lon="5.3657">
        <ele>245.39999389648</ele>
        <time>2020-10-24T10:28:54.000Z</time>
      </trkpt>
      <trkpt lat="46.48224" lon="5.3656">
        <ele>245.39999389648</ele>
        <time>2020-10-24T10:28:55.000Z</time>
      </trkpt>
      <trkpt lat="46.48229" lon="5.36551">
        <ele>245.19999694824</ele>
        <time>2020-10-24T10:28:56.000Z</time>
      </trkpt>
      <trkpt lat="46.4826" lon="5.36516">
        <ele>245</ele>
        <time>2020-10-24T10:29:01.000Z</time>
      </trkpt>
      <trkpt lat="46.48287" lon="5.36487">
        <ele>244.19999694824</ele>
        <time>2020-10-24T10:29:05.000Z</time>
      </trkpt>
      <trkpt lat="46.48314" lon="5.36458">
        <ele>243</ele>
        <time>2020-10-24T10:29:09.000Z</time>
      </trkpt>
      <trkpt lat="46.4832" lon="5.36451">
        <ele>242.60000610352</ele>
        <time>2020-10-24T10:29:10.000Z</time>
      </trkpt>
      <trkpt lat="46.48325" lon="5.36446">
        <ele>242.39999389648</ele>
        <time>2020-10-24T10:29:11.000Z</time>
      </trkpt>
      <trkpt lat="46.48331" lon="5.3644">
        <ele>241.80000305176</ele>
        <time>2020-10-24T10:29:13.000Z</time>
      </trkpt>
      <trkpt lat="46.48328" lon="5.36439">
        <ele>241.80000305176</ele>
        <time>2020-10-24T10:29:16.000Z</time>
      </trkpt>
      <trkpt lat="46.48326" lon="5.36441">
        <ele>241.80000305176</ele>
        <time>2020-10-24T10:29:17.000Z</time>
      </trkpt>
      <trkpt lat="46.48314" lon="5.36457">
        <ele>241.60000610352</ele>
        <time>2020-10-24T10:29:23.000Z</time>
      </trkpt>
      <trkpt lat="46.48282" lon="5.36493">
        <ele>241.80000305176</ele>
        <time>2020-10-24T10:29:32.000Z</time>
      </trkpt>
      <trkpt lat="46.48253" lon="5.36526">
        <ele>243.19999694824</ele>
        <time>2020-10-24T10:29:40.000Z</time>
      </trkpt>
      <trkpt lat="46.48236" lon="5.36547">
        <ele>243.80000305176</ele>
        <time>2020-10-24T10:29:45.000Z</time>
      </trkpt>
      <trkpt lat="46.48228" lon="5.36554">
        <ele>243.80000305176</ele>
        <time>2020-10-24T10:29:47.000Z</time>
      </trkpt>
      <trkpt lat="46.48215" lon="5.36557">
        <ele>244</ele>
        <time>2020-10-24T10:29:50.000Z</time>
      </trkpt>
      <trkpt lat="46.48206" lon="5.36558">
        <ele>244.19999694824</ele>
        <time>2020-10-24T10:29:52.000Z</time>
      </trkpt>
      <trkpt lat="46.48194" lon="5.36568">
        <ele>244.60000610352</ele>
        <time>2020-10-24T10:29:55.000Z</time>
      </trkpt>
      <trkpt lat="46.48187" lon="5.36587">
        <ele>245</ele>
        <time>2020-10-24T10:29:58.000Z</time>
      </trkpt>
      <trkpt lat="46.48185" lon="5.36594">
        <ele>245.19999694824</ele>
        <time>2020-10-24T10:29:59.000Z</time>
      </trkpt>
      <trkpt lat="46.48182" lon="5.366">
        <ele>245.19999694824</ele>
        <time>2020-10-24T10:30:00.000Z</time>
      </trkpt>
      <trkpt lat="46.48171" lon="5.36615">
        <ele>245.39999389648</ele>
        <time>2020-10-24T10:30:03.000Z</time>
      </trkpt>
      <trkpt lat="46.48143" lon="5.36649">
        <ele>245.80000305176</ele>
        <time>2020-10-24T10:30:10.000Z</time>
      </trkpt>
      <trkpt lat="46.48138" lon="5.36652">
        <ele>246</ele>
        <time>2020-10-24T10:30:11.000Z</time>
      </trkpt>
      <trkpt lat="46.4813" lon="5.36661">
        <ele>246.19999694824</ele>
        <time>2020-10-24T10:30:13.000Z</time>
      </trkpt>
      <trkpt lat="46.48126" lon="5.36665">
        <ele>246.19999694824</ele>
        <time>2020-10-24T10:30:14.000Z</time>
      </trkpt>
      <trkpt lat="46.48111" lon="5.36681">
        <ele>246.19999694824</ele>
        <time>2020-10-24T10:30:18.000Z</time>
      </trkpt>
      <trkpt lat="46.48109" lon="5.36686">
        <ele>246.39999389648</ele>
        <time>2020-10-24T10:30:19.000Z</time>
      </trkpt>
      <trkpt lat="46.48109" lon="5.36703">
        <ele>246.60000610352</ele>
        <time>2020-10-24T10:30:22.000Z</time>
      </trkpt>
      <trkpt lat="46.48119" lon="5.36715">
        <ele>247.39999389648</ele>
        <time>2020-10-24T10:30:25.000Z</time>
      </trkpt>
      <trkpt lat="46.48123" lon="5.36719">
        <ele>247.60000610352</ele>
        <time>2020-10-24T10:30:26.000Z</time>
      </trkpt>
      <trkpt lat="46.48137" lon="5.36732">
        <ele>248.60000610352</ele>
        <time>2020-10-24T10:30:30.000Z</time>
      </trkpt>
      <trkpt lat="46.48155" lon="5.36747">
        <ele>249.60000610352</ele>
        <time>2020-10-24T10:30:35.000Z</time>
      </trkpt>
      <trkpt lat="46.48169" lon="5.36759">
        <ele>250.60000610352</ele>
        <time>2020-10-24T10:30:39.000Z</time>
      </trkpt>
      <trkpt lat="46.48179" lon="5.36767">
        <ele>251.39999389648</ele>
        <time>2020-10-24T10:30:42.000Z</time>
      </trkpt>
      <trkpt lat="46.48186" lon="5.36773">
        <ele>252</ele>
        <time>2020-10-24T10:30:44.000Z</time>
      </trkpt>
      <trkpt lat="46.48203" lon="5.36787">
        <ele>253</ele>
        <time>2020-10-24T10:30:49.000Z</time>
      </trkpt>
      <trkpt lat="46.48213" lon="5.36795">
        <ele>253.80000305176</ele>
        <time>2020-10-24T10:30:52.000Z</time>
      </trkpt>
      <trkpt lat="46.4822" lon="5.368">
        <ele>254.19999694824</ele>
        <time>2020-10-24T10:30:54.000Z</time>
      </trkpt>
      <trkpt lat="46.48234" lon="5.36813">
        <ele>255.39999389648</ele>
        <time>2020-10-24T10:30:59.000Z</time>
      </trkpt>
      <trkpt lat="46.48237" lon="5.36815">
        <ele>255.60000610352</ele>
        <time>2020-10-24T10:31:00.000Z</time>
      </trkpt>
      <trkpt lat="46.48249" lon="5.36825">
        <ele>256.39999389648</ele>
        <time>2020-10-24T10:31:04.000Z</time>
      </trkpt>
      <trkpt lat="46.48263" lon="5.36841">
        <ele>257.60000610352</ele>
        <time>2020-10-24T10:31:09.000Z</time>
      </trkpt>
      <trkpt lat="46.48265" lon="5.36844">
        <ele>257.79998779297</ele>
        <time>2020-10-24T10:31:10.000Z</time>
      </trkpt>
      <trkpt lat="46.48276" lon="5.36863">
        <ele>258.79998779297</ele>
        <time>2020-10-24T10:31:15.000Z</time>
      </trkpt>
      <trkpt lat="46.48281" lon="5.36874">
        <ele>259.20001220703</ele>
        <time>2020-10-24T10:31:18.000Z</time>
      </trkpt>
      <trkpt lat="46.48285" lon="5.36886">
        <ele>260</ele>
        <time>2020-10-24T10:31:21.000Z</time>
      </trkpt>
      <trkpt lat="46.4829" lon="5.36905">
        <ele>261.20001220703</ele>
        <time>2020-10-24T10:31:26.000Z</time>
      </trkpt>
      <trkpt lat="46.48293" lon="5.36925">
        <ele>262.60000610352</ele>
        <time>2020-10-24T10:31:31.000Z</time>
      </trkpt>
      <trkpt lat="46.48295" lon="5.36945">
        <ele>263.79998779297</ele>
        <time>2020-10-24T10:31:36.000Z</time>
      </trkpt>
      <trkpt lat="46.48295" lon="5.36971">
        <ele>264.79998779297</ele>
        <time>2020-10-24T10:31:42.000Z</time>
      </trkpt>
      <trkpt lat="46.48295" lon="5.36984">
        <ele>265.39999389648</ele>
        <time>2020-10-24T10:31:45.000Z</time>
      </trkpt>
      <trkpt lat="46.48296" lon="5.36997">
        <ele>266</ele>
        <time>2020-10-24T10:31:48.000Z</time>
      </trkpt>
      <trkpt lat="46.48296" lon="5.37023">
        <ele>267.20001220703</ele>
        <time>2020-10-24T10:31:54.000Z</time>
      </trkpt>
      <trkpt lat="46.48296" lon="5.37027">
        <ele>267.39999389648</ele>
        <time>2020-10-24T10:31:55.000Z</time>
      </trkpt>
      <trkpt lat="46.48297" lon="5.37041">
        <ele>268.20001220703</ele>
        <time>2020-10-24T10:31:58.000Z</time>
      </trkpt>
      <trkpt lat="46.48295" lon="5.37075">
        <ele>269.20001220703</ele>
        <time>2020-10-24T10:32:05.000Z</time>
      </trkpt>
      <trkpt lat="46.48294" lon="5.3708">
        <ele>269.20001220703</ele>
        <time>2020-10-24T10:32:06.000Z</time>
      </trkpt>
      <trkpt lat="46.48287" lon="5.37108">
        <ele>270</ele>
        <time>2020-10-24T10:32:12.000Z</time>
      </trkpt>
      <trkpt lat="46.48284" lon="5.37116">
        <ele>270.20001220703</ele>
        <time>2020-10-24T10:32:14.000Z</time>
      </trkpt>
      <trkpt lat="46.48275" lon="5.37141">
        <ele>271.39999389648</ele>
        <time>2020-10-24T10:32:20.000Z</time>
      </trkpt>
      <trkpt lat="46.48271" lon="5.37155">
        <ele>271.79998779297</ele>
        <time>2020-10-24T10:32:23.000Z</time>
      </trkpt>
      <trkpt lat="46.48269" lon="5.37164">
        <ele>272.60000610352</ele>
        <time>2020-10-24T10:32:25.000Z</time>
      </trkpt>
      <trkpt lat="46.48264" lon="5.37193">
        <ele>273.60000610352</ele>
        <time>2020-10-24T10:32:31.000Z</time>
      </trkpt>
      <trkpt lat="46.48263" lon="5.37197">
        <ele>273.79998779297</ele>
        <time>2020-10-24T10:32:32.000Z</time>
      </trkpt>
      <trkpt lat="46.48262" lon="5.37226">
        <ele>274.79998779297</ele>
        <time>2020-10-24T10:32:38.000Z</time>
      </trkpt>
      <trkpt lat="46.48263" lon="5.37235">
        <ele>275</ele>
        <time>2020-10-24T10:32:40.000Z</time>
      </trkpt>
      <trkpt lat="46.48271" lon="5.37261">
        <ele>276</ele>
        <time>2020-10-24T10:32:46.000Z</time>
      </trkpt>
      <trkpt lat="46.48274" lon="5.37269">
        <ele>276.60000610352</ele>
        <time>2020-10-24T10:32:48.000Z</time>
      </trkpt>
      <trkpt lat="46.48277" lon="5.37278">
        <ele>277</ele>
        <time>2020-10-24T10:32:50.000Z</time>
      </trkpt>
      <trkpt lat="46.48283" lon="5.37295">
        <ele>278.20001220703</ele>
        <time>2020-10-24T10:32:54.000Z</time>
      </trkpt>
      <trkpt lat="46.48284" lon="5.37299">
        <ele>278.39999389648</ele>
        <time>2020-10-24T10:32:55.000Z</time>
      </trkpt>
      <trkpt lat="46.48292" lon="5.3732">
        <ele>279.39999389648</ele>
        <time>2020-10-24T10:33:00.000Z</time>
      </trkpt>
      <trkpt lat="46.48298" lon="5.37336">
        <ele>280</ele>
        <time>2020-10-24T10:33:04.000Z</time>
      </trkpt>
      <trkpt lat="46.48301" lon="5.37345">
        <ele>280.39999389648</ele>
        <time>2020-10-24T10:33:06.000Z</time>
      </trkpt>
      <trkpt lat="46.48312" lon="5.37375">
        <ele>281.39999389648</ele>
        <time>2020-10-24T10:33:13.000Z</time>
      </trkpt>
      <trkpt lat="46.48316" lon="5.37388">
        <ele>282</ele>
        <time>2020-10-24T10:33:16.000Z</time>
      </trkpt>
      <trkpt lat="46.4832" lon="5.37406">
        <ele>282.79998779297</ele>
        <time>2020-10-24T10:33:20.000Z</time>
      </trkpt>
      <trkpt lat="46.48322" lon="5.3742">
        <ele>283.20001220703</ele>
        <time>2020-10-24T10:33:23.000Z</time>
      </trkpt>
      <trkpt lat="46.48322" lon="5.37439">
        <ele>283.79998779297</ele>
        <time>2020-10-24T10:33:27.000Z</time>
      </trkpt>
      <trkpt lat="46.4832" lon="5.37461">
        <ele>284.79998779297</ele>
        <time>2020-10-24T10:33:32.000Z</time>
      </trkpt>
      <trkpt lat="46.48316" lon="5.37479">
        <ele>285.79998779297</ele>
        <time>2020-10-24T10:33:36.000Z</time>
      </trkpt>
      <trkpt lat="46.4831" lon="5.375">
        <ele>286.79998779297</ele>
        <time>2020-10-24T10:33:41.000Z</time>
      </trkpt>
      <trkpt lat="46.48308" lon="5.37503">
        <ele>287</ele>
        <time>2020-10-24T10:33:42.000Z</time>
      </trkpt>
      <trkpt lat="46.483" lon="5.37523">
        <ele>287.79998779297</ele>
        <time>2020-10-24T10:33:47.000Z</time>
      </trkpt>
      <trkpt lat="46.48301" lon="5.37527">
        <ele>288</ele>
        <time>2020-10-24T10:33:48.000Z</time>
      </trkpt>
      <trkpt lat="46.48309" lon="5.37537">
        <ele>288.39999389648</ele>
        <time>2020-10-24T10:33:51.000Z</time>
      </trkpt>
      <trkpt lat="46.48317" lon="5.37539">
        <ele>288.60000610352</ele>
        <time>2020-10-24T10:33:53.000Z</time>
      </trkpt>
      <trkpt lat="46.48327" lon="5.37538">
        <ele>289.20001220703</ele>
        <time>2020-10-24T10:33:56.000Z</time>
      </trkpt>
      <trkpt lat="46.4834" lon="5.37532">
        <ele>289.39999389648</ele>
        <time>2020-10-24T10:34:01.000Z</time>
      </trkpt>
      <trkpt lat="46.48347" lon="5.37531">
        <ele>289.39999389648</ele>
        <time>2020-10-24T10:34:05.000Z</time>
      </trkpt>
      <trkpt lat="46.48347" lon="5.37532">
        <ele>289.39999389648</ele>
        <time>2020-10-24T10:34:06.000Z</time>
      </trkpt>
      <trkpt lat="46.48344" lon="5.37529">
        <ele>288</ele>
        <time>2020-10-24T10:35:04.000Z</time>
      </trkpt>
      <trkpt lat="46.48342" lon="5.37528">
        <ele>288</ele>
        <time>2020-10-24T10:35:05.000Z</time>
      </trkpt>
      <trkpt lat="46.48339" lon="5.37528">
        <ele>288</ele>
        <time>2020-10-24T10:35:06.000Z</time>
      </trkpt>
      <trkpt lat="46.48334" lon="5.37531">
        <ele>288</ele>
        <time>2020-10-24T10:35:08.000Z</time>
      </trkpt>
      <trkpt lat="46.4833" lon="5.37534">
        <ele>288.20001220703</ele>
        <time>2020-10-24T10:35:10.000Z</time>
      </trkpt>
      <trkpt lat="46.48327" lon="5.37537">
        <ele>288.20001220703</ele>
        <time>2020-10-24T10:35:12.000Z</time>
      </trkpt>
      <trkpt lat="46.48321" lon="5.37535">
        <ele>288.39999389648</ele>
        <time>2020-10-24T10:35:14.000Z</time>
      </trkpt>
      <trkpt lat="46.48315" lon="5.37533">
        <ele>288.79998779297</ele>
        <time>2020-10-24T10:35:16.000Z</time>
      </trkpt>
      <trkpt lat="46.48308" lon="5.3753">
        <ele>289.20001220703</ele>
        <time>2020-10-24T10:35:18.000Z</time>
      </trkpt>
      <trkpt lat="46.48306" lon="5.37527">
        <ele>289.20001220703</ele>
        <time>2020-10-24T10:35:19.000Z</time>
      </trkpt>
      <trkpt lat="46.48304" lon="5.37523">
        <ele>289.20001220703</ele>
        <time>2020-10-24T10:35:20.000Z</time>
      </trkpt>
      <trkpt lat="46.48305" lon="5.37514">
        <ele>289.39999389648</ele>
        <time>2020-10-24T10:35:22.000Z</time>
      </trkpt>
      <trkpt lat="46.48307" lon="5.37508">
        <ele>289.39999389648</ele>
        <time>2020-10-24T10:35:23.000Z</time>
      </trkpt>
      <trkpt lat="46.4831" lon="5.37503">
        <ele>289.39999389648</ele>
        <time>2020-10-24T10:35:24.000Z</time>
      </trkpt>
      <trkpt lat="46.48315" lon="5.37489">
        <ele>289.39999389648</ele>
        <time>2020-10-24T10:35:26.000Z</time>
      </trkpt>
      <trkpt lat="46.48318" lon="5.37481">
        <ele>289.39999389648</ele>
        <time>2020-10-24T10:35:27.000Z</time>
      </trkpt>
      <trkpt lat="46.4832" lon="5.37472">
        <ele>289.39999389648</ele>
        <time>2020-10-24T10:35:28.000Z</time>
      </trkpt>
      <trkpt lat="46.48323" lon="5.37453">
        <ele>289.39999389648</ele>
        <time>2020-10-24T10:35:30.000Z</time>
      </trkpt>
      <trkpt lat="46.48324" lon="5.37431">
        <ele>289.20001220703</ele>
        <time>2020-10-24T10:35:32.000Z</time>
      </trkpt>
      <trkpt lat="46.48323" lon="5.37406">
        <ele>288.60000610352</ele>
        <time>2020-10-24T10:35:34.000Z</time>
      </trkpt>
      <trkpt lat="46.48318" lon="5.37381">
        <ele>288</ele>
        <time>2020-10-24T10:35:36.000Z</time>
      </trkpt>
      <trkpt lat="46.48309" lon="5.37356">
        <ele>286.79998779297</ele>
        <time>2020-10-24T10:35:38.000Z</time>
      </trkpt>
      <trkpt lat="46.48304" lon="5.37343">
        <ele>286</ele>
        <time>2020-10-24T10:35:39.000Z</time>
      </trkpt>
      <trkpt lat="46.48299" lon="5.37331">
        <ele>284.20001220703</ele>
        <time>2020-10-24T10:35:40.000Z</time>
      </trkpt>
      <trkpt lat="46.48295" lon="5.37317">
        <ele>283.60000610352</ele>
        <time>2020-10-24T10:35:41.000Z</time>
      </trkpt>
      <trkpt lat="46.4829" lon="5.37304">
        <ele>282.79998779297</ele>
        <time>2020-10-24T10:35:42.000Z</time>
      </trkpt>
      <trkpt lat="46.4828" lon="5.37278">
        <ele>281.39999389648</ele>
        <time>2020-10-24T10:35:44.000Z</time>
      </trkpt>
      <trkpt lat="46.48271" lon="5.37251">
        <ele>280.39999389648</ele>
        <time>2020-10-24T10:35:46.000Z</time>
      </trkpt>
      <trkpt lat="46.48264" lon="5.37222">
        <ele>279.20001220703</ele>
        <time>2020-10-24T10:35:48.000Z</time>
      </trkpt>
      <trkpt lat="46.48264" lon="5.37191">
        <ele>278</ele>
        <time>2020-10-24T10:35:50.000Z</time>
      </trkpt>
      <trkpt lat="46.48267" lon="5.37175">
        <ele>277.20001220703</ele>
        <time>2020-10-24T10:35:51.000Z</time>
      </trkpt>
      <trkpt lat="46.4827" lon="5.3716">
        <ele>276.39999389648</ele>
        <time>2020-10-24T10:35:52.000Z</time>
      </trkpt>
      <trkpt lat="46.48274" lon="5.37145">
        <ele>276</ele>
        <time>2020-10-24T10:35:53.000Z</time>
      </trkpt>
      <trkpt lat="46.48279" lon="5.37131">
        <ele>275.39999389648</ele>
        <time>2020-10-24T10:35:54.000Z</time>
      </trkpt>
      <trkpt lat="46.48284" lon="5.37117">
        <ele>274.60000610352</ele>
        <time>2020-10-24T10:35:55.000Z</time>
      </trkpt>
      <trkpt lat="46.48289" lon="5.37103">
        <ele>274</ele>
        <time>2020-10-24T10:35:56.000Z</time>
      </trkpt>
      <trkpt lat="46.48293" lon="5.37088">
        <ele>273.20001220703</ele>
        <time>2020-10-24T10:35:57.000Z</time>
      </trkpt>
      <trkpt lat="46.48297" lon="5.37073">
        <ele>272.39999389648</ele>
        <time>2020-10-24T10:35:58.000Z</time>
      </trkpt>
      <trkpt lat="46.48299" lon="5.37057">
        <ele>271.79998779297</ele>
        <time>2020-10-24T10:35:59.000Z</time>
      </trkpt>
      <trkpt lat="46.483" lon="5.37042">
        <ele>271.20001220703</ele>
        <time>2020-10-24T10:36:00.000Z</time>
      </trkpt>
      <trkpt lat="46.48301" lon="5.37026">
        <ele>270.39999389648</ele>
        <time>2020-10-24T10:36:01.000Z</time>
      </trkpt>
      <trkpt lat="46.48301" lon="5.3701">
        <ele>270</ele>
        <time>2020-10-24T10:36:02.000Z</time>
      </trkpt>
      <trkpt lat="46.48301" lon="5.36994">
        <ele>269.39999389648</ele>
        <time>2020-10-24T10:36:03.000Z</time>
      </trkpt>
      <trkpt lat="46.483" lon="5.36978">
        <ele>268.79998779297</ele>
        <time>2020-10-24T10:36:04.000Z</time>
      </trkpt>
      <trkpt lat="46.483" lon="5.36946">
        <ele>267.39999389648</ele>
        <time>2020-10-24T10:36:06.000Z</time>
      </trkpt>
      <trkpt lat="46.48299" lon="5.36913">
        <ele>266.60000610352</ele>
        <time>2020-10-24T10:36:08.000Z</time>
      </trkpt>
      <trkpt lat="46.48297" lon="5.36897">
        <ele>265.60000610352</ele>
        <time>2020-10-24T10:36:09.000Z</time>
      </trkpt>
      <trkpt lat="46.48293" lon="5.36881">
        <ele>265</ele>
        <time>2020-10-24T10:36:10.000Z</time>
      </trkpt>
      <trkpt lat="46.48288" lon="5.36866">
        <ele>264.39999389648</ele>
        <time>2020-10-24T10:36:11.000Z</time>
      </trkpt>
      <trkpt lat="46.48282" lon="5.36851">
        <ele>263.39999389648</ele>
        <time>2020-10-24T10:36:12.000Z</time>
      </trkpt>
      <trkpt lat="46.48274" lon="5.36837">
        <ele>262.79998779297</ele>
        <time>2020-10-24T10:36:13.000Z</time>
      </trkpt>
      <trkpt lat="46.48266" lon="5.36824">
        <ele>261.79998779297</ele>
        <time>2020-10-24T10:36:14.000Z</time>
      </trkpt>
      <trkpt lat="46.48256" lon="5.36814">
        <ele>261.20001220703</ele>
        <time>2020-10-24T10:36:15.000Z</time>
      </trkpt>
      <trkpt lat="46.48246" lon="5.36804">
        <ele>260.39999389648</ele>
        <time>2020-10-24T10:36:16.000Z</time>
      </trkpt>
      <trkpt lat="46.48235" lon="5.36795">
        <ele>259.60000610352</ele>
        <time>2020-10-24T10:36:17.000Z</time>
      </trkpt>
      <trkpt lat="46.48225" lon="5.36787">
        <ele>258.60000610352</ele>
        <time>2020-10-24T10:36:18.000Z</time>
      </trkpt>
      <trkpt lat="46.48214" lon="5.36778">
        <ele>257.79998779297</ele>
        <time>2020-10-24T10:36:19.000Z</time>
      </trkpt>
      <trkpt lat="46.48204" lon="5.3677">
        <ele>256.79998779297</ele>
        <time>2020-10-24T10:36:20.000Z</time>
      </trkpt>
      <trkpt lat="46.48194" lon="5.36761">
        <ele>255.80000305176</ele>
        <time>2020-10-24T10:36:21.000Z</time>
      </trkpt>
      <trkpt lat="46.48183" lon="5.36753">
        <ele>254.60000610352</ele>
        <time>2020-10-24T10:36:22.000Z</time>
      </trkpt>
      <trkpt lat="46.48163" lon="5.36736">
        <ele>253</ele>
        <time>2020-10-24T10:36:24.000Z</time>
      </trkpt>
      <trkpt lat="46.48143" lon="5.3672">
        <ele>251.60000610352</ele>
        <time>2020-10-24T10:36:26.000Z</time>
      </trkpt>
      <trkpt lat="46.48125" lon="5.36705">
        <ele>250.39999389648</ele>
        <time>2020-10-24T10:36:28.000Z</time>
      </trkpt>
      <trkpt lat="46.48113" lon="5.36694">
        <ele>249.39999389648</ele>
        <time>2020-10-24T10:36:30.000Z</time>
      </trkpt>
      <trkpt lat="46.4811" lon="5.36688">
        <ele>249</ele>
        <time>2020-10-24T10:36:31.000Z</time>
      </trkpt>
      <trkpt lat="46.48111" lon="5.36681">
        <ele>248.60000610352</ele>
        <time>2020-10-24T10:36:32.000Z</time>
      </trkpt>
      <trkpt lat="46.48114" lon="5.36674">
        <ele>248.39999389648</ele>
        <time>2020-10-24T10:36:33.000Z</time>
      </trkpt>
      <trkpt lat="46.48119" lon="5.36668">
        <ele>248.19999694824</ele>
        <time>2020-10-24T10:36:34.000Z</time>
      </trkpt>
      <trkpt lat="46.48125" lon="5.36661">
        <ele>248</ele>
        <time>2020-10-24T10:36:35.000Z</time>
      </trkpt>
      <trkpt lat="46.48131" lon="5.36655">
        <ele>248</ele>
        <time>2020-10-24T10:36:36.000Z</time>
      </trkpt>
      <trkpt lat="46.48137" lon="5.36649">
        <ele>247.80000305176</ele>
        <time>2020-10-24T10:36:37.000Z</time>
      </trkpt>
      <trkpt lat="46.48143" lon="5.36643">
        <ele>247.39999389648</ele>
        <time>2020-10-24T10:36:38.000Z</time>
      </trkpt>
      <trkpt lat="46.48156" lon="5.36631">
        <ele>247</ele>
        <time>2020-10-24T10:36:40.000Z</time>
      </trkpt>
      <trkpt lat="46.48162" lon="5.36624">
        <ele>246.80000305176</ele>
        <time>2020-10-24T10:36:41.000Z</time>
      </trkpt>
      <trkpt lat="46.48169" lon="5.36617">
        <ele>246.60000610352</ele>
        <time>2020-10-24T10:36:42.000Z</time>
      </trkpt>
      <trkpt lat="46.48176" lon="5.36611">
        <ele>246.39999389648</ele>
        <time>2020-10-24T10:36:43.000Z</time>
      </trkpt>
      <trkpt lat="46.48184" lon="5.36607">
        <ele>246</ele>
        <time>2020-10-24T10:36:44.000Z</time>
      </trkpt>
      <trkpt lat="46.48191" lon="5.36605">
        <ele>245.80000305176</ele>
        <time>2020-10-24T10:36:45.000Z</time>
      </trkpt>
      <trkpt lat="46.48199" lon="5.36603">
        <ele>245.80000305176</ele>
        <time>2020-10-24T10:36:46.000Z</time>
      </trkpt>
      <trkpt lat="46.48206" lon="5.36599">
        <ele>245.80000305176</ele>
        <time>2020-10-24T10:36:47.000Z</time>
      </trkpt>
      <trkpt lat="46.48211" lon="5.36593">
        <ele>245.60000610352</ele>
        <time>2020-10-24T10:36:48.000Z</time>
      </trkpt>
      <trkpt lat="46.48216" lon="5.36584">
        <ele>245.60000610352</ele>
        <time>2020-10-24T10:36:49.000Z</time>
      </trkpt>
      <trkpt lat="46.48218" lon="5.36574">
        <ele>245.60000610352</ele>
        <time>2020-10-24T10:36:50.000Z</time>
      </trkpt>
      <trkpt lat="46.48222" lon="5.36564">
        <ele>245.60000610352</ele>
        <time>2020-10-24T10:36:51.000Z</time>
      </trkpt>
      <trkpt lat="46.48233" lon="5.36546">
        <ele>245.39999389648</ele>
        <time>2020-10-24T10:36:53.000Z</time>
      </trkpt>
      <trkpt lat="46.48247" lon="5.36532">
        <ele>245.39999389648</ele>
        <time>2020-10-24T10:36:55.000Z</time>
      </trkpt>
      <trkpt lat="46.4826" lon="5.36518">
        <ele>245.39999389648</ele>
        <time>2020-10-24T10:36:57.000Z</time>
      </trkpt>
      <trkpt lat="46.48274" lon="5.36502">
        <ele>245.39999389648</ele>
        <time>2020-10-24T10:36:59.000Z</time>
      </trkpt>
      <trkpt lat="46.48288" lon="5.36487">
        <ele>245.19999694824</ele>
        <time>2020-10-24T10:37:01.000Z</time>
      </trkpt>
      <trkpt lat="46.48302" lon="5.36472">
        <ele>244.39999389648</ele>
        <time>2020-10-24T10:37:03.000Z</time>
      </trkpt>
      <trkpt lat="46.48316" lon="5.36457">
        <ele>243.19999694824</ele>
        <time>2020-10-24T10:37:05.000Z</time>
      </trkpt>
      <trkpt lat="46.48331" lon="5.36442">
        <ele>242.39999389648</ele>
        <time>2020-10-24T10:37:07.000Z</time>
      </trkpt>
      <trkpt lat="46.48338" lon="5.36434">
        <ele>242</ele>
        <time>2020-10-24T10:37:08.000Z</time>
      </trkpt>
      <trkpt lat="46.48346" lon="5.36426">
        <ele>241.80000305176</ele>
        <time>2020-10-24T10:37:09.000Z</time>
      </trkpt>
      <trkpt lat="46.4836" lon="5.3641">
        <ele>241.39999389648</ele>
        <time>2020-10-24T10:37:11.000Z</time>
      </trkpt>
      <trkpt lat="46.48375" lon="5.36393">
        <ele>241</ele>
        <time>2020-10-24T10:37:13.000Z</time>
      </trkpt>
      <trkpt lat="46.4839" lon="5.36377">
        <ele>240.60000610352</ele>
        <time>2020-10-24T10:37:15.000Z</time>
      </trkpt>
      <trkpt lat="46.48398" lon="5.3637">
        <ele>240.60000610352</ele>
        <time>2020-10-24T10:37:16.000Z</time>
      </trkpt>
      <trkpt lat="46.48413" lon="5.36357">
        <ele>240</ele>
        <time>2020-10-24T10:37:18.000Z</time>
      </trkpt>
      <trkpt lat="46.48422" lon="5.36353">
        <ele>239.80000305176</ele>
        <time>2020-10-24T10:37:19.000Z</time>
      </trkpt>
      <trkpt lat="46.4843" lon="5.36349">
        <ele>239.60000610352</ele>
        <time>2020-10-24T10:37:20.000Z</time>
      </trkpt>
      <trkpt lat="46.48448" lon="5.36346">
        <ele>239.19999694824</ele>
        <time>2020-10-24T10:37:22.000Z</time>
      </trkpt>
      <trkpt lat="46.48465" lon="5.36343">
        <ele>238.80000305176</ele>
        <time>2020-10-24T10:37:24.000Z</time>
      </trkpt>
      <trkpt lat="46.48473" lon="5.36342">
        <ele>238.80000305176</ele>
        <time>2020-10-24T10:37:25.000Z</time>
      </trkpt>
      <trkpt lat="46.48482" lon="5.36341">
        <ele>238.80000305176</ele>
        <time>2020-10-24T10:37:26.000Z</time>
      </trkpt>
      <trkpt lat="46.48498" lon="5.36338">
        <ele>238.80000305176</ele>
        <time>2020-10-24T10:37:28.000Z</time>
      </trkpt>
      <trkpt lat="46.48514" lon="5.36336">
        <ele>238.80000305176</ele>
        <time>2020-10-24T10:37:30.000Z</time>
      </trkpt>
      <trkpt lat="46.4853" lon="5.36333">
        <ele>238.80000305176</ele>
        <time>2020-10-24T10:37:32.000Z</time>
      </trkpt>
      <trkpt lat="46.48547" lon="5.3633">
        <ele>238.80000305176</ele>
        <time>2020-10-24T10:37:34.000Z</time>
      </trkpt>
      <trkpt lat="46.48563" lon="5.36328">
        <ele>238.80000305176</ele>
        <time>2020-10-24T10:37:36.000Z</time>
      </trkpt>
      <trkpt lat="46.4858" lon="5.36325">
        <ele>238.60000610352</ele>
        <time>2020-10-24T10:37:38.000Z</time>
      </trkpt>
      <trkpt lat="46.48597" lon="5.36323">
        <ele>238.60000610352</ele>
        <time>2020-10-24T10:37:40.000Z</time>
      </trkpt>
      <trkpt lat="46.48615" lon="5.36318">
        <ele>238.39999389648</ele>
        <time>2020-10-24T10:37:42.000Z</time>
      </trkpt>
      <trkpt lat="46.48623" lon="5.36311">
        <ele>238.19999694824</ele>
        <time>2020-10-24T10:37:43.000Z</time>
      </trkpt>
      <trkpt lat="46.48629" lon="5.363">
        <ele>238</ele>
        <time>2020-10-24T10:37:44.000Z</time>
      </trkpt>
      <trkpt lat="46.48633" lon="5.36288">
        <ele>237.60000610352</ele>
        <time>2020-10-24T10:37:45.000Z</time>
      </trkpt>
      <trkpt lat="46.48636" lon="5.36274">
        <ele>237.19999694824</ele>
        <time>2020-10-24T10:37:46.000Z</time>
      </trkpt>
      <trkpt lat="46.48638" lon="5.3626">
        <ele>237</ele>
        <time>2020-10-24T10:37:47.000Z</time>
      </trkpt>
      <trkpt lat="46.4864" lon="5.36245">
        <ele>236.60000610352</ele>
        <time>2020-10-24T10:37:48.000Z</time>
      </trkpt>
      <trkpt lat="46.48644" lon="5.36217">
        <ele>235.60000610352</ele>
        <time>2020-10-24T10:37:50.000Z</time>
      </trkpt>
      <trkpt lat="46.48646" lon="5.36189">
        <ele>234</ele>
        <time>2020-10-24T10:37:52.000Z</time>
      </trkpt>
      <trkpt lat="46.48648" lon="5.36162">
        <ele>232.60000610352</ele>
        <time>2020-10-24T10:37:54.000Z</time>
      </trkpt>
      <trkpt lat="46.48651" lon="5.36135">
        <ele>231.39999389648</ele>
        <time>2020-10-24T10:37:56.000Z</time>
      </trkpt>
      <trkpt lat="46.48653" lon="5.36122">
        <ele>231.19999694824</ele>
        <time>2020-10-24T10:37:57.000Z</time>
      </trkpt>
      <trkpt lat="46.48656" lon="5.3611">
        <ele>230.80000305176</ele>
        <time>2020-10-24T10:37:58.000Z</time>
      </trkpt>
      <trkpt lat="46.48661" lon="5.36085">
        <ele>230.60000610352</ele>
        <time>2020-10-24T10:38:00.000Z</time>
      </trkpt>
      <trkpt lat="46.48666" lon="5.36062">
        <ele>230.60000610352</ele>
        <time>2020-10-24T10:38:02.000Z</time>
      </trkpt>
      <trkpt lat="46.48668" lon="5.36052">
        <ele>230.60000610352</ele>
        <time>2020-10-24T10:38:03.000Z</time>
      </trkpt>
      <trkpt lat="46.48671" lon="5.36042">
        <ele>230.60000610352</ele>
        <time>2020-10-24T10:38:04.000Z</time>
      </trkpt>
      <trkpt lat="46.48675" lon="5.36022">
        <ele>230.60000610352</ele>
        <time>2020-10-24T10:38:06.000Z</time>
      </trkpt>
      <trkpt lat="46.48678" lon="5.36003">
        <ele>230.60000610352</ele>
        <time>2020-10-24T10:38:08.000Z</time>
      </trkpt>
      <trkpt lat="46.4868" lon="5.35994">
        <ele>230.80000305176</ele>
        <time>2020-10-24T10:38:09.000Z</time>
      </trkpt>
      <trkpt lat="46.48681" lon="5.35985">
        <ele>231</ele>
        <time>2020-10-24T10:38:10.000Z</time>
      </trkpt>
      <trkpt lat="46.48683" lon="5.35965">
        <ele>231.60000610352</ele>
        <time>2020-10-24T10:38:12.000Z</time>
      </trkpt>
      <trkpt lat="46.48686" lon="5.35943">
        <ele>232.80000305176</ele>
        <time>2020-10-24T10:38:14.000Z</time>
      </trkpt>
      <trkpt lat="46.48687" lon="5.35933">
        <ele>233</ele>
        <time>2020-10-24T10:38:15.000Z</time>
      </trkpt>
      <trkpt lat="46.48689" lon="5.35922">
        <ele>233</ele>
        <time>2020-10-24T10:38:16.000Z</time>
      </trkpt>
      <trkpt lat="46.48695" lon="5.35901">
        <ele>233.19999694824</ele>
        <time>2020-10-24T10:38:18.000Z</time>
      </trkpt>
      <trkpt lat="46.48699" lon="5.35891">
        <ele>233.19999694824</ele>
        <time>2020-10-24T10:38:19.000Z</time>
      </trkpt>
      <trkpt lat="46.48703" lon="5.3588">
        <ele>233.19999694824</ele>
        <time>2020-10-24T10:38:20.000Z</time>
      </trkpt>
      <trkpt lat="46.48711" lon="5.35859">
        <ele>233.19999694824</ele>
        <time>2020-10-24T10:38:22.000Z</time>
      </trkpt>
      <trkpt lat="46.48719" lon="5.35838">
        <ele>233</ele>
        <time>2020-10-24T10:38:24.000Z</time>
      </trkpt>
      <trkpt lat="46.48729" lon="5.35817">
        <ele>232.39999389648</ele>
        <time>2020-10-24T10:38:26.000Z</time>
      </trkpt>
      <trkpt lat="46.48738" lon="5.35797">
        <ele>232</ele>
        <time>2020-10-24T10:38:28.000Z</time>
      </trkpt>
      <trkpt lat="46.48746" lon="5.35778">
        <ele>231.60000610352</ele>
        <time>2020-10-24T10:38:30.000Z</time>
      </trkpt>
      <trkpt lat="46.48755" lon="5.35757">
        <ele>230.60000610352</ele>
        <time>2020-10-24T10:38:32.000Z</time>
      </trkpt>
      <trkpt lat="46.48759" lon="5.35747">
        <ele>230.39999389648</ele>
        <time>2020-10-24T10:38:33.000Z</time>
      </trkpt>
      <trkpt lat="46.48763" lon="5.35737">
        <ele>230.39999389648</ele>
        <time>2020-10-24T10:38:34.000Z</time>
      </trkpt>
      <trkpt lat="46.48772" lon="5.35718">
        <ele>230</ele>
        <time>2020-10-24T10:38:36.000Z</time>
      </trkpt>
      <trkpt lat="46.4878" lon="5.35699">
        <ele>229.80000305176</ele>
        <time>2020-10-24T10:38:38.000Z</time>
      </trkpt>
      <trkpt lat="46.48788" lon="5.3568">
        <ele>229.80000305176</ele>
        <time>2020-10-24T10:38:40.000Z</time>
      </trkpt>
      <trkpt lat="46.48792" lon="5.35671">
        <ele>229.80000305176</ele>
        <time>2020-10-24T10:38:41.000Z</time>
      </trkpt>
      <trkpt lat="46.48796" lon="5.35662">
        <ele>229.60000610352</ele>
        <time>2020-10-24T10:38:42.000Z</time>
      </trkpt>
      <trkpt lat="46.48803" lon="5.35644">
        <ele>229.60000610352</ele>
        <time>2020-10-24T10:38:44.000Z</time>
      </trkpt>
      <trkpt lat="46.48811" lon="5.35626">
        <ele>229.60000610352</ele>
        <time>2020-10-24T10:38:46.000Z</time>
      </trkpt>
      <trkpt lat="46.48818" lon="5.35608">
        <ele>230</ele>
        <time>2020-10-24T10:38:48.000Z</time>
      </trkpt>
      <trkpt lat="46.48822" lon="5.35599">
        <ele>230.19999694824</ele>
        <time>2020-10-24T10:38:49.000Z</time>
      </trkpt>
      <trkpt lat="46.48826" lon="5.35591">
        <ele>230.19999694824</ele>
        <time>2020-10-24T10:38:50.000Z</time>
      </trkpt>
      <trkpt lat="46.48833" lon="5.35573">
        <ele>230.39999389648</ele>
        <time>2020-10-24T10:38:52.000Z</time>
      </trkpt>
      <trkpt lat="46.4884" lon="5.35556">
        <ele>230.39999389648</ele>
        <time>2020-10-24T10:38:54.000Z</time>
      </trkpt>
      <trkpt lat="46.48847" lon="5.3554">
        <ele>230.39999389648</ele>
        <time>2020-10-24T10:38:56.000Z</time>
      </trkpt>
      <trkpt lat="46.48851" lon="5.35532">
        <ele>230.39999389648</ele>
        <time>2020-10-24T10:38:57.000Z</time>
      </trkpt>
      <trkpt lat="46.48855" lon="5.35523">
        <ele>230.60000610352</ele>
        <time>2020-10-24T10:38:58.000Z</time>
      </trkpt>
      <trkpt lat="46.48862" lon="5.35507">
        <ele>230.60000610352</ele>
        <time>2020-10-24T10:39:00.000Z</time>
      </trkpt>
      <trkpt lat="46.4887" lon="5.35489">
        <ele>230.60000610352</ele>
        <time>2020-10-24T10:39:02.000Z</time>
      </trkpt>
      <trkpt lat="46.48878" lon="5.35471">
        <ele>230.60000610352</ele>
        <time>2020-10-24T10:39:04.000Z</time>
      </trkpt>
      <trkpt lat="46.48886" lon="5.35453">
        <ele>230.60000610352</ele>
        <time>2020-10-24T10:39:06.000Z</time>
      </trkpt>
      <trkpt lat="46.48894" lon="5.35436">
        <ele>230.39999389648</ele>
        <time>2020-10-24T10:39:08.000Z</time>
      </trkpt>
      <trkpt lat="46.48902" lon="5.35418">
        <ele>230.39999389648</ele>
        <time>2020-10-24T10:39:10.000Z</time>
      </trkpt>
      <trkpt lat="46.4891" lon="5.35399">
        <ele>229.80000305176</ele>
        <time>2020-10-24T10:39:12.000Z</time>
      </trkpt>
      <trkpt lat="46.48914" lon="5.3539">
        <ele>229.60000610352</ele>
        <time>2020-10-24T10:39:13.000Z</time>
      </trkpt>
      <trkpt lat="46.48918" lon="5.35381">
        <ele>229.60000610352</ele>
        <time>2020-10-24T10:39:14.000Z</time>
      </trkpt>
      <trkpt lat="46.48927" lon="5.35361">
        <ele>229.39999389648</ele>
        <time>2020-10-24T10:39:16.000Z</time>
      </trkpt>
      <trkpt lat="46.48935" lon="5.35342">
        <ele>229.39999389648</ele>
        <time>2020-10-24T10:39:18.000Z</time>
      </trkpt>
      <trkpt lat="46.48939" lon="5.35333">
        <ele>229.19999694824</ele>
        <time>2020-10-24T10:39:19.000Z</time>
      </trkpt>
      <trkpt lat="46.48944" lon="5.35323">
        <ele>229.19999694824</ele>
        <time>2020-10-24T10:39:20.000Z</time>
      </trkpt>
      <trkpt lat="46.48951" lon="5.35305">
        <ele>229</ele>
        <time>2020-10-24T10:39:22.000Z</time>
      </trkpt>
      <trkpt lat="46.48955" lon="5.35296">
        <ele>228.80000305176</ele>
        <time>2020-10-24T10:39:23.000Z</time>
      </trkpt>
      <trkpt lat="46.48959" lon="5.35288">
        <ele>228.80000305176</ele>
        <time>2020-10-24T10:39:24.000Z</time>
      </trkpt>
      <trkpt lat="46.48966" lon="5.3527">
        <ele>228.80000305176</ele>
        <time>2020-10-24T10:39:26.000Z</time>
      </trkpt>
      <trkpt lat="46.48974" lon="5.35253">
        <ele>228.80000305176</ele>
        <time>2020-10-24T10:39:28.000Z</time>
      </trkpt>
      <trkpt lat="46.48981" lon="5.35237">
        <ele>228.80000305176</ele>
        <time>2020-10-24T10:39:30.000Z</time>
      </trkpt>
      <trkpt lat="46.48988" lon="5.35222">
        <ele>228.80000305176</ele>
        <time>2020-10-24T10:39:32.000Z</time>
      </trkpt>
      <trkpt lat="46.48995" lon="5.35206">
        <ele>229</ele>
        <time>2020-10-24T10:39:34.000Z</time>
      </trkpt>
      <trkpt lat="46.49001" lon="5.3519">
        <ele>229.60000610352</ele>
        <time>2020-10-24T10:39:36.000Z</time>
      </trkpt>
      <trkpt lat="46.49007" lon="5.35176">
        <ele>229.80000305176</ele>
        <time>2020-10-24T10:39:38.000Z</time>
      </trkpt>
      <trkpt lat="46.4901" lon="5.35169">
        <ele>230.19999694824</ele>
        <time>2020-10-24T10:39:39.000Z</time>
      </trkpt>
      <trkpt lat="46.49013" lon="5.35162">
        <ele>230.39999389648</ele>
        <time>2020-10-24T10:39:40.000Z</time>
      </trkpt>
      <trkpt lat="46.49019" lon="5.35148">
        <ele>230.80000305176</ele>
        <time>2020-10-24T10:39:42.000Z</time>
      </trkpt>
      <trkpt lat="46.49026" lon="5.35133">
        <ele>231.19999694824</ele>
        <time>2020-10-24T10:39:44.000Z</time>
      </trkpt>
      <trkpt lat="46.49033" lon="5.3512">
        <ele>231.39999389648</ele>
        <time>2020-10-24T10:39:46.000Z</time>
      </trkpt>
      <trkpt lat="46.49038" lon="5.35113">
        <ele>231.60000610352</ele>
        <time>2020-10-24T10:39:47.000Z</time>
      </trkpt>
      <trkpt lat="46.49043" lon="5.35107">
        <ele>231.80000305176</ele>
        <time>2020-10-24T10:39:48.000Z</time>
      </trkpt>
      <trkpt lat="46.49054" lon="5.35096">
        <ele>231.80000305176</ele>
        <time>2020-10-24T10:39:50.000Z</time>
      </trkpt>
      <trkpt lat="46.49065" lon="5.35086">
        <ele>232</ele>
        <time>2020-10-24T10:39:52.000Z</time>
      </trkpt>
      <trkpt lat="46.49071" lon="5.35081">
        <ele>232</ele>
        <time>2020-10-24T10:39:53.000Z</time>
      </trkpt>
      <trkpt lat="46.49077" lon="5.35076">
        <ele>232</ele>
        <time>2020-10-24T10:39:54.000Z</time>
      </trkpt>
      <trkpt lat="46.49088" lon="5.35065">
        <ele>232</ele>
        <time>2020-10-24T10:39:56.000Z</time>
      </trkpt>
      <trkpt lat="46.49101" lon="5.35055">
        <ele>231.80000305176</ele>
        <time>2020-10-24T10:39:58.000Z</time>
      </trkpt>
      <trkpt lat="46.49114" lon="5.35043">
        <ele>231.60000610352</ele>
        <time>2020-10-24T10:40:00.000Z</time>
      </trkpt>
      <trkpt lat="46.49127" lon="5.35032">
        <ele>231.19999694824</ele>
        <time>2020-10-24T10:40:02.000Z</time>
      </trkpt>
      <trkpt lat="46.4914" lon="5.35021">
        <ele>230.80000305176</ele>
        <time>2020-10-24T10:40:04.000Z</time>
      </trkpt>
      <trkpt lat="46.49152" lon="5.35009">
        <ele>230.19999694824</ele>
        <time>2020-10-24T10:40:06.000Z</time>
      </trkpt>
      <trkpt lat="46.49166" lon="5.34999">
        <ele>229.60000610352</ele>
        <time>2020-10-24T10:40:08.000Z</time>
      </trkpt>
      <trkpt lat="46.49179" lon="5.34988">
        <ele>229.39999389648</ele>
        <time>2020-10-24T10:40:10.000Z</time>
      </trkpt>
      <trkpt lat="46.49191" lon="5.34975">
        <ele>229.19999694824</ele>
        <time>2020-10-24T10:40:12.000Z</time>
      </trkpt>
      <trkpt lat="46.49196" lon="5.34968">
        <ele>229.19999694824</ele>
        <time>2020-10-24T10:40:13.000Z</time>
      </trkpt>
      <trkpt lat="46.49201" lon="5.34961">
        <ele>229.19999694824</ele>
        <time>2020-10-24T10:40:14.000Z</time>
      </trkpt>
      <trkpt lat="46.49206" lon="5.34953">
        <ele>229.19999694824</ele>
        <time>2020-10-24T10:40:15.000Z</time>
      </trkpt>
      <trkpt lat="46.49211" lon="5.34946">
        <ele>229</ele>
        <time>2020-10-24T10:40:16.000Z</time>
      </trkpt>
      <trkpt lat="46.49221" lon="5.34931">
        <ele>229</ele>
        <time>2020-10-24T10:40:18.000Z</time>
      </trkpt>
      <trkpt lat="46.49231" lon="5.34916">
        <ele>229</ele>
        <time>2020-10-24T10:40:20.000Z</time>
      </trkpt>
      <trkpt lat="46.4924" lon="5.34899">
        <ele>229</ele>
        <time>2020-10-24T10:40:22.000Z</time>
      </trkpt>
      <trkpt lat="46.4925" lon="5.34885">
        <ele>228.60000610352</ele>
        <time>2020-10-24T10:40:24.000Z</time>
      </trkpt>
      <trkpt lat="46.4926" lon="5.3487">
        <ele>228.80000305176</ele>
        <time>2020-10-24T10:40:26.000Z</time>
      </trkpt>
      <trkpt lat="46.49271" lon="5.34856">
        <ele>228.80000305176</ele>
        <time>2020-10-24T10:40:28.000Z</time>
      </trkpt>
      <trkpt lat="46.49283" lon="5.34846">
        <ele>228.80000305176</ele>
        <time>2020-10-24T10:40:30.000Z</time>
      </trkpt>
      <trkpt lat="46.49296" lon="5.34839">
        <ele>228.80000305176</ele>
        <time>2020-10-24T10:40:32.000Z</time>
      </trkpt>
      <trkpt lat="46.4931" lon="5.34834">
        <ele>228.39999389648</ele>
        <time>2020-10-24T10:40:34.000Z</time>
      </trkpt>
      <trkpt lat="46.49317" lon="5.34832">
        <ele>228.39999389648</ele>
        <time>2020-10-24T10:40:35.000Z</time>
      </trkpt>
      <trkpt lat="46.49324" lon="5.34831">
        <ele>228.39999389648</ele>
        <time>2020-10-24T10:40:36.000Z</time>
      </trkpt>
      <trkpt lat="46.49331" lon="5.3483">
        <ele>228.39999389648</ele>
        <time>2020-10-24T10:40:37.000Z</time>
      </trkpt>
      <trkpt lat="46.49338" lon="5.34829">
        <ele>228.19999694824</ele>
        <time>2020-10-24T10:40:38.000Z</time>
      </trkpt>
      <trkpt lat="46.49353" lon="5.34826">
        <ele>228.19999694824</ele>
        <time>2020-10-24T10:40:40.000Z</time>
      </trkpt>
      <trkpt lat="46.49368" lon="5.34824">
        <ele>228.19999694824</ele>
        <time>2020-10-24T10:40:42.000Z</time>
      </trkpt>
      <trkpt lat="46.49381" lon="5.34821">
        <ele>228.19999694824</ele>
        <time>2020-10-24T10:40:44.000Z</time>
      </trkpt>
      <trkpt lat="46.49388" lon="5.34819">
        <ele>228.19999694824</ele>
        <time>2020-10-24T10:40:45.000Z</time>
      </trkpt>
      <trkpt lat="46.49394" lon="5.34816">
        <ele>228.19999694824</ele>
        <time>2020-10-24T10:40:46.000Z</time>
      </trkpt>
      <trkpt lat="46.49407" lon="5.3481">
        <ele>228.39999389648</ele>
        <time>2020-10-24T10:40:48.000Z</time>
      </trkpt>
      <trkpt lat="46.49413" lon="5.34806">
        <ele>228.39999389648</ele>
        <time>2020-10-24T10:40:49.000Z</time>
      </trkpt>
      <trkpt lat="46.49419" lon="5.34801">
        <ele>228.39999389648</ele>
        <time>2020-10-24T10:40:50.000Z</time>
      </trkpt>
      <trkpt lat="46.49431" lon="5.34789">
        <ele>228.39999389648</ele>
        <time>2020-10-24T10:40:52.000Z</time>
      </trkpt>
      <trkpt lat="46.49444" lon="5.34778">
        <ele>228.39999389648</ele>
        <time>2020-10-24T10:40:54.000Z</time>
      </trkpt>
      <trkpt lat="46.49457" lon="5.34765">
        <ele>228.39999389648</ele>
        <time>2020-10-24T10:40:56.000Z</time>
      </trkpt>
      <trkpt lat="46.49471" lon="5.3475">
        <ele>228.39999389648</ele>
        <time>2020-10-24T10:40:58.000Z</time>
      </trkpt>
      <trkpt lat="46.49486" lon="5.34734">
        <ele>228</ele>
        <time>2020-10-24T10:41:00.000Z</time>
      </trkpt>
      <trkpt lat="46.49493" lon="5.34725">
        <ele>227.80000305176</ele>
        <time>2020-10-24T10:41:01.000Z</time>
      </trkpt>
      <trkpt lat="46.49501" lon="5.34716">
        <ele>227.39999389648</ele>
        <time>2020-10-24T10:41:02.000Z</time>
      </trkpt>
      <trkpt lat="46.49509" lon="5.34707">
        <ele>226.80000305176</ele>
        <time>2020-10-24T10:41:03.000Z</time>
      </trkpt>
      <trkpt lat="46.49517" lon="5.34698">
        <ele>226</ele>
        <time>2020-10-24T10:41:04.000Z</time>
      </trkpt>
      <trkpt lat="46.49525" lon="5.34689">
        <ele>225.19999694824</ele>
        <time>2020-10-24T10:41:05.000Z</time>
      </trkpt>
      <trkpt lat="46.49533" lon="5.3468">
        <ele>224.39999389648</ele>
        <time>2020-10-24T10:41:06.000Z</time>
      </trkpt>
      <trkpt lat="46.49541" lon="5.3467">
        <ele>223.80000305176</ele>
        <time>2020-10-24T10:41:07.000Z</time>
      </trkpt>
      <trkpt lat="46.49549" lon="5.3466">
        <ele>223.19999694824</ele>
        <time>2020-10-24T10:41:08.000Z</time>
      </trkpt>
      <trkpt lat="46.49557" lon="5.3465">
        <ele>222.39999389648</ele>
        <time>2020-10-24T10:41:09.000Z</time>
      </trkpt>
      <trkpt lat="46.49565" lon="5.3464">
        <ele>221.60000610352</ele>
        <time>2020-10-24T10:41:10.000Z</time>
      </trkpt>
      <trkpt lat="46.49572" lon="5.3463">
        <ele>221</ele>
        <time>2020-10-24T10:41:11.000Z</time>
      </trkpt>
      <trkpt lat="46.4958" lon="5.3462">
        <ele>220.60000610352</ele>
        <time>2020-10-24T10:41:12.000Z</time>
      </trkpt>
      <trkpt lat="46.49595" lon="5.34599">
        <ele>219.39999389648</ele>
        <time>2020-10-24T10:41:14.000Z</time>
      </trkpt>
      <trkpt lat="46.49601" lon="5.34588">
        <ele>219</ele>
        <time>2020-10-24T10:41:15.000Z</time>
      </trkpt>
      <trkpt lat="46.49607" lon="5.34578">
        <ele>218.19999694824</ele>
        <time>2020-10-24T10:41:16.000Z</time>
      </trkpt>
      <trkpt lat="46.4962" lon="5.34559">
        <ele>216.80000305176</ele>
        <time>2020-10-24T10:41:18.000Z</time>
      </trkpt>
      <trkpt lat="46.49626" lon="5.34551">
        <ele>216.19999694824</ele>
        <time>2020-10-24T10:41:19.000Z</time>
      </trkpt>
      <trkpt lat="46.49632" lon="5.34546">
        <ele>216.19999694824</ele>
        <time>2020-10-24T10:41:20.000Z</time>
      </trkpt>
      <trkpt lat="46.4964" lon="5.34542">
        <ele>216</ele>
        <time>2020-10-24T10:41:22.000Z</time>
      </trkpt>
      <trkpt lat="46.49646" lon="5.34536">
        <ele>216</ele>
        <time>2020-10-24T10:41:24.000Z</time>
      </trkpt>
      <trkpt lat="46.49652" lon="5.34525">
        <ele>216</ele>
        <time>2020-10-24T10:41:26.000Z</time>
      </trkpt>
      <trkpt lat="46.49656" lon="5.34511">
        <ele>216.39999389648</ele>
        <time>2020-10-24T10:41:28.000Z</time>
      </trkpt>
      <trkpt lat="46.4966" lon="5.34497">
        <ele>217.39999389648</ele>
        <time>2020-10-24T10:41:30.000Z</time>
      </trkpt>
      <trkpt lat="46.49664" lon="5.34482">
        <ele>217.80000305176</ele>
        <time>2020-10-24T10:41:32.000Z</time>
      </trkpt>
      <trkpt lat="46.49667" lon="5.34474">
        <ele>218</ele>
        <time>2020-10-24T10:41:33.000Z</time>
      </trkpt>
      <trkpt lat="46.49669" lon="5.34467">
        <ele>218</ele>
        <time>2020-10-24T10:41:34.000Z</time>
      </trkpt>
      <trkpt lat="46.49674" lon="5.3445">
        <ele>218.19999694824</ele>
        <time>2020-10-24T10:41:36.000Z</time>
      </trkpt>
      <trkpt lat="46.49678" lon="5.34434">
        <ele>218.39999389648</ele>
        <time>2020-10-24T10:41:38.000Z</time>
      </trkpt>
      <trkpt lat="46.49683" lon="5.34419">
        <ele>218.39999389648</ele>
        <time>2020-10-24T10:41:40.000Z</time>
      </trkpt>
      <trkpt lat="46.49687" lon="5.34403">
        <ele>218.60000610352</ele>
        <time>2020-10-24T10:41:42.000Z</time>
      </trkpt>
      <trkpt lat="46.49691" lon="5.34389">
        <ele>219</ele>
        <time>2020-10-24T10:41:44.000Z</time>
      </trkpt>
      <trkpt lat="46.49695" lon="5.34375">
        <ele>219.39999389648</ele>
        <time>2020-10-24T10:41:46.000Z</time>
      </trkpt>
      <trkpt lat="46.49699" lon="5.34359">
        <ele>220</ele>
        <time>2020-10-24T10:41:48.000Z</time>
      </trkpt>
      <trkpt lat="46.49703" lon="5.34345">
        <ele>220.39999389648</ele>
        <time>2020-10-24T10:41:50.000Z</time>
      </trkpt>
      <trkpt lat="46.49708" lon="5.34332">
        <ele>220.60000610352</ele>
        <time>2020-10-24T10:41:52.000Z</time>
      </trkpt>
      <trkpt lat="46.49711" lon="5.34326">
        <ele>220.80000305176</ele>
        <time>2020-10-24T10:41:53.000Z</time>
      </trkpt>
      <trkpt lat="46.49713" lon="5.34317">
        <ele>221</ele>
        <time>2020-10-24T10:41:54.000Z</time>
      </trkpt>
      <trkpt lat="46.49718" lon="5.34303">
        <ele>221.60000610352</ele>
        <time>2020-10-24T10:41:56.000Z</time>
      </trkpt>
      <trkpt lat="46.49724" lon="5.34288">
        <ele>221.80000305176</ele>
        <time>2020-10-24T10:41:58.000Z</time>
      </trkpt>
      <trkpt lat="46.49732" lon="5.34273">
        <ele>222</ele>
        <time>2020-10-24T10:42:00.000Z</time>
      </trkpt>
      <trkpt lat="46.4974" lon="5.34259">
        <ele>222.19999694824</ele>
        <time>2020-10-24T10:42:02.000Z</time>
      </trkpt>
      <trkpt lat="46.49748" lon="5.34245">
        <ele>222.19999694824</ele>
        <time>2020-10-24T10:42:04.000Z</time>
      </trkpt>
      <trkpt lat="46.49756" lon="5.34231">
        <ele>222.39999389648</ele>
        <time>2020-10-24T10:42:06.000Z</time>
      </trkpt>
      <trkpt lat="46.49764" lon="5.34218">
        <ele>222.39999389648</ele>
        <time>2020-10-24T10:42:08.000Z</time>
      </trkpt>
      <trkpt lat="46.49768" lon="5.34211">
        <ele>222.39999389648</ele>
        <time>2020-10-24T10:42:09.000Z</time>
      </trkpt>
      <trkpt lat="46.49771" lon="5.34204">
        <ele>222.39999389648</ele>
        <time>2020-10-24T10:42:10.000Z</time>
      </trkpt>
      <trkpt lat="46.49779" lon="5.34192">
        <ele>222.39999389648</ele>
        <time>2020-10-24T10:42:12.000Z</time>
      </trkpt>
      <trkpt lat="46.49787" lon="5.34179">
        <ele>222.39999389648</ele>
        <time>2020-10-24T10:42:14.000Z</time>
      </trkpt>
      <trkpt lat="46.49795" lon="5.34167">
        <ele>222.39999389648</ele>
        <time>2020-10-24T10:42:16.000Z</time>
      </trkpt>
      <trkpt lat="46.49803" lon="5.34154">
        <ele>222.60000610352</ele>
        <time>2020-10-24T10:42:18.000Z</time>
      </trkpt>
      <trkpt lat="46.4981" lon="5.34141">
        <ele>222.60000610352</ele>
        <time>2020-10-24T10:42:20.000Z</time>
      </trkpt>
      <trkpt lat="46.49817" lon="5.34127">
        <ele>222.80000305176</ele>
        <time>2020-10-24T10:42:22.000Z</time>
      </trkpt>
      <trkpt lat="46.49825" lon="5.34114">
        <ele>222.80000305176</ele>
        <time>2020-10-24T10:42:24.000Z</time>
      </trkpt>
      <trkpt lat="46.49833" lon="5.34101">
        <ele>222.80000305176</ele>
        <time>2020-10-24T10:42:26.000Z</time>
      </trkpt>
      <trkpt lat="46.49842" lon="5.34087">
        <ele>222.80000305176</ele>
        <time>2020-10-24T10:42:28.000Z</time>
      </trkpt>
      <trkpt lat="46.49851" lon="5.34073">
        <ele>222.80000305176</ele>
        <time>2020-10-24T10:42:30.000Z</time>
      </trkpt>
      <trkpt lat="46.49861" lon="5.3406">
        <ele>222.80000305176</ele>
        <time>2020-10-24T10:42:32.000Z</time>
      </trkpt>
      <trkpt lat="46.49871" lon="5.34047">
        <ele>222.60000610352</ele>
        <time>2020-10-24T10:42:34.000Z</time>
      </trkpt>
      <trkpt lat="46.49881" lon="5.34035">
        <ele>222.60000610352</ele>
        <time>2020-10-24T10:42:36.000Z</time>
      </trkpt>
      <trkpt lat="46.49891" lon="5.34024">
        <ele>222.60000610352</ele>
        <time>2020-10-24T10:42:38.000Z</time>
      </trkpt>
      <trkpt lat="46.499" lon="5.34014">
        <ele>222.60000610352</ele>
        <time>2020-10-24T10:42:40.000Z</time>
      </trkpt>
      <trkpt lat="46.49909" lon="5.34004">
        <ele>222.60000610352</ele>
        <time>2020-10-24T10:42:42.000Z</time>
      </trkpt>
      <trkpt lat="46.49914" lon="5.34">
        <ele>222.60000610352</ele>
        <time>2020-10-24T10:42:43.000Z</time>
      </trkpt>
      <trkpt lat="46.49918" lon="5.33995">
        <ele>222.60000610352</ele>
        <time>2020-10-24T10:42:44.000Z</time>
      </trkpt>
      <trkpt lat="46.49926" lon="5.33985">
        <ele>223</ele>
        <time>2020-10-24T10:42:46.000Z</time>
      </trkpt>
      <trkpt lat="46.49935" lon="5.33977">
        <ele>223.39999389648</ele>
        <time>2020-10-24T10:42:48.000Z</time>
      </trkpt>
      <trkpt lat="46.49943" lon="5.33968">
        <ele>224</ele>
        <time>2020-10-24T10:42:50.000Z</time>
      </trkpt>
      <trkpt lat="46.49951" lon="5.33959">
        <ele>224.39999389648</ele>
        <time>2020-10-24T10:42:52.000Z</time>
      </trkpt>
      <trkpt lat="46.4996" lon="5.3395">
        <ele>224.60000610352</ele>
        <time>2020-10-24T10:42:54.000Z</time>
      </trkpt>
      <trkpt lat="46.49968" lon="5.33941">
        <ele>224.80000305176</ele>
        <time>2020-10-24T10:42:56.000Z</time>
      </trkpt>
      <trkpt lat="46.49973" lon="5.33936">
        <ele>225</ele>
        <time>2020-10-24T10:42:57.000Z</time>
      </trkpt>
      <trkpt lat="46.49978" lon="5.33932">
        <ele>225</ele>
        <time>2020-10-24T10:42:58.000Z</time>
      </trkpt>
      <trkpt lat="46.49988" lon="5.33922">
        <ele>225.19999694824</ele>
        <time>2020-10-24T10:43:00.000Z</time>
      </trkpt>
      <trkpt lat="46.49997" lon="5.33912">
        <ele>225.39999389648</ele>
        <time>2020-10-24T10:43:02.000Z</time>
      </trkpt>
      <trkpt lat="46.50006" lon="5.33901">
        <ele>225.39999389648</ele>
        <time>2020-10-24T10:43:04.000Z</time>
      </trkpt>
      <trkpt lat="46.50017" lon="5.33891">
        <ele>225.39999389648</ele>
        <time>2020-10-24T10:43:06.000Z</time>
      </trkpt>
      <trkpt lat="46.50027" lon="5.33879">
        <ele>225.39999389648</ele>
        <time>2020-10-24T10:43:08.000Z</time>
      </trkpt>
      <trkpt lat="46.50032" lon="5.33873">
        <ele>225.39999389648</ele>
        <time>2020-10-24T10:43:09.000Z</time>
      </trkpt>
      <trkpt lat="46.50038" lon="5.33867">
        <ele>225.39999389648</ele>
        <time>2020-10-24T10:43:10.000Z</time>
      </trkpt>
      <trkpt lat="46.50049" lon="5.33855">
        <ele>225.19999694824</ele>
        <time>2020-10-24T10:43:12.000Z</time>
      </trkpt>
      <trkpt lat="46.50061" lon="5.33842">
        <ele>225</ele>
        <time>2020-10-24T10:43:14.000Z</time>
      </trkpt>
      <trkpt lat="46.50074" lon="5.33829">
        <ele>224.80000305176</ele>
        <time>2020-10-24T10:43:16.000Z</time>
      </trkpt>
      <trkpt lat="46.50087" lon="5.33815">
        <ele>224.19999694824</ele>
        <time>2020-10-24T10:43:18.000Z</time>
      </trkpt>
      <trkpt lat="46.501" lon="5.33801">
        <ele>223.80000305176</ele>
        <time>2020-10-24T10:43:20.000Z</time>
      </trkpt>
      <trkpt lat="46.50113" lon="5.33786">
        <ele>223.19999694824</ele>
        <time>2020-10-24T10:43:22.000Z</time>
      </trkpt>
      <trkpt lat="46.50119" lon="5.33779">
        <ele>223</ele>
        <time>2020-10-24T10:43:23.000Z</time>
      </trkpt>
      <trkpt lat="46.50125" lon="5.33772">
        <ele>222.80000305176</ele>
        <time>2020-10-24T10:43:24.000Z</time>
      </trkpt>
      <trkpt lat="46.50138" lon="5.33758">
        <ele>222.39999389648</ele>
        <time>2020-10-24T10:43:26.000Z</time>
      </trkpt>
      <trkpt lat="46.50151" lon="5.33745">
        <ele>222.39999389648</ele>
        <time>2020-10-24T10:43:28.000Z</time>
      </trkpt>
      <trkpt lat="46.50163" lon="5.33733">
        <ele>222.39999389648</ele>
        <time>2020-10-24T10:43:30.000Z</time>
      </trkpt>
      <trkpt lat="46.50174" lon="5.3372">
        <ele>222.39999389648</ele>
        <time>2020-10-24T10:43:32.000Z</time>
      </trkpt>
      <trkpt lat="46.50186" lon="5.33708">
        <ele>222.39999389648</ele>
        <time>2020-10-24T10:43:34.000Z</time>
      </trkpt>
      <trkpt lat="46.50197" lon="5.33696">
        <ele>222.60000610352</ele>
        <time>2020-10-24T10:43:36.000Z</time>
      </trkpt>
      <trkpt lat="46.50203" lon="5.33689">
        <ele>222.80000305176</ele>
        <time>2020-10-24T10:43:37.000Z</time>
      </trkpt>
      <trkpt lat="46.50209" lon="5.33683">
        <ele>222.80000305176</ele>
        <time>2020-10-24T10:43:38.000Z</time>
      </trkpt>
      <trkpt lat="46.5022" lon="5.33671">
        <ele>222.80000305176</ele>
        <time>2020-10-24T10:43:40.000Z</time>
      </trkpt>
      <trkpt lat="46.50232" lon="5.33658">
        <ele>222.80000305176</ele>
        <time>2020-10-24T10:43:42.000Z</time>
      </trkpt>
      <trkpt lat="46.50243" lon="5.33646">
        <ele>222.80000305176</ele>
        <time>2020-10-24T10:43:44.000Z</time>
      </trkpt>
      <trkpt lat="46.50249" lon="5.33639">
        <ele>222.80000305176</ele>
        <time>2020-10-24T10:43:45.000Z</time>
      </trkpt>
      <trkpt lat="46.50255" lon="5.33632">
        <ele>222.80000305176</ele>
        <time>2020-10-24T10:43:46.000Z</time>
      </trkpt>
      <trkpt lat="46.50267" lon="5.33619">
        <ele>222.80000305176</ele>
        <time>2020-10-24T10:43:48.000Z</time>
      </trkpt>
      <trkpt lat="46.50279" lon="5.33607">
        <ele>222.60000610352</ele>
        <time>2020-10-24T10:43:50.000Z</time>
      </trkpt>
      <trkpt lat="46.50291" lon="5.33594">
        <ele>222.39999389648</ele>
        <time>2020-10-24T10:43:52.000Z</time>
      </trkpt>
      <trkpt lat="46.50303" lon="5.33581">
        <ele>222.19999694824</ele>
        <time>2020-10-24T10:43:54.000Z</time>
      </trkpt>
      <trkpt lat="46.50315" lon="5.33568">
        <ele>221.80000305176</ele>
        <time>2020-10-24T10:43:56.000Z</time>
      </trkpt>
      <trkpt lat="46.50328" lon="5.33554">
        <ele>221.80000305176</ele>
        <time>2020-10-24T10:43:58.000Z</time>
      </trkpt>
      <trkpt lat="46.50334" lon="5.33548">
        <ele>221.60000610352</ele>
        <time>2020-10-24T10:43:59.000Z</time>
      </trkpt>
      <trkpt lat="46.5034" lon="5.33541">
        <ele>221.60000610352</ele>
        <time>2020-10-24T10:44:00.000Z</time>
      </trkpt>
      <trkpt lat="46.50346" lon="5.33535">
        <ele>221.60000610352</ele>
        <time>2020-10-24T10:44:01.000Z</time>
      </trkpt>
      <trkpt lat="46.50352" lon="5.33528">
        <ele>221.60000610352</ele>
        <time>2020-10-24T10:44:02.000Z</time>
      </trkpt>
      <trkpt lat="46.50364" lon="5.33515">
        <ele>221.60000610352</ele>
        <time>2020-10-24T10:44:04.000Z</time>
      </trkpt>
      <trkpt lat="46.50376" lon="5.33502">
        <ele>221.39999389648</ele>
        <time>2020-10-24T10:44:06.000Z</time>
      </trkpt>
      <trkpt lat="46.50388" lon="5.33489">
        <ele>221.19999694824</ele>
        <time>2020-10-24T10:44:08.000Z</time>
      </trkpt>
      <trkpt lat="46.50394" lon="5.33482">
        <ele>221.19999694824</ele>
        <time>2020-10-24T10:44:09.000Z</time>
      </trkpt>
      <trkpt lat="46.504" lon="5.33476">
        <ele>221</ele>
        <time>2020-10-24T10:44:10.000Z</time>
      </trkpt>
      <trkpt lat="46.50413" lon="5.33462">
        <ele>220.80000305176</ele>
        <time>2020-10-24T10:44:12.000Z</time>
      </trkpt>
      <trkpt lat="46.50426" lon="5.33448">
        <ele>220.60000610352</ele>
        <time>2020-10-24T10:44:14.000Z</time>
      </trkpt>
      <trkpt lat="46.50437" lon="5.33432">
        <ele>220.19999694824</ele>
        <time>2020-10-24T10:44:16.000Z</time>
      </trkpt>
      <trkpt lat="46.50447" lon="5.33414">
        <ele>220.19999694824</ele>
        <time>2020-10-24T10:44:18.000Z</time>
      </trkpt>
      <trkpt lat="46.50455" lon="5.33394">
        <ele>220</ele>
        <time>2020-10-24T10:44:20.000Z</time>
      </trkpt>
      <trkpt lat="46.5046" lon="5.33372">
        <ele>219.60000610352</ele>
        <time>2020-10-24T10:44:22.000Z</time>
      </trkpt>
      <trkpt lat="46.50462" lon="5.33361">
        <ele>219.39999389648</ele>
        <time>2020-10-24T10:44:23.000Z</time>
      </trkpt>
      <trkpt lat="46.50463" lon="5.3335">
        <ele>219.19999694824</ele>
        <time>2020-10-24T10:44:24.000Z</time>
      </trkpt>
      <trkpt lat="46.50464" lon="5.33339">
        <ele>219</ele>
        <time>2020-10-24T10:44:25.000Z</time>
      </trkpt>
      <trkpt lat="46.50464" lon="5.33329">
        <ele>218.80000305176</ele>
        <time>2020-10-24T10:44:26.000Z</time>
      </trkpt>
      <trkpt lat="46.50466" lon="5.33308">
        <ele>218.39999389648</ele>
        <time>2020-10-24T10:44:28.000Z</time>
      </trkpt>
      <trkpt lat="46.50467" lon="5.33288">
        <ele>218.39999389648</ele>
        <time>2020-10-24T10:44:30.000Z</time>
      </trkpt>
      <trkpt lat="46.50468" lon="5.33269">
        <ele>218.39999389648</ele>
        <time>2020-10-24T10:44:32.000Z</time>
      </trkpt>
      <trkpt lat="46.50469" lon="5.3325">
        <ele>218.39999389648</ele>
        <time>2020-10-24T10:44:34.000Z</time>
      </trkpt>
      <trkpt lat="46.50469" lon="5.33231">
        <ele>218.39999389648</ele>
        <time>2020-10-24T10:44:36.000Z</time>
      </trkpt>
      <trkpt lat="46.5047" lon="5.33221">
        <ele>218.60000610352</ele>
        <time>2020-10-24T10:44:37.000Z</time>
      </trkpt>
      <trkpt lat="46.5047" lon="5.33212">
        <ele>218.80000305176</ele>
        <time>2020-10-24T10:44:38.000Z</time>
      </trkpt>
      <trkpt lat="46.5047" lon="5.33192">
        <ele>219</ele>
        <time>2020-10-24T10:44:40.000Z</time>
      </trkpt>
      <trkpt lat="46.5047" lon="5.33172">
        <ele>219.19999694824</ele>
        <time>2020-10-24T10:44:42.000Z</time>
      </trkpt>
      <trkpt lat="46.5047" lon="5.33151">
        <ele>219.19999694824</ele>
        <time>2020-10-24T10:44:44.000Z</time>
      </trkpt>
      <trkpt lat="46.50471" lon="5.33128">
        <ele>219.19999694824</ele>
        <time>2020-10-24T10:44:46.000Z</time>
      </trkpt>
      <trkpt lat="46.50471" lon="5.33104">
        <ele>219.19999694824</ele>
        <time>2020-10-24T10:44:48.000Z</time>
      </trkpt>
      <trkpt lat="46.50471" lon="5.33079">
        <ele>218.80000305176</ele>
        <time>2020-10-24T10:44:50.000Z</time>
      </trkpt>
      <trkpt lat="46.50472" lon="5.33052">
        <ele>218</ele>
        <time>2020-10-24T10:44:52.000Z</time>
      </trkpt>
      <trkpt lat="46.50473" lon="5.33024">
        <ele>217.39999389648</ele>
        <time>2020-10-24T10:44:54.000Z</time>
      </trkpt>
      <trkpt lat="46.50473" lon="5.3301">
        <ele>216.80000305176</ele>
        <time>2020-10-24T10:44:55.000Z</time>
      </trkpt>
      <trkpt lat="46.50473" lon="5.32995">
        <ele>216.19999694824</ele>
        <time>2020-10-24T10:44:56.000Z</time>
      </trkpt>
      <trkpt lat="46.50474" lon="5.3298">
        <ele>215.60000610352</ele>
        <time>2020-10-24T10:44:57.000Z</time>
      </trkpt>
      <trkpt lat="46.50474" lon="5.32965">
        <ele>215</ele>
        <time>2020-10-24T10:44:58.000Z</time>
      </trkpt>
      <trkpt lat="46.50474" lon="5.3295">
        <ele>214.19999694824</ele>
        <time>2020-10-24T10:44:59.000Z</time>
      </trkpt>
      <trkpt lat="46.50474" lon="5.32935">
        <ele>213</ele>
        <time>2020-10-24T10:45:00.000Z</time>
      </trkpt>
      <trkpt lat="46.50475" lon="5.32904">
        <ele>212</ele>
        <time>2020-10-24T10:45:02.000Z</time>
      </trkpt>
      <trkpt lat="46.50475" lon="5.32889">
        <ele>211.39999389648</ele>
        <time>2020-10-24T10:45:03.000Z</time>
      </trkpt>
      <trkpt lat="46.50475" lon="5.32873">
        <ele>210.80000305176</ele>
        <time>2020-10-24T10:45:04.000Z</time>
      </trkpt>
      <trkpt lat="46.50475" lon="5.32842">
        <ele>210</ele>
        <time>2020-10-24T10:45:06.000Z</time>
      </trkpt>
      <trkpt lat="46.50476" lon="5.32811">
        <ele>208.80000305176</ele>
        <time>2020-10-24T10:45:08.000Z</time>
      </trkpt>
      <trkpt lat="46.50476" lon="5.32782">
        <ele>207.39999389648</ele>
        <time>2020-10-24T10:45:10.000Z</time>
      </trkpt>
      <trkpt lat="46.50477" lon="5.32753">
        <ele>205.60000610352</ele>
        <time>2020-10-24T10:45:12.000Z</time>
      </trkpt>
      <trkpt lat="46.50477" lon="5.32739">
        <ele>205</ele>
        <time>2020-10-24T10:45:13.000Z</time>
      </trkpt>
      <trkpt lat="46.50477" lon="5.32726">
        <ele>204.60000610352</ele>
        <time>2020-10-24T10:45:14.000Z</time>
      </trkpt>
      <trkpt lat="46.50477" lon="5.32699">
        <ele>204.19999694824</ele>
        <time>2020-10-24T10:45:16.000Z</time>
      </trkpt>
      <trkpt lat="46.50478" lon="5.32672">
        <ele>204.19999694824</ele>
        <time>2020-10-24T10:45:18.000Z</time>
      </trkpt>
      <trkpt lat="46.50478" lon="5.32646">
        <ele>204</ele>
        <time>2020-10-24T10:45:20.000Z</time>
      </trkpt>
      <trkpt lat="46.50478" lon="5.32621">
        <ele>204</ele>
        <time>2020-10-24T10:45:22.000Z</time>
      </trkpt>
      <trkpt lat="46.50478" lon="5.32608">
        <ele>204</ele>
        <time>2020-10-24T10:45:23.000Z</time>
      </trkpt>
      <trkpt lat="46.50478" lon="5.32596">
        <ele>203.80000305176</ele>
        <time>2020-10-24T10:45:24.000Z</time>
      </trkpt>
      <trkpt lat="46.50477" lon="5.32571">
        <ele>203.80000305176</ele>
        <time>2020-10-24T10:45:26.000Z</time>
      </trkpt>
      <trkpt lat="46.50476" lon="5.32546">
        <ele>203.39999389648</ele>
        <time>2020-10-24T10:45:28.000Z</time>
      </trkpt>
      <trkpt lat="46.50475" lon="5.32521">
        <ele>203.19999694824</ele>
        <time>2020-10-24T10:45:30.000Z</time>
      </trkpt>
      <trkpt lat="46.50473" lon="5.32496">
        <ele>202.80000305176</ele>
        <time>2020-10-24T10:45:32.000Z</time>
      </trkpt>
      <trkpt lat="46.50472" lon="5.32472">
        <ele>202.60000610352</ele>
        <time>2020-10-24T10:45:34.000Z</time>
      </trkpt>
      <trkpt lat="46.50469" lon="5.32449">
        <ele>202.39999389648</ele>
        <time>2020-10-24T10:45:36.000Z</time>
      </trkpt>
      <trkpt lat="46.50468" lon="5.32437">
        <ele>202.39999389648</ele>
        <time>2020-10-24T10:45:37.000Z</time>
      </trkpt>
      <trkpt lat="46.50466" lon="5.32425">
        <ele>202.39999389648</ele>
        <time>2020-10-24T10:45:38.000Z</time>
      </trkpt>
      <trkpt lat="46.50462" lon="5.32402">
        <ele>202.19999694824</ele>
        <time>2020-10-24T10:45:40.000Z</time>
      </trkpt>
      <trkpt lat="46.50457" lon="5.32379">
        <ele>202.19999694824</ele>
        <time>2020-10-24T10:45:42.000Z</time>
      </trkpt>
      <trkpt lat="46.50452" lon="5.32357">
        <ele>202.19999694824</ele>
        <time>2020-10-24T10:45:44.000Z</time>
      </trkpt>
      <trkpt lat="46.50447" lon="5.32335">
        <ele>202.19999694824</ele>
        <time>2020-10-24T10:45:46.000Z</time>
      </trkpt>
      <trkpt lat="46.50443" lon="5.32314">
        <ele>202.19999694824</ele>
        <time>2020-10-24T10:45:48.000Z</time>
      </trkpt>
      <trkpt lat="46.50441" lon="5.32304">
        <ele>202.19999694824</ele>
        <time>2020-10-24T10:45:49.000Z</time>
      </trkpt>
      <trkpt lat="46.50439" lon="5.32293">
        <ele>202.19999694824</ele>
        <time>2020-10-24T10:45:50.000Z</time>
      </trkpt>
      <trkpt lat="46.50435" lon="5.32272">
        <ele>202.19999694824</ele>
        <time>2020-10-24T10:45:52.000Z</time>
      </trkpt>
      <trkpt lat="46.50434" lon="5.32251">
        <ele>202.19999694824</ele>
        <time>2020-10-24T10:45:54.000Z</time>
      </trkpt>
      <trkpt lat="46.50433" lon="5.32229">
        <ele>202.19999694824</ele>
        <time>2020-10-24T10:45:56.000Z</time>
      </trkpt>
      <trkpt lat="46.50433" lon="5.32207">
        <ele>202.19999694824</ele>
        <time>2020-10-24T10:45:58.000Z</time>
      </trkpt>
      <trkpt lat="46.50433" lon="5.32184">
        <ele>202.19999694824</ele>
        <time>2020-10-24T10:46:00.000Z</time>
      </trkpt>
      <trkpt lat="46.50434" lon="5.32162">
        <ele>202.19999694824</ele>
        <time>2020-10-24T10:46:02.000Z</time>
      </trkpt>
      <trkpt lat="46.50434" lon="5.3215">
        <ele>202</ele>
        <time>2020-10-24T10:46:03.000Z</time>
      </trkpt>
      <trkpt lat="46.50434" lon="5.32138">
        <ele>202</ele>
        <time>2020-10-24T10:46:04.000Z</time>
      </trkpt>
      <trkpt lat="46.50435" lon="5.32115">
        <ele>201.80000305176</ele>
        <time>2020-10-24T10:46:06.000Z</time>
      </trkpt>
      <trkpt lat="46.50435" lon="5.32092">
        <ele>201.60000610352</ele>
        <time>2020-10-24T10:46:08.000Z</time>
      </trkpt>
      <trkpt lat="46.50436" lon="5.32081">
        <ele>201.39999389648</ele>
        <time>2020-10-24T10:46:09.000Z</time>
      </trkpt>
      <trkpt lat="46.50436" lon="5.32069">
        <ele>201.19999694824</ele>
        <time>2020-10-24T10:46:10.000Z</time>
      </trkpt>
      <trkpt lat="46.50436" lon="5.32045">
        <ele>200.60000610352</ele>
        <time>2020-10-24T10:46:12.000Z</time>
      </trkpt>
      <trkpt lat="46.50436" lon="5.32034">
        <ele>200.39999389648</ele>
        <time>2020-10-24T10:46:13.000Z</time>
      </trkpt>
      <trkpt lat="46.50437" lon="5.32022">
        <ele>200.19999694824</ele>
        <time>2020-10-24T10:46:14.000Z</time>
      </trkpt>
      <trkpt lat="46.50437" lon="5.31998">
        <ele>200</ele>
        <time>2020-10-24T10:46:16.000Z</time>
      </trkpt>
      <trkpt lat="46.50438" lon="5.31975">
        <ele>200</ele>
        <time>2020-10-24T10:46:18.000Z</time>
      </trkpt>
      <trkpt lat="46.50439" lon="5.31953">
        <ele>199.80000305176</ele>
        <time>2020-10-24T10:46:20.000Z</time>
      </trkpt>
      <trkpt lat="46.50439" lon="5.3193">
        <ele>199.60000610352</ele>
        <time>2020-10-24T10:46:22.000Z</time>
      </trkpt>
      <trkpt lat="46.5044" lon="5.31919">
        <ele>199.39999389648</ele>
        <time>2020-10-24T10:46:23.000Z</time>
      </trkpt>
      <trkpt lat="46.5044" lon="5.31908">
        <ele>199.19999694824</ele>
        <time>2020-10-24T10:46:24.000Z</time>
      </trkpt>
      <trkpt lat="46.5044" lon="5.31886">
        <ele>199.19999694824</ele>
        <time>2020-10-24T10:46:26.000Z</time>
      </trkpt>
      <trkpt lat="46.50438" lon="5.31864">
        <ele>199</ele>
        <time>2020-10-24T10:46:28.000Z</time>
      </trkpt>
      <trkpt lat="46.50437" lon="5.31854">
        <ele>199</ele>
        <time>2020-10-24T10:46:29.000Z</time>
      </trkpt>
      <trkpt lat="46.50435" lon="5.31843">
        <ele>199</ele>
        <time>2020-10-24T10:46:30.000Z</time>
      </trkpt>
      <trkpt lat="46.50431" lon="5.31822">
        <ele>199</ele>
        <time>2020-10-24T10:46:32.000Z</time>
      </trkpt>
      <trkpt lat="46.50426" lon="5.31802">
        <ele>199</ele>
        <time>2020-10-24T10:46:34.000Z</time>
      </trkpt>
      <trkpt lat="46.50421" lon="5.31782">
        <ele>198.80000305176</ele>
        <time>2020-10-24T10:46:36.000Z</time>
      </trkpt>
      <trkpt lat="46.50416" lon="5.31762">
        <ele>198.80000305176</ele>
        <time>2020-10-24T10:46:38.000Z</time>
      </trkpt>
      <trkpt lat="46.5041" lon="5.31742">
        <ele>198.80000305176</ele>
        <time>2020-10-24T10:46:40.000Z</time>
      </trkpt>
      <trkpt lat="46.50403" lon="5.31724">
        <ele>198.60000610352</ele>
        <time>2020-10-24T10:46:42.000Z</time>
      </trkpt>
      <trkpt lat="46.50394" lon="5.31707">
        <ele>198.60000610352</ele>
        <time>2020-10-24T10:46:44.000Z</time>
      </trkpt>
      <trkpt lat="46.50385" lon="5.31689">
        <ele>198.60000610352</ele>
        <time>2020-10-24T10:46:46.000Z</time>
      </trkpt>
      <trkpt lat="46.50375" lon="5.31673">
        <ele>198.39999389648</ele>
        <time>2020-10-24T10:46:48.000Z</time>
      </trkpt>
      <trkpt lat="46.5037" lon="5.31666">
        <ele>198.39999389648</ele>
        <time>2020-10-24T10:46:49.000Z</time>
      </trkpt>
      <trkpt lat="46.50364" lon="5.31659">
        <ele>198.19999694824</ele>
        <time>2020-10-24T10:46:50.000Z</time>
      </trkpt>
      <trkpt lat="46.50352" lon="5.31647">
        <ele>198</ele>
        <time>2020-10-24T10:46:52.000Z</time>
      </trkpt>
      <trkpt lat="46.50339" lon="5.31637">
        <ele>197.60000610352</ele>
        <time>2020-10-24T10:46:54.000Z</time>
      </trkpt>
      <trkpt lat="46.50325" lon="5.31627">
        <ele>197.39999389648</ele>
        <time>2020-10-24T10:46:56.000Z</time>
      </trkpt>
      <trkpt lat="46.50312" lon="5.31618">
        <ele>197.39999389648</ele>
        <time>2020-10-24T10:46:58.000Z</time>
      </trkpt>
      <trkpt lat="46.503" lon="5.31608">
        <ele>197.19999694824</ele>
        <time>2020-10-24T10:47:00.000Z</time>
      </trkpt>
      <trkpt lat="46.50287" lon="5.31598">
        <ele>197.19999694824</ele>
        <time>2020-10-24T10:47:02.000Z</time>
      </trkpt>
      <trkpt lat="46.50275" lon="5.31588">
        <ele>197.19999694824</ele>
        <time>2020-10-24T10:47:04.000Z</time>
      </trkpt>
      <trkpt lat="46.50264" lon="5.31577">
        <ele>197</ele>
        <time>2020-10-24T10:47:06.000Z</time>
      </trkpt>
      <trkpt lat="46.50253" lon="5.31565">
        <ele>197.19999694824</ele>
        <time>2020-10-24T10:47:08.000Z</time>
      </trkpt>
      <trkpt lat="46.50243" lon="5.31553">
        <ele>197.19999694824</ele>
        <time>2020-10-24T10:47:10.000Z</time>
      </trkpt>
      <trkpt lat="46.50239" lon="5.31547">
        <ele>197.19999694824</ele>
        <time>2020-10-24T10:47:11.000Z</time>
      </trkpt>
      <trkpt lat="46.50234" lon="5.3154">
        <ele>197.39999389648</ele>
        <time>2020-10-24T10:47:12.000Z</time>
      </trkpt>
      <trkpt lat="46.50227" lon="5.31527">
        <ele>197.39999389648</ele>
        <time>2020-10-24T10:47:14.000Z</time>
      </trkpt>
      <trkpt lat="46.5022" lon="5.31514">
        <ele>197.60000610352</ele>
        <time>2020-10-24T10:47:16.000Z</time>
      </trkpt>
      <trkpt lat="46.50217" lon="5.31507">
        <ele>197.80000305176</ele>
        <time>2020-10-24T10:47:17.000Z</time>
      </trkpt>
      <trkpt lat="46.50214" lon="5.31501">
        <ele>197.80000305176</ele>
        <time>2020-10-24T10:47:18.000Z</time>
      </trkpt>
      <trkpt lat="46.50209" lon="5.31487">
        <ele>198</ele>
        <time>2020-10-24T10:47:20.000Z</time>
      </trkpt>
      <trkpt lat="46.50207" lon="5.31481">
        <ele>198.39999389648</ele>
        <time>2020-10-24T10:47:21.000Z</time>
      </trkpt>
      <trkpt lat="46.50205" lon="5.31474">
        <ele>198.60000610352</ele>
        <time>2020-10-24T10:47:22.000Z</time>
      </trkpt>
      <trkpt lat="46.50201" lon="5.31462">
        <ele>199.19999694824</ele>
        <time>2020-10-24T10:47:24.000Z</time>
      </trkpt>
      <trkpt lat="46.50199" lon="5.31455">
        <ele>199.60000610352</ele>
        <time>2020-10-24T10:47:25.000Z</time>
      </trkpt>
      <trkpt lat="46.50197" lon="5.3145">
        <ele>200</ele>
        <time>2020-10-24T10:47:26.000Z</time>
      </trkpt>
      <trkpt lat="46.50193" lon="5.31438">
        <ele>200.60000610352</ele>
        <time>2020-10-24T10:47:28.000Z</time>
      </trkpt>
      <trkpt lat="46.50191" lon="5.31432">
        <ele>200.80000305176</ele>
        <time>2020-10-24T10:47:29.000Z</time>
      </trkpt>
      <trkpt lat="46.50189" lon="5.31426">
        <ele>201</ele>
        <time>2020-10-24T10:47:30.000Z</time>
      </trkpt>
      <trkpt lat="46.50185" lon="5.31415">
        <ele>201.39999389648</ele>
        <time>2020-10-24T10:47:32.000Z</time>
      </trkpt>
      <trkpt lat="46.50183" lon="5.31409">
        <ele>201.80000305176</ele>
        <time>2020-10-24T10:47:33.000Z</time>
      </trkpt>
      <trkpt lat="46.50181" lon="5.31403">
        <ele>202.19999694824</ele>
        <time>2020-10-24T10:47:34.000Z</time>
      </trkpt>
      <trkpt lat="46.50177" lon="5.31392">
        <ele>202.80000305176</ele>
        <time>2020-10-24T10:47:36.000Z</time>
      </trkpt>
      <trkpt lat="46.50173" lon="5.31381">
        <ele>203.39999389648</ele>
        <time>2020-10-24T10:47:38.000Z</time>
      </trkpt>
      <trkpt lat="46.50169" lon="5.31369">
        <ele>204.39999389648</ele>
        <time>2020-10-24T10:47:40.000Z</time>
      </trkpt>
      <trkpt lat="46.50165" lon="5.31358">
        <ele>204.80000305176</ele>
        <time>2020-10-24T10:47:42.000Z</time>
      </trkpt>
      <trkpt lat="46.50162" lon="5.31346">
        <ele>205</ele>
        <time>2020-10-24T10:47:44.000Z</time>
      </trkpt>
      <trkpt lat="46.50158" lon="5.31335">
        <ele>205.39999389648</ele>
        <time>2020-10-24T10:47:46.000Z</time>
      </trkpt>
      <trkpt lat="46.50153" lon="5.31321">
        <ele>205.80000305176</ele>
        <time>2020-10-24T10:47:48.000Z</time>
      </trkpt>
      <trkpt lat="46.50148" lon="5.31308">
        <ele>206.19999694824</ele>
        <time>2020-10-24T10:47:50.000Z</time>
      </trkpt>
      <trkpt lat="46.50146" lon="5.31301">
        <ele>206.19999694824</ele>
        <time>2020-10-24T10:47:51.000Z</time>
      </trkpt>
      <trkpt lat="46.50144" lon="5.31294">
        <ele>206.19999694824</ele>
        <time>2020-10-24T10:47:52.000Z</time>
      </trkpt>
      <trkpt lat="46.50141" lon="5.31288">
        <ele>206.39999389648</ele>
        <time>2020-10-24T10:47:53.000Z</time>
      </trkpt>
      <trkpt lat="46.50139" lon="5.31281">
        <ele>206.39999389648</ele>
        <time>2020-10-24T10:47:54.000Z</time>
      </trkpt>
      <trkpt lat="46.50135" lon="5.31266">
        <ele>206.60000610352</ele>
        <time>2020-10-24T10:47:56.000Z</time>
      </trkpt>
      <trkpt lat="46.50129" lon="5.31251">
        <ele>206.60000610352</ele>
        <time>2020-10-24T10:47:58.000Z</time>
      </trkpt>
      <trkpt lat="46.50127" lon="5.31242">
        <ele>206.60000610352</ele>
        <time>2020-10-24T10:47:59.000Z</time>
      </trkpt>
      <trkpt lat="46.50124" lon="5.31234">
        <ele>206.60000610352</ele>
        <time>2020-10-24T10:48:00.000Z</time>
      </trkpt>
      <trkpt lat="46.50118" lon="5.31216">
        <ele>206.60000610352</ele>
        <time>2020-10-24T10:48:02.000Z</time>
      </trkpt>
      <trkpt lat="46.50111" lon="5.31198">
        <ele>206.39999389648</ele>
        <time>2020-10-24T10:48:04.000Z</time>
      </trkpt>
      <trkpt lat="46.50105" lon="5.31179">
        <ele>206.19999694824</ele>
        <time>2020-10-24T10:48:06.000Z</time>
      </trkpt>
      <trkpt lat="46.50102" lon="5.31169">
        <ele>206</ele>
        <time>2020-10-24T10:48:07.000Z</time>
      </trkpt>
      <trkpt lat="46.50098" lon="5.31159">
        <ele>205.80000305176</ele>
        <time>2020-10-24T10:48:08.000Z</time>
      </trkpt>
      <trkpt lat="46.50091" lon="5.31139">
        <ele>205.39999389648</ele>
        <time>2020-10-24T10:48:10.000Z</time>
      </trkpt>
      <trkpt lat="46.50088" lon="5.31129">
        <ele>205.19999694824</ele>
        <time>2020-10-24T10:48:11.000Z</time>
      </trkpt>
      <trkpt lat="46.50084" lon="5.31119">
        <ele>205</ele>
        <time>2020-10-24T10:48:12.000Z</time>
      </trkpt>
      <trkpt lat="46.50078" lon="5.311">
        <ele>204.39999389648</ele>
        <time>2020-10-24T10:48:14.000Z</time>
      </trkpt>
      <trkpt lat="46.50071" lon="5.31082">
        <ele>204.19999694824</ele>
        <time>2020-10-24T10:48:16.000Z</time>
      </trkpt>
      <trkpt lat="46.50066" lon="5.31066">
        <ele>204.19999694824</ele>
        <time>2020-10-24T10:48:18.000Z</time>
      </trkpt>
      <trkpt lat="46.50061" lon="5.3105">
        <ele>204</ele>
        <time>2020-10-24T10:48:20.000Z</time>
      </trkpt>
      <trkpt lat="46.50056" lon="5.31036">
        <ele>204</ele>
        <time>2020-10-24T10:48:22.000Z</time>
      </trkpt>
      <trkpt lat="46.50054" lon="5.31029">
        <ele>204.19999694824</ele>
        <time>2020-10-24T10:48:23.000Z</time>
      </trkpt>
      <trkpt lat="46.50051" lon="5.31023">
        <ele>204.39999389648</ele>
        <time>2020-10-24T10:48:24.000Z</time>
      </trkpt>
      <trkpt lat="46.50047" lon="5.3101">
        <ele>205</ele>
        <time>2020-10-24T10:48:26.000Z</time>
      </trkpt>
      <trkpt lat="46.50045" lon="5.31004">
        <ele>205.39999389648</ele>
        <time>2020-10-24T10:48:27.000Z</time>
      </trkpt>
      <trkpt lat="46.50044" lon="5.30999">
        <ele>205.60000610352</ele>
        <time>2020-10-24T10:48:28.000Z</time>
      </trkpt>
      <trkpt lat="46.50042" lon="5.30994">
        <ele>205.80000305176</ele>
        <time>2020-10-24T10:48:29.000Z</time>
      </trkpt>
      <trkpt lat="46.5004" lon="5.30989">
        <ele>205.80000305176</ele>
        <time>2020-10-24T10:48:30.000Z</time>
      </trkpt>
      <trkpt lat="46.50036" lon="5.30979">
        <ele>206.60000610352</ele>
        <time>2020-10-24T10:48:32.000Z</time>
      </trkpt>
      <trkpt lat="46.50032" lon="5.30966">
        <ele>207.19999694824</ele>
        <time>2020-10-24T10:48:34.000Z</time>
      </trkpt>
      <trkpt lat="46.50028" lon="5.30955">
        <ele>207.80000305176</ele>
        <time>2020-10-24T10:48:36.000Z</time>
      </trkpt>
      <trkpt lat="46.50026" lon="5.3095">
        <ele>208</ele>
        <time>2020-10-24T10:48:37.000Z</time>
      </trkpt>
      <trkpt lat="46.50024" lon="5.30944">
        <ele>208.39999389648</ele>
        <time>2020-10-24T10:48:38.000Z</time>
      </trkpt>
      <trkpt lat="46.5002" lon="5.30934">
        <ele>208.80000305176</ele>
        <time>2020-10-24T10:48:40.000Z</time>
      </trkpt>
      <trkpt lat="46.50016" lon="5.30923">
        <ele>209.60000610352</ele>
        <time>2020-10-24T10:48:42.000Z</time>
      </trkpt>
      <trkpt lat="46.50015" lon="5.30918">
        <ele>209.80000305176</ele>
        <time>2020-10-24T10:48:43.000Z</time>
      </trkpt>
      <trkpt lat="46.50013" lon="5.30913">
        <ele>210</ele>
        <time>2020-10-24T10:48:44.000Z</time>
      </trkpt>
      <trkpt lat="46.50009" lon="5.30903">
        <ele>210.60000610352</ele>
        <time>2020-10-24T10:48:46.000Z</time>
      </trkpt>
      <trkpt lat="46.50007" lon="5.30898">
        <ele>211</ele>
        <time>2020-10-24T10:48:47.000Z</time>
      </trkpt>
      <trkpt lat="46.50005" lon="5.30893">
        <ele>211.19999694824</ele>
        <time>2020-10-24T10:48:48.000Z</time>
      </trkpt>
      <trkpt lat="46.50001" lon="5.30883">
        <ele>211.80000305176</ele>
        <time>2020-10-24T10:48:50.000Z</time>
      </trkpt>
      <trkpt lat="46.49999" lon="5.30879">
        <ele>212</ele>
        <time>2020-10-24T10:48:51.000Z</time>
      </trkpt>
      <trkpt lat="46.49997" lon="5.30874">
        <ele>212.39999389648</ele>
        <time>2020-10-24T10:48:52.000Z</time>
      </trkpt>
      <trkpt lat="46.49996" lon="5.30869">
        <ele>212.39999389648</ele>
        <time>2020-10-24T10:48:53.000Z</time>
      </trkpt>
      <trkpt lat="46.49994" lon="5.30864">
        <ele>212.60000610352</ele>
        <time>2020-10-24T10:48:54.000Z</time>
      </trkpt>
      <trkpt lat="46.4999" lon="5.30854">
        <ele>213.19999694824</ele>
        <time>2020-10-24T10:48:56.000Z</time>
      </trkpt>
      <trkpt lat="46.49987" lon="5.30844">
        <ele>213.60000610352</ele>
        <time>2020-10-24T10:48:58.000Z</time>
      </trkpt>
      <trkpt lat="46.49983" lon="5.30833">
        <ele>214.19999694824</ele>
        <time>2020-10-24T10:49:00.000Z</time>
      </trkpt>
      <trkpt lat="46.49979" lon="5.30821">
        <ele>214.60000610352</ele>
        <time>2020-10-24T10:49:02.000Z</time>
      </trkpt>
      <trkpt lat="46.49977" lon="5.30815">
        <ele>214.60000610352</ele>
        <time>2020-10-24T10:49:03.000Z</time>
      </trkpt>
      <trkpt lat="46.49976" lon="5.30808">
        <ele>214.80000305176</ele>
        <time>2020-10-24T10:49:04.000Z</time>
      </trkpt>
      <trkpt lat="46.49972" lon="5.30795">
        <ele>215.19999694824</ele>
        <time>2020-10-24T10:49:06.000Z</time>
      </trkpt>
      <trkpt lat="46.49971" lon="5.30789">
        <ele>215.39999389648</ele>
        <time>2020-10-24T10:49:07.000Z</time>
      </trkpt>
      <trkpt lat="46.49969" lon="5.30782">
        <ele>215.60000610352</ele>
        <time>2020-10-24T10:49:08.000Z</time>
      </trkpt>
      <trkpt lat="46.49967" lon="5.30769">
        <ele>216</ele>
        <time>2020-10-24T10:49:10.000Z</time>
      </trkpt>
      <trkpt lat="46.49966" lon="5.30763">
        <ele>216</ele>
        <time>2020-10-24T10:49:11.000Z</time>
      </trkpt>
      <trkpt lat="46.49965" lon="5.30756">
        <ele>216</ele>
        <time>2020-10-24T10:49:12.000Z</time>
      </trkpt>
      <trkpt lat="46.49963" lon="5.30743">
        <ele>216.19999694824</ele>
        <time>2020-10-24T10:49:14.000Z</time>
      </trkpt>
      <trkpt lat="46.4996" lon="5.30729">
        <ele>216.19999694824</ele>
        <time>2020-10-24T10:49:16.000Z</time>
      </trkpt>
      <trkpt lat="46.49957" lon="5.30715">
        <ele>216.19999694824</ele>
        <time>2020-10-24T10:49:18.000Z</time>
      </trkpt>
      <trkpt lat="46.49956" lon="5.30708">
        <ele>216.19999694824</ele>
        <time>2020-10-24T10:49:19.000Z</time>
      </trkpt>
      <trkpt lat="46.49954" lon="5.307">
        <ele>216.19999694824</ele>
        <time>2020-10-24T10:49:20.000Z</time>
      </trkpt>
      <trkpt lat="46.49951" lon="5.30683">
        <ele>216.19999694824</ele>
        <time>2020-10-24T10:49:22.000Z</time>
      </trkpt>
      <trkpt lat="46.49948" lon="5.30666">
        <ele>216.19999694824</ele>
        <time>2020-10-24T10:49:24.000Z</time>
      </trkpt>
      <trkpt lat="46.49945" lon="5.30647">
        <ele>216.19999694824</ele>
        <time>2020-10-24T10:49:26.000Z</time>
      </trkpt>
      <trkpt lat="46.49941" lon="5.30628">
        <ele>216.19999694824</ele>
        <time>2020-10-24T10:49:28.000Z</time>
      </trkpt>
      <trkpt lat="46.49938" lon="5.30607">
        <ele>215.60000610352</ele>
        <time>2020-10-24T10:49:30.000Z</time>
      </trkpt>
      <trkpt lat="46.49936" lon="5.30585">
        <ele>215</ele>
        <time>2020-10-24T10:49:32.000Z</time>
      </trkpt>
      <trkpt lat="46.49936" lon="5.30574">
        <ele>214.80000305176</ele>
        <time>2020-10-24T10:49:33.000Z</time>
      </trkpt>
      <trkpt lat="46.49936" lon="5.30562">
        <ele>214.39999389648</ele>
        <time>2020-10-24T10:49:34.000Z</time>
      </trkpt>
      <trkpt lat="46.49937" lon="5.30539">
        <ele>213.60000610352</ele>
        <time>2020-10-24T10:49:36.000Z</time>
      </trkpt>
      <trkpt lat="46.49942" lon="5.30517">
        <ele>213.19999694824</ele>
        <time>2020-10-24T10:49:38.000Z</time>
      </trkpt>
      <trkpt lat="46.49949" lon="5.30494">
        <ele>211.80000305176</ele>
        <time>2020-10-24T10:49:40.000Z</time>
      </trkpt>
      <trkpt lat="46.49958" lon="5.30473">
        <ele>210.80000305176</ele>
        <time>2020-10-24T10:49:42.000Z</time>
      </trkpt>
      <trkpt lat="46.49964" lon="5.30464">
        <ele>210.60000610352</ele>
        <time>2020-10-24T10:49:43.000Z</time>
      </trkpt>
      <trkpt lat="46.4997" lon="5.30455">
        <ele>210.39999389648</ele>
        <time>2020-10-24T10:49:44.000Z</time>
      </trkpt>
      <trkpt lat="46.49985" lon="5.3044">
        <ele>209.60000610352</ele>
        <time>2020-10-24T10:49:46.000Z</time>
      </trkpt>
      <trkpt lat="46.49993" lon="5.30433">
        <ele>209.39999389648</ele>
        <time>2020-10-24T10:49:47.000Z</time>
      </trkpt>
      <trkpt lat="46.50001" lon="5.30426">
        <ele>209</ele>
        <time>2020-10-24T10:49:48.000Z</time>
      </trkpt>
      <trkpt lat="46.50018" lon="5.30414">
        <ele>208.80000305176</ele>
        <time>2020-10-24T10:49:50.000Z</time>
      </trkpt>
      <trkpt lat="46.50034" lon="5.30401">
        <ele>208.39999389648</ele>
        <time>2020-10-24T10:49:52.000Z</time>
      </trkpt>
      <trkpt lat="46.50048" lon="5.30385">
        <ele>207.60000610352</ele>
        <time>2020-10-24T10:49:54.000Z</time>
      </trkpt>
      <trkpt lat="46.50055" lon="5.30376">
        <ele>207.19999694824</ele>
        <time>2020-10-24T10:49:55.000Z</time>
      </trkpt>
      <trkpt lat="46.50061" lon="5.30367">
        <ele>207</ele>
        <time>2020-10-24T10:49:56.000Z</time>
      </trkpt>
      <trkpt lat="46.50071" lon="5.30348">
        <ele>206.60000610352</ele>
        <time>2020-10-24T10:49:58.000Z</time>
      </trkpt>
      <trkpt lat="46.50078" lon="5.30328">
        <ele>206.39999389648</ele>
        <time>2020-10-24T10:50:00.000Z</time>
      </trkpt>
      <trkpt lat="46.50081" lon="5.30319">
        <ele>206.39999389648</ele>
        <time>2020-10-24T10:50:01.000Z</time>
      </trkpt>
      <trkpt lat="46.50083" lon="5.30309">
        <ele>206.39999389648</ele>
        <time>2020-10-24T10:50:02.000Z</time>
      </trkpt>
      <trkpt lat="46.50086" lon="5.3029">
        <ele>206.39999389648</ele>
        <time>2020-10-24T10:50:04.000Z</time>
      </trkpt>
      <trkpt lat="46.50087" lon="5.3028">
        <ele>206.39999389648</ele>
        <time>2020-10-24T10:50:05.000Z</time>
      </trkpt>
      <trkpt lat="46.50088" lon="5.30271">
        <ele>206.39999389648</ele>
        <time>2020-10-24T10:50:06.000Z</time>
      </trkpt>
      <trkpt lat="46.50089" lon="5.30251">
        <ele>206.60000610352</ele>
        <time>2020-10-24T10:50:08.000Z</time>
      </trkpt>
      <trkpt lat="46.5009" lon="5.30232">
        <ele>207.39999389648</ele>
        <time>2020-10-24T10:50:10.000Z</time>
      </trkpt>
      <trkpt lat="46.5009" lon="5.30223">
        <ele>208.19999694824</ele>
        <time>2020-10-24T10:50:11.000Z</time>
      </trkpt>
      <trkpt lat="46.50089" lon="5.30213">
        <ele>208.60000610352</ele>
        <time>2020-10-24T10:50:12.000Z</time>
      </trkpt>
      <trkpt lat="46.5009" lon="5.30193">
        <ele>209</ele>
        <time>2020-10-24T10:50:14.000Z</time>
      </trkpt>
      <trkpt lat="46.5009" lon="5.30173">
        <ele>209.39999389648</ele>
        <time>2020-10-24T10:50:16.000Z</time>
      </trkpt>
      <trkpt lat="46.5009" lon="5.30162">
        <ele>209.39999389648</ele>
        <time>2020-10-24T10:50:17.000Z</time>
      </trkpt>
      <trkpt lat="46.5009" lon="5.30152">
        <ele>209.39999389648</ele>
        <time>2020-10-24T10:50:18.000Z</time>
      </trkpt>
      <trkpt lat="46.5009" lon="5.30132">
        <ele>209.60000610352</ele>
        <time>2020-10-24T10:50:20.000Z</time>
      </trkpt>
      <trkpt lat="46.50091" lon="5.30113">
        <ele>209.60000610352</ele>
        <time>2020-10-24T10:50:22.000Z</time>
      </trkpt>
      <trkpt lat="46.50091" lon="5.30094">
        <ele>209.80000305176</ele>
        <time>2020-10-24T10:50:24.000Z</time>
      </trkpt>
      <trkpt lat="46.5009" lon="5.30076">
        <ele>209.80000305176</ele>
        <time>2020-10-24T10:50:26.000Z</time>
      </trkpt>
      <trkpt lat="46.5009" lon="5.30058">
        <ele>209.80000305176</ele>
        <time>2020-10-24T10:50:28.000Z</time>
      </trkpt>
      <trkpt lat="46.5009" lon="5.30039">
        <ele>210</ele>
        <time>2020-10-24T10:50:30.000Z</time>
      </trkpt>
      <trkpt lat="46.50089" lon="5.30021">
        <ele>210.19999694824</ele>
        <time>2020-10-24T10:50:32.000Z</time>
      </trkpt>
      <trkpt lat="46.50088" lon="5.30003">
        <ele>210.39999389648</ele>
        <time>2020-10-24T10:50:34.000Z</time>
      </trkpt>
      <trkpt lat="46.50085" lon="5.29985">
        <ele>210.39999389648</ele>
        <time>2020-10-24T10:50:36.000Z</time>
      </trkpt>
      <trkpt lat="46.50082" lon="5.29968">
        <ele>210.39999389648</ele>
        <time>2020-10-24T10:50:38.000Z</time>
      </trkpt>
      <trkpt lat="46.50079" lon="5.29959">
        <ele>210.39999389648</ele>
        <time>2020-10-24T10:50:39.000Z</time>
      </trkpt>
      <trkpt lat="46.50076" lon="5.2995">
        <ele>210.39999389648</ele>
        <time>2020-10-24T10:50:40.000Z</time>
      </trkpt>
      <trkpt lat="46.5007" lon="5.29933">
        <ele>210.39999389648</ele>
        <time>2020-10-24T10:50:42.000Z</time>
      </trkpt>
      <trkpt lat="46.50062" lon="5.29917">
        <ele>210.39999389648</ele>
        <time>2020-10-24T10:50:44.000Z</time>
      </trkpt>
      <trkpt lat="46.50058" lon="5.29909">
        <ele>210.39999389648</ele>
        <time>2020-10-24T10:50:45.000Z</time>
      </trkpt>
      <trkpt lat="46.50053" lon="5.29901">
        <ele>210.39999389648</ele>
        <time>2020-10-24T10:50:46.000Z</time>
      </trkpt>
      <trkpt lat="46.50049" lon="5.29894">
        <ele>210.19999694824</ele>
        <time>2020-10-24T10:50:47.000Z</time>
      </trkpt>
      <trkpt lat="46.50043" lon="5.29888">
        <ele>210.19999694824</ele>
        <time>2020-10-24T10:50:48.000Z</time>
      </trkpt>
      <trkpt lat="46.50033" lon="5.29877">
        <ele>209.80000305176</ele>
        <time>2020-10-24T10:50:50.000Z</time>
      </trkpt>
      <trkpt lat="46.50023" lon="5.29864">
        <ele>209.39999389648</ele>
        <time>2020-10-24T10:50:52.000Z</time>
      </trkpt>
      <trkpt lat="46.50021" lon="5.29856">
        <ele>209.39999389648</ele>
        <time>2020-10-24T10:50:53.000Z</time>
      </trkpt>
      <trkpt lat="46.50021" lon="5.29848">
        <ele>209.19999694824</ele>
        <time>2020-10-24T10:50:54.000Z</time>
      </trkpt>
      <trkpt lat="46.50024" lon="5.29841">
        <ele>209.19999694824</ele>
        <time>2020-10-24T10:50:55.000Z</time>
      </trkpt>
      <trkpt lat="46.50028" lon="5.29834">
        <ele>209.19999694824</ele>
        <time>2020-10-24T10:50:56.000Z</time>
      </trkpt>
      <trkpt lat="46.50033" lon="5.29828">
        <ele>209.19999694824</ele>
        <time>2020-10-24T10:50:57.000Z</time>
      </trkpt>
      <trkpt lat="46.50038" lon="5.29822">
        <ele>209</ele>
        <time>2020-10-24T10:50:58.000Z</time>
      </trkpt>
      <trkpt lat="46.50048" lon="5.2981">
        <ele>209</ele>
        <time>2020-10-24T10:51:00.000Z</time>
      </trkpt>
      <trkpt lat="46.50053" lon="5.29805">
        <ele>209</ele>
        <time>2020-10-24T10:51:01.000Z</time>
      </trkpt>
      <trkpt lat="46.50059" lon="5.298">
        <ele>209</ele>
        <time>2020-10-24T10:51:02.000Z</time>
      </trkpt>
      <trkpt lat="46.50071" lon="5.29794">
        <ele>209</ele>
        <time>2020-10-24T10:51:04.000Z</time>
      </trkpt>
      <trkpt lat="46.50077" lon="5.29792">
        <ele>209</ele>
        <time>2020-10-24T10:51:05.000Z</time>
      </trkpt>
      <trkpt lat="46.50083" lon="5.2979">
        <ele>209</ele>
        <time>2020-10-24T10:51:06.000Z</time>
      </trkpt>
      <trkpt lat="46.50095" lon="5.29785">
        <ele>209.19999694824</ele>
        <time>2020-10-24T10:51:08.000Z</time>
      </trkpt>
      <trkpt lat="46.50106" lon="5.29781">
        <ele>209.19999694824</ele>
        <time>2020-10-24T10:51:10.000Z</time>
      </trkpt>
      <trkpt lat="46.50112" lon="5.29779">
        <ele>209.39999389648</ele>
        <time>2020-10-24T10:51:11.000Z</time>
      </trkpt>
      <trkpt lat="46.50118" lon="5.29777">
        <ele>209.80000305176</ele>
        <time>2020-10-24T10:51:12.000Z</time>
      </trkpt>
      <trkpt lat="46.50129" lon="5.29773">
        <ele>210.80000305176</ele>
        <time>2020-10-24T10:51:14.000Z</time>
      </trkpt>
      <trkpt lat="46.50134" lon="5.29772">
        <ele>211</ele>
        <time>2020-10-24T10:51:15.000Z</time>
      </trkpt>
      <trkpt lat="46.50139" lon="5.29771">
        <ele>211.39999389648</ele>
        <time>2020-10-24T10:51:16.000Z</time>
      </trkpt>
      <trkpt lat="46.5015" lon="5.29769">
        <ele>211.60000610352</ele>
        <time>2020-10-24T10:51:18.000Z</time>
      </trkpt>
      <trkpt lat="46.5016" lon="5.29768">
        <ele>212.19999694824</ele>
        <time>2020-10-24T10:51:20.000Z</time>
      </trkpt>
      <trkpt lat="46.50171" lon="5.29767">
        <ele>212.80000305176</ele>
        <time>2020-10-24T10:51:22.000Z</time>
      </trkpt>
      <trkpt lat="46.50181" lon="5.29767">
        <ele>213</ele>
        <time>2020-10-24T10:51:24.000Z</time>
      </trkpt>
      <trkpt lat="46.50187" lon="5.29767">
        <ele>213.39999389648</ele>
        <time>2020-10-24T10:51:25.000Z</time>
      </trkpt>
      <trkpt lat="46.50193" lon="5.29768">
        <ele>213.60000610352</ele>
        <time>2020-10-24T10:51:26.000Z</time>
      </trkpt>
      <trkpt lat="46.50205" lon="5.29769">
        <ele>214.19999694824</ele>
        <time>2020-10-24T10:51:28.000Z</time>
      </trkpt>
      <trkpt lat="46.50211" lon="5.29769">
        <ele>214.60000610352</ele>
        <time>2020-10-24T10:51:29.000Z</time>
      </trkpt>
      <trkpt lat="46.50217" lon="5.2977">
        <ele>215</ele>
        <time>2020-10-24T10:51:30.000Z</time>
      </trkpt>
      <trkpt lat="46.50223" lon="5.2977">
        <ele>215</ele>
        <time>2020-10-24T10:51:31.000Z</time>
      </trkpt>
      <trkpt lat="46.5023" lon="5.29769">
        <ele>215.19999694824</ele>
        <time>2020-10-24T10:51:32.000Z</time>
      </trkpt>
      <trkpt lat="46.50242" lon="5.29767">
        <ele>215.19999694824</ele>
        <time>2020-10-24T10:51:34.000Z</time>
      </trkpt>
      <trkpt lat="46.50255" lon="5.29765">
        <ele>215.19999694824</ele>
        <time>2020-10-24T10:51:36.000Z</time>
      </trkpt>
      <trkpt lat="46.50267" lon="5.29761">
        <ele>215.19999694824</ele>
        <time>2020-10-24T10:51:38.000Z</time>
      </trkpt>
      <trkpt lat="46.50274" lon="5.29759">
        <ele>215.19999694824</ele>
        <time>2020-10-24T10:51:39.000Z</time>
      </trkpt>
      <trkpt lat="46.5028" lon="5.29756">
        <ele>215.39999389648</ele>
        <time>2020-10-24T10:51:40.000Z</time>
      </trkpt>
      <trkpt lat="46.50292" lon="5.29751">
        <ele>215.39999389648</ele>
        <time>2020-10-24T10:51:42.000Z</time>
      </trkpt>
      <trkpt lat="46.50304" lon="5.29746">
        <ele>215.39999389648</ele>
        <time>2020-10-24T10:51:44.000Z</time>
      </trkpt>
      <trkpt lat="46.50316" lon="5.29741">
        <ele>215.39999389648</ele>
        <time>2020-10-24T10:51:46.000Z</time>
      </trkpt>
      <trkpt lat="46.50328" lon="5.29736">
        <ele>215.39999389648</ele>
        <time>2020-10-24T10:51:48.000Z</time>
      </trkpt>
      <trkpt lat="46.5034" lon="5.29731">
        <ele>215.60000610352</ele>
        <time>2020-10-24T10:51:50.000Z</time>
      </trkpt>
      <trkpt lat="46.50352" lon="5.29727">
        <ele>215.80000305176</ele>
        <time>2020-10-24T10:51:52.000Z</time>
      </trkpt>
      <trkpt lat="46.50364" lon="5.29722">
        <ele>216.19999694824</ele>
        <time>2020-10-24T10:51:54.000Z</time>
      </trkpt>
      <trkpt lat="46.50376" lon="5.29716">
        <ele>216.19999694824</ele>
        <time>2020-10-24T10:51:56.000Z</time>
      </trkpt>
      <trkpt lat="46.50387" lon="5.29709">
        <ele>216.39999389648</ele>
        <time>2020-10-24T10:51:58.000Z</time>
      </trkpt>
      <trkpt lat="46.50393" lon="5.29705">
        <ele>216.39999389648</ele>
        <time>2020-10-24T10:51:59.000Z</time>
      </trkpt>
      <trkpt lat="46.50399" lon="5.29701">
        <ele>216.39999389648</ele>
        <time>2020-10-24T10:52:00.000Z</time>
      </trkpt>
      <trkpt lat="46.50411" lon="5.29693">
        <ele>216.60000610352</ele>
        <time>2020-10-24T10:52:02.000Z</time>
      </trkpt>
      <trkpt lat="46.50424" lon="5.29685">
        <ele>216.60000610352</ele>
        <time>2020-10-24T10:52:04.000Z</time>
      </trkpt>
      <trkpt lat="46.50437" lon="5.29676">
        <ele>216.60000610352</ele>
        <time>2020-10-24T10:52:06.000Z</time>
      </trkpt>
      <trkpt lat="46.50443" lon="5.29672">
        <ele>216.60000610352</ele>
        <time>2020-10-24T10:52:07.000Z</time>
      </trkpt>
      <trkpt lat="46.5045" lon="5.29668">
        <ele>216.60000610352</ele>
        <time>2020-10-24T10:52:08.000Z</time>
      </trkpt>
      <trkpt lat="46.50463" lon="5.29658">
        <ele>216.60000610352</ele>
        <time>2020-10-24T10:52:10.000Z</time>
      </trkpt>
      <trkpt lat="46.50476" lon="5.2965">
        <ele>216.60000610352</ele>
        <time>2020-10-24T10:52:12.000Z</time>
      </trkpt>
      <trkpt lat="46.50489" lon="5.29641">
        <ele>216.39999389648</ele>
        <time>2020-10-24T10:52:14.000Z</time>
      </trkpt>
      <trkpt lat="46.50502" lon="5.29631">
        <ele>216.39999389648</ele>
        <time>2020-10-24T10:52:16.000Z</time>
      </trkpt>
      <trkpt lat="46.50515" lon="5.29622">
        <ele>216.19999694824</ele>
        <time>2020-10-24T10:52:18.000Z</time>
      </trkpt>
      <trkpt lat="46.50521" lon="5.29618">
        <ele>216</ele>
        <time>2020-10-24T10:52:19.000Z</time>
      </trkpt>
      <trkpt lat="46.50528" lon="5.29613">
        <ele>216</ele>
        <time>2020-10-24T10:52:20.000Z</time>
      </trkpt>
      <trkpt lat="46.50541" lon="5.29603">
        <ele>216</ele>
        <time>2020-10-24T10:52:22.000Z</time>
      </trkpt>
      <trkpt lat="46.50553" lon="5.29594">
        <ele>216</ele>
        <time>2020-10-24T10:52:24.000Z</time>
      </trkpt>
      <trkpt lat="46.50566" lon="5.29584">
        <ele>215.80000305176</ele>
        <time>2020-10-24T10:52:26.000Z</time>
      </trkpt>
      <trkpt lat="46.50579" lon="5.29574">
        <ele>215.60000610352</ele>
        <time>2020-10-24T10:52:28.000Z</time>
      </trkpt>
      <trkpt lat="46.50592" lon="5.29564">
        <ele>215.60000610352</ele>
        <time>2020-10-24T10:52:30.000Z</time>
      </trkpt>
      <trkpt lat="46.50605" lon="5.29554">
        <ele>215.60000610352</ele>
        <time>2020-10-24T10:52:32.000Z</time>
      </trkpt>
      <trkpt lat="46.50618" lon="5.29544">
        <ele>215.60000610352</ele>
        <time>2020-10-24T10:52:34.000Z</time>
      </trkpt>
      <trkpt lat="46.50625" lon="5.29539">
        <ele>215.60000610352</ele>
        <time>2020-10-24T10:52:35.000Z</time>
      </trkpt>
      <trkpt lat="46.50631" lon="5.29535">
        <ele>215.60000610352</ele>
        <time>2020-10-24T10:52:36.000Z</time>
      </trkpt>
      <trkpt lat="46.50645" lon="5.29527">
        <ele>215.60000610352</ele>
        <time>2020-10-24T10:52:38.000Z</time>
      </trkpt>
      <trkpt lat="46.50652" lon="5.29525">
        <ele>215.39999389648</ele>
        <time>2020-10-24T10:52:39.000Z</time>
      </trkpt>
      <trkpt lat="46.5066" lon="5.29525">
        <ele>215.19999694824</ele>
        <time>2020-10-24T10:52:40.000Z</time>
      </trkpt>
      <trkpt lat="46.50676" lon="5.29528">
        <ele>215.19999694824</ele>
        <time>2020-10-24T10:52:42.000Z</time>
      </trkpt>
      <trkpt lat="46.50683" lon="5.29531">
        <ele>215</ele>
        <time>2020-10-24T10:52:43.000Z</time>
      </trkpt>
      <trkpt lat="46.50691" lon="5.29534">
        <ele>215</ele>
        <time>2020-10-24T10:52:44.000Z</time>
      </trkpt>
      <trkpt lat="46.50707" lon="5.29542">
        <ele>214.80000305176</ele>
        <time>2020-10-24T10:52:46.000Z</time>
      </trkpt>
      <trkpt lat="46.50715" lon="5.29546">
        <ele>214.60000610352</ele>
        <time>2020-10-24T10:52:47.000Z</time>
      </trkpt>
      <trkpt lat="46.50723" lon="5.2955">
        <ele>214.19999694824</ele>
        <time>2020-10-24T10:52:48.000Z</time>
      </trkpt>
      <trkpt lat="46.50739" lon="5.29557">
        <ele>213.60000610352</ele>
        <time>2020-10-24T10:52:50.000Z</time>
      </trkpt>
      <trkpt lat="46.50748" lon="5.2956">
        <ele>213.19999694824</ele>
        <time>2020-10-24T10:52:51.000Z</time>
      </trkpt>
      <trkpt lat="46.50757" lon="5.29563">
        <ele>212.80000305176</ele>
        <time>2020-10-24T10:52:52.000Z</time>
      </trkpt>
      <trkpt lat="46.50775" lon="5.29566">
        <ele>212.39999389648</ele>
        <time>2020-10-24T10:52:54.000Z</time>
      </trkpt>
      <trkpt lat="46.50784" lon="5.29567">
        <ele>212</ele>
        <time>2020-10-24T10:52:55.000Z</time>
      </trkpt>
      <trkpt lat="46.50794" lon="5.29567">
        <ele>211.80000305176</ele>
        <time>2020-10-24T10:52:56.000Z</time>
      </trkpt>
      <trkpt lat="46.50814" lon="5.29568">
        <ele>211.19999694824</ele>
        <time>2020-10-24T10:52:58.000Z</time>
      </trkpt>
      <trkpt lat="46.50824" lon="5.29569">
        <ele>210.80000305176</ele>
        <time>2020-10-24T10:52:59.000Z</time>
      </trkpt>
      <trkpt lat="46.50834" lon="5.2957">
        <ele>210.39999389648</ele>
        <time>2020-10-24T10:53:00.000Z</time>
      </trkpt>
      <trkpt lat="46.50855" lon="5.29572">
        <ele>209.39999389648</ele>
        <time>2020-10-24T10:53:02.000Z</time>
      </trkpt>
      <trkpt lat="46.50865" lon="5.29573">
        <ele>208.80000305176</ele>
        <time>2020-10-24T10:53:03.000Z</time>
      </trkpt>
      <trkpt lat="46.50876" lon="5.29574">
        <ele>208.19999694824</ele>
        <time>2020-10-24T10:53:04.000Z</time>
      </trkpt>
      <trkpt lat="46.50897" lon="5.29572">
        <ele>206.80000305176</ele>
        <time>2020-10-24T10:53:06.000Z</time>
      </trkpt>
      <trkpt lat="46.50908" lon="5.29569">
        <ele>206.39999389648</ele>
        <time>2020-10-24T10:53:07.000Z</time>
      </trkpt>
      <trkpt lat="46.50919" lon="5.29564">
        <ele>205.60000610352</ele>
        <time>2020-10-24T10:53:08.000Z</time>
      </trkpt>
      <trkpt lat="46.50939" lon="5.2955">
        <ele>204.60000610352</ele>
        <time>2020-10-24T10:53:10.000Z</time>
      </trkpt>
      <trkpt lat="46.5095" lon="5.29541">
        <ele>204</ele>
        <time>2020-10-24T10:53:11.000Z</time>
      </trkpt>
      <trkpt lat="46.5096" lon="5.29533">
        <ele>203.19999694824</ele>
        <time>2020-10-24T10:53:12.000Z</time>
      </trkpt>
      <trkpt lat="46.50982" lon="5.29516">
        <ele>202</ele>
        <time>2020-10-24T10:53:14.000Z</time>
      </trkpt>
      <trkpt lat="46.51004" lon="5.29498">
        <ele>200.39999389648</ele>
        <time>2020-10-24T10:53:16.000Z</time>
      </trkpt>
      <trkpt lat="46.51014" lon="5.29489">
        <ele>199.60000610352</ele>
        <time>2020-10-24T10:53:17.000Z</time>
      </trkpt>
      <trkpt lat="46.51025" lon="5.29481">
        <ele>198.80000305176</ele>
        <time>2020-10-24T10:53:18.000Z</time>
      </trkpt>
      <trkpt lat="46.51047" lon="5.29464">
        <ele>197.19999694824</ele>
        <time>2020-10-24T10:53:20.000Z</time>
      </trkpt>
      <trkpt lat="46.51058" lon="5.29457">
        <ele>196.19999694824</ele>
        <time>2020-10-24T10:53:21.000Z</time>
      </trkpt>
      <trkpt lat="46.51069" lon="5.29451">
        <ele>195</ele>
        <time>2020-10-24T10:53:22.000Z</time>
      </trkpt>
      <trkpt lat="46.5108" lon="5.29446">
        <ele>194</ele>
        <time>2020-10-24T10:53:23.000Z</time>
      </trkpt>
      <trkpt lat="46.5109" lon="5.29442">
        <ele>192.80000305176</ele>
        <time>2020-10-24T10:53:24.000Z</time>
      </trkpt>
      <trkpt lat="46.51112" lon="5.29435">
        <ele>191.39999389648</ele>
        <time>2020-10-24T10:53:26.000Z</time>
      </trkpt>
      <trkpt lat="46.51132" lon="5.29429">
        <ele>190.80000305176</ele>
        <time>2020-10-24T10:53:28.000Z</time>
      </trkpt>
      <trkpt lat="46.51151" lon="5.29424">
        <ele>190.60000610352</ele>
        <time>2020-10-24T10:53:30.000Z</time>
      </trkpt>
      <trkpt lat="46.51171" lon="5.29418">
        <ele>190.60000610352</ele>
        <time>2020-10-24T10:53:32.000Z</time>
      </trkpt>
      <trkpt lat="46.5118" lon="5.29416">
        <ele>190.39999389648</ele>
        <time>2020-10-24T10:53:33.000Z</time>
      </trkpt>
      <trkpt lat="46.51189" lon="5.29413">
        <ele>190.39999389648</ele>
        <time>2020-10-24T10:53:34.000Z</time>
      </trkpt>
      <trkpt lat="46.51208" lon="5.29408">
        <ele>190.39999389648</ele>
        <time>2020-10-24T10:53:36.000Z</time>
      </trkpt>
      <trkpt lat="46.51226" lon="5.29403">
        <ele>190.39999389648</ele>
        <time>2020-10-24T10:53:38.000Z</time>
      </trkpt>
      <trkpt lat="46.51244" lon="5.29399">
        <ele>190.39999389648</ele>
        <time>2020-10-24T10:53:40.000Z</time>
      </trkpt>
      <trkpt lat="46.51262" lon="5.29395">
        <ele>190.39999389648</ele>
        <time>2020-10-24T10:53:42.000Z</time>
      </trkpt>
      <trkpt lat="46.51279" lon="5.29389">
        <ele>190.39999389648</ele>
        <time>2020-10-24T10:53:44.000Z</time>
      </trkpt>
      <trkpt lat="46.51295" lon="5.29381">
        <ele>190.39999389648</ele>
        <time>2020-10-24T10:53:46.000Z</time>
      </trkpt>
      <trkpt lat="46.51311" lon="5.29372">
        <ele>190.39999389648</ele>
        <time>2020-10-24T10:53:48.000Z</time>
      </trkpt>
      <trkpt lat="46.51326" lon="5.29363">
        <ele>190.39999389648</ele>
        <time>2020-10-24T10:53:50.000Z</time>
      </trkpt>
      <trkpt lat="46.51334" lon="5.29358">
        <ele>190.39999389648</ele>
        <time>2020-10-24T10:53:51.000Z</time>
      </trkpt>
      <trkpt lat="46.51341" lon="5.29354">
        <ele>190.60000610352</ele>
        <time>2020-10-24T10:53:52.000Z</time>
      </trkpt>
      <trkpt lat="46.51356" lon="5.29343">
        <ele>190.60000610352</ele>
        <time>2020-10-24T10:53:54.000Z</time>
      </trkpt>
      <trkpt lat="46.51363" lon="5.29337">
        <ele>190.60000610352</ele>
        <time>2020-10-24T10:53:55.000Z</time>
      </trkpt>
      <trkpt lat="46.51369" lon="5.29329">
        <ele>190.60000610352</ele>
        <time>2020-10-24T10:53:56.000Z</time>
      </trkpt>
      <trkpt lat="46.51379" lon="5.29312">
        <ele>190.80000305176</ele>
        <time>2020-10-24T10:53:58.000Z</time>
      </trkpt>
      <trkpt lat="46.51384" lon="5.29302">
        <ele>191</ele>
        <time>2020-10-24T10:53:59.000Z</time>
      </trkpt>
      <trkpt lat="46.51389" lon="5.29293">
        <ele>191.19999694824</ele>
        <time>2020-10-24T10:54:00.000Z</time>
      </trkpt>
      <trkpt lat="46.51393" lon="5.29284">
        <ele>191.19999694824</ele>
        <time>2020-10-24T10:54:01.000Z</time>
      </trkpt>
      <trkpt lat="46.51398" lon="5.29275">
        <ele>191.39999389648</ele>
        <time>2020-10-24T10:54:02.000Z</time>
      </trkpt>
      <trkpt lat="46.51408" lon="5.29258">
        <ele>191.60000610352</ele>
        <time>2020-10-24T10:54:04.000Z</time>
      </trkpt>
      <trkpt lat="46.51419" lon="5.29242">
        <ele>191.60000610352</ele>
        <time>2020-10-24T10:54:06.000Z</time>
      </trkpt>
      <trkpt lat="46.51424" lon="5.29234">
        <ele>191.60000610352</ele>
        <time>2020-10-24T10:54:07.000Z</time>
      </trkpt>
      <trkpt lat="46.51429" lon="5.29226">
        <ele>191.60000610352</ele>
        <time>2020-10-24T10:54:08.000Z</time>
      </trkpt>
      <trkpt lat="46.51434" lon="5.29218">
        <ele>191.60000610352</ele>
        <time>2020-10-24T10:54:09.000Z</time>
      </trkpt>
      <trkpt lat="46.51438" lon="5.29209">
        <ele>191.60000610352</ele>
        <time>2020-10-24T10:54:10.000Z</time>
      </trkpt>
      <trkpt lat="46.51444" lon="5.29189">
        <ele>191.80000305176</ele>
        <time>2020-10-24T10:54:12.000Z</time>
      </trkpt>
      <trkpt lat="46.51449" lon="5.29168">
        <ele>191.80000305176</ele>
        <time>2020-10-24T10:54:14.000Z</time>
      </trkpt>
      <trkpt lat="46.51453" lon="5.29146">
        <ele>191.80000305176</ele>
        <time>2020-10-24T10:54:16.000Z</time>
      </trkpt>
      <trkpt lat="46.51457" lon="5.29124">
        <ele>191.80000305176</ele>
        <time>2020-10-24T10:54:18.000Z</time>
      </trkpt>
      <trkpt lat="46.51461" lon="5.29102">
        <ele>191.60000610352</ele>
        <time>2020-10-24T10:54:20.000Z</time>
      </trkpt>
      <trkpt lat="46.51464" lon="5.29079">
        <ele>191.39999389648</ele>
        <time>2020-10-24T10:54:22.000Z</time>
      </trkpt>
      <trkpt lat="46.51468" lon="5.29056">
        <ele>191.19999694824</ele>
        <time>2020-10-24T10:54:24.000Z</time>
      </trkpt>
      <trkpt lat="46.51472" lon="5.29034">
        <ele>191</ele>
        <time>2020-10-24T10:54:26.000Z</time>
      </trkpt>
      <trkpt lat="46.51474" lon="5.29022">
        <ele>190.80000305176</ele>
        <time>2020-10-24T10:54:27.000Z</time>
      </trkpt>
      <trkpt lat="46.51476" lon="5.29011">
        <ele>190.80000305176</ele>
        <time>2020-10-24T10:54:28.000Z</time>
      </trkpt>
      <trkpt lat="46.5148" lon="5.28989">
        <ele>190.39999389648</ele>
        <time>2020-10-24T10:54:30.000Z</time>
      </trkpt>
      <trkpt lat="46.51484" lon="5.28966">
        <ele>190.19999694824</ele>
        <time>2020-10-24T10:54:32.000Z</time>
      </trkpt>
      <trkpt lat="46.51488" lon="5.28944">
        <ele>190</ele>
        <time>2020-10-24T10:54:34.000Z</time>
      </trkpt>
      <trkpt lat="46.5149" lon="5.28932">
        <ele>189.80000305176</ele>
        <time>2020-10-24T10:54:35.000Z</time>
      </trkpt>
      <trkpt lat="46.51492" lon="5.28921">
        <ele>189.39999389648</ele>
        <time>2020-10-24T10:54:36.000Z</time>
      </trkpt>
      <trkpt lat="46.51496" lon="5.28899">
        <ele>188.80000305176</ele>
        <time>2020-10-24T10:54:38.000Z</time>
      </trkpt>
      <trkpt lat="46.51499" lon="5.28877">
        <ele>188.80000305176</ele>
        <time>2020-10-24T10:54:40.000Z</time>
      </trkpt>
      <trkpt lat="46.51503" lon="5.28855">
        <ele>188.60000610352</ele>
        <time>2020-10-24T10:54:42.000Z</time>
      </trkpt>
      <trkpt lat="46.51507" lon="5.28834">
        <ele>188.60000610352</ele>
        <time>2020-10-24T10:54:44.000Z</time>
      </trkpt>
      <trkpt lat="46.51509" lon="5.28813">
        <ele>188.60000610352</ele>
        <time>2020-10-24T10:54:46.000Z</time>
      </trkpt>
      <trkpt lat="46.5151" lon="5.28792">
        <ele>188.60000610352</ele>
        <time>2020-10-24T10:54:48.000Z</time>
      </trkpt>
      <trkpt lat="46.51509" lon="5.28782">
        <ele>188.60000610352</ele>
        <time>2020-10-24T10:54:49.000Z</time>
      </trkpt>
      <trkpt lat="46.51508" lon="5.28772">
        <ele>188.60000610352</ele>
        <time>2020-10-24T10:54:50.000Z</time>
      </trkpt>
      <trkpt lat="46.51505" lon="5.28754">
        <ele>188.80000305176</ele>
        <time>2020-10-24T10:54:52.000Z</time>
      </trkpt>
      <trkpt lat="46.51502" lon="5.28735">
        <ele>189</ele>
        <time>2020-10-24T10:54:54.000Z</time>
      </trkpt>
      <trkpt lat="46.515" lon="5.28725">
        <ele>189</ele>
        <time>2020-10-24T10:54:55.000Z</time>
      </trkpt>
      <trkpt lat="46.51497" lon="5.28716">
        <ele>189</ele>
        <time>2020-10-24T10:54:56.000Z</time>
      </trkpt>
      <trkpt lat="46.51491" lon="5.28695">
        <ele>189.19999694824</ele>
        <time>2020-10-24T10:54:58.000Z</time>
      </trkpt>
      <trkpt lat="46.51484" lon="5.28675">
        <ele>189.19999694824</ele>
        <time>2020-10-24T10:55:00.000Z</time>
      </trkpt>
      <trkpt lat="46.51481" lon="5.28665">
        <ele>189.19999694824</ele>
        <time>2020-10-24T10:55:01.000Z</time>
      </trkpt>
      <trkpt lat="46.51478" lon="5.28656">
        <ele>189.19999694824</ele>
        <time>2020-10-24T10:55:02.000Z</time>
      </trkpt>
      <trkpt lat="46.51472" lon="5.28638">
        <ele>189.19999694824</ele>
        <time>2020-10-24T10:55:04.000Z</time>
      </trkpt>
      <trkpt lat="46.51466" lon="5.28619">
        <ele>189</ele>
        <time>2020-10-24T10:55:06.000Z</time>
      </trkpt>
      <trkpt lat="46.5146" lon="5.286">
        <ele>189</ele>
        <time>2020-10-24T10:55:08.000Z</time>
      </trkpt>
      <trkpt lat="46.51457" lon="5.28591">
        <ele>189</ele>
        <time>2020-10-24T10:55:09.000Z</time>
      </trkpt>
      <trkpt lat="46.51454" lon="5.28582">
        <ele>189</ele>
        <time>2020-10-24T10:55:10.000Z</time>
      </trkpt>
      <trkpt lat="46.51448" lon="5.28564">
        <ele>189</ele>
        <time>2020-10-24T10:55:12.000Z</time>
      </trkpt>
      <trkpt lat="46.51443" lon="5.28547">
        <ele>189</ele>
        <time>2020-10-24T10:55:14.000Z</time>
      </trkpt>
      <trkpt lat="46.51437" lon="5.2853">
        <ele>189</ele>
        <time>2020-10-24T10:55:16.000Z</time>
      </trkpt>
      <trkpt lat="46.51434" lon="5.28522">
        <ele>189</ele>
        <time>2020-10-24T10:55:17.000Z</time>
      </trkpt>
      <trkpt lat="46.51431" lon="5.28513">
        <ele>189</ele>
        <time>2020-10-24T10:55:18.000Z</time>
      </trkpt>
      <trkpt lat="46.51426" lon="5.28496">
        <ele>189.39999389648</ele>
        <time>2020-10-24T10:55:20.000Z</time>
      </trkpt>
      <trkpt lat="46.51422" lon="5.28478">
        <ele>189.60000610352</ele>
        <time>2020-10-24T10:55:22.000Z</time>
      </trkpt>
      <trkpt lat="46.51421" lon="5.28469">
        <ele>189.80000305176</ele>
        <time>2020-10-24T10:55:23.000Z</time>
      </trkpt>
      <trkpt lat="46.51421" lon="5.28461">
        <ele>189.80000305176</ele>
        <time>2020-10-24T10:55:24.000Z</time>
      </trkpt>
      <trkpt lat="46.51423" lon="5.28444">
        <ele>190</ele>
        <time>2020-10-24T10:55:26.000Z</time>
      </trkpt>
      <trkpt lat="46.51426" lon="5.28436">
        <ele>190</ele>
        <time>2020-10-24T10:55:27.000Z</time>
      </trkpt>
      <trkpt lat="46.51429" lon="5.28429">
        <ele>190</ele>
        <time>2020-10-24T10:55:28.000Z</time>
      </trkpt>
      <trkpt lat="46.51435" lon="5.28416">
        <ele>190.19999694824</ele>
        <time>2020-10-24T10:55:30.000Z</time>
      </trkpt>
      <trkpt lat="46.51438" lon="5.28409">
        <ele>190.39999389648</ele>
        <time>2020-10-24T10:55:31.000Z</time>
      </trkpt>
      <trkpt lat="46.51441" lon="5.28403">
        <ele>190.39999389648</ele>
        <time>2020-10-24T10:55:32.000Z</time>
      </trkpt>
      <trkpt lat="46.51444" lon="5.28397">
        <ele>190.60000610352</ele>
        <time>2020-10-24T10:55:33.000Z</time>
      </trkpt>
      <trkpt lat="46.51447" lon="5.28391">
        <ele>191</ele>
        <time>2020-10-24T10:55:34.000Z</time>
      </trkpt>
      <trkpt lat="46.51454" lon="5.28379">
        <ele>191.80000305176</ele>
        <time>2020-10-24T10:55:36.000Z</time>
      </trkpt>
      <trkpt lat="46.5146" lon="5.28367">
        <ele>192.39999389648</ele>
        <time>2020-10-24T10:55:38.000Z</time>
      </trkpt>
      <trkpt lat="46.51466" lon="5.28355">
        <ele>192.80000305176</ele>
        <time>2020-10-24T10:55:40.000Z</time>
      </trkpt>
      <trkpt lat="46.51469" lon="5.2835">
        <ele>192.80000305176</ele>
        <time>2020-10-24T10:55:41.000Z</time>
      </trkpt>
      <trkpt lat="46.51472" lon="5.28344">
        <ele>193</ele>
        <time>2020-10-24T10:55:42.000Z</time>
      </trkpt>
      <trkpt lat="46.51475" lon="5.28338">
        <ele>193</ele>
        <time>2020-10-24T10:55:43.000Z</time>
      </trkpt>
      <trkpt lat="46.51477" lon="5.28333">
        <ele>193.60000610352</ele>
        <time>2020-10-24T10:55:44.000Z</time>
      </trkpt>
      <trkpt lat="46.51483" lon="5.28322">
        <ele>194</ele>
        <time>2020-10-24T10:55:46.000Z</time>
      </trkpt>
      <trkpt lat="46.51488" lon="5.28311">
        <ele>194.60000610352</ele>
        <time>2020-10-24T10:55:48.000Z</time>
      </trkpt>
      <trkpt lat="46.51494" lon="5.283">
        <ele>195.19999694824</ele>
        <time>2020-10-24T10:55:50.000Z</time>
      </trkpt>
      <trkpt lat="46.515" lon="5.28289">
        <ele>195.60000610352</ele>
        <time>2020-10-24T10:55:52.000Z</time>
      </trkpt>
      <trkpt lat="46.51505" lon="5.28278">
        <ele>196</ele>
        <time>2020-10-24T10:55:54.000Z</time>
      </trkpt>
      <trkpt lat="46.51508" lon="5.28272">
        <ele>196.19999694824</ele>
        <time>2020-10-24T10:55:55.000Z</time>
      </trkpt>
      <trkpt lat="46.51511" lon="5.28267">
        <ele>196.60000610352</ele>
        <time>2020-10-24T10:55:56.000Z</time>
      </trkpt>
      <trkpt lat="46.51517" lon="5.28256">
        <ele>197</ele>
        <time>2020-10-24T10:55:58.000Z</time>
      </trkpt>
      <trkpt lat="46.51522" lon="5.28245">
        <ele>197.19999694824</ele>
        <time>2020-10-24T10:56:00.000Z</time>
      </trkpt>
      <trkpt lat="46.51524" lon="5.2824">
        <ele>197.39999389648</ele>
        <time>2020-10-24T10:56:01.000Z</time>
      </trkpt>
      <trkpt lat="46.51527" lon="5.28234">
        <ele>197.39999389648</ele>
        <time>2020-10-24T10:56:02.000Z</time>
      </trkpt>
      <trkpt lat="46.51532" lon="5.28224">
        <ele>198</ele>
        <time>2020-10-24T10:56:04.000Z</time>
      </trkpt>
      <trkpt lat="46.51536" lon="5.28213">
        <ele>198.60000610352</ele>
        <time>2020-10-24T10:56:06.000Z</time>
      </trkpt>
      <trkpt lat="46.5154" lon="5.28202">
        <ele>199</ele>
        <time>2020-10-24T10:56:08.000Z</time>
      </trkpt>
      <trkpt lat="46.51543" lon="5.2819">
        <ele>199.19999694824</ele>
        <time>2020-10-24T10:56:10.000Z</time>
      </trkpt>
      <trkpt lat="46.51545" lon="5.28184">
        <ele>199.39999389648</ele>
        <time>2020-10-24T10:56:11.000Z</time>
      </trkpt>
      <trkpt lat="46.51547" lon="5.28178">
        <ele>199.80000305176</ele>
        <time>2020-10-24T10:56:12.000Z</time>
      </trkpt>
      <trkpt lat="46.5155" lon="5.28167">
        <ele>200.19999694824</ele>
        <time>2020-10-24T10:56:14.000Z</time>
      </trkpt>
      <trkpt lat="46.51552" lon="5.28161">
        <ele>200.39999389648</ele>
        <time>2020-10-24T10:56:15.000Z</time>
      </trkpt>
      <trkpt lat="46.51554" lon="5.28155">
        <ele>200.60000610352</ele>
        <time>2020-10-24T10:56:16.000Z</time>
      </trkpt>
      <trkpt lat="46.51558" lon="5.28142">
        <ele>200.80000305176</ele>
        <time>2020-10-24T10:56:18.000Z</time>
      </trkpt>
      <trkpt lat="46.51559" lon="5.28136">
        <ele>201</ele>
        <time>2020-10-24T10:56:19.000Z</time>
      </trkpt>
      <trkpt lat="46.51558" lon="5.2813">
        <ele>201</ele>
        <time>2020-10-24T10:56:20.000Z</time>
      </trkpt>
      <trkpt lat="46.51556" lon="5.28125">
        <ele>201.19999694824</ele>
        <time>2020-10-24T10:56:21.000Z</time>
      </trkpt>
      <trkpt lat="46.51553" lon="5.28122">
        <ele>201.39999389648</ele>
        <time>2020-10-24T10:56:22.000Z</time>
      </trkpt>
      <trkpt lat="46.51548" lon="5.28122">
        <ele>201.80000305176</ele>
        <time>2020-10-24T10:56:24.000Z</time>
      </trkpt>
      <trkpt lat="46.51546" lon="5.28124">
        <ele>202</ele>
        <time>2020-10-24T10:56:25.000Z</time>
      </trkpt>
      <trkpt lat="46.51544" lon="5.28125">
        <ele>202.19999694824</ele>
        <time>2020-10-24T10:56:26.000Z</time>
      </trkpt>
      <trkpt lat="46.5154" lon="5.28125">
        <ele>202.60000610352</ele>
        <time>2020-10-24T10:56:28.000Z</time>
      </trkpt>
      <trkpt lat="46.51538" lon="5.28126">
        <ele>203.19999694824</ele>
        <time>2020-10-24T10:56:30.000Z</time>
      </trkpt>
      <trkpt lat="46.51537" lon="5.28126">
        <ele>203.80000305176</ele>
        <time>2020-10-24T10:56:32.000Z</time>
      </trkpt>
      <trkpt lat="46.5154" lon="5.28125">
        <ele>205.39999389648</ele>
        <time>2020-10-24T10:57:17.000Z</time>
      </trkpt>
      <trkpt lat="46.51543" lon="5.28124">
        <ele>205.39999389648</ele>
        <time>2020-10-24T10:57:18.000Z</time>
      </trkpt>
      <trkpt lat="46.51549" lon="5.28123">
        <ele>205.39999389648</ele>
        <time>2020-10-24T10:57:20.000Z</time>
      </trkpt>
      <trkpt lat="46.51556" lon="5.28124">
        <ele>205.39999389648</ele>
        <time>2020-10-24T10:57:22.000Z</time>
      </trkpt>
      <trkpt lat="46.5156" lon="5.28124">
        <ele>205.19999694824</ele>
        <time>2020-10-24T10:57:23.000Z</time>
      </trkpt>
      <trkpt lat="46.51563" lon="5.28122">
        <ele>205.19999694824</ele>
        <time>2020-10-24T10:57:24.000Z</time>
      </trkpt>
      <trkpt lat="46.51569" lon="5.28113">
        <ele>205</ele>
        <time>2020-10-24T10:57:26.000Z</time>
      </trkpt>
      <trkpt lat="46.51571" lon="5.28106">
        <ele>205</ele>
        <time>2020-10-24T10:57:27.000Z</time>
      </trkpt>
      <trkpt lat="46.51573" lon="5.28099">
        <ele>204.80000305176</ele>
        <time>2020-10-24T10:57:28.000Z</time>
      </trkpt>
      <trkpt lat="46.51577" lon="5.28085">
        <ele>204.39999389648</ele>
        <time>2020-10-24T10:57:30.000Z</time>
      </trkpt>
      <trkpt lat="46.51582" lon="5.28071">
        <ele>204.19999694824</ele>
        <time>2020-10-24T10:57:32.000Z</time>
      </trkpt>
      <trkpt lat="46.51586" lon="5.28057">
        <ele>204</ele>
        <time>2020-10-24T10:57:34.000Z</time>
      </trkpt>
      <trkpt lat="46.51592" lon="5.28042">
        <ele>204</ele>
        <time>2020-10-24T10:57:36.000Z</time>
      </trkpt>
      <trkpt lat="46.51598" lon="5.28028">
        <ele>204</ele>
        <time>2020-10-24T10:57:38.000Z</time>
      </trkpt>
      <trkpt lat="46.51604" lon="5.28015">
        <ele>204.39999389648</ele>
        <time>2020-10-24T10:57:40.000Z</time>
      </trkpt>
      <trkpt lat="46.51612" lon="5.28003">
        <ele>204.60000610352</ele>
        <time>2020-10-24T10:57:42.000Z</time>
      </trkpt>
      <trkpt lat="46.51616" lon="5.27997">
        <ele>204.60000610352</ele>
        <time>2020-10-24T10:57:43.000Z</time>
      </trkpt>
      <trkpt lat="46.5162" lon="5.27992">
        <ele>204.80000305176</ele>
        <time>2020-10-24T10:57:44.000Z</time>
      </trkpt>
      <trkpt lat="46.51628" lon="5.27982">
        <ele>205.39999389648</ele>
        <time>2020-10-24T10:57:46.000Z</time>
      </trkpt>
      <trkpt lat="46.51633" lon="5.27977">
        <ele>205.60000610352</ele>
        <time>2020-10-24T10:57:47.000Z</time>
      </trkpt>
      <trkpt lat="46.51638" lon="5.27972">
        <ele>206</ele>
        <time>2020-10-24T10:57:48.000Z</time>
      </trkpt>
      <trkpt lat="46.51648" lon="5.27962">
        <ele>206.39999389648</ele>
        <time>2020-10-24T10:57:50.000Z</time>
      </trkpt>
      <trkpt lat="46.51659" lon="5.27951">
        <ele>206.39999389648</ele>
        <time>2020-10-24T10:57:52.000Z</time>
      </trkpt>
      <trkpt lat="46.5167" lon="5.27939">
        <ele>206.39999389648</ele>
        <time>2020-10-24T10:57:54.000Z</time>
      </trkpt>
      <trkpt lat="46.51681" lon="5.27927">
        <ele>206.39999389648</ele>
        <time>2020-10-24T10:57:56.000Z</time>
      </trkpt>
      <trkpt lat="46.51693" lon="5.27915">
        <ele>206.39999389648</ele>
        <time>2020-10-24T10:57:58.000Z</time>
      </trkpt>
      <trkpt lat="46.51706" lon="5.27903">
        <ele>206.39999389648</ele>
        <time>2020-10-24T10:58:00.000Z</time>
      </trkpt>
      <trkpt lat="46.51718" lon="5.2789">
        <ele>206</ele>
        <time>2020-10-24T10:58:02.000Z</time>
      </trkpt>
      <trkpt lat="46.51731" lon="5.27877">
        <ele>205.60000610352</ele>
        <time>2020-10-24T10:58:04.000Z</time>
      </trkpt>
      <trkpt lat="46.51738" lon="5.2787">
        <ele>205.39999389648</ele>
        <time>2020-10-24T10:58:05.000Z</time>
      </trkpt>
      <trkpt lat="46.51745" lon="5.27863">
        <ele>205.39999389648</ele>
        <time>2020-10-24T10:58:06.000Z</time>
      </trkpt>
      <trkpt lat="46.51759" lon="5.27848">
        <ele>204.80000305176</ele>
        <time>2020-10-24T10:58:08.000Z</time>
      </trkpt>
      <trkpt lat="46.51774" lon="5.27833">
        <ele>204.39999389648</ele>
        <time>2020-10-24T10:58:10.000Z</time>
      </trkpt>
      <trkpt lat="46.51789" lon="5.27817">
        <ele>204</ele>
        <time>2020-10-24T10:58:12.000Z</time>
      </trkpt>
      <trkpt lat="46.51797" lon="5.27809">
        <ele>203.60000610352</ele>
        <time>2020-10-24T10:58:13.000Z</time>
      </trkpt>
      <trkpt lat="46.51804" lon="5.27801">
        <ele>203.19999694824</ele>
        <time>2020-10-24T10:58:14.000Z</time>
      </trkpt>
      <trkpt lat="46.5182" lon="5.27784">
        <ele>202.19999694824</ele>
        <time>2020-10-24T10:58:16.000Z</time>
      </trkpt>
      <trkpt lat="46.51836" lon="5.27767">
        <ele>201.39999389648</ele>
        <time>2020-10-24T10:58:18.000Z</time>
      </trkpt>
      <trkpt lat="46.51844" lon="5.27759">
        <ele>200.80000305176</ele>
        <time>2020-10-24T10:58:19.000Z</time>
      </trkpt>
      <trkpt lat="46.51852" lon="5.27751">
        <ele>200.19999694824</ele>
        <time>2020-10-24T10:58:20.000Z</time>
      </trkpt>
      <trkpt lat="46.51869" lon="5.27734">
        <ele>199.39999389648</ele>
        <time>2020-10-24T10:58:22.000Z</time>
      </trkpt>
      <trkpt lat="46.51886" lon="5.27716">
        <ele>198.19999694824</ele>
        <time>2020-10-24T10:58:24.000Z</time>
      </trkpt>
      <trkpt lat="46.51903" lon="5.27699">
        <ele>197.19999694824</ele>
        <time>2020-10-24T10:58:26.000Z</time>
      </trkpt>
      <trkpt lat="46.5192" lon="5.27681">
        <ele>196.60000610352</ele>
        <time>2020-10-24T10:58:28.000Z</time>
      </trkpt>
      <trkpt lat="46.51928" lon="5.27672">
        <ele>196.19999694824</ele>
        <time>2020-10-24T10:58:29.000Z</time>
      </trkpt>
      <trkpt lat="46.51936" lon="5.27662">
        <ele>195.60000610352</ele>
        <time>2020-10-24T10:58:30.000Z</time>
      </trkpt>
      <trkpt lat="46.51944" lon="5.27652">
        <ele>195</ele>
        <time>2020-10-24T10:58:31.000Z</time>
      </trkpt>
      <trkpt lat="46.51952" lon="5.27642">
        <ele>194.19999694824</ele>
        <time>2020-10-24T10:58:32.000Z</time>
      </trkpt>
      <trkpt lat="46.51959" lon="5.27632">
        <ele>193.60000610352</ele>
        <time>2020-10-24T10:58:33.000Z</time>
      </trkpt>
      <trkpt lat="46.51967" lon="5.27622">
        <ele>193</ele>
        <time>2020-10-24T10:58:34.000Z</time>
      </trkpt>
      <trkpt lat="46.51975" lon="5.27612">
        <ele>192.39999389648</ele>
        <time>2020-10-24T10:58:35.000Z</time>
      </trkpt>
      <trkpt lat="46.51982" lon="5.27602">
        <ele>192</ele>
        <time>2020-10-24T10:58:36.000Z</time>
      </trkpt>
      <trkpt lat="46.51997" lon="5.27582">
        <ele>191.19999694824</ele>
        <time>2020-10-24T10:58:38.000Z</time>
      </trkpt>
      <trkpt lat="46.52011" lon="5.27563">
        <ele>191</ele>
        <time>2020-10-24T10:58:40.000Z</time>
      </trkpt>
      <trkpt lat="46.52025" lon="5.27545">
        <ele>191</ele>
        <time>2020-10-24T10:58:42.000Z</time>
      </trkpt>
      <trkpt lat="46.52032" lon="5.27536">
        <ele>191</ele>
        <time>2020-10-24T10:58:43.000Z</time>
      </trkpt>
      <trkpt lat="46.52038" lon="5.27528">
        <ele>191</ele>
        <time>2020-10-24T10:58:44.000Z</time>
      </trkpt>
      <trkpt lat="46.52051" lon="5.27512">
        <ele>191</ele>
        <time>2020-10-24T10:58:46.000Z</time>
      </trkpt>
      <trkpt lat="46.52063" lon="5.27496">
        <ele>191</ele>
        <time>2020-10-24T10:58:48.000Z</time>
      </trkpt>
      <trkpt lat="46.52074" lon="5.27481">
        <ele>191.19999694824</ele>
        <time>2020-10-24T10:58:50.000Z</time>
      </trkpt>
      <trkpt lat="46.52085" lon="5.27468">
        <ele>191.80000305176</ele>
        <time>2020-10-24T10:58:52.000Z</time>
      </trkpt>
      <trkpt lat="46.52094" lon="5.27454">
        <ele>192.60000610352</ele>
        <time>2020-10-24T10:58:54.000Z</time>
      </trkpt>
      <trkpt lat="46.52103" lon="5.27439">
        <ele>193.39999389648</ele>
        <time>2020-10-24T10:58:56.000Z</time>
      </trkpt>
      <trkpt lat="46.52107" lon="5.27432">
        <ele>193.80000305176</ele>
        <time>2020-10-24T10:58:57.000Z</time>
      </trkpt>
      <trkpt lat="46.5211" lon="5.27424">
        <ele>194.19999694824</ele>
        <time>2020-10-24T10:58:58.000Z</time>
      </trkpt>
      <trkpt lat="46.52113" lon="5.27417">
        <ele>195</ele>
        <time>2020-10-24T10:58:59.000Z</time>
      </trkpt>
      <trkpt lat="46.52116" lon="5.27409">
        <ele>195.39999389648</ele>
        <time>2020-10-24T10:59:00.000Z</time>
      </trkpt>
      <trkpt lat="46.5212" lon="5.27394">
        <ele>196.19999694824</ele>
        <time>2020-10-24T10:59:02.000Z</time>
      </trkpt>
      <trkpt lat="46.52123" lon="5.27378">
        <ele>196.60000610352</ele>
        <time>2020-10-24T10:59:04.000Z</time>
      </trkpt>
      <trkpt lat="46.52124" lon="5.27363">
        <ele>197.19999694824</ele>
        <time>2020-10-24T10:59:06.000Z</time>
      </trkpt>
      <trkpt lat="46.52124" lon="5.27355">
        <ele>197.39999389648</ele>
        <time>2020-10-24T10:59:07.000Z</time>
      </trkpt>
      <trkpt lat="46.52124" lon="5.27347">
        <ele>197.80000305176</ele>
        <time>2020-10-24T10:59:08.000Z</time>
      </trkpt>
      <trkpt lat="46.52121" lon="5.27333">
        <ele>198.19999694824</ele>
        <time>2020-10-24T10:59:10.000Z</time>
      </trkpt>
      <trkpt lat="46.52116" lon="5.27321">
        <ele>199</ele>
        <time>2020-10-24T10:59:12.000Z</time>
      </trkpt>
      <trkpt lat="46.52109" lon="5.27312">
        <ele>199.19999694824</ele>
        <time>2020-10-24T10:59:14.000Z</time>
      </trkpt>
      <trkpt lat="46.52106" lon="5.27307">
        <ele>199.39999389648</ele>
        <time>2020-10-24T10:59:15.000Z</time>
      </trkpt>
      <trkpt lat="46.52102" lon="5.27303">
        <ele>199.39999389648</ele>
        <time>2020-10-24T10:59:16.000Z</time>
      </trkpt>
      <trkpt lat="46.52098" lon="5.273">
        <ele>199.60000610352</ele>
        <time>2020-10-24T10:59:17.000Z</time>
      </trkpt>
      <trkpt lat="46.52094" lon="5.27296">
        <ele>199.60000610352</ele>
        <time>2020-10-24T10:59:18.000Z</time>
      </trkpt>
      <trkpt lat="46.52085" lon="5.27291">
        <ele>199.80000305176</ele>
        <time>2020-10-24T10:59:20.000Z</time>
      </trkpt>
      <trkpt lat="46.52076" lon="5.27286">
        <ele>200.39999389648</ele>
        <time>2020-10-24T10:59:22.000Z</time>
      </trkpt>
      <trkpt lat="46.52072" lon="5.27283">
        <ele>200.60000610352</ele>
        <time>2020-10-24T10:59:23.000Z</time>
      </trkpt>
      <trkpt lat="46.52068" lon="5.2728">
        <ele>200.80000305176</ele>
        <time>2020-10-24T10:59:24.000Z</time>
      </trkpt>
      <trkpt lat="46.52059" lon="5.27274">
        <ele>201.39999389648</ele>
        <time>2020-10-24T10:59:26.000Z</time>
      </trkpt>
      <trkpt lat="46.52055" lon="5.2727">
        <ele>201.80000305176</ele>
        <time>2020-10-24T10:59:27.000Z</time>
      </trkpt>
      <trkpt lat="46.52051" lon="5.27266">
        <ele>202</ele>
        <time>2020-10-24T10:59:28.000Z</time>
      </trkpt>
      <trkpt lat="46.52044" lon="5.27257">
        <ele>202.39999389648</ele>
        <time>2020-10-24T10:59:30.000Z</time>
      </trkpt>
      <trkpt lat="46.52041" lon="5.27252">
        <ele>202.60000610352</ele>
        <time>2020-10-24T10:59:31.000Z</time>
      </trkpt>
      <trkpt lat="46.52038" lon="5.27247">
        <ele>202.80000305176</ele>
        <time>2020-10-24T10:59:32.000Z</time>
      </trkpt>
      <trkpt lat="46.52032" lon="5.27236">
        <ele>203</ele>
        <time>2020-10-24T10:59:34.000Z</time>
      </trkpt>
      <trkpt lat="46.52028" lon="5.27224">
        <ele>203.19999694824</ele>
        <time>2020-10-24T10:59:36.000Z</time>
      </trkpt>
      <trkpt lat="46.52023" lon="5.27213">
        <ele>203.60000610352</ele>
        <time>2020-10-24T10:59:38.000Z</time>
      </trkpt>
      <trkpt lat="46.52019" lon="5.27202">
        <ele>204.19999694824</ele>
        <time>2020-10-24T10:59:40.000Z</time>
      </trkpt>
      <trkpt lat="46.52016" lon="5.2719">
        <ele>204.60000610352</ele>
        <time>2020-10-24T10:59:42.000Z</time>
      </trkpt>
      <trkpt lat="46.52015" lon="5.27184">
        <ele>204.80000305176</ele>
        <time>2020-10-24T10:59:43.000Z</time>
      </trkpt>
      <trkpt lat="46.52013" lon="5.27178">
        <ele>205.19999694824</ele>
        <time>2020-10-24T10:59:44.000Z</time>
      </trkpt>
      <trkpt lat="46.52011" lon="5.27166">
        <ele>205.80000305176</ele>
        <time>2020-10-24T10:59:46.000Z</time>
      </trkpt>
      <trkpt lat="46.52009" lon="5.2716">
        <ele>206</ele>
        <time>2020-10-24T10:59:47.000Z</time>
      </trkpt>
      <trkpt lat="46.52008" lon="5.27154">
        <ele>206.19999694824</ele>
        <time>2020-10-24T10:59:48.000Z</time>
      </trkpt>
      <trkpt lat="46.52006" lon="5.27141">
        <ele>206.80000305176</ele>
        <time>2020-10-24T10:59:50.000Z</time>
      </trkpt>
      <trkpt lat="46.52004" lon="5.27129">
        <ele>207.19999694824</ele>
        <time>2020-10-24T10:59:52.000Z</time>
      </trkpt>
      <trkpt lat="46.52002" lon="5.27117">
        <ele>207.60000610352</ele>
        <time>2020-10-24T10:59:54.000Z</time>
      </trkpt>
      <trkpt lat="46.52001" lon="5.2711">
        <ele>208.19999694824</ele>
        <time>2020-10-24T10:59:55.000Z</time>
      </trkpt>
      <trkpt lat="46.52" lon="5.27104">
        <ele>208.39999389648</ele>
        <time>2020-10-24T10:59:56.000Z</time>
      </trkpt>
      <trkpt lat="46.51999" lon="5.27091">
        <ele>208.60000610352</ele>
        <time>2020-10-24T10:59:58.000Z</time>
      </trkpt>
      <trkpt lat="46.51997" lon="5.27078">
        <ele>209</ele>
        <time>2020-10-24T11:00:00.000Z</time>
      </trkpt>
      <trkpt lat="46.51996" lon="5.27065">
        <ele>209.19999694824</ele>
        <time>2020-10-24T11:00:02.000Z</time>
      </trkpt>
      <trkpt lat="46.51995" lon="5.27058">
        <ele>209.39999389648</ele>
        <time>2020-10-24T11:00:03.000Z</time>
      </trkpt>
      <trkpt lat="46.51994" lon="5.27051">
        <ele>209.60000610352</ele>
        <time>2020-10-24T11:00:04.000Z</time>
      </trkpt>
      <trkpt lat="46.51993" lon="5.27038">
        <ele>210</ele>
        <time>2020-10-24T11:00:06.000Z</time>
      </trkpt>
      <trkpt lat="46.51992" lon="5.27031">
        <ele>210.39999389648</ele>
        <time>2020-10-24T11:00:07.000Z</time>
      </trkpt>
      <trkpt lat="46.51992" lon="5.27024">
        <ele>210.39999389648</ele>
        <time>2020-10-24T11:00:08.000Z</time>
      </trkpt>
      <trkpt lat="46.5199" lon="5.2701">
        <ele>210.60000610352</ele>
        <time>2020-10-24T11:00:10.000Z</time>
      </trkpt>
      <trkpt lat="46.51989" lon="5.26997">
        <ele>211</ele>
        <time>2020-10-24T11:00:12.000Z</time>
      </trkpt>
      <trkpt lat="46.51988" lon="5.2699">
        <ele>211.19999694824</ele>
        <time>2020-10-24T11:00:13.000Z</time>
      </trkpt>
      <trkpt lat="46.51986" lon="5.26983">
        <ele>211.39999389648</ele>
        <time>2020-10-24T11:00:14.000Z</time>
      </trkpt>
      <trkpt lat="46.51984" lon="5.26969">
        <ele>211.80000305176</ele>
        <time>2020-10-24T11:00:16.000Z</time>
      </trkpt>
      <trkpt lat="46.51981" lon="5.26955">
        <ele>212</ele>
        <time>2020-10-24T11:00:18.000Z</time>
      </trkpt>
      <trkpt lat="46.51977" lon="5.2694">
        <ele>212.19999694824</ele>
        <time>2020-10-24T11:00:20.000Z</time>
      </trkpt>
      <trkpt lat="46.51973" lon="5.26926">
        <ele>212.39999389648</ele>
        <time>2020-10-24T11:00:22.000Z</time>
      </trkpt>
      <trkpt lat="46.51971" lon="5.26918">
        <ele>212.60000610352</ele>
        <time>2020-10-24T11:00:23.000Z</time>
      </trkpt>
      <trkpt lat="46.51968" lon="5.26911">
        <ele>212.60000610352</ele>
        <time>2020-10-24T11:00:24.000Z</time>
      </trkpt>
      <trkpt lat="46.51966" lon="5.26904">
        <ele>212.60000610352</ele>
        <time>2020-10-24T11:00:25.000Z</time>
      </trkpt>
      <trkpt lat="46.51963" lon="5.26896">
        <ele>212.60000610352</ele>
        <time>2020-10-24T11:00:26.000Z</time>
      </trkpt>
      <trkpt lat="46.51957" lon="5.26879">
        <ele>212.60000610352</ele>
        <time>2020-10-24T11:00:28.000Z</time>
      </trkpt>
      <trkpt lat="46.51953" lon="5.26859">
        <ele>212.60000610352</ele>
        <time>2020-10-24T11:00:30.000Z</time>
      </trkpt>
      <trkpt lat="46.51952" lon="5.26838">
        <ele>212.60000610352</ele>
        <time>2020-10-24T11:00:32.000Z</time>
      </trkpt>
      <trkpt lat="46.51954" lon="5.26827">
        <ele>212.60000610352</ele>
        <time>2020-10-24T11:00:33.000Z</time>
      </trkpt>
      <trkpt lat="46.51957" lon="5.26815">
        <ele>212.19999694824</ele>
        <time>2020-10-24T11:00:34.000Z</time>
      </trkpt>
      <trkpt lat="46.51965" lon="5.26795">
        <ele>211.60000610352</ele>
        <time>2020-10-24T11:00:36.000Z</time>
      </trkpt>
      <trkpt lat="46.51979" lon="5.2678">
        <ele>210.60000610352</ele>
        <time>2020-10-24T11:00:38.000Z</time>
      </trkpt>
      <trkpt lat="46.51987" lon="5.26773">
        <ele>210</ele>
        <time>2020-10-24T11:00:39.000Z</time>
      </trkpt>
      <trkpt lat="46.51996" lon="5.26766">
        <ele>209.60000610352</ele>
        <time>2020-10-24T11:00:40.000Z</time>
      </trkpt>
      <trkpt lat="46.52012" lon="5.26752">
        <ele>208.60000610352</ele>
        <time>2020-10-24T11:00:42.000Z</time>
      </trkpt>
      <trkpt lat="46.5203" lon="5.26737">
        <ele>207.60000610352</ele>
        <time>2020-10-24T11:00:44.000Z</time>
      </trkpt>
      <trkpt lat="46.52047" lon="5.26722">
        <ele>206.39999389648</ele>
        <time>2020-10-24T11:00:46.000Z</time>
      </trkpt>
      <trkpt lat="46.52065" lon="5.26706">
        <ele>205.19999694824</ele>
        <time>2020-10-24T11:00:48.000Z</time>
      </trkpt>
      <trkpt lat="46.52084" lon="5.2669">
        <ele>204</ele>
        <time>2020-10-24T11:00:50.000Z</time>
      </trkpt>
      <trkpt lat="46.52093" lon="5.26682">
        <ele>202.39999389648</ele>
        <time>2020-10-24T11:00:51.000Z</time>
      </trkpt>
      <trkpt lat="46.52103" lon="5.26674">
        <ele>201.80000305176</ele>
        <time>2020-10-24T11:00:52.000Z</time>
      </trkpt>
      <trkpt lat="46.52112" lon="5.26665">
        <ele>201.19999694824</ele>
        <time>2020-10-24T11:00:53.000Z</time>
      </trkpt>
      <trkpt lat="46.52121" lon="5.26656">
        <ele>201</ele>
        <time>2020-10-24T11:00:54.000Z</time>
      </trkpt>
      <trkpt lat="46.52129" lon="5.26645">
        <ele>200.39999389648</ele>
        <time>2020-10-24T11:00:55.000Z</time>
      </trkpt>
      <trkpt lat="46.52137" lon="5.26633">
        <ele>199.80000305176</ele>
        <time>2020-10-24T11:00:56.000Z</time>
      </trkpt>
      <trkpt lat="46.52144" lon="5.26622">
        <ele>199.19999694824</ele>
        <time>2020-10-24T11:00:57.000Z</time>
      </trkpt>
      <trkpt lat="46.5215" lon="5.2661">
        <ele>198.39999389648</ele>
        <time>2020-10-24T11:00:58.000Z</time>
      </trkpt>
      <trkpt lat="46.52163" lon="5.26586">
        <ele>197</ele>
        <time>2020-10-24T11:01:00.000Z</time>
      </trkpt>
      <trkpt lat="46.52176" lon="5.26564">
        <ele>196</ele>
        <time>2020-10-24T11:01:02.000Z</time>
      </trkpt>
      <trkpt lat="46.52184" lon="5.26555">
        <ele>195.80000305176</ele>
        <time>2020-10-24T11:01:03.000Z</time>
      </trkpt>
      <trkpt lat="46.52191" lon="5.26547">
        <ele>195.80000305176</ele>
        <time>2020-10-24T11:01:04.000Z</time>
      </trkpt>
      <trkpt lat="46.52208" lon="5.26533">
        <ele>195.60000610352</ele>
        <time>2020-10-24T11:01:06.000Z</time>
      </trkpt>
      <trkpt lat="46.52217" lon="5.26528">
        <ele>195.60000610352</ele>
        <time>2020-10-24T11:01:07.000Z</time>
      </trkpt>
      <trkpt lat="46.52225" lon="5.26523">
        <ele>195.39999389648</ele>
        <time>2020-10-24T11:01:08.000Z</time>
      </trkpt>
      <trkpt lat="46.52243" lon="5.26515">
        <ele>195.39999389648</ele>
        <time>2020-10-24T11:01:10.000Z</time>
      </trkpt>
      <trkpt lat="46.52261" lon="5.26506">
        <ele>195</ele>
        <time>2020-10-24T11:01:12.000Z</time>
      </trkpt>
      <trkpt lat="46.5228" lon="5.26499">
        <ele>194.80000305176</ele>
        <time>2020-10-24T11:01:14.000Z</time>
      </trkpt>
      <trkpt lat="46.52298" lon="5.2649">
        <ele>194.19999694824</ele>
        <time>2020-10-24T11:01:16.000Z</time>
      </trkpt>
      <trkpt lat="46.52317" lon="5.26482">
        <ele>193.60000610352</ele>
        <time>2020-10-24T11:01:18.000Z</time>
      </trkpt>
      <trkpt lat="46.52336" lon="5.26474">
        <ele>193.19999694824</ele>
        <time>2020-10-24T11:01:20.000Z</time>
      </trkpt>
      <trkpt lat="46.52354" lon="5.26465">
        <ele>192.19999694824</ele>
        <time>2020-10-24T11:01:22.000Z</time>
      </trkpt>
      <trkpt lat="46.52364" lon="5.26461">
        <ele>191.80000305176</ele>
        <time>2020-10-24T11:01:23.000Z</time>
      </trkpt>
      <trkpt lat="46.52373" lon="5.26455">
        <ele>191.39999389648</ele>
        <time>2020-10-24T11:01:24.000Z</time>
      </trkpt>
      <trkpt lat="46.52381" lon="5.26448">
        <ele>191.19999694824</ele>
        <time>2020-10-24T11:01:25.000Z</time>
      </trkpt>
      <trkpt lat="46.52388" lon="5.26439">
        <ele>190.80000305176</ele>
        <time>2020-10-24T11:01:26.000Z</time>
      </trkpt>
      <trkpt lat="46.524" lon="5.26416">
        <ele>190</ele>
        <time>2020-10-24T11:01:28.000Z</time>
      </trkpt>
      <trkpt lat="46.52405" lon="5.26404">
        <ele>189.80000305176</ele>
        <time>2020-10-24T11:01:29.000Z</time>
      </trkpt>
      <trkpt lat="46.5241" lon="5.26392">
        <ele>189.39999389648</ele>
        <time>2020-10-24T11:01:30.000Z</time>
      </trkpt>
      <trkpt lat="46.52419" lon="5.26368">
        <ele>189.19999694824</ele>
        <time>2020-10-24T11:01:32.000Z</time>
      </trkpt>
      <trkpt lat="46.52423" lon="5.26356">
        <ele>189</ele>
        <time>2020-10-24T11:01:33.000Z</time>
      </trkpt>
      <trkpt lat="46.52428" lon="5.26345">
        <ele>188.60000610352</ele>
        <time>2020-10-24T11:01:34.000Z</time>
      </trkpt>
      <trkpt lat="46.52436" lon="5.26322">
        <ele>188.19999694824</ele>
        <time>2020-10-24T11:01:36.000Z</time>
      </trkpt>
      <trkpt lat="46.52444" lon="5.263">
        <ele>188</ele>
        <time>2020-10-24T11:01:38.000Z</time>
      </trkpt>
      <trkpt lat="46.52452" lon="5.26278">
        <ele>188</ele>
        <time>2020-10-24T11:01:40.000Z</time>
      </trkpt>
      <trkpt lat="46.5246" lon="5.26257">
        <ele>187.80000305176</ele>
        <time>2020-10-24T11:01:42.000Z</time>
      </trkpt>
      <trkpt lat="46.52468" lon="5.26236">
        <ele>187.80000305176</ele>
        <time>2020-10-24T11:01:44.000Z</time>
      </trkpt>
      <trkpt lat="46.52472" lon="5.26226">
        <ele>187.80000305176</ele>
        <time>2020-10-24T11:01:45.000Z</time>
      </trkpt>
      <trkpt lat="46.52476" lon="5.26215">
        <ele>187.80000305176</ele>
        <time>2020-10-24T11:01:46.000Z</time>
      </trkpt>
      <trkpt lat="46.52483" lon="5.26195">
        <ele>187.80000305176</ele>
        <time>2020-10-24T11:01:48.000Z</time>
      </trkpt>
      <trkpt lat="46.52491" lon="5.26175">
        <ele>188</ele>
        <time>2020-10-24T11:01:50.000Z</time>
      </trkpt>
      <trkpt lat="46.52498" lon="5.26155">
        <ele>188.19999694824</ele>
        <time>2020-10-24T11:01:52.000Z</time>
      </trkpt>
      <trkpt lat="46.52505" lon="5.26137">
        <ele>188.19999694824</ele>
        <time>2020-10-24T11:01:54.000Z</time>
      </trkpt>
      <trkpt lat="46.5251" lon="5.26128">
        <ele>188.19999694824</ele>
        <time>2020-10-24T11:01:55.000Z</time>
      </trkpt>
      <trkpt lat="46.52515" lon="5.26121">
        <ele>188.19999694824</ele>
        <time>2020-10-24T11:01:56.000Z</time>
      </trkpt>
      <trkpt lat="46.52522" lon="5.26117">
        <ele>188.19999694824</ele>
        <time>2020-10-24T11:01:57.000Z</time>
      </trkpt>
      <trkpt lat="46.52528" lon="5.26115">
        <ele>188.39999389648</ele>
        <time>2020-10-24T11:01:58.000Z</time>
      </trkpt>
      <trkpt lat="46.52543" lon="5.26114">
        <ele>188.60000610352</ele>
        <time>2020-10-24T11:02:00.000Z</time>
      </trkpt>
      <trkpt lat="46.52549" lon="5.26114">
        <ele>188.80000305176</ele>
        <time>2020-10-24T11:02:01.000Z</time>
      </trkpt>
      <trkpt lat="46.52556" lon="5.26112">
        <ele>188.80000305176</ele>
        <time>2020-10-24T11:02:02.000Z</time>
      </trkpt>
      <trkpt lat="46.52567" lon="5.26105">
        <ele>189</ele>
        <time>2020-10-24T11:02:04.000Z</time>
      </trkpt>
      <trkpt lat="46.52572" lon="5.26099">
        <ele>189</ele>
        <time>2020-10-24T11:02:05.000Z</time>
      </trkpt>
      <trkpt lat="46.52575" lon="5.26093">
        <ele>189.19999694824</ele>
        <time>2020-10-24T11:02:06.000Z</time>
      </trkpt>
      <trkpt lat="46.52579" lon="5.26079">
        <ele>189.39999389648</ele>
        <time>2020-10-24T11:02:08.000Z</time>
      </trkpt>
      <trkpt lat="46.52581" lon="5.26072">
        <ele>189.60000610352</ele>
        <time>2020-10-24T11:02:09.000Z</time>
      </trkpt>
      <trkpt lat="46.52582" lon="5.26066">
        <ele>190</ele>
        <time>2020-10-24T11:02:10.000Z</time>
      </trkpt>
      <trkpt lat="46.52584" lon="5.26059">
        <ele>190.19999694824</ele>
        <time>2020-10-24T11:02:11.000Z</time>
      </trkpt>
      <trkpt lat="46.52586" lon="5.26053">
        <ele>190.80000305176</ele>
        <time>2020-10-24T11:02:12.000Z</time>
      </trkpt>
      <trkpt lat="46.52588" lon="5.2604">
        <ele>191.60000610352</ele>
        <time>2020-10-24T11:02:14.000Z</time>
      </trkpt>
      <trkpt lat="46.52591" lon="5.26028">
        <ele>192.60000610352</ele>
        <time>2020-10-24T11:02:16.000Z</time>
      </trkpt>
      <trkpt lat="46.52592" lon="5.26022">
        <ele>192.80000305176</ele>
        <time>2020-10-24T11:02:17.000Z</time>
      </trkpt>
      <trkpt lat="46.52593" lon="5.26016">
        <ele>193.19999694824</ele>
        <time>2020-10-24T11:02:18.000Z</time>
      </trkpt>
      <trkpt lat="46.52595" lon="5.26004">
        <ele>193.80000305176</ele>
        <time>2020-10-24T11:02:20.000Z</time>
      </trkpt>
      <trkpt lat="46.52597" lon="5.25999">
        <ele>194</ele>
        <time>2020-10-24T11:02:21.000Z</time>
      </trkpt>
      <trkpt lat="46.52598" lon="5.25993">
        <ele>194.19999694824</ele>
        <time>2020-10-24T11:02:22.000Z</time>
      </trkpt>
      <trkpt lat="46.52601" lon="5.25983">
        <ele>194.80000305176</ele>
        <time>2020-10-24T11:02:24.000Z</time>
      </trkpt>
      <trkpt lat="46.52603" lon="5.25979">
        <ele>195.19999694824</ele>
        <time>2020-10-24T11:02:25.000Z</time>
      </trkpt>
      <trkpt lat="46.52605" lon="5.25974">
        <ele>195.39999389648</ele>
        <time>2020-10-24T11:02:26.000Z</time>
      </trkpt>
      <trkpt lat="46.52609" lon="5.25966">
        <ele>196.19999694824</ele>
        <time>2020-10-24T11:02:28.000Z</time>
      </trkpt>
      <trkpt lat="46.52612" lon="5.25962">
        <ele>196.60000610352</ele>
        <time>2020-10-24T11:02:29.000Z</time>
      </trkpt>
      <trkpt lat="46.52615" lon="5.25959">
        <ele>197.19999694824</ele>
        <time>2020-10-24T11:02:30.000Z</time>
      </trkpt>
      <trkpt lat="46.52621" lon="5.25955">
        <ele>197.80000305176</ele>
        <time>2020-10-24T11:02:32.000Z</time>
      </trkpt>
      <trkpt lat="46.52628" lon="5.25952">
        <ele>198.39999389648</ele>
        <time>2020-10-24T11:02:34.000Z</time>
      </trkpt>
      <trkpt lat="46.52632" lon="5.25951">
        <ele>198.80000305176</ele>
        <time>2020-10-24T11:02:35.000Z</time>
      </trkpt>
      <trkpt lat="46.52635" lon="5.2595">
        <ele>199.19999694824</ele>
        <time>2020-10-24T11:02:36.000Z</time>
      </trkpt>
      <trkpt lat="46.52641" lon="5.25949">
        <ele>199.60000610352</ele>
        <time>2020-10-24T11:02:38.000Z</time>
      </trkpt>
      <trkpt lat="46.52644" lon="5.25949">
        <ele>199.80000305176</ele>
        <time>2020-10-24T11:02:39.000Z</time>
      </trkpt>
      <trkpt lat="46.52647" lon="5.25948">
        <ele>200</ele>
        <time>2020-10-24T11:02:40.000Z</time>
      </trkpt>
      <trkpt lat="46.52654" lon="5.25945">
        <ele>201</ele>
        <time>2020-10-24T11:02:42.000Z</time>
      </trkpt>
      <trkpt lat="46.5266" lon="5.25941">
        <ele>201.60000610352</ele>
        <time>2020-10-24T11:02:44.000Z</time>
      </trkpt>
      <trkpt lat="46.52666" lon="5.25934">
        <ele>202.19999694824</ele>
        <time>2020-10-24T11:02:46.000Z</time>
      </trkpt>
      <trkpt lat="46.52669" lon="5.2593">
        <ele>202.60000610352</ele>
        <time>2020-10-24T11:02:47.000Z</time>
      </trkpt>
      <trkpt lat="46.52671" lon="5.25926">
        <ele>202.80000305176</ele>
        <time>2020-10-24T11:02:48.000Z</time>
      </trkpt>
      <trkpt lat="46.52676" lon="5.25917">
        <ele>203.39999389648</ele>
        <time>2020-10-24T11:02:50.000Z</time>
      </trkpt>
      <trkpt lat="46.5268" lon="5.25907">
        <ele>203.80000305176</ele>
        <time>2020-10-24T11:02:52.000Z</time>
      </trkpt>
      <trkpt lat="46.52683" lon="5.25897">
        <ele>204.19999694824</ele>
        <time>2020-10-24T11:02:54.000Z</time>
      </trkpt>
      <trkpt lat="46.52684" lon="5.25892">
        <ele>204.39999389648</ele>
        <time>2020-10-24T11:02:55.000Z</time>
      </trkpt>
      <trkpt lat="46.52686" lon="5.25887">
        <ele>204.60000610352</ele>
        <time>2020-10-24T11:02:56.000Z</time>
      </trkpt>
      <trkpt lat="46.52688" lon="5.25876">
        <ele>205.19999694824</ele>
        <time>2020-10-24T11:02:58.000Z</time>
      </trkpt>
      <trkpt lat="46.52689" lon="5.25865">
        <ele>205.60000610352</ele>
        <time>2020-10-24T11:03:00.000Z</time>
      </trkpt>
      <trkpt lat="46.5269" lon="5.25854">
        <ele>206</ele>
        <time>2020-10-24T11:03:02.000Z</time>
      </trkpt>
      <trkpt lat="46.5269" lon="5.25843">
        <ele>206.60000610352</ele>
        <time>2020-10-24T11:03:04.000Z</time>
      </trkpt>
      <trkpt lat="46.5269" lon="5.25837">
        <ele>206.80000305176</ele>
        <time>2020-10-24T11:03:05.000Z</time>
      </trkpt>
      <trkpt lat="46.5269" lon="5.25832">
        <ele>207</ele>
        <time>2020-10-24T11:03:06.000Z</time>
      </trkpt>
      <trkpt lat="46.5269" lon="5.2582">
        <ele>207.39999389648</ele>
        <time>2020-10-24T11:03:08.000Z</time>
      </trkpt>
      <trkpt lat="46.5269" lon="5.25809">
        <ele>208</ele>
        <time>2020-10-24T11:03:10.000Z</time>
      </trkpt>
      <trkpt lat="46.52691" lon="5.25798">
        <ele>208.39999389648</ele>
        <time>2020-10-24T11:03:12.000Z</time>
      </trkpt>
      <trkpt lat="46.52692" lon="5.25792">
        <ele>208.60000610352</ele>
        <time>2020-10-24T11:03:13.000Z</time>
      </trkpt>
      <trkpt lat="46.52693" lon="5.25786">
        <ele>209</ele>
        <time>2020-10-24T11:03:14.000Z</time>
      </trkpt>
      <trkpt lat="46.52695" lon="5.2578">
        <ele>209</ele>
        <time>2020-10-24T11:03:15.000Z</time>
      </trkpt>
      <trkpt lat="46.52696" lon="5.25774">
        <ele>209.19999694824</ele>
        <time>2020-10-24T11:03:16.000Z</time>
      </trkpt>
      <trkpt lat="46.527" lon="5.25761">
        <ele>209.39999389648</ele>
        <time>2020-10-24T11:03:18.000Z</time>
      </trkpt>
      <trkpt lat="46.52703" lon="5.25749">
        <ele>209.80000305176</ele>
        <time>2020-10-24T11:03:20.000Z</time>
      </trkpt>
      <trkpt lat="46.52706" lon="5.25736">
        <ele>210</ele>
        <time>2020-10-24T11:03:22.000Z</time>
      </trkpt>
      <trkpt lat="46.52708" lon="5.25729">
        <ele>210.19999694824</ele>
        <time>2020-10-24T11:03:23.000Z</time>
      </trkpt>
      <trkpt lat="46.52709" lon="5.25721">
        <ele>210.39999389648</ele>
        <time>2020-10-24T11:03:24.000Z</time>
      </trkpt>
      <trkpt lat="46.52712" lon="5.25706">
        <ele>210.60000610352</ele>
        <time>2020-10-24T11:03:26.000Z</time>
      </trkpt>
      <trkpt lat="46.52713" lon="5.25699">
        <ele>210.60000610352</ele>
        <time>2020-10-24T11:03:27.000Z</time>
      </trkpt>
      <trkpt lat="46.52713" lon="5.25691">
        <ele>210.60000610352</ele>
        <time>2020-10-24T11:03:28.000Z</time>
      </trkpt>
      <trkpt lat="46.52715" lon="5.25676">
        <ele>210.60000610352</ele>
        <time>2020-10-24T11:03:30.000Z</time>
      </trkpt>
      <trkpt lat="46.52715" lon="5.2566">
        <ele>210.80000305176</ele>
        <time>2020-10-24T11:03:32.000Z</time>
      </trkpt>
      <trkpt lat="46.52716" lon="5.25645">
        <ele>210.80000305176</ele>
        <time>2020-10-24T11:03:34.000Z</time>
      </trkpt>
      <trkpt lat="46.52716" lon="5.25637">
        <ele>210.80000305176</ele>
        <time>2020-10-24T11:03:35.000Z</time>
      </trkpt>
      <trkpt lat="46.52717" lon="5.25629">
        <ele>210.80000305176</ele>
        <time>2020-10-24T11:03:36.000Z</time>
      </trkpt>
      <trkpt lat="46.52718" lon="5.25613">
        <ele>210.80000305176</ele>
        <time>2020-10-24T11:03:38.000Z</time>
      </trkpt>
      <trkpt lat="46.52718" lon="5.25597">
        <ele>210.80000305176</ele>
        <time>2020-10-24T11:03:40.000Z</time>
      </trkpt>
      <trkpt lat="46.52719" lon="5.25582">
        <ele>211</ele>
        <time>2020-10-24T11:03:42.000Z</time>
      </trkpt>
      <trkpt lat="46.5272" lon="5.25567">
        <ele>211</ele>
        <time>2020-10-24T11:03:44.000Z</time>
      </trkpt>
      <trkpt lat="46.5272" lon="5.25552">
        <ele>211</ele>
        <time>2020-10-24T11:03:46.000Z</time>
      </trkpt>
      <trkpt lat="46.52721" lon="5.25537">
        <ele>211</ele>
        <time>2020-10-24T11:03:48.000Z</time>
      </trkpt>
      <trkpt lat="46.52721" lon="5.25522">
        <ele>211</ele>
        <time>2020-10-24T11:03:50.000Z</time>
      </trkpt>
      <trkpt lat="46.52722" lon="5.25514">
        <ele>211.19999694824</ele>
        <time>2020-10-24T11:03:51.000Z</time>
      </trkpt>
      <trkpt lat="46.52722" lon="5.25507">
        <ele>211.19999694824</ele>
        <time>2020-10-24T11:03:52.000Z</time>
      </trkpt>
      <trkpt lat="46.52722" lon="5.25492">
        <ele>211.39999389648</ele>
        <time>2020-10-24T11:03:54.000Z</time>
      </trkpt>
      <trkpt lat="46.52721" lon="5.25477">
        <ele>211.60000610352</ele>
        <time>2020-10-24T11:03:56.000Z</time>
      </trkpt>
      <trkpt lat="46.5272" lon="5.25469">
        <ele>211.60000610352</ele>
        <time>2020-10-24T11:03:57.000Z</time>
      </trkpt>
      <trkpt lat="46.52718" lon="5.25462">
        <ele>211.60000610352</ele>
        <time>2020-10-24T11:03:58.000Z</time>
      </trkpt>
      <trkpt lat="46.52712" lon="5.25449">
        <ele>212</ele>
        <time>2020-10-24T11:04:00.000Z</time>
      </trkpt>
      <trkpt lat="46.52708" lon="5.25443">
        <ele>212.19999694824</ele>
        <time>2020-10-24T11:04:01.000Z</time>
      </trkpt>
      <trkpt lat="46.52705" lon="5.25437">
        <ele>212.19999694824</ele>
        <time>2020-10-24T11:04:02.000Z</time>
      </trkpt>
      <trkpt lat="46.52697" lon="5.25425">
        <ele>212.19999694824</ele>
        <time>2020-10-24T11:04:04.000Z</time>
      </trkpt>
      <trkpt lat="46.52688" lon="5.25412">
        <ele>212.39999389648</ele>
        <time>2020-10-24T11:04:06.000Z</time>
      </trkpt>
      <trkpt lat="46.5268" lon="5.25401">
        <ele>212.60000610352</ele>
        <time>2020-10-24T11:04:08.000Z</time>
      </trkpt>
      <trkpt lat="46.52672" lon="5.25388">
        <ele>212.60000610352</ele>
        <time>2020-10-24T11:04:10.000Z</time>
      </trkpt>
      <trkpt lat="46.52664" lon="5.25375">
        <ele>212.60000610352</ele>
        <time>2020-10-24T11:04:12.000Z</time>
      </trkpt>
      <trkpt lat="46.52655" lon="5.25362">
        <ele>212.60000610352</ele>
        <time>2020-10-24T11:04:14.000Z</time>
      </trkpt>
      <trkpt lat="46.52652" lon="5.25355">
        <ele>212.60000610352</ele>
        <time>2020-10-24T11:04:15.000Z</time>
      </trkpt>
      <trkpt lat="46.52648" lon="5.25348">
        <ele>212.39999389648</ele>
        <time>2020-10-24T11:04:16.000Z</time>
      </trkpt>
      <trkpt lat="46.52641" lon="5.25334">
        <ele>212.39999389648</ele>
        <time>2020-10-24T11:04:18.000Z</time>
      </trkpt>
      <trkpt lat="46.52635" lon="5.25319">
        <ele>212.39999389648</ele>
        <time>2020-10-24T11:04:20.000Z</time>
      </trkpt>
      <trkpt lat="46.52632" lon="5.25311">
        <ele>212.39999389648</ele>
        <time>2020-10-24T11:04:21.000Z</time>
      </trkpt>
      <trkpt lat="46.5263" lon="5.25303">
        <ele>212.39999389648</ele>
        <time>2020-10-24T11:04:22.000Z</time>
      </trkpt>
      <trkpt lat="46.52627" lon="5.25286">
        <ele>212.39999389648</ele>
        <time>2020-10-24T11:04:24.000Z</time>
      </trkpt>
      <trkpt lat="46.52624" lon="5.25269">
        <ele>212.60000610352</ele>
        <time>2020-10-24T11:04:26.000Z</time>
      </trkpt>
      <trkpt lat="46.52622" lon="5.2525">
        <ele>212.60000610352</ele>
        <time>2020-10-24T11:04:28.000Z</time>
      </trkpt>
      <trkpt lat="46.52621" lon="5.25231">
        <ele>213</ele>
        <time>2020-10-24T11:04:30.000Z</time>
      </trkpt>
      <trkpt lat="46.5262" lon="5.25211">
        <ele>213</ele>
        <time>2020-10-24T11:04:32.000Z</time>
      </trkpt>
      <trkpt lat="46.52619" lon="5.25192">
        <ele>213</ele>
        <time>2020-10-24T11:04:34.000Z</time>
      </trkpt>
      <trkpt lat="46.52618" lon="5.25172">
        <ele>213</ele>
        <time>2020-10-24T11:04:36.000Z</time>
      </trkpt>
      <trkpt lat="46.52618" lon="5.25163">
        <ele>213</ele>
        <time>2020-10-24T11:04:37.000Z</time>
      </trkpt>
      <trkpt lat="46.52617" lon="5.25153">
        <ele>213</ele>
        <time>2020-10-24T11:04:38.000Z</time>
      </trkpt>
      <trkpt lat="46.52617" lon="5.25134">
        <ele>212.80000305176</ele>
        <time>2020-10-24T11:04:40.000Z</time>
      </trkpt>
      <trkpt lat="46.52616" lon="5.25115">
        <ele>212.60000610352</ele>
        <time>2020-10-24T11:04:42.000Z</time>
      </trkpt>
      <trkpt lat="46.52615" lon="5.25096">
        <ele>212.39999389648</ele>
        <time>2020-10-24T11:04:44.000Z</time>
      </trkpt>
      <trkpt lat="46.52614" lon="5.25076">
        <ele>212.39999389648</ele>
        <time>2020-10-24T11:04:46.000Z</time>
      </trkpt>
      <trkpt lat="46.52614" lon="5.25067">
        <ele>212.39999389648</ele>
        <time>2020-10-24T11:04:47.000Z</time>
      </trkpt>
      <trkpt lat="46.52613" lon="5.25057">
        <ele>212.39999389648</ele>
        <time>2020-10-24T11:04:48.000Z</time>
      </trkpt>
      <trkpt lat="46.52612" lon="5.25037">
        <ele>212.39999389648</ele>
        <time>2020-10-24T11:04:50.000Z</time>
      </trkpt>
      <trkpt lat="46.5261" lon="5.25017">
        <ele>212.19999694824</ele>
        <time>2020-10-24T11:04:52.000Z</time>
      </trkpt>
      <trkpt lat="46.52607" lon="5.24996">
        <ele>212.19999694824</ele>
        <time>2020-10-24T11:04:54.000Z</time>
      </trkpt>
      <trkpt lat="46.52606" lon="5.24986">
        <ele>212.19999694824</ele>
        <time>2020-10-24T11:04:55.000Z</time>
      </trkpt>
      <trkpt lat="46.52604" lon="5.24975">
        <ele>212.19999694824</ele>
        <time>2020-10-24T11:04:56.000Z</time>
      </trkpt>
      <trkpt lat="46.52601" lon="5.24954">
        <ele>212.19999694824</ele>
        <time>2020-10-24T11:04:58.000Z</time>
      </trkpt>
      <trkpt lat="46.52597" lon="5.24932">
        <ele>212.19999694824</ele>
        <time>2020-10-24T11:05:00.000Z</time>
      </trkpt>
      <trkpt lat="46.52595" lon="5.2491">
        <ele>212.19999694824</ele>
        <time>2020-10-24T11:05:02.000Z</time>
      </trkpt>
      <trkpt lat="46.52592" lon="5.24889">
        <ele>211.80000305176</ele>
        <time>2020-10-24T11:05:04.000Z</time>
      </trkpt>
      <trkpt lat="46.52592" lon="5.24878">
        <ele>211.60000610352</ele>
        <time>2020-10-24T11:05:05.000Z</time>
      </trkpt>
      <trkpt lat="46.52592" lon="5.24867">
        <ele>211.39999389648</ele>
        <time>2020-10-24T11:05:06.000Z</time>
      </trkpt>
      <trkpt lat="46.5259" lon="5.24846">
        <ele>211.19999694824</ele>
        <time>2020-10-24T11:05:08.000Z</time>
      </trkpt>
      <trkpt lat="46.5259" lon="5.24824">
        <ele>211</ele>
        <time>2020-10-24T11:05:10.000Z</time>
      </trkpt>
      <trkpt lat="46.52589" lon="5.24802">
        <ele>211</ele>
        <time>2020-10-24T11:05:12.000Z</time>
      </trkpt>
      <trkpt lat="46.52588" lon="5.2478">
        <ele>211</ele>
        <time>2020-10-24T11:05:14.000Z</time>
      </trkpt>
      <trkpt lat="46.52587" lon="5.24759">
        <ele>211</ele>
        <time>2020-10-24T11:05:16.000Z</time>
      </trkpt>
      <trkpt lat="46.52587" lon="5.24737">
        <ele>211</ele>
        <time>2020-10-24T11:05:18.000Z</time>
      </trkpt>
      <trkpt lat="46.52586" lon="5.24717">
        <ele>211</ele>
        <time>2020-10-24T11:05:20.000Z</time>
      </trkpt>
      <trkpt lat="46.52585" lon="5.24696">
        <ele>211</ele>
        <time>2020-10-24T11:05:22.000Z</time>
      </trkpt>
      <trkpt lat="46.52584" lon="5.24676">
        <ele>211</ele>
        <time>2020-10-24T11:05:24.000Z</time>
      </trkpt>
      <trkpt lat="46.52583" lon="5.24666">
        <ele>211.19999694824</ele>
        <time>2020-10-24T11:05:25.000Z</time>
      </trkpt>
      <trkpt lat="46.52582" lon="5.24656">
        <ele>211.19999694824</ele>
        <time>2020-10-24T11:05:26.000Z</time>
      </trkpt>
      <trkpt lat="46.52578" lon="5.24637">
        <ele>211.19999694824</ele>
        <time>2020-10-24T11:05:28.000Z</time>
      </trkpt>
      <trkpt lat="46.52573" lon="5.24618">
        <ele>211.19999694824</ele>
        <time>2020-10-24T11:05:30.000Z</time>
      </trkpt>
      <trkpt lat="46.52567" lon="5.246">
        <ele>211.19999694824</ele>
        <time>2020-10-24T11:05:32.000Z</time>
      </trkpt>
      <trkpt lat="46.5256" lon="5.24581">
        <ele>211.19999694824</ele>
        <time>2020-10-24T11:05:34.000Z</time>
      </trkpt>
      <trkpt lat="46.52553" lon="5.24562">
        <ele>211</ele>
        <time>2020-10-24T11:05:36.000Z</time>
      </trkpt>
      <trkpt lat="46.52546" lon="5.24543">
        <ele>211</ele>
        <time>2020-10-24T11:05:38.000Z</time>
      </trkpt>
      <trkpt lat="46.52539" lon="5.24523">
        <ele>210.80000305176</ele>
        <time>2020-10-24T11:05:40.000Z</time>
      </trkpt>
      <trkpt lat="46.52532" lon="5.24503">
        <ele>210.60000610352</ele>
        <time>2020-10-24T11:05:42.000Z</time>
      </trkpt>
      <trkpt lat="46.52526" lon="5.24481">
        <ele>210.39999389648</ele>
        <time>2020-10-24T11:05:44.000Z</time>
      </trkpt>
      <trkpt lat="46.52523" lon="5.2447">
        <ele>210.19999694824</ele>
        <time>2020-10-24T11:05:45.000Z</time>
      </trkpt>
      <trkpt lat="46.5252" lon="5.24459">
        <ele>210.19999694824</ele>
        <time>2020-10-24T11:05:46.000Z</time>
      </trkpt>
      <trkpt lat="46.52516" lon="5.24437">
        <ele>209.60000610352</ele>
        <time>2020-10-24T11:05:48.000Z</time>
      </trkpt>
      <trkpt lat="46.52512" lon="5.24414">
        <ele>209.39999389648</ele>
        <time>2020-10-24T11:05:50.000Z</time>
      </trkpt>
      <trkpt lat="46.52509" lon="5.24392">
        <ele>209</ele>
        <time>2020-10-24T11:05:52.000Z</time>
      </trkpt>
      <trkpt lat="46.52505" lon="5.24369">
        <ele>208.80000305176</ele>
        <time>2020-10-24T11:05:54.000Z</time>
      </trkpt>
      <trkpt lat="46.52502" lon="5.24348">
        <ele>208.39999389648</ele>
        <time>2020-10-24T11:05:56.000Z</time>
      </trkpt>
      <trkpt lat="46.525" lon="5.24326">
        <ele>208.19999694824</ele>
        <time>2020-10-24T11:05:58.000Z</time>
      </trkpt>
      <trkpt lat="46.52497" lon="5.24306">
        <ele>208</ele>
        <time>2020-10-24T11:06:00.000Z</time>
      </trkpt>
      <trkpt lat="46.52494" lon="5.24287">
        <ele>208</ele>
        <time>2020-10-24T11:06:02.000Z</time>
      </trkpt>
      <trkpt lat="46.52492" lon="5.24268">
        <ele>208</ele>
        <time>2020-10-24T11:06:04.000Z</time>
      </trkpt>
      <trkpt lat="46.52489" lon="5.24249">
        <ele>208</ele>
        <time>2020-10-24T11:06:06.000Z</time>
      </trkpt>
      <trkpt lat="46.52487" lon="5.24231">
        <ele>208</ele>
        <time>2020-10-24T11:06:08.000Z</time>
      </trkpt>
      <trkpt lat="46.52485" lon="5.24213">
        <ele>208.60000610352</ele>
        <time>2020-10-24T11:06:10.000Z</time>
      </trkpt>
      <trkpt lat="46.52483" lon="5.24196">
        <ele>209.19999694824</ele>
        <time>2020-10-24T11:06:12.000Z</time>
      </trkpt>
      <trkpt lat="46.5248" lon="5.24179">
        <ele>209.39999389648</ele>
        <time>2020-10-24T11:06:14.000Z</time>
      </trkpt>
      <trkpt lat="46.52478" lon="5.24164">
        <ele>209.60000610352</ele>
        <time>2020-10-24T11:06:16.000Z</time>
      </trkpt>
      <trkpt lat="46.52476" lon="5.24149">
        <ele>209.80000305176</ele>
        <time>2020-10-24T11:06:18.000Z</time>
      </trkpt>
      <trkpt lat="46.52477" lon="5.24136">
        <ele>210</ele>
        <time>2020-10-24T11:06:20.000Z</time>
      </trkpt>
      <trkpt lat="46.52478" lon="5.24131">
        <ele>210.39999389648</ele>
        <time>2020-10-24T11:06:21.000Z</time>
      </trkpt>
      <trkpt lat="46.52479" lon="5.24125">
        <ele>210.60000610352</ele>
        <time>2020-10-24T11:06:22.000Z</time>
      </trkpt>
      <trkpt lat="46.52479" lon="5.24112">
        <ele>211.39999389648</ele>
        <time>2020-10-24T11:06:24.000Z</time>
      </trkpt>
      <trkpt lat="46.52479" lon="5.24105">
        <ele>211.60000610352</ele>
        <time>2020-10-24T11:06:25.000Z</time>
      </trkpt>
      <trkpt lat="46.5248" lon="5.24097">
        <ele>211.80000305176</ele>
        <time>2020-10-24T11:06:26.000Z</time>
      </trkpt>
      <trkpt lat="46.52482" lon="5.24078">
        <ele>212</ele>
        <time>2020-10-24T11:06:28.000Z</time>
      </trkpt>
      <trkpt lat="46.52485" lon="5.24058">
        <ele>212</ele>
        <time>2020-10-24T11:06:30.000Z</time>
      </trkpt>
      <trkpt lat="46.52488" lon="5.24038">
        <ele>212</ele>
        <time>2020-10-24T11:06:32.000Z</time>
      </trkpt>
      <trkpt lat="46.52491" lon="5.24018">
        <ele>212</ele>
        <time>2020-10-24T11:06:34.000Z</time>
      </trkpt>
      <trkpt lat="46.52494" lon="5.23997">
        <ele>211.80000305176</ele>
        <time>2020-10-24T11:06:36.000Z</time>
      </trkpt>
      <trkpt lat="46.52497" lon="5.23977">
        <ele>211.60000610352</ele>
        <time>2020-10-24T11:06:38.000Z</time>
      </trkpt>
      <trkpt lat="46.52498" lon="5.23966">
        <ele>211.60000610352</ele>
        <time>2020-10-24T11:06:39.000Z</time>
      </trkpt>
      <trkpt lat="46.525" lon="5.23956">
        <ele>211.60000610352</ele>
        <time>2020-10-24T11:06:40.000Z</time>
      </trkpt>
      <trkpt lat="46.52502" lon="5.23935">
        <ele>211.39999389648</ele>
        <time>2020-10-24T11:06:42.000Z</time>
      </trkpt>
      <trkpt lat="46.52504" lon="5.23913">
        <ele>211.19999694824</ele>
        <time>2020-10-24T11:06:44.000Z</time>
      </trkpt>
      <trkpt lat="46.52504" lon="5.23902">
        <ele>211.19999694824</ele>
        <time>2020-10-24T11:06:45.000Z</time>
      </trkpt>
      <trkpt lat="46.52503" lon="5.23891">
        <ele>211.19999694824</ele>
        <time>2020-10-24T11:06:46.000Z</time>
      </trkpt>
      <trkpt lat="46.52501" lon="5.23869">
        <ele>211</ele>
        <time>2020-10-24T11:06:48.000Z</time>
      </trkpt>
      <trkpt lat="46.52497" lon="5.23848">
        <ele>210.80000305176</ele>
        <time>2020-10-24T11:06:50.000Z</time>
      </trkpt>
      <trkpt lat="46.52492" lon="5.23827">
        <ele>210.80000305176</ele>
        <time>2020-10-24T11:06:52.000Z</time>
      </trkpt>
      <trkpt lat="46.52486" lon="5.23806">
        <ele>210.39999389648</ele>
        <time>2020-10-24T11:06:54.000Z</time>
      </trkpt>
      <trkpt lat="46.52481" lon="5.23785">
        <ele>210.19999694824</ele>
        <time>2020-10-24T11:06:56.000Z</time>
      </trkpt>
      <trkpt lat="46.52479" lon="5.23775">
        <ele>210</ele>
        <time>2020-10-24T11:06:57.000Z</time>
      </trkpt>
      <trkpt lat="46.52476" lon="5.23764">
        <ele>210</ele>
        <time>2020-10-24T11:06:58.000Z</time>
      </trkpt>
      <trkpt lat="46.52471" lon="5.23743">
        <ele>209.39999389648</ele>
        <time>2020-10-24T11:07:00.000Z</time>
      </trkpt>
      <trkpt lat="46.52468" lon="5.23733">
        <ele>209.39999389648</ele>
        <time>2020-10-24T11:07:01.000Z</time>
      </trkpt>
      <trkpt lat="46.52466" lon="5.23723">
        <ele>209.19999694824</ele>
        <time>2020-10-24T11:07:02.000Z</time>
      </trkpt>
      <trkpt lat="46.5246" lon="5.23702">
        <ele>209</ele>
        <time>2020-10-24T11:07:04.000Z</time>
      </trkpt>
      <trkpt lat="46.52455" lon="5.23681">
        <ele>209</ele>
        <time>2020-10-24T11:07:06.000Z</time>
      </trkpt>
      <trkpt lat="46.5245" lon="5.2366">
        <ele>208.80000305176</ele>
        <time>2020-10-24T11:07:08.000Z</time>
      </trkpt>
      <trkpt lat="46.52445" lon="5.23639">
        <ele>208.80000305176</ele>
        <time>2020-10-24T11:07:10.000Z</time>
      </trkpt>
      <trkpt lat="46.52439" lon="5.23619">
        <ele>208.80000305176</ele>
        <time>2020-10-24T11:07:12.000Z</time>
      </trkpt>
      <trkpt lat="46.52434" lon="5.23599">
        <ele>208.80000305176</ele>
        <time>2020-10-24T11:07:14.000Z</time>
      </trkpt>
      <trkpt lat="46.52429" lon="5.23579">
        <ele>208.80000305176</ele>
        <time>2020-10-24T11:07:16.000Z</time>
      </trkpt>
      <trkpt lat="46.52426" lon="5.23569">
        <ele>208.80000305176</ele>
        <time>2020-10-24T11:07:17.000Z</time>
      </trkpt>
      <trkpt lat="46.52424" lon="5.2356">
        <ele>208.80000305176</ele>
        <time>2020-10-24T11:07:18.000Z</time>
      </trkpt>
      <trkpt lat="46.5242" lon="5.2354">
        <ele>208.80000305176</ele>
        <time>2020-10-24T11:07:20.000Z</time>
      </trkpt>
      <trkpt lat="46.52419" lon="5.2353">
        <ele>208.80000305176</ele>
        <time>2020-10-24T11:07:21.000Z</time>
      </trkpt>
      <trkpt lat="46.52419" lon="5.2352">
        <ele>208.80000305176</ele>
        <time>2020-10-24T11:07:22.000Z</time>
      </trkpt>
      <trkpt lat="46.52421" lon="5.235">
        <ele>208.80000305176</ele>
        <time>2020-10-24T11:07:24.000Z</time>
      </trkpt>
      <trkpt lat="46.52426" lon="5.23481">
        <ele>208.80000305176</ele>
        <time>2020-10-24T11:07:26.000Z</time>
      </trkpt>
      <trkpt lat="46.52432" lon="5.23464">
        <ele>209</ele>
        <time>2020-10-24T11:07:28.000Z</time>
      </trkpt>
      <trkpt lat="46.52439" lon="5.23447">
        <ele>209</ele>
        <time>2020-10-24T11:07:30.000Z</time>
      </trkpt>
      <trkpt lat="46.52447" lon="5.2343">
        <ele>209.19999694824</ele>
        <time>2020-10-24T11:07:32.000Z</time>
      </trkpt>
      <trkpt lat="46.52454" lon="5.23413">
        <ele>209.39999389648</ele>
        <time>2020-10-24T11:07:34.000Z</time>
      </trkpt>
      <trkpt lat="46.52462" lon="5.23397">
        <ele>209.60000610352</ele>
        <time>2020-10-24T11:07:36.000Z</time>
      </trkpt>
      <trkpt lat="46.52469" lon="5.23379">
        <ele>209.60000610352</ele>
        <time>2020-10-24T11:07:38.000Z</time>
      </trkpt>
      <trkpt lat="46.52477" lon="5.23362">
        <ele>209.80000305176</ele>
        <time>2020-10-24T11:07:40.000Z</time>
      </trkpt>
      <trkpt lat="46.52484" lon="5.23344">
        <ele>209.80000305176</ele>
        <time>2020-10-24T11:07:42.000Z</time>
      </trkpt>
      <trkpt lat="46.52492" lon="5.23325">
        <ele>209.80000305176</ele>
        <time>2020-10-24T11:07:44.000Z</time>
      </trkpt>
      <trkpt lat="46.52496" lon="5.23316">
        <ele>209.80000305176</ele>
        <time>2020-10-24T11:07:45.000Z</time>
      </trkpt>
      <trkpt lat="46.525" lon="5.23307">
        <ele>209.80000305176</ele>
        <time>2020-10-24T11:07:46.000Z</time>
      </trkpt>
      <trkpt lat="46.52507" lon="5.23288">
        <ele>209.80000305176</ele>
        <time>2020-10-24T11:07:48.000Z</time>
      </trkpt>
      <trkpt lat="46.52516" lon="5.2327">
        <ele>209.80000305176</ele>
        <time>2020-10-24T11:07:50.000Z</time>
      </trkpt>
      <trkpt lat="46.52523" lon="5.23251">
        <ele>209.80000305176</ele>
        <time>2020-10-24T11:07:52.000Z</time>
      </trkpt>
      <trkpt lat="46.52532" lon="5.23232">
        <ele>209.80000305176</ele>
        <time>2020-10-24T11:07:54.000Z</time>
      </trkpt>
      <trkpt lat="46.5254" lon="5.23212">
        <ele>209.60000610352</ele>
        <time>2020-10-24T11:07:56.000Z</time>
      </trkpt>
      <trkpt lat="46.52548" lon="5.23191">
        <ele>209.39999389648</ele>
        <time>2020-10-24T11:07:58.000Z</time>
      </trkpt>
      <trkpt lat="46.52557" lon="5.23169">
        <ele>209.39999389648</ele>
        <time>2020-10-24T11:08:00.000Z</time>
      </trkpt>
      <trkpt lat="46.52566" lon="5.23147">
        <ele>209</ele>
        <time>2020-10-24T11:08:02.000Z</time>
      </trkpt>
      <trkpt lat="46.52576" lon="5.23125">
        <ele>208.39999389648</ele>
        <time>2020-10-24T11:08:04.000Z</time>
      </trkpt>
      <trkpt lat="46.52581" lon="5.23114">
        <ele>208</ele>
        <time>2020-10-24T11:08:05.000Z</time>
      </trkpt>
      <trkpt lat="46.52586" lon="5.23103">
        <ele>207.39999389648</ele>
        <time>2020-10-24T11:08:06.000Z</time>
      </trkpt>
      <trkpt lat="46.52591" lon="5.23091">
        <ele>207</ele>
        <time>2020-10-24T11:08:07.000Z</time>
      </trkpt>
      <trkpt lat="46.52596" lon="5.23079">
        <ele>206.60000610352</ele>
        <time>2020-10-24T11:08:08.000Z</time>
      </trkpt>
      <trkpt lat="46.52603" lon="5.23054">
        <ele>206.19999694824</ele>
        <time>2020-10-24T11:08:10.000Z</time>
      </trkpt>
      <trkpt lat="46.52606" lon="5.23041">
        <ele>205.60000610352</ele>
        <time>2020-10-24T11:08:11.000Z</time>
      </trkpt>
      <trkpt lat="46.52609" lon="5.23028">
        <ele>205.39999389648</ele>
        <time>2020-10-24T11:08:12.000Z</time>
      </trkpt>
      <trkpt lat="46.52611" lon="5.23">
        <ele>204.60000610352</ele>
        <time>2020-10-24T11:08:14.000Z</time>
      </trkpt>
      <trkpt lat="46.52612" lon="5.22986">
        <ele>204.19999694824</ele>
        <time>2020-10-24T11:08:15.000Z</time>
      </trkpt>
      <trkpt lat="46.52612" lon="5.22971">
        <ele>203.80000305176</ele>
        <time>2020-10-24T11:08:16.000Z</time>
      </trkpt>
      <trkpt lat="46.52612" lon="5.22957">
        <ele>203.39999389648</ele>
        <time>2020-10-24T11:08:17.000Z</time>
      </trkpt>
      <trkpt lat="46.52613" lon="5.22942">
        <ele>203</ele>
        <time>2020-10-24T11:08:18.000Z</time>
      </trkpt>
      <trkpt lat="46.52613" lon="5.22912">
        <ele>202</ele>
        <time>2020-10-24T11:08:20.000Z</time>
      </trkpt>
      <trkpt lat="46.52614" lon="5.22881">
        <ele>200.80000305176</ele>
        <time>2020-10-24T11:08:22.000Z</time>
      </trkpt>
      <trkpt lat="46.52615" lon="5.22851">
        <ele>200</ele>
        <time>2020-10-24T11:08:24.000Z</time>
      </trkpt>
      <trkpt lat="46.52615" lon="5.22837">
        <ele>199.60000610352</ele>
        <time>2020-10-24T11:08:25.000Z</time>
      </trkpt>
      <trkpt lat="46.52616" lon="5.22822">
        <ele>199.19999694824</ele>
        <time>2020-10-24T11:08:26.000Z</time>
      </trkpt>
      <trkpt lat="46.52616" lon="5.22794">
        <ele>197.80000305176</ele>
        <time>2020-10-24T11:08:28.000Z</time>
      </trkpt>
      <trkpt lat="46.52617" lon="5.22767">
        <ele>197</ele>
        <time>2020-10-24T11:08:30.000Z</time>
      </trkpt>
      <trkpt lat="46.52617" lon="5.22753">
        <ele>196.80000305176</ele>
        <time>2020-10-24T11:08:31.000Z</time>
      </trkpt>
      <trkpt lat="46.52617" lon="5.2274">
        <ele>196.80000305176</ele>
        <time>2020-10-24T11:08:32.000Z</time>
      </trkpt>
      <trkpt lat="46.52617" lon="5.22727">
        <ele>196.60000610352</ele>
        <time>2020-10-24T11:08:33.000Z</time>
      </trkpt>
      <trkpt lat="46.52618" lon="5.22713">
        <ele>196.60000610352</ele>
        <time>2020-10-24T11:08:34.000Z</time>
      </trkpt>
      <trkpt lat="46.52619" lon="5.22687">
        <ele>196.39999389648</ele>
        <time>2020-10-24T11:08:36.000Z</time>
      </trkpt>
      <trkpt lat="46.52619" lon="5.22662">
        <ele>196.39999389648</ele>
        <time>2020-10-24T11:08:38.000Z</time>
      </trkpt>
      <trkpt lat="46.5262" lon="5.22638">
        <ele>196.39999389648</ele>
        <time>2020-10-24T11:08:40.000Z</time>
      </trkpt>
      <trkpt lat="46.52621" lon="5.22626">
        <ele>196.39999389648</ele>
        <time>2020-10-24T11:08:41.000Z</time>
      </trkpt>
      <trkpt lat="46.52621" lon="5.22614">
        <ele>196.39999389648</ele>
        <time>2020-10-24T11:08:42.000Z</time>
      </trkpt>
      <trkpt lat="46.52621" lon="5.2259">
        <ele>196.60000610352</ele>
        <time>2020-10-24T11:08:44.000Z</time>
      </trkpt>
      <trkpt lat="46.52621" lon="5.22567">
        <ele>196.60000610352</ele>
        <time>2020-10-24T11:08:46.000Z</time>
      </trkpt>
      <trkpt lat="46.52622" lon="5.22544">
        <ele>196.60000610352</ele>
        <time>2020-10-24T11:08:48.000Z</time>
      </trkpt>
      <trkpt lat="46.52623" lon="5.2252">
        <ele>196.39999389648</ele>
        <time>2020-10-24T11:08:50.000Z</time>
      </trkpt>
      <trkpt lat="46.52626" lon="5.22496">
        <ele>196.39999389648</ele>
        <time>2020-10-24T11:08:52.000Z</time>
      </trkpt>
      <trkpt lat="46.5263" lon="5.22473">
        <ele>196.39999389648</ele>
        <time>2020-10-24T11:08:54.000Z</time>
      </trkpt>
      <trkpt lat="46.52635" lon="5.22451">
        <ele>196.19999694824</ele>
        <time>2020-10-24T11:08:56.000Z</time>
      </trkpt>
      <trkpt lat="46.5264" lon="5.22429">
        <ele>196</ele>
        <time>2020-10-24T11:08:58.000Z</time>
      </trkpt>
      <trkpt lat="46.52646" lon="5.22408">
        <ele>196</ele>
        <time>2020-10-24T11:09:00.000Z</time>
      </trkpt>
      <trkpt lat="46.5265" lon="5.22387">
        <ele>196</ele>
        <time>2020-10-24T11:09:02.000Z</time>
      </trkpt>
      <trkpt lat="46.52655" lon="5.22367">
        <ele>196</ele>
        <time>2020-10-24T11:09:04.000Z</time>
      </trkpt>
      <trkpt lat="46.5266" lon="5.22347">
        <ele>196</ele>
        <time>2020-10-24T11:09:06.000Z</time>
      </trkpt>
      <trkpt lat="46.52665" lon="5.22329">
        <ele>196</ele>
        <time>2020-10-24T11:09:08.000Z</time>
      </trkpt>
      <trkpt lat="46.5267" lon="5.2231">
        <ele>196</ele>
        <time>2020-10-24T11:09:10.000Z</time>
      </trkpt>
      <trkpt lat="46.52674" lon="5.22293">
        <ele>196</ele>
        <time>2020-10-24T11:09:12.000Z</time>
      </trkpt>
      <trkpt lat="46.52676" lon="5.22284">
        <ele>196.19999694824</ele>
        <time>2020-10-24T11:09:13.000Z</time>
      </trkpt>
      <trkpt lat="46.52678" lon="5.22276">
        <ele>196.19999694824</ele>
        <time>2020-10-24T11:09:14.000Z</time>
      </trkpt>
      <trkpt lat="46.52681" lon="5.2226">
        <ele>196.39999389648</ele>
        <time>2020-10-24T11:09:16.000Z</time>
      </trkpt>
      <trkpt lat="46.52686" lon="5.22244">
        <ele>197.19999694824</ele>
        <time>2020-10-24T11:09:18.000Z</time>
      </trkpt>
      <trkpt lat="46.5269" lon="5.22229">
        <ele>197.80000305176</ele>
        <time>2020-10-24T11:09:20.000Z</time>
      </trkpt>
      <trkpt lat="46.52693" lon="5.22213">
        <ele>198.60000610352</ele>
        <time>2020-10-24T11:09:22.000Z</time>
      </trkpt>
      <trkpt lat="46.52695" lon="5.22205">
        <ele>199</ele>
        <time>2020-10-24T11:09:23.000Z</time>
      </trkpt>
      <trkpt lat="46.52697" lon="5.22198">
        <ele>199.39999389648</ele>
        <time>2020-10-24T11:09:24.000Z</time>
      </trkpt>
      <trkpt lat="46.52701" lon="5.22183">
        <ele>199.60000610352</ele>
        <time>2020-10-24T11:09:26.000Z</time>
      </trkpt>
      <trkpt lat="46.52705" lon="5.22169">
        <ele>200.19999694824</ele>
        <time>2020-10-24T11:09:28.000Z</time>
      </trkpt>
      <trkpt lat="46.52708" lon="5.22155">
        <ele>200.60000610352</ele>
        <time>2020-10-24T11:09:30.000Z</time>
      </trkpt>
      <trkpt lat="46.52711" lon="5.22142">
        <ele>200.80000305176</ele>
        <time>2020-10-24T11:09:32.000Z</time>
      </trkpt>
      <trkpt lat="46.52714" lon="5.2213">
        <ele>201.19999694824</ele>
        <time>2020-10-24T11:09:34.000Z</time>
      </trkpt>
      <trkpt lat="46.52717" lon="5.22118">
        <ele>202.19999694824</ele>
        <time>2020-10-24T11:09:36.000Z</time>
      </trkpt>
      <trkpt lat="46.52718" lon="5.22111">
        <ele>202.60000610352</ele>
        <time>2020-10-24T11:09:37.000Z</time>
      </trkpt>
      <trkpt lat="46.5272" lon="5.22105">
        <ele>203</ele>
        <time>2020-10-24T11:09:38.000Z</time>
      </trkpt>
      <trkpt lat="46.52723" lon="5.22094">
        <ele>203.80000305176</ele>
        <time>2020-10-24T11:09:40.000Z</time>
      </trkpt>
      <trkpt lat="46.52725" lon="5.22082">
        <ele>204.19999694824</ele>
        <time>2020-10-24T11:09:42.000Z</time>
      </trkpt>
      <trkpt lat="46.52727" lon="5.2207">
        <ele>204.80000305176</ele>
        <time>2020-10-24T11:09:44.000Z</time>
      </trkpt>
      <trkpt lat="46.52728" lon="5.22064">
        <ele>205.19999694824</ele>
        <time>2020-10-24T11:09:45.000Z</time>
      </trkpt>
      <trkpt lat="46.52729" lon="5.22058">
        <ele>205.60000610352</ele>
        <time>2020-10-24T11:09:46.000Z</time>
      </trkpt>
      <trkpt lat="46.5273" lon="5.22045">
        <ele>206.19999694824</ele>
        <time>2020-10-24T11:09:48.000Z</time>
      </trkpt>
      <trkpt lat="46.5273" lon="5.22038">
        <ele>206.60000610352</ele>
        <time>2020-10-24T11:09:49.000Z</time>
      </trkpt>
      <trkpt lat="46.52731" lon="5.22031">
        <ele>207</ele>
        <time>2020-10-24T11:09:50.000Z</time>
      </trkpt>
      <trkpt lat="46.52731" lon="5.22018">
        <ele>207.60000610352</ele>
        <time>2020-10-24T11:09:52.000Z</time>
      </trkpt>
      <trkpt lat="46.52731" lon="5.22011">
        <ele>207.80000305176</ele>
        <time>2020-10-24T11:09:53.000Z</time>
      </trkpt>
      <trkpt lat="46.5273" lon="5.22004">
        <ele>208</ele>
        <time>2020-10-24T11:09:54.000Z</time>
      </trkpt>
      <trkpt lat="46.52728" lon="5.2199">
        <ele>208.19999694824</ele>
        <time>2020-10-24T11:09:56.000Z</time>
      </trkpt>
      <trkpt lat="46.52725" lon="5.21975">
        <ele>208.60000610352</ele>
        <time>2020-10-24T11:09:58.000Z</time>
      </trkpt>
      <trkpt lat="46.52723" lon="5.21959">
        <ele>208.60000610352</ele>
        <time>2020-10-24T11:10:00.000Z</time>
      </trkpt>
      <trkpt lat="46.52721" lon="5.21943">
        <ele>208.80000305176</ele>
        <time>2020-10-24T11:10:02.000Z</time>
      </trkpt>
      <trkpt lat="46.52718" lon="5.21928">
        <ele>208.80000305176</ele>
        <time>2020-10-24T11:10:04.000Z</time>
      </trkpt>
      <trkpt lat="46.52716" lon="5.21912">
        <ele>209</ele>
        <time>2020-10-24T11:10:06.000Z</time>
      </trkpt>
      <trkpt lat="46.52713" lon="5.21896">
        <ele>209.19999694824</ele>
        <time>2020-10-24T11:10:08.000Z</time>
      </trkpt>
      <trkpt lat="46.52711" lon="5.2188">
        <ele>209.19999694824</ele>
        <time>2020-10-24T11:10:10.000Z</time>
      </trkpt>
      <trkpt lat="46.52708" lon="5.21864">
        <ele>209.39999389648</ele>
        <time>2020-10-24T11:10:12.000Z</time>
      </trkpt>
      <trkpt lat="46.52705" lon="5.21846">
        <ele>209.39999389648</ele>
        <time>2020-10-24T11:10:14.000Z</time>
      </trkpt>
      <trkpt lat="46.52703" lon="5.21829">
        <ele>209.39999389648</ele>
        <time>2020-10-24T11:10:16.000Z</time>
      </trkpt>
      <trkpt lat="46.527" lon="5.21812">
        <ele>209.39999389648</ele>
        <time>2020-10-24T11:10:18.000Z</time>
      </trkpt>
      <trkpt lat="46.52697" lon="5.21795">
        <ele>209.39999389648</ele>
        <time>2020-10-24T11:10:20.000Z</time>
      </trkpt>
      <trkpt lat="46.52694" lon="5.21777">
        <ele>209.60000610352</ele>
        <time>2020-10-24T11:10:22.000Z</time>
      </trkpt>
      <trkpt lat="46.52692" lon="5.2176">
        <ele>209.60000610352</ele>
        <time>2020-10-24T11:10:24.000Z</time>
      </trkpt>
      <trkpt lat="46.52689" lon="5.21742">
        <ele>209.60000610352</ele>
        <time>2020-10-24T11:10:26.000Z</time>
      </trkpt>
      <trkpt lat="46.52686" lon="5.21725">
        <ele>209.60000610352</ele>
        <time>2020-10-24T11:10:28.000Z</time>
      </trkpt>
      <trkpt lat="46.52685" lon="5.21716">
        <ele>209.60000610352</ele>
        <time>2020-10-24T11:10:29.000Z</time>
      </trkpt>
      <trkpt lat="46.52683" lon="5.21707">
        <ele>209.60000610352</ele>
        <time>2020-10-24T11:10:30.000Z</time>
      </trkpt>
      <trkpt lat="46.5268" lon="5.21689">
        <ele>209.39999389648</ele>
        <time>2020-10-24T11:10:32.000Z</time>
      </trkpt>
      <trkpt lat="46.52677" lon="5.21671">
        <ele>209.19999694824</ele>
        <time>2020-10-24T11:10:34.000Z</time>
      </trkpt>
      <trkpt lat="46.52674" lon="5.21653">
        <ele>209.39999389648</ele>
        <time>2020-10-24T11:10:36.000Z</time>
      </trkpt>
      <trkpt lat="46.52673" lon="5.21644">
        <ele>209.39999389648</ele>
        <time>2020-10-24T11:10:37.000Z</time>
      </trkpt>
      <trkpt lat="46.52672" lon="5.21635">
        <ele>209.39999389648</ele>
        <time>2020-10-24T11:10:38.000Z</time>
      </trkpt>
      <trkpt lat="46.52669" lon="5.21617">
        <ele>209.19999694824</ele>
        <time>2020-10-24T11:10:40.000Z</time>
      </trkpt>
      <trkpt lat="46.52666" lon="5.21598">
        <ele>209.19999694824</ele>
        <time>2020-10-24T11:10:42.000Z</time>
      </trkpt>
      <trkpt lat="46.52663" lon="5.2158">
        <ele>209</ele>
        <time>2020-10-24T11:10:44.000Z</time>
      </trkpt>
      <trkpt lat="46.52661" lon="5.21571">
        <ele>209</ele>
        <time>2020-10-24T11:10:45.000Z</time>
      </trkpt>
      <trkpt lat="46.5266" lon="5.21562">
        <ele>209</ele>
        <time>2020-10-24T11:10:46.000Z</time>
      </trkpt>
      <trkpt lat="46.52657" lon="5.21543">
        <ele>209</ele>
        <time>2020-10-24T11:10:48.000Z</time>
      </trkpt>
      <trkpt lat="46.52654" lon="5.21525">
        <ele>208.80000305176</ele>
        <time>2020-10-24T11:10:50.000Z</time>
      </trkpt>
      <trkpt lat="46.52651" lon="5.21506">
        <ele>208.80000305176</ele>
        <time>2020-10-24T11:10:52.000Z</time>
      </trkpt>
      <trkpt lat="46.52648" lon="5.21487">
        <ele>208.60000610352</ele>
        <time>2020-10-24T11:10:54.000Z</time>
      </trkpt>
      <trkpt lat="46.52645" lon="5.21468">
        <ele>208.60000610352</ele>
        <time>2020-10-24T11:10:56.000Z</time>
      </trkpt>
      <trkpt lat="46.52642" lon="5.21449">
        <ele>208.60000610352</ele>
        <time>2020-10-24T11:10:58.000Z</time>
      </trkpt>
      <trkpt lat="46.52639" lon="5.2143">
        <ele>208.60000610352</ele>
        <time>2020-10-24T11:11:00.000Z</time>
      </trkpt>
      <trkpt lat="46.52636" lon="5.2141">
        <ele>208.39999389648</ele>
        <time>2020-10-24T11:11:02.000Z</time>
      </trkpt>
      <trkpt lat="46.52633" lon="5.21391">
        <ele>208.39999389648</ele>
        <time>2020-10-24T11:11:04.000Z</time>
      </trkpt>
      <trkpt lat="46.5263" lon="5.21371">
        <ele>208</ele>
        <time>2020-10-24T11:11:06.000Z</time>
      </trkpt>
      <trkpt lat="46.52628" lon="5.21361">
        <ele>208</ele>
        <time>2020-10-24T11:11:07.000Z</time>
      </trkpt>
      <trkpt lat="46.52627" lon="5.21351">
        <ele>207.80000305176</ele>
        <time>2020-10-24T11:11:08.000Z</time>
      </trkpt>
      <trkpt lat="46.52623" lon="5.21331">
        <ele>207.60000610352</ele>
        <time>2020-10-24T11:11:10.000Z</time>
      </trkpt>
      <trkpt lat="46.5262" lon="5.21309">
        <ele>207.60000610352</ele>
        <time>2020-10-24T11:11:12.000Z</time>
      </trkpt>
      <trkpt lat="46.52616" lon="5.21288">
        <ele>207.39999389648</ele>
        <time>2020-10-24T11:11:14.000Z</time>
      </trkpt>
      <trkpt lat="46.52613" lon="5.21265">
        <ele>207.39999389648</ele>
        <time>2020-10-24T11:11:16.000Z</time>
      </trkpt>
      <trkpt lat="46.52609" lon="5.21242">
        <ele>207.19999694824</ele>
        <time>2020-10-24T11:11:18.000Z</time>
      </trkpt>
      <trkpt lat="46.52605" lon="5.21218">
        <ele>207</ele>
        <time>2020-10-24T11:11:20.000Z</time>
      </trkpt>
      <trkpt lat="46.52602" lon="5.21193">
        <ele>206.39999389648</ele>
        <time>2020-10-24T11:11:22.000Z</time>
      </trkpt>
      <trkpt lat="46.526" lon="5.21181">
        <ele>206.19999694824</ele>
        <time>2020-10-24T11:11:23.000Z</time>
      </trkpt>
      <trkpt lat="46.52598" lon="5.21169">
        <ele>205.80000305176</ele>
        <time>2020-10-24T11:11:24.000Z</time>
      </trkpt>
      <trkpt lat="46.52594" lon="5.21144">
        <ele>205.19999694824</ele>
        <time>2020-10-24T11:11:26.000Z</time>
      </trkpt>
      <trkpt lat="46.5259" lon="5.2112">
        <ele>204.60000610352</ele>
        <time>2020-10-24T11:11:28.000Z</time>
      </trkpt>
      <trkpt lat="46.52587" lon="5.21097">
        <ele>204</ele>
        <time>2020-10-24T11:11:30.000Z</time>
      </trkpt>
      <trkpt lat="46.52585" lon="5.21085">
        <ele>204</ele>
        <time>2020-10-24T11:11:31.000Z</time>
      </trkpt>
      <trkpt lat="46.52583" lon="5.21074">
        <ele>204</ele>
        <time>2020-10-24T11:11:32.000Z</time>
      </trkpt>
      <trkpt lat="46.52579" lon="5.21052">
        <ele>203.80000305176</ele>
        <time>2020-10-24T11:11:34.000Z</time>
      </trkpt>
      <trkpt lat="46.52576" lon="5.21031">
        <ele>203.80000305176</ele>
        <time>2020-10-24T11:11:36.000Z</time>
      </trkpt>
      <trkpt lat="46.52573" lon="5.2101">
        <ele>203.80000305176</ele>
        <time>2020-10-24T11:11:38.000Z</time>
      </trkpt>
      <trkpt lat="46.52572" lon="5.21">
        <ele>204</ele>
        <time>2020-10-24T11:11:39.000Z</time>
      </trkpt>
      <trkpt lat="46.52571" lon="5.2099">
        <ele>204</ele>
        <time>2020-10-24T11:11:40.000Z</time>
      </trkpt>
      <trkpt lat="46.52568" lon="5.2097">
        <ele>204.60000610352</ele>
        <time>2020-10-24T11:11:42.000Z</time>
      </trkpt>
      <trkpt lat="46.52567" lon="5.20951">
        <ele>205.19999694824</ele>
        <time>2020-10-24T11:11:44.000Z</time>
      </trkpt>
      <trkpt lat="46.52565" lon="5.20932">
        <ele>205.80000305176</ele>
        <time>2020-10-24T11:11:46.000Z</time>
      </trkpt>
      <trkpt lat="46.52564" lon="5.20923">
        <ele>206</ele>
        <time>2020-10-24T11:11:47.000Z</time>
      </trkpt>
      <trkpt lat="46.52564" lon="5.20914">
        <ele>206</ele>
        <time>2020-10-24T11:11:48.000Z</time>
      </trkpt>
      <trkpt lat="46.52562" lon="5.20895">
        <ele>206.39999389648</ele>
        <time>2020-10-24T11:11:50.000Z</time>
      </trkpt>
      <trkpt lat="46.52561" lon="5.20875">
        <ele>207</ele>
        <time>2020-10-24T11:11:52.000Z</time>
      </trkpt>
      <trkpt lat="46.5256" lon="5.20865">
        <ele>207.19999694824</ele>
        <time>2020-10-24T11:11:53.000Z</time>
      </trkpt>
      <trkpt lat="46.5256" lon="5.20855">
        <ele>207.60000610352</ele>
        <time>2020-10-24T11:11:54.000Z</time>
      </trkpt>
      <trkpt lat="46.52558" lon="5.20834">
        <ele>207.80000305176</ele>
        <time>2020-10-24T11:11:56.000Z</time>
      </trkpt>
      <trkpt lat="46.52557" lon="5.20814">
        <ele>208</ele>
        <time>2020-10-24T11:11:58.000Z</time>
      </trkpt>
      <trkpt lat="46.52556" lon="5.20794">
        <ele>208</ele>
        <time>2020-10-24T11:12:00.000Z</time>
      </trkpt>
      <trkpt lat="46.52554" lon="5.20774">
        <ele>208</ele>
        <time>2020-10-24T11:12:02.000Z</time>
      </trkpt>
      <trkpt lat="46.52553" lon="5.20754">
        <ele>208</ele>
        <time>2020-10-24T11:12:04.000Z</time>
      </trkpt>
      <trkpt lat="46.52552" lon="5.20744">
        <ele>208</ele>
        <time>2020-10-24T11:12:05.000Z</time>
      </trkpt>
      <trkpt lat="46.52552" lon="5.20734">
        <ele>208</ele>
        <time>2020-10-24T11:12:06.000Z</time>
      </trkpt>
      <trkpt lat="46.5255" lon="5.20714">
        <ele>208</ele>
        <time>2020-10-24T11:12:08.000Z</time>
      </trkpt>
      <trkpt lat="46.52549" lon="5.20694">
        <ele>208</ele>
        <time>2020-10-24T11:12:10.000Z</time>
      </trkpt>
      <trkpt lat="46.52547" lon="5.20674">
        <ele>208</ele>
        <time>2020-10-24T11:12:12.000Z</time>
      </trkpt>
      <trkpt lat="46.52546" lon="5.20654">
        <ele>208.19999694824</ele>
        <time>2020-10-24T11:12:14.000Z</time>
      </trkpt>
      <trkpt lat="46.52545" lon="5.20634">
        <ele>208.19999694824</ele>
        <time>2020-10-24T11:12:16.000Z</time>
      </trkpt>
      <trkpt lat="46.52544" lon="5.20624">
        <ele>208.19999694824</ele>
        <time>2020-10-24T11:12:17.000Z</time>
      </trkpt>
      <trkpt lat="46.52544" lon="5.20615">
        <ele>208.39999389648</ele>
        <time>2020-10-24T11:12:18.000Z</time>
      </trkpt>
      <trkpt lat="46.52542" lon="5.20595">
        <ele>208.39999389648</ele>
        <time>2020-10-24T11:12:20.000Z</time>
      </trkpt>
      <trkpt lat="46.52541" lon="5.20575">
        <ele>208.39999389648</ele>
        <time>2020-10-24T11:12:22.000Z</time>
      </trkpt>
      <trkpt lat="46.5254" lon="5.20556">
        <ele>208.60000610352</ele>
        <time>2020-10-24T11:12:24.000Z</time>
      </trkpt>
      <trkpt lat="46.52538" lon="5.20536">
        <ele>208.60000610352</ele>
        <time>2020-10-24T11:12:26.000Z</time>
      </trkpt>
      <trkpt lat="46.52537" lon="5.20516">
        <ele>208.60000610352</ele>
        <time>2020-10-24T11:12:28.000Z</time>
      </trkpt>
      <trkpt lat="46.52536" lon="5.20497">
        <ele>208.60000610352</ele>
        <time>2020-10-24T11:12:30.000Z</time>
      </trkpt>
      <trkpt lat="46.52535" lon="5.20486">
        <ele>208.60000610352</ele>
        <time>2020-10-24T11:12:31.000Z</time>
      </trkpt>
      <trkpt lat="46.52534" lon="5.20476">
        <ele>208.60000610352</ele>
        <time>2020-10-24T11:12:32.000Z</time>
      </trkpt>
      <trkpt lat="46.52533" lon="5.20455">
        <ele>208.60000610352</ele>
        <time>2020-10-24T11:12:34.000Z</time>
      </trkpt>
      <trkpt lat="46.52531" lon="5.20433">
        <ele>208.60000610352</ele>
        <time>2020-10-24T11:12:36.000Z</time>
      </trkpt>
      <trkpt lat="46.5253" lon="5.2041">
        <ele>208.19999694824</ele>
        <time>2020-10-24T11:12:38.000Z</time>
      </trkpt>
      <trkpt lat="46.52529" lon="5.20399">
        <ele>208</ele>
        <time>2020-10-24T11:12:39.000Z</time>
      </trkpt>
      <trkpt lat="46.52528" lon="5.20387">
        <ele>207.80000305176</ele>
        <time>2020-10-24T11:12:40.000Z</time>
      </trkpt>
      <trkpt lat="46.52526" lon="5.20362">
        <ele>207.39999389648</ele>
        <time>2020-10-24T11:12:42.000Z</time>
      </trkpt>
      <trkpt lat="46.52526" lon="5.2035">
        <ele>207.19999694824</ele>
        <time>2020-10-24T11:12:43.000Z</time>
      </trkpt>
      <trkpt lat="46.52525" lon="5.20338">
        <ele>206.80000305176</ele>
        <time>2020-10-24T11:12:44.000Z</time>
      </trkpt>
      <trkpt lat="46.52523" lon="5.20312">
        <ele>206.19999694824</ele>
        <time>2020-10-24T11:12:46.000Z</time>
      </trkpt>
      <trkpt lat="46.52521" lon="5.20285">
        <ele>205.39999389648</ele>
        <time>2020-10-24T11:12:48.000Z</time>
      </trkpt>
      <trkpt lat="46.5252" lon="5.20258">
        <ele>204.80000305176</ele>
        <time>2020-10-24T11:12:50.000Z</time>
      </trkpt>
      <trkpt lat="46.52517" lon="5.20231">
        <ele>204</ele>
        <time>2020-10-24T11:12:52.000Z</time>
      </trkpt>
      <trkpt lat="46.52516" lon="5.20218">
        <ele>203.60000610352</ele>
        <time>2020-10-24T11:12:53.000Z</time>
      </trkpt>
      <trkpt lat="46.52515" lon="5.20204">
        <ele>203</ele>
        <time>2020-10-24T11:12:54.000Z</time>
      </trkpt>
      <trkpt lat="46.52515" lon="5.2019">
        <ele>202.60000610352</ele>
        <time>2020-10-24T11:12:55.000Z</time>
      </trkpt>
      <trkpt lat="46.52514" lon="5.20177">
        <ele>202</ele>
        <time>2020-10-24T11:12:56.000Z</time>
      </trkpt>
      <trkpt lat="46.52513" lon="5.20163">
        <ele>201.60000610352</ele>
        <time>2020-10-24T11:12:57.000Z</time>
      </trkpt>
      <trkpt lat="46.52512" lon="5.2015">
        <ele>201.19999694824</ele>
        <time>2020-10-24T11:12:58.000Z</time>
      </trkpt>
      <trkpt lat="46.52511" lon="5.20122">
        <ele>200.80000305176</ele>
        <time>2020-10-24T11:13:00.000Z</time>
      </trkpt>
      <trkpt lat="46.52512" lon="5.20095">
        <ele>200</ele>
        <time>2020-10-24T11:13:02.000Z</time>
      </trkpt>
      <trkpt lat="46.52512" lon="5.20069">
        <ele>199.60000610352</ele>
        <time>2020-10-24T11:13:04.000Z</time>
      </trkpt>
      <trkpt lat="46.52513" lon="5.20043">
        <ele>199.39999389648</ele>
        <time>2020-10-24T11:13:06.000Z</time>
      </trkpt>
      <trkpt lat="46.52514" lon="5.20018">
        <ele>199.39999389648</ele>
        <time>2020-10-24T11:13:08.000Z</time>
      </trkpt>
      <trkpt lat="46.52515" lon="5.19994">
        <ele>199.39999389648</ele>
        <time>2020-10-24T11:13:10.000Z</time>
      </trkpt>
      <trkpt lat="46.52516" lon="5.1997">
        <ele>199.39999389648</ele>
        <time>2020-10-24T11:13:12.000Z</time>
      </trkpt>
      <trkpt lat="46.52517" lon="5.19947">
        <ele>199.39999389648</ele>
        <time>2020-10-24T11:13:14.000Z</time>
      </trkpt>
      <trkpt lat="46.52517" lon="5.19924">
        <ele>199.60000610352</ele>
        <time>2020-10-24T11:13:16.000Z</time>
      </trkpt>
      <trkpt lat="46.52517" lon="5.19902">
        <ele>199.60000610352</ele>
        <time>2020-10-24T11:13:18.000Z</time>
      </trkpt>
      <trkpt lat="46.52517" lon="5.1988">
        <ele>200</ele>
        <time>2020-10-24T11:13:20.000Z</time>
      </trkpt>
      <trkpt lat="46.52517" lon="5.19869">
        <ele>200.19999694824</ele>
        <time>2020-10-24T11:13:21.000Z</time>
      </trkpt>
      <trkpt lat="46.52517" lon="5.19858">
        <ele>200.19999694824</ele>
        <time>2020-10-24T11:13:22.000Z</time>
      </trkpt>
      <trkpt lat="46.52516" lon="5.19838">
        <ele>200.60000610352</ele>
        <time>2020-10-24T11:13:24.000Z</time>
      </trkpt>
      <trkpt lat="46.52516" lon="5.19818">
        <ele>200.39999389648</ele>
        <time>2020-10-24T11:13:26.000Z</time>
      </trkpt>
      <trkpt lat="46.52516" lon="5.19798">
        <ele>200.39999389648</ele>
        <time>2020-10-24T11:13:28.000Z</time>
      </trkpt>
      <trkpt lat="46.52516" lon="5.1978">
        <ele>201</ele>
        <time>2020-10-24T11:13:30.000Z</time>
      </trkpt>
      <trkpt lat="46.52515" lon="5.19763">
        <ele>201.39999389648</ele>
        <time>2020-10-24T11:13:32.000Z</time>
      </trkpt>
      <trkpt lat="46.52515" lon="5.19746">
        <ele>202</ele>
        <time>2020-10-24T11:13:34.000Z</time>
      </trkpt>
      <trkpt lat="46.52515" lon="5.19738">
        <ele>202.19999694824</ele>
        <time>2020-10-24T11:13:35.000Z</time>
      </trkpt>
      <trkpt lat="46.52515" lon="5.19729">
        <ele>202.39999389648</ele>
        <time>2020-10-24T11:13:36.000Z</time>
      </trkpt>
      <trkpt lat="46.52514" lon="5.19721">
        <ele>202.39999389648</ele>
        <time>2020-10-24T11:13:37.000Z</time>
      </trkpt>
      <trkpt lat="46.52514" lon="5.19713">
        <ele>202.60000610352</ele>
        <time>2020-10-24T11:13:38.000Z</time>
      </trkpt>
      <trkpt lat="46.52514" lon="5.19698">
        <ele>203</ele>
        <time>2020-10-24T11:13:40.000Z</time>
      </trkpt>
      <trkpt lat="46.52514" lon="5.19683">
        <ele>203.39999389648</ele>
        <time>2020-10-24T11:13:42.000Z</time>
      </trkpt>
      <trkpt lat="46.52514" lon="5.19675">
        <ele>203.60000610352</ele>
        <time>2020-10-24T11:13:43.000Z</time>
      </trkpt>
      <trkpt lat="46.52513" lon="5.19667">
        <ele>204.19999694824</ele>
        <time>2020-10-24T11:13:44.000Z</time>
      </trkpt>
      <trkpt lat="46.52513" lon="5.1966">
        <ele>204.39999389648</ele>
        <time>2020-10-24T11:13:45.000Z</time>
      </trkpt>
      <trkpt lat="46.52513" lon="5.19652">
        <ele>204.60000610352</ele>
        <time>2020-10-24T11:13:46.000Z</time>
      </trkpt>
      <trkpt lat="46.52513" lon="5.19637">
        <ele>204.80000305176</ele>
        <time>2020-10-24T11:13:48.000Z</time>
      </trkpt>
      <trkpt lat="46.52513" lon="5.19622">
        <ele>205.19999694824</ele>
        <time>2020-10-24T11:13:50.000Z</time>
      </trkpt>
      <trkpt lat="46.52512" lon="5.19606">
        <ele>205.60000610352</ele>
        <time>2020-10-24T11:13:52.000Z</time>
      </trkpt>
      <trkpt lat="46.52511" lon="5.19591">
        <ele>206</ele>
        <time>2020-10-24T11:13:54.000Z</time>
      </trkpt>
      <trkpt lat="46.52511" lon="5.19582">
        <ele>206.39999389648</ele>
        <time>2020-10-24T11:13:55.000Z</time>
      </trkpt>
      <trkpt lat="46.52511" lon="5.19574">
        <ele>206.60000610352</ele>
        <time>2020-10-24T11:13:56.000Z</time>
      </trkpt>
      <trkpt lat="46.52511" lon="5.19558">
        <ele>207</ele>
        <time>2020-10-24T11:13:58.000Z</time>
      </trkpt>
      <trkpt lat="46.52511" lon="5.19541">
        <ele>207.19999694824</ele>
        <time>2020-10-24T11:14:00.000Z</time>
      </trkpt>
      <trkpt lat="46.52511" lon="5.19524">
        <ele>207.39999389648</ele>
        <time>2020-10-24T11:14:02.000Z</time>
      </trkpt>
      <trkpt lat="46.5251" lon="5.19507">
        <ele>207.39999389648</ele>
        <time>2020-10-24T11:14:04.000Z</time>
      </trkpt>
      <trkpt lat="46.5251" lon="5.19489">
        <ele>207.39999389648</ele>
        <time>2020-10-24T11:14:06.000Z</time>
      </trkpt>
      <trkpt lat="46.5251" lon="5.19472">
        <ele>207.39999389648</ele>
        <time>2020-10-24T11:14:08.000Z</time>
      </trkpt>
      <trkpt lat="46.52509" lon="5.19454">
        <ele>207.39999389648</ele>
        <time>2020-10-24T11:14:10.000Z</time>
      </trkpt>
      <trkpt lat="46.52509" lon="5.19437">
        <ele>207.39999389648</ele>
        <time>2020-10-24T11:14:12.000Z</time>
      </trkpt>
      <trkpt lat="46.52508" lon="5.19419">
        <ele>207.60000610352</ele>
        <time>2020-10-24T11:14:14.000Z</time>
      </trkpt>
      <trkpt lat="46.52508" lon="5.19402">
        <ele>207.60000610352</ele>
        <time>2020-10-24T11:14:16.000Z</time>
      </trkpt>
      <trkpt lat="46.52508" lon="5.19384">
        <ele>207.60000610352</ele>
        <time>2020-10-24T11:14:18.000Z</time>
      </trkpt>
      <trkpt lat="46.52508" lon="5.19366">
        <ele>207.60000610352</ele>
        <time>2020-10-24T11:14:20.000Z</time>
      </trkpt>
      <trkpt lat="46.52507" lon="5.19348">
        <ele>207.60000610352</ele>
        <time>2020-10-24T11:14:22.000Z</time>
      </trkpt>
      <trkpt lat="46.52507" lon="5.19329">
        <ele>207.60000610352</ele>
        <time>2020-10-24T11:14:24.000Z</time>
      </trkpt>
      <trkpt lat="46.52507" lon="5.19311">
        <ele>207.60000610352</ele>
        <time>2020-10-24T11:14:26.000Z</time>
      </trkpt>
      <trkpt lat="46.52506" lon="5.19293">
        <ele>207.60000610352</ele>
        <time>2020-10-24T11:14:28.000Z</time>
      </trkpt>
      <trkpt lat="46.52506" lon="5.19275">
        <ele>207.60000610352</ele>
        <time>2020-10-24T11:14:30.000Z</time>
      </trkpt>
      <trkpt lat="46.52506" lon="5.19266">
        <ele>207.60000610352</ele>
        <time>2020-10-24T11:14:31.000Z</time>
      </trkpt>
      <trkpt lat="46.52506" lon="5.19257">
        <ele>207.60000610352</ele>
        <time>2020-10-24T11:14:32.000Z</time>
      </trkpt>
      <trkpt lat="46.52505" lon="5.19239">
        <ele>207.60000610352</ele>
        <time>2020-10-24T11:14:34.000Z</time>
      </trkpt>
      <trkpt lat="46.52505" lon="5.19221">
        <ele>207.60000610352</ele>
        <time>2020-10-24T11:14:36.000Z</time>
      </trkpt>
      <trkpt lat="46.52505" lon="5.19202">
        <ele>207.60000610352</ele>
        <time>2020-10-24T11:14:38.000Z</time>
      </trkpt>
      <trkpt lat="46.52504" lon="5.19184">
        <ele>207.80000305176</ele>
        <time>2020-10-24T11:14:40.000Z</time>
      </trkpt>
      <trkpt lat="46.52504" lon="5.19164">
        <ele>207.80000305176</ele>
        <time>2020-10-24T11:14:42.000Z</time>
      </trkpt>
      <trkpt lat="46.52505" lon="5.19145">
        <ele>207.80000305176</ele>
        <time>2020-10-24T11:14:44.000Z</time>
      </trkpt>
      <trkpt lat="46.52506" lon="5.19125">
        <ele>207.80000305176</ele>
        <time>2020-10-24T11:14:46.000Z</time>
      </trkpt>
      <trkpt lat="46.5251" lon="5.19106">
        <ele>207.80000305176</ele>
        <time>2020-10-24T11:14:48.000Z</time>
      </trkpt>
      <trkpt lat="46.52514" lon="5.19086">
        <ele>208</ele>
        <time>2020-10-24T11:14:50.000Z</time>
      </trkpt>
      <trkpt lat="46.5252" lon="5.19068">
        <ele>208</ele>
        <time>2020-10-24T11:14:52.000Z</time>
      </trkpt>
      <trkpt lat="46.52524" lon="5.19059">
        <ele>207.80000305176</ele>
        <time>2020-10-24T11:14:53.000Z</time>
      </trkpt>
      <trkpt lat="46.52528" lon="5.19051">
        <ele>207.80000305176</ele>
        <time>2020-10-24T11:14:54.000Z</time>
      </trkpt>
      <trkpt lat="46.52535" lon="5.19033">
        <ele>207.80000305176</ele>
        <time>2020-10-24T11:14:56.000Z</time>
      </trkpt>
      <trkpt lat="46.52543" lon="5.19014">
        <ele>207.80000305176</ele>
        <time>2020-10-24T11:14:58.000Z</time>
      </trkpt>
      <trkpt lat="46.52552" lon="5.18995">
        <ele>207.60000610352</ele>
        <time>2020-10-24T11:15:00.000Z</time>
      </trkpt>
      <trkpt lat="46.52556" lon="5.18986">
        <ele>207.60000610352</ele>
        <time>2020-10-24T11:15:01.000Z</time>
      </trkpt>
      <trkpt lat="46.52561" lon="5.18975">
        <ele>207.39999389648</ele>
        <time>2020-10-24T11:15:02.000Z</time>
      </trkpt>
      <trkpt lat="46.5257" lon="5.18954">
        <ele>207.19999694824</ele>
        <time>2020-10-24T11:15:04.000Z</time>
      </trkpt>
      <trkpt lat="46.5258" lon="5.18933">
        <ele>206.80000305176</ele>
        <time>2020-10-24T11:15:06.000Z</time>
      </trkpt>
      <trkpt lat="46.5259" lon="5.1891">
        <ele>206.39999389648</ele>
        <time>2020-10-24T11:15:08.000Z</time>
      </trkpt>
      <trkpt lat="46.52594" lon="5.18898">
        <ele>206</ele>
        <time>2020-10-24T11:15:09.000Z</time>
      </trkpt>
      <trkpt lat="46.52599" lon="5.18886">
        <ele>205.60000610352</ele>
        <time>2020-10-24T11:15:10.000Z</time>
      </trkpt>
      <trkpt lat="46.52604" lon="5.18873">
        <ele>205</ele>
        <time>2020-10-24T11:15:11.000Z</time>
      </trkpt>
      <trkpt lat="46.52608" lon="5.18861">
        <ele>204.39999389648</ele>
        <time>2020-10-24T11:15:12.000Z</time>
      </trkpt>
      <trkpt lat="46.52611" lon="5.18847">
        <ele>203.60000610352</ele>
        <time>2020-10-24T11:15:13.000Z</time>
      </trkpt>
      <trkpt lat="46.52614" lon="5.18834">
        <ele>202.80000305176</ele>
        <time>2020-10-24T11:15:14.000Z</time>
      </trkpt>
      <trkpt lat="46.52616" lon="5.18821">
        <ele>202.39999389648</ele>
        <time>2020-10-24T11:15:15.000Z</time>
      </trkpt>
      <trkpt lat="46.52617" lon="5.18808">
        <ele>201.80000305176</ele>
        <time>2020-10-24T11:15:16.000Z</time>
      </trkpt>
      <trkpt lat="46.52618" lon="5.18795">
        <ele>201.39999389648</ele>
        <time>2020-10-24T11:15:17.000Z</time>
      </trkpt>
      <trkpt lat="46.52618" lon="5.18783">
        <ele>201</ele>
        <time>2020-10-24T11:15:18.000Z</time>
      </trkpt>
      <trkpt lat="46.52619" lon="5.18758">
        <ele>200.60000610352</ele>
        <time>2020-10-24T11:15:20.000Z</time>
      </trkpt>
      <trkpt lat="46.5262" lon="5.18735">
        <ele>200.60000610352</ele>
        <time>2020-10-24T11:15:22.000Z</time>
      </trkpt>
      <trkpt lat="46.52621" lon="5.18713">
        <ele>200.60000610352</ele>
        <time>2020-10-24T11:15:24.000Z</time>
      </trkpt>
      <trkpt lat="46.52622" lon="5.18691">
        <ele>200.60000610352</ele>
        <time>2020-10-24T11:15:26.000Z</time>
      </trkpt>
      <trkpt lat="46.52623" lon="5.1867">
        <ele>200.80000305176</ele>
        <time>2020-10-24T11:15:28.000Z</time>
      </trkpt>
      <trkpt lat="46.52624" lon="5.1865">
        <ele>201.39999389648</ele>
        <time>2020-10-24T11:15:30.000Z</time>
      </trkpt>
      <trkpt lat="46.52625" lon="5.1863">
        <ele>201.60000610352</ele>
        <time>2020-10-24T11:15:32.000Z</time>
      </trkpt>
      <trkpt lat="46.52626" lon="5.18607">
        <ele>201.80000305176</ele>
        <time>2020-10-24T11:15:34.000Z</time>
      </trkpt>
      <trkpt lat="46.52626" lon="5.18596">
        <ele>201.80000305176</ele>
        <time>2020-10-24T11:15:35.000Z</time>
      </trkpt>
      <trkpt lat="46.52626" lon="5.18584">
        <ele>201.80000305176</ele>
        <time>2020-10-24T11:15:36.000Z</time>
      </trkpt>
      <trkpt lat="46.52628" lon="5.1856">
        <ele>201.80000305176</ele>
        <time>2020-10-24T11:15:38.000Z</time>
      </trkpt>
      <trkpt lat="46.5263" lon="5.18534">
        <ele>201.80000305176</ele>
        <time>2020-10-24T11:15:40.000Z</time>
      </trkpt>
      <trkpt lat="46.52633" lon="5.18521">
        <ele>201.60000610352</ele>
        <time>2020-10-24T11:15:41.000Z</time>
      </trkpt>
      <trkpt lat="46.52636" lon="5.18508">
        <ele>201.60000610352</ele>
        <time>2020-10-24T11:15:42.000Z</time>
      </trkpt>
      <trkpt lat="46.52646" lon="5.18483">
        <ele>201</ele>
        <time>2020-10-24T11:15:44.000Z</time>
      </trkpt>
      <trkpt lat="46.52651" lon="5.18471">
        <ele>200.80000305176</ele>
        <time>2020-10-24T11:15:45.000Z</time>
      </trkpt>
      <trkpt lat="46.52657" lon="5.18459">
        <ele>200.19999694824</ele>
        <time>2020-10-24T11:15:46.000Z</time>
      </trkpt>
      <trkpt lat="46.52662" lon="5.18447">
        <ele>199.39999389648</ele>
        <time>2020-10-24T11:15:47.000Z</time>
      </trkpt>
      <trkpt lat="46.52668" lon="5.18435">
        <ele>198.60000610352</ele>
        <time>2020-10-24T11:15:48.000Z</time>
      </trkpt>
      <trkpt lat="46.52674" lon="5.18424">
        <ele>198</ele>
        <time>2020-10-24T11:15:49.000Z</time>
      </trkpt>
      <trkpt lat="46.52679" lon="5.18412">
        <ele>197</ele>
        <time>2020-10-24T11:15:50.000Z</time>
      </trkpt>
      <trkpt lat="46.52684" lon="5.184">
        <ele>196.80000305176</ele>
        <time>2020-10-24T11:15:51.000Z</time>
      </trkpt>
      <trkpt lat="46.5269" lon="5.18389">
        <ele>196.39999389648</ele>
        <time>2020-10-24T11:15:52.000Z</time>
      </trkpt>
      <trkpt lat="46.527" lon="5.18366">
        <ele>196</ele>
        <time>2020-10-24T11:15:54.000Z</time>
      </trkpt>
      <trkpt lat="46.52706" lon="5.18354">
        <ele>195.60000610352</ele>
        <time>2020-10-24T11:15:55.000Z</time>
      </trkpt>
      <trkpt lat="46.52711" lon="5.18343">
        <ele>195.39999389648</ele>
        <time>2020-10-24T11:15:56.000Z</time>
      </trkpt>
      <trkpt lat="46.52721" lon="5.1832">
        <ele>195.39999389648</ele>
        <time>2020-10-24T11:15:58.000Z</time>
      </trkpt>
      <trkpt lat="46.52731" lon="5.18298">
        <ele>195.19999694824</ele>
        <time>2020-10-24T11:16:00.000Z</time>
      </trkpt>
      <trkpt lat="46.52741" lon="5.18276">
        <ele>195.19999694824</ele>
        <time>2020-10-24T11:16:02.000Z</time>
      </trkpt>
      <trkpt lat="46.52746" lon="5.18266">
        <ele>195.19999694824</ele>
        <time>2020-10-24T11:16:03.000Z</time>
      </trkpt>
      <trkpt lat="46.52751" lon="5.18256">
        <ele>195.19999694824</ele>
        <time>2020-10-24T11:16:04.000Z</time>
      </trkpt>
      <trkpt lat="46.5276" lon="5.18235">
        <ele>195.19999694824</ele>
        <time>2020-10-24T11:16:06.000Z</time>
      </trkpt>
      <trkpt lat="46.52763" lon="5.18224">
        <ele>195.19999694824</ele>
        <time>2020-10-24T11:16:07.000Z</time>
      </trkpt>
      <trkpt lat="46.52766" lon="5.18213">
        <ele>195.19999694824</ele>
        <time>2020-10-24T11:16:08.000Z</time>
      </trkpt>
      <trkpt lat="46.5277" lon="5.18192">
        <ele>195.19999694824</ele>
        <time>2020-10-24T11:16:10.000Z</time>
      </trkpt>
      <trkpt lat="46.52773" lon="5.18172">
        <ele>195.19999694824</ele>
        <time>2020-10-24T11:16:12.000Z</time>
      </trkpt>
      <trkpt lat="46.52774" lon="5.18162">
        <ele>195.39999389648</ele>
        <time>2020-10-24T11:16:13.000Z</time>
      </trkpt>
      <trkpt lat="46.52775" lon="5.18152">
        <ele>195.39999389648</ele>
        <time>2020-10-24T11:16:14.000Z</time>
      </trkpt>
      <trkpt lat="46.52776" lon="5.18133">
        <ele>195.80000305176</ele>
        <time>2020-10-24T11:16:16.000Z</time>
      </trkpt>
      <trkpt lat="46.52776" lon="5.18114">
        <ele>197.19999694824</ele>
        <time>2020-10-24T11:16:18.000Z</time>
      </trkpt>
      <trkpt lat="46.52777" lon="5.18095">
        <ele>197.80000305176</ele>
        <time>2020-10-24T11:16:20.000Z</time>
      </trkpt>
      <trkpt lat="46.52777" lon="5.18074">
        <ele>198.39999389648</ele>
        <time>2020-10-24T11:16:22.000Z</time>
      </trkpt>
      <trkpt lat="46.52778" lon="5.18064">
        <ele>198.60000610352</ele>
        <time>2020-10-24T11:16:23.000Z</time>
      </trkpt>
      <trkpt lat="46.52778" lon="5.18053">
        <ele>198.60000610352</ele>
        <time>2020-10-24T11:16:24.000Z</time>
      </trkpt>
      <trkpt lat="46.52777" lon="5.18042">
        <ele>198.80000305176</ele>
        <time>2020-10-24T11:16:25.000Z</time>
      </trkpt>
      <trkpt lat="46.52776" lon="5.18032">
        <ele>198.80000305176</ele>
        <time>2020-10-24T11:16:26.000Z</time>
      </trkpt>
      <trkpt lat="46.52772" lon="5.18009">
        <ele>198.80000305176</ele>
        <time>2020-10-24T11:16:28.000Z</time>
      </trkpt>
      <trkpt lat="46.52767" lon="5.17985">
        <ele>198.80000305176</ele>
        <time>2020-10-24T11:16:30.000Z</time>
      </trkpt>
      <trkpt lat="46.52763" lon="5.1796">
        <ele>198.60000610352</ele>
        <time>2020-10-24T11:16:32.000Z</time>
      </trkpt>
      <trkpt lat="46.5276" lon="5.17933">
        <ele>198.19999694824</ele>
        <time>2020-10-24T11:16:34.000Z</time>
      </trkpt>
      <trkpt lat="46.5276" lon="5.1792">
        <ele>197.80000305176</ele>
        <time>2020-10-24T11:16:35.000Z</time>
      </trkpt>
      <trkpt lat="46.52761" lon="5.17907">
        <ele>197.39999389648</ele>
        <time>2020-10-24T11:16:36.000Z</time>
      </trkpt>
      <trkpt lat="46.52762" lon="5.17894">
        <ele>196.80000305176</ele>
        <time>2020-10-24T11:16:37.000Z</time>
      </trkpt>
      <trkpt lat="46.52763" lon="5.17882">
        <ele>196.19999694824</ele>
        <time>2020-10-24T11:16:38.000Z</time>
      </trkpt>
      <trkpt lat="46.52764" lon="5.17869">
        <ele>195.39999389648</ele>
        <time>2020-10-24T11:16:39.000Z</time>
      </trkpt>
      <trkpt lat="46.52765" lon="5.17857">
        <ele>195</ele>
        <time>2020-10-24T11:16:40.000Z</time>
      </trkpt>
      <trkpt lat="46.52766" lon="5.17846">
        <ele>194.80000305176</ele>
        <time>2020-10-24T11:16:41.000Z</time>
      </trkpt>
      <trkpt lat="46.52767" lon="5.17834">
        <ele>194.60000610352</ele>
        <time>2020-10-24T11:16:42.000Z</time>
      </trkpt>
      <trkpt lat="46.52768" lon="5.17823">
        <ele>194.39999389648</ele>
        <time>2020-10-24T11:16:43.000Z</time>
      </trkpt>
      <trkpt lat="46.5277" lon="5.17812">
        <ele>194.39999389648</ele>
        <time>2020-10-24T11:16:44.000Z</time>
      </trkpt>
      <trkpt lat="46.52772" lon="5.17789">
        <ele>194.39999389648</ele>
        <time>2020-10-24T11:16:46.000Z</time>
      </trkpt>
      <trkpt lat="46.52775" lon="5.17767">
        <ele>194.39999389648</ele>
        <time>2020-10-24T11:16:48.000Z</time>
      </trkpt>
      <trkpt lat="46.52777" lon="5.17745">
        <ele>194.39999389648</ele>
        <time>2020-10-24T11:16:50.000Z</time>
      </trkpt>
      <trkpt lat="46.52778" lon="5.17722">
        <ele>194.39999389648</ele>
        <time>2020-10-24T11:16:52.000Z</time>
      </trkpt>
      <trkpt lat="46.52781" lon="5.177">
        <ele>194.39999389648</ele>
        <time>2020-10-24T11:16:54.000Z</time>
      </trkpt>
      <trkpt lat="46.52783" lon="5.17689">
        <ele>194.39999389648</ele>
        <time>2020-10-24T11:16:55.000Z</time>
      </trkpt>
      <trkpt lat="46.52786" lon="5.17679">
        <ele>194.39999389648</ele>
        <time>2020-10-24T11:16:56.000Z</time>
      </trkpt>
      <trkpt lat="46.52795" lon="5.17662">
        <ele>194.60000610352</ele>
        <time>2020-10-24T11:16:58.000Z</time>
      </trkpt>
      <trkpt lat="46.528" lon="5.17655">
        <ele>194.60000610352</ele>
        <time>2020-10-24T11:16:59.000Z</time>
      </trkpt>
      <trkpt lat="46.52806" lon="5.17649">
        <ele>194.60000610352</ele>
        <time>2020-10-24T11:17:00.000Z</time>
      </trkpt>
      <trkpt lat="46.52815" lon="5.17637">
        <ele>194.80000305176</ele>
        <time>2020-10-24T11:17:02.000Z</time>
      </trkpt>
      <trkpt lat="46.52818" lon="5.17623">
        <ele>194.80000305176</ele>
        <time>2020-10-24T11:17:04.000Z</time>
      </trkpt>
      <trkpt lat="46.52812" lon="5.1761">
        <ele>195.19999694824</ele>
        <time>2020-10-24T11:17:06.000Z</time>
      </trkpt>
      <trkpt lat="46.52808" lon="5.17604">
        <ele>195.39999389648</ele>
        <time>2020-10-24T11:17:07.000Z</time>
      </trkpt>
      <trkpt lat="46.52805" lon="5.17597">
        <ele>195.60000610352</ele>
        <time>2020-10-24T11:17:08.000Z</time>
      </trkpt>
      <trkpt lat="46.52796" lon="5.17584">
        <ele>195.80000305176</ele>
        <time>2020-10-24T11:17:10.000Z</time>
      </trkpt>
      <trkpt lat="46.52787" lon="5.17569">
        <ele>196</ele>
        <time>2020-10-24T11:17:12.000Z</time>
      </trkpt>
      <trkpt lat="46.52778" lon="5.17554">
        <ele>196</ele>
        <time>2020-10-24T11:17:14.000Z</time>
      </trkpt>
      <trkpt lat="46.52769" lon="5.17539">
        <ele>196</ele>
        <time>2020-10-24T11:17:16.000Z</time>
      </trkpt>
      <trkpt lat="46.5276" lon="5.17524">
        <ele>195.80000305176</ele>
        <time>2020-10-24T11:17:18.000Z</time>
      </trkpt>
      <trkpt lat="46.52751" lon="5.1751">
        <ele>195.60000610352</ele>
        <time>2020-10-24T11:17:20.000Z</time>
      </trkpt>
      <trkpt lat="46.52746" lon="5.17502">
        <ele>195.60000610352</ele>
        <time>2020-10-24T11:17:21.000Z</time>
      </trkpt>
      <trkpt lat="46.52742" lon="5.17495">
        <ele>195.39999389648</ele>
        <time>2020-10-24T11:17:22.000Z</time>
      </trkpt>
      <trkpt lat="46.52733" lon="5.17482">
        <ele>195.39999389648</ele>
        <time>2020-10-24T11:17:24.000Z</time>
      </trkpt>
      <trkpt lat="46.52725" lon="5.1747">
        <ele>195.39999389648</ele>
        <time>2020-10-24T11:17:26.000Z</time>
      </trkpt>
      <trkpt lat="46.52716" lon="5.17458">
        <ele>195.39999389648</ele>
        <time>2020-10-24T11:17:28.000Z</time>
      </trkpt>
      <trkpt lat="46.52712" lon="5.17453">
        <ele>195.60000610352</ele>
        <time>2020-10-24T11:17:29.000Z</time>
      </trkpt>
      <trkpt lat="46.52708" lon="5.17448">
        <ele>196</ele>
        <time>2020-10-24T11:17:30.000Z</time>
      </trkpt>
      <trkpt lat="46.527" lon="5.17439">
        <ele>196.60000610352</ele>
        <time>2020-10-24T11:17:32.000Z</time>
      </trkpt>
      <trkpt lat="46.52692" lon="5.17431">
        <ele>196.80000305176</ele>
        <time>2020-10-24T11:17:34.000Z</time>
      </trkpt>
      <trkpt lat="46.52685" lon="5.17423">
        <ele>197.39999389648</ele>
        <time>2020-10-24T11:17:36.000Z</time>
      </trkpt>
      <trkpt lat="46.52681" lon="5.17419">
        <ele>197.60000610352</ele>
        <time>2020-10-24T11:17:37.000Z</time>
      </trkpt>
      <trkpt lat="46.52678" lon="5.17415">
        <ele>198</ele>
        <time>2020-10-24T11:17:38.000Z</time>
      </trkpt>
      <trkpt lat="46.52671" lon="5.17407">
        <ele>198.60000610352</ele>
        <time>2020-10-24T11:17:40.000Z</time>
      </trkpt>
      <trkpt lat="46.52667" lon="5.17404">
        <ele>199</ele>
        <time>2020-10-24T11:17:41.000Z</time>
      </trkpt>
      <trkpt lat="46.52663" lon="5.174">
        <ele>199.60000610352</ele>
        <time>2020-10-24T11:17:42.000Z</time>
      </trkpt>
      <trkpt lat="46.52657" lon="5.17393">
        <ele>199.80000305176</ele>
        <time>2020-10-24T11:17:44.000Z</time>
      </trkpt>
      <trkpt lat="46.5265" lon="5.17385">
        <ele>200</ele>
        <time>2020-10-24T11:17:46.000Z</time>
      </trkpt>
      <trkpt lat="46.52647" lon="5.17382">
        <ele>200.39999389648</ele>
        <time>2020-10-24T11:17:47.000Z</time>
      </trkpt>
      <trkpt lat="46.52643" lon="5.17378">
        <ele>200.60000610352</ele>
        <time>2020-10-24T11:17:48.000Z</time>
      </trkpt>
      <trkpt lat="46.52637" lon="5.17371">
        <ele>201.19999694824</ele>
        <time>2020-10-24T11:17:50.000Z</time>
      </trkpt>
      <trkpt lat="46.52634" lon="5.17367">
        <ele>201.39999389648</ele>
        <time>2020-10-24T11:17:51.000Z</time>
      </trkpt>
      <trkpt lat="46.52631" lon="5.17364">
        <ele>201.60000610352</ele>
        <time>2020-10-24T11:17:52.000Z</time>
      </trkpt>
      <trkpt lat="46.52625" lon="5.17357">
        <ele>201.80000305176</ele>
        <time>2020-10-24T11:17:54.000Z</time>
      </trkpt>
      <trkpt lat="46.52619" lon="5.1735">
        <ele>202</ele>
        <time>2020-10-24T11:17:56.000Z</time>
      </trkpt>
      <trkpt lat="46.52613" lon="5.17344">
        <ele>202.60000610352</ele>
        <time>2020-10-24T11:17:58.000Z</time>
      </trkpt>
      <trkpt lat="46.52608" lon="5.17338">
        <ele>203.19999694824</ele>
        <time>2020-10-24T11:18:00.000Z</time>
      </trkpt>
      <trkpt lat="46.52602" lon="5.17331">
        <ele>203.60000610352</ele>
        <time>2020-10-24T11:18:02.000Z</time>
      </trkpt>
      <trkpt lat="46.52597" lon="5.17324">
        <ele>204.19999694824</ele>
        <time>2020-10-24T11:18:04.000Z</time>
      </trkpt>
      <trkpt lat="46.52591" lon="5.17317">
        <ele>204.60000610352</ele>
        <time>2020-10-24T11:18:06.000Z</time>
      </trkpt>
      <trkpt lat="46.52588" lon="5.17313">
        <ele>204.80000305176</ele>
        <time>2020-10-24T11:18:07.000Z</time>
      </trkpt>
      <trkpt lat="46.52585" lon="5.1731">
        <ele>205.19999694824</ele>
        <time>2020-10-24T11:18:08.000Z</time>
      </trkpt>
      <trkpt lat="46.52578" lon="5.17302">
        <ele>206</ele>
        <time>2020-10-24T11:18:10.000Z</time>
      </trkpt>
      <trkpt lat="46.52572" lon="5.17295">
        <ele>206.19999694824</ele>
        <time>2020-10-24T11:18:12.000Z</time>
      </trkpt>
      <trkpt lat="46.52565" lon="5.17287">
        <ele>206.60000610352</ele>
        <time>2020-10-24T11:18:14.000Z</time>
      </trkpt>
      <trkpt lat="46.52558" lon="5.17279">
        <ele>207</ele>
        <time>2020-10-24T11:18:16.000Z</time>
      </trkpt>
      <trkpt lat="46.52554" lon="5.17275">
        <ele>207.19999694824</ele>
        <time>2020-10-24T11:18:17.000Z</time>
      </trkpt>
      <trkpt lat="46.5255" lon="5.17272">
        <ele>207.39999389648</ele>
        <time>2020-10-24T11:18:18.000Z</time>
      </trkpt>
      <trkpt lat="46.52543" lon="5.17264">
        <ele>207.80000305176</ele>
        <time>2020-10-24T11:18:20.000Z</time>
      </trkpt>
      <trkpt lat="46.52536" lon="5.17256">
        <ele>208.19999694824</ele>
        <time>2020-10-24T11:18:22.000Z</time>
      </trkpt>
      <trkpt lat="46.52533" lon="5.17252">
        <ele>208.19999694824</ele>
        <time>2020-10-24T11:18:23.000Z</time>
      </trkpt>
      <trkpt lat="46.5253" lon="5.17249">
        <ele>208.19999694824</ele>
        <time>2020-10-24T11:18:24.000Z</time>
      </trkpt>
      <trkpt lat="46.52522" lon="5.17241">
        <ele>208.60000610352</ele>
        <time>2020-10-24T11:18:26.000Z</time>
      </trkpt>
      <trkpt lat="46.52515" lon="5.17233">
        <ele>208.80000305176</ele>
        <time>2020-10-24T11:18:28.000Z</time>
      </trkpt>
      <trkpt lat="46.52511" lon="5.17228">
        <ele>209</ele>
        <time>2020-10-24T11:18:29.000Z</time>
      </trkpt>
      <trkpt lat="46.52508" lon="5.17224">
        <ele>209</ele>
        <time>2020-10-24T11:18:30.000Z</time>
      </trkpt>
      <trkpt lat="46.52504" lon="5.1722">
        <ele>209.19999694824</ele>
        <time>2020-10-24T11:18:31.000Z</time>
      </trkpt>
      <trkpt lat="46.525" lon="5.17215">
        <ele>209.39999389648</ele>
        <time>2020-10-24T11:18:32.000Z</time>
      </trkpt>
      <trkpt lat="46.52491" lon="5.17206">
        <ele>209.60000610352</ele>
        <time>2020-10-24T11:18:34.000Z</time>
      </trkpt>
      <trkpt lat="46.52483" lon="5.17197">
        <ele>209.60000610352</ele>
        <time>2020-10-24T11:18:36.000Z</time>
      </trkpt>
      <trkpt lat="46.52475" lon="5.17188">
        <ele>209.60000610352</ele>
        <time>2020-10-24T11:18:38.000Z</time>
      </trkpt>
      <trkpt lat="46.52466" lon="5.17179">
        <ele>209.60000610352</ele>
        <time>2020-10-24T11:18:40.000Z</time>
      </trkpt>
      <trkpt lat="46.52458" lon="5.1717">
        <ele>209.60000610352</ele>
        <time>2020-10-24T11:18:42.000Z</time>
      </trkpt>
      <trkpt lat="46.52449" lon="5.17161">
        <ele>209.60000610352</ele>
        <time>2020-10-24T11:18:44.000Z</time>
      </trkpt>
      <trkpt lat="46.52441" lon="5.17151">
        <ele>209.39999389648</ele>
        <time>2020-10-24T11:18:46.000Z</time>
      </trkpt>
      <trkpt lat="46.52434" lon="5.17141">
        <ele>209.39999389648</ele>
        <time>2020-10-24T11:18:48.000Z</time>
      </trkpt>
      <trkpt lat="46.52426" lon="5.17131">
        <ele>209.39999389648</ele>
        <time>2020-10-24T11:18:50.000Z</time>
      </trkpt>
      <trkpt lat="46.52417" lon="5.17121">
        <ele>209.39999389648</ele>
        <time>2020-10-24T11:18:52.000Z</time>
      </trkpt>
      <trkpt lat="46.52409" lon="5.1711">
        <ele>209.39999389648</ele>
        <time>2020-10-24T11:18:54.000Z</time>
      </trkpt>
      <trkpt lat="46.524" lon="5.171">
        <ele>209.39999389648</ele>
        <time>2020-10-24T11:18:56.000Z</time>
      </trkpt>
      <trkpt lat="46.5239" lon="5.17089">
        <ele>209.39999389648</ele>
        <time>2020-10-24T11:18:58.000Z</time>
      </trkpt>
      <trkpt lat="46.52381" lon="5.17078">
        <ele>209.39999389648</ele>
        <time>2020-10-24T11:19:00.000Z</time>
      </trkpt>
      <trkpt lat="46.52371" lon="5.17066">
        <ele>209.39999389648</ele>
        <time>2020-10-24T11:19:02.000Z</time>
      </trkpt>
      <trkpt lat="46.52361" lon="5.17055">
        <ele>209.39999389648</ele>
        <time>2020-10-24T11:19:04.000Z</time>
      </trkpt>
      <trkpt lat="46.5235" lon="5.17043">
        <ele>209.39999389648</ele>
        <time>2020-10-24T11:19:06.000Z</time>
      </trkpt>
      <trkpt lat="46.52339" lon="5.17031">
        <ele>209.19999694824</ele>
        <time>2020-10-24T11:19:08.000Z</time>
      </trkpt>
      <trkpt lat="46.52329" lon="5.17019">
        <ele>209</ele>
        <time>2020-10-24T11:19:10.000Z</time>
      </trkpt>
      <trkpt lat="46.52319" lon="5.17007">
        <ele>209.19999694824</ele>
        <time>2020-10-24T11:19:12.000Z</time>
      </trkpt>
      <trkpt lat="46.52309" lon="5.16994">
        <ele>209</ele>
        <time>2020-10-24T11:19:14.000Z</time>
      </trkpt>
      <trkpt lat="46.523" lon="5.16979">
        <ele>208.80000305176</ele>
        <time>2020-10-24T11:19:16.000Z</time>
      </trkpt>
      <trkpt lat="46.52292" lon="5.16963">
        <ele>208.80000305176</ele>
        <time>2020-10-24T11:19:18.000Z</time>
      </trkpt>
      <trkpt lat="46.52289" lon="5.16954">
        <ele>208.60000610352</ele>
        <time>2020-10-24T11:19:19.000Z</time>
      </trkpt>
      <trkpt lat="46.52286" lon="5.16945">
        <ele>208.80000305176</ele>
        <time>2020-10-24T11:19:20.000Z</time>
      </trkpt>
      <trkpt lat="46.52281" lon="5.16926">
        <ele>208.80000305176</ele>
        <time>2020-10-24T11:19:22.000Z</time>
      </trkpt>
      <trkpt lat="46.52279" lon="5.16907">
        <ele>208.80000305176</ele>
        <time>2020-10-24T11:19:24.000Z</time>
      </trkpt>
      <trkpt lat="46.52278" lon="5.16897">
        <ele>208.80000305176</ele>
        <time>2020-10-24T11:19:25.000Z</time>
      </trkpt>
      <trkpt lat="46.52278" lon="5.16888">
        <ele>208.80000305176</ele>
        <time>2020-10-24T11:19:26.000Z</time>
      </trkpt>
      <trkpt lat="46.52278" lon="5.16869">
        <ele>208.80000305176</ele>
        <time>2020-10-24T11:19:28.000Z</time>
      </trkpt>
      <trkpt lat="46.52278" lon="5.16861">
        <ele>208.80000305176</ele>
        <time>2020-10-24T11:19:29.000Z</time>
      </trkpt>
      <trkpt lat="46.52279" lon="5.16852">
        <ele>208.80000305176</ele>
        <time>2020-10-24T11:19:30.000Z</time>
      </trkpt>
      <trkpt lat="46.52279" lon="5.16834">
        <ele>208.80000305176</ele>
        <time>2020-10-24T11:19:32.000Z</time>
      </trkpt>
      <trkpt lat="46.52279" lon="5.16816">
        <ele>209.19999694824</ele>
        <time>2020-10-24T11:19:34.000Z</time>
      </trkpt>
      <trkpt lat="46.5228" lon="5.16799">
        <ele>209.60000610352</ele>
        <time>2020-10-24T11:19:36.000Z</time>
      </trkpt>
      <trkpt lat="46.5228" lon="5.16781">
        <ele>210</ele>
        <time>2020-10-24T11:19:38.000Z</time>
      </trkpt>
      <trkpt lat="46.5228" lon="5.16764">
        <ele>210.19999694824</ele>
        <time>2020-10-24T11:19:40.000Z</time>
      </trkpt>
      <trkpt lat="46.5228" lon="5.16746">
        <ele>210.60000610352</ele>
        <time>2020-10-24T11:19:42.000Z</time>
      </trkpt>
      <trkpt lat="46.52279" lon="5.16728">
        <ele>210.60000610352</ele>
        <time>2020-10-24T11:19:44.000Z</time>
      </trkpt>
      <trkpt lat="46.52278" lon="5.16711">
        <ele>210.80000305176</ele>
        <time>2020-10-24T11:19:46.000Z</time>
      </trkpt>
      <trkpt lat="46.52276" lon="5.16702">
        <ele>210.80000305176</ele>
        <time>2020-10-24T11:19:47.000Z</time>
      </trkpt>
      <trkpt lat="46.52274" lon="5.16694">
        <ele>211</ele>
        <time>2020-10-24T11:19:48.000Z</time>
      </trkpt>
      <trkpt lat="46.52269" lon="5.16679">
        <ele>211</ele>
        <time>2020-10-24T11:19:50.000Z</time>
      </trkpt>
      <trkpt lat="46.52262" lon="5.16665">
        <ele>211</ele>
        <time>2020-10-24T11:19:52.000Z</time>
      </trkpt>
      <trkpt lat="46.52257" lon="5.16659">
        <ele>211</ele>
        <time>2020-10-24T11:19:53.000Z</time>
      </trkpt>
      <trkpt lat="46.52253" lon="5.16652">
        <ele>211</ele>
        <time>2020-10-24T11:19:54.000Z</time>
      </trkpt>
      <trkpt lat="46.52242" lon="5.16641">
        <ele>211.19999694824</ele>
        <time>2020-10-24T11:19:56.000Z</time>
      </trkpt>
      <trkpt lat="46.52236" lon="5.16637">
        <ele>211.19999694824</ele>
        <time>2020-10-24T11:19:57.000Z</time>
      </trkpt>
      <trkpt lat="46.52229" lon="5.16633">
        <ele>211.19999694824</ele>
        <time>2020-10-24T11:19:58.000Z</time>
      </trkpt>
      <trkpt lat="46.52217" lon="5.16626">
        <ele>211</ele>
        <time>2020-10-24T11:20:00.000Z</time>
      </trkpt>
      <trkpt lat="46.52211" lon="5.16622">
        <ele>211</ele>
        <time>2020-10-24T11:20:01.000Z</time>
      </trkpt>
      <trkpt lat="46.52205" lon="5.16618">
        <ele>211</ele>
        <time>2020-10-24T11:20:02.000Z</time>
      </trkpt>
      <trkpt lat="46.52192" lon="5.16612">
        <ele>210.80000305176</ele>
        <time>2020-10-24T11:20:04.000Z</time>
      </trkpt>
      <trkpt lat="46.52181" lon="5.16605">
        <ele>210.60000610352</ele>
        <time>2020-10-24T11:20:06.000Z</time>
      </trkpt>
      <trkpt lat="46.52169" lon="5.16598">
        <ele>210.60000610352</ele>
        <time>2020-10-24T11:20:08.000Z</time>
      </trkpt>
      <trkpt lat="46.52163" lon="5.16595">
        <ele>210.60000610352</ele>
        <time>2020-10-24T11:20:09.000Z</time>
      </trkpt>
      <trkpt lat="46.52158" lon="5.16592">
        <ele>210.60000610352</ele>
        <time>2020-10-24T11:20:10.000Z</time>
      </trkpt>
      <trkpt lat="46.52146" lon="5.16586">
        <ele>210.60000610352</ele>
        <time>2020-10-24T11:20:12.000Z</time>
      </trkpt>
      <trkpt lat="46.52135" lon="5.1658">
        <ele>210.80000305176</ele>
        <time>2020-10-24T11:20:14.000Z</time>
      </trkpt>
      <trkpt lat="46.52123" lon="5.16573">
        <ele>210.80000305176</ele>
        <time>2020-10-24T11:20:16.000Z</time>
      </trkpt>
      <trkpt lat="46.52111" lon="5.16566">
        <ele>210.80000305176</ele>
        <time>2020-10-24T11:20:18.000Z</time>
      </trkpt>
      <trkpt lat="46.52099" lon="5.1656">
        <ele>210.80000305176</ele>
        <time>2020-10-24T11:20:20.000Z</time>
      </trkpt>
      <trkpt lat="46.52093" lon="5.16557">
        <ele>210.80000305176</ele>
        <time>2020-10-24T11:20:21.000Z</time>
      </trkpt>
      <trkpt lat="46.52087" lon="5.16553">
        <ele>211</ele>
        <time>2020-10-24T11:20:22.000Z</time>
      </trkpt>
      <trkpt lat="46.52074" lon="5.16547">
        <ele>210.80000305176</ele>
        <time>2020-10-24T11:20:24.000Z</time>
      </trkpt>
      <trkpt lat="46.52061" lon="5.16542">
        <ele>210.60000610352</ele>
        <time>2020-10-24T11:20:26.000Z</time>
      </trkpt>
      <trkpt lat="46.52054" lon="5.16541">
        <ele>210.60000610352</ele>
        <time>2020-10-24T11:20:27.000Z</time>
      </trkpt>
      <trkpt lat="46.52047" lon="5.1654">
        <ele>210.19999694824</ele>
        <time>2020-10-24T11:20:28.000Z</time>
      </trkpt>
      <trkpt lat="46.52034" lon="5.1654">
        <ele>209.80000305176</ele>
        <time>2020-10-24T11:20:30.000Z</time>
      </trkpt>
      <trkpt lat="46.52027" lon="5.16541">
        <ele>209.39999389648</ele>
        <time>2020-10-24T11:20:31.000Z</time>
      </trkpt>
      <trkpt lat="46.5202" lon="5.16543">
        <ele>209.19999694824</ele>
        <time>2020-10-24T11:20:32.000Z</time>
      </trkpt>
      <trkpt lat="46.52005" lon="5.16547">
        <ele>209</ele>
        <time>2020-10-24T11:20:34.000Z</time>
      </trkpt>
      <trkpt lat="46.5199" lon="5.1655">
        <ele>208.60000610352</ele>
        <time>2020-10-24T11:20:36.000Z</time>
      </trkpt>
      <trkpt lat="46.51974" lon="5.16553">
        <ele>208.39999389648</ele>
        <time>2020-10-24T11:20:38.000Z</time>
      </trkpt>
      <trkpt lat="46.51967" lon="5.16554">
        <ele>208.19999694824</ele>
        <time>2020-10-24T11:20:39.000Z</time>
      </trkpt>
      <trkpt lat="46.51958" lon="5.16556">
        <ele>208</ele>
        <time>2020-10-24T11:20:40.000Z</time>
      </trkpt>
      <trkpt lat="46.51942" lon="5.16559">
        <ele>207.19999694824</ele>
        <time>2020-10-24T11:20:42.000Z</time>
      </trkpt>
      <trkpt lat="46.51925" lon="5.16563">
        <ele>206.80000305176</ele>
        <time>2020-10-24T11:20:44.000Z</time>
      </trkpt>
      <trkpt lat="46.51907" lon="5.16567">
        <ele>206.60000610352</ele>
        <time>2020-10-24T11:20:46.000Z</time>
      </trkpt>
      <trkpt lat="46.51888" lon="5.1657">
        <ele>206</ele>
        <time>2020-10-24T11:20:48.000Z</time>
      </trkpt>
      <trkpt lat="46.5187" lon="5.16574">
        <ele>205.39999389648</ele>
        <time>2020-10-24T11:20:50.000Z</time>
      </trkpt>
      <trkpt lat="46.51861" lon="5.16575">
        <ele>205</ele>
        <time>2020-10-24T11:20:51.000Z</time>
      </trkpt>
      <trkpt lat="46.51851" lon="5.16576">
        <ele>204.39999389648</ele>
        <time>2020-10-24T11:20:52.000Z</time>
      </trkpt>
      <trkpt lat="46.51842" lon="5.16576">
        <ele>203.60000610352</ele>
        <time>2020-10-24T11:20:53.000Z</time>
      </trkpt>
      <trkpt lat="46.51833" lon="5.16576">
        <ele>203</ele>
        <time>2020-10-24T11:20:54.000Z</time>
      </trkpt>
      <trkpt lat="46.51824" lon="5.16576">
        <ele>202.39999389648</ele>
        <time>2020-10-24T11:20:55.000Z</time>
      </trkpt>
      <trkpt lat="46.51815" lon="5.16575">
        <ele>202</ele>
        <time>2020-10-24T11:20:56.000Z</time>
      </trkpt>
      <trkpt lat="46.51798" lon="5.16574">
        <ele>201.19999694824</ele>
        <time>2020-10-24T11:20:58.000Z</time>
      </trkpt>
      <trkpt lat="46.51781" lon="5.16573">
        <ele>200.39999389648</ele>
        <time>2020-10-24T11:21:00.000Z</time>
      </trkpt>
      <trkpt lat="46.51764" lon="5.16573">
        <ele>200.39999389648</ele>
        <time>2020-10-24T11:21:02.000Z</time>
      </trkpt>
      <trkpt lat="46.51756" lon="5.16575">
        <ele>200.19999694824</ele>
        <time>2020-10-24T11:21:03.000Z</time>
      </trkpt>
      <trkpt lat="46.51749" lon="5.16578">
        <ele>200.19999694824</ele>
        <time>2020-10-24T11:21:04.000Z</time>
      </trkpt>
      <trkpt lat="46.51735" lon="5.16588">
        <ele>200.19999694824</ele>
        <time>2020-10-24T11:21:06.000Z</time>
      </trkpt>
      <trkpt lat="46.5173" lon="5.16594">
        <ele>200.19999694824</ele>
        <time>2020-10-24T11:21:07.000Z</time>
      </trkpt>
      <trkpt lat="46.51724" lon="5.166">
        <ele>200.19999694824</ele>
        <time>2020-10-24T11:21:08.000Z</time>
      </trkpt>
      <trkpt lat="46.51714" lon="5.16611">
        <ele>200.19999694824</ele>
        <time>2020-10-24T11:21:10.000Z</time>
      </trkpt>
      <trkpt lat="46.51709" lon="5.16617">
        <ele>200.39999389648</ele>
        <time>2020-10-24T11:21:11.000Z</time>
      </trkpt>
      <trkpt lat="46.51704" lon="5.16622">
        <ele>200.60000610352</ele>
        <time>2020-10-24T11:21:12.000Z</time>
      </trkpt>
      <trkpt lat="46.517" lon="5.16627">
        <ele>200.80000305176</ele>
        <time>2020-10-24T11:21:13.000Z</time>
      </trkpt>
      <trkpt lat="46.5169" lon="5.16636">
        <ele>201.60000610352</ele>
        <time>2020-10-24T11:21:15.000Z</time>
      </trkpt>
      <trkpt lat="46.51684" lon="5.16639">
        <ele>202</ele>
        <time>2020-10-24T11:21:16.000Z</time>
      </trkpt>
      <trkpt lat="46.51679" lon="5.16642">
        <ele>202.60000610352</ele>
        <time>2020-10-24T11:21:17.000Z</time>
      </trkpt>
      <trkpt lat="46.51673" lon="5.16645">
        <ele>203</ele>
        <time>2020-10-24T11:21:18.000Z</time>
      </trkpt>
      <trkpt lat="46.51667" lon="5.16646">
        <ele>203.19999694824</ele>
        <time>2020-10-24T11:21:19.000Z</time>
      </trkpt>
      <trkpt lat="46.51661" lon="5.16647">
        <ele>203.39999389648</ele>
        <time>2020-10-24T11:21:20.000Z</time>
      </trkpt>
      <trkpt lat="46.5165" lon="5.16649">
        <ele>203.80000305176</ele>
        <time>2020-10-24T11:21:22.000Z</time>
      </trkpt>
      <trkpt lat="46.51638" lon="5.16651">
        <ele>204</ele>
        <time>2020-10-24T11:21:24.000Z</time>
      </trkpt>
      <trkpt lat="46.51625" lon="5.16653">
        <ele>204.39999389648</ele>
        <time>2020-10-24T11:21:26.000Z</time>
      </trkpt>
      <trkpt lat="46.51619" lon="5.16655">
        <ele>204.80000305176</ele>
        <time>2020-10-24T11:21:27.000Z</time>
      </trkpt>
      <trkpt lat="46.51613" lon="5.16658">
        <ele>205</ele>
        <time>2020-10-24T11:21:28.000Z</time>
      </trkpt>
      <trkpt lat="46.51607" lon="5.16661">
        <ele>205</ele>
        <time>2020-10-24T11:21:29.000Z</time>
      </trkpt>
      <trkpt lat="46.51601" lon="5.16665">
        <ele>205</ele>
        <time>2020-10-24T11:21:30.000Z</time>
      </trkpt>
      <trkpt lat="46.51589" lon="5.16674">
        <ele>205.19999694824</ele>
        <time>2020-10-24T11:21:32.000Z</time>
      </trkpt>
      <trkpt lat="46.51577" lon="5.16683">
        <ele>205.19999694824</ele>
        <time>2020-10-24T11:21:34.000Z</time>
      </trkpt>
      <trkpt lat="46.5157" lon="5.16687">
        <ele>205.19999694824</ele>
        <time>2020-10-24T11:21:35.000Z</time>
      </trkpt>
      <trkpt lat="46.51564" lon="5.16691">
        <ele>205.19999694824</ele>
        <time>2020-10-24T11:21:36.000Z</time>
      </trkpt>
      <trkpt lat="46.51557" lon="5.16694">
        <ele>205</ele>
        <time>2020-10-24T11:21:37.000Z</time>
      </trkpt>
      <trkpt lat="46.51549" lon="5.16696">
        <ele>204.80000305176</ele>
        <time>2020-10-24T11:21:38.000Z</time>
      </trkpt>
      <trkpt lat="46.51542" lon="5.16696">
        <ele>204.60000610352</ele>
        <time>2020-10-24T11:21:39.000Z</time>
      </trkpt>
      <trkpt lat="46.51534" lon="5.16695">
        <ele>204.39999389648</ele>
        <time>2020-10-24T11:21:40.000Z</time>
      </trkpt>
      <trkpt lat="46.5152" lon="5.16688">
        <ele>204</ele>
        <time>2020-10-24T11:21:42.000Z</time>
      </trkpt>
      <trkpt lat="46.51513" lon="5.16685">
        <ele>204</ele>
        <time>2020-10-24T11:21:43.000Z</time>
      </trkpt>
      <trkpt lat="46.51505" lon="5.16682">
        <ele>203.80000305176</ele>
        <time>2020-10-24T11:21:44.000Z</time>
      </trkpt>
      <trkpt lat="46.51491" lon="5.16677">
        <ele>203.39999389648</ele>
        <time>2020-10-24T11:21:46.000Z</time>
      </trkpt>
      <trkpt lat="46.51476" lon="5.16672">
        <ele>202.80000305176</ele>
        <time>2020-10-24T11:21:48.000Z</time>
      </trkpt>
      <trkpt lat="46.51469" lon="5.16671">
        <ele>202.60000610352</ele>
        <time>2020-10-24T11:21:49.000Z</time>
      </trkpt>
      <trkpt lat="46.51462" lon="5.16669">
        <ele>202.60000610352</ele>
        <time>2020-10-24T11:21:50.000Z</time>
      </trkpt>
      <trkpt lat="46.51447" lon="5.16667">
        <ele>202.39999389648</ele>
        <time>2020-10-24T11:21:52.000Z</time>
      </trkpt>
      <trkpt lat="46.51433" lon="5.16666">
        <ele>202.39999389648</ele>
        <time>2020-10-24T11:21:54.000Z</time>
      </trkpt>
      <trkpt lat="46.51419" lon="5.16668">
        <ele>202.39999389648</ele>
        <time>2020-10-24T11:21:56.000Z</time>
      </trkpt>
      <trkpt lat="46.51412" lon="5.1667">
        <ele>202.39999389648</ele>
        <time>2020-10-24T11:21:57.000Z</time>
      </trkpt>
      <trkpt lat="46.51406" lon="5.16673">
        <ele>202.39999389648</ele>
        <time>2020-10-24T11:21:58.000Z</time>
      </trkpt>
      <trkpt lat="46.514" lon="5.16676">
        <ele>202.39999389648</ele>
        <time>2020-10-24T11:21:59.000Z</time>
      </trkpt>
      <trkpt lat="46.51393" lon="5.1668">
        <ele>202.60000610352</ele>
        <time>2020-10-24T11:22:00.000Z</time>
      </trkpt>
      <trkpt lat="46.51382" lon="5.1669">
        <ele>202.80000305176</ele>
        <time>2020-10-24T11:22:02.000Z</time>
      </trkpt>
      <trkpt lat="46.5137" lon="5.16701">
        <ele>202.80000305176</ele>
        <time>2020-10-24T11:22:04.000Z</time>
      </trkpt>
      <trkpt lat="46.51358" lon="5.16712">
        <ele>202.80000305176</ele>
        <time>2020-10-24T11:22:06.000Z</time>
      </trkpt>
      <trkpt lat="46.51346" lon="5.16723">
        <ele>202.80000305176</ele>
        <time>2020-10-24T11:22:08.000Z</time>
      </trkpt>
      <trkpt lat="46.51333" lon="5.16732">
        <ele>202.80000305176</ele>
        <time>2020-10-24T11:22:10.000Z</time>
      </trkpt>
      <trkpt lat="46.5132" lon="5.1674">
        <ele>202.80000305176</ele>
        <time>2020-10-24T11:22:12.000Z</time>
      </trkpt>
      <trkpt lat="46.51307" lon="5.16748">
        <ele>202.80000305176</ele>
        <time>2020-10-24T11:22:14.000Z</time>
      </trkpt>
      <trkpt lat="46.51295" lon="5.16756">
        <ele>202.80000305176</ele>
        <time>2020-10-24T11:22:16.000Z</time>
      </trkpt>
      <trkpt lat="46.51283" lon="5.16764">
        <ele>202.60000610352</ele>
        <time>2020-10-24T11:22:18.000Z</time>
      </trkpt>
      <trkpt lat="46.51277" lon="5.16768">
        <ele>202.39999389648</ele>
        <time>2020-10-24T11:22:19.000Z</time>
      </trkpt>
      <trkpt lat="46.5127" lon="5.16772">
        <ele>202</ele>
        <time>2020-10-24T11:22:20.000Z</time>
      </trkpt>
      <trkpt lat="46.51263" lon="5.16776">
        <ele>202</ele>
        <time>2020-10-24T11:22:21.000Z</time>
      </trkpt>
      <trkpt lat="46.51256" lon="5.16777">
        <ele>201.60000610352</ele>
        <time>2020-10-24T11:22:22.000Z</time>
      </trkpt>
      <trkpt lat="46.51249" lon="5.16777">
        <ele>201.60000610352</ele>
        <time>2020-10-24T11:22:23.000Z</time>
      </trkpt>
      <trkpt lat="46.51242" lon="5.16776">
        <ele>201.60000610352</ele>
        <time>2020-10-24T11:22:24.000Z</time>
      </trkpt>
      <trkpt lat="46.51228" lon="5.16772">
        <ele>201.39999389648</ele>
        <time>2020-10-24T11:22:26.000Z</time>
      </trkpt>
      <trkpt lat="46.51221" lon="5.16768">
        <ele>201.39999389648</ele>
        <time>2020-10-24T11:22:27.000Z</time>
      </trkpt>
      <trkpt lat="46.51215" lon="5.16764">
        <ele>201.19999694824</ele>
        <time>2020-10-24T11:22:28.000Z</time>
      </trkpt>
      <trkpt lat="46.51202" lon="5.16753">
        <ele>201.19999694824</ele>
        <time>2020-10-24T11:22:30.000Z</time>
      </trkpt>
      <trkpt lat="46.51191" lon="5.16739">
        <ele>201</ele>
        <time>2020-10-24T11:22:32.000Z</time>
      </trkpt>
      <trkpt lat="46.5118" lon="5.16724">
        <ele>200.80000305176</ele>
        <time>2020-10-24T11:22:34.000Z</time>
      </trkpt>
      <trkpt lat="46.51168" lon="5.16709">
        <ele>200.80000305176</ele>
        <time>2020-10-24T11:22:36.000Z</time>
      </trkpt>
      <trkpt lat="46.51157" lon="5.16694">
        <ele>200.60000610352</ele>
        <time>2020-10-24T11:22:38.000Z</time>
      </trkpt>
      <trkpt lat="46.51152" lon="5.16686">
        <ele>200.60000610352</ele>
        <time>2020-10-24T11:22:39.000Z</time>
      </trkpt>
      <trkpt lat="46.51146" lon="5.16678">
        <ele>200.60000610352</ele>
        <time>2020-10-24T11:22:40.000Z</time>
      </trkpt>
      <trkpt lat="46.5114" lon="5.1667">
        <ele>200.60000610352</ele>
        <time>2020-10-24T11:22:41.000Z</time>
      </trkpt>
      <trkpt lat="46.51135" lon="5.16662">
        <ele>200.39999389648</ele>
        <time>2020-10-24T11:22:42.000Z</time>
      </trkpt>
      <trkpt lat="46.51123" lon="5.16647">
        <ele>200.39999389648</ele>
        <time>2020-10-24T11:22:44.000Z</time>
      </trkpt>
      <trkpt lat="46.51111" lon="5.16634">
        <ele>200</ele>
        <time>2020-10-24T11:22:46.000Z</time>
      </trkpt>
      <trkpt lat="46.51098" lon="5.16623">
        <ele>199.39999389648</ele>
        <time>2020-10-24T11:22:48.000Z</time>
      </trkpt>
      <trkpt lat="46.51091" lon="5.16618">
        <ele>199.39999389648</ele>
        <time>2020-10-24T11:22:49.000Z</time>
      </trkpt>
      <trkpt lat="46.51084" lon="5.16615">
        <ele>199.19999694824</ele>
        <time>2020-10-24T11:22:50.000Z</time>
      </trkpt>
      <trkpt lat="46.51069" lon="5.16609">
        <ele>199.19999694824</ele>
        <time>2020-10-24T11:22:52.000Z</time>
      </trkpt>
      <trkpt lat="46.51062" lon="5.16607">
        <ele>199.19999694824</ele>
        <time>2020-10-24T11:22:53.000Z</time>
      </trkpt>
      <trkpt lat="46.51055" lon="5.16605">
        <ele>199.19999694824</ele>
        <time>2020-10-24T11:22:54.000Z</time>
      </trkpt>
      <trkpt lat="46.51041" lon="5.166">
        <ele>199</ele>
        <time>2020-10-24T11:22:56.000Z</time>
      </trkpt>
      <trkpt lat="46.51027" lon="5.16593">
        <ele>199</ele>
        <time>2020-10-24T11:22:58.000Z</time>
      </trkpt>
      <trkpt lat="46.51021" lon="5.16588">
        <ele>199</ele>
        <time>2020-10-24T11:22:59.000Z</time>
      </trkpt>
      <trkpt lat="46.51015" lon="5.16582">
        <ele>198.80000305176</ele>
        <time>2020-10-24T11:23:00.000Z</time>
      </trkpt>
      <trkpt lat="46.51003" lon="5.16571">
        <ele>198.80000305176</ele>
        <time>2020-10-24T11:23:02.000Z</time>
      </trkpt>
      <trkpt lat="46.50997" lon="5.16566">
        <ele>198.60000610352</ele>
        <time>2020-10-24T11:23:03.000Z</time>
      </trkpt>
      <trkpt lat="46.50991" lon="5.16561">
        <ele>198.39999389648</ele>
        <time>2020-10-24T11:23:04.000Z</time>
      </trkpt>
      <trkpt lat="46.50985" lon="5.16557">
        <ele>198.39999389648</ele>
        <time>2020-10-24T11:23:05.000Z</time>
      </trkpt>
      <trkpt lat="46.50978" lon="5.16554">
        <ele>198.39999389648</ele>
        <time>2020-10-24T11:23:06.000Z</time>
      </trkpt>
      <trkpt lat="46.50965" lon="5.16552">
        <ele>198.39999389648</ele>
        <time>2020-10-24T11:23:08.000Z</time>
      </trkpt>
      <trkpt lat="46.50958" lon="5.16552">
        <ele>198.19999694824</ele>
        <time>2020-10-24T11:23:09.000Z</time>
      </trkpt>
      <trkpt lat="46.50951" lon="5.16553">
        <ele>198.19999694824</ele>
        <time>2020-10-24T11:23:10.000Z</time>
      </trkpt>
      <trkpt lat="46.50937" lon="5.16556">
        <ele>198.19999694824</ele>
        <time>2020-10-24T11:23:12.000Z</time>
      </trkpt>
      <trkpt lat="46.50923" lon="5.16558">
        <ele>198.19999694824</ele>
        <time>2020-10-24T11:23:14.000Z</time>
      </trkpt>
      <trkpt lat="46.50908" lon="5.16561">
        <ele>198.19999694824</ele>
        <time>2020-10-24T11:23:16.000Z</time>
      </trkpt>
      <trkpt lat="46.50901" lon="5.16562">
        <ele>198.19999694824</ele>
        <time>2020-10-24T11:23:17.000Z</time>
      </trkpt>
      <trkpt lat="46.50894" lon="5.16563">
        <ele>198.19999694824</ele>
        <time>2020-10-24T11:23:18.000Z</time>
      </trkpt>
      <trkpt lat="46.5088" lon="5.16563">
        <ele>198.19999694824</ele>
        <time>2020-10-24T11:23:20.000Z</time>
      </trkpt>
      <trkpt lat="46.50866" lon="5.16562">
        <ele>198.19999694824</ele>
        <time>2020-10-24T11:23:22.000Z</time>
      </trkpt>
      <trkpt lat="46.50859" lon="5.1656">
        <ele>198</ele>
        <time>2020-10-24T11:23:23.000Z</time>
      </trkpt>
      <trkpt lat="46.50852" lon="5.16558">
        <ele>198</ele>
        <time>2020-10-24T11:23:24.000Z</time>
      </trkpt>
      <trkpt lat="46.50839" lon="5.16554">
        <ele>197.80000305176</ele>
        <time>2020-10-24T11:23:26.000Z</time>
      </trkpt>
      <trkpt lat="46.50825" lon="5.16549">
        <ele>197.80000305176</ele>
        <time>2020-10-24T11:23:28.000Z</time>
      </trkpt>
      <trkpt lat="46.50813" lon="5.16544">
        <ele>197.60000610352</ele>
        <time>2020-10-24T11:23:30.000Z</time>
      </trkpt>
      <trkpt lat="46.50806" lon="5.16541">
        <ele>197.60000610352</ele>
        <time>2020-10-24T11:23:31.000Z</time>
      </trkpt>
      <trkpt lat="46.508" lon="5.16539">
        <ele>197.60000610352</ele>
        <time>2020-10-24T11:23:32.000Z</time>
      </trkpt>
      <trkpt lat="46.50787" lon="5.16535">
        <ele>197.60000610352</ele>
        <time>2020-10-24T11:23:34.000Z</time>
      </trkpt>
      <trkpt lat="46.50773" lon="5.16531">
        <ele>197.80000305176</ele>
        <time>2020-10-24T11:23:36.000Z</time>
      </trkpt>
      <trkpt lat="46.5076" lon="5.16529">
        <ele>197.80000305176</ele>
        <time>2020-10-24T11:23:38.000Z</time>
      </trkpt>
      <trkpt lat="46.50753" lon="5.16529">
        <ele>197.80000305176</ele>
        <time>2020-10-24T11:23:39.000Z</time>
      </trkpt>
      <trkpt lat="46.50747" lon="5.16529">
        <ele>197.80000305176</ele>
        <time>2020-10-24T11:23:40.000Z</time>
      </trkpt>
      <trkpt lat="46.50733" lon="5.16531">
        <ele>198</ele>
        <time>2020-10-24T11:23:42.000Z</time>
      </trkpt>
      <trkpt lat="46.5072" lon="5.16534">
        <ele>198</ele>
        <time>2020-10-24T11:23:44.000Z</time>
      </trkpt>
      <trkpt lat="46.50714" lon="5.16536">
        <ele>198</ele>
        <time>2020-10-24T11:23:45.000Z</time>
      </trkpt>
      <trkpt lat="46.50707" lon="5.16538">
        <ele>198.19999694824</ele>
        <time>2020-10-24T11:23:46.000Z</time>
      </trkpt>
      <trkpt lat="46.50695" lon="5.16543">
        <ele>198.19999694824</ele>
        <time>2020-10-24T11:23:48.000Z</time>
      </trkpt>
      <trkpt lat="46.50684" lon="5.16549">
        <ele>198.19999694824</ele>
        <time>2020-10-24T11:23:50.000Z</time>
      </trkpt>
      <trkpt lat="46.50678" lon="5.16553">
        <ele>198.39999389648</ele>
        <time>2020-10-24T11:23:51.000Z</time>
      </trkpt>
      <trkpt lat="46.50673" lon="5.16557">
        <ele>198.39999389648</ele>
        <time>2020-10-24T11:23:52.000Z</time>
      </trkpt>
      <trkpt lat="46.50662" lon="5.16566">
        <ele>198.39999389648</ele>
        <time>2020-10-24T11:23:54.000Z</time>
      </trkpt>
      <trkpt lat="46.50652" lon="5.16576">
        <ele>198.39999389648</ele>
        <time>2020-10-24T11:23:56.000Z</time>
      </trkpt>
      <trkpt lat="46.50641" lon="5.16586">
        <ele>198.39999389648</ele>
        <time>2020-10-24T11:23:58.000Z</time>
      </trkpt>
      <trkpt lat="46.50631" lon="5.16595">
        <ele>198.60000610352</ele>
        <time>2020-10-24T11:24:00.000Z</time>
      </trkpt>
      <trkpt lat="46.50626" lon="5.16599">
        <ele>198.60000610352</ele>
        <time>2020-10-24T11:24:01.000Z</time>
      </trkpt>
      <trkpt lat="46.50616" lon="5.16608">
        <ele>198.60000610352</ele>
        <time>2020-10-24T11:24:03.000Z</time>
      </trkpt>
      <trkpt lat="46.50606" lon="5.16618">
        <ele>198.60000610352</ele>
        <time>2020-10-24T11:24:05.000Z</time>
      </trkpt>
      <trkpt lat="46.50601" lon="5.16622">
        <ele>198.60000610352</ele>
        <time>2020-10-24T11:24:06.000Z</time>
      </trkpt>
      <trkpt lat="46.50589" lon="5.16631">
        <ele>198.80000305176</ele>
        <time>2020-10-24T11:24:08.000Z</time>
      </trkpt>
      <trkpt lat="46.50577" lon="5.16638">
        <ele>198.80000305176</ele>
        <time>2020-10-24T11:24:10.000Z</time>
      </trkpt>
      <trkpt lat="46.50565" lon="5.16646">
        <ele>199</ele>
        <time>2020-10-24T11:24:12.000Z</time>
      </trkpt>
      <trkpt lat="46.50559" lon="5.1665">
        <ele>199</ele>
        <time>2020-10-24T11:24:13.000Z</time>
      </trkpt>
      <trkpt lat="46.50552" lon="5.16654">
        <ele>199.60000610352</ele>
        <time>2020-10-24T11:24:14.000Z</time>
      </trkpt>
      <trkpt lat="46.50545" lon="5.16657">
        <ele>199.60000610352</ele>
        <time>2020-10-24T11:24:15.000Z</time>
      </trkpt>
      <trkpt lat="46.50539" lon="5.16661">
        <ele>199.80000305176</ele>
        <time>2020-10-24T11:24:16.000Z</time>
      </trkpt>
      <trkpt lat="46.50527" lon="5.16669">
        <ele>199.80000305176</ele>
        <time>2020-10-24T11:24:18.000Z</time>
      </trkpt>
      <trkpt lat="46.50514" lon="5.16677">
        <ele>199.80000305176</ele>
        <time>2020-10-24T11:24:20.000Z</time>
      </trkpt>
      <trkpt lat="46.50501" lon="5.16685">
        <ele>199.80000305176</ele>
        <time>2020-10-24T11:24:22.000Z</time>
      </trkpt>
      <trkpt lat="46.50495" lon="5.16689">
        <ele>199.80000305176</ele>
        <time>2020-10-24T11:24:23.000Z</time>
      </trkpt>
      <trkpt lat="46.50488" lon="5.16692">
        <ele>199.80000305176</ele>
        <time>2020-10-24T11:24:24.000Z</time>
      </trkpt>
      <trkpt lat="46.50476" lon="5.167">
        <ele>199.39999389648</ele>
        <time>2020-10-24T11:24:26.000Z</time>
      </trkpt>
      <trkpt lat="46.50462" lon="5.16707">
        <ele>199.19999694824</ele>
        <time>2020-10-24T11:24:28.000Z</time>
      </trkpt>
      <trkpt lat="46.50455" lon="5.16709">
        <ele>199</ele>
        <time>2020-10-24T11:24:29.000Z</time>
      </trkpt>
      <trkpt lat="46.50448" lon="5.16711">
        <ele>199</ele>
        <time>2020-10-24T11:24:30.000Z</time>
      </trkpt>
      <trkpt lat="46.50441" lon="5.16711">
        <ele>199</ele>
        <time>2020-10-24T11:24:31.000Z</time>
      </trkpt>
      <trkpt lat="46.50427" lon="5.16711">
        <ele>199</ele>
        <time>2020-10-24T11:24:33.000Z</time>
      </trkpt>
      <trkpt lat="46.5042" lon="5.16709">
        <ele>198.80000305176</ele>
        <time>2020-10-24T11:24:34.000Z</time>
      </trkpt>
      <trkpt lat="46.50413" lon="5.16708">
        <ele>198.80000305176</ele>
        <time>2020-10-24T11:24:35.000Z</time>
      </trkpt>
      <trkpt lat="46.50399" lon="5.16704">
        <ele>198.80000305176</ele>
        <time>2020-10-24T11:24:37.000Z</time>
      </trkpt>
      <trkpt lat="46.50392" lon="5.16701">
        <ele>198.60000610352</ele>
        <time>2020-10-24T11:24:38.000Z</time>
      </trkpt>
      <trkpt lat="46.50385" lon="5.16699">
        <ele>198.39999389648</ele>
        <time>2020-10-24T11:24:39.000Z</time>
      </trkpt>
      <trkpt lat="46.50372" lon="5.16695">
        <ele>198</ele>
        <time>2020-10-24T11:24:41.000Z</time>
      </trkpt>
      <trkpt lat="46.50358" lon="5.16691">
        <ele>197.60000610352</ele>
        <time>2020-10-24T11:24:43.000Z</time>
      </trkpt>
      <trkpt lat="46.50351" lon="5.16688">
        <ele>197.60000610352</ele>
        <time>2020-10-24T11:24:44.000Z</time>
      </trkpt>
      <trkpt lat="46.50345" lon="5.16684">
        <ele>197.60000610352</ele>
        <time>2020-10-24T11:24:45.000Z</time>
      </trkpt>
      <trkpt lat="46.50334" lon="5.16675">
        <ele>197.39999389648</ele>
        <time>2020-10-24T11:24:47.000Z</time>
      </trkpt>
      <trkpt lat="46.50324" lon="5.16663">
        <ele>197.19999694824</ele>
        <time>2020-10-24T11:24:49.000Z</time>
      </trkpt>
      <trkpt lat="46.50314" lon="5.16651">
        <ele>197.19999694824</ele>
        <time>2020-10-24T11:24:51.000Z</time>
      </trkpt>
      <trkpt lat="46.50307" lon="5.16641">
        <ele>197.19999694824</ele>
        <time>2020-10-24T11:24:53.000Z</time>
      </trkpt>
      <trkpt lat="46.50307" lon="5.16636">
        <ele>197.19999694824</ele>
        <time>2020-10-24T11:24:54.000Z</time>
      </trkpt>
      <trkpt lat="46.50309" lon="5.16633">
        <ele>197.19999694824</ele>
        <time>2020-10-24T11:24:55.000Z</time>
      </trkpt>
      <trkpt lat="46.50314" lon="5.16625">
        <ele>197.19999694824</ele>
        <time>2020-10-24T11:24:57.000Z</time>
      </trkpt>
      <trkpt lat="46.50318" lon="5.16615">
        <ele>197.19999694824</ele>
        <time>2020-10-24T11:24:59.000Z</time>
      </trkpt>
      <trkpt lat="46.50321" lon="5.16606">
        <ele>197.80000305176</ele>
        <time>2020-10-24T11:25:01.000Z</time>
      </trkpt>
      <trkpt lat="46.50322" lon="5.16604">
        <ele>198.19999694824</ele>
        <time>2020-10-24T11:25:02.000Z</time>
      </trkpt>
      <trkpt lat="46.50322" lon="5.16603">
        <ele>198.80000305176</ele>
        <time>2020-10-24T11:25:04.000Z</time>
      </trkpt>
      <trkpt lat="46.50321" lon="5.16608">
        <ele>199.19999694824</ele>
        <time>2020-10-24T11:26:24.000Z</time>
      </trkpt>
      <trkpt lat="46.50319" lon="5.16613">
        <ele>199</ele>
        <time>2020-10-24T11:26:26.000Z</time>
      </trkpt>
      <trkpt lat="46.50316" lon="5.16621">
        <ele>199</ele>
        <time>2020-10-24T11:26:28.000Z</time>
      </trkpt>
      <trkpt lat="46.50314" lon="5.16626">
        <ele>199</ele>
        <time>2020-10-24T11:26:29.000Z</time>
      </trkpt>
      <trkpt lat="46.50311" lon="5.16631">
        <ele>199</ele>
        <time>2020-10-24T11:26:30.000Z</time>
      </trkpt>
      <trkpt lat="46.50302" lon="5.16634">
        <ele>198.80000305176</ele>
        <time>2020-10-24T11:26:32.000Z</time>
      </trkpt>
      <trkpt lat="46.50297" lon="5.16632">
        <ele>198.80000305176</ele>
        <time>2020-10-24T11:26:33.000Z</time>
      </trkpt>
      <trkpt lat="46.50292" lon="5.1663">
        <ele>198.60000610352</ele>
        <time>2020-10-24T11:26:34.000Z</time>
      </trkpt>
      <trkpt lat="46.5028" lon="5.16625">
        <ele>198.39999389648</ele>
        <time>2020-10-24T11:26:36.000Z</time>
      </trkpt>
      <trkpt lat="46.50267" lon="5.16622">
        <ele>198.19999694824</ele>
        <time>2020-10-24T11:26:38.000Z</time>
      </trkpt>
      <trkpt lat="46.50255" lon="5.16621">
        <ele>198</ele>
        <time>2020-10-24T11:26:40.000Z</time>
      </trkpt>
      <trkpt lat="46.50242" lon="5.16622">
        <ele>197.80000305176</ele>
        <time>2020-10-24T11:26:42.000Z</time>
      </trkpt>
      <trkpt lat="46.5023" lon="5.16623">
        <ele>197.60000610352</ele>
        <time>2020-10-24T11:26:44.000Z</time>
      </trkpt>
      <trkpt lat="46.50224" lon="5.16623">
        <ele>197.60000610352</ele>
        <time>2020-10-24T11:26:45.000Z</time>
      </trkpt>
      <trkpt lat="46.50218" lon="5.16623">
        <ele>197.60000610352</ele>
        <time>2020-10-24T11:26:46.000Z</time>
      </trkpt>
      <trkpt lat="46.50206" lon="5.16624">
        <ele>197.60000610352</ele>
        <time>2020-10-24T11:26:48.000Z</time>
      </trkpt>
      <trkpt lat="46.50194" lon="5.16624">
        <ele>197.60000610352</ele>
        <time>2020-10-24T11:26:50.000Z</time>
      </trkpt>
      <trkpt lat="46.50183" lon="5.16625">
        <ele>197.60000610352</ele>
        <time>2020-10-24T11:26:52.000Z</time>
      </trkpt>
      <trkpt lat="46.50171" lon="5.16626">
        <ele>197.60000610352</ele>
        <time>2020-10-24T11:26:54.000Z</time>
      </trkpt>
      <trkpt lat="46.5016" lon="5.16627">
        <ele>197.80000305176</ele>
        <time>2020-10-24T11:26:56.000Z</time>
      </trkpt>
      <trkpt lat="46.5015" lon="5.16628">
        <ele>198</ele>
        <time>2020-10-24T11:26:58.000Z</time>
      </trkpt>
      <trkpt lat="46.50139" lon="5.16628">
        <ele>198</ele>
        <time>2020-10-24T11:27:00.000Z</time>
      </trkpt>
      <trkpt lat="46.50129" lon="5.16629">
        <ele>198.39999389648</ele>
        <time>2020-10-24T11:27:02.000Z</time>
      </trkpt>
      <trkpt lat="46.50118" lon="5.16628">
        <ele>198.80000305176</ele>
        <time>2020-10-24T11:27:04.000Z</time>
      </trkpt>
      <trkpt lat="46.50113" lon="5.16628">
        <ele>198.80000305176</ele>
        <time>2020-10-24T11:27:05.000Z</time>
      </trkpt>
      <trkpt lat="46.50107" lon="5.16627">
        <ele>199.19999694824</ele>
        <time>2020-10-24T11:27:06.000Z</time>
      </trkpt>
      <trkpt lat="46.50097" lon="5.16626">
        <ele>199.60000610352</ele>
        <time>2020-10-24T11:27:08.000Z</time>
      </trkpt>
      <trkpt lat="46.50086" lon="5.16624">
        <ele>199.80000305176</ele>
        <time>2020-10-24T11:27:10.000Z</time>
      </trkpt>
      <trkpt lat="46.50076" lon="5.16621">
        <ele>200</ele>
        <time>2020-10-24T11:27:12.000Z</time>
      </trkpt>
      <trkpt lat="46.50071" lon="5.1662">
        <ele>200.19999694824</ele>
        <time>2020-10-24T11:27:13.000Z</time>
      </trkpt>
      <trkpt lat="46.50065" lon="5.16618">
        <ele>200.39999389648</ele>
        <time>2020-10-24T11:27:14.000Z</time>
      </trkpt>
      <trkpt lat="46.5006" lon="5.16617">
        <ele>201</ele>
        <time>2020-10-24T11:27:15.000Z</time>
      </trkpt>
      <trkpt lat="46.50055" lon="5.16616">
        <ele>201.39999389648</ele>
        <time>2020-10-24T11:27:16.000Z</time>
      </trkpt>
      <trkpt lat="46.5005" lon="5.16614">
        <ele>201.60000610352</ele>
        <time>2020-10-24T11:27:17.000Z</time>
      </trkpt>
      <trkpt lat="46.50045" lon="5.16613">
        <ele>201.80000305176</ele>
        <time>2020-10-24T11:27:18.000Z</time>
      </trkpt>
      <trkpt lat="46.50034" lon="5.16609">
        <ele>201.80000305176</ele>
        <time>2020-10-24T11:27:20.000Z</time>
      </trkpt>
      <trkpt lat="46.50024" lon="5.16606">
        <ele>202.19999694824</ele>
        <time>2020-10-24T11:27:22.000Z</time>
      </trkpt>
      <trkpt lat="46.50014" lon="5.16603">
        <ele>202.19999694824</ele>
        <time>2020-10-24T11:27:24.000Z</time>
      </trkpt>
      <trkpt lat="46.50003" lon="5.166">
        <ele>202.39999389648</ele>
        <time>2020-10-24T11:27:26.000Z</time>
      </trkpt>
      <trkpt lat="46.49992" lon="5.16596">
        <ele>202.60000610352</ele>
        <time>2020-10-24T11:27:28.000Z</time>
      </trkpt>
      <trkpt lat="46.49982" lon="5.16593">
        <ele>203.19999694824</ele>
        <time>2020-10-24T11:27:30.000Z</time>
      </trkpt>
      <trkpt lat="46.49971" lon="5.1659">
        <ele>203.19999694824</ele>
        <time>2020-10-24T11:27:32.000Z</time>
      </trkpt>
      <trkpt lat="46.4996" lon="5.16586">
        <ele>203.39999389648</ele>
        <time>2020-10-24T11:27:34.000Z</time>
      </trkpt>
      <trkpt lat="46.4995" lon="5.16583">
        <ele>203.60000610352</ele>
        <time>2020-10-24T11:27:36.000Z</time>
      </trkpt>
      <trkpt lat="46.49944" lon="5.16581">
        <ele>203.80000305176</ele>
        <time>2020-10-24T11:27:37.000Z</time>
      </trkpt>
      <trkpt lat="46.49938" lon="5.1658">
        <ele>204</ele>
        <time>2020-10-24T11:27:38.000Z</time>
      </trkpt>
      <trkpt lat="46.49927" lon="5.16577">
        <ele>204.19999694824</ele>
        <time>2020-10-24T11:27:40.000Z</time>
      </trkpt>
      <trkpt lat="46.49916" lon="5.16574">
        <ele>204.39999389648</ele>
        <time>2020-10-24T11:27:42.000Z</time>
      </trkpt>
      <trkpt lat="46.49904" lon="5.16572">
        <ele>204.39999389648</ele>
        <time>2020-10-24T11:27:44.000Z</time>
      </trkpt>
      <trkpt lat="46.49899" lon="5.16572">
        <ele>204.39999389648</ele>
        <time>2020-10-24T11:27:45.000Z</time>
      </trkpt>
      <trkpt lat="46.49893" lon="5.16571">
        <ele>204.39999389648</ele>
        <time>2020-10-24T11:27:46.000Z</time>
      </trkpt>
      <trkpt lat="46.49882" lon="5.1657">
        <ele>204.60000610352</ele>
        <time>2020-10-24T11:27:48.000Z</time>
      </trkpt>
      <trkpt lat="46.4987" lon="5.16568">
        <ele>204.60000610352</ele>
        <time>2020-10-24T11:27:50.000Z</time>
      </trkpt>
      <trkpt lat="46.49858" lon="5.16566">
        <ele>204.60000610352</ele>
        <time>2020-10-24T11:27:52.000Z</time>
      </trkpt>
      <trkpt lat="46.49853" lon="5.16565">
        <ele>204.60000610352</ele>
        <time>2020-10-24T11:27:53.000Z</time>
      </trkpt>
      <trkpt lat="46.49847" lon="5.16564">
        <ele>204.60000610352</ele>
        <time>2020-10-24T11:27:54.000Z</time>
      </trkpt>
      <trkpt lat="46.49836" lon="5.16562">
        <ele>204.80000305176</ele>
        <time>2020-10-24T11:27:56.000Z</time>
      </trkpt>
      <trkpt lat="46.49824" lon="5.16561">
        <ele>204.80000305176</ele>
        <time>2020-10-24T11:27:58.000Z</time>
      </trkpt>
      <trkpt lat="46.49813" lon="5.16559">
        <ele>205</ele>
        <time>2020-10-24T11:28:00.000Z</time>
      </trkpt>
      <trkpt lat="46.49801" lon="5.16557">
        <ele>205</ele>
        <time>2020-10-24T11:28:02.000Z</time>
      </trkpt>
      <trkpt lat="46.4979" lon="5.16555">
        <ele>205</ele>
        <time>2020-10-24T11:28:04.000Z</time>
      </trkpt>
      <trkpt lat="46.49778" lon="5.16553">
        <ele>205</ele>
        <time>2020-10-24T11:28:06.000Z</time>
      </trkpt>
      <trkpt lat="46.49767" lon="5.16551">
        <ele>205.19999694824</ele>
        <time>2020-10-24T11:28:08.000Z</time>
      </trkpt>
      <trkpt lat="46.49756" lon="5.16549">
        <ele>205.60000610352</ele>
        <time>2020-10-24T11:28:10.000Z</time>
      </trkpt>
      <trkpt lat="46.49745" lon="5.16548">
        <ele>205.80000305176</ele>
        <time>2020-10-24T11:28:12.000Z</time>
      </trkpt>
      <trkpt lat="46.4974" lon="5.16547">
        <ele>206</ele>
        <time>2020-10-24T11:28:13.000Z</time>
      </trkpt>
      <trkpt lat="46.49734" lon="5.16547">
        <ele>206.19999694824</ele>
        <time>2020-10-24T11:28:14.000Z</time>
      </trkpt>
      <trkpt lat="46.49724" lon="5.16546">
        <ele>206.39999389648</ele>
        <time>2020-10-24T11:28:16.000Z</time>
      </trkpt>
      <trkpt lat="46.49714" lon="5.16546">
        <ele>206.80000305176</ele>
        <time>2020-10-24T11:28:18.000Z</time>
      </trkpt>
      <trkpt lat="46.49704" lon="5.16547">
        <ele>207.39999389648</ele>
        <time>2020-10-24T11:28:20.000Z</time>
      </trkpt>
      <trkpt lat="46.497" lon="5.16547">
        <ele>207.60000610352</ele>
        <time>2020-10-24T11:28:21.000Z</time>
      </trkpt>
      <trkpt lat="46.49696" lon="5.16549">
        <ele>207.60000610352</ele>
        <time>2020-10-24T11:28:22.000Z</time>
      </trkpt>
      <trkpt lat="46.49692" lon="5.16549">
        <ele>207.80000305176</ele>
        <time>2020-10-24T11:28:23.000Z</time>
      </trkpt>
      <trkpt lat="46.49687" lon="5.1655">
        <ele>207.80000305176</ele>
        <time>2020-10-24T11:28:24.000Z</time>
      </trkpt>
      <trkpt lat="46.49683" lon="5.1655">
        <ele>207.80000305176</ele>
        <time>2020-10-24T11:28:25.000Z</time>
      </trkpt>
      <trkpt lat="46.49679" lon="5.16551">
        <ele>208.39999389648</ele>
        <time>2020-10-24T11:28:26.000Z</time>
      </trkpt>
      <trkpt lat="46.49671" lon="5.16553">
        <ele>209</ele>
        <time>2020-10-24T11:28:28.000Z</time>
      </trkpt>
      <trkpt lat="46.49663" lon="5.16556">
        <ele>209.39999389648</ele>
        <time>2020-10-24T11:28:30.000Z</time>
      </trkpt>
      <trkpt lat="46.49655" lon="5.16558">
        <ele>209.80000305176</ele>
        <time>2020-10-24T11:28:32.000Z</time>
      </trkpt>
      <trkpt lat="46.49651" lon="5.1656">
        <ele>210</ele>
        <time>2020-10-24T11:28:33.000Z</time>
      </trkpt>
      <trkpt lat="46.49646" lon="5.16562">
        <ele>210</ele>
        <time>2020-10-24T11:28:34.000Z</time>
      </trkpt>
      <trkpt lat="46.49638" lon="5.16566">
        <ele>210.60000610352</ele>
        <time>2020-10-24T11:28:36.000Z</time>
      </trkpt>
      <trkpt lat="46.49628" lon="5.16569">
        <ele>211</ele>
        <time>2020-10-24T11:28:38.000Z</time>
      </trkpt>
      <trkpt lat="46.49624" lon="5.16571">
        <ele>211.19999694824</ele>
        <time>2020-10-24T11:28:39.000Z</time>
      </trkpt>
      <trkpt lat="46.49619" lon="5.16573">
        <ele>211.39999389648</ele>
        <time>2020-10-24T11:28:40.000Z</time>
      </trkpt>
      <trkpt lat="46.4961" lon="5.16576">
        <ele>212.19999694824</ele>
        <time>2020-10-24T11:28:42.000Z</time>
      </trkpt>
      <trkpt lat="46.496" lon="5.1658">
        <ele>212.60000610352</ele>
        <time>2020-10-24T11:28:44.000Z</time>
      </trkpt>
      <trkpt lat="46.49591" lon="5.16584">
        <ele>212.80000305176</ele>
        <time>2020-10-24T11:28:46.000Z</time>
      </trkpt>
      <trkpt lat="46.49581" lon="5.16588">
        <ele>213</ele>
        <time>2020-10-24T11:28:48.000Z</time>
      </trkpt>
      <trkpt lat="46.49571" lon="5.16592">
        <ele>213.39999389648</ele>
        <time>2020-10-24T11:28:50.000Z</time>
      </trkpt>
      <trkpt lat="46.49566" lon="5.16595">
        <ele>213.60000610352</ele>
        <time>2020-10-24T11:28:51.000Z</time>
      </trkpt>
      <trkpt lat="46.4956" lon="5.16597">
        <ele>213.80000305176</ele>
        <time>2020-10-24T11:28:52.000Z</time>
      </trkpt>
      <trkpt lat="46.49549" lon="5.16601">
        <ele>214.39999389648</ele>
        <time>2020-10-24T11:28:54.000Z</time>
      </trkpt>
      <trkpt lat="46.49543" lon="5.16603">
        <ele>214.39999389648</ele>
        <time>2020-10-24T11:28:55.000Z</time>
      </trkpt>
      <trkpt lat="46.49537" lon="5.16606">
        <ele>214.60000610352</ele>
        <time>2020-10-24T11:28:56.000Z</time>
      </trkpt>
      <trkpt lat="46.49525" lon="5.1661">
        <ele>214.60000610352</ele>
        <time>2020-10-24T11:28:58.000Z</time>
      </trkpt>
      <trkpt lat="46.49512" lon="5.16615">
        <ele>214.60000610352</ele>
        <time>2020-10-24T11:29:00.000Z</time>
      </trkpt>
      <trkpt lat="46.49499" lon="5.16621">
        <ele>214.60000610352</ele>
        <time>2020-10-24T11:29:02.000Z</time>
      </trkpt>
      <trkpt lat="46.49492" lon="5.16623">
        <ele>214.60000610352</ele>
        <time>2020-10-24T11:29:03.000Z</time>
      </trkpt>
      <trkpt lat="46.49485" lon="5.16625">
        <ele>214.60000610352</ele>
        <time>2020-10-24T11:29:04.000Z</time>
      </trkpt>
      <trkpt lat="46.4947" lon="5.16628">
        <ele>214.19999694824</ele>
        <time>2020-10-24T11:29:06.000Z</time>
      </trkpt>
      <trkpt lat="46.49455" lon="5.1663">
        <ele>214</ele>
        <time>2020-10-24T11:29:08.000Z</time>
      </trkpt>
      <trkpt lat="46.49447" lon="5.16631">
        <ele>213.60000610352</ele>
        <time>2020-10-24T11:29:09.000Z</time>
      </trkpt>
      <trkpt lat="46.4944" lon="5.16631">
        <ele>213.39999389648</ele>
        <time>2020-10-24T11:29:10.000Z</time>
      </trkpt>
      <trkpt lat="46.49424" lon="5.16631">
        <ele>213</ele>
        <time>2020-10-24T11:29:12.000Z</time>
      </trkpt>
      <trkpt lat="46.49409" lon="5.16631">
        <ele>212.39999389648</ele>
        <time>2020-10-24T11:29:14.000Z</time>
      </trkpt>
      <trkpt lat="46.49394" lon="5.16631">
        <ele>211.60000610352</ele>
        <time>2020-10-24T11:29:16.000Z</time>
      </trkpt>
      <trkpt lat="46.49386" lon="5.16631">
        <ele>211.39999389648</ele>
        <time>2020-10-24T11:29:17.000Z</time>
      </trkpt>
      <trkpt lat="46.49379" lon="5.1663">
        <ele>211.19999694824</ele>
        <time>2020-10-24T11:29:18.000Z</time>
      </trkpt>
      <trkpt lat="46.49371" lon="5.1663">
        <ele>211.19999694824</ele>
        <time>2020-10-24T11:29:19.000Z</time>
      </trkpt>
      <trkpt lat="46.49364" lon="5.1663">
        <ele>211.19999694824</ele>
        <time>2020-10-24T11:29:20.000Z</time>
      </trkpt>
      <trkpt lat="46.49349" lon="5.1663">
        <ele>211</ele>
        <time>2020-10-24T11:29:22.000Z</time>
      </trkpt>
      <trkpt lat="46.49334" lon="5.16629">
        <ele>211</ele>
        <time>2020-10-24T11:29:24.000Z</time>
      </trkpt>
      <trkpt lat="46.4932" lon="5.16629">
        <ele>210.80000305176</ele>
        <time>2020-10-24T11:29:26.000Z</time>
      </trkpt>
      <trkpt lat="46.49305" lon="5.16629">
        <ele>210.80000305176</ele>
        <time>2020-10-24T11:29:28.000Z</time>
      </trkpt>
      <trkpt lat="46.4929" lon="5.16628">
        <ele>210.80000305176</ele>
        <time>2020-10-24T11:29:30.000Z</time>
      </trkpt>
      <trkpt lat="46.49282" lon="5.16628">
        <ele>210.80000305176</ele>
        <time>2020-10-24T11:29:31.000Z</time>
      </trkpt>
      <trkpt lat="46.49275" lon="5.16628">
        <ele>210.80000305176</ele>
        <time>2020-10-24T11:29:32.000Z</time>
      </trkpt>
      <trkpt lat="46.49259" lon="5.16628">
        <ele>210.60000610352</ele>
        <time>2020-10-24T11:29:34.000Z</time>
      </trkpt>
      <trkpt lat="46.49244" lon="5.16629">
        <ele>210.60000610352</ele>
        <time>2020-10-24T11:29:36.000Z</time>
      </trkpt>
      <trkpt lat="46.49228" lon="5.16631">
        <ele>210.60000610352</ele>
        <time>2020-10-24T11:29:38.000Z</time>
      </trkpt>
      <trkpt lat="46.4922" lon="5.16633">
        <ele>210.60000610352</ele>
        <time>2020-10-24T11:29:39.000Z</time>
      </trkpt>
      <trkpt lat="46.49213" lon="5.16635">
        <ele>210.39999389648</ele>
        <time>2020-10-24T11:29:40.000Z</time>
      </trkpt>
      <trkpt lat="46.49197" lon="5.1664">
        <ele>210.39999389648</ele>
        <time>2020-10-24T11:29:42.000Z</time>
      </trkpt>
      <trkpt lat="46.49182" lon="5.16646">
        <ele>210.19999694824</ele>
        <time>2020-10-24T11:29:44.000Z</time>
      </trkpt>
      <trkpt lat="46.49168" lon="5.16652">
        <ele>209.80000305176</ele>
        <time>2020-10-24T11:29:46.000Z</time>
      </trkpt>
      <trkpt lat="46.4916" lon="5.16654">
        <ele>209.80000305176</ele>
        <time>2020-10-24T11:29:47.000Z</time>
      </trkpt>
      <trkpt lat="46.49153" lon="5.16657">
        <ele>209.60000610352</ele>
        <time>2020-10-24T11:29:48.000Z</time>
      </trkpt>
      <trkpt lat="46.49139" lon="5.16662">
        <ele>209.60000610352</ele>
        <time>2020-10-24T11:29:50.000Z</time>
      </trkpt>
      <trkpt lat="46.49125" lon="5.16667">
        <ele>209.60000610352</ele>
        <time>2020-10-24T11:29:52.000Z</time>
      </trkpt>
      <trkpt lat="46.49112" lon="5.16673">
        <ele>209.60000610352</ele>
        <time>2020-10-24T11:29:54.000Z</time>
      </trkpt>
      <trkpt lat="46.49105" lon="5.16676">
        <ele>209.60000610352</ele>
        <time>2020-10-24T11:29:55.000Z</time>
      </trkpt>
      <trkpt lat="46.49098" lon="5.16678">
        <ele>209.60000610352</ele>
        <time>2020-10-24T11:29:56.000Z</time>
      </trkpt>
      <trkpt lat="46.49085" lon="5.16683">
        <ele>209.60000610352</ele>
        <time>2020-10-24T11:29:58.000Z</time>
      </trkpt>
      <trkpt lat="46.49072" lon="5.16687">
        <ele>209.60000610352</ele>
        <time>2020-10-24T11:30:00.000Z</time>
      </trkpt>
      <trkpt lat="46.49059" lon="5.16692">
        <ele>209.80000305176</ele>
        <time>2020-10-24T11:30:02.000Z</time>
      </trkpt>
      <trkpt lat="46.49053" lon="5.16694">
        <ele>209.80000305176</ele>
        <time>2020-10-24T11:30:03.000Z</time>
      </trkpt>
      <trkpt lat="46.49046" lon="5.16697">
        <ele>209.80000305176</ele>
        <time>2020-10-24T11:30:04.000Z</time>
      </trkpt>
      <trkpt lat="46.49033" lon="5.16701">
        <ele>210</ele>
        <time>2020-10-24T11:30:06.000Z</time>
      </trkpt>
      <trkpt lat="46.49021" lon="5.16706">
        <ele>210</ele>
        <time>2020-10-24T11:30:08.000Z</time>
      </trkpt>
      <trkpt lat="46.49008" lon="5.16712">
        <ele>210.19999694824</ele>
        <time>2020-10-24T11:30:10.000Z</time>
      </trkpt>
      <trkpt lat="46.48996" lon="5.16718">
        <ele>210.19999694824</ele>
        <time>2020-10-24T11:30:12.000Z</time>
      </trkpt>
      <trkpt lat="46.48983" lon="5.16723">
        <ele>210.19999694824</ele>
        <time>2020-10-24T11:30:14.000Z</time>
      </trkpt>
      <trkpt lat="46.48971" lon="5.16729">
        <ele>210.19999694824</ele>
        <time>2020-10-24T11:30:16.000Z</time>
      </trkpt>
      <trkpt lat="46.48959" lon="5.16735">
        <ele>210.39999389648</ele>
        <time>2020-10-24T11:30:18.000Z</time>
      </trkpt>
      <trkpt lat="46.48947" lon="5.16741">
        <ele>210.39999389648</ele>
        <time>2020-10-24T11:30:20.000Z</time>
      </trkpt>
      <trkpt lat="46.48941" lon="5.16744">
        <ele>210.39999389648</ele>
        <time>2020-10-24T11:30:21.000Z</time>
      </trkpt>
      <trkpt lat="46.48935" lon="5.16747">
        <ele>210.60000610352</ele>
        <time>2020-10-24T11:30:22.000Z</time>
      </trkpt>
      <trkpt lat="46.48923" lon="5.16753">
        <ele>210.80000305176</ele>
        <time>2020-10-24T11:30:24.000Z</time>
      </trkpt>
      <trkpt lat="46.48912" lon="5.16759">
        <ele>211</ele>
        <time>2020-10-24T11:30:26.000Z</time>
      </trkpt>
      <trkpt lat="46.489" lon="5.16765">
        <ele>211.39999389648</ele>
        <time>2020-10-24T11:30:28.000Z</time>
      </trkpt>
      <trkpt lat="46.48895" lon="5.16768">
        <ele>211.39999389648</ele>
        <time>2020-10-24T11:30:29.000Z</time>
      </trkpt>
      <trkpt lat="46.48889" lon="5.16771">
        <ele>211.60000610352</ele>
        <time>2020-10-24T11:30:30.000Z</time>
      </trkpt>
      <trkpt lat="46.48879" lon="5.16777">
        <ele>211.60000610352</ele>
        <time>2020-10-24T11:30:32.000Z</time>
      </trkpt>
      <trkpt lat="46.48868" lon="5.16783">
        <ele>211.80000305176</ele>
        <time>2020-10-24T11:30:34.000Z</time>
      </trkpt>
      <trkpt lat="46.48857" lon="5.1679">
        <ele>211.80000305176</ele>
        <time>2020-10-24T11:30:36.000Z</time>
      </trkpt>
      <trkpt lat="46.48847" lon="5.16796">
        <ele>212</ele>
        <time>2020-10-24T11:30:38.000Z</time>
      </trkpt>
      <trkpt lat="46.48835" lon="5.16803">
        <ele>212.19999694824</ele>
        <time>2020-10-24T11:30:40.000Z</time>
      </trkpt>
      <trkpt lat="46.48824" lon="5.16809">
        <ele>212.60000610352</ele>
        <time>2020-10-24T11:30:42.000Z</time>
      </trkpt>
      <trkpt lat="46.48818" lon="5.16812">
        <ele>212.80000305176</ele>
        <time>2020-10-24T11:30:43.000Z</time>
      </trkpt>
      <trkpt lat="46.48813" lon="5.16815">
        <ele>213</ele>
        <time>2020-10-24T11:30:44.000Z</time>
      </trkpt>
      <trkpt lat="46.488" lon="5.16821">
        <ele>213.39999389648</ele>
        <time>2020-10-24T11:30:46.000Z</time>
      </trkpt>
      <trkpt lat="46.48788" lon="5.16825">
        <ele>213.60000610352</ele>
        <time>2020-10-24T11:30:48.000Z</time>
      </trkpt>
      <trkpt lat="46.48775" lon="5.16828">
        <ele>213.60000610352</ele>
        <time>2020-10-24T11:30:50.000Z</time>
      </trkpt>
      <trkpt lat="46.48762" lon="5.1683">
        <ele>213.60000610352</ele>
        <time>2020-10-24T11:30:52.000Z</time>
      </trkpt>
      <trkpt lat="46.48749" lon="5.16832">
        <ele>213.60000610352</ele>
        <time>2020-10-24T11:30:54.000Z</time>
      </trkpt>
      <trkpt lat="46.48736" lon="5.16834">
        <ele>213.60000610352</ele>
        <time>2020-10-24T11:30:56.000Z</time>
      </trkpt>
      <trkpt lat="46.48723" lon="5.16836">
        <ele>213.60000610352</ele>
        <time>2020-10-24T11:30:58.000Z</time>
      </trkpt>
      <trkpt lat="46.4871" lon="5.16838">
        <ele>213.60000610352</ele>
        <time>2020-10-24T11:31:00.000Z</time>
      </trkpt>
      <trkpt lat="46.48697" lon="5.1684">
        <ele>213.39999389648</ele>
        <time>2020-10-24T11:31:02.000Z</time>
      </trkpt>
      <trkpt lat="46.48683" lon="5.16841">
        <ele>213.39999389648</ele>
        <time>2020-10-24T11:31:04.000Z</time>
      </trkpt>
      <trkpt lat="46.4867" lon="5.16843">
        <ele>213.39999389648</ele>
        <time>2020-10-24T11:31:06.000Z</time>
      </trkpt>
      <trkpt lat="46.48656" lon="5.16845">
        <ele>213.39999389648</ele>
        <time>2020-10-24T11:31:08.000Z</time>
      </trkpt>
      <trkpt lat="46.48643" lon="5.16847">
        <ele>213.19999694824</ele>
        <time>2020-10-24T11:31:10.000Z</time>
      </trkpt>
      <trkpt lat="46.48629" lon="5.16848">
        <ele>213.19999694824</ele>
        <time>2020-10-24T11:31:12.000Z</time>
      </trkpt>
      <trkpt lat="46.48616" lon="5.16849">
        <ele>213.19999694824</ele>
        <time>2020-10-24T11:31:14.000Z</time>
      </trkpt>
      <trkpt lat="46.48602" lon="5.16849">
        <ele>213.19999694824</ele>
        <time>2020-10-24T11:31:16.000Z</time>
      </trkpt>
      <trkpt lat="46.48589" lon="5.16849">
        <ele>213.19999694824</ele>
        <time>2020-10-24T11:31:18.000Z</time>
      </trkpt>
      <trkpt lat="46.48582" lon="5.16848">
        <ele>213.19999694824</ele>
        <time>2020-10-24T11:31:19.000Z</time>
      </trkpt>
      <trkpt lat="46.48576" lon="5.16846">
        <ele>212.80000305176</ele>
        <time>2020-10-24T11:31:20.000Z</time>
      </trkpt>
      <trkpt lat="46.48562" lon="5.16844">
        <ele>213</ele>
        <time>2020-10-24T11:31:22.000Z</time>
      </trkpt>
      <trkpt lat="46.48549" lon="5.1684">
        <ele>212.80000305176</ele>
        <time>2020-10-24T11:31:24.000Z</time>
      </trkpt>
      <trkpt lat="46.48536" lon="5.16834">
        <ele>212.80000305176</ele>
        <time>2020-10-24T11:31:26.000Z</time>
      </trkpt>
      <trkpt lat="46.4853" lon="5.16831">
        <ele>212.80000305176</ele>
        <time>2020-10-24T11:31:27.000Z</time>
      </trkpt>
      <trkpt lat="46.48524" lon="5.16828">
        <ele>212.80000305176</ele>
        <time>2020-10-24T11:31:28.000Z</time>
      </trkpt>
      <trkpt lat="46.48512" lon="5.16821">
        <ele>212.80000305176</ele>
        <time>2020-10-24T11:31:30.000Z</time>
      </trkpt>
      <trkpt lat="46.48501" lon="5.16814">
        <ele>212.80000305176</ele>
        <time>2020-10-24T11:31:32.000Z</time>
      </trkpt>
      <trkpt lat="46.4849" lon="5.16807">
        <ele>212.80000305176</ele>
        <time>2020-10-24T11:31:34.000Z</time>
      </trkpt>
      <trkpt lat="46.48479" lon="5.168">
        <ele>213</ele>
        <time>2020-10-24T11:31:36.000Z</time>
      </trkpt>
      <trkpt lat="46.48469" lon="5.16793">
        <ele>213</ele>
        <time>2020-10-24T11:31:38.000Z</time>
      </trkpt>
      <trkpt lat="46.48458" lon="5.16786">
        <ele>213.39999389648</ele>
        <time>2020-10-24T11:31:40.000Z</time>
      </trkpt>
      <trkpt lat="46.48448" lon="5.16779">
        <ele>214.39999389648</ele>
        <time>2020-10-24T11:31:42.000Z</time>
      </trkpt>
      <trkpt lat="46.48438" lon="5.16772">
        <ele>214.80000305176</ele>
        <time>2020-10-24T11:31:44.000Z</time>
      </trkpt>
      <trkpt lat="46.48428" lon="5.16765">
        <ele>215</ele>
        <time>2020-10-24T11:31:46.000Z</time>
      </trkpt>
      <trkpt lat="46.48423" lon="5.16762">
        <ele>215.19999694824</ele>
        <time>2020-10-24T11:31:47.000Z</time>
      </trkpt>
      <trkpt lat="46.48418" lon="5.16759">
        <ele>215.60000610352</ele>
        <time>2020-10-24T11:31:48.000Z</time>
      </trkpt>
      <trkpt lat="46.48408" lon="5.16752">
        <ele>216</ele>
        <time>2020-10-24T11:31:50.000Z</time>
      </trkpt>
      <trkpt lat="46.48397" lon="5.16746">
        <ele>216.39999389648</ele>
        <time>2020-10-24T11:31:52.000Z</time>
      </trkpt>
      <trkpt lat="46.48392" lon="5.16743">
        <ele>216.60000610352</ele>
        <time>2020-10-24T11:31:53.000Z</time>
      </trkpt>
      <trkpt lat="46.48387" lon="5.16739">
        <ele>216.80000305176</ele>
        <time>2020-10-24T11:31:54.000Z</time>
      </trkpt>
      <trkpt lat="46.48377" lon="5.16733">
        <ele>217</ele>
        <time>2020-10-24T11:31:56.000Z</time>
      </trkpt>
      <trkpt lat="46.48372" lon="5.16729">
        <ele>217</ele>
        <time>2020-10-24T11:31:57.000Z</time>
      </trkpt>
      <trkpt lat="46.48367" lon="5.16726">
        <ele>217.19999694824</ele>
        <time>2020-10-24T11:31:58.000Z</time>
      </trkpt>
      <trkpt lat="46.48356" lon="5.16719">
        <ele>217.19999694824</ele>
        <time>2020-10-24T11:32:00.000Z</time>
      </trkpt>
      <trkpt lat="46.48346" lon="5.16712">
        <ele>217.60000610352</ele>
        <time>2020-10-24T11:32:02.000Z</time>
      </trkpt>
      <trkpt lat="46.48336" lon="5.16705">
        <ele>217.60000610352</ele>
        <time>2020-10-24T11:32:04.000Z</time>
      </trkpt>
      <trkpt lat="46.48326" lon="5.16699">
        <ele>217.80000305176</ele>
        <time>2020-10-24T11:32:06.000Z</time>
      </trkpt>
      <trkpt lat="46.48316" lon="5.16692">
        <ele>217.80000305176</ele>
        <time>2020-10-24T11:32:08.000Z</time>
      </trkpt>
      <trkpt lat="46.48306" lon="5.16686">
        <ele>217.80000305176</ele>
        <time>2020-10-24T11:32:10.000Z</time>
      </trkpt>
      <trkpt lat="46.48296" lon="5.1668">
        <ele>217.80000305176</ele>
        <time>2020-10-24T11:32:12.000Z</time>
      </trkpt>
      <trkpt lat="46.48286" lon="5.16674">
        <ele>218</ele>
        <time>2020-10-24T11:32:14.000Z</time>
      </trkpt>
      <trkpt lat="46.48275" lon="5.16669">
        <ele>218</ele>
        <time>2020-10-24T11:32:16.000Z</time>
      </trkpt>
      <trkpt lat="46.48264" lon="5.16664">
        <ele>218</ele>
        <time>2020-10-24T11:32:18.000Z</time>
      </trkpt>
      <trkpt lat="46.48253" lon="5.16659">
        <ele>218.19999694824</ele>
        <time>2020-10-24T11:32:20.000Z</time>
      </trkpt>
      <trkpt lat="46.48242" lon="5.16654">
        <ele>218.39999389648</ele>
        <time>2020-10-24T11:32:22.000Z</time>
      </trkpt>
      <trkpt lat="46.48231" lon="5.16649">
        <ele>218.60000610352</ele>
        <time>2020-10-24T11:32:24.000Z</time>
      </trkpt>
      <trkpt lat="46.4822" lon="5.16644">
        <ele>218.60000610352</ele>
        <time>2020-10-24T11:32:26.000Z</time>
      </trkpt>
      <trkpt lat="46.48214" lon="5.16642">
        <ele>218.60000610352</ele>
        <time>2020-10-24T11:32:27.000Z</time>
      </trkpt>
      <trkpt lat="46.48208" lon="5.16639">
        <ele>218.60000610352</ele>
        <time>2020-10-24T11:32:28.000Z</time>
      </trkpt>
      <trkpt lat="46.48197" lon="5.16635">
        <ele>218.60000610352</ele>
        <time>2020-10-24T11:32:30.000Z</time>
      </trkpt>
      <trkpt lat="46.48186" lon="5.1663">
        <ele>218.60000610352</ele>
        <time>2020-10-24T11:32:32.000Z</time>
      </trkpt>
      <trkpt lat="46.48175" lon="5.16624">
        <ele>218.60000610352</ele>
        <time>2020-10-24T11:32:34.000Z</time>
      </trkpt>
      <trkpt lat="46.48163" lon="5.16618">
        <ele>218.60000610352</ele>
        <time>2020-10-24T11:32:36.000Z</time>
      </trkpt>
      <trkpt lat="46.48157" lon="5.16615">
        <ele>218.60000610352</ele>
        <time>2020-10-24T11:32:37.000Z</time>
      </trkpt>
      <trkpt lat="46.48152" lon="5.16612">
        <ele>218.60000610352</ele>
        <time>2020-10-24T11:32:38.000Z</time>
      </trkpt>
      <trkpt lat="46.4814" lon="5.16604">
        <ele>218.60000610352</ele>
        <time>2020-10-24T11:32:40.000Z</time>
      </trkpt>
      <trkpt lat="46.48128" lon="5.16596">
        <ele>218.60000610352</ele>
        <time>2020-10-24T11:32:42.000Z</time>
      </trkpt>
      <trkpt lat="46.48116" lon="5.16587">
        <ele>218.60000610352</ele>
        <time>2020-10-24T11:32:44.000Z</time>
      </trkpt>
      <trkpt lat="46.48105" lon="5.16577">
        <ele>218.39999389648</ele>
        <time>2020-10-24T11:32:46.000Z</time>
      </trkpt>
      <trkpt lat="46.48093" lon="5.16567">
        <ele>218.39999389648</ele>
        <time>2020-10-24T11:32:48.000Z</time>
      </trkpt>
      <trkpt lat="46.48081" lon="5.16557">
        <ele>218.39999389648</ele>
        <time>2020-10-24T11:32:50.000Z</time>
      </trkpt>
      <trkpt lat="46.48076" lon="5.16552">
        <ele>218.39999389648</ele>
        <time>2020-10-24T11:32:51.000Z</time>
      </trkpt>
      <trkpt lat="46.4807" lon="5.16547">
        <ele>218.39999389648</ele>
        <time>2020-10-24T11:32:52.000Z</time>
      </trkpt>
      <trkpt lat="46.48058" lon="5.16536">
        <ele>218.19999694824</ele>
        <time>2020-10-24T11:32:54.000Z</time>
      </trkpt>
      <trkpt lat="46.48046" lon="5.16526">
        <ele>218</ele>
        <time>2020-10-24T11:32:56.000Z</time>
      </trkpt>
      <trkpt lat="46.48033" lon="5.16516">
        <ele>218</ele>
        <time>2020-10-24T11:32:58.000Z</time>
      </trkpt>
      <trkpt lat="46.48027" lon="5.16511">
        <ele>217.80000305176</ele>
        <time>2020-10-24T11:32:59.000Z</time>
      </trkpt>
      <trkpt lat="46.4802" lon="5.16506">
        <ele>217.80000305176</ele>
        <time>2020-10-24T11:33:00.000Z</time>
      </trkpt>
      <trkpt lat="46.48007" lon="5.16496">
        <ele>217.60000610352</ele>
        <time>2020-10-24T11:33:02.000Z</time>
      </trkpt>
      <trkpt lat="46.47994" lon="5.16487">
        <ele>217.39999389648</ele>
        <time>2020-10-24T11:33:04.000Z</time>
      </trkpt>
      <trkpt lat="46.4798" lon="5.16477">
        <ele>217.19999694824</ele>
        <time>2020-10-24T11:33:06.000Z</time>
      </trkpt>
      <trkpt lat="46.47965" lon="5.16468">
        <ele>216.60000610352</ele>
        <time>2020-10-24T11:33:08.000Z</time>
      </trkpt>
      <trkpt lat="46.47951" lon="5.16457">
        <ele>216.39999389648</ele>
        <time>2020-10-24T11:33:10.000Z</time>
      </trkpt>
      <trkpt lat="46.47937" lon="5.16446">
        <ele>216.19999694824</ele>
        <time>2020-10-24T11:33:12.000Z</time>
      </trkpt>
      <trkpt lat="46.47923" lon="5.16433">
        <ele>215.80000305176</ele>
        <time>2020-10-24T11:33:14.000Z</time>
      </trkpt>
      <trkpt lat="46.4791" lon="5.1642">
        <ele>215.60000610352</ele>
        <time>2020-10-24T11:33:16.000Z</time>
      </trkpt>
      <trkpt lat="46.47897" lon="5.16407">
        <ele>215</ele>
        <time>2020-10-24T11:33:18.000Z</time>
      </trkpt>
      <trkpt lat="46.47884" lon="5.16393">
        <ele>214.39999389648</ele>
        <time>2020-10-24T11:33:20.000Z</time>
      </trkpt>
      <trkpt lat="46.47871" lon="5.1638">
        <ele>214.39999389648</ele>
        <time>2020-10-24T11:33:22.000Z</time>
      </trkpt>
      <trkpt lat="46.47859" lon="5.16366">
        <ele>214.19999694824</ele>
        <time>2020-10-24T11:33:24.000Z</time>
      </trkpt>
      <trkpt lat="46.47847" lon="5.16353">
        <ele>214</ele>
        <time>2020-10-24T11:33:26.000Z</time>
      </trkpt>
      <trkpt lat="46.47841" lon="5.16347">
        <ele>214</ele>
        <time>2020-10-24T11:33:27.000Z</time>
      </trkpt>
      <trkpt lat="46.47835" lon="5.1634">
        <ele>214</ele>
        <time>2020-10-24T11:33:28.000Z</time>
      </trkpt>
      <trkpt lat="46.47823" lon="5.16328">
        <ele>214</ele>
        <time>2020-10-24T11:33:30.000Z</time>
      </trkpt>
      <trkpt lat="46.47812" lon="5.16316">
        <ele>214</ele>
        <time>2020-10-24T11:33:32.000Z</time>
      </trkpt>
      <trkpt lat="46.47802" lon="5.16305">
        <ele>214.19999694824</ele>
        <time>2020-10-24T11:33:34.000Z</time>
      </trkpt>
      <trkpt lat="46.47791" lon="5.16293">
        <ele>214.39999389648</ele>
        <time>2020-10-24T11:33:36.000Z</time>
      </trkpt>
      <trkpt lat="46.4778" lon="5.16281">
        <ele>214.60000610352</ele>
        <time>2020-10-24T11:33:38.000Z</time>
      </trkpt>
      <trkpt lat="46.47769" lon="5.16269">
        <ele>215.19999694824</ele>
        <time>2020-10-24T11:33:40.000Z</time>
      </trkpt>
      <trkpt lat="46.47759" lon="5.16259">
        <ele>215.60000610352</ele>
        <time>2020-10-24T11:33:42.000Z</time>
      </trkpt>
      <trkpt lat="46.47753" lon="5.16254">
        <ele>215.60000610352</ele>
        <time>2020-10-24T11:33:43.000Z</time>
      </trkpt>
      <trkpt lat="46.47748" lon="5.16249">
        <ele>215.60000610352</ele>
        <time>2020-10-24T11:33:44.000Z</time>
      </trkpt>
      <trkpt lat="46.47736" lon="5.16242">
        <ele>215.80000305176</ele>
        <time>2020-10-24T11:33:46.000Z</time>
      </trkpt>
      <trkpt lat="46.47724" lon="5.16237">
        <ele>215.80000305176</ele>
        <time>2020-10-24T11:33:48.000Z</time>
      </trkpt>
      <trkpt lat="46.47718" lon="5.16234">
        <ele>215.80000305176</ele>
        <time>2020-10-24T11:33:49.000Z</time>
      </trkpt>
      <trkpt lat="46.47712" lon="5.16232">
        <ele>215.80000305176</ele>
        <time>2020-10-24T11:33:50.000Z</time>
      </trkpt>
      <trkpt lat="46.477" lon="5.16229">
        <ele>216</ele>
        <time>2020-10-24T11:33:52.000Z</time>
      </trkpt>
      <trkpt lat="46.47688" lon="5.16226">
        <ele>216.19999694824</ele>
        <time>2020-10-24T11:33:54.000Z</time>
      </trkpt>
      <trkpt lat="46.47677" lon="5.16224">
        <ele>216.39999389648</ele>
        <time>2020-10-24T11:33:56.000Z</time>
      </trkpt>
      <trkpt lat="46.47665" lon="5.16222">
        <ele>216.60000610352</ele>
        <time>2020-10-24T11:33:58.000Z</time>
      </trkpt>
      <trkpt lat="46.47653" lon="5.16219">
        <ele>216.80000305176</ele>
        <time>2020-10-24T11:34:00.000Z</time>
      </trkpt>
      <trkpt lat="46.47641" lon="5.16216">
        <ele>217.19999694824</ele>
        <time>2020-10-24T11:34:02.000Z</time>
      </trkpt>
      <trkpt lat="46.47628" lon="5.16212">
        <ele>217.60000610352</ele>
        <time>2020-10-24T11:34:04.000Z</time>
      </trkpt>
      <trkpt lat="46.47616" lon="5.16207">
        <ele>217.80000305176</ele>
        <time>2020-10-24T11:34:06.000Z</time>
      </trkpt>
      <trkpt lat="46.4761" lon="5.16203">
        <ele>217.80000305176</ele>
        <time>2020-10-24T11:34:07.000Z</time>
      </trkpt>
      <trkpt lat="46.47604" lon="5.16199">
        <ele>217.80000305176</ele>
        <time>2020-10-24T11:34:08.000Z</time>
      </trkpt>
      <trkpt lat="46.47592" lon="5.1619">
        <ele>218</ele>
        <time>2020-10-24T11:34:10.000Z</time>
      </trkpt>
      <trkpt lat="46.47581" lon="5.1618">
        <ele>218</ele>
        <time>2020-10-24T11:34:12.000Z</time>
      </trkpt>
      <trkpt lat="46.47571" lon="5.16168">
        <ele>218.19999694824</ele>
        <time>2020-10-24T11:34:14.000Z</time>
      </trkpt>
      <trkpt lat="46.47567" lon="5.16161">
        <ele>218.19999694824</ele>
        <time>2020-10-24T11:34:15.000Z</time>
      </trkpt>
      <trkpt lat="46.47563" lon="5.16155">
        <ele>218.19999694824</ele>
        <time>2020-10-24T11:34:16.000Z</time>
      </trkpt>
      <trkpt lat="46.47555" lon="5.16141">
        <ele>218.19999694824</ele>
        <time>2020-10-24T11:34:18.000Z</time>
      </trkpt>
      <trkpt lat="46.47548" lon="5.16127">
        <ele>218.39999389648</ele>
        <time>2020-10-24T11:34:20.000Z</time>
      </trkpt>
      <trkpt lat="46.47541" lon="5.16112">
        <ele>218.60000610352</ele>
        <time>2020-10-24T11:34:22.000Z</time>
      </trkpt>
      <trkpt lat="46.47538" lon="5.16104">
        <ele>218.80000305176</ele>
        <time>2020-10-24T11:34:23.000Z</time>
      </trkpt>
      <trkpt lat="46.47535" lon="5.16096">
        <ele>219</ele>
        <time>2020-10-24T11:34:24.000Z</time>
      </trkpt>
      <trkpt lat="46.4753" lon="5.1608">
        <ele>219</ele>
        <time>2020-10-24T11:34:26.000Z</time>
      </trkpt>
      <trkpt lat="46.47525" lon="5.16064">
        <ele>219.19999694824</ele>
        <time>2020-10-24T11:34:28.000Z</time>
      </trkpt>
      <trkpt lat="46.47521" lon="5.16047">
        <ele>219.39999389648</ele>
        <time>2020-10-24T11:34:30.000Z</time>
      </trkpt>
      <trkpt lat="46.47516" lon="5.16031">
        <ele>219.39999389648</ele>
        <time>2020-10-24T11:34:32.000Z</time>
      </trkpt>
      <trkpt lat="46.47511" lon="5.16016">
        <ele>219.80000305176</ele>
        <time>2020-10-24T11:34:34.000Z</time>
      </trkpt>
      <trkpt lat="46.47505" lon="5.16003">
        <ele>220</ele>
        <time>2020-10-24T11:34:36.000Z</time>
      </trkpt>
      <trkpt lat="46.47499" lon="5.1599">
        <ele>220.19999694824</ele>
        <time>2020-10-24T11:34:38.000Z</time>
      </trkpt>
      <trkpt lat="46.47495" lon="5.15985">
        <ele>220.39999389648</ele>
        <time>2020-10-24T11:34:39.000Z</time>
      </trkpt>
      <trkpt lat="46.4749" lon="5.1598">
        <ele>220.39999389648</ele>
        <time>2020-10-24T11:34:40.000Z</time>
      </trkpt>
      <trkpt lat="46.47486" lon="5.15977">
        <ele>220.80000305176</ele>
        <time>2020-10-24T11:34:41.000Z</time>
      </trkpt>
      <trkpt lat="46.47481" lon="5.15974">
        <ele>220.80000305176</ele>
        <time>2020-10-24T11:34:42.000Z</time>
      </trkpt>
      <trkpt lat="46.47477" lon="5.15971">
        <ele>221</ele>
        <time>2020-10-24T11:34:43.000Z</time>
      </trkpt>
      <trkpt lat="46.47473" lon="5.15969">
        <ele>221</ele>
        <time>2020-10-24T11:34:44.000Z</time>
      </trkpt>
      <trkpt lat="46.47471" lon="5.15967">
        <ele>221.19999694824</ele>
        <time>2020-10-24T11:34:45.000Z</time>
      </trkpt>
      <trkpt lat="46.47469" lon="5.15966">
        <ele>221.19999694824</ele>
        <time>2020-10-24T11:34:46.000Z</time>
      </trkpt>
      <trkpt lat="46.47467" lon="5.15964">
        <ele>221.19999694824</ele>
        <time>2020-10-24T11:34:48.000Z</time>
      </trkpt>
      <trkpt lat="46.47465" lon="5.15963">
        <ele>221.19999694824</ele>
        <time>2020-10-24T11:34:49.000Z</time>
      </trkpt>
      <trkpt lat="46.47463" lon="5.15963">
        <ele>221.39999389648</ele>
        <time>2020-10-24T11:34:50.000Z</time>
      </trkpt>
      <trkpt lat="46.47456" lon="5.15966">
        <ele>222</ele>
        <time>2020-10-24T11:34:52.000Z</time>
      </trkpt>
      <trkpt lat="46.47446" lon="5.15968">
        <ele>222</ele>
        <time>2020-10-24T11:34:54.000Z</time>
      </trkpt>
      <trkpt lat="46.47436" lon="5.15967">
        <ele>222.19999694824</ele>
        <time>2020-10-24T11:34:56.000Z</time>
      </trkpt>
      <trkpt lat="46.4743" lon="5.15967">
        <ele>222.19999694824</ele>
        <time>2020-10-24T11:34:57.000Z</time>
      </trkpt>
      <trkpt lat="46.47424" lon="5.15966">
        <ele>222.19999694824</ele>
        <time>2020-10-24T11:34:58.000Z</time>
      </trkpt>
      <trkpt lat="46.47412" lon="5.15965">
        <ele>222.19999694824</ele>
        <time>2020-10-24T11:35:00.000Z</time>
      </trkpt>
      <trkpt lat="46.474" lon="5.15964">
        <ele>222</ele>
        <time>2020-10-24T11:35:02.000Z</time>
      </trkpt>
      <trkpt lat="46.47388" lon="5.15961">
        <ele>221.60000610352</ele>
        <time>2020-10-24T11:35:04.000Z</time>
      </trkpt>
      <trkpt lat="46.47382" lon="5.1596">
        <ele>221.39999389648</ele>
        <time>2020-10-24T11:35:05.000Z</time>
      </trkpt>
      <trkpt lat="46.47377" lon="5.15958">
        <ele>221.19999694824</ele>
        <time>2020-10-24T11:35:06.000Z</time>
      </trkpt>
      <trkpt lat="46.47364" lon="5.15954">
        <ele>221.19999694824</ele>
        <time>2020-10-24T11:35:08.000Z</time>
      </trkpt>
      <trkpt lat="46.47352" lon="5.15949">
        <ele>221</ele>
        <time>2020-10-24T11:35:10.000Z</time>
      </trkpt>
      <trkpt lat="46.4734" lon="5.15943">
        <ele>221</ele>
        <time>2020-10-24T11:35:12.000Z</time>
      </trkpt>
      <trkpt lat="46.47334" lon="5.1594">
        <ele>221</ele>
        <time>2020-10-24T11:35:13.000Z</time>
      </trkpt>
      <trkpt lat="46.47328" lon="5.15937">
        <ele>221</ele>
        <time>2020-10-24T11:35:14.000Z</time>
      </trkpt>
      <trkpt lat="46.47316" lon="5.15932">
        <ele>221.19999694824</ele>
        <time>2020-10-24T11:35:16.000Z</time>
      </trkpt>
      <trkpt lat="46.47303" lon="5.15926">
        <ele>221.19999694824</ele>
        <time>2020-10-24T11:35:18.000Z</time>
      </trkpt>
      <trkpt lat="46.4729" lon="5.15919">
        <ele>221.19999694824</ele>
        <time>2020-10-24T11:35:20.000Z</time>
      </trkpt>
      <trkpt lat="46.47277" lon="5.15913">
        <ele>221.19999694824</ele>
        <time>2020-10-24T11:35:22.000Z</time>
      </trkpt>
      <trkpt lat="46.47264" lon="5.15907">
        <ele>221</ele>
        <time>2020-10-24T11:35:24.000Z</time>
      </trkpt>
      <trkpt lat="46.47251" lon="5.15904">
        <ele>221</ele>
        <time>2020-10-24T11:35:26.000Z</time>
      </trkpt>
      <trkpt lat="46.47237" lon="5.15901">
        <ele>220.80000305176</ele>
        <time>2020-10-24T11:35:28.000Z</time>
      </trkpt>
      <trkpt lat="46.47231" lon="5.15901">
        <ele>220.60000610352</ele>
        <time>2020-10-24T11:35:29.000Z</time>
      </trkpt>
      <trkpt lat="46.47224" lon="5.15901">
        <ele>220.60000610352</ele>
        <time>2020-10-24T11:35:30.000Z</time>
      </trkpt>
      <trkpt lat="46.4721" lon="5.15901">
        <ele>220.39999389648</ele>
        <time>2020-10-24T11:35:32.000Z</time>
      </trkpt>
      <trkpt lat="46.47197" lon="5.15902">
        <ele>220.39999389648</ele>
        <time>2020-10-24T11:35:34.000Z</time>
      </trkpt>
      <trkpt lat="46.47185" lon="5.15902">
        <ele>220.19999694824</ele>
        <time>2020-10-24T11:35:36.000Z</time>
      </trkpt>
      <trkpt lat="46.47178" lon="5.15903">
        <ele>220.19999694824</ele>
        <time>2020-10-24T11:35:37.000Z</time>
      </trkpt>
      <trkpt lat="46.47172" lon="5.15903">
        <ele>220.19999694824</ele>
        <time>2020-10-24T11:35:38.000Z</time>
      </trkpt>
      <trkpt lat="46.4716" lon="5.15904">
        <ele>220.19999694824</ele>
        <time>2020-10-24T11:35:40.000Z</time>
      </trkpt>
      <trkpt lat="46.47147" lon="5.15905">
        <ele>220.19999694824</ele>
        <time>2020-10-24T11:35:42.000Z</time>
      </trkpt>
      <trkpt lat="46.47135" lon="5.15906">
        <ele>220.19999694824</ele>
        <time>2020-10-24T11:35:44.000Z</time>
      </trkpt>
      <trkpt lat="46.47123" lon="5.15907">
        <ele>220.19999694824</ele>
        <time>2020-10-24T11:35:46.000Z</time>
      </trkpt>
      <trkpt lat="46.47111" lon="5.15908">
        <ele>220.19999694824</ele>
        <time>2020-10-24T11:35:48.000Z</time>
      </trkpt>
      <trkpt lat="46.47099" lon="5.15908">
        <ele>220.19999694824</ele>
        <time>2020-10-24T11:35:50.000Z</time>
      </trkpt>
      <trkpt lat="46.47086" lon="5.15909">
        <ele>220.39999389648</ele>
        <time>2020-10-24T11:35:52.000Z</time>
      </trkpt>
      <trkpt lat="46.47074" lon="5.1591">
        <ele>220.60000610352</ele>
        <time>2020-10-24T11:35:54.000Z</time>
      </trkpt>
      <trkpt lat="46.47061" lon="5.1591">
        <ele>220.60000610352</ele>
        <time>2020-10-24T11:35:56.000Z</time>
      </trkpt>
      <trkpt lat="46.47055" lon="5.1591">
        <ele>220.80000305176</ele>
        <time>2020-10-24T11:35:57.000Z</time>
      </trkpt>
      <trkpt lat="46.47048" lon="5.1591">
        <ele>220.80000305176</ele>
        <time>2020-10-24T11:35:58.000Z</time>
      </trkpt>
      <trkpt lat="46.47035" lon="5.15909">
        <ele>220.80000305176</ele>
        <time>2020-10-24T11:36:00.000Z</time>
      </trkpt>
      <trkpt lat="46.47022" lon="5.15905">
        <ele>220.80000305176</ele>
        <time>2020-10-24T11:36:02.000Z</time>
      </trkpt>
      <trkpt lat="46.47015" lon="5.15903">
        <ele>220.80000305176</ele>
        <time>2020-10-24T11:36:03.000Z</time>
      </trkpt>
      <trkpt lat="46.47009" lon="5.159">
        <ele>220.80000305176</ele>
        <time>2020-10-24T11:36:04.000Z</time>
      </trkpt>
      <trkpt lat="46.46996" lon="5.15894">
        <ele>220.80000305176</ele>
        <time>2020-10-24T11:36:06.000Z</time>
      </trkpt>
      <trkpt lat="46.46984" lon="5.15885">
        <ele>221</ele>
        <time>2020-10-24T11:36:08.000Z</time>
      </trkpt>
      <trkpt lat="46.46978" lon="5.15881">
        <ele>220.80000305176</ele>
        <time>2020-10-24T11:36:09.000Z</time>
      </trkpt>
      <trkpt lat="46.46973" lon="5.15876">
        <ele>220.80000305176</ele>
        <time>2020-10-24T11:36:10.000Z</time>
      </trkpt>
      <trkpt lat="46.46961" lon="5.15867">
        <ele>220.80000305176</ele>
        <time>2020-10-24T11:36:12.000Z</time>
      </trkpt>
      <trkpt lat="46.4695" lon="5.15858">
        <ele>220.80000305176</ele>
        <time>2020-10-24T11:36:14.000Z</time>
      </trkpt>
      <trkpt lat="46.46938" lon="5.15849">
        <ele>220.80000305176</ele>
        <time>2020-10-24T11:36:16.000Z</time>
      </trkpt>
      <trkpt lat="46.46927" lon="5.1584">
        <ele>220.80000305176</ele>
        <time>2020-10-24T11:36:18.000Z</time>
      </trkpt>
      <trkpt lat="46.46921" lon="5.15835">
        <ele>221</ele>
        <time>2020-10-24T11:36:19.000Z</time>
      </trkpt>
      <trkpt lat="46.46916" lon="5.1583">
        <ele>221</ele>
        <time>2020-10-24T11:36:20.000Z</time>
      </trkpt>
      <trkpt lat="46.46904" lon="5.15821">
        <ele>221</ele>
        <time>2020-10-24T11:36:22.000Z</time>
      </trkpt>
      <trkpt lat="46.46893" lon="5.15812">
        <ele>221</ele>
        <time>2020-10-24T11:36:24.000Z</time>
      </trkpt>
      <trkpt lat="46.46882" lon="5.15803">
        <ele>221.19999694824</ele>
        <time>2020-10-24T11:36:26.000Z</time>
      </trkpt>
      <trkpt lat="46.4687" lon="5.15794">
        <ele>221.19999694824</ele>
        <time>2020-10-24T11:36:28.000Z</time>
      </trkpt>
      <trkpt lat="46.46864" lon="5.1579">
        <ele>221.19999694824</ele>
        <time>2020-10-24T11:36:29.000Z</time>
      </trkpt>
      <trkpt lat="46.46858" lon="5.15785">
        <ele>221.19999694824</ele>
        <time>2020-10-24T11:36:30.000Z</time>
      </trkpt>
      <trkpt lat="46.46847" lon="5.15776">
        <ele>221.19999694824</ele>
        <time>2020-10-24T11:36:32.000Z</time>
      </trkpt>
      <trkpt lat="46.46835" lon="5.15767">
        <ele>221</ele>
        <time>2020-10-24T11:36:34.000Z</time>
      </trkpt>
      <trkpt lat="46.46823" lon="5.15758">
        <ele>221</ele>
        <time>2020-10-24T11:36:36.000Z</time>
      </trkpt>
      <trkpt lat="46.46812" lon="5.1575">
        <ele>220.80000305176</ele>
        <time>2020-10-24T11:36:38.000Z</time>
      </trkpt>
      <trkpt lat="46.468" lon="5.1574">
        <ele>220.60000610352</ele>
        <time>2020-10-24T11:36:40.000Z</time>
      </trkpt>
      <trkpt lat="46.46788" lon="5.15731">
        <ele>220.60000610352</ele>
        <time>2020-10-24T11:36:42.000Z</time>
      </trkpt>
      <trkpt lat="46.46776" lon="5.15722">
        <ele>220.39999389648</ele>
        <time>2020-10-24T11:36:44.000Z</time>
      </trkpt>
      <trkpt lat="46.46764" lon="5.15713">
        <ele>220.39999389648</ele>
        <time>2020-10-24T11:36:46.000Z</time>
      </trkpt>
      <trkpt lat="46.46752" lon="5.15704">
        <ele>220.19999694824</ele>
        <time>2020-10-24T11:36:48.000Z</time>
      </trkpt>
      <trkpt lat="46.46739" lon="5.15694">
        <ele>220.19999694824</ele>
        <time>2020-10-24T11:36:50.000Z</time>
      </trkpt>
      <trkpt lat="46.46732" lon="5.15689">
        <ele>220.19999694824</ele>
        <time>2020-10-24T11:36:51.000Z</time>
      </trkpt>
      <trkpt lat="46.46726" lon="5.15684">
        <ele>220.19999694824</ele>
        <time>2020-10-24T11:36:52.000Z</time>
      </trkpt>
      <trkpt lat="46.46712" lon="5.15673">
        <ele>220</ele>
        <time>2020-10-24T11:36:54.000Z</time>
      </trkpt>
      <trkpt lat="46.46705" lon="5.15668">
        <ele>220</ele>
        <time>2020-10-24T11:36:55.000Z</time>
      </trkpt>
      <trkpt lat="46.46699" lon="5.15663">
        <ele>220</ele>
        <time>2020-10-24T11:36:56.000Z</time>
      </trkpt>
      <trkpt lat="46.46686" lon="5.15654">
        <ele>219.80000305176</ele>
        <time>2020-10-24T11:36:58.000Z</time>
      </trkpt>
      <trkpt lat="46.46674" lon="5.15644">
        <ele>219.39999389648</ele>
        <time>2020-10-24T11:37:00.000Z</time>
      </trkpt>
      <trkpt lat="46.46667" lon="5.15639">
        <ele>218.80000305176</ele>
        <time>2020-10-24T11:37:01.000Z</time>
      </trkpt>
      <trkpt lat="46.46661" lon="5.15635">
        <ele>218.60000610352</ele>
        <time>2020-10-24T11:37:02.000Z</time>
      </trkpt>
      <trkpt lat="46.46647" lon="5.15626">
        <ele>218.39999389648</ele>
        <time>2020-10-24T11:37:04.000Z</time>
      </trkpt>
      <trkpt lat="46.46634" lon="5.15619">
        <ele>217.60000610352</ele>
        <time>2020-10-24T11:37:06.000Z</time>
      </trkpt>
      <trkpt lat="46.46626" lon="5.15616">
        <ele>217.39999389648</ele>
        <time>2020-10-24T11:37:07.000Z</time>
      </trkpt>
      <trkpt lat="46.46619" lon="5.15613">
        <ele>217.19999694824</ele>
        <time>2020-10-24T11:37:08.000Z</time>
      </trkpt>
      <trkpt lat="46.46605" lon="5.15608">
        <ele>217.19999694824</ele>
        <time>2020-10-24T11:37:10.000Z</time>
      </trkpt>
      <trkpt lat="46.4659" lon="5.15602">
        <ele>216.80000305176</ele>
        <time>2020-10-24T11:37:12.000Z</time>
      </trkpt>
      <trkpt lat="46.46583" lon="5.156">
        <ele>216.60000610352</ele>
        <time>2020-10-24T11:37:13.000Z</time>
      </trkpt>
      <trkpt lat="46.46576" lon="5.15597">
        <ele>216.39999389648</ele>
        <time>2020-10-24T11:37:14.000Z</time>
      </trkpt>
      <trkpt lat="46.46568" lon="5.15595">
        <ele>216.39999389648</ele>
        <time>2020-10-24T11:37:15.000Z</time>
      </trkpt>
      <trkpt lat="46.46561" lon="5.15593">
        <ele>216.19999694824</ele>
        <time>2020-10-24T11:37:16.000Z</time>
      </trkpt>
      <trkpt lat="46.46547" lon="5.15589">
        <ele>216</ele>
        <time>2020-10-24T11:37:18.000Z</time>
      </trkpt>
      <trkpt lat="46.46532" lon="5.15585">
        <ele>216</ele>
        <time>2020-10-24T11:37:20.000Z</time>
      </trkpt>
      <trkpt lat="46.46517" lon="5.1558">
        <ele>216</ele>
        <time>2020-10-24T11:37:22.000Z</time>
      </trkpt>
      <trkpt lat="46.46502" lon="5.15576">
        <ele>215.80000305176</ele>
        <time>2020-10-24T11:37:24.000Z</time>
      </trkpt>
      <trkpt lat="46.46487" lon="5.15572">
        <ele>215.80000305176</ele>
        <time>2020-10-24T11:37:26.000Z</time>
      </trkpt>
      <trkpt lat="46.46472" lon="5.15567">
        <ele>215.80000305176</ele>
        <time>2020-10-24T11:37:28.000Z</time>
      </trkpt>
      <trkpt lat="46.46457" lon="5.15561">
        <ele>215.60000610352</ele>
        <time>2020-10-24T11:37:30.000Z</time>
      </trkpt>
      <trkpt lat="46.46442" lon="5.15557">
        <ele>215.60000610352</ele>
        <time>2020-10-24T11:37:32.000Z</time>
      </trkpt>
      <trkpt lat="46.46427" lon="5.15552">
        <ele>215.39999389648</ele>
        <time>2020-10-24T11:37:34.000Z</time>
      </trkpt>
      <trkpt lat="46.46412" lon="5.15547">
        <ele>215.39999389648</ele>
        <time>2020-10-24T11:37:36.000Z</time>
      </trkpt>
      <trkpt lat="46.46397" lon="5.15542">
        <ele>215.19999694824</ele>
        <time>2020-10-24T11:37:38.000Z</time>
      </trkpt>
      <trkpt lat="46.46382" lon="5.15537">
        <ele>215.19999694824</ele>
        <time>2020-10-24T11:37:40.000Z</time>
      </trkpt>
      <trkpt lat="46.46367" lon="5.15531">
        <ele>215</ele>
        <time>2020-10-24T11:37:42.000Z</time>
      </trkpt>
      <trkpt lat="46.46353" lon="5.15526">
        <ele>214.80000305176</ele>
        <time>2020-10-24T11:37:44.000Z</time>
      </trkpt>
      <trkpt lat="46.46345" lon="5.15523">
        <ele>214.60000610352</ele>
        <time>2020-10-24T11:37:45.000Z</time>
      </trkpt>
      <trkpt lat="46.46338" lon="5.1552">
        <ele>214.60000610352</ele>
        <time>2020-10-24T11:37:46.000Z</time>
      </trkpt>
      <trkpt lat="46.46324" lon="5.15515">
        <ele>214.39999389648</ele>
        <time>2020-10-24T11:37:48.000Z</time>
      </trkpt>
      <trkpt lat="46.4631" lon="5.15509">
        <ele>214.19999694824</ele>
        <time>2020-10-24T11:37:50.000Z</time>
      </trkpt>
      <trkpt lat="46.46296" lon="5.15504">
        <ele>214.19999694824</ele>
        <time>2020-10-24T11:37:52.000Z</time>
      </trkpt>
      <trkpt lat="46.46282" lon="5.15498">
        <ele>214.19999694824</ele>
        <time>2020-10-24T11:37:54.000Z</time>
      </trkpt>
      <trkpt lat="46.46275" lon="5.15495">
        <ele>214.19999694824</ele>
        <time>2020-10-24T11:37:55.000Z</time>
      </trkpt>
      <trkpt lat="46.46268" lon="5.15493">
        <ele>214.19999694824</ele>
        <time>2020-10-24T11:37:56.000Z</time>
      </trkpt>
      <trkpt lat="46.46254" lon="5.15487">
        <ele>214.19999694824</ele>
        <time>2020-10-24T11:37:58.000Z</time>
      </trkpt>
      <trkpt lat="46.4624" lon="5.15481">
        <ele>214</ele>
        <time>2020-10-24T11:38:00.000Z</time>
      </trkpt>
      <trkpt lat="46.46227" lon="5.15476">
        <ele>214</ele>
        <time>2020-10-24T11:38:02.000Z</time>
      </trkpt>
      <trkpt lat="46.46213" lon="5.15471">
        <ele>213.80000305176</ele>
        <time>2020-10-24T11:38:04.000Z</time>
      </trkpt>
      <trkpt lat="46.46199" lon="5.15465">
        <ele>213.19999694824</ele>
        <time>2020-10-24T11:38:06.000Z</time>
      </trkpt>
      <trkpt lat="46.46186" lon="5.1546">
        <ele>212.80000305176</ele>
        <time>2020-10-24T11:38:08.000Z</time>
      </trkpt>
      <trkpt lat="46.46172" lon="5.15454">
        <ele>212.60000610352</ele>
        <time>2020-10-24T11:38:10.000Z</time>
      </trkpt>
      <trkpt lat="46.46158" lon="5.15449">
        <ele>212.60000610352</ele>
        <time>2020-10-24T11:38:12.000Z</time>
      </trkpt>
      <trkpt lat="46.46143" lon="5.15442">
        <ele>212.39999389648</ele>
        <time>2020-10-24T11:38:14.000Z</time>
      </trkpt>
      <trkpt lat="46.46129" lon="5.15435">
        <ele>212.39999389648</ele>
        <time>2020-10-24T11:38:16.000Z</time>
      </trkpt>
      <trkpt lat="46.46115" lon="5.15426">
        <ele>212.39999389648</ele>
        <time>2020-10-24T11:38:18.000Z</time>
      </trkpt>
      <trkpt lat="46.46109" lon="5.15421">
        <ele>212.19999694824</ele>
        <time>2020-10-24T11:38:19.000Z</time>
      </trkpt>
      <trkpt lat="46.46102" lon="5.15416">
        <ele>212.19999694824</ele>
        <time>2020-10-24T11:38:20.000Z</time>
      </trkpt>
      <trkpt lat="46.46089" lon="5.15405">
        <ele>211.60000610352</ele>
        <time>2020-10-24T11:38:22.000Z</time>
      </trkpt>
      <trkpt lat="46.46077" lon="5.15393">
        <ele>211.39999389648</ele>
        <time>2020-10-24T11:38:24.000Z</time>
      </trkpt>
      <trkpt lat="46.46066" lon="5.1538">
        <ele>211.19999694824</ele>
        <time>2020-10-24T11:38:26.000Z</time>
      </trkpt>
      <trkpt lat="46.46055" lon="5.15368">
        <ele>211.19999694824</ele>
        <time>2020-10-24T11:38:28.000Z</time>
      </trkpt>
      <trkpt lat="46.46045" lon="5.15355">
        <ele>211.19999694824</ele>
        <time>2020-10-24T11:38:30.000Z</time>
      </trkpt>
      <trkpt lat="46.46037" lon="5.15343">
        <ele>211.19999694824</ele>
        <time>2020-10-24T11:38:32.000Z</time>
      </trkpt>
      <trkpt lat="46.46029" lon="5.15332">
        <ele>211.39999389648</ele>
        <time>2020-10-24T11:38:34.000Z</time>
      </trkpt>
      <trkpt lat="46.46022" lon="5.15322">
        <ele>211.60000610352</ele>
        <time>2020-10-24T11:38:36.000Z</time>
      </trkpt>
      <trkpt lat="46.46016" lon="5.15312">
        <ele>212.19999694824</ele>
        <time>2020-10-24T11:38:38.000Z</time>
      </trkpt>
      <trkpt lat="46.46013" lon="5.15307">
        <ele>212.80000305176</ele>
        <time>2020-10-24T11:38:39.000Z</time>
      </trkpt>
      <trkpt lat="46.4601" lon="5.15304">
        <ele>213.19999694824</ele>
        <time>2020-10-24T11:38:40.000Z</time>
      </trkpt>
      <trkpt lat="46.46008" lon="5.15301">
        <ele>213.39999389648</ele>
        <time>2020-10-24T11:38:41.000Z</time>
      </trkpt>
      <trkpt lat="46.46006" lon="5.15298">
        <ele>213.60000610352</ele>
        <time>2020-10-24T11:38:42.000Z</time>
      </trkpt>
      <trkpt lat="46.46004" lon="5.15293">
        <ele>214.19999694824</ele>
        <time>2020-10-24T11:38:44.000Z</time>
      </trkpt>
      <trkpt lat="46.46003" lon="5.1529">
        <ele>214.60000610352</ele>
        <time>2020-10-24T11:38:45.000Z</time>
      </trkpt>
      <trkpt lat="46.46001" lon="5.15286">
        <ele>215</ele>
        <time>2020-10-24T11:38:46.000Z</time>
      </trkpt>
      <trkpt lat="46.45995" lon="5.15278">
        <ele>215.80000305176</ele>
        <time>2020-10-24T11:38:48.000Z</time>
      </trkpt>
      <trkpt lat="46.45988" lon="5.15271">
        <ele>216.19999694824</ele>
        <time>2020-10-24T11:38:50.000Z</time>
      </trkpt>
      <trkpt lat="46.45981" lon="5.15261">
        <ele>216.60000610352</ele>
        <time>2020-10-24T11:38:52.000Z</time>
      </trkpt>
      <trkpt lat="46.45975" lon="5.15252">
        <ele>216.80000305176</ele>
        <time>2020-10-24T11:38:54.000Z</time>
      </trkpt>
      <trkpt lat="46.45972" lon="5.15247">
        <ele>217</ele>
        <time>2020-10-24T11:38:55.000Z</time>
      </trkpt>
      <trkpt lat="46.45969" lon="5.15242">
        <ele>217.19999694824</ele>
        <time>2020-10-24T11:38:56.000Z</time>
      </trkpt>
      <trkpt lat="46.45963" lon="5.15232">
        <ele>217.19999694824</ele>
        <time>2020-10-24T11:38:58.000Z</time>
      </trkpt>
      <trkpt lat="46.45957" lon="5.15222">
        <ele>217.39999389648</ele>
        <time>2020-10-24T11:39:00.000Z</time>
      </trkpt>
      <trkpt lat="46.45951" lon="5.15213">
        <ele>217.60000610352</ele>
        <time>2020-10-24T11:39:02.000Z</time>
      </trkpt>
      <trkpt lat="46.45948" lon="5.15208">
        <ele>217.80000305176</ele>
        <time>2020-10-24T11:39:03.000Z</time>
      </trkpt>
      <trkpt lat="46.45945" lon="5.15204">
        <ele>218</ele>
        <time>2020-10-24T11:39:04.000Z</time>
      </trkpt>
      <trkpt lat="46.45938" lon="5.15196">
        <ele>218.39999389648</ele>
        <time>2020-10-24T11:39:06.000Z</time>
      </trkpt>
      <trkpt lat="46.45932" lon="5.15187">
        <ele>218.80000305176</ele>
        <time>2020-10-24T11:39:08.000Z</time>
      </trkpt>
      <trkpt lat="46.45929" lon="5.15183">
        <ele>219</ele>
        <time>2020-10-24T11:39:09.000Z</time>
      </trkpt>
      <trkpt lat="46.45925" lon="5.15179">
        <ele>219.39999389648</ele>
        <time>2020-10-24T11:39:10.000Z</time>
      </trkpt>
      <trkpt lat="46.45921" lon="5.15175">
        <ele>219.60000610352</ele>
        <time>2020-10-24T11:39:11.000Z</time>
      </trkpt>
      <trkpt lat="46.45917" lon="5.15172">
        <ele>219.80000305176</ele>
        <time>2020-10-24T11:39:12.000Z</time>
      </trkpt>
      <trkpt lat="46.45913" lon="5.15168">
        <ele>220.19999694824</ele>
        <time>2020-10-24T11:39:13.000Z</time>
      </trkpt>
      <trkpt lat="46.45909" lon="5.15165">
        <ele>220.39999389648</ele>
        <time>2020-10-24T11:39:14.000Z</time>
      </trkpt>
      <trkpt lat="46.459" lon="5.15159">
        <ele>220.60000610352</ele>
        <time>2020-10-24T11:39:16.000Z</time>
      </trkpt>
      <trkpt lat="46.4589" lon="5.15154">
        <ele>221</ele>
        <time>2020-10-24T11:39:18.000Z</time>
      </trkpt>
      <trkpt lat="46.4588" lon="5.1515">
        <ele>221</ele>
        <time>2020-10-24T11:39:20.000Z</time>
      </trkpt>
      <trkpt lat="46.45868" lon="5.15148">
        <ele>221</ele>
        <time>2020-10-24T11:39:22.000Z</time>
      </trkpt>
      <trkpt lat="46.45861" lon="5.15147">
        <ele>221</ele>
        <time>2020-10-24T11:39:23.000Z</time>
      </trkpt>
      <trkpt lat="46.45854" lon="5.15146">
        <ele>221</ele>
        <time>2020-10-24T11:39:24.000Z</time>
      </trkpt>
      <trkpt lat="46.4584" lon="5.15143">
        <ele>221</ele>
        <time>2020-10-24T11:39:26.000Z</time>
      </trkpt>
      <trkpt lat="46.45826" lon="5.15141">
        <ele>220.60000610352</ele>
        <time>2020-10-24T11:39:28.000Z</time>
      </trkpt>
      <trkpt lat="46.45811" lon="5.1514">
        <ele>220.39999389648</ele>
        <time>2020-10-24T11:39:30.000Z</time>
      </trkpt>
      <trkpt lat="46.45804" lon="5.1514">
        <ele>220</ele>
        <time>2020-10-24T11:39:31.000Z</time>
      </trkpt>
      <trkpt lat="46.45797" lon="5.1514">
        <ele>219.60000610352</ele>
        <time>2020-10-24T11:39:32.000Z</time>
      </trkpt>
      <trkpt lat="46.45784" lon="5.15141">
        <ele>219.19999694824</ele>
        <time>2020-10-24T11:39:34.000Z</time>
      </trkpt>
      <trkpt lat="46.45777" lon="5.15142">
        <ele>219</ele>
        <time>2020-10-24T11:39:35.000Z</time>
      </trkpt>
      <trkpt lat="46.4577" lon="5.15143">
        <ele>219</ele>
        <time>2020-10-24T11:39:36.000Z</time>
      </trkpt>
      <trkpt lat="46.45764" lon="5.15145">
        <ele>219</ele>
        <time>2020-10-24T11:39:37.000Z</time>
      </trkpt>
      <trkpt lat="46.45757" lon="5.15147">
        <ele>219</ele>
        <time>2020-10-24T11:39:38.000Z</time>
      </trkpt>
      <trkpt lat="46.45745" lon="5.15152">
        <ele>219</ele>
        <time>2020-10-24T11:39:40.000Z</time>
      </trkpt>
      <trkpt lat="46.45733" lon="5.15157">
        <ele>219</ele>
        <time>2020-10-24T11:39:42.000Z</time>
      </trkpt>
      <trkpt lat="46.45722" lon="5.15165">
        <ele>219.19999694824</ele>
        <time>2020-10-24T11:39:44.000Z</time>
      </trkpt>
      <trkpt lat="46.45711" lon="5.15173">
        <ele>219.60000610352</ele>
        <time>2020-10-24T11:39:46.000Z</time>
      </trkpt>
      <trkpt lat="46.45701" lon="5.15183">
        <ele>219.80000305176</ele>
        <time>2020-10-24T11:39:48.000Z</time>
      </trkpt>
      <trkpt lat="46.45691" lon="5.15193">
        <ele>220</ele>
        <time>2020-10-24T11:39:50.000Z</time>
      </trkpt>
      <trkpt lat="46.45687" lon="5.15197">
        <ele>220.19999694824</ele>
        <time>2020-10-24T11:39:51.000Z</time>
      </trkpt>
      <trkpt lat="46.45682" lon="5.15203">
        <ele>220.19999694824</ele>
        <time>2020-10-24T11:39:52.000Z</time>
      </trkpt>
      <trkpt lat="46.45673" lon="5.15213">
        <ele>220.19999694824</ele>
        <time>2020-10-24T11:39:54.000Z</time>
      </trkpt>
      <trkpt lat="46.45663" lon="5.15222">
        <ele>220.39999389648</ele>
        <time>2020-10-24T11:39:56.000Z</time>
      </trkpt>
      <trkpt lat="46.45654" lon="5.15231">
        <ele>220.60000610352</ele>
        <time>2020-10-24T11:39:58.000Z</time>
      </trkpt>
      <trkpt lat="46.45646" lon="5.15241">
        <ele>220.80000305176</ele>
        <time>2020-10-24T11:40:00.000Z</time>
      </trkpt>
      <trkpt lat="46.45637" lon="5.15251">
        <ele>221</ele>
        <time>2020-10-24T11:40:02.000Z</time>
      </trkpt>
      <trkpt lat="46.45632" lon="5.15257">
        <ele>221.19999694824</ele>
        <time>2020-10-24T11:40:03.000Z</time>
      </trkpt>
      <trkpt lat="46.45628" lon="5.15262">
        <ele>221.19999694824</ele>
        <time>2020-10-24T11:40:04.000Z</time>
      </trkpt>
      <trkpt lat="46.45618" lon="5.15271">
        <ele>221.39999389648</ele>
        <time>2020-10-24T11:40:06.000Z</time>
      </trkpt>
      <trkpt lat="46.45609" lon="5.1528">
        <ele>222</ele>
        <time>2020-10-24T11:40:08.000Z</time>
      </trkpt>
      <trkpt lat="46.45605" lon="5.15284">
        <ele>222.19999694824</ele>
        <time>2020-10-24T11:40:09.000Z</time>
      </trkpt>
      <trkpt lat="46.456" lon="5.15288">
        <ele>222.39999389648</ele>
        <time>2020-10-24T11:40:10.000Z</time>
      </trkpt>
      <trkpt lat="46.4559" lon="5.15297">
        <ele>222.60000610352</ele>
        <time>2020-10-24T11:40:12.000Z</time>
      </trkpt>
      <trkpt lat="46.45581" lon="5.15305">
        <ele>222.80000305176</ele>
        <time>2020-10-24T11:40:14.000Z</time>
      </trkpt>
      <trkpt lat="46.45572" lon="5.15313">
        <ele>222.80000305176</ele>
        <time>2020-10-24T11:40:16.000Z</time>
      </trkpt>
      <trkpt lat="46.45562" lon="5.15321">
        <ele>223.19999694824</ele>
        <time>2020-10-24T11:40:18.000Z</time>
      </trkpt>
      <trkpt lat="46.45552" lon="5.15329">
        <ele>223.19999694824</ele>
        <time>2020-10-24T11:40:20.000Z</time>
      </trkpt>
      <trkpt lat="46.45542" lon="5.15337">
        <ele>223.39999389648</ele>
        <time>2020-10-24T11:40:22.000Z</time>
      </trkpt>
      <trkpt lat="46.4553" lon="5.15345">
        <ele>223.39999389648</ele>
        <time>2020-10-24T11:40:24.000Z</time>
      </trkpt>
      <trkpt lat="46.45523" lon="5.15349">
        <ele>223.39999389648</ele>
        <time>2020-10-24T11:40:25.000Z</time>
      </trkpt>
      <trkpt lat="46.45517" lon="5.15354">
        <ele>223.39999389648</ele>
        <time>2020-10-24T11:40:26.000Z</time>
      </trkpt>
      <trkpt lat="46.45504" lon="5.15362">
        <ele>223.39999389648</ele>
        <time>2020-10-24T11:40:28.000Z</time>
      </trkpt>
      <trkpt lat="46.45491" lon="5.1537">
        <ele>223.19999694824</ele>
        <time>2020-10-24T11:40:30.000Z</time>
      </trkpt>
      <trkpt lat="46.45477" lon="5.15378">
        <ele>223</ele>
        <time>2020-10-24T11:40:32.000Z</time>
      </trkpt>
      <trkpt lat="46.45463" lon="5.15386">
        <ele>222.19999694824</ele>
        <time>2020-10-24T11:40:34.000Z</time>
      </trkpt>
      <trkpt lat="46.45449" lon="5.15394">
        <ele>222</ele>
        <time>2020-10-24T11:40:36.000Z</time>
      </trkpt>
      <trkpt lat="46.45434" lon="5.154">
        <ele>221.60000610352</ele>
        <time>2020-10-24T11:40:38.000Z</time>
      </trkpt>
      <trkpt lat="46.45418" lon="5.15405">
        <ele>221.39999389648</ele>
        <time>2020-10-24T11:40:40.000Z</time>
      </trkpt>
      <trkpt lat="46.4541" lon="5.15407">
        <ele>221.19999694824</ele>
        <time>2020-10-24T11:40:41.000Z</time>
      </trkpt>
      <trkpt lat="46.45402" lon="5.15408">
        <ele>221</ele>
        <time>2020-10-24T11:40:42.000Z</time>
      </trkpt>
      <trkpt lat="46.45386" lon="5.15411">
        <ele>220.39999389648</ele>
        <time>2020-10-24T11:40:44.000Z</time>
      </trkpt>
      <trkpt lat="46.45369" lon="5.15413">
        <ele>219.80000305176</ele>
        <time>2020-10-24T11:40:46.000Z</time>
      </trkpt>
      <trkpt lat="46.45352" lon="5.15415">
        <ele>218.80000305176</ele>
        <time>2020-10-24T11:40:48.000Z</time>
      </trkpt>
      <trkpt lat="46.45336" lon="5.15418">
        <ele>218.39999389648</ele>
        <time>2020-10-24T11:40:50.000Z</time>
      </trkpt>
      <trkpt lat="46.4532" lon="5.1542">
        <ele>217.80000305176</ele>
        <time>2020-10-24T11:40:52.000Z</time>
      </trkpt>
      <trkpt lat="46.45304" lon="5.15422">
        <ele>217.19999694824</ele>
        <time>2020-10-24T11:40:54.000Z</time>
      </trkpt>
      <trkpt lat="46.45288" lon="5.15425">
        <ele>216.60000610352</ele>
        <time>2020-10-24T11:40:56.000Z</time>
      </trkpt>
      <trkpt lat="46.45281" lon="5.15426">
        <ele>216.60000610352</ele>
        <time>2020-10-24T11:40:57.000Z</time>
      </trkpt>
      <trkpt lat="46.45273" lon="5.15427">
        <ele>216.39999389648</ele>
        <time>2020-10-24T11:40:58.000Z</time>
      </trkpt>
      <trkpt lat="46.45259" lon="5.15429">
        <ele>216.39999389648</ele>
        <time>2020-10-24T11:41:00.000Z</time>
      </trkpt>
      <trkpt lat="46.45244" lon="5.15431">
        <ele>216.39999389648</ele>
        <time>2020-10-24T11:41:02.000Z</time>
      </trkpt>
      <trkpt lat="46.4523" lon="5.15433">
        <ele>216.39999389648</ele>
        <time>2020-10-24T11:41:04.000Z</time>
      </trkpt>
      <trkpt lat="46.45216" lon="5.15435">
        <ele>216.80000305176</ele>
        <time>2020-10-24T11:41:06.000Z</time>
      </trkpt>
      <trkpt lat="46.45202" lon="5.15437">
        <ele>217.19999694824</ele>
        <time>2020-10-24T11:41:08.000Z</time>
      </trkpt>
      <trkpt lat="46.45187" lon="5.15439">
        <ele>217.39999389648</ele>
        <time>2020-10-24T11:41:10.000Z</time>
      </trkpt>
      <trkpt lat="46.45172" lon="5.15441">
        <ele>217.39999389648</ele>
        <time>2020-10-24T11:41:12.000Z</time>
      </trkpt>
      <trkpt lat="46.45156" lon="5.15443">
        <ele>217.39999389648</ele>
        <time>2020-10-24T11:41:14.000Z</time>
      </trkpt>
      <trkpt lat="46.45148" lon="5.15444">
        <ele>217.39999389648</ele>
        <time>2020-10-24T11:41:15.000Z</time>
      </trkpt>
      <trkpt lat="46.4514" lon="5.15446">
        <ele>217.39999389648</ele>
        <time>2020-10-24T11:41:16.000Z</time>
      </trkpt>
      <trkpt lat="46.45124" lon="5.15448">
        <ele>217.39999389648</ele>
        <time>2020-10-24T11:41:18.000Z</time>
      </trkpt>
      <trkpt lat="46.45107" lon="5.15451">
        <ele>217.19999694824</ele>
        <time>2020-10-24T11:41:20.000Z</time>
      </trkpt>
      <trkpt lat="46.45089" lon="5.15453">
        <ele>216.60000610352</ele>
        <time>2020-10-24T11:41:22.000Z</time>
      </trkpt>
      <trkpt lat="46.45072" lon="5.15455">
        <ele>215.80000305176</ele>
        <time>2020-10-24T11:41:24.000Z</time>
      </trkpt>
      <trkpt lat="46.45063" lon="5.15454">
        <ele>215.39999389648</ele>
        <time>2020-10-24T11:41:25.000Z</time>
      </trkpt>
      <trkpt lat="46.45054" lon="5.15453">
        <ele>215.19999694824</ele>
        <time>2020-10-24T11:41:26.000Z</time>
      </trkpt>
      <trkpt lat="46.45045" lon="5.15451">
        <ele>214.60000610352</ele>
        <time>2020-10-24T11:41:27.000Z</time>
      </trkpt>
      <trkpt lat="46.45036" lon="5.15448">
        <ele>214.19999694824</ele>
        <time>2020-10-24T11:41:28.000Z</time>
      </trkpt>
      <trkpt lat="46.45019" lon="5.15439">
        <ele>213.60000610352</ele>
        <time>2020-10-24T11:41:30.000Z</time>
      </trkpt>
      <trkpt lat="46.45011" lon="5.15434">
        <ele>213</ele>
        <time>2020-10-24T11:41:31.000Z</time>
      </trkpt>
      <trkpt lat="46.45003" lon="5.15428">
        <ele>212.80000305176</ele>
        <time>2020-10-24T11:41:32.000Z</time>
      </trkpt>
      <trkpt lat="46.44995" lon="5.15422">
        <ele>212.60000610352</ele>
        <time>2020-10-24T11:41:33.000Z</time>
      </trkpt>
      <trkpt lat="46.44988" lon="5.15416">
        <ele>212.39999389648</ele>
        <time>2020-10-24T11:41:34.000Z</time>
      </trkpt>
      <trkpt lat="46.44974" lon="5.15404">
        <ele>211.80000305176</ele>
        <time>2020-10-24T11:41:36.000Z</time>
      </trkpt>
      <trkpt lat="46.4496" lon="5.15392">
        <ele>211.60000610352</ele>
        <time>2020-10-24T11:41:38.000Z</time>
      </trkpt>
      <trkpt lat="46.44947" lon="5.15381">
        <ele>211.60000610352</ele>
        <time>2020-10-24T11:41:40.000Z</time>
      </trkpt>
      <trkpt lat="46.44934" lon="5.1537">
        <ele>211.60000610352</ele>
        <time>2020-10-24T11:41:42.000Z</time>
      </trkpt>
      <trkpt lat="46.44922" lon="5.1536">
        <ele>211.60000610352</ele>
        <time>2020-10-24T11:41:44.000Z</time>
      </trkpt>
      <trkpt lat="46.44911" lon="5.15351">
        <ele>211.60000610352</ele>
        <time>2020-10-24T11:41:46.000Z</time>
      </trkpt>
      <trkpt lat="46.449" lon="5.15341">
        <ele>211.80000305176</ele>
        <time>2020-10-24T11:41:48.000Z</time>
      </trkpt>
      <trkpt lat="46.44889" lon="5.15332">
        <ele>212.19999694824</ele>
        <time>2020-10-24T11:41:50.000Z</time>
      </trkpt>
      <trkpt lat="46.44878" lon="5.15323">
        <ele>212.80000305176</ele>
        <time>2020-10-24T11:41:52.000Z</time>
      </trkpt>
      <trkpt lat="46.44872" lon="5.15318">
        <ele>213</ele>
        <time>2020-10-24T11:41:53.000Z</time>
      </trkpt>
      <trkpt lat="46.44867" lon="5.15313">
        <ele>213.19999694824</ele>
        <time>2020-10-24T11:41:54.000Z</time>
      </trkpt>
      <trkpt lat="46.44856" lon="5.15305">
        <ele>213.39999389648</ele>
        <time>2020-10-24T11:41:56.000Z</time>
      </trkpt>
      <trkpt lat="46.44845" lon="5.15296">
        <ele>213.60000610352</ele>
        <time>2020-10-24T11:41:58.000Z</time>
      </trkpt>
      <trkpt lat="46.44835" lon="5.15287">
        <ele>213.60000610352</ele>
        <time>2020-10-24T11:42:00.000Z</time>
      </trkpt>
      <trkpt lat="46.44824" lon="5.15279">
        <ele>214</ele>
        <time>2020-10-24T11:42:02.000Z</time>
      </trkpt>
      <trkpt lat="46.44813" lon="5.15272">
        <ele>214.39999389648</ele>
        <time>2020-10-24T11:42:04.000Z</time>
      </trkpt>
      <trkpt lat="46.44807" lon="5.15268">
        <ele>214.60000610352</ele>
        <time>2020-10-24T11:42:05.000Z</time>
      </trkpt>
      <trkpt lat="46.44802" lon="5.15265">
        <ele>214.60000610352</ele>
        <time>2020-10-24T11:42:06.000Z</time>
      </trkpt>
      <trkpt lat="46.44791" lon="5.15259">
        <ele>214.80000305176</ele>
        <time>2020-10-24T11:42:08.000Z</time>
      </trkpt>
      <trkpt lat="46.4478" lon="5.15254">
        <ele>215</ele>
        <time>2020-10-24T11:42:10.000Z</time>
      </trkpt>
      <trkpt lat="46.44774" lon="5.15251">
        <ele>215</ele>
        <time>2020-10-24T11:42:11.000Z</time>
      </trkpt>
      <trkpt lat="46.44769" lon="5.15249">
        <ele>215.19999694824</ele>
        <time>2020-10-24T11:42:12.000Z</time>
      </trkpt>
      <trkpt lat="46.44763" lon="5.15246">
        <ele>215.19999694824</ele>
        <time>2020-10-24T11:42:13.000Z</time>
      </trkpt>
      <trkpt lat="46.44757" lon="5.15244">
        <ele>215.19999694824</ele>
        <time>2020-10-24T11:42:14.000Z</time>
      </trkpt>
      <trkpt lat="46.44746" lon="5.1524">
        <ele>215.39999389648</ele>
        <time>2020-10-24T11:42:16.000Z</time>
      </trkpt>
      <trkpt lat="46.44734" lon="5.15236">
        <ele>215.80000305176</ele>
        <time>2020-10-24T11:42:18.000Z</time>
      </trkpt>
      <trkpt lat="46.44723" lon="5.15233">
        <ele>216</ele>
        <time>2020-10-24T11:42:20.000Z</time>
      </trkpt>
      <trkpt lat="46.44712" lon="5.1523">
        <ele>216.19999694824</ele>
        <time>2020-10-24T11:42:22.000Z</time>
      </trkpt>
      <trkpt lat="46.44707" lon="5.15229">
        <ele>216.60000610352</ele>
        <time>2020-10-24T11:42:23.000Z</time>
      </trkpt>
      <trkpt lat="46.44701" lon="5.15228">
        <ele>216.60000610352</ele>
        <time>2020-10-24T11:42:24.000Z</time>
      </trkpt>
      <trkpt lat="46.4469" lon="5.15228">
        <ele>216.80000305176</ele>
        <time>2020-10-24T11:42:26.000Z</time>
      </trkpt>
      <trkpt lat="46.44678" lon="5.15227">
        <ele>217</ele>
        <time>2020-10-24T11:42:28.000Z</time>
      </trkpt>
      <trkpt lat="46.44666" lon="5.15228">
        <ele>217.19999694824</ele>
        <time>2020-10-24T11:42:30.000Z</time>
      </trkpt>
      <trkpt lat="46.4466" lon="5.15228">
        <ele>217.39999389648</ele>
        <time>2020-10-24T11:42:31.000Z</time>
      </trkpt>
      <trkpt lat="46.44654" lon="5.15229">
        <ele>217.60000610352</ele>
        <time>2020-10-24T11:42:32.000Z</time>
      </trkpt>
      <trkpt lat="46.44643" lon="5.1523">
        <ele>218.19999694824</ele>
        <time>2020-10-24T11:42:34.000Z</time>
      </trkpt>
      <trkpt lat="46.44631" lon="5.15231">
        <ele>218.39999389648</ele>
        <time>2020-10-24T11:42:36.000Z</time>
      </trkpt>
      <trkpt lat="46.44626" lon="5.15232">
        <ele>218.60000610352</ele>
        <time>2020-10-24T11:42:37.000Z</time>
      </trkpt>
      <trkpt lat="46.44621" lon="5.15232">
        <ele>218.60000610352</ele>
        <time>2020-10-24T11:42:38.000Z</time>
      </trkpt>
      <trkpt lat="46.44615" lon="5.15232">
        <ele>218.60000610352</ele>
        <time>2020-10-24T11:42:39.000Z</time>
      </trkpt>
      <trkpt lat="46.4461" lon="5.15233">
        <ele>218.60000610352</ele>
        <time>2020-10-24T11:42:40.000Z</time>
      </trkpt>
      <trkpt lat="46.446" lon="5.15234">
        <ele>219</ele>
        <time>2020-10-24T11:42:42.000Z</time>
      </trkpt>
      <trkpt lat="46.44589" lon="5.15236">
        <ele>219.39999389648</ele>
        <time>2020-10-24T11:42:44.000Z</time>
      </trkpt>
      <trkpt lat="46.44584" lon="5.15236">
        <ele>219.60000610352</ele>
        <time>2020-10-24T11:42:45.000Z</time>
      </trkpt>
      <trkpt lat="46.44579" lon="5.15237">
        <ele>219.60000610352</ele>
        <time>2020-10-24T11:42:46.000Z</time>
      </trkpt>
      <trkpt lat="46.44567" lon="5.1524">
        <ele>219.80000305176</ele>
        <time>2020-10-24T11:42:48.000Z</time>
      </trkpt>
      <trkpt lat="46.44556" lon="5.15243">
        <ele>220</ele>
        <time>2020-10-24T11:42:50.000Z</time>
      </trkpt>
      <trkpt lat="46.44545" lon="5.15245">
        <ele>220.60000610352</ele>
        <time>2020-10-24T11:42:52.000Z</time>
      </trkpt>
      <trkpt lat="46.4454" lon="5.15247">
        <ele>220.60000610352</ele>
        <time>2020-10-24T11:42:53.000Z</time>
      </trkpt>
      <trkpt lat="46.44534" lon="5.15248">
        <ele>220.80000305176</ele>
        <time>2020-10-24T11:42:54.000Z</time>
      </trkpt>
      <trkpt lat="46.44522" lon="5.15251">
        <ele>221</ele>
        <time>2020-10-24T11:42:56.000Z</time>
      </trkpt>
      <trkpt lat="46.44511" lon="5.15254">
        <ele>221.19999694824</ele>
        <time>2020-10-24T11:42:58.000Z</time>
      </trkpt>
      <trkpt lat="46.44499" lon="5.15256">
        <ele>221.39999389648</ele>
        <time>2020-10-24T11:43:00.000Z</time>
      </trkpt>
      <trkpt lat="46.44487" lon="5.15259">
        <ele>221.39999389648</ele>
        <time>2020-10-24T11:43:02.000Z</time>
      </trkpt>
      <trkpt lat="46.44474" lon="5.15261">
        <ele>221.39999389648</ele>
        <time>2020-10-24T11:43:04.000Z</time>
      </trkpt>
      <trkpt lat="46.44461" lon="5.15264">
        <ele>221.39999389648</ele>
        <time>2020-10-24T11:43:06.000Z</time>
      </trkpt>
      <trkpt lat="46.44455" lon="5.15265">
        <ele>221.39999389648</ele>
        <time>2020-10-24T11:43:07.000Z</time>
      </trkpt>
      <trkpt lat="46.44448" lon="5.15266">
        <ele>221.39999389648</ele>
        <time>2020-10-24T11:43:08.000Z</time>
      </trkpt>
      <trkpt lat="46.44434" lon="5.15269">
        <ele>221.39999389648</ele>
        <time>2020-10-24T11:43:10.000Z</time>
      </trkpt>
      <trkpt lat="46.44419" lon="5.15271">
        <ele>221.39999389648</ele>
        <time>2020-10-24T11:43:12.000Z</time>
      </trkpt>
      <trkpt lat="46.44405" lon="5.15274">
        <ele>221.19999694824</ele>
        <time>2020-10-24T11:43:14.000Z</time>
      </trkpt>
      <trkpt lat="46.4439" lon="5.15277">
        <ele>221.19999694824</ele>
        <time>2020-10-24T11:43:16.000Z</time>
      </trkpt>
      <trkpt lat="46.44376" lon="5.15281">
        <ele>220.80000305176</ele>
        <time>2020-10-24T11:43:18.000Z</time>
      </trkpt>
      <trkpt lat="46.44362" lon="5.15286">
        <ele>220.19999694824</ele>
        <time>2020-10-24T11:43:20.000Z</time>
      </trkpt>
      <trkpt lat="46.44348" lon="5.15293">
        <ele>219.60000610352</ele>
        <time>2020-10-24T11:43:22.000Z</time>
      </trkpt>
      <trkpt lat="46.44341" lon="5.15297">
        <ele>219.39999389648</ele>
        <time>2020-10-24T11:43:23.000Z</time>
      </trkpt>
      <trkpt lat="46.44334" lon="5.15301">
        <ele>219.19999694824</ele>
        <time>2020-10-24T11:43:24.000Z</time>
      </trkpt>
      <trkpt lat="46.44321" lon="5.1531">
        <ele>219.19999694824</ele>
        <time>2020-10-24T11:43:26.000Z</time>
      </trkpt>
      <trkpt lat="46.44309" lon="5.15319">
        <ele>219.19999694824</ele>
        <time>2020-10-24T11:43:28.000Z</time>
      </trkpt>
      <trkpt lat="46.44297" lon="5.15328">
        <ele>219.19999694824</ele>
        <time>2020-10-24T11:43:30.000Z</time>
      </trkpt>
      <trkpt lat="46.44286" lon="5.15337">
        <ele>219.19999694824</ele>
        <time>2020-10-24T11:43:32.000Z</time>
      </trkpt>
      <trkpt lat="46.44274" lon="5.15345">
        <ele>219.19999694824</ele>
        <time>2020-10-24T11:43:34.000Z</time>
      </trkpt>
      <trkpt lat="46.44262" lon="5.15352">
        <ele>219.19999694824</ele>
        <time>2020-10-24T11:43:36.000Z</time>
      </trkpt>
      <trkpt lat="46.44255" lon="5.15355">
        <ele>219.39999389648</ele>
        <time>2020-10-24T11:43:37.000Z</time>
      </trkpt>
      <trkpt lat="46.44249" lon="5.15358">
        <ele>219.39999389648</ele>
        <time>2020-10-24T11:43:38.000Z</time>
      </trkpt>
      <trkpt lat="46.44242" lon="5.15359">
        <ele>219.60000610352</ele>
        <time>2020-10-24T11:43:39.000Z</time>
      </trkpt>
      <trkpt lat="46.44235" lon="5.15359">
        <ele>219.60000610352</ele>
        <time>2020-10-24T11:43:40.000Z</time>
      </trkpt>
      <trkpt lat="46.44229" lon="5.15358">
        <ele>219.80000305176</ele>
        <time>2020-10-24T11:43:41.000Z</time>
      </trkpt>
      <trkpt lat="46.44222" lon="5.15357">
        <ele>219.80000305176</ele>
        <time>2020-10-24T11:43:42.000Z</time>
      </trkpt>
      <trkpt lat="46.44209" lon="5.15356">
        <ele>220</ele>
        <time>2020-10-24T11:43:44.000Z</time>
      </trkpt>
      <trkpt lat="46.44195" lon="5.15355">
        <ele>219.80000305176</ele>
        <time>2020-10-24T11:43:46.000Z</time>
      </trkpt>
      <trkpt lat="46.4418" lon="5.15355">
        <ele>219.80000305176</ele>
        <time>2020-10-24T11:43:48.000Z</time>
      </trkpt>
      <trkpt lat="46.44173" lon="5.15354">
        <ele>219.80000305176</ele>
        <time>2020-10-24T11:43:49.000Z</time>
      </trkpt>
      <trkpt lat="46.44166" lon="5.15354">
        <ele>219.80000305176</ele>
        <time>2020-10-24T11:43:50.000Z</time>
      </trkpt>
      <trkpt lat="46.44151" lon="5.15353">
        <ele>219.80000305176</ele>
        <time>2020-10-24T11:43:52.000Z</time>
      </trkpt>
      <trkpt lat="46.44137" lon="5.15352">
        <ele>219.60000610352</ele>
        <time>2020-10-24T11:43:54.000Z</time>
      </trkpt>
      <trkpt lat="46.44123" lon="5.15351">
        <ele>219.60000610352</ele>
        <time>2020-10-24T11:43:56.000Z</time>
      </trkpt>
      <trkpt lat="46.4411" lon="5.15351">
        <ele>219.39999389648</ele>
        <time>2020-10-24T11:43:58.000Z</time>
      </trkpt>
      <trkpt lat="46.44096" lon="5.1535">
        <ele>219.19999694824</ele>
        <time>2020-10-24T11:44:00.000Z</time>
      </trkpt>
      <trkpt lat="46.44083" lon="5.15349">
        <ele>219</ele>
        <time>2020-10-24T11:44:02.000Z</time>
      </trkpt>
      <trkpt lat="46.4407" lon="5.15349">
        <ele>219</ele>
        <time>2020-10-24T11:44:04.000Z</time>
      </trkpt>
      <trkpt lat="46.44058" lon="5.15349">
        <ele>219</ele>
        <time>2020-10-24T11:44:06.000Z</time>
      </trkpt>
      <trkpt lat="46.44045" lon="5.15348">
        <ele>219</ele>
        <time>2020-10-24T11:44:08.000Z</time>
      </trkpt>
      <trkpt lat="46.44038" lon="5.15349">
        <ele>219</ele>
        <time>2020-10-24T11:44:09.000Z</time>
      </trkpt>
      <trkpt lat="46.44032" lon="5.15349">
        <ele>219</ele>
        <time>2020-10-24T11:44:10.000Z</time>
      </trkpt>
      <trkpt lat="46.4402" lon="5.15349">
        <ele>219.19999694824</ele>
        <time>2020-10-24T11:44:12.000Z</time>
      </trkpt>
      <trkpt lat="46.44007" lon="5.15349">
        <ele>219.39999389648</ele>
        <time>2020-10-24T11:44:14.000Z</time>
      </trkpt>
      <trkpt lat="46.43995" lon="5.1535">
        <ele>219.60000610352</ele>
        <time>2020-10-24T11:44:16.000Z</time>
      </trkpt>
      <trkpt lat="46.43983" lon="5.15351">
        <ele>219.80000305176</ele>
        <time>2020-10-24T11:44:18.000Z</time>
      </trkpt>
      <trkpt lat="46.43971" lon="5.15351">
        <ele>220</ele>
        <time>2020-10-24T11:44:20.000Z</time>
      </trkpt>
      <trkpt lat="46.43965" lon="5.15351">
        <ele>220.19999694824</ele>
        <time>2020-10-24T11:44:21.000Z</time>
      </trkpt>
      <trkpt lat="46.43959" lon="5.15351">
        <ele>220.39999389648</ele>
        <time>2020-10-24T11:44:22.000Z</time>
      </trkpt>
      <trkpt lat="46.43946" lon="5.15351">
        <ele>220.80000305176</ele>
        <time>2020-10-24T11:44:24.000Z</time>
      </trkpt>
      <trkpt lat="46.4394" lon="5.15351">
        <ele>220.80000305176</ele>
        <time>2020-10-24T11:44:25.000Z</time>
      </trkpt>
      <trkpt lat="46.43934" lon="5.15351">
        <ele>221</ele>
        <time>2020-10-24T11:44:26.000Z</time>
      </trkpt>
      <trkpt lat="46.43921" lon="5.15352">
        <ele>221.19999694824</ele>
        <time>2020-10-24T11:44:28.000Z</time>
      </trkpt>
      <trkpt lat="46.43915" lon="5.15352">
        <ele>221.39999389648</ele>
        <time>2020-10-24T11:44:29.000Z</time>
      </trkpt>
      <trkpt lat="46.43909" lon="5.15352">
        <ele>221.60000610352</ele>
        <time>2020-10-24T11:44:30.000Z</time>
      </trkpt>
      <trkpt lat="46.43897" lon="5.15352">
        <ele>221.80000305176</ele>
        <time>2020-10-24T11:44:32.000Z</time>
      </trkpt>
      <trkpt lat="46.43891" lon="5.15352">
        <ele>221.80000305176</ele>
        <time>2020-10-24T11:44:33.000Z</time>
      </trkpt>
      <trkpt lat="46.43885" lon="5.15351">
        <ele>222</ele>
        <time>2020-10-24T11:44:34.000Z</time>
      </trkpt>
      <trkpt lat="46.43874" lon="5.1535">
        <ele>222</ele>
        <time>2020-10-24T11:44:36.000Z</time>
      </trkpt>
      <trkpt lat="46.43868" lon="5.15349">
        <ele>222</ele>
        <time>2020-10-24T11:44:37.000Z</time>
      </trkpt>
      <trkpt lat="46.43862" lon="5.15347">
        <ele>222.19999694824</ele>
        <time>2020-10-24T11:44:38.000Z</time>
      </trkpt>
      <trkpt lat="46.4385" lon="5.15342">
        <ele>222.60000610352</ele>
        <time>2020-10-24T11:44:40.000Z</time>
      </trkpt>
      <trkpt lat="46.43839" lon="5.15336">
        <ele>222.80000305176</ele>
        <time>2020-10-24T11:44:42.000Z</time>
      </trkpt>
      <trkpt lat="46.43834" lon="5.15333">
        <ele>223</ele>
        <time>2020-10-24T11:44:43.000Z</time>
      </trkpt>
      <trkpt lat="46.43829" lon="5.15329">
        <ele>223</ele>
        <time>2020-10-24T11:44:44.000Z</time>
      </trkpt>
      <trkpt lat="46.43819" lon="5.15321">
        <ele>223.19999694824</ele>
        <time>2020-10-24T11:44:46.000Z</time>
      </trkpt>
      <trkpt lat="46.43809" lon="5.15314">
        <ele>223.39999389648</ele>
        <time>2020-10-24T11:44:48.000Z</time>
      </trkpt>
      <trkpt lat="46.438" lon="5.15306">
        <ele>224</ele>
        <time>2020-10-24T11:44:50.000Z</time>
      </trkpt>
      <trkpt lat="46.43791" lon="5.15297">
        <ele>224.39999389648</ele>
        <time>2020-10-24T11:44:52.000Z</time>
      </trkpt>
      <trkpt lat="46.43782" lon="5.15287">
        <ele>225</ele>
        <time>2020-10-24T11:44:54.000Z</time>
      </trkpt>
      <trkpt lat="46.43777" lon="5.15282">
        <ele>225.19999694824</ele>
        <time>2020-10-24T11:44:55.000Z</time>
      </trkpt>
      <trkpt lat="46.43772" lon="5.15276">
        <ele>225.19999694824</ele>
        <time>2020-10-24T11:44:56.000Z</time>
      </trkpt>
      <trkpt lat="46.43767" lon="5.15271">
        <ele>225.39999389648</ele>
        <time>2020-10-24T11:44:57.000Z</time>
      </trkpt>
      <trkpt lat="46.43762" lon="5.15265">
        <ele>225.39999389648</ele>
        <time>2020-10-24T11:44:58.000Z</time>
      </trkpt>
      <trkpt lat="46.43753" lon="5.15253">
        <ele>225.39999389648</ele>
        <time>2020-10-24T11:45:00.000Z</time>
      </trkpt>
      <trkpt lat="46.43743" lon="5.15241">
        <ele>225.39999389648</ele>
        <time>2020-10-24T11:45:02.000Z</time>
      </trkpt>
      <trkpt lat="46.43733" lon="5.15228">
        <ele>225.39999389648</ele>
        <time>2020-10-24T11:45:04.000Z</time>
      </trkpt>
      <trkpt lat="46.43722" lon="5.15215">
        <ele>225.39999389648</ele>
        <time>2020-10-24T11:45:06.000Z</time>
      </trkpt>
      <trkpt lat="46.4371" lon="5.15202">
        <ele>225.19999694824</ele>
        <time>2020-10-24T11:45:08.000Z</time>
      </trkpt>
      <trkpt lat="46.43699" lon="5.15188">
        <ele>224.60000610352</ele>
        <time>2020-10-24T11:45:10.000Z</time>
      </trkpt>
      <trkpt lat="46.43686" lon="5.15173">
        <ele>224.19999694824</ele>
        <time>2020-10-24T11:45:12.000Z</time>
      </trkpt>
      <trkpt lat="46.4368" lon="5.15166">
        <ele>224</ele>
        <time>2020-10-24T11:45:13.000Z</time>
      </trkpt>
      <trkpt lat="46.43674" lon="5.15158">
        <ele>223.60000610352</ele>
        <time>2020-10-24T11:45:14.000Z</time>
      </trkpt>
      <trkpt lat="46.43668" lon="5.15151">
        <ele>223.39999389648</ele>
        <time>2020-10-24T11:45:15.000Z</time>
      </trkpt>
      <trkpt lat="46.43661" lon="5.15143">
        <ele>223.19999694824</ele>
        <time>2020-10-24T11:45:16.000Z</time>
      </trkpt>
      <trkpt lat="46.43648" lon="5.15128">
        <ele>222.80000305176</ele>
        <time>2020-10-24T11:45:18.000Z</time>
      </trkpt>
      <trkpt lat="46.43635" lon="5.15113">
        <ele>222</ele>
        <time>2020-10-24T11:45:20.000Z</time>
      </trkpt>
      <trkpt lat="46.43622" lon="5.15097">
        <ele>221.60000610352</ele>
        <time>2020-10-24T11:45:22.000Z</time>
      </trkpt>
      <trkpt lat="46.43609" lon="5.15081">
        <ele>220.80000305176</ele>
        <time>2020-10-24T11:45:24.000Z</time>
      </trkpt>
      <trkpt lat="46.43603" lon="5.15073">
        <ele>220.19999694824</ele>
        <time>2020-10-24T11:45:25.000Z</time>
      </trkpt>
      <trkpt lat="46.43596" lon="5.15065">
        <ele>219.80000305176</ele>
        <time>2020-10-24T11:45:26.000Z</time>
      </trkpt>
      <trkpt lat="46.43583" lon="5.1505">
        <ele>219</ele>
        <time>2020-10-24T11:45:28.000Z</time>
      </trkpt>
      <trkpt lat="46.4357" lon="5.15034">
        <ele>218.60000610352</ele>
        <time>2020-10-24T11:45:30.000Z</time>
      </trkpt>
      <trkpt lat="46.43556" lon="5.15018">
        <ele>217.80000305176</ele>
        <time>2020-10-24T11:45:32.000Z</time>
      </trkpt>
      <trkpt lat="46.43543" lon="5.15003">
        <ele>217</ele>
        <time>2020-10-24T11:45:34.000Z</time>
      </trkpt>
      <trkpt lat="46.43536" lon="5.14995">
        <ele>216.60000610352</ele>
        <time>2020-10-24T11:45:35.000Z</time>
      </trkpt>
      <trkpt lat="46.4353" lon="5.14987">
        <ele>216.19999694824</ele>
        <time>2020-10-24T11:45:36.000Z</time>
      </trkpt>
      <trkpt lat="46.43516" lon="5.14971">
        <ele>215</ele>
        <time>2020-10-24T11:45:38.000Z</time>
      </trkpt>
      <trkpt lat="46.43509" lon="5.14963">
        <ele>214.60000610352</ele>
        <time>2020-10-24T11:45:39.000Z</time>
      </trkpt>
      <trkpt lat="46.43502" lon="5.14955">
        <ele>214.39999389648</ele>
        <time>2020-10-24T11:45:40.000Z</time>
      </trkpt>
      <trkpt lat="46.43488" lon="5.14938">
        <ele>213.60000610352</ele>
        <time>2020-10-24T11:45:42.000Z</time>
      </trkpt>
      <trkpt lat="46.43474" lon="5.14921">
        <ele>213.19999694824</ele>
        <time>2020-10-24T11:45:44.000Z</time>
      </trkpt>
      <trkpt lat="46.4346" lon="5.14904">
        <ele>212.80000305176</ele>
        <time>2020-10-24T11:45:46.000Z</time>
      </trkpt>
      <trkpt lat="46.43453" lon="5.14896">
        <ele>212.60000610352</ele>
        <time>2020-10-24T11:45:47.000Z</time>
      </trkpt>
      <trkpt lat="46.43446" lon="5.14888">
        <ele>212.19999694824</ele>
        <time>2020-10-24T11:45:48.000Z</time>
      </trkpt>
      <trkpt lat="46.43433" lon="5.14873">
        <ele>211.39999389648</ele>
        <time>2020-10-24T11:45:50.000Z</time>
      </trkpt>
      <trkpt lat="46.4342" lon="5.14857">
        <ele>211</ele>
        <time>2020-10-24T11:45:52.000Z</time>
      </trkpt>
      <trkpt lat="46.43407" lon="5.14843">
        <ele>210.60000610352</ele>
        <time>2020-10-24T11:45:54.000Z</time>
      </trkpt>
      <trkpt lat="46.434" lon="5.14836">
        <ele>210.19999694824</ele>
        <time>2020-10-24T11:45:55.000Z</time>
      </trkpt>
      <trkpt lat="46.43393" lon="5.1483">
        <ele>210.19999694824</ele>
        <time>2020-10-24T11:45:56.000Z</time>
      </trkpt>
      <trkpt lat="46.4338" lon="5.14819">
        <ele>210</ele>
        <time>2020-10-24T11:45:58.000Z</time>
      </trkpt>
      <trkpt lat="46.43367" lon="5.14808">
        <ele>210</ele>
        <time>2020-10-24T11:46:00.000Z</time>
      </trkpt>
      <trkpt lat="46.43354" lon="5.14798">
        <ele>210</ele>
        <time>2020-10-24T11:46:02.000Z</time>
      </trkpt>
      <trkpt lat="46.43342" lon="5.14789">
        <ele>210</ele>
        <time>2020-10-24T11:46:04.000Z</time>
      </trkpt>
      <trkpt lat="46.43331" lon="5.1478">
        <ele>210</ele>
        <time>2020-10-24T11:46:06.000Z</time>
      </trkpt>
      <trkpt lat="46.43319" lon="5.14771">
        <ele>210.39999389648</ele>
        <time>2020-10-24T11:46:08.000Z</time>
      </trkpt>
      <trkpt lat="46.43309" lon="5.14763">
        <ele>210.39999389648</ele>
        <time>2020-10-24T11:46:10.000Z</time>
      </trkpt>
      <trkpt lat="46.43298" lon="5.14754">
        <ele>210.60000610352</ele>
        <time>2020-10-24T11:46:12.000Z</time>
      </trkpt>
      <trkpt lat="46.43288" lon="5.14746">
        <ele>210.60000610352</ele>
        <time>2020-10-24T11:46:14.000Z</time>
      </trkpt>
      <trkpt lat="46.43277" lon="5.14738">
        <ele>211</ele>
        <time>2020-10-24T11:46:16.000Z</time>
      </trkpt>
      <trkpt lat="46.43267" lon="5.14729">
        <ele>211.39999389648</ele>
        <time>2020-10-24T11:46:18.000Z</time>
      </trkpt>
      <trkpt lat="46.43262" lon="5.14724">
        <ele>211.39999389648</ele>
        <time>2020-10-24T11:46:19.000Z</time>
      </trkpt>
      <trkpt lat="46.43256" lon="5.14719">
        <ele>211.39999389648</ele>
        <time>2020-10-24T11:46:20.000Z</time>
      </trkpt>
      <trkpt lat="46.43246" lon="5.14709">
        <ele>211.60000610352</ele>
        <time>2020-10-24T11:46:22.000Z</time>
      </trkpt>
      <trkpt lat="46.43237" lon="5.14698">
        <ele>211.60000610352</ele>
        <time>2020-10-24T11:46:24.000Z</time>
      </trkpt>
      <trkpt lat="46.43228" lon="5.14687">
        <ele>211.80000305176</ele>
        <time>2020-10-24T11:46:26.000Z</time>
      </trkpt>
      <trkpt lat="46.43224" lon="5.14682">
        <ele>212</ele>
        <time>2020-10-24T11:46:27.000Z</time>
      </trkpt>
      <trkpt lat="46.4322" lon="5.14676">
        <ele>212</ele>
        <time>2020-10-24T11:46:28.000Z</time>
      </trkpt>
      <trkpt lat="46.43211" lon="5.14666">
        <ele>212.39999389648</ele>
        <time>2020-10-24T11:46:30.000Z</time>
      </trkpt>
      <trkpt lat="46.43207" lon="5.1466">
        <ele>212.60000610352</ele>
        <time>2020-10-24T11:46:31.000Z</time>
      </trkpt>
      <trkpt lat="46.43202" lon="5.14655">
        <ele>212.80000305176</ele>
        <time>2020-10-24T11:46:32.000Z</time>
      </trkpt>
      <trkpt lat="46.43194" lon="5.14644">
        <ele>213.39999389648</ele>
        <time>2020-10-24T11:46:34.000Z</time>
      </trkpt>
      <trkpt lat="46.4319" lon="5.14638">
        <ele>213.80000305176</ele>
        <time>2020-10-24T11:46:35.000Z</time>
      </trkpt>
      <trkpt lat="46.43185" lon="5.14633">
        <ele>213.80000305176</ele>
        <time>2020-10-24T11:46:36.000Z</time>
      </trkpt>
      <trkpt lat="46.43177" lon="5.14622">
        <ele>214.19999694824</ele>
        <time>2020-10-24T11:46:38.000Z</time>
      </trkpt>
      <trkpt lat="46.43168" lon="5.14611">
        <ele>214.39999389648</ele>
        <time>2020-10-24T11:46:40.000Z</time>
      </trkpt>
      <trkpt lat="46.43159" lon="5.146">
        <ele>215</ele>
        <time>2020-10-24T11:46:42.000Z</time>
      </trkpt>
      <trkpt lat="46.43151" lon="5.14589">
        <ele>215.39999389648</ele>
        <time>2020-10-24T11:46:44.000Z</time>
      </trkpt>
      <trkpt lat="46.43142" lon="5.14578">
        <ele>215.60000610352</ele>
        <time>2020-10-24T11:46:46.000Z</time>
      </trkpt>
      <trkpt lat="46.43133" lon="5.14566">
        <ele>216</ele>
        <time>2020-10-24T11:46:48.000Z</time>
      </trkpt>
      <trkpt lat="46.43129" lon="5.14561">
        <ele>216</ele>
        <time>2020-10-24T11:46:49.000Z</time>
      </trkpt>
      <trkpt lat="46.43125" lon="5.14554">
        <ele>216.19999694824</ele>
        <time>2020-10-24T11:46:50.000Z</time>
      </trkpt>
      <trkpt lat="46.43117" lon="5.14542">
        <ele>216.19999694824</ele>
        <time>2020-10-24T11:46:52.000Z</time>
      </trkpt>
      <trkpt lat="46.43109" lon="5.14529">
        <ele>216.19999694824</ele>
        <time>2020-10-24T11:46:54.000Z</time>
      </trkpt>
      <trkpt lat="46.431" lon="5.14515">
        <ele>216.19999694824</ele>
        <time>2020-10-24T11:46:56.000Z</time>
      </trkpt>
      <trkpt lat="46.4309" lon="5.14499">
        <ele>216.19999694824</ele>
        <time>2020-10-24T11:46:58.000Z</time>
      </trkpt>
      <trkpt lat="46.43081" lon="5.14484">
        <ele>216.19999694824</ele>
        <time>2020-10-24T11:47:00.000Z</time>
      </trkpt>
      <trkpt lat="46.43076" lon="5.14476">
        <ele>216.19999694824</ele>
        <time>2020-10-24T11:47:01.000Z</time>
      </trkpt>
      <trkpt lat="46.43071" lon="5.14468">
        <ele>216.19999694824</ele>
        <time>2020-10-24T11:47:02.000Z</time>
      </trkpt>
      <trkpt lat="46.43061" lon="5.14451">
        <ele>215.80000305176</ele>
        <time>2020-10-24T11:47:04.000Z</time>
      </trkpt>
      <trkpt lat="46.43051" lon="5.14434">
        <ele>215.60000610352</ele>
        <time>2020-10-24T11:47:06.000Z</time>
      </trkpt>
      <trkpt lat="46.4304" lon="5.14417">
        <ele>214.80000305176</ele>
        <time>2020-10-24T11:47:08.000Z</time>
      </trkpt>
      <trkpt lat="46.4303" lon="5.14401">
        <ele>213.80000305176</ele>
        <time>2020-10-24T11:47:10.000Z</time>
      </trkpt>
      <trkpt lat="46.43025" lon="5.14393">
        <ele>213.39999389648</ele>
        <time>2020-10-24T11:47:11.000Z</time>
      </trkpt>
      <trkpt lat="46.4302" lon="5.14385">
        <ele>213.19999694824</ele>
        <time>2020-10-24T11:47:12.000Z</time>
      </trkpt>
      <trkpt lat="46.43011" lon="5.14369">
        <ele>212.60000610352</ele>
        <time>2020-10-24T11:47:14.000Z</time>
      </trkpt>
      <trkpt lat="46.43006" lon="5.14361">
        <ele>212.39999389648</ele>
        <time>2020-10-24T11:47:15.000Z</time>
      </trkpt>
      <trkpt lat="46.43002" lon="5.14354">
        <ele>212.39999389648</ele>
        <time>2020-10-24T11:47:16.000Z</time>
      </trkpt>
      <trkpt lat="46.42993" lon="5.14339">
        <ele>212.39999389648</ele>
        <time>2020-10-24T11:47:18.000Z</time>
      </trkpt>
      <trkpt lat="46.42984" lon="5.14325">
        <ele>212.39999389648</ele>
        <time>2020-10-24T11:47:20.000Z</time>
      </trkpt>
      <trkpt lat="46.42975" lon="5.14312">
        <ele>212.39999389648</ele>
        <time>2020-10-24T11:47:22.000Z</time>
      </trkpt>
      <trkpt lat="46.42967" lon="5.143">
        <ele>212.39999389648</ele>
        <time>2020-10-24T11:47:24.000Z</time>
      </trkpt>
      <trkpt lat="46.42957" lon="5.1429">
        <ele>212.80000305176</ele>
        <time>2020-10-24T11:47:26.000Z</time>
      </trkpt>
      <trkpt lat="46.42948" lon="5.1428">
        <ele>213.39999389648</ele>
        <time>2020-10-24T11:47:28.000Z</time>
      </trkpt>
      <trkpt lat="46.42943" lon="5.14275">
        <ele>213.60000610352</ele>
        <time>2020-10-24T11:47:29.000Z</time>
      </trkpt>
      <trkpt lat="46.42938" lon="5.14271">
        <ele>213.80000305176</ele>
        <time>2020-10-24T11:47:30.000Z</time>
      </trkpt>
      <trkpt lat="46.42928" lon="5.14263">
        <ele>214.80000305176</ele>
        <time>2020-10-24T11:47:32.000Z</time>
      </trkpt>
      <trkpt lat="46.42923" lon="5.14258">
        <ele>215</ele>
        <time>2020-10-24T11:47:33.000Z</time>
      </trkpt>
      <trkpt lat="46.42918" lon="5.14254">
        <ele>215.19999694824</ele>
        <time>2020-10-24T11:47:34.000Z</time>
      </trkpt>
      <trkpt lat="46.42908" lon="5.14247">
        <ele>215.39999389648</ele>
        <time>2020-10-24T11:47:36.000Z</time>
      </trkpt>
      <trkpt lat="46.42897" lon="5.14238">
        <ele>215.60000610352</ele>
        <time>2020-10-24T11:47:38.000Z</time>
      </trkpt>
      <trkpt lat="46.42892" lon="5.14233">
        <ele>215.60000610352</ele>
        <time>2020-10-24T11:47:39.000Z</time>
      </trkpt>
      <trkpt lat="46.42886" lon="5.14229">
        <ele>215.60000610352</ele>
        <time>2020-10-24T11:47:40.000Z</time>
      </trkpt>
      <trkpt lat="46.42875" lon="5.1422">
        <ele>216</ele>
        <time>2020-10-24T11:47:42.000Z</time>
      </trkpt>
      <trkpt lat="46.42864" lon="5.1421">
        <ele>216</ele>
        <time>2020-10-24T11:47:44.000Z</time>
      </trkpt>
      <trkpt lat="46.42853" lon="5.14202">
        <ele>216.19999694824</ele>
        <time>2020-10-24T11:47:46.000Z</time>
      </trkpt>
      <trkpt lat="46.42843" lon="5.14193">
        <ele>216.39999389648</ele>
        <time>2020-10-24T11:47:48.000Z</time>
      </trkpt>
      <trkpt lat="46.42832" lon="5.14183">
        <ele>216.60000610352</ele>
        <time>2020-10-24T11:47:50.000Z</time>
      </trkpt>
      <trkpt lat="46.42821" lon="5.14173">
        <ele>216.80000305176</ele>
        <time>2020-10-24T11:47:52.000Z</time>
      </trkpt>
      <trkpt lat="46.4281" lon="5.14162">
        <ele>216.80000305176</ele>
        <time>2020-10-24T11:47:54.000Z</time>
      </trkpt>
      <trkpt lat="46.42805" lon="5.14156">
        <ele>216.80000305176</ele>
        <time>2020-10-24T11:47:55.000Z</time>
      </trkpt>
      <trkpt lat="46.42799" lon="5.14149">
        <ele>216.80000305176</ele>
        <time>2020-10-24T11:47:56.000Z</time>
      </trkpt>
      <trkpt lat="46.42789" lon="5.14132">
        <ele>216.60000610352</ele>
        <time>2020-10-24T11:47:58.000Z</time>
      </trkpt>
      <trkpt lat="46.42785" lon="5.14123">
        <ele>216.60000610352</ele>
        <time>2020-10-24T11:47:59.000Z</time>
      </trkpt>
      <trkpt lat="46.42781" lon="5.14112">
        <ele>216.60000610352</ele>
        <time>2020-10-24T11:48:00.000Z</time>
      </trkpt>
      <trkpt lat="46.42775" lon="5.1409">
        <ele>216.19999694824</ele>
        <time>2020-10-24T11:48:02.000Z</time>
      </trkpt>
      <trkpt lat="46.42773" lon="5.14078">
        <ele>216</ele>
        <time>2020-10-24T11:48:03.000Z</time>
      </trkpt>
      <trkpt lat="46.42772" lon="5.14066">
        <ele>215.39999389648</ele>
        <time>2020-10-24T11:48:04.000Z</time>
      </trkpt>
      <trkpt lat="46.42771" lon="5.14054">
        <ele>214.80000305176</ele>
        <time>2020-10-24T11:48:05.000Z</time>
      </trkpt>
      <trkpt lat="46.42771" lon="5.14042">
        <ele>214.39999389648</ele>
        <time>2020-10-24T11:48:06.000Z</time>
      </trkpt>
      <trkpt lat="46.42772" lon="5.1403">
        <ele>214</ele>
        <time>2020-10-24T11:48:07.000Z</time>
      </trkpt>
      <trkpt lat="46.42772" lon="5.14019">
        <ele>213.80000305176</ele>
        <time>2020-10-24T11:48:08.000Z</time>
      </trkpt>
      <trkpt lat="46.42773" lon="5.14007">
        <ele>213.39999389648</ele>
        <time>2020-10-24T11:48:09.000Z</time>
      </trkpt>
      <trkpt lat="46.42774" lon="5.13996">
        <ele>213</ele>
        <time>2020-10-24T11:48:10.000Z</time>
      </trkpt>
      <trkpt lat="46.42775" lon="5.13973">
        <ele>212.60000610352</ele>
        <time>2020-10-24T11:48:12.000Z</time>
      </trkpt>
      <trkpt lat="46.42776" lon="5.13951">
        <ele>212.39999389648</ele>
        <time>2020-10-24T11:48:14.000Z</time>
      </trkpt>
      <trkpt lat="46.42775" lon="5.1393">
        <ele>212.39999389648</ele>
        <time>2020-10-24T11:48:16.000Z</time>
      </trkpt>
      <trkpt lat="46.42772" lon="5.1391">
        <ele>212.39999389648</ele>
        <time>2020-10-24T11:48:18.000Z</time>
      </trkpt>
      <trkpt lat="46.42766" lon="5.13893">
        <ele>212.39999389648</ele>
        <time>2020-10-24T11:48:20.000Z</time>
      </trkpt>
      <trkpt lat="46.4276" lon="5.13877">
        <ele>212.80000305176</ele>
        <time>2020-10-24T11:48:22.000Z</time>
      </trkpt>
      <trkpt lat="46.42756" lon="5.1387">
        <ele>212.80000305176</ele>
        <time>2020-10-24T11:48:23.000Z</time>
      </trkpt>
      <trkpt lat="46.42752" lon="5.13863">
        <ele>212.80000305176</ele>
        <time>2020-10-24T11:48:24.000Z</time>
      </trkpt>
      <trkpt lat="46.42747" lon="5.13857">
        <ele>213</ele>
        <time>2020-10-24T11:48:25.000Z</time>
      </trkpt>
      <trkpt lat="46.42743" lon="5.13851">
        <ele>213.39999389648</ele>
        <time>2020-10-24T11:48:26.000Z</time>
      </trkpt>
      <trkpt lat="46.42735" lon="5.13838">
        <ele>214.39999389648</ele>
        <time>2020-10-24T11:48:28.000Z</time>
      </trkpt>
      <trkpt lat="46.42731" lon="5.13832">
        <ele>214.60000610352</ele>
        <time>2020-10-24T11:48:29.000Z</time>
      </trkpt>
      <trkpt lat="46.42727" lon="5.13826">
        <ele>214.80000305176</ele>
        <time>2020-10-24T11:48:30.000Z</time>
      </trkpt>
      <trkpt lat="46.42719" lon="5.13814">
        <ele>215.19999694824</ele>
        <time>2020-10-24T11:48:32.000Z</time>
      </trkpt>
      <trkpt lat="46.42715" lon="5.13808">
        <ele>215.19999694824</ele>
        <time>2020-10-24T11:48:33.000Z</time>
      </trkpt>
      <trkpt lat="46.42711" lon="5.13802">
        <ele>215.19999694824</ele>
        <time>2020-10-24T11:48:34.000Z</time>
      </trkpt>
      <trkpt lat="46.42703" lon="5.13791">
        <ele>215.39999389648</ele>
        <time>2020-10-24T11:48:36.000Z</time>
      </trkpt>
      <trkpt lat="46.42695" lon="5.13779">
        <ele>215.39999389648</ele>
        <time>2020-10-24T11:48:38.000Z</time>
      </trkpt>
      <trkpt lat="46.42687" lon="5.13766">
        <ele>215.80000305176</ele>
        <time>2020-10-24T11:48:40.000Z</time>
      </trkpt>
      <trkpt lat="46.42678" lon="5.13754">
        <ele>216.19999694824</ele>
        <time>2020-10-24T11:48:42.000Z</time>
      </trkpt>
      <trkpt lat="46.42668" lon="5.13743">
        <ele>216.19999694824</ele>
        <time>2020-10-24T11:48:44.000Z</time>
      </trkpt>
      <trkpt lat="46.42658" lon="5.13733">
        <ele>216.39999389648</ele>
        <time>2020-10-24T11:48:46.000Z</time>
      </trkpt>
      <trkpt lat="46.42652" lon="5.13729">
        <ele>216.39999389648</ele>
        <time>2020-10-24T11:48:47.000Z</time>
      </trkpt>
      <trkpt lat="46.42646" lon="5.13727">
        <ele>216.39999389648</ele>
        <time>2020-10-24T11:48:48.000Z</time>
      </trkpt>
      <trkpt lat="46.42634" lon="5.13723">
        <ele>216.39999389648</ele>
        <time>2020-10-24T11:48:50.000Z</time>
      </trkpt>
      <trkpt lat="46.42621" lon="5.1372">
        <ele>216.19999694824</ele>
        <time>2020-10-24T11:48:52.000Z</time>
      </trkpt>
      <trkpt lat="46.42608" lon="5.13716">
        <ele>216.19999694824</ele>
        <time>2020-10-24T11:48:54.000Z</time>
      </trkpt>
      <trkpt lat="46.42596" lon="5.13711">
        <ele>216</ele>
        <time>2020-10-24T11:48:56.000Z</time>
      </trkpt>
      <trkpt lat="46.42583" lon="5.13702">
        <ele>216</ele>
        <time>2020-10-24T11:48:58.000Z</time>
      </trkpt>
      <trkpt lat="46.42572" lon="5.13692">
        <ele>216</ele>
        <time>2020-10-24T11:49:00.000Z</time>
      </trkpt>
      <trkpt lat="46.42563" lon="5.13679">
        <ele>215.80000305176</ele>
        <time>2020-10-24T11:49:02.000Z</time>
      </trkpt>
      <trkpt lat="46.42558" lon="5.13672">
        <ele>215.80000305176</ele>
        <time>2020-10-24T11:49:03.000Z</time>
      </trkpt>
      <trkpt lat="46.42554" lon="5.13665">
        <ele>215.80000305176</ele>
        <time>2020-10-24T11:49:04.000Z</time>
      </trkpt>
      <trkpt lat="46.42547" lon="5.13651">
        <ele>215.80000305176</ele>
        <time>2020-10-24T11:49:06.000Z</time>
      </trkpt>
      <trkpt lat="46.4254" lon="5.13637">
        <ele>215.80000305176</ele>
        <time>2020-10-24T11:49:08.000Z</time>
      </trkpt>
      <trkpt lat="46.42533" lon="5.13623">
        <ele>216.19999694824</ele>
        <time>2020-10-24T11:49:10.000Z</time>
      </trkpt>
      <trkpt lat="46.42529" lon="5.13617">
        <ele>216.19999694824</ele>
        <time>2020-10-24T11:49:11.000Z</time>
      </trkpt>
      <trkpt lat="46.42525" lon="5.1361">
        <ele>216.39999389648</ele>
        <time>2020-10-24T11:49:12.000Z</time>
      </trkpt>
      <trkpt lat="46.42516" lon="5.13598">
        <ele>216.60000610352</ele>
        <time>2020-10-24T11:49:14.000Z</time>
      </trkpt>
      <trkpt lat="46.42507" lon="5.13588">
        <ele>217</ele>
        <time>2020-10-24T11:49:16.000Z</time>
      </trkpt>
      <trkpt lat="46.42503" lon="5.13584">
        <ele>217.19999694824</ele>
        <time>2020-10-24T11:49:17.000Z</time>
      </trkpt>
      <trkpt lat="46.42498" lon="5.13579">
        <ele>217.39999389648</ele>
        <time>2020-10-24T11:49:18.000Z</time>
      </trkpt>
      <trkpt lat="46.42488" lon="5.13572">
        <ele>217.80000305176</ele>
        <time>2020-10-24T11:49:20.000Z</time>
      </trkpt>
      <trkpt lat="46.42483" lon="5.13569">
        <ele>218.19999694824</ele>
        <time>2020-10-24T11:49:21.000Z</time>
      </trkpt>
      <trkpt lat="46.42478" lon="5.13567">
        <ele>218.60000610352</ele>
        <time>2020-10-24T11:49:22.000Z</time>
      </trkpt>
      <trkpt lat="46.42473" lon="5.13564">
        <ele>218.80000305176</ele>
        <time>2020-10-24T11:49:23.000Z</time>
      </trkpt>
      <trkpt lat="46.42468" lon="5.13561">
        <ele>218.80000305176</ele>
        <time>2020-10-24T11:49:24.000Z</time>
      </trkpt>
      <trkpt lat="46.42457" lon="5.13556">
        <ele>219.19999694824</ele>
        <time>2020-10-24T11:49:26.000Z</time>
      </trkpt>
      <trkpt lat="46.42446" lon="5.13551">
        <ele>219.39999389648</ele>
        <time>2020-10-24T11:49:28.000Z</time>
      </trkpt>
      <trkpt lat="46.42436" lon="5.13546">
        <ele>219.60000610352</ele>
        <time>2020-10-24T11:49:30.000Z</time>
      </trkpt>
      <trkpt lat="46.42424" lon="5.13541">
        <ele>220</ele>
        <time>2020-10-24T11:49:32.000Z</time>
      </trkpt>
      <trkpt lat="46.42413" lon="5.13536">
        <ele>220.19999694824</ele>
        <time>2020-10-24T11:49:34.000Z</time>
      </trkpt>
      <trkpt lat="46.42402" lon="5.13532">
        <ele>220.39999389648</ele>
        <time>2020-10-24T11:49:36.000Z</time>
      </trkpt>
      <trkpt lat="46.42397" lon="5.13529">
        <ele>220.80000305176</ele>
        <time>2020-10-24T11:49:37.000Z</time>
      </trkpt>
      <trkpt lat="46.42391" lon="5.13527">
        <ele>220.80000305176</ele>
        <time>2020-10-24T11:49:38.000Z</time>
      </trkpt>
      <trkpt lat="46.42379" lon="5.13521">
        <ele>221.19999694824</ele>
        <time>2020-10-24T11:49:40.000Z</time>
      </trkpt>
      <trkpt lat="46.42367" lon="5.13515">
        <ele>221</ele>
        <time>2020-10-24T11:49:42.000Z</time>
      </trkpt>
      <trkpt lat="46.42355" lon="5.13509">
        <ele>221.39999389648</ele>
        <time>2020-10-24T11:49:44.000Z</time>
      </trkpt>
      <trkpt lat="46.42343" lon="5.13504">
        <ele>221.19999694824</ele>
        <time>2020-10-24T11:49:46.000Z</time>
      </trkpt>
      <trkpt lat="46.4233" lon="5.13499">
        <ele>221.19999694824</ele>
        <time>2020-10-24T11:49:48.000Z</time>
      </trkpt>
      <trkpt lat="46.42316" lon="5.13493">
        <ele>221.19999694824</ele>
        <time>2020-10-24T11:49:50.000Z</time>
      </trkpt>
      <trkpt lat="46.42303" lon="5.13488">
        <ele>221.19999694824</ele>
        <time>2020-10-24T11:49:52.000Z</time>
      </trkpt>
      <trkpt lat="46.42289" lon="5.13481">
        <ele>221</ele>
        <time>2020-10-24T11:49:54.000Z</time>
      </trkpt>
      <trkpt lat="46.42275" lon="5.13475">
        <ele>221</ele>
        <time>2020-10-24T11:49:56.000Z</time>
      </trkpt>
      <trkpt lat="46.42262" lon="5.13468">
        <ele>220.80000305176</ele>
        <time>2020-10-24T11:49:58.000Z</time>
      </trkpt>
      <trkpt lat="46.42255" lon="5.13465">
        <ele>220.80000305176</ele>
        <time>2020-10-24T11:49:59.000Z</time>
      </trkpt>
      <trkpt lat="46.42247" lon="5.13462">
        <ele>220.80000305176</ele>
        <time>2020-10-24T11:50:00.000Z</time>
      </trkpt>
      <trkpt lat="46.42233" lon="5.13457">
        <ele>220.60000610352</ele>
        <time>2020-10-24T11:50:02.000Z</time>
      </trkpt>
      <trkpt lat="46.42219" lon="5.1345">
        <ele>220.39999389648</ele>
        <time>2020-10-24T11:50:04.000Z</time>
      </trkpt>
      <trkpt lat="46.42206" lon="5.13444">
        <ele>220.39999389648</ele>
        <time>2020-10-24T11:50:06.000Z</time>
      </trkpt>
      <trkpt lat="46.42199" lon="5.1344">
        <ele>220.19999694824</ele>
        <time>2020-10-24T11:50:07.000Z</time>
      </trkpt>
      <trkpt lat="46.42192" lon="5.13437">
        <ele>220</ele>
        <time>2020-10-24T11:50:08.000Z</time>
      </trkpt>
      <trkpt lat="46.42185" lon="5.13433">
        <ele>219.80000305176</ele>
        <time>2020-10-24T11:50:09.000Z</time>
      </trkpt>
      <trkpt lat="46.42179" lon="5.13428">
        <ele>219.60000610352</ele>
        <time>2020-10-24T11:50:10.000Z</time>
      </trkpt>
      <trkpt lat="46.42167" lon="5.13418">
        <ele>219.39999389648</ele>
        <time>2020-10-24T11:50:12.000Z</time>
      </trkpt>
      <trkpt lat="46.42161" lon="5.13413">
        <ele>219.39999389648</ele>
        <time>2020-10-24T11:50:13.000Z</time>
      </trkpt>
      <trkpt lat="46.42155" lon="5.13407">
        <ele>219.39999389648</ele>
        <time>2020-10-24T11:50:14.000Z</time>
      </trkpt>
      <trkpt lat="46.42144" lon="5.13395">
        <ele>219.39999389648</ele>
        <time>2020-10-24T11:50:16.000Z</time>
      </trkpt>
      <trkpt lat="46.42133" lon="5.13383">
        <ele>219.39999389648</ele>
        <time>2020-10-24T11:50:18.000Z</time>
      </trkpt>
      <trkpt lat="46.42123" lon="5.13371">
        <ele>219.39999389648</ele>
        <time>2020-10-24T11:50:20.000Z</time>
      </trkpt>
      <trkpt lat="46.42113" lon="5.13358">
        <ele>219.39999389648</ele>
        <time>2020-10-24T11:50:22.000Z</time>
      </trkpt>
      <trkpt lat="46.42104" lon="5.13346">
        <ele>219.39999389648</ele>
        <time>2020-10-24T11:50:24.000Z</time>
      </trkpt>
      <trkpt lat="46.42095" lon="5.13334">
        <ele>219.60000610352</ele>
        <time>2020-10-24T11:50:26.000Z</time>
      </trkpt>
      <trkpt lat="46.42085" lon="5.13322">
        <ele>220</ele>
        <time>2020-10-24T11:50:28.000Z</time>
      </trkpt>
      <trkpt lat="46.42077" lon="5.13311">
        <ele>220.19999694824</ele>
        <time>2020-10-24T11:50:30.000Z</time>
      </trkpt>
      <trkpt lat="46.42072" lon="5.13305">
        <ele>220.39999389648</ele>
        <time>2020-10-24T11:50:31.000Z</time>
      </trkpt>
      <trkpt lat="46.42068" lon="5.133">
        <ele>220.39999389648</ele>
        <time>2020-10-24T11:50:32.000Z</time>
      </trkpt>
      <trkpt lat="46.42059" lon="5.13289">
        <ele>220.39999389648</ele>
        <time>2020-10-24T11:50:34.000Z</time>
      </trkpt>
      <trkpt lat="46.42051" lon="5.13278">
        <ele>220.80000305176</ele>
        <time>2020-10-24T11:50:36.000Z</time>
      </trkpt>
      <trkpt lat="46.42047" lon="5.13272">
        <ele>221</ele>
        <time>2020-10-24T11:50:37.000Z</time>
      </trkpt>
      <trkpt lat="46.42043" lon="5.13267">
        <ele>221.19999694824</ele>
        <time>2020-10-24T11:50:38.000Z</time>
      </trkpt>
      <trkpt lat="46.42035" lon="5.13256">
        <ele>221.60000610352</ele>
        <time>2020-10-24T11:50:40.000Z</time>
      </trkpt>
      <trkpt lat="46.4203" lon="5.13251">
        <ele>221.60000610352</ele>
        <time>2020-10-24T11:50:41.000Z</time>
      </trkpt>
      <trkpt lat="46.42026" lon="5.13246">
        <ele>221.60000610352</ele>
        <time>2020-10-24T11:50:42.000Z</time>
      </trkpt>
      <trkpt lat="46.42018" lon="5.13236">
        <ele>221.80000305176</ele>
        <time>2020-10-24T11:50:44.000Z</time>
      </trkpt>
      <trkpt lat="46.42014" lon="5.13231">
        <ele>222</ele>
        <time>2020-10-24T11:50:45.000Z</time>
      </trkpt>
      <trkpt lat="46.4201" lon="5.13225">
        <ele>222.39999389648</ele>
        <time>2020-10-24T11:50:46.000Z</time>
      </trkpt>
      <trkpt lat="46.42002" lon="5.13215">
        <ele>223</ele>
        <time>2020-10-24T11:50:48.000Z</time>
      </trkpt>
      <trkpt lat="46.41998" lon="5.1321">
        <ele>223.19999694824</ele>
        <time>2020-10-24T11:50:49.000Z</time>
      </trkpt>
      <trkpt lat="46.41994" lon="5.13205">
        <ele>223.19999694824</ele>
        <time>2020-10-24T11:50:50.000Z</time>
      </trkpt>
      <trkpt lat="46.4199" lon="5.132">
        <ele>223.39999389648</ele>
        <time>2020-10-24T11:50:51.000Z</time>
      </trkpt>
      <trkpt lat="46.41986" lon="5.13195">
        <ele>223.60000610352</ele>
        <time>2020-10-24T11:50:52.000Z</time>
      </trkpt>
      <trkpt lat="46.41978" lon="5.13184">
        <ele>223.80000305176</ele>
        <time>2020-10-24T11:50:54.000Z</time>
      </trkpt>
      <trkpt lat="46.4197" lon="5.13174">
        <ele>224</ele>
        <time>2020-10-24T11:50:56.000Z</time>
      </trkpt>
      <trkpt lat="46.41966" lon="5.13168">
        <ele>224.19999694824</ele>
        <time>2020-10-24T11:50:57.000Z</time>
      </trkpt>
      <trkpt lat="46.41962" lon="5.13164">
        <ele>224.39999389648</ele>
        <time>2020-10-24T11:50:58.000Z</time>
      </trkpt>
      <trkpt lat="46.41958" lon="5.13159">
        <ele>224.60000610352</ele>
        <time>2020-10-24T11:50:59.000Z</time>
      </trkpt>
      <trkpt lat="46.41954" lon="5.13154">
        <ele>224.80000305176</ele>
        <time>2020-10-24T11:51:00.000Z</time>
      </trkpt>
      <trkpt lat="46.41947" lon="5.13143">
        <ele>225</ele>
        <time>2020-10-24T11:51:02.000Z</time>
      </trkpt>
      <trkpt lat="46.41943" lon="5.13138">
        <ele>225.19999694824</ele>
        <time>2020-10-24T11:51:03.000Z</time>
      </trkpt>
      <trkpt lat="46.41938" lon="5.13132">
        <ele>225.60000610352</ele>
        <time>2020-10-24T11:51:04.000Z</time>
      </trkpt>
      <trkpt lat="46.41934" lon="5.13127">
        <ele>225.80000305176</ele>
        <time>2020-10-24T11:51:05.000Z</time>
      </trkpt>
      <trkpt lat="46.4193" lon="5.13121">
        <ele>225.80000305176</ele>
        <time>2020-10-24T11:51:06.000Z</time>
      </trkpt>
      <trkpt lat="46.41921" lon="5.1311">
        <ele>226</ele>
        <time>2020-10-24T11:51:08.000Z</time>
      </trkpt>
      <trkpt lat="46.41917" lon="5.13105">
        <ele>226.19999694824</ele>
        <time>2020-10-24T11:51:09.000Z</time>
      </trkpt>
      <trkpt lat="46.41913" lon="5.13099">
        <ele>226.39999389648</ele>
        <time>2020-10-24T11:51:10.000Z</time>
      </trkpt>
      <trkpt lat="46.41905" lon="5.13088">
        <ele>226.39999389648</ele>
        <time>2020-10-24T11:51:12.000Z</time>
      </trkpt>
      <trkpt lat="46.41896" lon="5.13077">
        <ele>226.60000610352</ele>
        <time>2020-10-24T11:51:14.000Z</time>
      </trkpt>
      <trkpt lat="46.41887" lon="5.13065">
        <ele>226.80000305176</ele>
        <time>2020-10-24T11:51:16.000Z</time>
      </trkpt>
      <trkpt lat="46.41878" lon="5.13053">
        <ele>226.80000305176</ele>
        <time>2020-10-24T11:51:18.000Z</time>
      </trkpt>
      <trkpt lat="46.41868" lon="5.13041">
        <ele>227</ele>
        <time>2020-10-24T11:51:20.000Z</time>
      </trkpt>
      <trkpt lat="46.41859" lon="5.13029">
        <ele>227</ele>
        <time>2020-10-24T11:51:22.000Z</time>
      </trkpt>
      <trkpt lat="46.4185" lon="5.13017">
        <ele>227.19999694824</ele>
        <time>2020-10-24T11:51:24.000Z</time>
      </trkpt>
      <trkpt lat="46.4184" lon="5.13005">
        <ele>227.19999694824</ele>
        <time>2020-10-24T11:51:26.000Z</time>
      </trkpt>
      <trkpt lat="46.41831" lon="5.12993">
        <ele>227.19999694824</ele>
        <time>2020-10-24T11:51:28.000Z</time>
      </trkpt>
      <trkpt lat="46.41822" lon="5.12981">
        <ele>227.39999389648</ele>
        <time>2020-10-24T11:51:30.000Z</time>
      </trkpt>
      <trkpt lat="46.41812" lon="5.12969">
        <ele>227.39999389648</ele>
        <time>2020-10-24T11:51:32.000Z</time>
      </trkpt>
      <trkpt lat="46.41803" lon="5.12956">
        <ele>227.39999389648</ele>
        <time>2020-10-24T11:51:34.000Z</time>
      </trkpt>
      <trkpt lat="46.41793" lon="5.12944">
        <ele>227.39999389648</ele>
        <time>2020-10-24T11:51:36.000Z</time>
      </trkpt>
      <trkpt lat="46.41788" lon="5.12938">
        <ele>227.39999389648</ele>
        <time>2020-10-24T11:51:37.000Z</time>
      </trkpt>
      <trkpt lat="46.41784" lon="5.12932">
        <ele>227.39999389648</ele>
        <time>2020-10-24T11:51:38.000Z</time>
      </trkpt>
      <trkpt lat="46.41774" lon="5.12919">
        <ele>227.39999389648</ele>
        <time>2020-10-24T11:51:40.000Z</time>
      </trkpt>
      <trkpt lat="46.41764" lon="5.12906">
        <ele>227.39999389648</ele>
        <time>2020-10-24T11:51:42.000Z</time>
      </trkpt>
      <trkpt lat="46.41754" lon="5.12894">
        <ele>227.39999389648</ele>
        <time>2020-10-24T11:51:44.000Z</time>
      </trkpt>
      <trkpt lat="46.41744" lon="5.12882">
        <ele>227.39999389648</ele>
        <time>2020-10-24T11:51:46.000Z</time>
      </trkpt>
      <trkpt lat="46.41733" lon="5.12872">
        <ele>227.39999389648</ele>
        <time>2020-10-24T11:51:48.000Z</time>
      </trkpt>
      <trkpt lat="46.41722" lon="5.12862">
        <ele>227.19999694824</ele>
        <time>2020-10-24T11:51:50.000Z</time>
      </trkpt>
      <trkpt lat="46.41716" lon="5.12858">
        <ele>227.19999694824</ele>
        <time>2020-10-24T11:51:51.000Z</time>
      </trkpt>
      <trkpt lat="46.4171" lon="5.12853">
        <ele>227.19999694824</ele>
        <time>2020-10-24T11:51:52.000Z</time>
      </trkpt>
      <trkpt lat="46.41698" lon="5.12845">
        <ele>227.19999694824</ele>
        <time>2020-10-24T11:51:54.000Z</time>
      </trkpt>
      <trkpt lat="46.41686" lon="5.12837">
        <ele>227.19999694824</ele>
        <time>2020-10-24T11:51:56.000Z</time>
      </trkpt>
      <trkpt lat="46.41674" lon="5.12828">
        <ele>227.19999694824</ele>
        <time>2020-10-24T11:51:58.000Z</time>
      </trkpt>
      <trkpt lat="46.41662" lon="5.1282">
        <ele>227.19999694824</ele>
        <time>2020-10-24T11:52:00.000Z</time>
      </trkpt>
      <trkpt lat="46.4165" lon="5.12812">
        <ele>227.39999389648</ele>
        <time>2020-10-24T11:52:02.000Z</time>
      </trkpt>
      <trkpt lat="46.41637" lon="5.12803">
        <ele>227.39999389648</ele>
        <time>2020-10-24T11:52:04.000Z</time>
      </trkpt>
      <trkpt lat="46.41625" lon="5.12794">
        <ele>227.39999389648</ele>
        <time>2020-10-24T11:52:06.000Z</time>
      </trkpt>
      <trkpt lat="46.41613" lon="5.12786">
        <ele>227.39999389648</ele>
        <time>2020-10-24T11:52:08.000Z</time>
      </trkpt>
      <trkpt lat="46.41608" lon="5.12782">
        <ele>227.60000610352</ele>
        <time>2020-10-24T11:52:09.000Z</time>
      </trkpt>
      <trkpt lat="46.41602" lon="5.12778">
        <ele>227.60000610352</ele>
        <time>2020-10-24T11:52:10.000Z</time>
      </trkpt>
      <trkpt lat="46.4159" lon="5.1277">
        <ele>227.60000610352</ele>
        <time>2020-10-24T11:52:12.000Z</time>
      </trkpt>
      <trkpt lat="46.41578" lon="5.12762">
        <ele>227.80000305176</ele>
        <time>2020-10-24T11:52:14.000Z</time>
      </trkpt>
      <trkpt lat="46.41567" lon="5.12754">
        <ele>227.80000305176</ele>
        <time>2020-10-24T11:52:16.000Z</time>
      </trkpt>
      <trkpt lat="46.41555" lon="5.12746">
        <ele>227.80000305176</ele>
        <time>2020-10-24T11:52:18.000Z</time>
      </trkpt>
      <trkpt lat="46.41544" lon="5.12739">
        <ele>227.80000305176</ele>
        <time>2020-10-24T11:52:20.000Z</time>
      </trkpt>
      <trkpt lat="46.41533" lon="5.12731">
        <ele>227.80000305176</ele>
        <time>2020-10-24T11:52:22.000Z</time>
      </trkpt>
      <trkpt lat="46.41521" lon="5.12723">
        <ele>227.80000305176</ele>
        <time>2020-10-24T11:52:24.000Z</time>
      </trkpt>
      <trkpt lat="46.4151" lon="5.12715">
        <ele>227.80000305176</ele>
        <time>2020-10-24T11:52:26.000Z</time>
      </trkpt>
      <trkpt lat="46.41505" lon="5.12711">
        <ele>227.80000305176</ele>
        <time>2020-10-24T11:52:27.000Z</time>
      </trkpt>
      <trkpt lat="46.415" lon="5.12707">
        <ele>227.80000305176</ele>
        <time>2020-10-24T11:52:28.000Z</time>
      </trkpt>
      <trkpt lat="46.41489" lon="5.12699">
        <ele>227.80000305176</ele>
        <time>2020-10-24T11:52:30.000Z</time>
      </trkpt>
      <trkpt lat="46.41477" lon="5.12692">
        <ele>227.80000305176</ele>
        <time>2020-10-24T11:52:32.000Z</time>
      </trkpt>
      <trkpt lat="46.41466" lon="5.12685">
        <ele>227.80000305176</ele>
        <time>2020-10-24T11:52:34.000Z</time>
      </trkpt>
      <trkpt lat="46.41455" lon="5.12677">
        <ele>227.80000305176</ele>
        <time>2020-10-24T11:52:36.000Z</time>
      </trkpt>
      <trkpt lat="46.41444" lon="5.12669">
        <ele>228</ele>
        <time>2020-10-24T11:52:38.000Z</time>
      </trkpt>
      <trkpt lat="46.41433" lon="5.12662">
        <ele>228.19999694824</ele>
        <time>2020-10-24T11:52:40.000Z</time>
      </trkpt>
      <trkpt lat="46.41422" lon="5.12654">
        <ele>228.19999694824</ele>
        <time>2020-10-24T11:52:42.000Z</time>
      </trkpt>
      <trkpt lat="46.41411" lon="5.12646">
        <ele>228.39999389648</ele>
        <time>2020-10-24T11:52:44.000Z</time>
      </trkpt>
      <trkpt lat="46.414" lon="5.12638">
        <ele>228.39999389648</ele>
        <time>2020-10-24T11:52:46.000Z</time>
      </trkpt>
      <trkpt lat="46.41388" lon="5.12631">
        <ele>228.39999389648</ele>
        <time>2020-10-24T11:52:48.000Z</time>
      </trkpt>
      <trkpt lat="46.41377" lon="5.12623">
        <ele>228.60000610352</ele>
        <time>2020-10-24T11:52:50.000Z</time>
      </trkpt>
      <trkpt lat="46.41366" lon="5.12616">
        <ele>228.60000610352</ele>
        <time>2020-10-24T11:52:52.000Z</time>
      </trkpt>
      <trkpt lat="46.41355" lon="5.12608">
        <ele>228.60000610352</ele>
        <time>2020-10-24T11:52:54.000Z</time>
      </trkpt>
      <trkpt lat="46.41344" lon="5.126">
        <ele>228.60000610352</ele>
        <time>2020-10-24T11:52:56.000Z</time>
      </trkpt>
      <trkpt lat="46.41332" lon="5.12592">
        <ele>228.80000305176</ele>
        <time>2020-10-24T11:52:58.000Z</time>
      </trkpt>
      <trkpt lat="46.41326" lon="5.12588">
        <ele>228.80000305176</ele>
        <time>2020-10-24T11:52:59.000Z</time>
      </trkpt>
      <trkpt lat="46.41321" lon="5.12583">
        <ele>228.80000305176</ele>
        <time>2020-10-24T11:53:00.000Z</time>
      </trkpt>
      <trkpt lat="46.41309" lon="5.12576">
        <ele>228.80000305176</ele>
        <time>2020-10-24T11:53:02.000Z</time>
      </trkpt>
      <trkpt lat="46.41298" lon="5.12568">
        <ele>228.80000305176</ele>
        <time>2020-10-24T11:53:04.000Z</time>
      </trkpt>
      <trkpt lat="46.41286" lon="5.1256">
        <ele>228.80000305176</ele>
        <time>2020-10-24T11:53:06.000Z</time>
      </trkpt>
      <trkpt lat="46.41275" lon="5.12552">
        <ele>228.80000305176</ele>
        <time>2020-10-24T11:53:08.000Z</time>
      </trkpt>
      <trkpt lat="46.41269" lon="5.12548">
        <ele>228.60000610352</ele>
        <time>2020-10-24T11:53:09.000Z</time>
      </trkpt>
      <trkpt lat="46.41263" lon="5.12544">
        <ele>228.60000610352</ele>
        <time>2020-10-24T11:53:10.000Z</time>
      </trkpt>
      <trkpt lat="46.41251" lon="5.12535">
        <ele>228.60000610352</ele>
        <time>2020-10-24T11:53:12.000Z</time>
      </trkpt>
      <trkpt lat="46.41239" lon="5.12527">
        <ele>228.60000610352</ele>
        <time>2020-10-24T11:53:14.000Z</time>
      </trkpt>
      <trkpt lat="46.41228" lon="5.12519">
        <ele>228.60000610352</ele>
        <time>2020-10-24T11:53:16.000Z</time>
      </trkpt>
      <trkpt lat="46.41216" lon="5.12511">
        <ele>228.80000305176</ele>
        <time>2020-10-24T11:53:18.000Z</time>
      </trkpt>
      <trkpt lat="46.41204" lon="5.12503">
        <ele>228.80000305176</ele>
        <time>2020-10-24T11:53:20.000Z</time>
      </trkpt>
      <trkpt lat="46.41192" lon="5.12495">
        <ele>228.80000305176</ele>
        <time>2020-10-24T11:53:22.000Z</time>
      </trkpt>
      <trkpt lat="46.4118" lon="5.12487">
        <ele>228.80000305176</ele>
        <time>2020-10-24T11:53:24.000Z</time>
      </trkpt>
      <trkpt lat="46.41168" lon="5.12478">
        <ele>228.80000305176</ele>
        <time>2020-10-24T11:53:26.000Z</time>
      </trkpt>
      <trkpt lat="46.41155" lon="5.1247">
        <ele>228.80000305176</ele>
        <time>2020-10-24T11:53:28.000Z</time>
      </trkpt>
      <trkpt lat="46.41143" lon="5.12461">
        <ele>228.80000305176</ele>
        <time>2020-10-24T11:53:30.000Z</time>
      </trkpt>
      <trkpt lat="46.4113" lon="5.12452">
        <ele>228.80000305176</ele>
        <time>2020-10-24T11:53:32.000Z</time>
      </trkpt>
      <trkpt lat="46.41117" lon="5.12443">
        <ele>228.60000610352</ele>
        <time>2020-10-24T11:53:34.000Z</time>
      </trkpt>
      <trkpt lat="46.41103" lon="5.12434">
        <ele>228.39999389648</ele>
        <time>2020-10-24T11:53:36.000Z</time>
      </trkpt>
      <trkpt lat="46.4109" lon="5.12424">
        <ele>228.39999389648</ele>
        <time>2020-10-24T11:53:38.000Z</time>
      </trkpt>
      <trkpt lat="46.41076" lon="5.12415">
        <ele>228.19999694824</ele>
        <time>2020-10-24T11:53:40.000Z</time>
      </trkpt>
      <trkpt lat="46.41061" lon="5.12405">
        <ele>227.80000305176</ele>
        <time>2020-10-24T11:53:42.000Z</time>
      </trkpt>
      <trkpt lat="46.41054" lon="5.12401">
        <ele>227.60000610352</ele>
        <time>2020-10-24T11:53:43.000Z</time>
      </trkpt>
      <trkpt lat="46.41047" lon="5.12396">
        <ele>227.39999389648</ele>
        <time>2020-10-24T11:53:44.000Z</time>
      </trkpt>
      <trkpt lat="46.41033" lon="5.12385">
        <ele>227</ele>
        <time>2020-10-24T11:53:46.000Z</time>
      </trkpt>
      <trkpt lat="46.41026" lon="5.1238">
        <ele>226.60000610352</ele>
        <time>2020-10-24T11:53:47.000Z</time>
      </trkpt>
      <trkpt lat="46.41019" lon="5.12375">
        <ele>226.19999694824</ele>
        <time>2020-10-24T11:53:48.000Z</time>
      </trkpt>
      <trkpt lat="46.41004" lon="5.12365">
        <ele>225.80000305176</ele>
        <time>2020-10-24T11:53:50.000Z</time>
      </trkpt>
      <trkpt lat="46.40997" lon="5.1236">
        <ele>225.60000610352</ele>
        <time>2020-10-24T11:53:51.000Z</time>
      </trkpt>
      <trkpt lat="46.40989" lon="5.12355">
        <ele>225.39999389648</ele>
        <time>2020-10-24T11:53:52.000Z</time>
      </trkpt>
      <trkpt lat="46.40974" lon="5.12344">
        <ele>225</ele>
        <time>2020-10-24T11:53:54.000Z</time>
      </trkpt>
      <trkpt lat="46.40959" lon="5.12334">
        <ele>224.19999694824</ele>
        <time>2020-10-24T11:53:56.000Z</time>
      </trkpt>
      <trkpt lat="46.40944" lon="5.12323">
        <ele>223.80000305176</ele>
        <time>2020-10-24T11:53:58.000Z</time>
      </trkpt>
      <trkpt lat="46.40928" lon="5.12312">
        <ele>223.39999389648</ele>
        <time>2020-10-24T11:54:00.000Z</time>
      </trkpt>
      <trkpt lat="46.4092" lon="5.12306">
        <ele>222.80000305176</ele>
        <time>2020-10-24T11:54:01.000Z</time>
      </trkpt>
      <trkpt lat="46.40912" lon="5.123">
        <ele>222.39999389648</ele>
        <time>2020-10-24T11:54:02.000Z</time>
      </trkpt>
      <trkpt lat="46.40895" lon="5.12289">
        <ele>221.39999389648</ele>
        <time>2020-10-24T11:54:04.000Z</time>
      </trkpt>
      <trkpt lat="46.40878" lon="5.12277">
        <ele>220.60000610352</ele>
        <time>2020-10-24T11:54:06.000Z</time>
      </trkpt>
      <trkpt lat="46.40861" lon="5.12265">
        <ele>220.19999694824</ele>
        <time>2020-10-24T11:54:08.000Z</time>
      </trkpt>
      <trkpt lat="46.40844" lon="5.12254">
        <ele>219.60000610352</ele>
        <time>2020-10-24T11:54:10.000Z</time>
      </trkpt>
      <trkpt lat="46.40827" lon="5.12242">
        <ele>219</ele>
        <time>2020-10-24T11:54:12.000Z</time>
      </trkpt>
      <trkpt lat="46.4081" lon="5.1223">
        <ele>218.19999694824</ele>
        <time>2020-10-24T11:54:14.000Z</time>
      </trkpt>
      <trkpt lat="46.40802" lon="5.12224">
        <ele>217.80000305176</ele>
        <time>2020-10-24T11:54:15.000Z</time>
      </trkpt>
      <trkpt lat="46.40793" lon="5.12218">
        <ele>217.39999389648</ele>
        <time>2020-10-24T11:54:16.000Z</time>
      </trkpt>
      <trkpt lat="46.40776" lon="5.12207">
        <ele>216.80000305176</ele>
        <time>2020-10-24T11:54:18.000Z</time>
      </trkpt>
      <trkpt lat="46.4076" lon="5.12195">
        <ele>216.39999389648</ele>
        <time>2020-10-24T11:54:20.000Z</time>
      </trkpt>
      <trkpt lat="46.40752" lon="5.1219">
        <ele>216.19999694824</ele>
        <time>2020-10-24T11:54:21.000Z</time>
      </trkpt>
      <trkpt lat="46.40744" lon="5.12185">
        <ele>216</ele>
        <time>2020-10-24T11:54:22.000Z</time>
      </trkpt>
      <trkpt lat="46.40729" lon="5.12174">
        <ele>215.80000305176</ele>
        <time>2020-10-24T11:54:24.000Z</time>
      </trkpt>
      <trkpt lat="46.40722" lon="5.12169">
        <ele>215.60000610352</ele>
        <time>2020-10-24T11:54:25.000Z</time>
      </trkpt>
      <trkpt lat="46.40715" lon="5.12164">
        <ele>215.39999389648</ele>
        <time>2020-10-24T11:54:26.000Z</time>
      </trkpt>
      <trkpt lat="46.40702" lon="5.12155">
        <ele>215.39999389648</ele>
        <time>2020-10-24T11:54:28.000Z</time>
      </trkpt>
      <trkpt lat="46.40689" lon="5.12147">
        <ele>215.39999389648</ele>
        <time>2020-10-24T11:54:30.000Z</time>
      </trkpt>
      <trkpt lat="46.40676" lon="5.12139">
        <ele>215.39999389648</ele>
        <time>2020-10-24T11:54:32.000Z</time>
      </trkpt>
      <trkpt lat="46.40664" lon="5.1213">
        <ele>215.39999389648</ele>
        <time>2020-10-24T11:54:34.000Z</time>
      </trkpt>
      <trkpt lat="46.40651" lon="5.12122">
        <ele>215.80000305176</ele>
        <time>2020-10-24T11:54:36.000Z</time>
      </trkpt>
      <trkpt lat="46.40645" lon="5.12118">
        <ele>215.80000305176</ele>
        <time>2020-10-24T11:54:37.000Z</time>
      </trkpt>
      <trkpt lat="46.40638" lon="5.12114">
        <ele>216</ele>
        <time>2020-10-24T11:54:38.000Z</time>
      </trkpt>
      <trkpt lat="46.40625" lon="5.12106">
        <ele>216.19999694824</ele>
        <time>2020-10-24T11:54:40.000Z</time>
      </trkpt>
      <trkpt lat="46.40611" lon="5.12098">
        <ele>216.19999694824</ele>
        <time>2020-10-24T11:54:42.000Z</time>
      </trkpt>
      <trkpt lat="46.40596" lon="5.12089">
        <ele>216.19999694824</ele>
        <time>2020-10-24T11:54:44.000Z</time>
      </trkpt>
      <trkpt lat="46.40588" lon="5.12085">
        <ele>216.19999694824</ele>
        <time>2020-10-24T11:54:45.000Z</time>
      </trkpt>
      <trkpt lat="46.40581" lon="5.12081">
        <ele>216.19999694824</ele>
        <time>2020-10-24T11:54:46.000Z</time>
      </trkpt>
      <trkpt lat="46.40565" lon="5.12073">
        <ele>215.60000610352</ele>
        <time>2020-10-24T11:54:48.000Z</time>
      </trkpt>
      <trkpt lat="46.40549" lon="5.12065">
        <ele>215</ele>
        <time>2020-10-24T11:54:50.000Z</time>
      </trkpt>
      <trkpt lat="46.40541" lon="5.12061">
        <ele>214.60000610352</ele>
        <time>2020-10-24T11:54:51.000Z</time>
      </trkpt>
      <trkpt lat="46.40533" lon="5.12058">
        <ele>214.19999694824</ele>
        <time>2020-10-24T11:54:52.000Z</time>
      </trkpt>
      <trkpt lat="46.40517" lon="5.1205">
        <ele>213.60000610352</ele>
        <time>2020-10-24T11:54:54.000Z</time>
      </trkpt>
      <trkpt lat="46.40509" lon="5.12047">
        <ele>213.39999389648</ele>
        <time>2020-10-24T11:54:55.000Z</time>
      </trkpt>
      <trkpt lat="46.40501" lon="5.12043">
        <ele>213</ele>
        <time>2020-10-24T11:54:56.000Z</time>
      </trkpt>
      <trkpt lat="46.40485" lon="5.12036">
        <ele>212.19999694824</ele>
        <time>2020-10-24T11:54:58.000Z</time>
      </trkpt>
      <trkpt lat="46.4047" lon="5.1203">
        <ele>211.80000305176</ele>
        <time>2020-10-24T11:55:00.000Z</time>
      </trkpt>
      <trkpt lat="46.40456" lon="5.12023">
        <ele>211.60000610352</ele>
        <time>2020-10-24T11:55:02.000Z</time>
      </trkpt>
      <trkpt lat="46.40448" lon="5.12019">
        <ele>211.60000610352</ele>
        <time>2020-10-24T11:55:03.000Z</time>
      </trkpt>
      <trkpt lat="46.40441" lon="5.12016">
        <ele>211.60000610352</ele>
        <time>2020-10-24T11:55:04.000Z</time>
      </trkpt>
      <trkpt lat="46.40428" lon="5.12011">
        <ele>211.60000610352</ele>
        <time>2020-10-24T11:55:06.000Z</time>
      </trkpt>
      <trkpt lat="46.40414" lon="5.12005">
        <ele>211.60000610352</ele>
        <time>2020-10-24T11:55:08.000Z</time>
      </trkpt>
      <trkpt lat="46.40401" lon="5.12">
        <ele>211.60000610352</ele>
        <time>2020-10-24T11:55:10.000Z</time>
      </trkpt>
      <trkpt lat="46.40395" lon="5.11998">
        <ele>211.60000610352</ele>
        <time>2020-10-24T11:55:11.000Z</time>
      </trkpt>
      <trkpt lat="46.40389" lon="5.11995">
        <ele>211.60000610352</ele>
        <time>2020-10-24T11:55:12.000Z</time>
      </trkpt>
      <trkpt lat="46.40376" lon="5.1199">
        <ele>211.60000610352</ele>
        <time>2020-10-24T11:55:14.000Z</time>
      </trkpt>
      <trkpt lat="46.40364" lon="5.11986">
        <ele>212.19999694824</ele>
        <time>2020-10-24T11:55:16.000Z</time>
      </trkpt>
      <trkpt lat="46.40351" lon="5.11981">
        <ele>212.80000305176</ele>
        <time>2020-10-24T11:55:18.000Z</time>
      </trkpt>
      <trkpt lat="46.40339" lon="5.11977">
        <ele>213.60000610352</ele>
        <time>2020-10-24T11:55:20.000Z</time>
      </trkpt>
      <trkpt lat="46.40327" lon="5.11973">
        <ele>214.19999694824</ele>
        <time>2020-10-24T11:55:22.000Z</time>
      </trkpt>
      <trkpt lat="46.40314" lon="5.11967">
        <ele>214.60000610352</ele>
        <time>2020-10-24T11:55:24.000Z</time>
      </trkpt>
      <trkpt lat="46.40308" lon="5.11965">
        <ele>214.80000305176</ele>
        <time>2020-10-24T11:55:25.000Z</time>
      </trkpt>
      <trkpt lat="46.40301" lon="5.11962">
        <ele>215</ele>
        <time>2020-10-24T11:55:26.000Z</time>
      </trkpt>
      <trkpt lat="46.40288" lon="5.11957">
        <ele>215</ele>
        <time>2020-10-24T11:55:28.000Z</time>
      </trkpt>
      <trkpt lat="46.40276" lon="5.11952">
        <ele>215</ele>
        <time>2020-10-24T11:55:30.000Z</time>
      </trkpt>
      <trkpt lat="46.40263" lon="5.11948">
        <ele>215</ele>
        <time>2020-10-24T11:55:32.000Z</time>
      </trkpt>
      <trkpt lat="46.40251" lon="5.11944">
        <ele>215.19999694824</ele>
        <time>2020-10-24T11:55:34.000Z</time>
      </trkpt>
      <trkpt lat="46.4024" lon="5.1194">
        <ele>215.19999694824</ele>
        <time>2020-10-24T11:55:36.000Z</time>
      </trkpt>
      <trkpt lat="46.40236" lon="5.11937">
        <ele>215.39999389648</ele>
        <time>2020-10-24T11:55:37.000Z</time>
      </trkpt>
      <trkpt lat="46.40233" lon="5.11934">
        <ele>215.39999389648</ele>
        <time>2020-10-24T11:55:38.000Z</time>
      </trkpt>
      <trkpt lat="46.40227" lon="5.11924">
        <ele>215.39999389648</ele>
        <time>2020-10-24T11:55:40.000Z</time>
      </trkpt>
      <trkpt lat="46.40224" lon="5.11917">
        <ele>215.39999389648</ele>
        <time>2020-10-24T11:55:41.000Z</time>
      </trkpt>
      <trkpt lat="46.40223" lon="5.11908">
        <ele>215.39999389648</ele>
        <time>2020-10-24T11:55:42.000Z</time>
      </trkpt>
      <trkpt lat="46.40218" lon="5.1189">
        <ele>215.39999389648</ele>
        <time>2020-10-24T11:55:44.000Z</time>
      </trkpt>
      <trkpt lat="46.40214" lon="5.11871">
        <ele>215.19999694824</ele>
        <time>2020-10-24T11:55:46.000Z</time>
      </trkpt>
      <trkpt lat="46.40209" lon="5.11851">
        <ele>215.19999694824</ele>
        <time>2020-10-24T11:55:48.000Z</time>
      </trkpt>
      <trkpt lat="46.40204" lon="5.1183">
        <ele>215.19999694824</ele>
        <time>2020-10-24T11:55:50.000Z</time>
      </trkpt>
      <trkpt lat="46.40199" lon="5.11808">
        <ele>215</ele>
        <time>2020-10-24T11:55:52.000Z</time>
      </trkpt>
      <trkpt lat="46.40193" lon="5.11786">
        <ele>214</ele>
        <time>2020-10-24T11:55:54.000Z</time>
      </trkpt>
      <trkpt lat="46.4019" lon="5.11775">
        <ele>213.39999389648</ele>
        <time>2020-10-24T11:55:55.000Z</time>
      </trkpt>
      <trkpt lat="46.40188" lon="5.11764">
        <ele>212.80000305176</ele>
        <time>2020-10-24T11:55:56.000Z</time>
      </trkpt>
      <trkpt lat="46.40182" lon="5.11742">
        <ele>212.19999694824</ele>
        <time>2020-10-24T11:55:58.000Z</time>
      </trkpt>
      <trkpt lat="46.40177" lon="5.11721">
        <ele>211.39999389648</ele>
        <time>2020-10-24T11:56:00.000Z</time>
      </trkpt>
      <trkpt lat="46.40174" lon="5.1171">
        <ele>211</ele>
        <time>2020-10-24T11:56:01.000Z</time>
      </trkpt>
      <trkpt lat="46.40172" lon="5.11699">
        <ele>210.80000305176</ele>
        <time>2020-10-24T11:56:02.000Z</time>
      </trkpt>
      <trkpt lat="46.40166" lon="5.11676">
        <ele>209.80000305176</ele>
        <time>2020-10-24T11:56:04.000Z</time>
      </trkpt>
      <trkpt lat="46.40163" lon="5.11665">
        <ele>209.39999389648</ele>
        <time>2020-10-24T11:56:05.000Z</time>
      </trkpt>
      <trkpt lat="46.4016" lon="5.11653">
        <ele>209.19999694824</ele>
        <time>2020-10-24T11:56:06.000Z</time>
      </trkpt>
      <trkpt lat="46.40155" lon="5.11629">
        <ele>209</ele>
        <time>2020-10-24T11:56:08.000Z</time>
      </trkpt>
      <trkpt lat="46.40149" lon="5.11605">
        <ele>208.60000610352</ele>
        <time>2020-10-24T11:56:10.000Z</time>
      </trkpt>
      <trkpt lat="46.40143" lon="5.11581">
        <ele>208.39999389648</ele>
        <time>2020-10-24T11:56:12.000Z</time>
      </trkpt>
      <trkpt lat="46.40137" lon="5.11557">
        <ele>207.39999389648</ele>
        <time>2020-10-24T11:56:14.000Z</time>
      </trkpt>
      <trkpt lat="46.40131" lon="5.11532">
        <ele>206</ele>
        <time>2020-10-24T11:56:16.000Z</time>
      </trkpt>
      <trkpt lat="46.40125" lon="5.11508">
        <ele>205</ele>
        <time>2020-10-24T11:56:18.000Z</time>
      </trkpt>
      <trkpt lat="46.40122" lon="5.11496">
        <ele>204.80000305176</ele>
        <time>2020-10-24T11:56:19.000Z</time>
      </trkpt>
      <trkpt lat="46.40118" lon="5.11483">
        <ele>204.60000610352</ele>
        <time>2020-10-24T11:56:20.000Z</time>
      </trkpt>
      <trkpt lat="46.40115" lon="5.11471">
        <ele>203.60000610352</ele>
        <time>2020-10-24T11:56:21.000Z</time>
      </trkpt>
      <trkpt lat="46.40111" lon="5.11459">
        <ele>203.39999389648</ele>
        <time>2020-10-24T11:56:22.000Z</time>
      </trkpt>
      <trkpt lat="46.40107" lon="5.11446">
        <ele>203.19999694824</ele>
        <time>2020-10-24T11:56:23.000Z</time>
      </trkpt>
      <trkpt lat="46.40103" lon="5.11433">
        <ele>203</ele>
        <time>2020-10-24T11:56:24.000Z</time>
      </trkpt>
      <trkpt lat="46.40099" lon="5.11421">
        <ele>202.80000305176</ele>
        <time>2020-10-24T11:56:25.000Z</time>
      </trkpt>
      <trkpt lat="46.40094" lon="5.11408">
        <ele>202.39999389648</ele>
        <time>2020-10-24T11:56:26.000Z</time>
      </trkpt>
      <trkpt lat="46.40085" lon="5.11383">
        <ele>202.19999694824</ele>
        <time>2020-10-24T11:56:28.000Z</time>
      </trkpt>
      <trkpt lat="46.40079" lon="5.11372">
        <ele>201.60000610352</ele>
        <time>2020-10-24T11:56:29.000Z</time>
      </trkpt>
      <trkpt lat="46.40072" lon="5.11363">
        <ele>201</ele>
        <time>2020-10-24T11:56:30.000Z</time>
      </trkpt>
      <trkpt lat="46.40066" lon="5.11354">
        <ele>200.19999694824</ele>
        <time>2020-10-24T11:56:31.000Z</time>
      </trkpt>
      <trkpt lat="46.40059" lon="5.11347">
        <ele>199.60000610352</ele>
        <time>2020-10-24T11:56:32.000Z</time>
      </trkpt>
      <trkpt lat="46.40054" lon="5.1134">
        <ele>198.80000305176</ele>
        <time>2020-10-24T11:56:33.000Z</time>
      </trkpt>
      <trkpt lat="46.4005" lon="5.11334">
        <ele>198</ele>
        <time>2020-10-24T11:56:34.000Z</time>
      </trkpt>
      <trkpt lat="46.40047" lon="5.1133">
        <ele>197.60000610352</ele>
        <time>2020-10-24T11:56:35.000Z</time>
      </trkpt>
      <trkpt lat="46.40047" lon="5.11326">
        <ele>197.39999389648</ele>
        <time>2020-10-24T11:56:36.000Z</time>
      </trkpt>
      <trkpt lat="46.40047" lon="5.11323">
        <ele>197.39999389648</ele>
        <time>2020-10-24T11:56:38.000Z</time>
      </trkpt>
      <trkpt lat="46.40047" lon="5.11323">
        <ele>197.19999694824</ele>
        <time>2020-10-24T11:56:39.000Z</time>
      </trkpt>
      <trkpt lat="46.40048" lon="5.11321">
        <ele>198</ele>
        <time>2020-10-24T11:56:48.000Z</time>
      </trkpt>
      <trkpt lat="46.4005" lon="5.11315">
        <ele>198.19999694824</ele>
        <time>2020-10-24T11:56:50.000Z</time>
      </trkpt>
      <trkpt lat="46.40054" lon="5.11305">
        <ele>198.19999694824</ele>
        <time>2020-10-24T11:56:52.000Z</time>
      </trkpt>
      <trkpt lat="46.40058" lon="5.11292">
        <ele>198.19999694824</ele>
        <time>2020-10-24T11:56:54.000Z</time>
      </trkpt>
      <trkpt lat="46.40063" lon="5.11277">
        <ele>198</ele>
        <time>2020-10-24T11:56:56.000Z</time>
      </trkpt>
      <trkpt lat="46.40068" lon="5.1126">
        <ele>197.80000305176</ele>
        <time>2020-10-24T11:56:58.000Z</time>
      </trkpt>
      <trkpt lat="46.40074" lon="5.11243">
        <ele>197.80000305176</ele>
        <time>2020-10-24T11:57:00.000Z</time>
      </trkpt>
      <trkpt lat="46.4008" lon="5.11226">
        <ele>197.80000305176</ele>
        <time>2020-10-24T11:57:02.000Z</time>
      </trkpt>
      <trkpt lat="46.40085" lon="5.11208">
        <ele>197.60000610352</ele>
        <time>2020-10-24T11:57:04.000Z</time>
      </trkpt>
      <trkpt lat="46.40091" lon="5.11191">
        <ele>197.60000610352</ele>
        <time>2020-10-24T11:57:06.000Z</time>
      </trkpt>
      <trkpt lat="46.40098" lon="5.11174">
        <ele>197.39999389648</ele>
        <time>2020-10-24T11:57:08.000Z</time>
      </trkpt>
      <trkpt lat="46.401" lon="5.11167">
        <ele>197.39999389648</ele>
        <time>2020-10-24T11:57:09.000Z</time>
      </trkpt>
      <trkpt lat="46.40103" lon="5.11162">
        <ele>197.39999389648</ele>
        <time>2020-10-24T11:57:10.000Z</time>
      </trkpt>
      <trkpt lat="46.40106" lon="5.11152">
        <ele>197.19999694824</ele>
        <time>2020-10-24T11:57:12.000Z</time>
      </trkpt>
      <trkpt lat="46.40105" lon="5.11147">
        <ele>197.19999694824</ele>
        <time>2020-10-24T11:57:13.000Z</time>
      </trkpt>
      <trkpt lat="46.40102" lon="5.11143">
        <ele>197.19999694824</ele>
        <time>2020-10-24T11:57:14.000Z</time>
      </trkpt>
      <trkpt lat="46.40094" lon="5.11137">
        <ele>197</ele>
        <time>2020-10-24T11:57:16.000Z</time>
      </trkpt>
      <trkpt lat="46.40091" lon="5.11134">
        <ele>197</ele>
        <time>2020-10-24T11:57:17.000Z</time>
      </trkpt>
      <trkpt lat="46.40088" lon="5.11131">
        <ele>197</ele>
        <time>2020-10-24T11:57:18.000Z</time>
      </trkpt>
      <trkpt lat="46.40087" lon="5.11127">
        <ele>197</ele>
        <time>2020-10-24T11:57:19.000Z</time>
      </trkpt>
      <trkpt lat="46.40088" lon="5.11123">
        <ele>196.80000305176</ele>
        <time>2020-10-24T11:57:20.000Z</time>
      </trkpt>
      <trkpt lat="46.40092" lon="5.11112">
        <ele>196.80000305176</ele>
        <time>2020-10-24T11:57:22.000Z</time>
      </trkpt>
      <trkpt lat="46.40097" lon="5.111">
        <ele>196.80000305176</ele>
        <time>2020-10-24T11:57:24.000Z</time>
      </trkpt>
      <trkpt lat="46.40099" lon="5.11093">
        <ele>196.80000305176</ele>
        <time>2020-10-24T11:57:25.000Z</time>
      </trkpt>
      <trkpt lat="46.40101" lon="5.11087">
        <ele>196.80000305176</ele>
        <time>2020-10-24T11:57:26.000Z</time>
      </trkpt>
      <trkpt lat="46.40103" lon="5.11078">
        <ele>196.80000305176</ele>
        <time>2020-10-24T11:57:28.000Z</time>
      </trkpt>
      <trkpt lat="46.40104" lon="5.11074">
        <ele>196.80000305176</ele>
        <time>2020-10-24T11:57:29.000Z</time>
      </trkpt>
      <trkpt lat="46.40106" lon="5.11069">
        <ele>196.80000305176</ele>
        <time>2020-10-24T11:57:30.000Z</time>
      </trkpt>
      <trkpt lat="46.40107" lon="5.11057">
        <ele>196.80000305176</ele>
        <time>2020-10-24T11:57:32.000Z</time>
      </trkpt>
      <trkpt lat="46.40109" lon="5.11046">
        <ele>196.80000305176</ele>
        <time>2020-10-24T11:57:34.000Z</time>
      </trkpt>
      <trkpt lat="46.40111" lon="5.11032">
        <ele>196.80000305176</ele>
        <time>2020-10-24T11:57:36.000Z</time>
      </trkpt>
      <trkpt lat="46.4011" lon="5.11015">
        <ele>196.80000305176</ele>
        <time>2020-10-24T11:57:38.000Z</time>
      </trkpt>
      <trkpt lat="46.40106" lon="5.10998">
        <ele>196.80000305176</ele>
        <time>2020-10-24T11:57:40.000Z</time>
      </trkpt>
      <trkpt lat="46.40104" lon="5.1099">
        <ele>196.80000305176</ele>
        <time>2020-10-24T11:57:41.000Z</time>
      </trkpt>
      <trkpt lat="46.40102" lon="5.10983">
        <ele>196.80000305176</ele>
        <time>2020-10-24T11:57:42.000Z</time>
      </trkpt>
      <trkpt lat="46.401" lon="5.10971">
        <ele>196.60000610352</ele>
        <time>2020-10-24T11:57:44.000Z</time>
      </trkpt>
      <trkpt lat="46.40099" lon="5.1096">
        <ele>196.60000610352</ele>
        <time>2020-10-24T11:57:46.000Z</time>
      </trkpt>
      <trkpt lat="46.40092" lon="5.10948">
        <ele>196.39999389648</ele>
        <time>2020-10-24T11:57:48.000Z</time>
      </trkpt>
      <trkpt lat="46.40089" lon="5.1094">
        <ele>196.39999389648</ele>
        <time>2020-10-24T11:57:49.000Z</time>
      </trkpt>
      <trkpt lat="46.40086" lon="5.10932">
        <ele>196.19999694824</ele>
        <time>2020-10-24T11:57:50.000Z</time>
      </trkpt>
      <trkpt lat="46.40081" lon="5.10915">
        <ele>196.19999694824</ele>
        <time>2020-10-24T11:57:52.000Z</time>
      </trkpt>
      <trkpt lat="46.40078" lon="5.10898">
        <ele>196.19999694824</ele>
        <time>2020-10-24T11:57:54.000Z</time>
      </trkpt>
      <trkpt lat="46.40076" lon="5.1089">
        <ele>196.19999694824</ele>
        <time>2020-10-24T11:57:55.000Z</time>
      </trkpt>
      <trkpt lat="46.40075" lon="5.10881">
        <ele>196.39999389648</ele>
        <time>2020-10-24T11:57:56.000Z</time>
      </trkpt>
      <trkpt lat="46.40073" lon="5.10864">
        <ele>196.39999389648</ele>
        <time>2020-10-24T11:57:58.000Z</time>
      </trkpt>
      <trkpt lat="46.40072" lon="5.10855">
        <ele>196.39999389648</ele>
        <time>2020-10-24T11:57:59.000Z</time>
      </trkpt>
      <trkpt lat="46.40071" lon="5.10846">
        <ele>196.39999389648</ele>
        <time>2020-10-24T11:58:00.000Z</time>
      </trkpt>
      <trkpt lat="46.4007" lon="5.10825">
        <ele>196.39999389648</ele>
        <time>2020-10-24T11:58:02.000Z</time>
      </trkpt>
      <trkpt lat="46.40068" lon="5.10805">
        <ele>196.19999694824</ele>
        <time>2020-10-24T11:58:04.000Z</time>
      </trkpt>
      <trkpt lat="46.40065" lon="5.10784">
        <ele>196.19999694824</ele>
        <time>2020-10-24T11:58:06.000Z</time>
      </trkpt>
      <trkpt lat="46.40063" lon="5.10763">
        <ele>196</ele>
        <time>2020-10-24T11:58:08.000Z</time>
      </trkpt>
      <trkpt lat="46.40061" lon="5.10742">
        <ele>195.80000305176</ele>
        <time>2020-10-24T11:58:10.000Z</time>
      </trkpt>
      <trkpt lat="46.4006" lon="5.10732">
        <ele>195.60000610352</ele>
        <time>2020-10-24T11:58:11.000Z</time>
      </trkpt>
      <trkpt lat="46.40059" lon="5.10722">
        <ele>195.39999389648</ele>
        <time>2020-10-24T11:58:12.000Z</time>
      </trkpt>
      <trkpt lat="46.40058" lon="5.10701">
        <ele>195.39999389648</ele>
        <time>2020-10-24T11:58:14.000Z</time>
      </trkpt>
      <trkpt lat="46.40056" lon="5.10682">
        <ele>195.39999389648</ele>
        <time>2020-10-24T11:58:16.000Z</time>
      </trkpt>
      <trkpt lat="46.40054" lon="5.10663">
        <ele>195.39999389648</ele>
        <time>2020-10-24T11:58:18.000Z</time>
      </trkpt>
      <trkpt lat="46.40052" lon="5.10643">
        <ele>195.39999389648</ele>
        <time>2020-10-24T11:58:20.000Z</time>
      </trkpt>
      <trkpt lat="46.40051" lon="5.10623">
        <ele>195.39999389648</ele>
        <time>2020-10-24T11:58:22.000Z</time>
      </trkpt>
      <trkpt lat="46.4005" lon="5.10602">
        <ele>195.39999389648</ele>
        <time>2020-10-24T11:58:24.000Z</time>
      </trkpt>
      <trkpt lat="46.40048" lon="5.10581">
        <ele>195.39999389648</ele>
        <time>2020-10-24T11:58:26.000Z</time>
      </trkpt>
      <trkpt lat="46.40047" lon="5.1056">
        <ele>195.39999389648</ele>
        <time>2020-10-24T11:58:28.000Z</time>
      </trkpt>
      <trkpt lat="46.40045" lon="5.10539">
        <ele>195.39999389648</ele>
        <time>2020-10-24T11:58:30.000Z</time>
      </trkpt>
      <trkpt lat="46.40044" lon="5.10518">
        <ele>195.39999389648</ele>
        <time>2020-10-24T11:58:32.000Z</time>
      </trkpt>
      <trkpt lat="46.40042" lon="5.10498">
        <ele>195.19999694824</ele>
        <time>2020-10-24T11:58:34.000Z</time>
      </trkpt>
      <trkpt lat="46.40041" lon="5.10478">
        <ele>195.19999694824</ele>
        <time>2020-10-24T11:58:36.000Z</time>
      </trkpt>
      <trkpt lat="46.40039" lon="5.10459">
        <ele>195</ele>
        <time>2020-10-24T11:58:38.000Z</time>
      </trkpt>
      <trkpt lat="46.40037" lon="5.10439">
        <ele>195</ele>
        <time>2020-10-24T11:58:40.000Z</time>
      </trkpt>
      <trkpt lat="46.40036" lon="5.10429">
        <ele>195</ele>
        <time>2020-10-24T11:58:41.000Z</time>
      </trkpt>
      <trkpt lat="46.40034" lon="5.10419">
        <ele>195</ele>
        <time>2020-10-24T11:58:42.000Z</time>
      </trkpt>
      <trkpt lat="46.40033" lon="5.10399">
        <ele>195</ele>
        <time>2020-10-24T11:58:44.000Z</time>
      </trkpt>
      <trkpt lat="46.40031" lon="5.10379">
        <ele>195</ele>
        <time>2020-10-24T11:58:46.000Z</time>
      </trkpt>
      <trkpt lat="46.4003" lon="5.10359">
        <ele>195.19999694824</ele>
        <time>2020-10-24T11:58:48.000Z</time>
      </trkpt>
      <trkpt lat="46.4003" lon="5.10349">
        <ele>195.19999694824</ele>
        <time>2020-10-24T11:58:49.000Z</time>
      </trkpt>
      <trkpt lat="46.4003" lon="5.10339">
        <ele>195.19999694824</ele>
        <time>2020-10-24T11:58:50.000Z</time>
      </trkpt>
      <trkpt lat="46.40029" lon="5.10318">
        <ele>195.19999694824</ele>
        <time>2020-10-24T11:58:52.000Z</time>
      </trkpt>
      <trkpt lat="46.40028" lon="5.10298">
        <ele>195.19999694824</ele>
        <time>2020-10-24T11:58:54.000Z</time>
      </trkpt>
      <trkpt lat="46.40028" lon="5.10278">
        <ele>195.39999389648</ele>
        <time>2020-10-24T11:58:56.000Z</time>
      </trkpt>
      <trkpt lat="46.40028" lon="5.10257">
        <ele>195.39999389648</ele>
        <time>2020-10-24T11:58:58.000Z</time>
      </trkpt>
      <trkpt lat="46.40027" lon="5.10237">
        <ele>195.39999389648</ele>
        <time>2020-10-24T11:59:00.000Z</time>
      </trkpt>
      <trkpt lat="46.40027" lon="5.10217">
        <ele>195.39999389648</ele>
        <time>2020-10-24T11:59:02.000Z</time>
      </trkpt>
      <trkpt lat="46.40027" lon="5.10198">
        <ele>195.60000610352</ele>
        <time>2020-10-24T11:59:04.000Z</time>
      </trkpt>
      <trkpt lat="46.40026" lon="5.10178">
        <ele>195.60000610352</ele>
        <time>2020-10-24T11:59:06.000Z</time>
      </trkpt>
      <trkpt lat="46.40026" lon="5.10159">
        <ele>195.80000305176</ele>
        <time>2020-10-24T11:59:08.000Z</time>
      </trkpt>
      <trkpt lat="46.40025" lon="5.10139">
        <ele>195.80000305176</ele>
        <time>2020-10-24T11:59:10.000Z</time>
      </trkpt>
      <trkpt lat="46.40025" lon="5.10121">
        <ele>196.19999694824</ele>
        <time>2020-10-24T11:59:12.000Z</time>
      </trkpt>
      <trkpt lat="46.40024" lon="5.10102">
        <ele>196.19999694824</ele>
        <time>2020-10-24T11:59:14.000Z</time>
      </trkpt>
      <trkpt lat="46.40024" lon="5.10085">
        <ele>196.19999694824</ele>
        <time>2020-10-24T11:59:16.000Z</time>
      </trkpt>
      <trkpt lat="46.40024" lon="5.10076">
        <ele>196.39999389648</ele>
        <time>2020-10-24T11:59:17.000Z</time>
      </trkpt>
      <trkpt lat="46.40024" lon="5.10068">
        <ele>196.39999389648</ele>
        <time>2020-10-24T11:59:18.000Z</time>
      </trkpt>
      <trkpt lat="46.40023" lon="5.10051">
        <ele>196.60000610352</ele>
        <time>2020-10-24T11:59:20.000Z</time>
      </trkpt>
      <trkpt lat="46.40023" lon="5.10044">
        <ele>196.80000305176</ele>
        <time>2020-10-24T11:59:21.000Z</time>
      </trkpt>
      <trkpt lat="46.40023" lon="5.10036">
        <ele>196.80000305176</ele>
        <time>2020-10-24T11:59:22.000Z</time>
      </trkpt>
      <trkpt lat="46.40023" lon="5.10029">
        <ele>196.80000305176</ele>
        <time>2020-10-24T11:59:23.000Z</time>
      </trkpt>
      <trkpt lat="46.40023" lon="5.10021">
        <ele>197</ele>
        <time>2020-10-24T11:59:24.000Z</time>
      </trkpt>
      <trkpt lat="46.40023" lon="5.10007">
        <ele>197.60000610352</ele>
        <time>2020-10-24T11:59:26.000Z</time>
      </trkpt>
      <trkpt lat="46.40023" lon="5.1">
        <ele>198</ele>
        <time>2020-10-24T11:59:27.000Z</time>
      </trkpt>
      <trkpt lat="46.40023" lon="5.09993">
        <ele>198.39999389648</ele>
        <time>2020-10-24T11:59:28.000Z</time>
      </trkpt>
      <trkpt lat="46.40023" lon="5.09979">
        <ele>199.19999694824</ele>
        <time>2020-10-24T11:59:30.000Z</time>
      </trkpt>
      <trkpt lat="46.40022" lon="5.09972">
        <ele>199.60000610352</ele>
        <time>2020-10-24T11:59:31.000Z</time>
      </trkpt>
      <trkpt lat="46.40022" lon="5.09965">
        <ele>200</ele>
        <time>2020-10-24T11:59:32.000Z</time>
      </trkpt>
      <trkpt lat="46.40022" lon="5.09958">
        <ele>200.39999389648</ele>
        <time>2020-10-24T11:59:33.000Z</time>
      </trkpt>
      <trkpt lat="46.40022" lon="5.09951">
        <ele>201.19999694824</ele>
        <time>2020-10-24T11:59:34.000Z</time>
      </trkpt>
      <trkpt lat="46.40022" lon="5.09944">
        <ele>201.60000610352</ele>
        <time>2020-10-24T11:59:35.000Z</time>
      </trkpt>
      <trkpt lat="46.40022" lon="5.09937">
        <ele>202</ele>
        <time>2020-10-24T11:59:36.000Z</time>
      </trkpt>
      <trkpt lat="46.40022" lon="5.09931">
        <ele>202.19999694824</ele>
        <time>2020-10-24T11:59:37.000Z</time>
      </trkpt>
      <trkpt lat="46.40021" lon="5.09924">
        <ele>202.60000610352</ele>
        <time>2020-10-24T11:59:38.000Z</time>
      </trkpt>
      <trkpt lat="46.40021" lon="5.09917">
        <ele>203</ele>
        <time>2020-10-24T11:59:39.000Z</time>
      </trkpt>
      <trkpt lat="46.40021" lon="5.0991">
        <ele>203.19999694824</ele>
        <time>2020-10-24T11:59:40.000Z</time>
      </trkpt>
      <trkpt lat="46.40021" lon="5.09897">
        <ele>204</ele>
        <time>2020-10-24T11:59:42.000Z</time>
      </trkpt>
      <trkpt lat="46.4002" lon="5.09884">
        <ele>204.80000305176</ele>
        <time>2020-10-24T11:59:44.000Z</time>
      </trkpt>
      <trkpt lat="46.4002" lon="5.09878">
        <ele>205.19999694824</ele>
        <time>2020-10-24T11:59:45.000Z</time>
      </trkpt>
      <trkpt lat="46.4002" lon="5.09872">
        <ele>205.39999389648</ele>
        <time>2020-10-24T11:59:46.000Z</time>
      </trkpt>
      <trkpt lat="46.4002" lon="5.09861">
        <ele>206</ele>
        <time>2020-10-24T11:59:48.000Z</time>
      </trkpt>
      <trkpt lat="46.4002" lon="5.09855">
        <ele>206.19999694824</ele>
        <time>2020-10-24T11:59:49.000Z</time>
      </trkpt>
      <trkpt lat="46.4002" lon="5.0985">
        <ele>206.39999389648</ele>
        <time>2020-10-24T11:59:50.000Z</time>
      </trkpt>
      <trkpt lat="46.4002" lon="5.09839">
        <ele>207</ele>
        <time>2020-10-24T11:59:52.000Z</time>
      </trkpt>
      <trkpt lat="46.4002" lon="5.09834">
        <ele>207.39999389648</ele>
        <time>2020-10-24T11:59:53.000Z</time>
      </trkpt>
      <trkpt lat="46.4002" lon="5.09828">
        <ele>207.80000305176</ele>
        <time>2020-10-24T11:59:54.000Z</time>
      </trkpt>
      <trkpt lat="46.4002" lon="5.09818">
        <ele>208.60000610352</ele>
        <time>2020-10-24T11:59:56.000Z</time>
      </trkpt>
      <trkpt lat="46.4002" lon="5.09808">
        <ele>209</ele>
        <time>2020-10-24T11:59:58.000Z</time>
      </trkpt>
      <trkpt lat="46.40019" lon="5.09798">
        <ele>210</ele>
        <time>2020-10-24T12:00:00.000Z</time>
      </trkpt>
      <trkpt lat="46.40019" lon="5.09788">
        <ele>210.80000305176</ele>
        <time>2020-10-24T12:00:02.000Z</time>
      </trkpt>
      <trkpt lat="46.40019" lon="5.09783">
        <ele>211</ele>
        <time>2020-10-24T12:00:03.000Z</time>
      </trkpt>
      <trkpt lat="46.40019" lon="5.09778">
        <ele>211.60000610352</ele>
        <time>2020-10-24T12:00:04.000Z</time>
      </trkpt>
      <trkpt lat="46.40019" lon="5.09767">
        <ele>212.39999389648</ele>
        <time>2020-10-24T12:00:06.000Z</time>
      </trkpt>
      <trkpt lat="46.40019" lon="5.09757">
        <ele>212.80000305176</ele>
        <time>2020-10-24T12:00:08.000Z</time>
      </trkpt>
      <trkpt lat="46.40019" lon="5.09747">
        <ele>213.19999694824</ele>
        <time>2020-10-24T12:00:10.000Z</time>
      </trkpt>
      <trkpt lat="46.40018" lon="5.09737">
        <ele>213.39999389648</ele>
        <time>2020-10-24T12:00:12.000Z</time>
      </trkpt>
      <trkpt lat="46.40018" lon="5.09732">
        <ele>213.80000305176</ele>
        <time>2020-10-24T12:00:13.000Z</time>
      </trkpt>
      <trkpt lat="46.40018" lon="5.09727">
        <ele>214</ele>
        <time>2020-10-24T12:00:14.000Z</time>
      </trkpt>
      <trkpt lat="46.40018" lon="5.09718">
        <ele>214.39999389648</ele>
        <time>2020-10-24T12:00:16.000Z</time>
      </trkpt>
      <trkpt lat="46.40019" lon="5.09713">
        <ele>214.60000610352</ele>
        <time>2020-10-24T12:00:17.000Z</time>
      </trkpt>
      <trkpt lat="46.40019" lon="5.09708">
        <ele>214.80000305176</ele>
        <time>2020-10-24T12:00:18.000Z</time>
      </trkpt>
      <trkpt lat="46.4002" lon="5.09698">
        <ele>215.39999389648</ele>
        <time>2020-10-24T12:00:20.000Z</time>
      </trkpt>
      <trkpt lat="46.4002" lon="5.09693">
        <ele>215.60000610352</ele>
        <time>2020-10-24T12:00:21.000Z</time>
      </trkpt>
      <trkpt lat="46.4002" lon="5.09688">
        <ele>215.80000305176</ele>
        <time>2020-10-24T12:00:22.000Z</time>
      </trkpt>
      <trkpt lat="46.40021" lon="5.09678">
        <ele>216.19999694824</ele>
        <time>2020-10-24T12:00:24.000Z</time>
      </trkpt>
      <trkpt lat="46.40022" lon="5.09668">
        <ele>216.80000305176</ele>
        <time>2020-10-24T12:00:26.000Z</time>
      </trkpt>
      <trkpt lat="46.40022" lon="5.09663">
        <ele>217</ele>
        <time>2020-10-24T12:00:27.000Z</time>
      </trkpt>
      <trkpt lat="46.40022" lon="5.09658">
        <ele>217.19999694824</ele>
        <time>2020-10-24T12:00:28.000Z</time>
      </trkpt>
      <trkpt lat="46.40023" lon="5.09647">
        <ele>218.19999694824</ele>
        <time>2020-10-24T12:00:30.000Z</time>
      </trkpt>
      <trkpt lat="46.40024" lon="5.09641">
        <ele>218.19999694824</ele>
        <time>2020-10-24T12:00:31.000Z</time>
      </trkpt>
      <trkpt lat="46.40025" lon="5.09636">
        <ele>218.39999389648</ele>
        <time>2020-10-24T12:00:32.000Z</time>
      </trkpt>
      <trkpt lat="46.40025" lon="5.09625">
        <ele>218.80000305176</ele>
        <time>2020-10-24T12:00:34.000Z</time>
      </trkpt>
      <trkpt lat="46.40026" lon="5.09613">
        <ele>219</ele>
        <time>2020-10-24T12:00:36.000Z</time>
      </trkpt>
      <trkpt lat="46.40027" lon="5.09607">
        <ele>219.19999694824</ele>
        <time>2020-10-24T12:00:37.000Z</time>
      </trkpt>
      <trkpt lat="46.40028" lon="5.096">
        <ele>219.39999389648</ele>
        <time>2020-10-24T12:00:38.000Z</time>
      </trkpt>
      <trkpt lat="46.40029" lon="5.09587">
        <ele>219.60000610352</ele>
        <time>2020-10-24T12:00:40.000Z</time>
      </trkpt>
      <trkpt lat="46.4003" lon="5.09573">
        <ele>219.80000305176</ele>
        <time>2020-10-24T12:00:42.000Z</time>
      </trkpt>
      <trkpt lat="46.40031" lon="5.09559">
        <ele>220</ele>
        <time>2020-10-24T12:00:44.000Z</time>
      </trkpt>
      <trkpt lat="46.40032" lon="5.09544">
        <ele>220.19999694824</ele>
        <time>2020-10-24T12:00:46.000Z</time>
      </trkpt>
      <trkpt lat="46.40033" lon="5.09537">
        <ele>220.19999694824</ele>
        <time>2020-10-24T12:00:47.000Z</time>
      </trkpt>
      <trkpt lat="46.40033" lon="5.0953">
        <ele>220.19999694824</ele>
        <time>2020-10-24T12:00:48.000Z</time>
      </trkpt>
      <trkpt lat="46.40034" lon="5.09516">
        <ele>220.39999389648</ele>
        <time>2020-10-24T12:00:50.000Z</time>
      </trkpt>
      <trkpt lat="46.40036" lon="5.09501">
        <ele>220.39999389648</ele>
        <time>2020-10-24T12:00:52.000Z</time>
      </trkpt>
      <trkpt lat="46.40037" lon="5.09485">
        <ele>220.60000610352</ele>
        <time>2020-10-24T12:00:54.000Z</time>
      </trkpt>
      <trkpt lat="46.40038" lon="5.0947">
        <ele>221</ele>
        <time>2020-10-24T12:00:56.000Z</time>
      </trkpt>
      <trkpt lat="46.40039" lon="5.09454">
        <ele>221.19999694824</ele>
        <time>2020-10-24T12:00:58.000Z</time>
      </trkpt>
      <trkpt lat="46.4004" lon="5.09446">
        <ele>221.39999389648</ele>
        <time>2020-10-24T12:00:59.000Z</time>
      </trkpt>
      <trkpt lat="46.4004" lon="5.09438">
        <ele>221.39999389648</ele>
        <time>2020-10-24T12:01:00.000Z</time>
      </trkpt>
      <trkpt lat="46.40041" lon="5.0943">
        <ele>221.39999389648</ele>
        <time>2020-10-24T12:01:01.000Z</time>
      </trkpt>
      <trkpt lat="46.40042" lon="5.09421">
        <ele>221.39999389648</ele>
        <time>2020-10-24T12:01:02.000Z</time>
      </trkpt>
      <trkpt lat="46.40043" lon="5.09404">
        <ele>221.39999389648</ele>
        <time>2020-10-24T12:01:04.000Z</time>
      </trkpt>
      <trkpt lat="46.40045" lon="5.09384">
        <ele>221.39999389648</ele>
        <time>2020-10-24T12:01:06.000Z</time>
      </trkpt>
      <trkpt lat="46.40046" lon="5.09364">
        <ele>221.39999389648</ele>
        <time>2020-10-24T12:01:08.000Z</time>
      </trkpt>
      <trkpt lat="46.40048" lon="5.09342">
        <ele>221.19999694824</ele>
        <time>2020-10-24T12:01:10.000Z</time>
      </trkpt>
      <trkpt lat="46.4005" lon="5.09318">
        <ele>221</ele>
        <time>2020-10-24T12:01:12.000Z</time>
      </trkpt>
      <trkpt lat="46.40052" lon="5.09293">
        <ele>220.60000610352</ele>
        <time>2020-10-24T12:01:14.000Z</time>
      </trkpt>
      <trkpt lat="46.40053" lon="5.0928">
        <ele>220.19999694824</ele>
        <time>2020-10-24T12:01:15.000Z</time>
      </trkpt>
      <trkpt lat="46.40054" lon="5.09267">
        <ele>219.80000305176</ele>
        <time>2020-10-24T12:01:16.000Z</time>
      </trkpt>
      <trkpt lat="46.40055" lon="5.09239">
        <ele>218.80000305176</ele>
        <time>2020-10-24T12:01:18.000Z</time>
      </trkpt>
      <trkpt lat="46.40058" lon="5.09211">
        <ele>217.39999389648</ele>
        <time>2020-10-24T12:01:20.000Z</time>
      </trkpt>
      <trkpt lat="46.40061" lon="5.09183">
        <ele>216.19999694824</ele>
        <time>2020-10-24T12:01:22.000Z</time>
      </trkpt>
      <trkpt lat="46.40063" lon="5.09153">
        <ele>215.19999694824</ele>
        <time>2020-10-24T12:01:24.000Z</time>
      </trkpt>
      <trkpt lat="46.40065" lon="5.09139">
        <ele>213.80000305176</ele>
        <time>2020-10-24T12:01:25.000Z</time>
      </trkpt>
      <trkpt lat="46.40066" lon="5.09124">
        <ele>213</ele>
        <time>2020-10-24T12:01:26.000Z</time>
      </trkpt>
      <trkpt lat="46.40067" lon="5.09109">
        <ele>212.39999389648</ele>
        <time>2020-10-24T12:01:27.000Z</time>
      </trkpt>
      <trkpt lat="46.40068" lon="5.09094">
        <ele>211.80000305176</ele>
        <time>2020-10-24T12:01:28.000Z</time>
      </trkpt>
      <trkpt lat="46.40069" lon="5.09079">
        <ele>211</ele>
        <time>2020-10-24T12:01:29.000Z</time>
      </trkpt>
      <trkpt lat="46.4007" lon="5.09064">
        <ele>210.60000610352</ele>
        <time>2020-10-24T12:01:30.000Z</time>
      </trkpt>
      <trkpt lat="46.40072" lon="5.09034">
        <ele>209.80000305176</ele>
        <time>2020-10-24T12:01:32.000Z</time>
      </trkpt>
      <trkpt lat="46.40074" lon="5.09005">
        <ele>209</ele>
        <time>2020-10-24T12:01:34.000Z</time>
      </trkpt>
      <trkpt lat="46.40075" lon="5.0899">
        <ele>208.39999389648</ele>
        <time>2020-10-24T12:01:35.000Z</time>
      </trkpt>
      <trkpt lat="46.40076" lon="5.08976">
        <ele>208</ele>
        <time>2020-10-24T12:01:36.000Z</time>
      </trkpt>
      <trkpt lat="46.40076" lon="5.08962">
        <ele>207.80000305176</ele>
        <time>2020-10-24T12:01:37.000Z</time>
      </trkpt>
      <trkpt lat="46.40076" lon="5.08949">
        <ele>207.60000610352</ele>
        <time>2020-10-24T12:01:38.000Z</time>
      </trkpt>
      <trkpt lat="46.40074" lon="5.08922">
        <ele>207.39999389648</ele>
        <time>2020-10-24T12:01:40.000Z</time>
      </trkpt>
      <trkpt lat="46.40071" lon="5.08896">
        <ele>207.39999389648</ele>
        <time>2020-10-24T12:01:42.000Z</time>
      </trkpt>
      <trkpt lat="46.40068" lon="5.08871">
        <ele>207.39999389648</ele>
        <time>2020-10-24T12:01:44.000Z</time>
      </trkpt>
      <trkpt lat="46.40064" lon="5.08846">
        <ele>207.39999389648</ele>
        <time>2020-10-24T12:01:46.000Z</time>
      </trkpt>
      <trkpt lat="46.40061" lon="5.08823">
        <ele>207.39999389648</ele>
        <time>2020-10-24T12:01:48.000Z</time>
      </trkpt>
      <trkpt lat="46.40059" lon="5.08811">
        <ele>207.39999389648</ele>
        <time>2020-10-24T12:01:49.000Z</time>
      </trkpt>
      <trkpt lat="46.40058" lon="5.088">
        <ele>207.39999389648</ele>
        <time>2020-10-24T12:01:50.000Z</time>
      </trkpt>
      <trkpt lat="46.40054" lon="5.08778">
        <ele>207.60000610352</ele>
        <time>2020-10-24T12:01:52.000Z</time>
      </trkpt>
      <trkpt lat="46.40051" lon="5.08757">
        <ele>208</ele>
        <time>2020-10-24T12:01:54.000Z</time>
      </trkpt>
      <trkpt lat="46.40048" lon="5.08737">
        <ele>208.19999694824</ele>
        <time>2020-10-24T12:01:56.000Z</time>
      </trkpt>
      <trkpt lat="46.40045" lon="5.08719">
        <ele>209</ele>
        <time>2020-10-24T12:01:58.000Z</time>
      </trkpt>
      <trkpt lat="46.40043" lon="5.08702">
        <ele>209.39999389648</ele>
        <time>2020-10-24T12:02:00.000Z</time>
      </trkpt>
      <trkpt lat="46.40041" lon="5.08685">
        <ele>209.80000305176</ele>
        <time>2020-10-24T12:02:02.000Z</time>
      </trkpt>
      <trkpt lat="46.40039" lon="5.08677">
        <ele>210.19999694824</ele>
        <time>2020-10-24T12:02:03.000Z</time>
      </trkpt>
      <trkpt lat="46.40038" lon="5.08669">
        <ele>210.60000610352</ele>
        <time>2020-10-24T12:02:04.000Z</time>
      </trkpt>
      <trkpt lat="46.40036" lon="5.08654">
        <ele>211.39999389648</ele>
        <time>2020-10-24T12:02:06.000Z</time>
      </trkpt>
      <trkpt lat="46.40033" lon="5.08638">
        <ele>212</ele>
        <time>2020-10-24T12:02:08.000Z</time>
      </trkpt>
      <trkpt lat="46.40031" lon="5.08623">
        <ele>212.80000305176</ele>
        <time>2020-10-24T12:02:10.000Z</time>
      </trkpt>
      <trkpt lat="46.40029" lon="5.08608">
        <ele>213.39999389648</ele>
        <time>2020-10-24T12:02:12.000Z</time>
      </trkpt>
      <trkpt lat="46.40027" lon="5.08592">
        <ele>213.80000305176</ele>
        <time>2020-10-24T12:02:14.000Z</time>
      </trkpt>
      <trkpt lat="46.40024" lon="5.08577">
        <ele>214.39999389648</ele>
        <time>2020-10-24T12:02:16.000Z</time>
      </trkpt>
      <trkpt lat="46.40022" lon="5.08562">
        <ele>215</ele>
        <time>2020-10-24T12:02:18.000Z</time>
      </trkpt>
      <trkpt lat="46.4002" lon="5.08547">
        <ele>216</ele>
        <time>2020-10-24T12:02:20.000Z</time>
      </trkpt>
      <trkpt lat="46.40018" lon="5.08532">
        <ele>216.39999389648</ele>
        <time>2020-10-24T12:02:22.000Z</time>
      </trkpt>
      <trkpt lat="46.40016" lon="5.08517">
        <ele>217</ele>
        <time>2020-10-24T12:02:24.000Z</time>
      </trkpt>
      <trkpt lat="46.40015" lon="5.0851">
        <ele>217.19999694824</ele>
        <time>2020-10-24T12:02:25.000Z</time>
      </trkpt>
      <trkpt lat="46.40014" lon="5.08503">
        <ele>217.60000610352</ele>
        <time>2020-10-24T12:02:26.000Z</time>
      </trkpt>
      <trkpt lat="46.40012" lon="5.08488">
        <ele>218</ele>
        <time>2020-10-24T12:02:28.000Z</time>
      </trkpt>
      <trkpt lat="46.40009" lon="5.08472">
        <ele>218.39999389648</ele>
        <time>2020-10-24T12:02:30.000Z</time>
      </trkpt>
      <trkpt lat="46.40007" lon="5.08457">
        <ele>218.80000305176</ele>
        <time>2020-10-24T12:02:32.000Z</time>
      </trkpt>
      <trkpt lat="46.40005" lon="5.08442">
        <ele>219.39999389648</ele>
        <time>2020-10-24T12:02:34.000Z</time>
      </trkpt>
      <trkpt lat="46.40004" lon="5.08435">
        <ele>219.60000610352</ele>
        <time>2020-10-24T12:02:35.000Z</time>
      </trkpt>
      <trkpt lat="46.40003" lon="5.08428">
        <ele>219.80000305176</ele>
        <time>2020-10-24T12:02:36.000Z</time>
      </trkpt>
      <trkpt lat="46.40002" lon="5.08421">
        <ele>219.80000305176</ele>
        <time>2020-10-24T12:02:37.000Z</time>
      </trkpt>
      <trkpt lat="46.40001" lon="5.08414">
        <ele>220</ele>
        <time>2020-10-24T12:02:38.000Z</time>
      </trkpt>
      <trkpt lat="46.39999" lon="5.08399">
        <ele>220.39999389648</ele>
        <time>2020-10-24T12:02:40.000Z</time>
      </trkpt>
      <trkpt lat="46.39998" lon="5.08391">
        <ele>220.60000610352</ele>
        <time>2020-10-24T12:02:41.000Z</time>
      </trkpt>
      <trkpt lat="46.39997" lon="5.08384">
        <ele>220.60000610352</ele>
        <time>2020-10-24T12:02:42.000Z</time>
      </trkpt>
      <trkpt lat="46.39996" lon="5.08369">
        <ele>221</ele>
        <time>2020-10-24T12:02:44.000Z</time>
      </trkpt>
      <trkpt lat="46.39994" lon="5.08353">
        <ele>221.19999694824</ele>
        <time>2020-10-24T12:02:46.000Z</time>
      </trkpt>
      <trkpt lat="46.39993" lon="5.08338">
        <ele>221.39999389648</ele>
        <time>2020-10-24T12:02:48.000Z</time>
      </trkpt>
      <trkpt lat="46.39992" lon="5.08322">
        <ele>221.60000610352</ele>
        <time>2020-10-24T12:02:50.000Z</time>
      </trkpt>
      <trkpt lat="46.39991" lon="5.08314">
        <ele>221.80000305176</ele>
        <time>2020-10-24T12:02:51.000Z</time>
      </trkpt>
      <trkpt lat="46.3999" lon="5.08306">
        <ele>221.80000305176</ele>
        <time>2020-10-24T12:02:52.000Z</time>
      </trkpt>
      <trkpt lat="46.39989" lon="5.0829">
        <ele>221.80000305176</ele>
        <time>2020-10-24T12:02:54.000Z</time>
      </trkpt>
      <trkpt lat="46.39987" lon="5.08275">
        <ele>222</ele>
        <time>2020-10-24T12:02:56.000Z</time>
      </trkpt>
      <trkpt lat="46.39986" lon="5.08258">
        <ele>222</ele>
        <time>2020-10-24T12:02:58.000Z</time>
      </trkpt>
      <trkpt lat="46.39985" lon="5.08242">
        <ele>222</ele>
        <time>2020-10-24T12:03:00.000Z</time>
      </trkpt>
      <trkpt lat="46.39983" lon="5.08225">
        <ele>222</ele>
        <time>2020-10-24T12:03:02.000Z</time>
      </trkpt>
      <trkpt lat="46.39982" lon="5.08217">
        <ele>222</ele>
        <time>2020-10-24T12:03:03.000Z</time>
      </trkpt>
      <trkpt lat="46.39982" lon="5.08208">
        <ele>222</ele>
        <time>2020-10-24T12:03:04.000Z</time>
      </trkpt>
      <trkpt lat="46.3998" lon="5.08191">
        <ele>222.19999694824</ele>
        <time>2020-10-24T12:03:06.000Z</time>
      </trkpt>
      <trkpt lat="46.39979" lon="5.08174">
        <ele>222.19999694824</ele>
        <time>2020-10-24T12:03:08.000Z</time>
      </trkpt>
      <trkpt lat="46.39977" lon="5.08157">
        <ele>222.19999694824</ele>
        <time>2020-10-24T12:03:10.000Z</time>
      </trkpt>
      <trkpt lat="46.39976" lon="5.0814">
        <ele>222.19999694824</ele>
        <time>2020-10-24T12:03:12.000Z</time>
      </trkpt>
      <trkpt lat="46.39974" lon="5.08123">
        <ele>222.19999694824</ele>
        <time>2020-10-24T12:03:14.000Z</time>
      </trkpt>
      <trkpt lat="46.39973" lon="5.08105">
        <ele>222.19999694824</ele>
        <time>2020-10-24T12:03:16.000Z</time>
      </trkpt>
      <trkpt lat="46.39971" lon="5.08087">
        <ele>222.19999694824</ele>
        <time>2020-10-24T12:03:18.000Z</time>
      </trkpt>
      <trkpt lat="46.39969" lon="5.08068">
        <ele>222.19999694824</ele>
        <time>2020-10-24T12:03:20.000Z</time>
      </trkpt>
      <trkpt lat="46.39968" lon="5.0805">
        <ele>222.19999694824</ele>
        <time>2020-10-24T12:03:22.000Z</time>
      </trkpt>
      <trkpt lat="46.39967" lon="5.08031">
        <ele>222.19999694824</ele>
        <time>2020-10-24T12:03:24.000Z</time>
      </trkpt>
      <trkpt lat="46.39965" lon="5.08011">
        <ele>222.19999694824</ele>
        <time>2020-10-24T12:03:26.000Z</time>
      </trkpt>
      <trkpt lat="46.39963" lon="5.07992">
        <ele>222</ele>
        <time>2020-10-24T12:03:28.000Z</time>
      </trkpt>
      <trkpt lat="46.39962" lon="5.07972">
        <ele>222</ele>
        <time>2020-10-24T12:03:30.000Z</time>
      </trkpt>
      <trkpt lat="46.3996" lon="5.07953">
        <ele>222</ele>
        <time>2020-10-24T12:03:32.000Z</time>
      </trkpt>
      <trkpt lat="46.39958" lon="5.07933">
        <ele>222</ele>
        <time>2020-10-24T12:03:34.000Z</time>
      </trkpt>
      <trkpt lat="46.39956" lon="5.07913">
        <ele>222</ele>
        <time>2020-10-24T12:03:36.000Z</time>
      </trkpt>
      <trkpt lat="46.39955" lon="5.07893">
        <ele>221.80000305176</ele>
        <time>2020-10-24T12:03:38.000Z</time>
      </trkpt>
      <trkpt lat="46.39954" lon="5.07882">
        <ele>221.80000305176</ele>
        <time>2020-10-24T12:03:39.000Z</time>
      </trkpt>
      <trkpt lat="46.39953" lon="5.07872">
        <ele>221.80000305176</ele>
        <time>2020-10-24T12:03:40.000Z</time>
      </trkpt>
      <trkpt lat="46.39951" lon="5.0785">
        <ele>221.39999389648</ele>
        <time>2020-10-24T12:03:42.000Z</time>
      </trkpt>
      <trkpt lat="46.3995" lon="5.07828">
        <ele>221.19999694824</ele>
        <time>2020-10-24T12:03:44.000Z</time>
      </trkpt>
      <trkpt lat="46.39947" lon="5.07805">
        <ele>221</ele>
        <time>2020-10-24T12:03:46.000Z</time>
      </trkpt>
      <trkpt lat="46.39945" lon="5.07782">
        <ele>220.80000305176</ele>
        <time>2020-10-24T12:03:48.000Z</time>
      </trkpt>
      <trkpt lat="46.39943" lon="5.07759">
        <ele>220.60000610352</ele>
        <time>2020-10-24T12:03:50.000Z</time>
      </trkpt>
      <trkpt lat="46.39942" lon="5.07736">
        <ele>219.80000305176</ele>
        <time>2020-10-24T12:03:52.000Z</time>
      </trkpt>
      <trkpt lat="46.39939" lon="5.07712">
        <ele>219.39999389648</ele>
        <time>2020-10-24T12:03:54.000Z</time>
      </trkpt>
      <trkpt lat="46.39938" lon="5.07699">
        <ele>219.19999694824</ele>
        <time>2020-10-24T12:03:55.000Z</time>
      </trkpt>
      <trkpt lat="46.39936" lon="5.07687">
        <ele>219.19999694824</ele>
        <time>2020-10-24T12:03:56.000Z</time>
      </trkpt>
      <trkpt lat="46.39933" lon="5.07662">
        <ele>218.80000305176</ele>
        <time>2020-10-24T12:03:58.000Z</time>
      </trkpt>
      <trkpt lat="46.3993" lon="5.07638">
        <ele>218.39999389648</ele>
        <time>2020-10-24T12:04:00.000Z</time>
      </trkpt>
      <trkpt lat="46.39927" lon="5.07615">
        <ele>218</ele>
        <time>2020-10-24T12:04:02.000Z</time>
      </trkpt>
      <trkpt lat="46.39924" lon="5.07591">
        <ele>217.39999389648</ele>
        <time>2020-10-24T12:04:04.000Z</time>
      </trkpt>
      <trkpt lat="46.39921" lon="5.07568">
        <ele>216.60000610352</ele>
        <time>2020-10-24T12:04:06.000Z</time>
      </trkpt>
      <trkpt lat="46.3992" lon="5.07557">
        <ele>216.39999389648</ele>
        <time>2020-10-24T12:04:07.000Z</time>
      </trkpt>
      <trkpt lat="46.39919" lon="5.07545">
        <ele>216</ele>
        <time>2020-10-24T12:04:08.000Z</time>
      </trkpt>
      <trkpt lat="46.39916" lon="5.07522">
        <ele>215.80000305176</ele>
        <time>2020-10-24T12:04:10.000Z</time>
      </trkpt>
      <trkpt lat="46.39914" lon="5.0751">
        <ele>215.80000305176</ele>
        <time>2020-10-24T12:04:11.000Z</time>
      </trkpt>
      <trkpt lat="46.39913" lon="5.07498">
        <ele>215.60000610352</ele>
        <time>2020-10-24T12:04:12.000Z</time>
      </trkpt>
      <trkpt lat="46.39911" lon="5.07485">
        <ele>215.60000610352</ele>
        <time>2020-10-24T12:04:13.000Z</time>
      </trkpt>
      <trkpt lat="46.3991" lon="5.07473">
        <ele>215.39999389648</ele>
        <time>2020-10-24T12:04:14.000Z</time>
      </trkpt>
      <trkpt lat="46.39907" lon="5.07449">
        <ele>215.39999389648</ele>
        <time>2020-10-24T12:04:16.000Z</time>
      </trkpt>
      <trkpt lat="46.39904" lon="5.07425">
        <ele>215.39999389648</ele>
        <time>2020-10-24T12:04:18.000Z</time>
      </trkpt>
      <trkpt lat="46.39901" lon="5.07401">
        <ele>215</ele>
        <time>2020-10-24T12:04:20.000Z</time>
      </trkpt>
      <trkpt lat="46.39898" lon="5.07377">
        <ele>214.60000610352</ele>
        <time>2020-10-24T12:04:22.000Z</time>
      </trkpt>
      <trkpt lat="46.39896" lon="5.07365">
        <ele>214.39999389648</ele>
        <time>2020-10-24T12:04:23.000Z</time>
      </trkpt>
      <trkpt lat="46.39894" lon="5.07354">
        <ele>214.39999389648</ele>
        <time>2020-10-24T12:04:24.000Z</time>
      </trkpt>
      <trkpt lat="46.39891" lon="5.0733">
        <ele>214</ele>
        <time>2020-10-24T12:04:26.000Z</time>
      </trkpt>
      <trkpt lat="46.39888" lon="5.07306">
        <ele>214</ele>
        <time>2020-10-24T12:04:28.000Z</time>
      </trkpt>
      <trkpt lat="46.39885" lon="5.07283">
        <ele>213.60000610352</ele>
        <time>2020-10-24T12:04:30.000Z</time>
      </trkpt>
      <trkpt lat="46.39884" lon="5.07271">
        <ele>213.60000610352</ele>
        <time>2020-10-24T12:04:31.000Z</time>
      </trkpt>
      <trkpt lat="46.39883" lon="5.07259">
        <ele>213.39999389648</ele>
        <time>2020-10-24T12:04:32.000Z</time>
      </trkpt>
      <trkpt lat="46.39881" lon="5.07248">
        <ele>213.39999389648</ele>
        <time>2020-10-24T12:04:33.000Z</time>
      </trkpt>
      <trkpt lat="46.3988" lon="5.07236">
        <ele>213.39999389648</ele>
        <time>2020-10-24T12:04:34.000Z</time>
      </trkpt>
      <trkpt lat="46.39877" lon="5.07213">
        <ele>213.39999389648</ele>
        <time>2020-10-24T12:04:36.000Z</time>
      </trkpt>
      <trkpt lat="46.39874" lon="5.07189">
        <ele>213.19999694824</ele>
        <time>2020-10-24T12:04:38.000Z</time>
      </trkpt>
      <trkpt lat="46.39871" lon="5.07165">
        <ele>213.19999694824</ele>
        <time>2020-10-24T12:04:40.000Z</time>
      </trkpt>
      <trkpt lat="46.3987" lon="5.07152">
        <ele>213.19999694824</ele>
        <time>2020-10-24T12:04:41.000Z</time>
      </trkpt>
      <trkpt lat="46.39868" lon="5.07139">
        <ele>213.19999694824</ele>
        <time>2020-10-24T12:04:42.000Z</time>
      </trkpt>
      <trkpt lat="46.39865" lon="5.07111">
        <ele>212.80000305176</ele>
        <time>2020-10-24T12:04:44.000Z</time>
      </trkpt>
      <trkpt lat="46.39861" lon="5.07082">
        <ele>212.39999389648</ele>
        <time>2020-10-24T12:04:46.000Z</time>
      </trkpt>
      <trkpt lat="46.3986" lon="5.07067">
        <ele>212</ele>
        <time>2020-10-24T12:04:47.000Z</time>
      </trkpt>
      <trkpt lat="46.39858" lon="5.07051">
        <ele>211.60000610352</ele>
        <time>2020-10-24T12:04:48.000Z</time>
      </trkpt>
      <trkpt lat="46.39856" lon="5.07034">
        <ele>210.80000305176</ele>
        <time>2020-10-24T12:04:49.000Z</time>
      </trkpt>
      <trkpt lat="46.39853" lon="5.07018">
        <ele>210.39999389648</ele>
        <time>2020-10-24T12:04:50.000Z</time>
      </trkpt>
      <trkpt lat="46.39851" lon="5.07001">
        <ele>209.60000610352</ele>
        <time>2020-10-24T12:04:51.000Z</time>
      </trkpt>
      <trkpt lat="46.39849" lon="5.06984">
        <ele>208.60000610352</ele>
        <time>2020-10-24T12:04:52.000Z</time>
      </trkpt>
      <trkpt lat="46.39847" lon="5.06967">
        <ele>207.80000305176</ele>
        <time>2020-10-24T12:04:53.000Z</time>
      </trkpt>
      <trkpt lat="46.39844" lon="5.06949">
        <ele>207</ele>
        <time>2020-10-24T12:04:54.000Z</time>
      </trkpt>
      <trkpt lat="46.39842" lon="5.06932">
        <ele>206.19999694824</ele>
        <time>2020-10-24T12:04:55.000Z</time>
      </trkpt>
      <trkpt lat="46.3984" lon="5.06914">
        <ele>205.80000305176</ele>
        <time>2020-10-24T12:04:56.000Z</time>
      </trkpt>
      <trkpt lat="46.39838" lon="5.06897">
        <ele>205</ele>
        <time>2020-10-24T12:04:57.000Z</time>
      </trkpt>
      <trkpt lat="46.39836" lon="5.0688">
        <ele>204.39999389648</ele>
        <time>2020-10-24T12:04:58.000Z</time>
      </trkpt>
      <trkpt lat="46.39834" lon="5.06864">
        <ele>203.60000610352</ele>
        <time>2020-10-24T12:04:59.000Z</time>
      </trkpt>
      <trkpt lat="46.39832" lon="5.06848">
        <ele>202.39999389648</ele>
        <time>2020-10-24T12:05:00.000Z</time>
      </trkpt>
      <trkpt lat="46.3983" lon="5.06832">
        <ele>201</ele>
        <time>2020-10-24T12:05:01.000Z</time>
      </trkpt>
      <trkpt lat="46.39828" lon="5.06817">
        <ele>199.80000305176</ele>
        <time>2020-10-24T12:05:02.000Z</time>
      </trkpt>
      <trkpt lat="46.39826" lon="5.06802">
        <ele>198.60000610352</ele>
        <time>2020-10-24T12:05:03.000Z</time>
      </trkpt>
      <trkpt lat="46.39825" lon="5.06788">
        <ele>198</ele>
        <time>2020-10-24T12:05:04.000Z</time>
      </trkpt>
      <trkpt lat="46.39823" lon="5.06774">
        <ele>197.60000610352</ele>
        <time>2020-10-24T12:05:05.000Z</time>
      </trkpt>
      <trkpt lat="46.39821" lon="5.06761">
        <ele>197.39999389648</ele>
        <time>2020-10-24T12:05:06.000Z</time>
      </trkpt>
      <trkpt lat="46.3982" lon="5.06748">
        <ele>197.19999694824</ele>
        <time>2020-10-24T12:05:07.000Z</time>
      </trkpt>
      <trkpt lat="46.39818" lon="5.06735">
        <ele>197.19999694824</ele>
        <time>2020-10-24T12:05:08.000Z</time>
      </trkpt>
      <trkpt lat="46.39815" lon="5.06711">
        <ele>197</ele>
        <time>2020-10-24T12:05:10.000Z</time>
      </trkpt>
      <trkpt lat="46.39811" lon="5.06687">
        <ele>197</ele>
        <time>2020-10-24T12:05:12.000Z</time>
      </trkpt>
      <trkpt lat="46.39808" lon="5.06663">
        <ele>197.19999694824</ele>
        <time>2020-10-24T12:05:14.000Z</time>
      </trkpt>
      <trkpt lat="46.39807" lon="5.06652">
        <ele>197.39999389648</ele>
        <time>2020-10-24T12:05:15.000Z</time>
      </trkpt>
      <trkpt lat="46.39805" lon="5.06641">
        <ele>197.60000610352</ele>
        <time>2020-10-24T12:05:16.000Z</time>
      </trkpt>
      <trkpt lat="46.39803" lon="5.06618">
        <ele>198</ele>
        <time>2020-10-24T12:05:18.000Z</time>
      </trkpt>
      <trkpt lat="46.398" lon="5.06596">
        <ele>198.19999694824</ele>
        <time>2020-10-24T12:05:20.000Z</time>
      </trkpt>
      <trkpt lat="46.39798" lon="5.06576">
        <ele>198.39999389648</ele>
        <time>2020-10-24T12:05:22.000Z</time>
      </trkpt>
      <trkpt lat="46.39796" lon="5.06566">
        <ele>198.60000610352</ele>
        <time>2020-10-24T12:05:23.000Z</time>
      </trkpt>
      <trkpt lat="46.39795" lon="5.06556">
        <ele>198.80000305176</ele>
        <time>2020-10-24T12:05:24.000Z</time>
      </trkpt>
      <trkpt lat="46.39793" lon="5.06539">
        <ele>199</ele>
        <time>2020-10-24T12:05:26.000Z</time>
      </trkpt>
      <trkpt lat="46.39792" lon="5.06523">
        <ele>199.39999389648</ele>
        <time>2020-10-24T12:05:28.000Z</time>
      </trkpt>
      <trkpt lat="46.3979" lon="5.06507">
        <ele>199.60000610352</ele>
        <time>2020-10-24T12:05:30.000Z</time>
      </trkpt>
      <trkpt lat="46.39788" lon="5.06492">
        <ele>200.39999389648</ele>
        <time>2020-10-24T12:05:32.000Z</time>
      </trkpt>
      <trkpt lat="46.39787" lon="5.06485">
        <ele>200.80000305176</ele>
        <time>2020-10-24T12:05:33.000Z</time>
      </trkpt>
      <trkpt lat="46.39786" lon="5.06478">
        <ele>201.39999389648</ele>
        <time>2020-10-24T12:05:34.000Z</time>
      </trkpt>
      <trkpt lat="46.39786" lon="5.0647">
        <ele>202.39999389648</ele>
        <time>2020-10-24T12:05:35.000Z</time>
      </trkpt>
      <trkpt lat="46.39785" lon="5.06463">
        <ele>203</ele>
        <time>2020-10-24T12:05:36.000Z</time>
      </trkpt>
      <trkpt lat="46.39783" lon="5.06449">
        <ele>203.80000305176</ele>
        <time>2020-10-24T12:05:38.000Z</time>
      </trkpt>
      <trkpt lat="46.39781" lon="5.06435">
        <ele>204.39999389648</ele>
        <time>2020-10-24T12:05:40.000Z</time>
      </trkpt>
      <trkpt lat="46.3978" lon="5.06428">
        <ele>205</ele>
        <time>2020-10-24T12:05:41.000Z</time>
      </trkpt>
      <trkpt lat="46.39779" lon="5.06421">
        <ele>205.39999389648</ele>
        <time>2020-10-24T12:05:42.000Z</time>
      </trkpt>
      <trkpt lat="46.39778" lon="5.06407">
        <ele>206.19999694824</ele>
        <time>2020-10-24T12:05:44.000Z</time>
      </trkpt>
      <trkpt lat="46.39776" lon="5.06393">
        <ele>207</ele>
        <time>2020-10-24T12:05:46.000Z</time>
      </trkpt>
      <trkpt lat="46.39775" lon="5.06386">
        <ele>207.39999389648</ele>
        <time>2020-10-24T12:05:47.000Z</time>
      </trkpt>
      <trkpt lat="46.39774" lon="5.06379">
        <ele>207.60000610352</ele>
        <time>2020-10-24T12:05:48.000Z</time>
      </trkpt>
      <trkpt lat="46.39772" lon="5.06366">
        <ele>208.39999389648</ele>
        <time>2020-10-24T12:05:50.000Z</time>
      </trkpt>
      <trkpt lat="46.3977" lon="5.06352">
        <ele>209</ele>
        <time>2020-10-24T12:05:52.000Z</time>
      </trkpt>
      <trkpt lat="46.39768" lon="5.06345">
        <ele>209.39999389648</ele>
        <time>2020-10-24T12:05:53.000Z</time>
      </trkpt>
      <trkpt lat="46.39767" lon="5.06338">
        <ele>209.60000610352</ele>
        <time>2020-10-24T12:05:54.000Z</time>
      </trkpt>
      <trkpt lat="46.39765" lon="5.06331">
        <ele>209.80000305176</ele>
        <time>2020-10-24T12:05:55.000Z</time>
      </trkpt>
      <trkpt lat="46.39763" lon="5.06325">
        <ele>210</ele>
        <time>2020-10-24T12:05:56.000Z</time>
      </trkpt>
      <trkpt lat="46.39758" lon="5.06312">
        <ele>210.60000610352</ele>
        <time>2020-10-24T12:05:58.000Z</time>
      </trkpt>
      <trkpt lat="46.39755" lon="5.06305">
        <ele>210.80000305176</ele>
        <time>2020-10-24T12:05:59.000Z</time>
      </trkpt>
      <trkpt lat="46.39751" lon="5.063">
        <ele>211</ele>
        <time>2020-10-24T12:06:00.000Z</time>
      </trkpt>
      <trkpt lat="46.39748" lon="5.06294">
        <ele>211</ele>
        <time>2020-10-24T12:06:01.000Z</time>
      </trkpt>
      <trkpt lat="46.39746" lon="5.06289">
        <ele>211</ele>
        <time>2020-10-24T12:06:02.000Z</time>
      </trkpt>
      <trkpt lat="46.39741" lon="5.06279">
        <ele>211.39999389648</ele>
        <time>2020-10-24T12:06:04.000Z</time>
      </trkpt>
      <trkpt lat="46.39736" lon="5.06272">
        <ele>211.60000610352</ele>
        <time>2020-10-24T12:06:06.000Z</time>
      </trkpt>
      <trkpt lat="46.39734" lon="5.06271">
        <ele>211.80000305176</ele>
        <time>2020-10-24T12:06:07.000Z</time>
      </trkpt>
      <trkpt lat="46.39733" lon="5.06271">
        <ele>212</ele>
        <time>2020-10-24T12:06:08.000Z</time>
      </trkpt>
      <trkpt lat="46.39735" lon="5.06278">
        <ele>213</ele>
        <time>2020-10-24T12:06:10.000Z</time>
      </trkpt>
      <trkpt lat="46.39741" lon="5.06287">
        <ele>213.19999694824</ele>
        <time>2020-10-24T12:06:12.000Z</time>
      </trkpt>
      <trkpt lat="46.39746" lon="5.06298">
        <ele>213.39999389648</ele>
        <time>2020-10-24T12:06:14.000Z</time>
      </trkpt>
      <trkpt lat="46.39742" lon="5.06309">
        <ele>213.39999389648</ele>
        <time>2020-10-24T12:06:16.000Z</time>
      </trkpt>
      <trkpt lat="46.39733" lon="5.06312">
        <ele>213.39999389648</ele>
        <time>2020-10-24T12:06:18.000Z</time>
      </trkpt>
      <trkpt lat="46.39728" lon="5.06312">
        <ele>213.60000610352</ele>
        <time>2020-10-24T12:06:19.000Z</time>
      </trkpt>
      <trkpt lat="46.39723" lon="5.06312">
        <ele>213.60000610352</ele>
        <time>2020-10-24T12:06:20.000Z</time>
      </trkpt>
      <trkpt lat="46.39714" lon="5.06312">
        <ele>213.60000610352</ele>
        <time>2020-10-24T12:06:22.000Z</time>
      </trkpt>
      <trkpt lat="46.39704" lon="5.06312">
        <ele>213.60000610352</ele>
        <time>2020-10-24T12:06:24.000Z</time>
      </trkpt>
      <trkpt lat="46.39694" lon="5.06313">
        <ele>213.60000610352</ele>
        <time>2020-10-24T12:06:26.000Z</time>
      </trkpt>
      <trkpt lat="46.39685" lon="5.06314">
        <ele>213.60000610352</ele>
        <time>2020-10-24T12:06:28.000Z</time>
      </trkpt>
      <trkpt lat="46.39675" lon="5.06316">
        <ele>213.80000305176</ele>
        <time>2020-10-24T12:06:30.000Z</time>
      </trkpt>
      <trkpt lat="46.39671" lon="5.06317">
        <ele>214</ele>
        <time>2020-10-24T12:06:31.000Z</time>
      </trkpt>
      <trkpt lat="46.39666" lon="5.06318">
        <ele>214.19999694824</ele>
        <time>2020-10-24T12:06:32.000Z</time>
      </trkpt>
      <trkpt lat="46.39656" lon="5.0632">
        <ele>214.80000305176</ele>
        <time>2020-10-24T12:06:34.000Z</time>
      </trkpt>
      <trkpt lat="46.39647" lon="5.06321">
        <ele>215.19999694824</ele>
        <time>2020-10-24T12:06:36.000Z</time>
      </trkpt>
      <trkpt lat="46.39636" lon="5.06321">
        <ele>215.80000305176</ele>
        <time>2020-10-24T12:06:38.000Z</time>
      </trkpt>
      <trkpt lat="46.39625" lon="5.06319">
        <ele>216.39999389648</ele>
        <time>2020-10-24T12:06:40.000Z</time>
      </trkpt>
      <trkpt lat="46.39614" lon="5.06315">
        <ele>216.80000305176</ele>
        <time>2020-10-24T12:06:42.000Z</time>
      </trkpt>
      <trkpt lat="46.39603" lon="5.06311">
        <ele>217.19999694824</ele>
        <time>2020-10-24T12:06:44.000Z</time>
      </trkpt>
      <trkpt lat="46.39592" lon="5.06306">
        <ele>217.39999389648</ele>
        <time>2020-10-24T12:06:46.000Z</time>
      </trkpt>
      <trkpt lat="46.39587" lon="5.06304">
        <ele>217.39999389648</ele>
        <time>2020-10-24T12:06:47.000Z</time>
      </trkpt>
      <trkpt lat="46.39581" lon="5.06302">
        <ele>217.60000610352</ele>
        <time>2020-10-24T12:06:48.000Z</time>
      </trkpt>
      <trkpt lat="46.3957" lon="5.06299">
        <ele>217.60000610352</ele>
        <time>2020-10-24T12:06:50.000Z</time>
      </trkpt>
      <trkpt lat="46.39559" lon="5.06296">
        <ele>217.80000305176</ele>
        <time>2020-10-24T12:06:52.000Z</time>
      </trkpt>
      <trkpt lat="46.39547" lon="5.06294">
        <ele>218</ele>
        <time>2020-10-24T12:06:54.000Z</time>
      </trkpt>
      <trkpt lat="46.39535" lon="5.06293">
        <ele>218</ele>
        <time>2020-10-24T12:06:56.000Z</time>
      </trkpt>
      <trkpt lat="46.39522" lon="5.06293">
        <ele>218.19999694824</ele>
        <time>2020-10-24T12:06:58.000Z</time>
      </trkpt>
      <trkpt lat="46.3951" lon="5.06294">
        <ele>218.19999694824</ele>
        <time>2020-10-24T12:07:00.000Z</time>
      </trkpt>
      <trkpt lat="46.39497" lon="5.06294">
        <ele>218.39999389648</ele>
        <time>2020-10-24T12:07:02.000Z</time>
      </trkpt>
      <trkpt lat="46.39484" lon="5.06293">
        <ele>218.39999389648</ele>
        <time>2020-10-24T12:07:04.000Z</time>
      </trkpt>
      <trkpt lat="46.39471" lon="5.06292">
        <ele>218.39999389648</ele>
        <time>2020-10-24T12:07:06.000Z</time>
      </trkpt>
      <trkpt lat="46.39458" lon="5.06292">
        <ele>218.39999389648</ele>
        <time>2020-10-24T12:07:08.000Z</time>
      </trkpt>
      <trkpt lat="46.39451" lon="5.06291">
        <ele>218.39999389648</ele>
        <time>2020-10-24T12:07:09.000Z</time>
      </trkpt>
      <trkpt lat="46.39444" lon="5.06291">
        <ele>218.39999389648</ele>
        <time>2020-10-24T12:07:10.000Z</time>
      </trkpt>
      <trkpt lat="46.39429" lon="5.06292">
        <ele>218.39999389648</ele>
        <time>2020-10-24T12:07:12.000Z</time>
      </trkpt>
      <trkpt lat="46.39414" lon="5.06293">
        <ele>218.19999694824</ele>
        <time>2020-10-24T12:07:14.000Z</time>
      </trkpt>
      <trkpt lat="46.394" lon="5.06295">
        <ele>218</ele>
        <time>2020-10-24T12:07:16.000Z</time>
      </trkpt>
      <trkpt lat="46.39385" lon="5.06298">
        <ele>217.80000305176</ele>
        <time>2020-10-24T12:07:18.000Z</time>
      </trkpt>
      <trkpt lat="46.3937" lon="5.06301">
        <ele>217.60000610352</ele>
        <time>2020-10-24T12:07:20.000Z</time>
      </trkpt>
      <trkpt lat="46.39355" lon="5.06306">
        <ele>217</ele>
        <time>2020-10-24T12:07:22.000Z</time>
      </trkpt>
      <trkpt lat="46.39348" lon="5.06309">
        <ele>216.80000305176</ele>
        <time>2020-10-24T12:07:23.000Z</time>
      </trkpt>
      <trkpt lat="46.39341" lon="5.06311">
        <ele>216.80000305176</ele>
        <time>2020-10-24T12:07:24.000Z</time>
      </trkpt>
      <trkpt lat="46.39326" lon="5.06313">
        <ele>216.60000610352</ele>
        <time>2020-10-24T12:07:26.000Z</time>
      </trkpt>
      <trkpt lat="46.39311" lon="5.06317">
        <ele>216.60000610352</ele>
        <time>2020-10-24T12:07:28.000Z</time>
      </trkpt>
      <trkpt lat="46.39295" lon="5.0632">
        <ele>216.39999389648</ele>
        <time>2020-10-24T12:07:30.000Z</time>
      </trkpt>
      <trkpt lat="46.39287" lon="5.06321">
        <ele>216.39999389648</ele>
        <time>2020-10-24T12:07:31.000Z</time>
      </trkpt>
      <trkpt lat="46.39279" lon="5.06322">
        <ele>216.39999389648</ele>
        <time>2020-10-24T12:07:32.000Z</time>
      </trkpt>
      <trkpt lat="46.39264" lon="5.06325">
        <ele>216.39999389648</ele>
        <time>2020-10-24T12:07:34.000Z</time>
      </trkpt>
      <trkpt lat="46.39248" lon="5.06327">
        <ele>216.39999389648</ele>
        <time>2020-10-24T12:07:36.000Z</time>
      </trkpt>
      <trkpt lat="46.39232" lon="5.06327">
        <ele>216.19999694824</ele>
        <time>2020-10-24T12:07:38.000Z</time>
      </trkpt>
      <trkpt lat="46.39217" lon="5.06327">
        <ele>216</ele>
        <time>2020-10-24T12:07:40.000Z</time>
      </trkpt>
      <trkpt lat="46.39201" lon="5.06326">
        <ele>215.80000305176</ele>
        <time>2020-10-24T12:07:42.000Z</time>
      </trkpt>
      <trkpt lat="46.39194" lon="5.06325">
        <ele>215.80000305176</ele>
        <time>2020-10-24T12:07:43.000Z</time>
      </trkpt>
      <trkpt lat="46.39186" lon="5.06324">
        <ele>215.60000610352</ele>
        <time>2020-10-24T12:07:44.000Z</time>
      </trkpt>
      <trkpt lat="46.39172" lon="5.0632">
        <ele>215.60000610352</ele>
        <time>2020-10-24T12:07:46.000Z</time>
      </trkpt>
      <trkpt lat="46.39158" lon="5.06316">
        <ele>215.39999389648</ele>
        <time>2020-10-24T12:07:48.000Z</time>
      </trkpt>
      <trkpt lat="46.39144" lon="5.06312">
        <ele>215.19999694824</ele>
        <time>2020-10-24T12:07:50.000Z</time>
      </trkpt>
      <trkpt lat="46.3913" lon="5.06309">
        <ele>215</ele>
        <time>2020-10-24T12:07:52.000Z</time>
      </trkpt>
      <trkpt lat="46.39116" lon="5.06304">
        <ele>214.80000305176</ele>
        <time>2020-10-24T12:07:54.000Z</time>
      </trkpt>
      <trkpt lat="46.39102" lon="5.06299">
        <ele>214.80000305176</ele>
        <time>2020-10-24T12:07:56.000Z</time>
      </trkpt>
      <trkpt lat="46.39088" lon="5.06294">
        <ele>214.60000610352</ele>
        <time>2020-10-24T12:07:58.000Z</time>
      </trkpt>
      <trkpt lat="46.39081" lon="5.0629">
        <ele>214.60000610352</ele>
        <time>2020-10-24T12:07:59.000Z</time>
      </trkpt>
      <trkpt lat="46.39074" lon="5.06286">
        <ele>214.60000610352</ele>
        <time>2020-10-24T12:08:00.000Z</time>
      </trkpt>
      <trkpt lat="46.39061" lon="5.06279">
        <ele>214.60000610352</ele>
        <time>2020-10-24T12:08:02.000Z</time>
      </trkpt>
      <trkpt lat="46.39047" lon="5.06271">
        <ele>214.60000610352</ele>
        <time>2020-10-24T12:08:04.000Z</time>
      </trkpt>
      <trkpt lat="46.39034" lon="5.06264">
        <ele>214.80000305176</ele>
        <time>2020-10-24T12:08:06.000Z</time>
      </trkpt>
      <trkpt lat="46.39021" lon="5.06256">
        <ele>214.80000305176</ele>
        <time>2020-10-24T12:08:08.000Z</time>
      </trkpt>
      <trkpt lat="46.39007" lon="5.06249">
        <ele>214.80000305176</ele>
        <time>2020-10-24T12:08:10.000Z</time>
      </trkpt>
      <trkpt lat="46.39001" lon="5.06245">
        <ele>214.80000305176</ele>
        <time>2020-10-24T12:08:11.000Z</time>
      </trkpt>
      <trkpt lat="46.38994" lon="5.06241">
        <ele>214.80000305176</ele>
        <time>2020-10-24T12:08:12.000Z</time>
      </trkpt>
      <trkpt lat="46.3898" lon="5.06234">
        <ele>215</ele>
        <time>2020-10-24T12:08:14.000Z</time>
      </trkpt>
      <trkpt lat="46.38968" lon="5.06225">
        <ele>215</ele>
        <time>2020-10-24T12:08:16.000Z</time>
      </trkpt>
      <trkpt lat="46.38955" lon="5.06216">
        <ele>215.19999694824</ele>
        <time>2020-10-24T12:08:18.000Z</time>
      </trkpt>
      <trkpt lat="46.38943" lon="5.06206">
        <ele>215.39999389648</ele>
        <time>2020-10-24T12:08:20.000Z</time>
      </trkpt>
      <trkpt lat="46.38931" lon="5.06195">
        <ele>215.80000305176</ele>
        <time>2020-10-24T12:08:22.000Z</time>
      </trkpt>
      <trkpt lat="46.3892" lon="5.06183">
        <ele>216</ele>
        <time>2020-10-24T12:08:24.000Z</time>
      </trkpt>
      <trkpt lat="46.38908" lon="5.06171">
        <ele>216.19999694824</ele>
        <time>2020-10-24T12:08:26.000Z</time>
      </trkpt>
      <trkpt lat="46.38897" lon="5.0616">
        <ele>216.19999694824</ele>
        <time>2020-10-24T12:08:28.000Z</time>
      </trkpt>
      <trkpt lat="46.38891" lon="5.06154">
        <ele>216.19999694824</ele>
        <time>2020-10-24T12:08:29.000Z</time>
      </trkpt>
      <trkpt lat="46.38886" lon="5.06148">
        <ele>216.19999694824</ele>
        <time>2020-10-24T12:08:30.000Z</time>
      </trkpt>
      <trkpt lat="46.38875" lon="5.06136">
        <ele>216.39999389648</ele>
        <time>2020-10-24T12:08:32.000Z</time>
      </trkpt>
      <trkpt lat="46.38863" lon="5.06125">
        <ele>216.39999389648</ele>
        <time>2020-10-24T12:08:34.000Z</time>
      </trkpt>
      <trkpt lat="46.38852" lon="5.06113">
        <ele>216.39999389648</ele>
        <time>2020-10-24T12:08:36.000Z</time>
      </trkpt>
      <trkpt lat="46.3884" lon="5.06101">
        <ele>216.60000610352</ele>
        <time>2020-10-24T12:08:38.000Z</time>
      </trkpt>
      <trkpt lat="46.38828" lon="5.0609">
        <ele>216.80000305176</ele>
        <time>2020-10-24T12:08:40.000Z</time>
      </trkpt>
      <trkpt lat="46.38815" lon="5.06079">
        <ele>217</ele>
        <time>2020-10-24T12:08:42.000Z</time>
      </trkpt>
      <trkpt lat="46.38801" lon="5.0607">
        <ele>217</ele>
        <time>2020-10-24T12:08:44.000Z</time>
      </trkpt>
      <trkpt lat="46.38787" lon="5.06061">
        <ele>217</ele>
        <time>2020-10-24T12:08:46.000Z</time>
      </trkpt>
      <trkpt lat="46.38773" lon="5.06052">
        <ele>217</ele>
        <time>2020-10-24T12:08:48.000Z</time>
      </trkpt>
      <trkpt lat="46.38759" lon="5.06044">
        <ele>217</ele>
        <time>2020-10-24T12:08:50.000Z</time>
      </trkpt>
      <trkpt lat="46.38751" lon="5.0604">
        <ele>216.80000305176</ele>
        <time>2020-10-24T12:08:51.000Z</time>
      </trkpt>
      <trkpt lat="46.38744" lon="5.06036">
        <ele>216.80000305176</ele>
        <time>2020-10-24T12:08:52.000Z</time>
      </trkpt>
      <trkpt lat="46.38729" lon="5.06028">
        <ele>216.60000610352</ele>
        <time>2020-10-24T12:08:54.000Z</time>
      </trkpt>
      <trkpt lat="46.38715" lon="5.06021">
        <ele>216.19999694824</ele>
        <time>2020-10-24T12:08:56.000Z</time>
      </trkpt>
      <trkpt lat="46.38701" lon="5.06015">
        <ele>216.19999694824</ele>
        <time>2020-10-24T12:08:58.000Z</time>
      </trkpt>
      <trkpt lat="46.38694" lon="5.06012">
        <ele>216.19999694824</ele>
        <time>2020-10-24T12:08:59.000Z</time>
      </trkpt>
      <trkpt lat="46.38688" lon="5.06009">
        <ele>216.19999694824</ele>
        <time>2020-10-24T12:09:00.000Z</time>
      </trkpt>
      <trkpt lat="46.38674" lon="5.06005">
        <ele>216.19999694824</ele>
        <time>2020-10-24T12:09:02.000Z</time>
      </trkpt>
      <trkpt lat="46.38661" lon="5.06001">
        <ele>216.19999694824</ele>
        <time>2020-10-24T12:09:04.000Z</time>
      </trkpt>
      <trkpt lat="46.38648" lon="5.05992">
        <ele>216.19999694824</ele>
        <time>2020-10-24T12:09:06.000Z</time>
      </trkpt>
      <trkpt lat="46.38642" lon="5.05989">
        <ele>216.39999389648</ele>
        <time>2020-10-24T12:09:07.000Z</time>
      </trkpt>
      <trkpt lat="46.38635" lon="5.05985">
        <ele>216.39999389648</ele>
        <time>2020-10-24T12:09:08.000Z</time>
      </trkpt>
      <trkpt lat="46.38629" lon="5.05981">
        <ele>216.39999389648</ele>
        <time>2020-10-24T12:09:09.000Z</time>
      </trkpt>
      <trkpt lat="46.38622" lon="5.05978">
        <ele>216.39999389648</ele>
        <time>2020-10-24T12:09:10.000Z</time>
      </trkpt>
      <trkpt lat="46.38609" lon="5.05969">
        <ele>216.60000610352</ele>
        <time>2020-10-24T12:09:12.000Z</time>
      </trkpt>
      <trkpt lat="46.38596" lon="5.0596">
        <ele>216.60000610352</ele>
        <time>2020-10-24T12:09:14.000Z</time>
      </trkpt>
      <trkpt lat="46.38582" lon="5.0595">
        <ele>216.60000610352</ele>
        <time>2020-10-24T12:09:16.000Z</time>
      </trkpt>
      <trkpt lat="46.38576" lon="5.05945">
        <ele>216.60000610352</ele>
        <time>2020-10-24T12:09:17.000Z</time>
      </trkpt>
      <trkpt lat="46.38569" lon="5.05939">
        <ele>216.60000610352</ele>
        <time>2020-10-24T12:09:18.000Z</time>
      </trkpt>
      <trkpt lat="46.38556" lon="5.05926">
        <ele>216.39999389648</ele>
        <time>2020-10-24T12:09:20.000Z</time>
      </trkpt>
      <trkpt lat="46.38544" lon="5.05913">
        <ele>216.39999389648</ele>
        <time>2020-10-24T12:09:22.000Z</time>
      </trkpt>
      <trkpt lat="46.38532" lon="5.05899">
        <ele>215.60000610352</ele>
        <time>2020-10-24T12:09:24.000Z</time>
      </trkpt>
      <trkpt lat="46.38526" lon="5.05892">
        <ele>215.39999389648</ele>
        <time>2020-10-24T12:09:25.000Z</time>
      </trkpt>
      <trkpt lat="46.3852" lon="5.05886">
        <ele>215.19999694824</ele>
        <time>2020-10-24T12:09:26.000Z</time>
      </trkpt>
      <trkpt lat="46.38508" lon="5.05873">
        <ele>215.19999694824</ele>
        <time>2020-10-24T12:09:28.000Z</time>
      </trkpt>
      <trkpt lat="46.38496" lon="5.05861">
        <ele>215.19999694824</ele>
        <time>2020-10-24T12:09:30.000Z</time>
      </trkpt>
      <trkpt lat="46.38484" lon="5.05849">
        <ele>215.19999694824</ele>
        <time>2020-10-24T12:09:32.000Z</time>
      </trkpt>
      <trkpt lat="46.38478" lon="5.05843">
        <ele>215.19999694824</ele>
        <time>2020-10-24T12:09:33.000Z</time>
      </trkpt>
      <trkpt lat="46.38471" lon="5.05838">
        <ele>215.19999694824</ele>
        <time>2020-10-24T12:09:34.000Z</time>
      </trkpt>
      <trkpt lat="46.38459" lon="5.05825">
        <ele>215.19999694824</ele>
        <time>2020-10-24T12:09:36.000Z</time>
      </trkpt>
      <trkpt lat="46.38448" lon="5.05812">
        <ele>215.19999694824</ele>
        <time>2020-10-24T12:09:38.000Z</time>
      </trkpt>
      <trkpt lat="46.38443" lon="5.05805">
        <ele>215.19999694824</ele>
        <time>2020-10-24T12:09:39.000Z</time>
      </trkpt>
      <trkpt lat="46.38438" lon="5.05797">
        <ele>215.19999694824</ele>
        <time>2020-10-24T12:09:40.000Z</time>
      </trkpt>
      <trkpt lat="46.38429" lon="5.05781">
        <ele>215.39999389648</ele>
        <time>2020-10-24T12:09:42.000Z</time>
      </trkpt>
      <trkpt lat="46.38422" lon="5.05764">
        <ele>215.39999389648</ele>
        <time>2020-10-24T12:09:44.000Z</time>
      </trkpt>
      <trkpt lat="46.38416" lon="5.05746">
        <ele>215.39999389648</ele>
        <time>2020-10-24T12:09:46.000Z</time>
      </trkpt>
      <trkpt lat="46.38411" lon="5.05728">
        <ele>215.39999389648</ele>
        <time>2020-10-24T12:09:48.000Z</time>
      </trkpt>
      <trkpt lat="46.38404" lon="5.05711">
        <ele>215.80000305176</ele>
        <time>2020-10-24T12:09:50.000Z</time>
      </trkpt>
      <trkpt lat="46.38397" lon="5.05696">
        <ele>216.19999694824</ele>
        <time>2020-10-24T12:09:52.000Z</time>
      </trkpt>
      <trkpt lat="46.38388" lon="5.05682">
        <ele>216.60000610352</ele>
        <time>2020-10-24T12:09:54.000Z</time>
      </trkpt>
      <trkpt lat="46.38384" lon="5.05675">
        <ele>217</ele>
        <time>2020-10-24T12:09:55.000Z</time>
      </trkpt>
      <trkpt lat="46.38379" lon="5.05668">
        <ele>217.19999694824</ele>
        <time>2020-10-24T12:09:56.000Z</time>
      </trkpt>
      <trkpt lat="46.38371" lon="5.05654">
        <ele>217.39999389648</ele>
        <time>2020-10-24T12:09:58.000Z</time>
      </trkpt>
      <trkpt lat="46.38361" lon="5.05639">
        <ele>217.80000305176</ele>
        <time>2020-10-24T12:10:00.000Z</time>
      </trkpt>
      <trkpt lat="46.38352" lon="5.05625">
        <ele>218.39999389648</ele>
        <time>2020-10-24T12:10:02.000Z</time>
      </trkpt>
      <trkpt lat="46.38343" lon="5.0561">
        <ele>219</ele>
        <time>2020-10-24T12:10:04.000Z</time>
      </trkpt>
      <trkpt lat="46.38335" lon="5.05594">
        <ele>219.19999694824</ele>
        <time>2020-10-24T12:10:06.000Z</time>
      </trkpt>
      <trkpt lat="46.38327" lon="5.05578">
        <ele>219.19999694824</ele>
        <time>2020-10-24T12:10:08.000Z</time>
      </trkpt>
      <trkpt lat="46.3832" lon="5.05562">
        <ele>219.19999694824</ele>
        <time>2020-10-24T12:10:10.000Z</time>
      </trkpt>
      <trkpt lat="46.38316" lon="5.05554">
        <ele>219.19999694824</ele>
        <time>2020-10-24T12:10:11.000Z</time>
      </trkpt>
      <trkpt lat="46.38313" lon="5.05546">
        <ele>219.19999694824</ele>
        <time>2020-10-24T12:10:12.000Z</time>
      </trkpt>
      <trkpt lat="46.38305" lon="5.0553">
        <ele>219.19999694824</ele>
        <time>2020-10-24T12:10:14.000Z</time>
      </trkpt>
      <trkpt lat="46.38298" lon="5.05515">
        <ele>219.39999389648</ele>
        <time>2020-10-24T12:10:16.000Z</time>
      </trkpt>
      <trkpt lat="46.38291" lon="5.05499">
        <ele>219.39999389648</ele>
        <time>2020-10-24T12:10:18.000Z</time>
      </trkpt>
      <trkpt lat="46.38287" lon="5.05491">
        <ele>219.39999389648</ele>
        <time>2020-10-24T12:10:19.000Z</time>
      </trkpt>
      <trkpt lat="46.38283" lon="5.05483">
        <ele>219.39999389648</ele>
        <time>2020-10-24T12:10:20.000Z</time>
      </trkpt>
      <trkpt lat="46.38276" lon="5.05468">
        <ele>219.39999389648</ele>
        <time>2020-10-24T12:10:22.000Z</time>
      </trkpt>
      <trkpt lat="46.38268" lon="5.05453">
        <ele>219.39999389648</ele>
        <time>2020-10-24T12:10:24.000Z</time>
      </trkpt>
      <trkpt lat="46.3826" lon="5.05438">
        <ele>219.60000610352</ele>
        <time>2020-10-24T12:10:26.000Z</time>
      </trkpt>
      <trkpt lat="46.38253" lon="5.05423">
        <ele>219.60000610352</ele>
        <time>2020-10-24T12:10:28.000Z</time>
      </trkpt>
      <trkpt lat="46.38245" lon="5.05409">
        <ele>219.80000305176</ele>
        <time>2020-10-24T12:10:30.000Z</time>
      </trkpt>
      <trkpt lat="46.38237" lon="5.05394">
        <ele>219.80000305176</ele>
        <time>2020-10-24T12:10:32.000Z</time>
      </trkpt>
      <trkpt lat="46.38229" lon="5.0538">
        <ele>219.80000305176</ele>
        <time>2020-10-24T12:10:34.000Z</time>
      </trkpt>
      <trkpt lat="46.38221" lon="5.05365">
        <ele>219.80000305176</ele>
        <time>2020-10-24T12:10:36.000Z</time>
      </trkpt>
      <trkpt lat="46.38213" lon="5.0535">
        <ele>220</ele>
        <time>2020-10-24T12:10:38.000Z</time>
      </trkpt>
      <trkpt lat="46.3821" lon="5.05343">
        <ele>220</ele>
        <time>2020-10-24T12:10:39.000Z</time>
      </trkpt>
      <trkpt lat="46.38205" lon="5.05335">
        <ele>220</ele>
        <time>2020-10-24T12:10:40.000Z</time>
      </trkpt>
      <trkpt lat="46.38197" lon="5.0532">
        <ele>220.19999694824</ele>
        <time>2020-10-24T12:10:42.000Z</time>
      </trkpt>
      <trkpt lat="46.38188" lon="5.05304">
        <ele>220.39999389648</ele>
        <time>2020-10-24T12:10:44.000Z</time>
      </trkpt>
      <trkpt lat="46.3818" lon="5.05288">
        <ele>220.39999389648</ele>
        <time>2020-10-24T12:10:46.000Z</time>
      </trkpt>
      <trkpt lat="46.3817" lon="5.05272">
        <ele>220.39999389648</ele>
        <time>2020-10-24T12:10:48.000Z</time>
      </trkpt>
      <trkpt lat="46.38161" lon="5.05256">
        <ele>220.19999694824</ele>
        <time>2020-10-24T12:10:50.000Z</time>
      </trkpt>
      <trkpt lat="46.38152" lon="5.05239">
        <ele>220.19999694824</ele>
        <time>2020-10-24T12:10:52.000Z</time>
      </trkpt>
      <trkpt lat="46.38143" lon="5.05222">
        <ele>220</ele>
        <time>2020-10-24T12:10:54.000Z</time>
      </trkpt>
      <trkpt lat="46.38134" lon="5.05205">
        <ele>220</ele>
        <time>2020-10-24T12:10:56.000Z</time>
      </trkpt>
      <trkpt lat="46.38126" lon="5.05187">
        <ele>220</ele>
        <time>2020-10-24T12:10:58.000Z</time>
      </trkpt>
      <trkpt lat="46.38118" lon="5.05168">
        <ele>219.80000305176</ele>
        <time>2020-10-24T12:11:00.000Z</time>
      </trkpt>
      <trkpt lat="46.3811" lon="5.05148">
        <ele>219.80000305176</ele>
        <time>2020-10-24T12:11:02.000Z</time>
      </trkpt>
      <trkpt lat="46.38102" lon="5.0513">
        <ele>219.80000305176</ele>
        <time>2020-10-24T12:11:04.000Z</time>
      </trkpt>
      <trkpt lat="46.38093" lon="5.05114">
        <ele>219.80000305176</ele>
        <time>2020-10-24T12:11:06.000Z</time>
      </trkpt>
      <trkpt lat="46.38088" lon="5.05106">
        <ele>219.80000305176</ele>
        <time>2020-10-24T12:11:07.000Z</time>
      </trkpt>
      <trkpt lat="46.38082" lon="5.051">
        <ele>219.60000610352</ele>
        <time>2020-10-24T12:11:08.000Z</time>
      </trkpt>
      <trkpt lat="46.38069" lon="5.05092">
        <ele>219.39999389648</ele>
        <time>2020-10-24T12:11:10.000Z</time>
      </trkpt>
      <trkpt lat="46.38054" lon="5.05086">
        <ele>219</ele>
        <time>2020-10-24T12:11:12.000Z</time>
      </trkpt>
      <trkpt lat="46.38039" lon="5.05081">
        <ele>218.80000305176</ele>
        <time>2020-10-24T12:11:14.000Z</time>
      </trkpt>
      <trkpt lat="46.38024" lon="5.05077">
        <ele>218.60000610352</ele>
        <time>2020-10-24T12:11:16.000Z</time>
      </trkpt>
      <trkpt lat="46.38017" lon="5.05074">
        <ele>218.60000610352</ele>
        <time>2020-10-24T12:11:17.000Z</time>
      </trkpt>
      <trkpt lat="46.3801" lon="5.05072">
        <ele>218.39999389648</ele>
        <time>2020-10-24T12:11:18.000Z</time>
      </trkpt>
      <trkpt lat="46.37997" lon="5.05065">
        <ele>218.19999694824</ele>
        <time>2020-10-24T12:11:20.000Z</time>
      </trkpt>
      <trkpt lat="46.3799" lon="5.05061">
        <ele>218</ele>
        <time>2020-10-24T12:11:21.000Z</time>
      </trkpt>
      <trkpt lat="46.37984" lon="5.05057">
        <ele>217.80000305176</ele>
        <time>2020-10-24T12:11:22.000Z</time>
      </trkpt>
      <trkpt lat="46.37977" lon="5.05052">
        <ele>217.80000305176</ele>
        <time>2020-10-24T12:11:23.000Z</time>
      </trkpt>
      <trkpt lat="46.3797" lon="5.05047">
        <ele>217.60000610352</ele>
        <time>2020-10-24T12:11:24.000Z</time>
      </trkpt>
      <trkpt lat="46.37956" lon="5.05036">
        <ele>217.19999694824</ele>
        <time>2020-10-24T12:11:26.000Z</time>
      </trkpt>
      <trkpt lat="46.37942" lon="5.05024">
        <ele>217</ele>
        <time>2020-10-24T12:11:28.000Z</time>
      </trkpt>
      <trkpt lat="46.37935" lon="5.05018">
        <ele>216.80000305176</ele>
        <time>2020-10-24T12:11:29.000Z</time>
      </trkpt>
      <trkpt lat="46.37928" lon="5.05013">
        <ele>216.80000305176</ele>
        <time>2020-10-24T12:11:30.000Z</time>
      </trkpt>
      <trkpt lat="46.37915" lon="5.05001">
        <ele>216.80000305176</ele>
        <time>2020-10-24T12:11:32.000Z</time>
      </trkpt>
      <trkpt lat="46.37902" lon="5.04989">
        <ele>216.80000305176</ele>
        <time>2020-10-24T12:11:34.000Z</time>
      </trkpt>
      <trkpt lat="46.37889" lon="5.04978">
        <ele>216.80000305176</ele>
        <time>2020-10-24T12:11:36.000Z</time>
      </trkpt>
      <trkpt lat="46.37876" lon="5.04968">
        <ele>216.80000305176</ele>
        <time>2020-10-24T12:11:38.000Z</time>
      </trkpt>
      <trkpt lat="46.37863" lon="5.04959">
        <ele>216.80000305176</ele>
        <time>2020-10-24T12:11:40.000Z</time>
      </trkpt>
      <trkpt lat="46.3785" lon="5.04951">
        <ele>217</ele>
        <time>2020-10-24T12:11:42.000Z</time>
      </trkpt>
      <trkpt lat="46.37843" lon="5.04947">
        <ele>217</ele>
        <time>2020-10-24T12:11:43.000Z</time>
      </trkpt>
      <trkpt lat="46.37837" lon="5.04943">
        <ele>217.19999694824</ele>
        <time>2020-10-24T12:11:44.000Z</time>
      </trkpt>
      <trkpt lat="46.37824" lon="5.04935">
        <ele>217.19999694824</ele>
        <time>2020-10-24T12:11:46.000Z</time>
      </trkpt>
      <trkpt lat="46.37811" lon="5.04927">
        <ele>217.39999389648</ele>
        <time>2020-10-24T12:11:48.000Z</time>
      </trkpt>
      <trkpt lat="46.37799" lon="5.0492">
        <ele>217.60000610352</ele>
        <time>2020-10-24T12:11:50.000Z</time>
      </trkpt>
      <trkpt lat="46.37787" lon="5.04913">
        <ele>217.80000305176</ele>
        <time>2020-10-24T12:11:52.000Z</time>
      </trkpt>
      <trkpt lat="46.37776" lon="5.04906">
        <ele>218.19999694824</ele>
        <time>2020-10-24T12:11:54.000Z</time>
      </trkpt>
      <trkpt lat="46.37765" lon="5.04899">
        <ele>218.39999389648</ele>
        <time>2020-10-24T12:11:56.000Z</time>
      </trkpt>
      <trkpt lat="46.37754" lon="5.04893">
        <ele>218.80000305176</ele>
        <time>2020-10-24T12:11:58.000Z</time>
      </trkpt>
      <trkpt lat="46.37748" lon="5.04889">
        <ele>218.80000305176</ele>
        <time>2020-10-24T12:11:59.000Z</time>
      </trkpt>
      <trkpt lat="46.37743" lon="5.04886">
        <ele>219.19999694824</ele>
        <time>2020-10-24T12:12:00.000Z</time>
      </trkpt>
      <trkpt lat="46.37732" lon="5.0488">
        <ele>219.39999389648</ele>
        <time>2020-10-24T12:12:02.000Z</time>
      </trkpt>
      <trkpt lat="46.37726" lon="5.04877">
        <ele>219.39999389648</ele>
        <time>2020-10-24T12:12:03.000Z</time>
      </trkpt>
      <trkpt lat="46.37721" lon="5.04873">
        <ele>219.80000305176</ele>
        <time>2020-10-24T12:12:04.000Z</time>
      </trkpt>
      <trkpt lat="46.37716" lon="5.04869">
        <ele>220.39999389648</ele>
        <time>2020-10-24T12:12:05.000Z</time>
      </trkpt>
      <trkpt lat="46.3771" lon="5.04866">
        <ele>220.80000305176</ele>
        <time>2020-10-24T12:12:06.000Z</time>
      </trkpt>
      <trkpt lat="46.37705" lon="5.04862">
        <ele>221</ele>
        <time>2020-10-24T12:12:07.000Z</time>
      </trkpt>
      <trkpt lat="46.37699" lon="5.04859">
        <ele>221.19999694824</ele>
        <time>2020-10-24T12:12:08.000Z</time>
      </trkpt>
      <trkpt lat="46.37693" lon="5.04855">
        <ele>221.39999389648</ele>
        <time>2020-10-24T12:12:09.000Z</time>
      </trkpt>
      <trkpt lat="46.37687" lon="5.04851">
        <ele>221.39999389648</ele>
        <time>2020-10-24T12:12:10.000Z</time>
      </trkpt>
      <trkpt lat="46.37675" lon="5.04846">
        <ele>221.60000610352</ele>
        <time>2020-10-24T12:12:12.000Z</time>
      </trkpt>
      <trkpt lat="46.37668" lon="5.04843">
        <ele>221.60000610352</ele>
        <time>2020-10-24T12:12:13.000Z</time>
      </trkpt>
      <trkpt lat="46.37662" lon="5.04841">
        <ele>221.60000610352</ele>
        <time>2020-10-24T12:12:14.000Z</time>
      </trkpt>
      <trkpt lat="46.37651" lon="5.04837">
        <ele>221.60000610352</ele>
        <time>2020-10-24T12:12:16.000Z</time>
      </trkpt>
      <trkpt lat="46.37639" lon="5.04831">
        <ele>221.80000305176</ele>
        <time>2020-10-24T12:12:18.000Z</time>
      </trkpt>
      <trkpt lat="46.37634" lon="5.04829">
        <ele>221.80000305176</ele>
        <time>2020-10-24T12:12:19.000Z</time>
      </trkpt>
      <trkpt lat="46.37628" lon="5.04827">
        <ele>221.80000305176</ele>
        <time>2020-10-24T12:12:20.000Z</time>
      </trkpt>
      <trkpt lat="46.37622" lon="5.04825">
        <ele>221.80000305176</ele>
        <time>2020-10-24T12:12:21.000Z</time>
      </trkpt>
      <trkpt lat="46.37616" lon="5.04822">
        <ele>221.80000305176</ele>
        <time>2020-10-24T12:12:22.000Z</time>
      </trkpt>
      <trkpt lat="46.37605" lon="5.04815">
        <ele>221.60000610352</ele>
        <time>2020-10-24T12:12:24.000Z</time>
      </trkpt>
      <trkpt lat="46.37599" lon="5.04812">
        <ele>221.60000610352</ele>
        <time>2020-10-24T12:12:25.000Z</time>
      </trkpt>
      <trkpt lat="46.37593" lon="5.04808">
        <ele>221.60000610352</ele>
        <time>2020-10-24T12:12:26.000Z</time>
      </trkpt>
      <trkpt lat="46.37581" lon="5.04801">
        <ele>221.39999389648</ele>
        <time>2020-10-24T12:12:28.000Z</time>
      </trkpt>
      <trkpt lat="46.37569" lon="5.04793">
        <ele>221.39999389648</ele>
        <time>2020-10-24T12:12:30.000Z</time>
      </trkpt>
      <trkpt lat="46.37556" lon="5.04786">
        <ele>221.60000610352</ele>
        <time>2020-10-24T12:12:32.000Z</time>
      </trkpt>
      <trkpt lat="46.37543" lon="5.0478">
        <ele>221.39999389648</ele>
        <time>2020-10-24T12:12:34.000Z</time>
      </trkpt>
      <trkpt lat="46.37537" lon="5.04776">
        <ele>221.60000610352</ele>
        <time>2020-10-24T12:12:35.000Z</time>
      </trkpt>
      <trkpt lat="46.37531" lon="5.04773">
        <ele>221.60000610352</ele>
        <time>2020-10-24T12:12:36.000Z</time>
      </trkpt>
      <trkpt lat="46.37518" lon="5.04766">
        <ele>221.60000610352</ele>
        <time>2020-10-24T12:12:38.000Z</time>
      </trkpt>
      <trkpt lat="46.37512" lon="5.04763">
        <ele>221.60000610352</ele>
        <time>2020-10-24T12:12:39.000Z</time>
      </trkpt>
      <trkpt lat="46.37506" lon="5.04758">
        <ele>221.60000610352</ele>
        <time>2020-10-24T12:12:40.000Z</time>
      </trkpt>
      <trkpt lat="46.37501" lon="5.04752">
        <ele>221.60000610352</ele>
        <time>2020-10-24T12:12:41.000Z</time>
      </trkpt>
      <trkpt lat="46.37496" lon="5.04746">
        <ele>221.60000610352</ele>
        <time>2020-10-24T12:12:42.000Z</time>
      </trkpt>
      <trkpt lat="46.3749" lon="5.04729">
        <ele>221.60000610352</ele>
        <time>2020-10-24T12:12:44.000Z</time>
      </trkpt>
      <trkpt lat="46.37488" lon="5.04721">
        <ele>221.60000610352</ele>
        <time>2020-10-24T12:12:45.000Z</time>
      </trkpt>
      <trkpt lat="46.37486" lon="5.04712">
        <ele>221.60000610352</ele>
        <time>2020-10-24T12:12:46.000Z</time>
      </trkpt>
      <trkpt lat="46.3748" lon="5.04696">
        <ele>221.60000610352</ele>
        <time>2020-10-24T12:12:48.000Z</time>
      </trkpt>
      <trkpt lat="46.37476" lon="5.04689">
        <ele>221.60000610352</ele>
        <time>2020-10-24T12:12:49.000Z</time>
      </trkpt>
      <trkpt lat="46.37471" lon="5.04683">
        <ele>221.80000305176</ele>
        <time>2020-10-24T12:12:50.000Z</time>
      </trkpt>
      <trkpt lat="46.37461" lon="5.04674">
        <ele>222</ele>
        <time>2020-10-24T12:12:52.000Z</time>
      </trkpt>
      <trkpt lat="46.37455" lon="5.0467">
        <ele>222.19999694824</ele>
        <time>2020-10-24T12:12:53.000Z</time>
      </trkpt>
      <trkpt lat="46.37448" lon="5.04668">
        <ele>222.39999389648</ele>
        <time>2020-10-24T12:12:54.000Z</time>
      </trkpt>
      <trkpt lat="46.37435" lon="5.04663">
        <ele>222.60000610352</ele>
        <time>2020-10-24T12:12:56.000Z</time>
      </trkpt>
      <trkpt lat="46.37421" lon="5.04658">
        <ele>222.60000610352</ele>
        <time>2020-10-24T12:12:58.000Z</time>
      </trkpt>
      <trkpt lat="46.37408" lon="5.04653">
        <ele>222.60000610352</ele>
        <time>2020-10-24T12:13:00.000Z</time>
      </trkpt>
      <trkpt lat="46.37394" lon="5.04648">
        <ele>222.39999389648</ele>
        <time>2020-10-24T12:13:02.000Z</time>
      </trkpt>
      <trkpt lat="46.3738" lon="5.04642">
        <ele>222.39999389648</ele>
        <time>2020-10-24T12:13:04.000Z</time>
      </trkpt>
      <trkpt lat="46.37367" lon="5.04635">
        <ele>222.19999694824</ele>
        <time>2020-10-24T12:13:06.000Z</time>
      </trkpt>
      <trkpt lat="46.3736" lon="5.04631">
        <ele>222.19999694824</ele>
        <time>2020-10-24T12:13:07.000Z</time>
      </trkpt>
      <trkpt lat="46.37354" lon="5.04627">
        <ele>222.19999694824</ele>
        <time>2020-10-24T12:13:08.000Z</time>
      </trkpt>
      <trkpt lat="46.37342" lon="5.04618">
        <ele>222</ele>
        <time>2020-10-24T12:13:10.000Z</time>
      </trkpt>
      <trkpt lat="46.3733" lon="5.04609">
        <ele>222</ele>
        <time>2020-10-24T12:13:12.000Z</time>
      </trkpt>
      <trkpt lat="46.37318" lon="5.046">
        <ele>222</ele>
        <time>2020-10-24T12:13:14.000Z</time>
      </trkpt>
      <trkpt lat="46.37306" lon="5.04593">
        <ele>222</ele>
        <time>2020-10-24T12:13:16.000Z</time>
      </trkpt>
      <trkpt lat="46.37293" lon="5.04586">
        <ele>222</ele>
        <time>2020-10-24T12:13:18.000Z</time>
      </trkpt>
      <trkpt lat="46.37281" lon="5.0458">
        <ele>222</ele>
        <time>2020-10-24T12:13:20.000Z</time>
      </trkpt>
      <trkpt lat="46.37269" lon="5.04574">
        <ele>222.19999694824</ele>
        <time>2020-10-24T12:13:22.000Z</time>
      </trkpt>
      <trkpt lat="46.37256" lon="5.04571">
        <ele>222.19999694824</ele>
        <time>2020-10-24T12:13:24.000Z</time>
      </trkpt>
      <trkpt lat="46.37242" lon="5.04568">
        <ele>222.19999694824</ele>
        <time>2020-10-24T12:13:26.000Z</time>
      </trkpt>
      <trkpt lat="46.37229" lon="5.04566">
        <ele>222.19999694824</ele>
        <time>2020-10-24T12:13:28.000Z</time>
      </trkpt>
      <trkpt lat="46.37215" lon="5.04565">
        <ele>222.19999694824</ele>
        <time>2020-10-24T12:13:30.000Z</time>
      </trkpt>
      <trkpt lat="46.37202" lon="5.04563">
        <ele>222.19999694824</ele>
        <time>2020-10-24T12:13:32.000Z</time>
      </trkpt>
      <trkpt lat="46.37195" lon="5.04562">
        <ele>222.19999694824</ele>
        <time>2020-10-24T12:13:33.000Z</time>
      </trkpt>
      <trkpt lat="46.37188" lon="5.04561">
        <ele>222.19999694824</ele>
        <time>2020-10-24T12:13:34.000Z</time>
      </trkpt>
      <trkpt lat="46.37173" lon="5.04559">
        <ele>221.80000305176</ele>
        <time>2020-10-24T12:13:36.000Z</time>
      </trkpt>
      <trkpt lat="46.37159" lon="5.04556">
        <ele>221.60000610352</ele>
        <time>2020-10-24T12:13:38.000Z</time>
      </trkpt>
      <trkpt lat="46.37145" lon="5.04552">
        <ele>221.39999389648</ele>
        <time>2020-10-24T12:13:40.000Z</time>
      </trkpt>
      <trkpt lat="46.37129" lon="5.04548">
        <ele>221.39999389648</ele>
        <time>2020-10-24T12:13:42.000Z</time>
      </trkpt>
      <trkpt lat="46.37113" lon="5.04544">
        <ele>221.19999694824</ele>
        <time>2020-10-24T12:13:44.000Z</time>
      </trkpt>
      <trkpt lat="46.37097" lon="5.04542">
        <ele>221</ele>
        <time>2020-10-24T12:13:46.000Z</time>
      </trkpt>
      <trkpt lat="46.3708" lon="5.04539">
        <ele>220.60000610352</ele>
        <time>2020-10-24T12:13:48.000Z</time>
      </trkpt>
      <trkpt lat="46.37072" lon="5.04537">
        <ele>220.60000610352</ele>
        <time>2020-10-24T12:13:49.000Z</time>
      </trkpt>
      <trkpt lat="46.37063" lon="5.04536">
        <ele>220.19999694824</ele>
        <time>2020-10-24T12:13:50.000Z</time>
      </trkpt>
      <trkpt lat="46.37046" lon="5.04532">
        <ele>219.80000305176</ele>
        <time>2020-10-24T12:13:52.000Z</time>
      </trkpt>
      <trkpt lat="46.37038" lon="5.04529">
        <ele>219.39999389648</ele>
        <time>2020-10-24T12:13:53.000Z</time>
      </trkpt>
      <trkpt lat="46.37029" lon="5.04527">
        <ele>219</ele>
        <time>2020-10-24T12:13:54.000Z</time>
      </trkpt>
      <trkpt lat="46.37012" lon="5.04522">
        <ele>218.39999389648</ele>
        <time>2020-10-24T12:13:56.000Z</time>
      </trkpt>
      <trkpt lat="46.37004" lon="5.0452">
        <ele>218.19999694824</ele>
        <time>2020-10-24T12:13:57.000Z</time>
      </trkpt>
      <trkpt lat="46.36996" lon="5.04518">
        <ele>218</ele>
        <time>2020-10-24T12:13:58.000Z</time>
      </trkpt>
      <trkpt lat="46.3698" lon="5.04513">
        <ele>217.60000610352</ele>
        <time>2020-10-24T12:14:00.000Z</time>
      </trkpt>
      <trkpt lat="46.36963" lon="5.04509">
        <ele>216.60000610352</ele>
        <time>2020-10-24T12:14:02.000Z</time>
      </trkpt>
      <trkpt lat="46.36946" lon="5.04507">
        <ele>216.19999694824</ele>
        <time>2020-10-24T12:14:04.000Z</time>
      </trkpt>
      <trkpt lat="46.36929" lon="5.04506">
        <ele>216</ele>
        <time>2020-10-24T12:14:06.000Z</time>
      </trkpt>
      <trkpt lat="46.36913" lon="5.04508">
        <ele>216</ele>
        <time>2020-10-24T12:14:08.000Z</time>
      </trkpt>
      <trkpt lat="46.36905" lon="5.04509">
        <ele>216</ele>
        <time>2020-10-24T12:14:09.000Z</time>
      </trkpt>
      <trkpt lat="46.36897" lon="5.04511">
        <ele>216</ele>
        <time>2020-10-24T12:14:10.000Z</time>
      </trkpt>
      <trkpt lat="46.36883" lon="5.04514">
        <ele>216</ele>
        <time>2020-10-24T12:14:12.000Z</time>
      </trkpt>
      <trkpt lat="46.36876" lon="5.04515">
        <ele>216</ele>
        <time>2020-10-24T12:14:13.000Z</time>
      </trkpt>
      <trkpt lat="46.3687" lon="5.04516">
        <ele>216</ele>
        <time>2020-10-24T12:14:14.000Z</time>
      </trkpt>
      <trkpt lat="46.36859" lon="5.0452">
        <ele>216</ele>
        <time>2020-10-24T12:14:16.000Z</time>
      </trkpt>
      <trkpt lat="46.36849" lon="5.04521">
        <ele>216</ele>
        <time>2020-10-24T12:14:18.000Z</time>
      </trkpt>
      <trkpt lat="46.36844" lon="5.04522">
        <ele>216.19999694824</ele>
        <time>2020-10-24T12:14:19.000Z</time>
      </trkpt>
      <trkpt lat="46.3684" lon="5.04522">
        <ele>216.39999389648</ele>
        <time>2020-10-24T12:14:20.000Z</time>
      </trkpt>
      <trkpt lat="46.36834" lon="5.04519">
        <ele>216.60000610352</ele>
        <time>2020-10-24T12:14:22.000Z</time>
      </trkpt>
      <trkpt lat="46.36832" lon="5.04518">
        <ele>216.80000305176</ele>
        <time>2020-10-24T12:14:23.000Z</time>
      </trkpt>
      <trkpt lat="46.3683" lon="5.04517">
        <ele>217.39999389648</ele>
        <time>2020-10-24T12:14:24.000Z</time>
      </trkpt>
      <trkpt lat="46.36824" lon="5.0452">
        <ele>217.60000610352</ele>
        <time>2020-10-24T12:14:26.000Z</time>
      </trkpt>
      <trkpt lat="46.36821" lon="5.04524">
        <ele>217.80000305176</ele>
        <time>2020-10-24T12:14:27.000Z</time>
      </trkpt>
      <trkpt lat="46.36817" lon="5.04527">
        <ele>217.80000305176</ele>
        <time>2020-10-24T12:14:28.000Z</time>
      </trkpt>
      <trkpt lat="46.36808" lon="5.04533">
        <ele>218</ele>
        <time>2020-10-24T12:14:30.000Z</time>
      </trkpt>
      <trkpt lat="46.36804" lon="5.04537">
        <ele>218</ele>
        <time>2020-10-24T12:14:31.000Z</time>
      </trkpt>
      <trkpt lat="46.368" lon="5.0454">
        <ele>218</ele>
        <time>2020-10-24T12:14:32.000Z</time>
      </trkpt>
      <trkpt lat="46.36794" lon="5.04552">
        <ele>218.19999694824</ele>
        <time>2020-10-24T12:14:34.000Z</time>
      </trkpt>
      <trkpt lat="46.36794" lon="5.04558">
        <ele>218.39999389648</ele>
        <time>2020-10-24T12:14:35.000Z</time>
      </trkpt>
      <trkpt lat="46.36793" lon="5.04565">
        <ele>218.39999389648</ele>
        <time>2020-10-24T12:14:36.000Z</time>
      </trkpt>
      <trkpt lat="46.36794" lon="5.04578">
        <ele>218.60000610352</ele>
        <time>2020-10-24T12:14:38.000Z</time>
      </trkpt>
      <trkpt lat="46.36795" lon="5.04592">
        <ele>218.80000305176</ele>
        <time>2020-10-24T12:14:40.000Z</time>
      </trkpt>
      <trkpt lat="46.36795" lon="5.04606">
        <ele>219</ele>
        <time>2020-10-24T12:14:42.000Z</time>
      </trkpt>
      <trkpt lat="46.36795" lon="5.04622">
        <ele>219.39999389648</ele>
        <time>2020-10-24T12:14:44.000Z</time>
      </trkpt>
      <trkpt lat="46.36795" lon="5.04639">
        <ele>220</ele>
        <time>2020-10-24T12:14:46.000Z</time>
      </trkpt>
      <trkpt lat="46.36796" lon="5.04656">
        <ele>220.60000610352</ele>
        <time>2020-10-24T12:14:48.000Z</time>
      </trkpt>
      <trkpt lat="46.36797" lon="5.04674">
        <ele>221.19999694824</ele>
        <time>2020-10-24T12:14:50.000Z</time>
      </trkpt>
      <trkpt lat="46.36798" lon="5.04692">
        <ele>221.80000305176</ele>
        <time>2020-10-24T12:14:52.000Z</time>
      </trkpt>
      <trkpt lat="46.36799" lon="5.04709">
        <ele>221.80000305176</ele>
        <time>2020-10-24T12:14:54.000Z</time>
      </trkpt>
      <trkpt lat="46.368" lon="5.04727">
        <ele>221.80000305176</ele>
        <time>2020-10-24T12:14:56.000Z</time>
      </trkpt>
      <trkpt lat="46.36801" lon="5.04746">
        <ele>221.80000305176</ele>
        <time>2020-10-24T12:14:58.000Z</time>
      </trkpt>
      <trkpt lat="46.36802" lon="5.04765">
        <ele>221.80000305176</ele>
        <time>2020-10-24T12:15:00.000Z</time>
      </trkpt>
      <trkpt lat="46.36802" lon="5.04784">
        <ele>221.80000305176</ele>
        <time>2020-10-24T12:15:02.000Z</time>
      </trkpt>
      <trkpt lat="46.36802" lon="5.04803">
        <ele>221.80000305176</ele>
        <time>2020-10-24T12:15:04.000Z</time>
      </trkpt>
      <trkpt lat="46.36802" lon="5.04822">
        <ele>221.80000305176</ele>
        <time>2020-10-24T12:15:06.000Z</time>
      </trkpt>
      <trkpt lat="46.36801" lon="5.04842">
        <ele>221.80000305176</ele>
        <time>2020-10-24T12:15:08.000Z</time>
      </trkpt>
      <trkpt lat="46.368" lon="5.04862">
        <ele>221.80000305176</ele>
        <time>2020-10-24T12:15:10.000Z</time>
      </trkpt>
      <trkpt lat="46.36799" lon="5.04881">
        <ele>221.60000610352</ele>
        <time>2020-10-24T12:15:12.000Z</time>
      </trkpt>
      <trkpt lat="46.36798" lon="5.04901">
        <ele>221.60000610352</ele>
        <time>2020-10-24T12:15:14.000Z</time>
      </trkpt>
      <trkpt lat="46.36797" lon="5.04922">
        <ele>221.39999389648</ele>
        <time>2020-10-24T12:15:16.000Z</time>
      </trkpt>
      <trkpt lat="46.36797" lon="5.04942">
        <ele>221.39999389648</ele>
        <time>2020-10-24T12:15:18.000Z</time>
      </trkpt>
      <trkpt lat="46.36796" lon="5.04964">
        <ele>221</ele>
        <time>2020-10-24T12:15:20.000Z</time>
      </trkpt>
      <trkpt lat="46.36795" lon="5.04986">
        <ele>220.80000305176</ele>
        <time>2020-10-24T12:15:22.000Z</time>
      </trkpt>
      <trkpt lat="46.36794" lon="5.05008">
        <ele>220.60000610352</ele>
        <time>2020-10-24T12:15:24.000Z</time>
      </trkpt>
      <trkpt lat="46.36793" lon="5.0503">
        <ele>220.39999389648</ele>
        <time>2020-10-24T12:15:26.000Z</time>
      </trkpt>
      <trkpt lat="46.36792" lon="5.05041">
        <ele>220.19999694824</ele>
        <time>2020-10-24T12:15:27.000Z</time>
      </trkpt>
      <trkpt lat="46.36792" lon="5.05053">
        <ele>220</ele>
        <time>2020-10-24T12:15:28.000Z</time>
      </trkpt>
      <trkpt lat="46.36791" lon="5.05075">
        <ele>219.80000305176</ele>
        <time>2020-10-24T12:15:30.000Z</time>
      </trkpt>
      <trkpt lat="46.36791" lon="5.05097">
        <ele>219.80000305176</ele>
        <time>2020-10-24T12:15:32.000Z</time>
      </trkpt>
      <trkpt lat="46.36791" lon="5.05107">
        <ele>219.80000305176</ele>
        <time>2020-10-24T12:15:33.000Z</time>
      </trkpt>
      <trkpt lat="46.36791" lon="5.05118">
        <ele>219.80000305176</ele>
        <time>2020-10-24T12:15:34.000Z</time>
      </trkpt>
      <trkpt lat="46.36791" lon="5.0514">
        <ele>219.60000610352</ele>
        <time>2020-10-24T12:15:36.000Z</time>
      </trkpt>
      <trkpt lat="46.36792" lon="5.05161">
        <ele>219.60000610352</ele>
        <time>2020-10-24T12:15:38.000Z</time>
      </trkpt>
      <trkpt lat="46.36794" lon="5.05182">
        <ele>219.60000610352</ele>
        <time>2020-10-24T12:15:40.000Z</time>
      </trkpt>
      <trkpt lat="46.36795" lon="5.05203">
        <ele>219.60000610352</ele>
        <time>2020-10-24T12:15:42.000Z</time>
      </trkpt>
      <trkpt lat="46.36795" lon="5.05223">
        <ele>219.60000610352</ele>
        <time>2020-10-24T12:15:44.000Z</time>
      </trkpt>
      <trkpt lat="46.36794" lon="5.05243">
        <ele>219.80000305176</ele>
        <time>2020-10-24T12:15:46.000Z</time>
      </trkpt>
      <trkpt lat="46.36794" lon="5.05262">
        <ele>219.80000305176</ele>
        <time>2020-10-24T12:15:48.000Z</time>
      </trkpt>
      <trkpt lat="46.36793" lon="5.05281">
        <ele>220.19999694824</ele>
        <time>2020-10-24T12:15:50.000Z</time>
      </trkpt>
      <trkpt lat="46.36793" lon="5.053">
        <ele>220</ele>
        <time>2020-10-24T12:15:52.000Z</time>
      </trkpt>
      <trkpt lat="46.36793" lon="5.05319">
        <ele>220.19999694824</ele>
        <time>2020-10-24T12:15:54.000Z</time>
      </trkpt>
      <trkpt lat="46.36792" lon="5.05338">
        <ele>220.19999694824</ele>
        <time>2020-10-24T12:15:56.000Z</time>
      </trkpt>
      <trkpt lat="46.36792" lon="5.05347">
        <ele>220.39999389648</ele>
        <time>2020-10-24T12:15:57.000Z</time>
      </trkpt>
      <trkpt lat="46.36792" lon="5.05357">
        <ele>220.39999389648</ele>
        <time>2020-10-24T12:15:58.000Z</time>
      </trkpt>
      <trkpt lat="46.36791" lon="5.05376">
        <ele>220.39999389648</ele>
        <time>2020-10-24T12:16:00.000Z</time>
      </trkpt>
      <trkpt lat="46.3679" lon="5.05395">
        <ele>220.39999389648</ele>
        <time>2020-10-24T12:16:02.000Z</time>
      </trkpt>
      <trkpt lat="46.3679" lon="5.05414">
        <ele>220.60000610352</ele>
        <time>2020-10-24T12:16:04.000Z</time>
      </trkpt>
      <trkpt lat="46.36789" lon="5.05433">
        <ele>220.60000610352</ele>
        <time>2020-10-24T12:16:06.000Z</time>
      </trkpt>
      <trkpt lat="46.36789" lon="5.05453">
        <ele>220.39999389648</ele>
        <time>2020-10-24T12:16:08.000Z</time>
      </trkpt>
      <trkpt lat="46.36788" lon="5.05474">
        <ele>220.39999389648</ele>
        <time>2020-10-24T12:16:10.000Z</time>
      </trkpt>
      <trkpt lat="46.36787" lon="5.05496">
        <ele>220.39999389648</ele>
        <time>2020-10-24T12:16:12.000Z</time>
      </trkpt>
      <trkpt lat="46.36785" lon="5.05517">
        <ele>220.39999389648</ele>
        <time>2020-10-24T12:16:14.000Z</time>
      </trkpt>
      <trkpt lat="46.36783" lon="5.05538">
        <ele>220.39999389648</ele>
        <time>2020-10-24T12:16:16.000Z</time>
      </trkpt>
      <trkpt lat="46.36779" lon="5.05558">
        <ele>220.39999389648</ele>
        <time>2020-10-24T12:16:18.000Z</time>
      </trkpt>
      <trkpt lat="46.36775" lon="5.05578">
        <ele>220.39999389648</ele>
        <time>2020-10-24T12:16:20.000Z</time>
      </trkpt>
      <trkpt lat="46.36773" lon="5.05588">
        <ele>220.39999389648</ele>
        <time>2020-10-24T12:16:21.000Z</time>
      </trkpt>
      <trkpt lat="46.3677" lon="5.05598">
        <ele>220.39999389648</ele>
        <time>2020-10-24T12:16:22.000Z</time>
      </trkpt>
      <trkpt lat="46.36766" lon="5.05618">
        <ele>220.39999389648</ele>
        <time>2020-10-24T12:16:24.000Z</time>
      </trkpt>
      <trkpt lat="46.36762" lon="5.05638">
        <ele>220.39999389648</ele>
        <time>2020-10-24T12:16:26.000Z</time>
      </trkpt>
      <trkpt lat="46.36758" lon="5.05658">
        <ele>220.39999389648</ele>
        <time>2020-10-24T12:16:28.000Z</time>
      </trkpt>
      <trkpt lat="46.36757" lon="5.05669">
        <ele>220.60000610352</ele>
        <time>2020-10-24T12:16:29.000Z</time>
      </trkpt>
      <trkpt lat="46.36755" lon="5.05679">
        <ele>220.60000610352</ele>
        <time>2020-10-24T12:16:30.000Z</time>
      </trkpt>
      <trkpt lat="46.36751" lon="5.05699">
        <ele>220.60000610352</ele>
        <time>2020-10-24T12:16:32.000Z</time>
      </trkpt>
      <trkpt lat="46.36748" lon="5.0572">
        <ele>220.60000610352</ele>
        <time>2020-10-24T12:16:34.000Z</time>
      </trkpt>
      <trkpt lat="46.36744" lon="5.05741">
        <ele>220.60000610352</ele>
        <time>2020-10-24T12:16:36.000Z</time>
      </trkpt>
      <trkpt lat="46.36741" lon="5.05763">
        <ele>220.60000610352</ele>
        <time>2020-10-24T12:16:38.000Z</time>
      </trkpt>
      <trkpt lat="46.36737" lon="5.05784">
        <ele>220.60000610352</ele>
        <time>2020-10-24T12:16:40.000Z</time>
      </trkpt>
      <trkpt lat="46.36734" lon="5.05805">
        <ele>220.60000610352</ele>
        <time>2020-10-24T12:16:42.000Z</time>
      </trkpt>
      <trkpt lat="46.36731" lon="5.05826">
        <ele>220.39999389648</ele>
        <time>2020-10-24T12:16:44.000Z</time>
      </trkpt>
      <trkpt lat="46.36729" lon="5.05846">
        <ele>220.39999389648</ele>
        <time>2020-10-24T12:16:46.000Z</time>
      </trkpt>
      <trkpt lat="46.36727" lon="5.05866">
        <ele>220.39999389648</ele>
        <time>2020-10-24T12:16:48.000Z</time>
      </trkpt>
      <trkpt lat="46.36725" lon="5.05886">
        <ele>220.39999389648</ele>
        <time>2020-10-24T12:16:50.000Z</time>
      </trkpt>
      <trkpt lat="46.36722" lon="5.05905">
        <ele>220.39999389648</ele>
        <time>2020-10-24T12:16:52.000Z</time>
      </trkpt>
      <trkpt lat="46.3672" lon="5.05924">
        <ele>220.60000610352</ele>
        <time>2020-10-24T12:16:54.000Z</time>
      </trkpt>
      <trkpt lat="46.36719" lon="5.05934">
        <ele>220.80000305176</ele>
        <time>2020-10-24T12:16:55.000Z</time>
      </trkpt>
      <trkpt lat="46.36718" lon="5.05944">
        <ele>220.80000305176</ele>
        <time>2020-10-24T12:16:56.000Z</time>
      </trkpt>
      <trkpt lat="46.36717" lon="5.05963">
        <ele>221.19999694824</ele>
        <time>2020-10-24T12:16:58.000Z</time>
      </trkpt>
      <trkpt lat="46.36715" lon="5.05981">
        <ele>221.19999694824</ele>
        <time>2020-10-24T12:17:00.000Z</time>
      </trkpt>
      <trkpt lat="46.36713" lon="5.05999">
        <ele>221.39999389648</ele>
        <time>2020-10-24T12:17:02.000Z</time>
      </trkpt>
      <trkpt lat="46.36712" lon="5.06009">
        <ele>221.39999389648</ele>
        <time>2020-10-24T12:17:03.000Z</time>
      </trkpt>
      <trkpt lat="46.36711" lon="5.06018">
        <ele>221.80000305176</ele>
        <time>2020-10-24T12:17:04.000Z</time>
      </trkpt>
      <trkpt lat="46.36709" lon="5.06036">
        <ele>222.19999694824</ele>
        <time>2020-10-24T12:17:06.000Z</time>
      </trkpt>
      <trkpt lat="46.36707" lon="5.06055">
        <ele>222.80000305176</ele>
        <time>2020-10-24T12:17:08.000Z</time>
      </trkpt>
      <trkpt lat="46.36705" lon="5.06074">
        <ele>223.19999694824</ele>
        <time>2020-10-24T12:17:10.000Z</time>
      </trkpt>
      <trkpt lat="46.36703" lon="5.06092">
        <ele>223.60000610352</ele>
        <time>2020-10-24T12:17:12.000Z</time>
      </trkpt>
      <trkpt lat="46.36702" lon="5.06101">
        <ele>223.60000610352</ele>
        <time>2020-10-24T12:17:13.000Z</time>
      </trkpt>
      <trkpt lat="46.36701" lon="5.0611">
        <ele>223.80000305176</ele>
        <time>2020-10-24T12:17:14.000Z</time>
      </trkpt>
      <trkpt lat="46.36699" lon="5.06129">
        <ele>224.19999694824</ele>
        <time>2020-10-24T12:17:16.000Z</time>
      </trkpt>
      <trkpt lat="46.36697" lon="5.06149">
        <ele>224.19999694824</ele>
        <time>2020-10-24T12:17:18.000Z</time>
      </trkpt>
      <trkpt lat="46.36695" lon="5.06169">
        <ele>224.39999389648</ele>
        <time>2020-10-24T12:17:20.000Z</time>
      </trkpt>
      <trkpt lat="46.36694" lon="5.06189">
        <ele>224.39999389648</ele>
        <time>2020-10-24T12:17:22.000Z</time>
      </trkpt>
      <trkpt lat="46.36692" lon="5.062">
        <ele>224.39999389648</ele>
        <time>2020-10-24T12:17:23.000Z</time>
      </trkpt>
      <trkpt lat="46.36691" lon="5.0621">
        <ele>224.39999389648</ele>
        <time>2020-10-24T12:17:24.000Z</time>
      </trkpt>
      <trkpt lat="46.36689" lon="5.06231">
        <ele>224.39999389648</ele>
        <time>2020-10-24T12:17:26.000Z</time>
      </trkpt>
      <trkpt lat="46.36687" lon="5.06252">
        <ele>224.60000610352</ele>
        <time>2020-10-24T12:17:28.000Z</time>
      </trkpt>
      <trkpt lat="46.36685" lon="5.06273">
        <ele>224.60000610352</ele>
        <time>2020-10-24T12:17:30.000Z</time>
      </trkpt>
      <trkpt lat="46.36683" lon="5.06294">
        <ele>224.60000610352</ele>
        <time>2020-10-24T12:17:32.000Z</time>
      </trkpt>
      <trkpt lat="46.36681" lon="5.06314">
        <ele>224.60000610352</ele>
        <time>2020-10-24T12:17:34.000Z</time>
      </trkpt>
      <trkpt lat="46.3668" lon="5.06334">
        <ele>224.60000610352</ele>
        <time>2020-10-24T12:17:36.000Z</time>
      </trkpt>
      <trkpt lat="46.36679" lon="5.06355">
        <ele>224.60000610352</ele>
        <time>2020-10-24T12:17:38.000Z</time>
      </trkpt>
      <trkpt lat="46.36678" lon="5.06377">
        <ele>224.39999389648</ele>
        <time>2020-10-24T12:17:40.000Z</time>
      </trkpt>
      <trkpt lat="46.36679" lon="5.06398">
        <ele>224.39999389648</ele>
        <time>2020-10-24T12:17:42.000Z</time>
      </trkpt>
      <trkpt lat="46.3668" lon="5.0642">
        <ele>224.39999389648</ele>
        <time>2020-10-24T12:17:44.000Z</time>
      </trkpt>
      <trkpt lat="46.36682" lon="5.06442">
        <ele>224.39999389648</ele>
        <time>2020-10-24T12:17:46.000Z</time>
      </trkpt>
      <trkpt lat="46.36683" lon="5.06453">
        <ele>224.39999389648</ele>
        <time>2020-10-24T12:17:47.000Z</time>
      </trkpt>
      <trkpt lat="46.36684" lon="5.06464">
        <ele>224.19999694824</ele>
        <time>2020-10-24T12:17:48.000Z</time>
      </trkpt>
      <trkpt lat="46.36686" lon="5.06486">
        <ele>224.19999694824</ele>
        <time>2020-10-24T12:17:50.000Z</time>
      </trkpt>
      <trkpt lat="46.36687" lon="5.06506">
        <ele>224.19999694824</ele>
        <time>2020-10-24T12:17:52.000Z</time>
      </trkpt>
      <trkpt lat="46.36689" lon="5.06527">
        <ele>224.19999694824</ele>
        <time>2020-10-24T12:17:54.000Z</time>
      </trkpt>
      <trkpt lat="46.36691" lon="5.06548">
        <ele>224.19999694824</ele>
        <time>2020-10-24T12:17:56.000Z</time>
      </trkpt>
      <trkpt lat="46.36692" lon="5.06569">
        <ele>224.19999694824</ele>
        <time>2020-10-24T12:17:58.000Z</time>
      </trkpt>
      <trkpt lat="46.36693" lon="5.06591">
        <ele>224.19999694824</ele>
        <time>2020-10-24T12:18:00.000Z</time>
      </trkpt>
      <trkpt lat="46.36693" lon="5.06602">
        <ele>224.19999694824</ele>
        <time>2020-10-24T12:18:01.000Z</time>
      </trkpt>
      <trkpt lat="46.36693" lon="5.06613">
        <ele>224.19999694824</ele>
        <time>2020-10-24T12:18:02.000Z</time>
      </trkpt>
      <trkpt lat="46.36693" lon="5.06636">
        <ele>224</ele>
        <time>2020-10-24T12:18:04.000Z</time>
      </trkpt>
      <trkpt lat="46.36693" lon="5.06659">
        <ele>224</ele>
        <time>2020-10-24T12:18:06.000Z</time>
      </trkpt>
      <trkpt lat="46.36693" lon="5.06681">
        <ele>223.60000610352</ele>
        <time>2020-10-24T12:18:08.000Z</time>
      </trkpt>
      <trkpt lat="46.36693" lon="5.06705">
        <ele>223.19999694824</ele>
        <time>2020-10-24T12:18:10.000Z</time>
      </trkpt>
      <trkpt lat="46.36692" lon="5.06716">
        <ele>223.19999694824</ele>
        <time>2020-10-24T12:18:11.000Z</time>
      </trkpt>
      <trkpt lat="46.36692" lon="5.06727">
        <ele>223</ele>
        <time>2020-10-24T12:18:12.000Z</time>
      </trkpt>
      <trkpt lat="46.36692" lon="5.06748">
        <ele>223</ele>
        <time>2020-10-24T12:18:14.000Z</time>
      </trkpt>
      <trkpt lat="46.36691" lon="5.06769">
        <ele>223</ele>
        <time>2020-10-24T12:18:16.000Z</time>
      </trkpt>
      <trkpt lat="46.36691" lon="5.0678">
        <ele>223</ele>
        <time>2020-10-24T12:18:17.000Z</time>
      </trkpt>
      <trkpt lat="46.36691" lon="5.06791">
        <ele>222.80000305176</ele>
        <time>2020-10-24T12:18:18.000Z</time>
      </trkpt>
      <trkpt lat="46.3669" lon="5.06813">
        <ele>222.80000305176</ele>
        <time>2020-10-24T12:18:20.000Z</time>
      </trkpt>
      <trkpt lat="46.36689" lon="5.06836">
        <ele>223</ele>
        <time>2020-10-24T12:18:22.000Z</time>
      </trkpt>
      <trkpt lat="46.36689" lon="5.06859">
        <ele>223</ele>
        <time>2020-10-24T12:18:24.000Z</time>
      </trkpt>
      <trkpt lat="46.36689" lon="5.0687">
        <ele>223</ele>
        <time>2020-10-24T12:18:25.000Z</time>
      </trkpt>
      <trkpt lat="46.36688" lon="5.06882">
        <ele>223</ele>
        <time>2020-10-24T12:18:26.000Z</time>
      </trkpt>
      <trkpt lat="46.36687" lon="5.06906">
        <ele>222.80000305176</ele>
        <time>2020-10-24T12:18:28.000Z</time>
      </trkpt>
      <trkpt lat="46.36685" lon="5.06932">
        <ele>222.80000305176</ele>
        <time>2020-10-24T12:18:30.000Z</time>
      </trkpt>
      <trkpt lat="46.36684" lon="5.06945">
        <ele>222.60000610352</ele>
        <time>2020-10-24T12:18:31.000Z</time>
      </trkpt>
      <trkpt lat="46.36683" lon="5.06959">
        <ele>222.39999389648</ele>
        <time>2020-10-24T12:18:32.000Z</time>
      </trkpt>
      <trkpt lat="46.36683" lon="5.06987">
        <ele>221.60000610352</ele>
        <time>2020-10-24T12:18:34.000Z</time>
      </trkpt>
      <trkpt lat="46.36681" lon="5.07016">
        <ele>221</ele>
        <time>2020-10-24T12:18:36.000Z</time>
      </trkpt>
      <trkpt lat="46.36679" lon="5.07046">
        <ele>220.19999694824</ele>
        <time>2020-10-24T12:18:38.000Z</time>
      </trkpt>
      <trkpt lat="46.36676" lon="5.07078">
        <ele>219</ele>
        <time>2020-10-24T12:18:40.000Z</time>
      </trkpt>
      <trkpt lat="46.36675" lon="5.07111">
        <ele>218</ele>
        <time>2020-10-24T12:18:42.000Z</time>
      </trkpt>
      <trkpt lat="46.36675" lon="5.07128">
        <ele>217.39999389648</ele>
        <time>2020-10-24T12:18:43.000Z</time>
      </trkpt>
      <trkpt lat="46.36674" lon="5.07145">
        <ele>216.80000305176</ele>
        <time>2020-10-24T12:18:44.000Z</time>
      </trkpt>
      <trkpt lat="46.36675" lon="5.0718">
        <ele>215.39999389648</ele>
        <time>2020-10-24T12:18:46.000Z</time>
      </trkpt>
      <trkpt lat="46.36677" lon="5.07216">
        <ele>213.80000305176</ele>
        <time>2020-10-24T12:18:48.000Z</time>
      </trkpt>
      <trkpt lat="46.36681" lon="5.07251">
        <ele>212</ele>
        <time>2020-10-24T12:18:50.000Z</time>
      </trkpt>
      <trkpt lat="46.36685" lon="5.07285">
        <ele>210.19999694824</ele>
        <time>2020-10-24T12:18:52.000Z</time>
      </trkpt>
      <trkpt lat="46.36688" lon="5.07301">
        <ele>209.39999389648</ele>
        <time>2020-10-24T12:18:53.000Z</time>
      </trkpt>
      <trkpt lat="46.36691" lon="5.07317">
        <ele>208.39999389648</ele>
        <time>2020-10-24T12:18:54.000Z</time>
      </trkpt>
      <trkpt lat="46.36697" lon="5.07347">
        <ele>207</ele>
        <time>2020-10-24T12:18:56.000Z</time>
      </trkpt>
      <trkpt lat="46.36703" lon="5.07376">
        <ele>206.19999694824</ele>
        <time>2020-10-24T12:18:58.000Z</time>
      </trkpt>
      <trkpt lat="46.36708" lon="5.07403">
        <ele>206</ele>
        <time>2020-10-24T12:19:00.000Z</time>
      </trkpt>
      <trkpt lat="46.36714" lon="5.07428">
        <ele>205.80000305176</ele>
        <time>2020-10-24T12:19:02.000Z</time>
      </trkpt>
      <trkpt lat="46.3672" lon="5.07451">
        <ele>205.80000305176</ele>
        <time>2020-10-24T12:19:04.000Z</time>
      </trkpt>
      <trkpt lat="46.36722" lon="5.07463">
        <ele>205.80000305176</ele>
        <time>2020-10-24T12:19:05.000Z</time>
      </trkpt>
      <trkpt lat="46.36725" lon="5.07474">
        <ele>205.80000305176</ele>
        <time>2020-10-24T12:19:06.000Z</time>
      </trkpt>
      <trkpt lat="46.3673" lon="5.07496">
        <ele>206.60000610352</ele>
        <time>2020-10-24T12:19:08.000Z</time>
      </trkpt>
      <trkpt lat="46.36734" lon="5.07517">
        <ele>207.19999694824</ele>
        <time>2020-10-24T12:19:10.000Z</time>
      </trkpt>
      <trkpt lat="46.36739" lon="5.07538">
        <ele>207.80000305176</ele>
        <time>2020-10-24T12:19:12.000Z</time>
      </trkpt>
      <trkpt lat="46.36741" lon="5.07548">
        <ele>208</ele>
        <time>2020-10-24T12:19:13.000Z</time>
      </trkpt>
      <trkpt lat="46.36743" lon="5.07559">
        <ele>208.19999694824</ele>
        <time>2020-10-24T12:19:14.000Z</time>
      </trkpt>
      <trkpt lat="46.36744" lon="5.07569">
        <ele>208.19999694824</ele>
        <time>2020-10-24T12:19:15.000Z</time>
      </trkpt>
      <trkpt lat="46.36746" lon="5.07579">
        <ele>208.19999694824</ele>
        <time>2020-10-24T12:19:16.000Z</time>
      </trkpt>
      <trkpt lat="46.36749" lon="5.076">
        <ele>208.60000610352</ele>
        <time>2020-10-24T12:19:18.000Z</time>
      </trkpt>
      <trkpt lat="46.3675" lon="5.07621">
        <ele>209.19999694824</ele>
        <time>2020-10-24T12:19:20.000Z</time>
      </trkpt>
      <trkpt lat="46.36751" lon="5.07632">
        <ele>209.19999694824</ele>
        <time>2020-10-24T12:19:21.000Z</time>
      </trkpt>
      <trkpt lat="46.36752" lon="5.07644">
        <ele>209.19999694824</ele>
        <time>2020-10-24T12:19:22.000Z</time>
      </trkpt>
      <trkpt lat="46.36753" lon="5.07669">
        <ele>209.19999694824</ele>
        <time>2020-10-24T12:19:24.000Z</time>
      </trkpt>
      <trkpt lat="46.36755" lon="5.07695">
        <ele>209.19999694824</ele>
        <time>2020-10-24T12:19:26.000Z</time>
      </trkpt>
      <trkpt lat="46.36756" lon="5.07708">
        <ele>209.19999694824</ele>
        <time>2020-10-24T12:19:27.000Z</time>
      </trkpt>
      <trkpt lat="46.36757" lon="5.07721">
        <ele>209.19999694824</ele>
        <time>2020-10-24T12:19:28.000Z</time>
      </trkpt>
      <trkpt lat="46.36758" lon="5.07747">
        <ele>208.60000610352</ele>
        <time>2020-10-24T12:19:30.000Z</time>
      </trkpt>
      <trkpt lat="46.36759" lon="5.0776">
        <ele>208</ele>
        <time>2020-10-24T12:19:31.000Z</time>
      </trkpt>
      <trkpt lat="46.3676" lon="5.07772">
        <ele>207.39999389648</ele>
        <time>2020-10-24T12:19:32.000Z</time>
      </trkpt>
      <trkpt lat="46.36761" lon="5.07785">
        <ele>206.80000305176</ele>
        <time>2020-10-24T12:19:33.000Z</time>
      </trkpt>
      <trkpt lat="46.36761" lon="5.07797">
        <ele>206.60000610352</ele>
        <time>2020-10-24T12:19:34.000Z</time>
      </trkpt>
      <trkpt lat="46.36763" lon="5.07821">
        <ele>206.19999694824</ele>
        <time>2020-10-24T12:19:36.000Z</time>
      </trkpt>
      <trkpt lat="46.36765" lon="5.07846">
        <ele>205.80000305176</ele>
        <time>2020-10-24T12:19:38.000Z</time>
      </trkpt>
      <trkpt lat="46.36766" lon="5.07857">
        <ele>205.80000305176</ele>
        <time>2020-10-24T12:19:39.000Z</time>
      </trkpt>
      <trkpt lat="46.36766" lon="5.07869">
        <ele>205.80000305176</ele>
        <time>2020-10-24T12:19:40.000Z</time>
      </trkpt>
      <trkpt lat="46.36768" lon="5.07892">
        <ele>205.80000305176</ele>
        <time>2020-10-24T12:19:42.000Z</time>
      </trkpt>
      <trkpt lat="46.3677" lon="5.07915">
        <ele>205.80000305176</ele>
        <time>2020-10-24T12:19:44.000Z</time>
      </trkpt>
      <trkpt lat="46.36771" lon="5.07926">
        <ele>205.80000305176</ele>
        <time>2020-10-24T12:19:45.000Z</time>
      </trkpt>
      <trkpt lat="46.36772" lon="5.07937">
        <ele>205.80000305176</ele>
        <time>2020-10-24T12:19:46.000Z</time>
      </trkpt>
      <trkpt lat="46.36773" lon="5.07958">
        <ele>205.80000305176</ele>
        <time>2020-10-24T12:19:48.000Z</time>
      </trkpt>
      <trkpt lat="46.36774" lon="5.07979">
        <ele>205.80000305176</ele>
        <time>2020-10-24T12:19:50.000Z</time>
      </trkpt>
      <trkpt lat="46.36775" lon="5.07998">
        <ele>206</ele>
        <time>2020-10-24T12:19:52.000Z</time>
      </trkpt>
      <trkpt lat="46.36777" lon="5.08016">
        <ele>206.39999389648</ele>
        <time>2020-10-24T12:19:54.000Z</time>
      </trkpt>
      <trkpt lat="46.36778" lon="5.08034">
        <ele>206.60000610352</ele>
        <time>2020-10-24T12:19:56.000Z</time>
      </trkpt>
      <trkpt lat="46.36779" lon="5.08051">
        <ele>207.39999389648</ele>
        <time>2020-10-24T12:19:58.000Z</time>
      </trkpt>
      <trkpt lat="46.3678" lon="5.0806">
        <ele>207.60000610352</ele>
        <time>2020-10-24T12:19:59.000Z</time>
      </trkpt>
      <trkpt lat="46.3678" lon="5.08068">
        <ele>207.80000305176</ele>
        <time>2020-10-24T12:20:00.000Z</time>
      </trkpt>
      <trkpt lat="46.36781" lon="5.08085">
        <ele>208.39999389648</ele>
        <time>2020-10-24T12:20:02.000Z</time>
      </trkpt>
      <trkpt lat="46.36782" lon="5.081">
        <ele>209</ele>
        <time>2020-10-24T12:20:04.000Z</time>
      </trkpt>
      <trkpt lat="46.36783" lon="5.08116">
        <ele>209.19999694824</ele>
        <time>2020-10-24T12:20:06.000Z</time>
      </trkpt>
      <trkpt lat="46.36784" lon="5.08123">
        <ele>209.39999389648</ele>
        <time>2020-10-24T12:20:07.000Z</time>
      </trkpt>
      <trkpt lat="46.36784" lon="5.08131">
        <ele>209.80000305176</ele>
        <time>2020-10-24T12:20:08.000Z</time>
      </trkpt>
      <trkpt lat="46.36785" lon="5.08146">
        <ele>210.19999694824</ele>
        <time>2020-10-24T12:20:10.000Z</time>
      </trkpt>
      <trkpt lat="46.36786" lon="5.0816">
        <ele>210.80000305176</ele>
        <time>2020-10-24T12:20:12.000Z</time>
      </trkpt>
      <trkpt lat="46.36787" lon="5.08174">
        <ele>211.19999694824</ele>
        <time>2020-10-24T12:20:14.000Z</time>
      </trkpt>
      <trkpt lat="46.36788" lon="5.08188">
        <ele>211.60000610352</ele>
        <time>2020-10-24T12:20:16.000Z</time>
      </trkpt>
      <trkpt lat="46.36789" lon="5.08195">
        <ele>212</ele>
        <time>2020-10-24T12:20:17.000Z</time>
      </trkpt>
      <trkpt lat="46.36789" lon="5.08201">
        <ele>212.19999694824</ele>
        <time>2020-10-24T12:20:18.000Z</time>
      </trkpt>
      <trkpt lat="46.3679" lon="5.08214">
        <ele>212.80000305176</ele>
        <time>2020-10-24T12:20:20.000Z</time>
      </trkpt>
      <trkpt lat="46.36791" lon="5.08227">
        <ele>213.39999389648</ele>
        <time>2020-10-24T12:20:22.000Z</time>
      </trkpt>
      <trkpt lat="46.36792" lon="5.08239">
        <ele>214</ele>
        <time>2020-10-24T12:20:24.000Z</time>
      </trkpt>
      <trkpt lat="46.36793" lon="5.08245">
        <ele>214.39999389648</ele>
        <time>2020-10-24T12:20:25.000Z</time>
      </trkpt>
      <trkpt lat="46.36793" lon="5.08251">
        <ele>214.80000305176</ele>
        <time>2020-10-24T12:20:26.000Z</time>
      </trkpt>
      <trkpt lat="46.36793" lon="5.08257">
        <ele>215.19999694824</ele>
        <time>2020-10-24T12:20:27.000Z</time>
      </trkpt>
      <trkpt lat="46.36794" lon="5.08263">
        <ele>215.39999389648</ele>
        <time>2020-10-24T12:20:28.000Z</time>
      </trkpt>
      <trkpt lat="46.36795" lon="5.08275">
        <ele>216.19999694824</ele>
        <time>2020-10-24T12:20:30.000Z</time>
      </trkpt>
      <trkpt lat="46.36795" lon="5.08281">
        <ele>216.60000610352</ele>
        <time>2020-10-24T12:20:31.000Z</time>
      </trkpt>
      <trkpt lat="46.36795" lon="5.08287">
        <ele>217.19999694824</ele>
        <time>2020-10-24T12:20:32.000Z</time>
      </trkpt>
      <trkpt lat="46.36796" lon="5.083">
        <ele>217.80000305176</ele>
        <time>2020-10-24T12:20:34.000Z</time>
      </trkpt>
      <trkpt lat="46.36797" lon="5.08312">
        <ele>218.19999694824</ele>
        <time>2020-10-24T12:20:36.000Z</time>
      </trkpt>
      <trkpt lat="46.36798" lon="5.08324">
        <ele>218.39999389648</ele>
        <time>2020-10-24T12:20:38.000Z</time>
      </trkpt>
      <trkpt lat="46.36799" lon="5.08337">
        <ele>218.80000305176</ele>
        <time>2020-10-24T12:20:40.000Z</time>
      </trkpt>
      <trkpt lat="46.368" lon="5.08343">
        <ele>219</ele>
        <time>2020-10-24T12:20:41.000Z</time>
      </trkpt>
      <trkpt lat="46.368" lon="5.08349">
        <ele>219.39999389648</ele>
        <time>2020-10-24T12:20:42.000Z</time>
      </trkpt>
      <trkpt lat="46.36801" lon="5.0836">
        <ele>220</ele>
        <time>2020-10-24T12:20:44.000Z</time>
      </trkpt>
      <trkpt lat="46.36802" lon="5.08366">
        <ele>220.39999389648</ele>
        <time>2020-10-24T12:20:45.000Z</time>
      </trkpt>
      <trkpt lat="46.36802" lon="5.08372">
        <ele>220.80000305176</ele>
        <time>2020-10-24T12:20:46.000Z</time>
      </trkpt>
      <trkpt lat="46.36803" lon="5.08378">
        <ele>221</ele>
        <time>2020-10-24T12:20:47.000Z</time>
      </trkpt>
      <trkpt lat="46.36803" lon="5.08384">
        <ele>221.19999694824</ele>
        <time>2020-10-24T12:20:48.000Z</time>
      </trkpt>
      <trkpt lat="46.36804" lon="5.08396">
        <ele>221.80000305176</ele>
        <time>2020-10-24T12:20:50.000Z</time>
      </trkpt>
      <trkpt lat="46.36805" lon="5.08409">
        <ele>222</ele>
        <time>2020-10-24T12:20:52.000Z</time>
      </trkpt>
      <trkpt lat="46.36806" lon="5.08422">
        <ele>222.80000305176</ele>
        <time>2020-10-24T12:20:54.000Z</time>
      </trkpt>
      <trkpt lat="46.36807" lon="5.08435">
        <ele>223.39999389648</ele>
        <time>2020-10-24T12:20:56.000Z</time>
      </trkpt>
      <trkpt lat="46.36808" lon="5.08449">
        <ele>224</ele>
        <time>2020-10-24T12:20:58.000Z</time>
      </trkpt>
      <trkpt lat="46.36809" lon="5.08463">
        <ele>224.60000610352</ele>
        <time>2020-10-24T12:21:00.000Z</time>
      </trkpt>
      <trkpt lat="46.36811" lon="5.08478">
        <ele>224.80000305176</ele>
        <time>2020-10-24T12:21:02.000Z</time>
      </trkpt>
      <trkpt lat="46.36812" lon="5.08493">
        <ele>224.80000305176</ele>
        <time>2020-10-24T12:21:04.000Z</time>
      </trkpt>
      <trkpt lat="46.36814" lon="5.08509">
        <ele>225</ele>
        <time>2020-10-24T12:21:06.000Z</time>
      </trkpt>
      <trkpt lat="46.36816" lon="5.08525">
        <ele>225</ele>
        <time>2020-10-24T12:21:08.000Z</time>
      </trkpt>
      <trkpt lat="46.36816" lon="5.08534">
        <ele>225</ele>
        <time>2020-10-24T12:21:09.000Z</time>
      </trkpt>
      <trkpt lat="46.36817" lon="5.08542">
        <ele>225</ele>
        <time>2020-10-24T12:21:10.000Z</time>
      </trkpt>
      <trkpt lat="46.36819" lon="5.08551">
        <ele>225</ele>
        <time>2020-10-24T12:21:11.000Z</time>
      </trkpt>
      <trkpt lat="46.3682" lon="5.0856">
        <ele>225</ele>
        <time>2020-10-24T12:21:12.000Z</time>
      </trkpt>
      <trkpt lat="46.36822" lon="5.08577">
        <ele>225</ele>
        <time>2020-10-24T12:21:14.000Z</time>
      </trkpt>
      <trkpt lat="46.36824" lon="5.08595">
        <ele>225</ele>
        <time>2020-10-24T12:21:16.000Z</time>
      </trkpt>
      <trkpt lat="46.36826" lon="5.08613">
        <ele>225</ele>
        <time>2020-10-24T12:21:18.000Z</time>
      </trkpt>
      <trkpt lat="46.36828" lon="5.08632">
        <ele>224.60000610352</ele>
        <time>2020-10-24T12:21:20.000Z</time>
      </trkpt>
      <trkpt lat="46.36829" lon="5.08642">
        <ele>224.19999694824</ele>
        <time>2020-10-24T12:21:21.000Z</time>
      </trkpt>
      <trkpt lat="46.36831" lon="5.08653">
        <ele>224.19999694824</ele>
        <time>2020-10-24T12:21:22.000Z</time>
      </trkpt>
      <trkpt lat="46.36833" lon="5.08674">
        <ele>224</ele>
        <time>2020-10-24T12:21:24.000Z</time>
      </trkpt>
      <trkpt lat="46.36834" lon="5.08685">
        <ele>224</ele>
        <time>2020-10-24T12:21:25.000Z</time>
      </trkpt>
      <trkpt lat="46.36835" lon="5.08696">
        <ele>223.80000305176</ele>
        <time>2020-10-24T12:21:26.000Z</time>
      </trkpt>
      <trkpt lat="46.36838" lon="5.0872">
        <ele>223.60000610352</ele>
        <time>2020-10-24T12:21:28.000Z</time>
      </trkpt>
      <trkpt lat="46.36841" lon="5.08745">
        <ele>222.80000305176</ele>
        <time>2020-10-24T12:21:30.000Z</time>
      </trkpt>
      <trkpt lat="46.36844" lon="5.08771">
        <ele>222.19999694824</ele>
        <time>2020-10-24T12:21:32.000Z</time>
      </trkpt>
      <trkpt lat="46.36845" lon="5.08784">
        <ele>221.80000305176</ele>
        <time>2020-10-24T12:21:33.000Z</time>
      </trkpt>
      <trkpt lat="46.36847" lon="5.08797">
        <ele>221.19999694824</ele>
        <time>2020-10-24T12:21:34.000Z</time>
      </trkpt>
      <trkpt lat="46.36848" lon="5.08811">
        <ele>220.60000610352</ele>
        <time>2020-10-24T12:21:35.000Z</time>
      </trkpt>
      <trkpt lat="46.3685" lon="5.08825">
        <ele>220.19999694824</ele>
        <time>2020-10-24T12:21:36.000Z</time>
      </trkpt>
      <trkpt lat="46.36851" lon="5.08838">
        <ele>219.39999389648</ele>
        <time>2020-10-24T12:21:37.000Z</time>
      </trkpt>
      <trkpt lat="46.36853" lon="5.08852">
        <ele>218.80000305176</ele>
        <time>2020-10-24T12:21:38.000Z</time>
      </trkpt>
      <trkpt lat="46.36854" lon="5.08866">
        <ele>218.19999694824</ele>
        <time>2020-10-24T12:21:39.000Z</time>
      </trkpt>
      <trkpt lat="46.36856" lon="5.0888">
        <ele>217.60000610352</ele>
        <time>2020-10-24T12:21:40.000Z</time>
      </trkpt>
      <trkpt lat="46.36857" lon="5.08893">
        <ele>217</ele>
        <time>2020-10-24T12:21:41.000Z</time>
      </trkpt>
      <trkpt lat="46.36859" lon="5.08907">
        <ele>216.39999389648</ele>
        <time>2020-10-24T12:21:42.000Z</time>
      </trkpt>
      <trkpt lat="46.3686" lon="5.0892">
        <ele>215.80000305176</ele>
        <time>2020-10-24T12:21:43.000Z</time>
      </trkpt>
      <trkpt lat="46.36862" lon="5.08933">
        <ele>215.19999694824</ele>
        <time>2020-10-24T12:21:44.000Z</time>
      </trkpt>
      <trkpt lat="46.36863" lon="5.08946">
        <ele>214.80000305176</ele>
        <time>2020-10-24T12:21:45.000Z</time>
      </trkpt>
      <trkpt lat="46.36865" lon="5.08959">
        <ele>214.19999694824</ele>
        <time>2020-10-24T12:21:46.000Z</time>
      </trkpt>
      <trkpt lat="46.36868" lon="5.08983">
        <ele>213.80000305176</ele>
        <time>2020-10-24T12:21:48.000Z</time>
      </trkpt>
      <trkpt lat="46.36871" lon="5.09007">
        <ele>213.60000610352</ele>
        <time>2020-10-24T12:21:50.000Z</time>
      </trkpt>
      <trkpt lat="46.36873" lon="5.09029">
        <ele>213.60000610352</ele>
        <time>2020-10-24T12:21:52.000Z</time>
      </trkpt>
      <trkpt lat="46.36874" lon="5.0904">
        <ele>213.60000610352</ele>
        <time>2020-10-24T12:21:53.000Z</time>
      </trkpt>
      <trkpt lat="46.36876" lon="5.0905">
        <ele>213.60000610352</ele>
        <time>2020-10-24T12:21:54.000Z</time>
      </trkpt>
      <trkpt lat="46.36878" lon="5.0907">
        <ele>213.60000610352</ele>
        <time>2020-10-24T12:21:56.000Z</time>
      </trkpt>
      <trkpt lat="46.36879" lon="5.09089">
        <ele>213.80000305176</ele>
        <time>2020-10-24T12:21:58.000Z</time>
      </trkpt>
      <trkpt lat="46.3688" lon="5.09098">
        <ele>214</ele>
        <time>2020-10-24T12:21:59.000Z</time>
      </trkpt>
      <trkpt lat="46.3688" lon="5.09107">
        <ele>214.19999694824</ele>
        <time>2020-10-24T12:22:00.000Z</time>
      </trkpt>
      <trkpt lat="46.36881" lon="5.09124">
        <ele>215.19999694824</ele>
        <time>2020-10-24T12:22:02.000Z</time>
      </trkpt>
      <trkpt lat="46.36881" lon="5.09141">
        <ele>216</ele>
        <time>2020-10-24T12:22:04.000Z</time>
      </trkpt>
      <trkpt lat="46.36881" lon="5.09149">
        <ele>216.39999389648</ele>
        <time>2020-10-24T12:22:05.000Z</time>
      </trkpt>
      <trkpt lat="46.36881" lon="5.09157">
        <ele>216.80000305176</ele>
        <time>2020-10-24T12:22:06.000Z</time>
      </trkpt>
      <trkpt lat="46.3688" lon="5.09174">
        <ele>217.80000305176</ele>
        <time>2020-10-24T12:22:08.000Z</time>
      </trkpt>
      <trkpt lat="46.3688" lon="5.0919">
        <ele>218.19999694824</ele>
        <time>2020-10-24T12:22:10.000Z</time>
      </trkpt>
      <trkpt lat="46.36879" lon="5.09205">
        <ele>219</ele>
        <time>2020-10-24T12:22:12.000Z</time>
      </trkpt>
      <trkpt lat="46.36878" lon="5.09213">
        <ele>219.39999389648</ele>
        <time>2020-10-24T12:22:13.000Z</time>
      </trkpt>
      <trkpt lat="46.36878" lon="5.0923">
        <ele>220.19999694824</ele>
        <time>2020-10-24T12:22:15.000Z</time>
      </trkpt>
      <trkpt lat="46.36878" lon="5.09238">
        <ele>220.39999389648</ele>
        <time>2020-10-24T12:22:16.000Z</time>
      </trkpt>
      <trkpt lat="46.36878" lon="5.09246">
        <ele>220.80000305176</ele>
        <time>2020-10-24T12:22:17.000Z</time>
      </trkpt>
      <trkpt lat="46.36877" lon="5.09255">
        <ele>221.19999694824</ele>
        <time>2020-10-24T12:22:18.000Z</time>
      </trkpt>
      <trkpt lat="46.36877" lon="5.09263">
        <ele>221.39999389648</ele>
        <time>2020-10-24T12:22:19.000Z</time>
      </trkpt>
      <trkpt lat="46.36877" lon="5.09273">
        <ele>221.60000610352</ele>
        <time>2020-10-24T12:22:20.000Z</time>
      </trkpt>
      <trkpt lat="46.36876" lon="5.09292">
        <ele>221.60000610352</ele>
        <time>2020-10-24T12:22:22.000Z</time>
      </trkpt>
      <trkpt lat="46.36876" lon="5.09312">
        <ele>221.60000610352</ele>
        <time>2020-10-24T12:22:24.000Z</time>
      </trkpt>
      <trkpt lat="46.36875" lon="5.09334">
        <ele>221.60000610352</ele>
        <time>2020-10-24T12:22:26.000Z</time>
      </trkpt>
      <trkpt lat="46.36875" lon="5.09356">
        <ele>221.60000610352</ele>
        <time>2020-10-24T12:22:28.000Z</time>
      </trkpt>
      <trkpt lat="46.36874" lon="5.0938">
        <ele>221.60000610352</ele>
        <time>2020-10-24T12:22:30.000Z</time>
      </trkpt>
      <trkpt lat="46.36873" lon="5.09404">
        <ele>221</ele>
        <time>2020-10-24T12:22:32.000Z</time>
      </trkpt>
      <trkpt lat="46.36873" lon="5.09428">
        <ele>220.60000610352</ele>
        <time>2020-10-24T12:22:34.000Z</time>
      </trkpt>
      <trkpt lat="46.36873" lon="5.0944">
        <ele>220</ele>
        <time>2020-10-24T12:22:35.000Z</time>
      </trkpt>
      <trkpt lat="46.36872" lon="5.09452">
        <ele>219.60000610352</ele>
        <time>2020-10-24T12:22:36.000Z</time>
      </trkpt>
      <trkpt lat="46.36872" lon="5.09476">
        <ele>218.60000610352</ele>
        <time>2020-10-24T12:22:38.000Z</time>
      </trkpt>
      <trkpt lat="46.36871" lon="5.09499">
        <ele>218</ele>
        <time>2020-10-24T12:22:40.000Z</time>
      </trkpt>
      <trkpt lat="46.36871" lon="5.09521">
        <ele>217.80000305176</ele>
        <time>2020-10-24T12:22:42.000Z</time>
      </trkpt>
      <trkpt lat="46.3687" lon="5.09542">
        <ele>217.80000305176</ele>
        <time>2020-10-24T12:22:44.000Z</time>
      </trkpt>
      <trkpt lat="46.3687" lon="5.09563">
        <ele>217.80000305176</ele>
        <time>2020-10-24T12:22:46.000Z</time>
      </trkpt>
      <trkpt lat="46.3687" lon="5.09582">
        <ele>217.80000305176</ele>
        <time>2020-10-24T12:22:48.000Z</time>
      </trkpt>
      <trkpt lat="46.3687" lon="5.09601">
        <ele>218.19999694824</ele>
        <time>2020-10-24T12:22:50.000Z</time>
      </trkpt>
      <trkpt lat="46.3687" lon="5.09619">
        <ele>218.80000305176</ele>
        <time>2020-10-24T12:22:52.000Z</time>
      </trkpt>
      <trkpt lat="46.36869" lon="5.09638">
        <ele>219.19999694824</ele>
        <time>2020-10-24T12:22:54.000Z</time>
      </trkpt>
      <trkpt lat="46.36869" lon="5.09656">
        <ele>219.39999389648</ele>
        <time>2020-10-24T12:22:56.000Z</time>
      </trkpt>
      <trkpt lat="46.36869" lon="5.09674">
        <ele>219.60000610352</ele>
        <time>2020-10-24T12:22:58.000Z</time>
      </trkpt>
      <trkpt lat="46.36869" lon="5.09684">
        <ele>220</ele>
        <time>2020-10-24T12:22:59.000Z</time>
      </trkpt>
      <trkpt lat="46.36869" lon="5.09693">
        <ele>220</ele>
        <time>2020-10-24T12:23:00.000Z</time>
      </trkpt>
      <trkpt lat="46.36868" lon="5.09712">
        <ele>220.19999694824</ele>
        <time>2020-10-24T12:23:02.000Z</time>
      </trkpt>
      <trkpt lat="46.36868" lon="5.09732">
        <ele>220.60000610352</ele>
        <time>2020-10-24T12:23:04.000Z</time>
      </trkpt>
      <trkpt lat="46.36867" lon="5.09753">
        <ele>220.60000610352</ele>
        <time>2020-10-24T12:23:06.000Z</time>
      </trkpt>
      <trkpt lat="46.36867" lon="5.09764">
        <ele>220.60000610352</ele>
        <time>2020-10-24T12:23:07.000Z</time>
      </trkpt>
      <trkpt lat="46.36867" lon="5.09775">
        <ele>220.60000610352</ele>
        <time>2020-10-24T12:23:08.000Z</time>
      </trkpt>
      <trkpt lat="46.36866" lon="5.09798">
        <ele>220.60000610352</ele>
        <time>2020-10-24T12:23:10.000Z</time>
      </trkpt>
      <trkpt lat="46.36866" lon="5.09822">
        <ele>220.19999694824</ele>
        <time>2020-10-24T12:23:12.000Z</time>
      </trkpt>
      <trkpt lat="46.36865" lon="5.09846">
        <ele>220</ele>
        <time>2020-10-24T12:23:14.000Z</time>
      </trkpt>
      <trkpt lat="46.36865" lon="5.09858">
        <ele>219.39999389648</ele>
        <time>2020-10-24T12:23:15.000Z</time>
      </trkpt>
      <trkpt lat="46.36864" lon="5.09871">
        <ele>219.19999694824</ele>
        <time>2020-10-24T12:23:16.000Z</time>
      </trkpt>
      <trkpt lat="46.36864" lon="5.09884">
        <ele>218.60000610352</ele>
        <time>2020-10-24T12:23:17.000Z</time>
      </trkpt>
      <trkpt lat="46.36864" lon="5.09897">
        <ele>218</ele>
        <time>2020-10-24T12:23:18.000Z</time>
      </trkpt>
      <trkpt lat="46.36863" lon="5.09924">
        <ele>217.39999389648</ele>
        <time>2020-10-24T12:23:20.000Z</time>
      </trkpt>
      <trkpt lat="46.36863" lon="5.09951">
        <ele>216.60000610352</ele>
        <time>2020-10-24T12:23:22.000Z</time>
      </trkpt>
      <trkpt lat="46.36862" lon="5.09965">
        <ele>215.80000305176</ele>
        <time>2020-10-24T12:23:23.000Z</time>
      </trkpt>
      <trkpt lat="46.36862" lon="5.09979">
        <ele>215.19999694824</ele>
        <time>2020-10-24T12:23:24.000Z</time>
      </trkpt>
      <trkpt lat="46.36862" lon="5.09993">
        <ele>214.80000305176</ele>
        <time>2020-10-24T12:23:25.000Z</time>
      </trkpt>
      <trkpt lat="46.36862" lon="5.10022">
        <ele>213.80000305176</ele>
        <time>2020-10-24T12:23:27.000Z</time>
      </trkpt>
      <trkpt lat="46.36861" lon="5.10037">
        <ele>213.19999694824</ele>
        <time>2020-10-24T12:23:28.000Z</time>
      </trkpt>
      <trkpt lat="46.36861" lon="5.10067">
        <ele>211.80000305176</ele>
        <time>2020-10-24T12:23:30.000Z</time>
      </trkpt>
      <trkpt lat="46.3686" lon="5.10082">
        <ele>211</ele>
        <time>2020-10-24T12:23:31.000Z</time>
      </trkpt>
      <trkpt lat="46.3686" lon="5.10097">
        <ele>210.60000610352</ele>
        <time>2020-10-24T12:23:32.000Z</time>
      </trkpt>
      <trkpt lat="46.36859" lon="5.10127">
        <ele>209.60000610352</ele>
        <time>2020-10-24T12:23:34.000Z</time>
      </trkpt>
      <trkpt lat="46.36859" lon="5.10142">
        <ele>209.19999694824</ele>
        <time>2020-10-24T12:23:35.000Z</time>
      </trkpt>
      <trkpt lat="46.36859" lon="5.10157">
        <ele>208.39999389648</ele>
        <time>2020-10-24T12:23:36.000Z</time>
      </trkpt>
      <trkpt lat="46.36859" lon="5.10172">
        <ele>207.60000610352</ele>
        <time>2020-10-24T12:23:37.000Z</time>
      </trkpt>
      <trkpt lat="46.36859" lon="5.10187">
        <ele>206.80000305176</ele>
        <time>2020-10-24T12:23:38.000Z</time>
      </trkpt>
      <trkpt lat="46.36858" lon="5.10202">
        <ele>205.80000305176</ele>
        <time>2020-10-24T12:23:39.000Z</time>
      </trkpt>
      <trkpt lat="46.36858" lon="5.10216">
        <ele>205.39999389648</ele>
        <time>2020-10-24T12:23:40.000Z</time>
      </trkpt>
      <trkpt lat="46.36858" lon="5.1023">
        <ele>204.80000305176</ele>
        <time>2020-10-24T12:23:41.000Z</time>
      </trkpt>
      <trkpt lat="46.36858" lon="5.10244">
        <ele>204.19999694824</ele>
        <time>2020-10-24T12:23:42.000Z</time>
      </trkpt>
      <trkpt lat="46.36857" lon="5.10271">
        <ele>203.80000305176</ele>
        <time>2020-10-24T12:23:44.000Z</time>
      </trkpt>
      <trkpt lat="46.36857" lon="5.10298">
        <ele>203.60000610352</ele>
        <time>2020-10-24T12:23:46.000Z</time>
      </trkpt>
      <trkpt lat="46.36856" lon="5.10325">
        <ele>203.39999389648</ele>
        <time>2020-10-24T12:23:48.000Z</time>
      </trkpt>
      <trkpt lat="46.36853" lon="5.1035">
        <ele>203.39999389648</ele>
        <time>2020-10-24T12:23:50.000Z</time>
      </trkpt>
      <trkpt lat="46.36848" lon="5.10375">
        <ele>203.39999389648</ele>
        <time>2020-10-24T12:23:52.000Z</time>
      </trkpt>
      <trkpt lat="46.36843" lon="5.10398">
        <ele>203.19999694824</ele>
        <time>2020-10-24T12:23:54.000Z</time>
      </trkpt>
      <trkpt lat="46.36839" lon="5.10421">
        <ele>203.39999389648</ele>
        <time>2020-10-24T12:23:56.000Z</time>
      </trkpt>
      <trkpt lat="46.36836" lon="5.10432">
        <ele>203.39999389648</ele>
        <time>2020-10-24T12:23:57.000Z</time>
      </trkpt>
      <trkpt lat="46.36834" lon="5.10442">
        <ele>203.39999389648</ele>
        <time>2020-10-24T12:23:58.000Z</time>
      </trkpt>
      <trkpt lat="46.36829" lon="5.10464">
        <ele>203.39999389648</ele>
        <time>2020-10-24T12:24:00.000Z</time>
      </trkpt>
      <trkpt lat="46.36824" lon="5.10485">
        <ele>203.39999389648</ele>
        <time>2020-10-24T12:24:02.000Z</time>
      </trkpt>
      <trkpt lat="46.3682" lon="5.10507">
        <ele>203.39999389648</ele>
        <time>2020-10-24T12:24:04.000Z</time>
      </trkpt>
      <trkpt lat="46.36815" lon="5.10527">
        <ele>203.60000610352</ele>
        <time>2020-10-24T12:24:06.000Z</time>
      </trkpt>
      <trkpt lat="46.36809" lon="5.10547">
        <ele>203.60000610352</ele>
        <time>2020-10-24T12:24:08.000Z</time>
      </trkpt>
      <trkpt lat="46.36799" lon="5.10575">
        <ele>203.60000610352</ele>
        <time>2020-10-24T12:24:11.000Z</time>
      </trkpt>
      <trkpt lat="46.36795" lon="5.10584">
        <ele>203.80000305176</ele>
        <time>2020-10-24T12:24:12.000Z</time>
      </trkpt>
      <trkpt lat="46.36792" lon="5.10593">
        <ele>203.80000305176</ele>
        <time>2020-10-24T12:24:13.000Z</time>
      </trkpt>
      <trkpt lat="46.36779" lon="5.10618">
        <ele>203.60000610352</ele>
        <time>2020-10-24T12:24:16.000Z</time>
      </trkpt>
      <trkpt lat="46.36774" lon="5.10637">
        <ele>203.60000610352</ele>
        <time>2020-10-24T12:24:18.000Z</time>
      </trkpt>
      <trkpt lat="46.36771" lon="5.10657">
        <ele>203.60000610352</ele>
        <time>2020-10-24T12:24:20.000Z</time>
      </trkpt>
      <trkpt lat="46.36771" lon="5.10678">
        <ele>203.60000610352</ele>
        <time>2020-10-24T12:24:22.000Z</time>
      </trkpt>
      <trkpt lat="46.36772" lon="5.107">
        <ele>203.60000610352</ele>
        <time>2020-10-24T12:24:24.000Z</time>
      </trkpt>
      <trkpt lat="46.36775" lon="5.10721">
        <ele>203.60000610352</ele>
        <time>2020-10-24T12:24:26.000Z</time>
      </trkpt>
      <trkpt lat="46.36777" lon="5.10743">
        <ele>203.60000610352</ele>
        <time>2020-10-24T12:24:28.000Z</time>
      </trkpt>
      <trkpt lat="46.36778" lon="5.10753">
        <ele>203.60000610352</ele>
        <time>2020-10-24T12:24:29.000Z</time>
      </trkpt>
      <trkpt lat="46.3678" lon="5.10764">
        <ele>203.60000610352</ele>
        <time>2020-10-24T12:24:30.000Z</time>
      </trkpt>
      <trkpt lat="46.36784" lon="5.10795">
        <ele>203.60000610352</ele>
        <time>2020-10-24T12:24:33.000Z</time>
      </trkpt>
      <trkpt lat="46.36785" lon="5.10805">
        <ele>203.60000610352</ele>
        <time>2020-10-24T12:24:34.000Z</time>
      </trkpt>
      <trkpt lat="46.36789" lon="5.10826">
        <ele>203.39999389648</ele>
        <time>2020-10-24T12:24:36.000Z</time>
      </trkpt>
      <trkpt lat="46.36792" lon="5.10845">
        <ele>203.39999389648</ele>
        <time>2020-10-24T12:24:38.000Z</time>
      </trkpt>
      <trkpt lat="46.36795" lon="5.10855">
        <ele>203.39999389648</ele>
        <time>2020-10-24T12:24:39.000Z</time>
      </trkpt>
      <trkpt lat="46.36797" lon="5.10865">
        <ele>203.39999389648</ele>
        <time>2020-10-24T12:24:40.000Z</time>
      </trkpt>
      <trkpt lat="46.36801" lon="5.10885">
        <ele>203.39999389648</ele>
        <time>2020-10-24T12:24:42.000Z</time>
      </trkpt>
      <trkpt lat="46.36806" lon="5.10905">
        <ele>203.39999389648</ele>
        <time>2020-10-24T12:24:44.000Z</time>
      </trkpt>
      <trkpt lat="46.3681" lon="5.10925">
        <ele>203.39999389648</ele>
        <time>2020-10-24T12:24:46.000Z</time>
      </trkpt>
      <trkpt lat="46.36813" lon="5.10945">
        <ele>203.39999389648</ele>
        <time>2020-10-24T12:24:48.000Z</time>
      </trkpt>
      <trkpt lat="46.36815" lon="5.10955">
        <ele>203.39999389648</ele>
        <time>2020-10-24T12:24:49.000Z</time>
      </trkpt>
      <trkpt lat="46.36816" lon="5.10965">
        <ele>203.39999389648</ele>
        <time>2020-10-24T12:24:50.000Z</time>
      </trkpt>
      <trkpt lat="46.3682" lon="5.10984">
        <ele>203.39999389648</ele>
        <time>2020-10-24T12:24:52.000Z</time>
      </trkpt>
      <trkpt lat="46.36825" lon="5.11003">
        <ele>203.39999389648</ele>
        <time>2020-10-24T12:24:54.000Z</time>
      </trkpt>
      <trkpt lat="46.36829" lon="5.11022">
        <ele>203.39999389648</ele>
        <time>2020-10-24T12:24:56.000Z</time>
      </trkpt>
      <trkpt lat="46.36834" lon="5.11041">
        <ele>203.60000610352</ele>
        <time>2020-10-24T12:24:58.000Z</time>
      </trkpt>
      <trkpt lat="46.36839" lon="5.1106">
        <ele>203.39999389648</ele>
        <time>2020-10-24T12:25:00.000Z</time>
      </trkpt>
      <trkpt lat="46.36843" lon="5.11079">
        <ele>203.39999389648</ele>
        <time>2020-10-24T12:25:02.000Z</time>
      </trkpt>
      <trkpt lat="46.36848" lon="5.11098">
        <ele>203.39999389648</ele>
        <time>2020-10-24T12:25:04.000Z</time>
      </trkpt>
      <trkpt lat="46.36853" lon="5.11116">
        <ele>203.80000305176</ele>
        <time>2020-10-24T12:25:06.000Z</time>
      </trkpt>
      <trkpt lat="46.36858" lon="5.11134">
        <ele>203.80000305176</ele>
        <time>2020-10-24T12:25:08.000Z</time>
      </trkpt>
      <trkpt lat="46.36862" lon="5.11153">
        <ele>203.80000305176</ele>
        <time>2020-10-24T12:25:10.000Z</time>
      </trkpt>
      <trkpt lat="46.36867" lon="5.11171">
        <ele>203.80000305176</ele>
        <time>2020-10-24T12:25:12.000Z</time>
      </trkpt>
      <trkpt lat="46.36874" lon="5.11198">
        <ele>204</ele>
        <time>2020-10-24T12:25:15.000Z</time>
      </trkpt>
      <trkpt lat="46.36878" lon="5.11216">
        <ele>204</ele>
        <time>2020-10-24T12:25:17.000Z</time>
      </trkpt>
      <trkpt lat="46.36881" lon="5.11234">
        <ele>204.19999694824</ele>
        <time>2020-10-24T12:25:19.000Z</time>
      </trkpt>
      <trkpt lat="46.36885" lon="5.11262">
        <ele>204.39999389648</ele>
        <time>2020-10-24T12:25:22.000Z</time>
      </trkpt>
      <trkpt lat="46.36888" lon="5.1128">
        <ele>204.39999389648</ele>
        <time>2020-10-24T12:25:24.000Z</time>
      </trkpt>
      <trkpt lat="46.3689" lon="5.11298">
        <ele>204.60000610352</ele>
        <time>2020-10-24T12:25:26.000Z</time>
      </trkpt>
      <trkpt lat="46.36893" lon="5.11316">
        <ele>204.60000610352</ele>
        <time>2020-10-24T12:25:28.000Z</time>
      </trkpt>
      <trkpt lat="46.36895" lon="5.11334">
        <ele>204.80000305176</ele>
        <time>2020-10-24T12:25:30.000Z</time>
      </trkpt>
      <trkpt lat="46.36897" lon="5.11352">
        <ele>205</ele>
        <time>2020-10-24T12:25:32.000Z</time>
      </trkpt>
      <trkpt lat="46.36898" lon="5.11361">
        <ele>205</ele>
        <time>2020-10-24T12:25:33.000Z</time>
      </trkpt>
      <trkpt lat="46.36898" lon="5.1137">
        <ele>205</ele>
        <time>2020-10-24T12:25:34.000Z</time>
      </trkpt>
      <trkpt lat="46.369" lon="5.11387">
        <ele>205</ele>
        <time>2020-10-24T12:25:36.000Z</time>
      </trkpt>
      <trkpt lat="46.36901" lon="5.11404">
        <ele>205.19999694824</ele>
        <time>2020-10-24T12:25:38.000Z</time>
      </trkpt>
      <trkpt lat="46.36903" lon="5.1142">
        <ele>205.39999389648</ele>
        <time>2020-10-24T12:25:40.000Z</time>
      </trkpt>
      <trkpt lat="46.36904" lon="5.11428">
        <ele>205.39999389648</ele>
        <time>2020-10-24T12:25:41.000Z</time>
      </trkpt>
      <trkpt lat="46.36904" lon="5.11436">
        <ele>205.80000305176</ele>
        <time>2020-10-24T12:25:42.000Z</time>
      </trkpt>
      <trkpt lat="46.36905" lon="5.11444">
        <ele>206</ele>
        <time>2020-10-24T12:25:43.000Z</time>
      </trkpt>
      <trkpt lat="46.36906" lon="5.11451">
        <ele>206.39999389648</ele>
        <time>2020-10-24T12:25:44.000Z</time>
      </trkpt>
      <trkpt lat="46.36907" lon="5.11466">
        <ele>206.60000610352</ele>
        <time>2020-10-24T12:25:46.000Z</time>
      </trkpt>
      <trkpt lat="46.36909" lon="5.11481">
        <ele>206.80000305176</ele>
        <time>2020-10-24T12:25:48.000Z</time>
      </trkpt>
      <trkpt lat="46.3691" lon="5.11487">
        <ele>207</ele>
        <time>2020-10-24T12:25:49.000Z</time>
      </trkpt>
      <trkpt lat="46.3691" lon="5.11494">
        <ele>207.19999694824</ele>
        <time>2020-10-24T12:25:50.000Z</time>
      </trkpt>
      <trkpt lat="46.36912" lon="5.11507">
        <ele>207.39999389648</ele>
        <time>2020-10-24T12:25:52.000Z</time>
      </trkpt>
      <trkpt lat="46.36913" lon="5.11521">
        <ele>208</ele>
        <time>2020-10-24T12:25:54.000Z</time>
      </trkpt>
      <trkpt lat="46.36913" lon="5.11528">
        <ele>208.39999389648</ele>
        <time>2020-10-24T12:25:55.000Z</time>
      </trkpt>
      <trkpt lat="46.36914" lon="5.11534">
        <ele>208.60000610352</ele>
        <time>2020-10-24T12:25:56.000Z</time>
      </trkpt>
      <trkpt lat="46.36915" lon="5.11547">
        <ele>209.60000610352</ele>
        <time>2020-10-24T12:25:58.000Z</time>
      </trkpt>
      <trkpt lat="46.36916" lon="5.1156">
        <ele>210</ele>
        <time>2020-10-24T12:26:00.000Z</time>
      </trkpt>
      <trkpt lat="46.36916" lon="5.11566">
        <ele>210.19999694824</ele>
        <time>2020-10-24T12:26:01.000Z</time>
      </trkpt>
      <trkpt lat="46.36917" lon="5.11572">
        <ele>210.60000610352</ele>
        <time>2020-10-24T12:26:02.000Z</time>
      </trkpt>
      <trkpt lat="46.36918" lon="5.11584">
        <ele>211.19999694824</ele>
        <time>2020-10-24T12:26:04.000Z</time>
      </trkpt>
      <trkpt lat="46.36919" lon="5.11595">
        <ele>212</ele>
        <time>2020-10-24T12:26:06.000Z</time>
      </trkpt>
      <trkpt lat="46.3692" lon="5.11607">
        <ele>212.80000305176</ele>
        <time>2020-10-24T12:26:08.000Z</time>
      </trkpt>
      <trkpt lat="46.3692" lon="5.11613">
        <ele>213</ele>
        <time>2020-10-24T12:26:09.000Z</time>
      </trkpt>
      <trkpt lat="46.3692" lon="5.11618">
        <ele>213.39999389648</ele>
        <time>2020-10-24T12:26:10.000Z</time>
      </trkpt>
      <trkpt lat="46.36921" lon="5.11624">
        <ele>213.80000305176</ele>
        <time>2020-10-24T12:26:11.000Z</time>
      </trkpt>
      <trkpt lat="46.36921" lon="5.11629">
        <ele>214.39999389648</ele>
        <time>2020-10-24T12:26:12.000Z</time>
      </trkpt>
      <trkpt lat="46.36922" lon="5.11641">
        <ele>215.19999694824</ele>
        <time>2020-10-24T12:26:14.000Z</time>
      </trkpt>
      <trkpt lat="46.36923" lon="5.11646">
        <ele>215.60000610352</ele>
        <time>2020-10-24T12:26:15.000Z</time>
      </trkpt>
      <trkpt lat="46.36923" lon="5.11652">
        <ele>216</ele>
        <time>2020-10-24T12:26:16.000Z</time>
      </trkpt>
      <trkpt lat="46.36924" lon="5.11663">
        <ele>216.60000610352</ele>
        <time>2020-10-24T12:26:18.000Z</time>
      </trkpt>
      <trkpt lat="46.36924" lon="5.11669">
        <ele>217</ele>
        <time>2020-10-24T12:26:19.000Z</time>
      </trkpt>
      <trkpt lat="46.36924" lon="5.11674">
        <ele>217.39999389648</ele>
        <time>2020-10-24T12:26:20.000Z</time>
      </trkpt>
      <trkpt lat="46.36924" lon="5.11685">
        <ele>218</ele>
        <time>2020-10-24T12:26:22.000Z</time>
      </trkpt>
      <trkpt lat="46.36924" lon="5.11696">
        <ele>218.60000610352</ele>
        <time>2020-10-24T12:26:24.000Z</time>
      </trkpt>
      <trkpt lat="46.36924" lon="5.11702">
        <ele>219</ele>
        <time>2020-10-24T12:26:25.000Z</time>
      </trkpt>
      <trkpt lat="46.36923" lon="5.11707">
        <ele>219.60000610352</ele>
        <time>2020-10-24T12:26:26.000Z</time>
      </trkpt>
      <trkpt lat="46.36922" lon="5.11718">
        <ele>220.39999389648</ele>
        <time>2020-10-24T12:26:28.000Z</time>
      </trkpt>
      <trkpt lat="46.3692" lon="5.1173">
        <ele>220.80000305176</ele>
        <time>2020-10-24T12:26:30.000Z</time>
      </trkpt>
      <trkpt lat="46.36919" lon="5.11742">
        <ele>221.39999389648</ele>
        <time>2020-10-24T12:26:32.000Z</time>
      </trkpt>
      <trkpt lat="46.36917" lon="5.11755">
        <ele>222</ele>
        <time>2020-10-24T12:26:34.000Z</time>
      </trkpt>
      <trkpt lat="46.36916" lon="5.11762">
        <ele>222.19999694824</ele>
        <time>2020-10-24T12:26:35.000Z</time>
      </trkpt>
      <trkpt lat="46.36915" lon="5.11768">
        <ele>222.60000610352</ele>
        <time>2020-10-24T12:26:36.000Z</time>
      </trkpt>
      <trkpt lat="46.36914" lon="5.11775">
        <ele>222.80000305176</ele>
        <time>2020-10-24T12:26:37.000Z</time>
      </trkpt>
      <trkpt lat="46.36913" lon="5.11781">
        <ele>222.80000305176</ele>
        <time>2020-10-24T12:26:38.000Z</time>
      </trkpt>
      <trkpt lat="46.3691" lon="5.11795">
        <ele>223.19999694824</ele>
        <time>2020-10-24T12:26:40.000Z</time>
      </trkpt>
      <trkpt lat="46.36907" lon="5.1181">
        <ele>223.39999389648</ele>
        <time>2020-10-24T12:26:42.000Z</time>
      </trkpt>
      <trkpt lat="46.36905" lon="5.11824">
        <ele>223.60000610352</ele>
        <time>2020-10-24T12:26:44.000Z</time>
      </trkpt>
      <trkpt lat="46.36904" lon="5.11839">
        <ele>223.60000610352</ele>
        <time>2020-10-24T12:26:46.000Z</time>
      </trkpt>
      <trkpt lat="46.36905" lon="5.11847">
        <ele>223.60000610352</ele>
        <time>2020-10-24T12:26:47.000Z</time>
      </trkpt>
      <trkpt lat="46.36905" lon="5.11856">
        <ele>223.60000610352</ele>
        <time>2020-10-24T12:26:48.000Z</time>
      </trkpt>
      <trkpt lat="46.36907" lon="5.11873">
        <ele>223.60000610352</ele>
        <time>2020-10-24T12:26:50.000Z</time>
      </trkpt>
      <trkpt lat="46.36909" lon="5.11892">
        <ele>223.60000610352</ele>
        <time>2020-10-24T12:26:52.000Z</time>
      </trkpt>
      <trkpt lat="46.36911" lon="5.11912">
        <ele>223.39999389648</ele>
        <time>2020-10-24T12:26:54.000Z</time>
      </trkpt>
      <trkpt lat="46.36913" lon="5.11933">
        <ele>222.80000305176</ele>
        <time>2020-10-24T12:26:56.000Z</time>
      </trkpt>
      <trkpt lat="46.36915" lon="5.11955">
        <ele>222.39999389648</ele>
        <time>2020-10-24T12:26:58.000Z</time>
      </trkpt>
      <trkpt lat="46.36918" lon="5.11978">
        <ele>221.60000610352</ele>
        <time>2020-10-24T12:27:00.000Z</time>
      </trkpt>
      <trkpt lat="46.36919" lon="5.1199">
        <ele>221.39999389648</ele>
        <time>2020-10-24T12:27:01.000Z</time>
      </trkpt>
      <trkpt lat="46.3692" lon="5.12001">
        <ele>220.80000305176</ele>
        <time>2020-10-24T12:27:02.000Z</time>
      </trkpt>
      <trkpt lat="46.36921" lon="5.12022">
        <ele>220</ele>
        <time>2020-10-24T12:27:04.000Z</time>
      </trkpt>
      <trkpt lat="46.36923" lon="5.12038">
        <ele>218.80000305176</ele>
        <time>2020-10-24T12:27:06.000Z</time>
      </trkpt>
      <trkpt lat="46.36923" lon="5.12045">
        <ele>218.19999694824</ele>
        <time>2020-10-24T12:27:07.000Z</time>
      </trkpt>
      <trkpt lat="46.36923" lon="5.1205">
        <ele>217.60000610352</ele>
        <time>2020-10-24T12:27:08.000Z</time>
      </trkpt>
      <trkpt lat="46.36922" lon="5.12053">
        <ele>217.39999389648</ele>
        <time>2020-10-24T12:27:09.000Z</time>
      </trkpt>
      <trkpt lat="46.36921" lon="5.12055">
        <ele>217.19999694824</ele>
        <time>2020-10-24T12:27:10.000Z</time>
      </trkpt>
      <trkpt lat="46.36921" lon="5.12056">
        <ele>217</ele>
        <time>2020-10-24T12:27:11.000Z</time>
      </trkpt>
      <trkpt lat="46.3692" lon="5.12056">
        <ele>216.80000305176</ele>
        <time>2020-10-24T12:27:12.000Z</time>
      </trkpt>
      <trkpt lat="46.3692" lon="5.12057">
        <ele>216.80000305176</ele>
        <time>2020-10-24T12:27:13.000Z</time>
      </trkpt>
      <trkpt lat="46.3692" lon="5.12056">
        <ele>216.80000305176</ele>
        <time>2020-10-24T12:27:14.000Z</time>
      </trkpt>
      <trkpt lat="46.36917" lon="5.12058">
        <ele>216.80000305176</ele>
        <time>2020-10-24T12:27:24.000Z</time>
      </trkpt>
      <trkpt lat="46.36915" lon="5.12059">
        <ele>216.80000305176</ele>
        <time>2020-10-24T12:27:25.000Z</time>
      </trkpt>
      <trkpt lat="46.36912" lon="5.1206">
        <ele>216.80000305176</ele>
        <time>2020-10-24T12:27:26.000Z</time>
      </trkpt>
      <trkpt lat="46.36904" lon="5.12061">
        <ele>216.80000305176</ele>
        <time>2020-10-24T12:27:28.000Z</time>
      </trkpt>
      <trkpt lat="46.369" lon="5.12062">
        <ele>216.80000305176</ele>
        <time>2020-10-24T12:27:29.000Z</time>
      </trkpt>
      <trkpt lat="46.36895" lon="5.12063">
        <ele>216.80000305176</ele>
        <time>2020-10-24T12:27:30.000Z</time>
      </trkpt>
      <trkpt lat="46.36883" lon="5.12066">
        <ele>216.60000610352</ele>
        <time>2020-10-24T12:27:32.000Z</time>
      </trkpt>
      <trkpt lat="46.3687" lon="5.1207">
        <ele>216.19999694824</ele>
        <time>2020-10-24T12:27:34.000Z</time>
      </trkpt>
      <trkpt lat="46.36856" lon="5.12073">
        <ele>215.39999389648</ele>
        <time>2020-10-24T12:27:36.000Z</time>
      </trkpt>
      <trkpt lat="46.36843" lon="5.12076">
        <ele>214.60000610352</ele>
        <time>2020-10-24T12:27:38.000Z</time>
      </trkpt>
      <trkpt lat="46.36831" lon="5.1208">
        <ele>214.19999694824</ele>
        <time>2020-10-24T12:27:40.000Z</time>
      </trkpt>
      <trkpt lat="46.36819" lon="5.12083">
        <ele>214.19999694824</ele>
        <time>2020-10-24T12:27:42.000Z</time>
      </trkpt>
      <trkpt lat="46.36807" lon="5.12086">
        <ele>214.19999694824</ele>
        <time>2020-10-24T12:27:44.000Z</time>
      </trkpt>
      <trkpt lat="46.36796" lon="5.12089">
        <ele>214.19999694824</ele>
        <time>2020-10-24T12:27:46.000Z</time>
      </trkpt>
      <trkpt lat="46.36785" lon="5.12092">
        <ele>214.19999694824</ele>
        <time>2020-10-24T12:27:48.000Z</time>
      </trkpt>
      <trkpt lat="46.36774" lon="5.12095">
        <ele>214.80000305176</ele>
        <time>2020-10-24T12:27:50.000Z</time>
      </trkpt>
      <trkpt lat="46.36764" lon="5.12097">
        <ele>215.19999694824</ele>
        <time>2020-10-24T12:27:52.000Z</time>
      </trkpt>
      <trkpt lat="46.36758" lon="5.12099">
        <ele>215.39999389648</ele>
        <time>2020-10-24T12:27:53.000Z</time>
      </trkpt>
      <trkpt lat="46.36753" lon="5.121">
        <ele>215.80000305176</ele>
        <time>2020-10-24T12:27:54.000Z</time>
      </trkpt>
      <trkpt lat="46.36743" lon="5.12103">
        <ele>216.39999389648</ele>
        <time>2020-10-24T12:27:56.000Z</time>
      </trkpt>
      <trkpt lat="46.36737" lon="5.12104">
        <ele>216.60000610352</ele>
        <time>2020-10-24T12:27:57.000Z</time>
      </trkpt>
      <trkpt lat="46.36732" lon="5.12105">
        <ele>217</ele>
        <time>2020-10-24T12:27:58.000Z</time>
      </trkpt>
      <trkpt lat="46.36722" lon="5.12108">
        <ele>217.19999694824</ele>
        <time>2020-10-24T12:28:00.000Z</time>
      </trkpt>
      <trkpt lat="46.36711" lon="5.1211">
        <ele>217.39999389648</ele>
        <time>2020-10-24T12:28:02.000Z</time>
      </trkpt>
      <trkpt lat="46.36706" lon="5.12112">
        <ele>217.60000610352</ele>
        <time>2020-10-24T12:28:03.000Z</time>
      </trkpt>
      <trkpt lat="46.36701" lon="5.12113">
        <ele>217.80000305176</ele>
        <time>2020-10-24T12:28:04.000Z</time>
      </trkpt>
      <trkpt lat="46.3669" lon="5.12115">
        <ele>218.19999694824</ele>
        <time>2020-10-24T12:28:06.000Z</time>
      </trkpt>
      <trkpt lat="46.36679" lon="5.12118">
        <ele>218.80000305176</ele>
        <time>2020-10-24T12:28:08.000Z</time>
      </trkpt>
      <trkpt lat="46.36668" lon="5.1212">
        <ele>219.60000610352</ele>
        <time>2020-10-24T12:28:10.000Z</time>
      </trkpt>
      <trkpt lat="46.36657" lon="5.12123">
        <ele>220</ele>
        <time>2020-10-24T12:28:12.000Z</time>
      </trkpt>
      <trkpt lat="46.36645" lon="5.12126">
        <ele>220.39999389648</ele>
        <time>2020-10-24T12:28:14.000Z</time>
      </trkpt>
      <trkpt lat="46.36633" lon="5.12129">
        <ele>221</ele>
        <time>2020-10-24T12:28:16.000Z</time>
      </trkpt>
      <trkpt lat="46.36621" lon="5.12132">
        <ele>221.39999389648</ele>
        <time>2020-10-24T12:28:18.000Z</time>
      </trkpt>
      <trkpt lat="46.36608" lon="5.12135">
        <ele>221.60000610352</ele>
        <time>2020-10-24T12:28:20.000Z</time>
      </trkpt>
      <trkpt lat="46.36595" lon="5.12138">
        <ele>221.60000610352</ele>
        <time>2020-10-24T12:28:22.000Z</time>
      </trkpt>
      <trkpt lat="46.36588" lon="5.1214">
        <ele>221.60000610352</ele>
        <time>2020-10-24T12:28:23.000Z</time>
      </trkpt>
      <trkpt lat="46.36581" lon="5.12142">
        <ele>221.60000610352</ele>
        <time>2020-10-24T12:28:24.000Z</time>
      </trkpt>
      <trkpt lat="46.36567" lon="5.12145">
        <ele>221.39999389648</ele>
        <time>2020-10-24T12:28:26.000Z</time>
      </trkpt>
      <trkpt lat="46.36553" lon="5.12148">
        <ele>220.80000305176</ele>
        <time>2020-10-24T12:28:28.000Z</time>
      </trkpt>
      <trkpt lat="46.36542" lon="5.12153">
        <ele>220.60000610352</ele>
        <time>2020-10-24T12:28:30.000Z</time>
      </trkpt>
      <trkpt lat="46.36535" lon="5.12165">
        <ele>220.39999389648</ele>
        <time>2020-10-24T12:28:32.000Z</time>
      </trkpt>
      <trkpt lat="46.36534" lon="5.12173">
        <ele>220.39999389648</ele>
        <time>2020-10-24T12:28:33.000Z</time>
      </trkpt>
      <trkpt lat="46.36534" lon="5.12183">
        <ele>220.39999389648</ele>
        <time>2020-10-24T12:28:34.000Z</time>
      </trkpt>
      <trkpt lat="46.36534" lon="5.12193">
        <ele>220.19999694824</ele>
        <time>2020-10-24T12:28:35.000Z</time>
      </trkpt>
      <trkpt lat="46.36535" lon="5.12203">
        <ele>220.19999694824</ele>
        <time>2020-10-24T12:28:36.000Z</time>
      </trkpt>
      <trkpt lat="46.36534" lon="5.12223">
        <ele>220</ele>
        <time>2020-10-24T12:28:38.000Z</time>
      </trkpt>
      <trkpt lat="46.36534" lon="5.12234">
        <ele>220</ele>
        <time>2020-10-24T12:28:39.000Z</time>
      </trkpt>
      <trkpt lat="46.36534" lon="5.12246">
        <ele>220</ele>
        <time>2020-10-24T12:28:40.000Z</time>
      </trkpt>
      <trkpt lat="46.36535" lon="5.1227">
        <ele>219.80000305176</ele>
        <time>2020-10-24T12:28:42.000Z</time>
      </trkpt>
      <trkpt lat="46.36535" lon="5.12295">
        <ele>219.80000305176</ele>
        <time>2020-10-24T12:28:44.000Z</time>
      </trkpt>
      <trkpt lat="46.36535" lon="5.12323">
        <ele>219.19999694824</ele>
        <time>2020-10-24T12:28:46.000Z</time>
      </trkpt>
      <trkpt lat="46.36535" lon="5.12337">
        <ele>218.80000305176</ele>
        <time>2020-10-24T12:28:47.000Z</time>
      </trkpt>
      <trkpt lat="46.36534" lon="5.12352">
        <ele>218</ele>
        <time>2020-10-24T12:28:48.000Z</time>
      </trkpt>
      <trkpt lat="46.36533" lon="5.12368">
        <ele>217.19999694824</ele>
        <time>2020-10-24T12:28:49.000Z</time>
      </trkpt>
      <trkpt lat="46.36532" lon="5.12383">
        <ele>216.60000610352</ele>
        <time>2020-10-24T12:28:50.000Z</time>
      </trkpt>
      <trkpt lat="46.36531" lon="5.124">
        <ele>216</ele>
        <time>2020-10-24T12:28:51.000Z</time>
      </trkpt>
      <trkpt lat="46.36529" lon="5.12416">
        <ele>215.39999389648</ele>
        <time>2020-10-24T12:28:52.000Z</time>
      </trkpt>
      <trkpt lat="46.36528" lon="5.12432">
        <ele>214.60000610352</ele>
        <time>2020-10-24T12:28:53.000Z</time>
      </trkpt>
      <trkpt lat="46.36526" lon="5.12449">
        <ele>213.60000610352</ele>
        <time>2020-10-24T12:28:54.000Z</time>
      </trkpt>
      <trkpt lat="46.36525" lon="5.12465">
        <ele>212.39999389648</ele>
        <time>2020-10-24T12:28:55.000Z</time>
      </trkpt>
      <trkpt lat="46.36524" lon="5.12482">
        <ele>211.39999389648</ele>
        <time>2020-10-24T12:28:56.000Z</time>
      </trkpt>
      <trkpt lat="46.36522" lon="5.12498">
        <ele>210.39999389648</ele>
        <time>2020-10-24T12:28:57.000Z</time>
      </trkpt>
      <trkpt lat="46.36521" lon="5.12514">
        <ele>209.39999389648</ele>
        <time>2020-10-24T12:28:58.000Z</time>
      </trkpt>
      <trkpt lat="46.36521" lon="5.1253">
        <ele>208.19999694824</ele>
        <time>2020-10-24T12:28:59.000Z</time>
      </trkpt>
      <trkpt lat="46.3652" lon="5.12545">
        <ele>207.39999389648</ele>
        <time>2020-10-24T12:29:00.000Z</time>
      </trkpt>
      <trkpt lat="46.36519" lon="5.12561">
        <ele>206.80000305176</ele>
        <time>2020-10-24T12:29:01.000Z</time>
      </trkpt>
      <trkpt lat="46.36518" lon="5.12576">
        <ele>206.19999694824</ele>
        <time>2020-10-24T12:29:02.000Z</time>
      </trkpt>
      <trkpt lat="46.36517" lon="5.12591">
        <ele>205.60000610352</ele>
        <time>2020-10-24T12:29:03.000Z</time>
      </trkpt>
      <trkpt lat="46.36517" lon="5.12607">
        <ele>205</ele>
        <time>2020-10-24T12:29:04.000Z</time>
      </trkpt>
      <trkpt lat="46.36516" lon="5.12622">
        <ele>204.39999389648</ele>
        <time>2020-10-24T12:29:05.000Z</time>
      </trkpt>
      <trkpt lat="46.36517" lon="5.12637">
        <ele>204</ele>
        <time>2020-10-24T12:29:06.000Z</time>
      </trkpt>
      <trkpt lat="46.36517" lon="5.12667">
        <ele>203.60000610352</ele>
        <time>2020-10-24T12:29:08.000Z</time>
      </trkpt>
      <trkpt lat="46.36518" lon="5.12682">
        <ele>203.39999389648</ele>
        <time>2020-10-24T12:29:09.000Z</time>
      </trkpt>
      <trkpt lat="46.36519" lon="5.12697">
        <ele>203.19999694824</ele>
        <time>2020-10-24T12:29:10.000Z</time>
      </trkpt>
      <trkpt lat="46.36521" lon="5.12725">
        <ele>202.39999389648</ele>
        <time>2020-10-24T12:29:12.000Z</time>
      </trkpt>
      <trkpt lat="46.36523" lon="5.12739">
        <ele>202</ele>
        <time>2020-10-24T12:29:13.000Z</time>
      </trkpt>
      <trkpt lat="46.36524" lon="5.12752">
        <ele>201.60000610352</ele>
        <time>2020-10-24T12:29:14.000Z</time>
      </trkpt>
      <trkpt lat="46.36526" lon="5.12766">
        <ele>201.39999389648</ele>
        <time>2020-10-24T12:29:15.000Z</time>
      </trkpt>
      <trkpt lat="46.36527" lon="5.12779">
        <ele>201.19999694824</ele>
        <time>2020-10-24T12:29:16.000Z</time>
      </trkpt>
      <trkpt lat="46.3653" lon="5.12805">
        <ele>201.19999694824</ele>
        <time>2020-10-24T12:29:18.000Z</time>
      </trkpt>
      <trkpt lat="46.36533" lon="5.1283">
        <ele>201.19999694824</ele>
        <time>2020-10-24T12:29:20.000Z</time>
      </trkpt>
      <trkpt lat="46.36537" lon="5.12855">
        <ele>201.19999694824</ele>
        <time>2020-10-24T12:29:22.000Z</time>
      </trkpt>
      <trkpt lat="46.36538" lon="5.12868">
        <ele>201.19999694824</ele>
        <time>2020-10-24T12:29:23.000Z</time>
      </trkpt>
      <trkpt lat="46.3654" lon="5.1288">
        <ele>201.19999694824</ele>
        <time>2020-10-24T12:29:24.000Z</time>
      </trkpt>
      <trkpt lat="46.36544" lon="5.12904">
        <ele>201.19999694824</ele>
        <time>2020-10-24T12:29:26.000Z</time>
      </trkpt>
      <trkpt lat="46.36546" lon="5.12928">
        <ele>201.19999694824</ele>
        <time>2020-10-24T12:29:28.000Z</time>
      </trkpt>
      <trkpt lat="46.36548" lon="5.1294">
        <ele>201.19999694824</ele>
        <time>2020-10-24T12:29:29.000Z</time>
      </trkpt>
      <trkpt lat="46.3655" lon="5.12952">
        <ele>201.19999694824</ele>
        <time>2020-10-24T12:29:30.000Z</time>
      </trkpt>
      <trkpt lat="46.36553" lon="5.12976">
        <ele>201.19999694824</ele>
        <time>2020-10-24T12:29:32.000Z</time>
      </trkpt>
      <trkpt lat="46.36556" lon="5.13">
        <ele>201.19999694824</ele>
        <time>2020-10-24T12:29:34.000Z</time>
      </trkpt>
      <trkpt lat="46.36558" lon="5.13011">
        <ele>201.39999389648</ele>
        <time>2020-10-24T12:29:35.000Z</time>
      </trkpt>
      <trkpt lat="46.36559" lon="5.13022">
        <ele>201.39999389648</ele>
        <time>2020-10-24T12:29:36.000Z</time>
      </trkpt>
      <trkpt lat="46.36562" lon="5.13044">
        <ele>201.39999389648</ele>
        <time>2020-10-24T12:29:38.000Z</time>
      </trkpt>
      <trkpt lat="46.36565" lon="5.13066">
        <ele>201.39999389648</ele>
        <time>2020-10-24T12:29:40.000Z</time>
      </trkpt>
      <trkpt lat="46.36566" lon="5.13077">
        <ele>201.39999389648</ele>
        <time>2020-10-24T12:29:41.000Z</time>
      </trkpt>
      <trkpt lat="46.36568" lon="5.13088">
        <ele>201.39999389648</ele>
        <time>2020-10-24T12:29:42.000Z</time>
      </trkpt>
      <trkpt lat="46.3657" lon="5.13111">
        <ele>201.39999389648</ele>
        <time>2020-10-24T12:29:44.000Z</time>
      </trkpt>
      <trkpt lat="46.36574" lon="5.13134">
        <ele>201.60000610352</ele>
        <time>2020-10-24T12:29:46.000Z</time>
      </trkpt>
      <trkpt lat="46.36576" lon="5.13156">
        <ele>201.60000610352</ele>
        <time>2020-10-24T12:29:48.000Z</time>
      </trkpt>
      <trkpt lat="46.36579" lon="5.13178">
        <ele>201.60000610352</ele>
        <time>2020-10-24T12:29:50.000Z</time>
      </trkpt>
      <trkpt lat="46.36582" lon="5.13201">
        <ele>201.60000610352</ele>
        <time>2020-10-24T12:29:52.000Z</time>
      </trkpt>
      <trkpt lat="46.36585" lon="5.13224">
        <ele>201.60000610352</ele>
        <time>2020-10-24T12:29:54.000Z</time>
      </trkpt>
      <trkpt lat="46.36586" lon="5.13235">
        <ele>201.60000610352</ele>
        <time>2020-10-24T12:29:55.000Z</time>
      </trkpt>
      <trkpt lat="46.36588" lon="5.13246">
        <ele>201.60000610352</ele>
        <time>2020-10-24T12:29:56.000Z</time>
      </trkpt>
      <trkpt lat="46.36591" lon="5.13268">
        <ele>201.60000610352</ele>
        <time>2020-10-24T12:29:58.000Z</time>
      </trkpt>
      <trkpt lat="46.36593" lon="5.13291">
        <ele>201.60000610352</ele>
        <time>2020-10-24T12:30:00.000Z</time>
      </trkpt>
      <trkpt lat="46.36596" lon="5.13313">
        <ele>201.80000305176</ele>
        <time>2020-10-24T12:30:02.000Z</time>
      </trkpt>
      <trkpt lat="46.36599" lon="5.13335">
        <ele>201.80000305176</ele>
        <time>2020-10-24T12:30:04.000Z</time>
      </trkpt>
      <trkpt lat="46.36602" lon="5.13357">
        <ele>201.80000305176</ele>
        <time>2020-10-24T12:30:06.000Z</time>
      </trkpt>
      <trkpt lat="46.36604" lon="5.13368">
        <ele>201.80000305176</ele>
        <time>2020-10-24T12:30:07.000Z</time>
      </trkpt>
      <trkpt lat="46.36606" lon="5.13379">
        <ele>201.80000305176</ele>
        <time>2020-10-24T12:30:08.000Z</time>
      </trkpt>
      <trkpt lat="46.36608" lon="5.134">
        <ele>201.80000305176</ele>
        <time>2020-10-24T12:30:10.000Z</time>
      </trkpt>
      <trkpt lat="46.36611" lon="5.13422">
        <ele>201.80000305176</ele>
        <time>2020-10-24T12:30:12.000Z</time>
      </trkpt>
      <trkpt lat="46.36614" lon="5.13444">
        <ele>201.80000305176</ele>
        <time>2020-10-24T12:30:14.000Z</time>
      </trkpt>
      <trkpt lat="46.36616" lon="5.13466">
        <ele>201.80000305176</ele>
        <time>2020-10-24T12:30:16.000Z</time>
      </trkpt>
      <trkpt lat="46.36619" lon="5.13489">
        <ele>201.80000305176</ele>
        <time>2020-10-24T12:30:18.000Z</time>
      </trkpt>
      <trkpt lat="46.36622" lon="5.13513">
        <ele>201.80000305176</ele>
        <time>2020-10-24T12:30:20.000Z</time>
      </trkpt>
      <trkpt lat="46.36624" lon="5.13537">
        <ele>201.80000305176</ele>
        <time>2020-10-24T12:30:22.000Z</time>
      </trkpt>
      <trkpt lat="46.36625" lon="5.13549">
        <ele>201.60000610352</ele>
        <time>2020-10-24T12:30:23.000Z</time>
      </trkpt>
      <trkpt lat="46.36627" lon="5.13561">
        <ele>201.60000610352</ele>
        <time>2020-10-24T12:30:24.000Z</time>
      </trkpt>
      <trkpt lat="46.3663" lon="5.13584">
        <ele>201.60000610352</ele>
        <time>2020-10-24T12:30:26.000Z</time>
      </trkpt>
      <trkpt lat="46.36631" lon="5.13607">
        <ele>201.60000610352</ele>
        <time>2020-10-24T12:30:28.000Z</time>
      </trkpt>
      <trkpt lat="46.36632" lon="5.13619">
        <ele>201.60000610352</ele>
        <time>2020-10-24T12:30:29.000Z</time>
      </trkpt>
      <trkpt lat="46.36633" lon="5.1363">
        <ele>201.60000610352</ele>
        <time>2020-10-24T12:30:30.000Z</time>
      </trkpt>
      <trkpt lat="46.36635" lon="5.13653">
        <ele>201.39999389648</ele>
        <time>2020-10-24T12:30:32.000Z</time>
      </trkpt>
      <trkpt lat="46.36636" lon="5.13675">
        <ele>201.39999389648</ele>
        <time>2020-10-24T12:30:34.000Z</time>
      </trkpt>
      <trkpt lat="46.36637" lon="5.13686">
        <ele>201.39999389648</ele>
        <time>2020-10-24T12:30:35.000Z</time>
      </trkpt>
      <trkpt lat="46.36637" lon="5.13696">
        <ele>201.39999389648</ele>
        <time>2020-10-24T12:30:36.000Z</time>
      </trkpt>
      <trkpt lat="46.36638" lon="5.13716">
        <ele>201.39999389648</ele>
        <time>2020-10-24T12:30:38.000Z</time>
      </trkpt>
      <trkpt lat="46.36638" lon="5.13737">
        <ele>201.39999389648</ele>
        <time>2020-10-24T12:30:40.000Z</time>
      </trkpt>
      <trkpt lat="46.36638" lon="5.13747">
        <ele>201.39999389648</ele>
        <time>2020-10-24T12:30:41.000Z</time>
      </trkpt>
      <trkpt lat="46.36637" lon="5.13757">
        <ele>201.39999389648</ele>
        <time>2020-10-24T12:30:42.000Z</time>
      </trkpt>
      <trkpt lat="46.36636" lon="5.13779">
        <ele>201.39999389648</ele>
        <time>2020-10-24T12:30:44.000Z</time>
      </trkpt>
      <trkpt lat="46.36635" lon="5.13801">
        <ele>201.60000610352</ele>
        <time>2020-10-24T12:30:46.000Z</time>
      </trkpt>
      <trkpt lat="46.36635" lon="5.13812">
        <ele>201.60000610352</ele>
        <time>2020-10-24T12:30:47.000Z</time>
      </trkpt>
      <trkpt lat="46.36635" lon="5.13823">
        <ele>201.80000305176</ele>
        <time>2020-10-24T12:30:48.000Z</time>
      </trkpt>
      <trkpt lat="46.36635" lon="5.13845">
        <ele>201.80000305176</ele>
        <time>2020-10-24T12:30:50.000Z</time>
      </trkpt>
      <trkpt lat="46.36636" lon="5.13866">
        <ele>201.80000305176</ele>
        <time>2020-10-24T12:30:52.000Z</time>
      </trkpt>
      <trkpt lat="46.36636" lon="5.13877">
        <ele>202</ele>
        <time>2020-10-24T12:30:53.000Z</time>
      </trkpt>
      <trkpt lat="46.36636" lon="5.13887">
        <ele>202</ele>
        <time>2020-10-24T12:30:54.000Z</time>
      </trkpt>
      <trkpt lat="46.36637" lon="5.13908">
        <ele>202</ele>
        <time>2020-10-24T12:30:56.000Z</time>
      </trkpt>
      <trkpt lat="46.36638" lon="5.13929">
        <ele>202</ele>
        <time>2020-10-24T12:30:58.000Z</time>
      </trkpt>
      <trkpt lat="46.36637" lon="5.13949">
        <ele>202</ele>
        <time>2020-10-24T12:31:00.000Z</time>
      </trkpt>
      <trkpt lat="46.36636" lon="5.1397">
        <ele>202</ele>
        <time>2020-10-24T12:31:02.000Z</time>
      </trkpt>
      <trkpt lat="46.36636" lon="5.13991">
        <ele>202</ele>
        <time>2020-10-24T12:31:04.000Z</time>
      </trkpt>
      <trkpt lat="46.36635" lon="5.14012">
        <ele>202</ele>
        <time>2020-10-24T12:31:06.000Z</time>
      </trkpt>
      <trkpt lat="46.36633" lon="5.14032">
        <ele>202</ele>
        <time>2020-10-24T12:31:08.000Z</time>
      </trkpt>
      <trkpt lat="46.36632" lon="5.14042">
        <ele>202</ele>
        <time>2020-10-24T12:31:09.000Z</time>
      </trkpt>
      <trkpt lat="46.36631" lon="5.14052">
        <ele>202</ele>
        <time>2020-10-24T12:31:10.000Z</time>
      </trkpt>
      <trkpt lat="46.36628" lon="5.14073">
        <ele>202</ele>
        <time>2020-10-24T12:31:12.000Z</time>
      </trkpt>
      <trkpt lat="46.36626" lon="5.14095">
        <ele>202</ele>
        <time>2020-10-24T12:31:14.000Z</time>
      </trkpt>
      <trkpt lat="46.36625" lon="5.14105">
        <ele>202</ele>
        <time>2020-10-24T12:31:15.000Z</time>
      </trkpt>
      <trkpt lat="46.36624" lon="5.14116">
        <ele>202</ele>
        <time>2020-10-24T12:31:16.000Z</time>
      </trkpt>
      <trkpt lat="46.36623" lon="5.14136">
        <ele>202</ele>
        <time>2020-10-24T12:31:18.000Z</time>
      </trkpt>
      <trkpt lat="46.36622" lon="5.14156">
        <ele>202.19999694824</ele>
        <time>2020-10-24T12:31:20.000Z</time>
      </trkpt>
      <trkpt lat="46.36622" lon="5.14175">
        <ele>202.19999694824</ele>
        <time>2020-10-24T12:31:22.000Z</time>
      </trkpt>
      <trkpt lat="46.36621" lon="5.14195">
        <ele>202.60000610352</ele>
        <time>2020-10-24T12:31:24.000Z</time>
      </trkpt>
      <trkpt lat="46.3662" lon="5.14214">
        <ele>202.80000305176</ele>
        <time>2020-10-24T12:31:26.000Z</time>
      </trkpt>
      <trkpt lat="46.3662" lon="5.14224">
        <ele>203</ele>
        <time>2020-10-24T12:31:27.000Z</time>
      </trkpt>
      <trkpt lat="46.3662" lon="5.14233">
        <ele>203.19999694824</ele>
        <time>2020-10-24T12:31:28.000Z</time>
      </trkpt>
      <trkpt lat="46.3662" lon="5.14252">
        <ele>203.39999389648</ele>
        <time>2020-10-24T12:31:30.000Z</time>
      </trkpt>
      <trkpt lat="46.36621" lon="5.1427">
        <ele>203.39999389648</ele>
        <time>2020-10-24T12:31:32.000Z</time>
      </trkpt>
      <trkpt lat="46.36623" lon="5.14287">
        <ele>203.60000610352</ele>
        <time>2020-10-24T12:31:34.000Z</time>
      </trkpt>
      <trkpt lat="46.36624" lon="5.14303">
        <ele>203.80000305176</ele>
        <time>2020-10-24T12:31:36.000Z</time>
      </trkpt>
      <trkpt lat="46.36626" lon="5.14318">
        <ele>204</ele>
        <time>2020-10-24T12:31:38.000Z</time>
      </trkpt>
      <trkpt lat="46.36627" lon="5.14325">
        <ele>204.39999389648</ele>
        <time>2020-10-24T12:31:39.000Z</time>
      </trkpt>
      <trkpt lat="46.36628" lon="5.14332">
        <ele>204.19999694824</ele>
        <time>2020-10-24T12:31:40.000Z</time>
      </trkpt>
      <trkpt lat="46.3663" lon="5.14347">
        <ele>205.39999389648</ele>
        <time>2020-10-24T12:31:42.000Z</time>
      </trkpt>
      <trkpt lat="46.36633" lon="5.14368">
        <ele>205.80000305176</ele>
        <time>2020-10-24T12:31:45.000Z</time>
      </trkpt>
      <trkpt lat="46.36635" lon="5.14381">
        <ele>206.60000610352</ele>
        <time>2020-10-24T12:31:47.000Z</time>
      </trkpt>
      <trkpt lat="46.36637" lon="5.14394">
        <ele>207</ele>
        <time>2020-10-24T12:31:49.000Z</time>
      </trkpt>
      <trkpt lat="46.36639" lon="5.14412">
        <ele>207.60000610352</ele>
        <time>2020-10-24T12:31:52.000Z</time>
      </trkpt>
      <trkpt lat="46.3664" lon="5.14418">
        <ele>208.19999694824</ele>
        <time>2020-10-24T12:31:53.000Z</time>
      </trkpt>
      <trkpt lat="46.36642" lon="5.14429">
        <ele>209</ele>
        <time>2020-10-24T12:31:55.000Z</time>
      </trkpt>
      <trkpt lat="46.36645" lon="5.14447">
        <ele>209.80000305176</ele>
        <time>2020-10-24T12:31:58.000Z</time>
      </trkpt>
      <trkpt lat="46.36647" lon="5.14452">
        <ele>210.19999694824</ele>
        <time>2020-10-24T12:31:59.000Z</time>
      </trkpt>
      <trkpt lat="46.36648" lon="5.14458">
        <ele>210.80000305176</ele>
        <time>2020-10-24T12:32:00.000Z</time>
      </trkpt>
      <trkpt lat="46.3665" lon="5.14468">
        <ele>211.19999694824</ele>
        <time>2020-10-24T12:32:02.000Z</time>
      </trkpt>
      <trkpt lat="46.36652" lon="5.14478">
        <ele>211.60000610352</ele>
        <time>2020-10-24T12:32:04.000Z</time>
      </trkpt>
      <trkpt lat="46.36654" lon="5.14489">
        <ele>212</ele>
        <time>2020-10-24T12:32:06.000Z</time>
      </trkpt>
      <trkpt lat="46.36656" lon="5.14493">
        <ele>212.39999389648</ele>
        <time>2020-10-24T12:32:07.000Z</time>
      </trkpt>
      <trkpt lat="46.36657" lon="5.14498">
        <ele>212.80000305176</ele>
        <time>2020-10-24T12:32:08.000Z</time>
      </trkpt>
      <trkpt lat="46.36661" lon="5.14513">
        <ele>213.39999389648</ele>
        <time>2020-10-24T12:32:11.000Z</time>
      </trkpt>
      <trkpt lat="46.36662" lon="5.14518">
        <ele>213.60000610352</ele>
        <time>2020-10-24T12:32:12.000Z</time>
      </trkpt>
      <trkpt lat="46.36664" lon="5.14523">
        <ele>214</ele>
        <time>2020-10-24T12:32:13.000Z</time>
      </trkpt>
      <trkpt lat="46.36668" lon="5.14537">
        <ele>214.80000305176</ele>
        <time>2020-10-24T12:32:16.000Z</time>
      </trkpt>
      <trkpt lat="46.36671" lon="5.14547">
        <ele>215.39999389648</ele>
        <time>2020-10-24T12:32:18.000Z</time>
      </trkpt>
      <trkpt lat="46.36673" lon="5.14557">
        <ele>216</ele>
        <time>2020-10-24T12:32:20.000Z</time>
      </trkpt>
      <trkpt lat="46.36675" lon="5.14562">
        <ele>216.19999694824</ele>
        <time>2020-10-24T12:32:21.000Z</time>
      </trkpt>
      <trkpt lat="46.36676" lon="5.14567">
        <ele>216.60000610352</ele>
        <time>2020-10-24T12:32:22.000Z</time>
      </trkpt>
      <trkpt lat="46.36678" lon="5.14577">
        <ele>217</ele>
        <time>2020-10-24T12:32:24.000Z</time>
      </trkpt>
      <trkpt lat="46.3668" lon="5.14587">
        <ele>217.60000610352</ele>
        <time>2020-10-24T12:32:26.000Z</time>
      </trkpt>
      <trkpt lat="46.36683" lon="5.14597">
        <ele>218.19999694824</ele>
        <time>2020-10-24T12:32:28.000Z</time>
      </trkpt>
      <trkpt lat="46.36686" lon="5.14609">
        <ele>219</ele>
        <time>2020-10-24T12:32:30.000Z</time>
      </trkpt>
      <trkpt lat="46.3669" lon="5.1462">
        <ele>219.39999389648</ele>
        <time>2020-10-24T12:32:32.000Z</time>
      </trkpt>
      <trkpt lat="46.36694" lon="5.14633">
        <ele>219.60000610352</ele>
        <time>2020-10-24T12:32:34.000Z</time>
      </trkpt>
      <trkpt lat="46.36696" lon="5.1464">
        <ele>219.60000610352</ele>
        <time>2020-10-24T12:32:35.000Z</time>
      </trkpt>
      <trkpt lat="46.36697" lon="5.14648">
        <ele>219.60000610352</ele>
        <time>2020-10-24T12:32:36.000Z</time>
      </trkpt>
      <trkpt lat="46.36698" lon="5.14667">
        <ele>219.80000305176</ele>
        <time>2020-10-24T12:32:38.000Z</time>
      </trkpt>
      <trkpt lat="46.36698" lon="5.14689">
        <ele>219.80000305176</ele>
        <time>2020-10-24T12:32:40.000Z</time>
      </trkpt>
      <trkpt lat="46.36697" lon="5.14714">
        <ele>219.60000610352</ele>
        <time>2020-10-24T12:32:42.000Z</time>
      </trkpt>
      <trkpt lat="46.36696" lon="5.1474">
        <ele>218.60000610352</ele>
        <time>2020-10-24T12:32:44.000Z</time>
      </trkpt>
      <trkpt lat="46.36696" lon="5.14753">
        <ele>218</ele>
        <time>2020-10-24T12:32:45.000Z</time>
      </trkpt>
      <trkpt lat="46.36695" lon="5.14767">
        <ele>217.39999389648</ele>
        <time>2020-10-24T12:32:46.000Z</time>
      </trkpt>
      <trkpt lat="46.36695" lon="5.14781">
        <ele>216.60000610352</ele>
        <time>2020-10-24T12:32:47.000Z</time>
      </trkpt>
      <trkpt lat="46.36694" lon="5.14795">
        <ele>215.80000305176</ele>
        <time>2020-10-24T12:32:48.000Z</time>
      </trkpt>
      <trkpt lat="46.36693" lon="5.14809">
        <ele>215</ele>
        <time>2020-10-24T12:32:49.000Z</time>
      </trkpt>
      <trkpt lat="46.36693" lon="5.14823">
        <ele>214</ele>
        <time>2020-10-24T12:32:50.000Z</time>
      </trkpt>
      <trkpt lat="46.36692" lon="5.14837">
        <ele>213.39999389648</ele>
        <time>2020-10-24T12:32:51.000Z</time>
      </trkpt>
      <trkpt lat="46.3669" lon="5.1485">
        <ele>213</ele>
        <time>2020-10-24T12:32:52.000Z</time>
      </trkpt>
      <trkpt lat="46.36688" lon="5.14864">
        <ele>212.39999389648</ele>
        <time>2020-10-24T12:32:53.000Z</time>
      </trkpt>
      <trkpt lat="46.36686" lon="5.14877">
        <ele>212</ele>
        <time>2020-10-24T12:32:54.000Z</time>
      </trkpt>
      <trkpt lat="46.36682" lon="5.14902">
        <ele>210.19999694824</ele>
        <time>2020-10-24T12:32:56.000Z</time>
      </trkpt>
      <trkpt lat="46.36677" lon="5.14927">
        <ele>209.60000610352</ele>
        <time>2020-10-24T12:32:58.000Z</time>
      </trkpt>
      <trkpt lat="46.36673" lon="5.14951">
        <ele>209.60000610352</ele>
        <time>2020-10-24T12:33:00.000Z</time>
      </trkpt>
      <trkpt lat="46.36671" lon="5.14975">
        <ele>209.39999389648</ele>
        <time>2020-10-24T12:33:02.000Z</time>
      </trkpt>
      <trkpt lat="46.36669" lon="5.14997">
        <ele>209.39999389648</ele>
        <time>2020-10-24T12:33:04.000Z</time>
      </trkpt>
      <trkpt lat="46.36668" lon="5.15019">
        <ele>209.39999389648</ele>
        <time>2020-10-24T12:33:06.000Z</time>
      </trkpt>
      <trkpt lat="46.36668" lon="5.1504">
        <ele>209.39999389648</ele>
        <time>2020-10-24T12:33:08.000Z</time>
      </trkpt>
      <trkpt lat="46.36667" lon="5.15061">
        <ele>209.80000305176</ele>
        <time>2020-10-24T12:33:10.000Z</time>
      </trkpt>
      <trkpt lat="46.36666" lon="5.15081">
        <ele>210.19999694824</ele>
        <time>2020-10-24T12:33:12.000Z</time>
      </trkpt>
      <trkpt lat="46.36665" lon="5.15101">
        <ele>210.80000305176</ele>
        <time>2020-10-24T12:33:14.000Z</time>
      </trkpt>
      <trkpt lat="46.36665" lon="5.15119">
        <ele>211</ele>
        <time>2020-10-24T12:33:16.000Z</time>
      </trkpt>
      <trkpt lat="46.36665" lon="5.15128">
        <ele>211.19999694824</ele>
        <time>2020-10-24T12:33:17.000Z</time>
      </trkpt>
      <trkpt lat="46.36666" lon="5.15136">
        <ele>211.39999389648</ele>
        <time>2020-10-24T12:33:18.000Z</time>
      </trkpt>
      <trkpt lat="46.36668" lon="5.15152">
        <ele>211.60000610352</ele>
        <time>2020-10-24T12:33:20.000Z</time>
      </trkpt>
      <trkpt lat="46.36671" lon="5.15168">
        <ele>212</ele>
        <time>2020-10-24T12:33:22.000Z</time>
      </trkpt>
      <trkpt lat="46.36672" lon="5.15175">
        <ele>212.60000610352</ele>
        <time>2020-10-24T12:33:23.000Z</time>
      </trkpt>
      <trkpt lat="46.36673" lon="5.15183">
        <ele>213</ele>
        <time>2020-10-24T12:33:24.000Z</time>
      </trkpt>
      <trkpt lat="46.36674" lon="5.1519">
        <ele>213.60000610352</ele>
        <time>2020-10-24T12:33:25.000Z</time>
      </trkpt>
      <trkpt lat="46.36676" lon="5.15197">
        <ele>214.19999694824</ele>
        <time>2020-10-24T12:33:26.000Z</time>
      </trkpt>
      <trkpt lat="46.36677" lon="5.15204">
        <ele>214.80000305176</ele>
        <time>2020-10-24T12:33:27.000Z</time>
      </trkpt>
      <trkpt lat="46.36678" lon="5.1521">
        <ele>215.19999694824</ele>
        <time>2020-10-24T12:33:28.000Z</time>
      </trkpt>
      <trkpt lat="46.36679" lon="5.15217">
        <ele>215.39999389648</ele>
        <time>2020-10-24T12:33:29.000Z</time>
      </trkpt>
      <trkpt lat="46.36681" lon="5.15223">
        <ele>215.60000610352</ele>
        <time>2020-10-24T12:33:30.000Z</time>
      </trkpt>
      <trkpt lat="46.36682" lon="5.1523">
        <ele>216</ele>
        <time>2020-10-24T12:33:31.000Z</time>
      </trkpt>
      <trkpt lat="46.36683" lon="5.15236">
        <ele>216.39999389648</ele>
        <time>2020-10-24T12:33:32.000Z</time>
      </trkpt>
      <trkpt lat="46.36685" lon="5.15249">
        <ele>217.39999389648</ele>
        <time>2020-10-24T12:33:34.000Z</time>
      </trkpt>
      <trkpt lat="46.36688" lon="5.15261">
        <ele>218.19999694824</ele>
        <time>2020-10-24T12:33:36.000Z</time>
      </trkpt>
      <trkpt lat="46.36689" lon="5.15267">
        <ele>218.60000610352</ele>
        <time>2020-10-24T12:33:37.000Z</time>
      </trkpt>
      <trkpt lat="46.36691" lon="5.15273">
        <ele>219</ele>
        <time>2020-10-24T12:33:38.000Z</time>
      </trkpt>
      <trkpt lat="46.36693" lon="5.15285">
        <ele>219.60000610352</ele>
        <time>2020-10-24T12:33:40.000Z</time>
      </trkpt>
      <trkpt lat="46.36694" lon="5.15291">
        <ele>220</ele>
        <time>2020-10-24T12:33:41.000Z</time>
      </trkpt>
      <trkpt lat="46.36696" lon="5.15304">
        <ele>220.80000305176</ele>
        <time>2020-10-24T12:33:43.000Z</time>
      </trkpt>
      <trkpt lat="46.36698" lon="5.15311">
        <ele>221.19999694824</ele>
        <time>2020-10-24T12:33:44.000Z</time>
      </trkpt>
      <trkpt lat="46.367" lon="5.15318">
        <ele>221.60000610352</ele>
        <time>2020-10-24T12:33:45.000Z</time>
      </trkpt>
      <trkpt lat="46.36702" lon="5.15325">
        <ele>221.80000305176</ele>
        <time>2020-10-24T12:33:46.000Z</time>
      </trkpt>
      <trkpt lat="46.36708" lon="5.15341">
        <ele>221.80000305176</ele>
        <time>2020-10-24T12:33:48.000Z</time>
      </trkpt>
      <trkpt lat="46.36713" lon="5.15357">
        <ele>221.80000305176</ele>
        <time>2020-10-24T12:33:50.000Z</time>
      </trkpt>
      <trkpt lat="46.36718" lon="5.15376">
        <ele>221.80000305176</ele>
        <time>2020-10-24T12:33:52.000Z</time>
      </trkpt>
      <trkpt lat="46.36723" lon="5.15395">
        <ele>221.80000305176</ele>
        <time>2020-10-24T12:33:54.000Z</time>
      </trkpt>
      <trkpt lat="46.36728" lon="5.15416">
        <ele>221.19999694824</ele>
        <time>2020-10-24T12:33:56.000Z</time>
      </trkpt>
      <trkpt lat="46.36734" lon="5.15439">
        <ele>220.39999389648</ele>
        <time>2020-10-24T12:33:58.000Z</time>
      </trkpt>
      <trkpt lat="46.36737" lon="5.15451">
        <ele>220</ele>
        <time>2020-10-24T12:33:59.000Z</time>
      </trkpt>
      <trkpt lat="46.36741" lon="5.15463">
        <ele>219.60000610352</ele>
        <time>2020-10-24T12:34:00.000Z</time>
      </trkpt>
      <trkpt lat="46.36748" lon="5.15488">
        <ele>218.80000305176</ele>
        <time>2020-10-24T12:34:02.000Z</time>
      </trkpt>
      <trkpt lat="46.36754" lon="5.15516">
        <ele>217.80000305176</ele>
        <time>2020-10-24T12:34:04.000Z</time>
      </trkpt>
      <trkpt lat="46.36754" lon="5.15546">
        <ele>216.39999389648</ele>
        <time>2020-10-24T12:34:06.000Z</time>
      </trkpt>
      <trkpt lat="46.36748" lon="5.15576">
        <ele>215</ele>
        <time>2020-10-24T12:34:08.000Z</time>
      </trkpt>
      <trkpt lat="46.36743" lon="5.1559">
        <ele>214.39999389648</ele>
        <time>2020-10-24T12:34:09.000Z</time>
      </trkpt>
      <trkpt lat="46.36738" lon="5.15604">
        <ele>213.80000305176</ele>
        <time>2020-10-24T12:34:10.000Z</time>
      </trkpt>
      <trkpt lat="46.36729" lon="5.15632">
        <ele>212.39999389648</ele>
        <time>2020-10-24T12:34:12.000Z</time>
      </trkpt>
      <trkpt lat="46.36722" lon="5.1566">
        <ele>210.60000610352</ele>
        <time>2020-10-24T12:34:14.000Z</time>
      </trkpt>
      <trkpt lat="46.36717" lon="5.15689">
        <ele>209.19999694824</ele>
        <time>2020-10-24T12:34:16.000Z</time>
      </trkpt>
      <trkpt lat="46.36713" lon="5.15717">
        <ele>207.60000610352</ele>
        <time>2020-10-24T12:34:18.000Z</time>
      </trkpt>
      <trkpt lat="46.36712" lon="5.15731">
        <ele>207.19999694824</ele>
        <time>2020-10-24T12:34:19.000Z</time>
      </trkpt>
      <trkpt lat="46.36713" lon="5.15745">
        <ele>207</ele>
        <time>2020-10-24T12:34:20.000Z</time>
      </trkpt>
      <trkpt lat="46.36718" lon="5.15773">
        <ele>206.80000305176</ele>
        <time>2020-10-24T12:34:22.000Z</time>
      </trkpt>
      <trkpt lat="46.36721" lon="5.15787">
        <ele>206.60000610352</ele>
        <time>2020-10-24T12:34:23.000Z</time>
      </trkpt>
      <trkpt lat="46.36725" lon="5.15799">
        <ele>206.39999389648</ele>
        <time>2020-10-24T12:34:24.000Z</time>
      </trkpt>
      <trkpt lat="46.36734" lon="5.15824">
        <ele>206.19999694824</ele>
        <time>2020-10-24T12:34:26.000Z</time>
      </trkpt>
      <trkpt lat="46.36738" lon="5.15836">
        <ele>206.19999694824</ele>
        <time>2020-10-24T12:34:27.000Z</time>
      </trkpt>
      <trkpt lat="46.36742" lon="5.15848">
        <ele>206</ele>
        <time>2020-10-24T12:34:28.000Z</time>
      </trkpt>
      <trkpt lat="46.36751" lon="5.15871">
        <ele>206</ele>
        <time>2020-10-24T12:34:30.000Z</time>
      </trkpt>
      <trkpt lat="46.36759" lon="5.15894">
        <ele>206</ele>
        <time>2020-10-24T12:34:32.000Z</time>
      </trkpt>
      <trkpt lat="46.36766" lon="5.15917">
        <ele>206</ele>
        <time>2020-10-24T12:34:34.000Z</time>
      </trkpt>
      <trkpt lat="46.36768" lon="5.15928">
        <ele>206</ele>
        <time>2020-10-24T12:34:35.000Z</time>
      </trkpt>
      <trkpt lat="46.3677" lon="5.1594">
        <ele>206</ele>
        <time>2020-10-24T12:34:36.000Z</time>
      </trkpt>
      <trkpt lat="46.36771" lon="5.15962">
        <ele>206.19999694824</ele>
        <time>2020-10-24T12:34:38.000Z</time>
      </trkpt>
      <trkpt lat="46.36771" lon="5.15972">
        <ele>206.19999694824</ele>
        <time>2020-10-24T12:34:39.000Z</time>
      </trkpt>
      <trkpt lat="46.36769" lon="5.15982">
        <ele>206.39999389648</ele>
        <time>2020-10-24T12:34:40.000Z</time>
      </trkpt>
      <trkpt lat="46.36762" lon="5.15999">
        <ele>206.39999389648</ele>
        <time>2020-10-24T12:34:42.000Z</time>
      </trkpt>
      <trkpt lat="46.36753" lon="5.16012">
        <ele>206.60000610352</ele>
        <time>2020-10-24T12:34:44.000Z</time>
      </trkpt>
      <trkpt lat="46.36741" lon="5.16023">
        <ele>207</ele>
        <time>2020-10-24T12:34:46.000Z</time>
      </trkpt>
      <trkpt lat="46.36734" lon="5.16026">
        <ele>207.80000305176</ele>
        <time>2020-10-24T12:34:47.000Z</time>
      </trkpt>
      <trkpt lat="46.36727" lon="5.16029">
        <ele>208.19999694824</ele>
        <time>2020-10-24T12:34:48.000Z</time>
      </trkpt>
      <trkpt lat="46.36713" lon="5.16032">
        <ele>208.80000305176</ele>
        <time>2020-10-24T12:34:50.000Z</time>
      </trkpt>
      <trkpt lat="46.36705" lon="5.16033">
        <ele>208.80000305176</ele>
        <time>2020-10-24T12:34:51.000Z</time>
      </trkpt>
      <trkpt lat="46.36698" lon="5.16034">
        <ele>209</ele>
        <time>2020-10-24T12:34:52.000Z</time>
      </trkpt>
      <trkpt lat="46.36692" lon="5.16037">
        <ele>209</ele>
        <time>2020-10-24T12:34:53.000Z</time>
      </trkpt>
      <trkpt lat="46.36686" lon="5.16041">
        <ele>209</ele>
        <time>2020-10-24T12:34:54.000Z</time>
      </trkpt>
      <trkpt lat="46.3668" lon="5.16045">
        <ele>209.19999694824</ele>
        <time>2020-10-24T12:34:55.000Z</time>
      </trkpt>
      <trkpt lat="46.36676" lon="5.16051">
        <ele>209.19999694824</ele>
        <time>2020-10-24T12:34:56.000Z</time>
      </trkpt>
      <trkpt lat="46.3667" lon="5.16066">
        <ele>209.39999389648</ele>
        <time>2020-10-24T12:34:58.000Z</time>
      </trkpt>
      <trkpt lat="46.36668" lon="5.16073">
        <ele>209.39999389648</ele>
        <time>2020-10-24T12:34:59.000Z</time>
      </trkpt>
      <trkpt lat="46.36667" lon="5.1608">
        <ele>209.39999389648</ele>
        <time>2020-10-24T12:35:00.000Z</time>
      </trkpt>
      <trkpt lat="46.36665" lon="5.16096">
        <ele>209.60000610352</ele>
        <time>2020-10-24T12:35:02.000Z</time>
      </trkpt>
      <trkpt lat="46.36664" lon="5.16103">
        <ele>210</ele>
        <time>2020-10-24T12:35:03.000Z</time>
      </trkpt>
      <trkpt lat="46.36662" lon="5.1611">
        <ele>210.19999694824</ele>
        <time>2020-10-24T12:35:04.000Z</time>
      </trkpt>
      <trkpt lat="46.36659" lon="5.16125">
        <ele>210.80000305176</ele>
        <time>2020-10-24T12:35:06.000Z</time>
      </trkpt>
      <trkpt lat="46.36657" lon="5.16132">
        <ele>211</ele>
        <time>2020-10-24T12:35:07.000Z</time>
      </trkpt>
      <trkpt lat="46.36655" lon="5.16139">
        <ele>211.19999694824</ele>
        <time>2020-10-24T12:35:08.000Z</time>
      </trkpt>
      <trkpt lat="46.36651" lon="5.16153">
        <ele>211.60000610352</ele>
        <time>2020-10-24T12:35:10.000Z</time>
      </trkpt>
      <trkpt lat="46.36649" lon="5.1616">
        <ele>211.60000610352</ele>
        <time>2020-10-24T12:35:11.000Z</time>
      </trkpt>
      <trkpt lat="46.36646" lon="5.16167">
        <ele>211.80000305176</ele>
        <time>2020-10-24T12:35:12.000Z</time>
      </trkpt>
      <trkpt lat="46.36642" lon="5.1618">
        <ele>212</ele>
        <time>2020-10-24T12:35:14.000Z</time>
      </trkpt>
      <trkpt lat="46.36639" lon="5.16194">
        <ele>212.19999694824</ele>
        <time>2020-10-24T12:35:16.000Z</time>
      </trkpt>
      <trkpt lat="46.36636" lon="5.16208">
        <ele>212.39999389648</ele>
        <time>2020-10-24T12:35:18.000Z</time>
      </trkpt>
      <trkpt lat="46.36633" lon="5.16222">
        <ele>213</ele>
        <time>2020-10-24T12:35:20.000Z</time>
      </trkpt>
      <trkpt lat="46.36632" lon="5.16236">
        <ele>213.60000610352</ele>
        <time>2020-10-24T12:35:22.000Z</time>
      </trkpt>
      <trkpt lat="46.36631" lon="5.1625">
        <ele>214.19999694824</ele>
        <time>2020-10-24T12:35:24.000Z</time>
      </trkpt>
      <trkpt lat="46.3663" lon="5.16257">
        <ele>214.39999389648</ele>
        <time>2020-10-24T12:35:25.000Z</time>
      </trkpt>
      <trkpt lat="46.36629" lon="5.16263">
        <ele>214.80000305176</ele>
        <time>2020-10-24T12:35:26.000Z</time>
      </trkpt>
      <trkpt lat="46.36629" lon="5.16276">
        <ele>215</ele>
        <time>2020-10-24T12:35:28.000Z</time>
      </trkpt>
      <trkpt lat="46.36628" lon="5.16288">
        <ele>215.39999389648</ele>
        <time>2020-10-24T12:35:30.000Z</time>
      </trkpt>
      <trkpt lat="46.36626" lon="5.16301">
        <ele>215.60000610352</ele>
        <time>2020-10-24T12:35:32.000Z</time>
      </trkpt>
      <trkpt lat="46.36626" lon="5.16307">
        <ele>215.80000305176</ele>
        <time>2020-10-24T12:35:33.000Z</time>
      </trkpt>
      <trkpt lat="46.36625" lon="5.16312">
        <ele>216</ele>
        <time>2020-10-24T12:35:34.000Z</time>
      </trkpt>
      <trkpt lat="46.36624" lon="5.16324">
        <ele>216.60000610352</ele>
        <time>2020-10-24T12:35:36.000Z</time>
      </trkpt>
      <trkpt lat="46.36623" lon="5.16329">
        <ele>217</ele>
        <time>2020-10-24T12:35:37.000Z</time>
      </trkpt>
      <trkpt lat="46.36623" lon="5.16335">
        <ele>217.39999389648</ele>
        <time>2020-10-24T12:35:38.000Z</time>
      </trkpt>
      <trkpt lat="46.36621" lon="5.16345">
        <ele>218</ele>
        <time>2020-10-24T12:35:40.000Z</time>
      </trkpt>
      <trkpt lat="46.36619" lon="5.16356">
        <ele>218.80000305176</ele>
        <time>2020-10-24T12:35:42.000Z</time>
      </trkpt>
      <trkpt lat="46.36618" lon="5.16361">
        <ele>219.39999389648</ele>
        <time>2020-10-24T12:35:43.000Z</time>
      </trkpt>
      <trkpt lat="46.36617" lon="5.16365">
        <ele>219.60000610352</ele>
        <time>2020-10-24T12:35:44.000Z</time>
      </trkpt>
      <trkpt lat="46.36615" lon="5.16375">
        <ele>220.39999389648</ele>
        <time>2020-10-24T12:35:46.000Z</time>
      </trkpt>
      <trkpt lat="46.36614" lon="5.1638">
        <ele>220.80000305176</ele>
        <time>2020-10-24T12:35:47.000Z</time>
      </trkpt>
      <trkpt lat="46.36612" lon="5.16384">
        <ele>221</ele>
        <time>2020-10-24T12:35:48.000Z</time>
      </trkpt>
      <trkpt lat="46.3661" lon="5.16394">
        <ele>221.39999389648</ele>
        <time>2020-10-24T12:35:50.000Z</time>
      </trkpt>
      <trkpt lat="46.36608" lon="5.16398">
        <ele>221.80000305176</ele>
        <time>2020-10-24T12:35:51.000Z</time>
      </trkpt>
      <trkpt lat="46.36607" lon="5.16403">
        <ele>222</ele>
        <time>2020-10-24T12:35:52.000Z</time>
      </trkpt>
      <trkpt lat="46.36605" lon="5.16407">
        <ele>222.39999389648</ele>
        <time>2020-10-24T12:35:53.000Z</time>
      </trkpt>
      <trkpt lat="46.36603" lon="5.16412">
        <ele>222.80000305176</ele>
        <time>2020-10-24T12:35:54.000Z</time>
      </trkpt>
      <trkpt lat="46.36599" lon="5.16422">
        <ele>223.60000610352</ele>
        <time>2020-10-24T12:35:56.000Z</time>
      </trkpt>
      <trkpt lat="46.36596" lon="5.16433">
        <ele>224</ele>
        <time>2020-10-24T12:35:58.000Z</time>
      </trkpt>
      <trkpt lat="46.36593" lon="5.16443">
        <ele>224.60000610352</ele>
        <time>2020-10-24T12:36:00.000Z</time>
      </trkpt>
      <trkpt lat="46.36591" lon="5.16449">
        <ele>224.80000305176</ele>
        <time>2020-10-24T12:36:01.000Z</time>
      </trkpt>
      <trkpt lat="46.3659" lon="5.16455">
        <ele>225</ele>
        <time>2020-10-24T12:36:02.000Z</time>
      </trkpt>
      <trkpt lat="46.36588" lon="5.1646">
        <ele>225.19999694824</ele>
        <time>2020-10-24T12:36:03.000Z</time>
      </trkpt>
      <trkpt lat="46.36587" lon="5.16466">
        <ele>225.19999694824</ele>
        <time>2020-10-24T12:36:04.000Z</time>
      </trkpt>
      <trkpt lat="46.36583" lon="5.16477">
        <ele>225.60000610352</ele>
        <time>2020-10-24T12:36:06.000Z</time>
      </trkpt>
      <trkpt lat="46.3658" lon="5.16487">
        <ele>226</ele>
        <time>2020-10-24T12:36:08.000Z</time>
      </trkpt>
      <trkpt lat="46.36576" lon="5.16498">
        <ele>226.19999694824</ele>
        <time>2020-10-24T12:36:10.000Z</time>
      </trkpt>
      <trkpt lat="46.36573" lon="5.16509">
        <ele>226.39999389648</ele>
        <time>2020-10-24T12:36:12.000Z</time>
      </trkpt>
      <trkpt lat="46.36571" lon="5.16514">
        <ele>226.80000305176</ele>
        <time>2020-10-24T12:36:13.000Z</time>
      </trkpt>
      <trkpt lat="46.3657" lon="5.1652">
        <ele>227</ele>
        <time>2020-10-24T12:36:14.000Z</time>
      </trkpt>
      <trkpt lat="46.3657" lon="5.16533">
        <ele>227.60000610352</ele>
        <time>2020-10-24T12:36:16.000Z</time>
      </trkpt>
      <trkpt lat="46.36571" lon="5.16546">
        <ele>228</ele>
        <time>2020-10-24T12:36:18.000Z</time>
      </trkpt>
      <trkpt lat="46.36575" lon="5.16558">
        <ele>228</ele>
        <time>2020-10-24T12:36:20.000Z</time>
      </trkpt>
      <trkpt lat="46.36576" lon="5.16563">
        <ele>228</ele>
        <time>2020-10-24T12:36:21.000Z</time>
      </trkpt>
      <trkpt lat="46.36577" lon="5.16569">
        <ele>228</ele>
        <time>2020-10-24T12:36:22.000Z</time>
      </trkpt>
      <trkpt lat="46.36574" lon="5.16579">
        <ele>228.19999694824</ele>
        <time>2020-10-24T12:36:24.000Z</time>
      </trkpt>
      <trkpt lat="46.36566" lon="5.16585">
        <ele>228.19999694824</ele>
        <time>2020-10-24T12:36:26.000Z</time>
      </trkpt>
      <trkpt lat="46.36561" lon="5.16587">
        <ele>228.19999694824</ele>
        <time>2020-10-24T12:36:27.000Z</time>
      </trkpt>
      <trkpt lat="46.36555" lon="5.16588">
        <ele>228.19999694824</ele>
        <time>2020-10-24T12:36:28.000Z</time>
      </trkpt>
      <trkpt lat="46.3655" lon="5.16589">
        <ele>228.19999694824</ele>
        <time>2020-10-24T12:36:29.000Z</time>
      </trkpt>
      <trkpt lat="46.36544" lon="5.1659">
        <ele>228.19999694824</ele>
        <time>2020-10-24T12:36:30.000Z</time>
      </trkpt>
      <trkpt lat="46.36533" lon="5.1659">
        <ele>228.19999694824</ele>
        <time>2020-10-24T12:36:32.000Z</time>
      </trkpt>
      <trkpt lat="46.36527" lon="5.1659">
        <ele>228.19999694824</ele>
        <time>2020-10-24T12:36:33.000Z</time>
      </trkpt>
      <trkpt lat="46.36521" lon="5.16588">
        <ele>228</ele>
        <time>2020-10-24T12:36:34.000Z</time>
      </trkpt>
      <trkpt lat="46.36516" lon="5.16587">
        <ele>228</ele>
        <time>2020-10-24T12:36:35.000Z</time>
      </trkpt>
      <trkpt lat="46.3651" lon="5.16585">
        <ele>227.80000305176</ele>
        <time>2020-10-24T12:36:36.000Z</time>
      </trkpt>
      <trkpt lat="46.36499" lon="5.16579">
        <ele>227.80000305176</ele>
        <time>2020-10-24T12:36:38.000Z</time>
      </trkpt>
      <trkpt lat="46.36494" lon="5.16575">
        <ele>227.60000610352</ele>
        <time>2020-10-24T12:36:39.000Z</time>
      </trkpt>
      <trkpt lat="46.36489" lon="5.16571">
        <ele>227.60000610352</ele>
        <time>2020-10-24T12:36:40.000Z</time>
      </trkpt>
      <trkpt lat="46.36479" lon="5.16563">
        <ele>227.60000610352</ele>
        <time>2020-10-24T12:36:42.000Z</time>
      </trkpt>
      <trkpt lat="46.36469" lon="5.16554">
        <ele>227.60000610352</ele>
        <time>2020-10-24T12:36:44.000Z</time>
      </trkpt>
      <trkpt lat="46.3646" lon="5.16546">
        <ele>227.60000610352</ele>
        <time>2020-10-24T12:36:46.000Z</time>
      </trkpt>
      <trkpt lat="46.36452" lon="5.16539">
        <ele>227.60000610352</ele>
        <time>2020-10-24T12:36:48.000Z</time>
      </trkpt>
      <trkpt lat="46.36447" lon="5.16536">
        <ele>227.60000610352</ele>
        <time>2020-10-24T12:36:49.000Z</time>
      </trkpt>
      <trkpt lat="46.36443" lon="5.16535">
        <ele>227.60000610352</ele>
        <time>2020-10-24T12:36:50.000Z</time>
      </trkpt>
      <trkpt lat="46.3644" lon="5.16535">
        <ele>227.60000610352</ele>
        <time>2020-10-24T12:36:51.000Z</time>
      </trkpt>
      <trkpt lat="46.36438" lon="5.16535">
        <ele>227.80000305176</ele>
        <time>2020-10-24T12:36:52.000Z</time>
      </trkpt>
      <trkpt lat="46.36434" lon="5.16536">
        <ele>227.80000305176</ele>
        <time>2020-10-24T12:36:54.000Z</time>
      </trkpt>
      <trkpt lat="46.36433" lon="5.1654">
        <ele>228</ele>
        <time>2020-10-24T12:36:55.000Z</time>
      </trkpt>
      <trkpt lat="46.36432" lon="5.16545">
        <ele>228</ele>
        <time>2020-10-24T12:36:56.000Z</time>
      </trkpt>
      <trkpt lat="46.36436" lon="5.16557">
        <ele>228.19999694824</ele>
        <time>2020-10-24T12:36:58.000Z</time>
      </trkpt>
      <trkpt lat="46.36438" lon="5.16563">
        <ele>228.19999694824</ele>
        <time>2020-10-24T12:36:59.000Z</time>
      </trkpt>
      <trkpt lat="46.36441" lon="5.16569">
        <ele>228.19999694824</ele>
        <time>2020-10-24T12:37:00.000Z</time>
      </trkpt>
      <trkpt lat="46.36446" lon="5.16583">
        <ele>228.39999389648</ele>
        <time>2020-10-24T12:37:02.000Z</time>
      </trkpt>
      <trkpt lat="46.36452" lon="5.16598">
        <ele>228.39999389648</ele>
        <time>2020-10-24T12:37:04.000Z</time>
      </trkpt>
      <trkpt lat="46.36459" lon="5.16615">
        <ele>228.39999389648</ele>
        <time>2020-10-24T12:37:06.000Z</time>
      </trkpt>
      <trkpt lat="46.36465" lon="5.16632">
        <ele>228.39999389648</ele>
        <time>2020-10-24T12:37:08.000Z</time>
      </trkpt>
      <trkpt lat="46.36471" lon="5.1665">
        <ele>228.39999389648</ele>
        <time>2020-10-24T12:37:10.000Z</time>
      </trkpt>
      <trkpt lat="46.36475" lon="5.16659">
        <ele>228.39999389648</ele>
        <time>2020-10-24T12:37:11.000Z</time>
      </trkpt>
      <trkpt lat="46.36478" lon="5.16668">
        <ele>228.39999389648</ele>
        <time>2020-10-24T12:37:12.000Z</time>
      </trkpt>
      <trkpt lat="46.36485" lon="5.16687">
        <ele>228</ele>
        <time>2020-10-24T12:37:14.000Z</time>
      </trkpt>
      <trkpt lat="46.36493" lon="5.16707">
        <ele>227.60000610352</ele>
        <time>2020-10-24T12:37:16.000Z</time>
      </trkpt>
      <trkpt lat="46.36501" lon="5.16727">
        <ele>227.19999694824</ele>
        <time>2020-10-24T12:37:18.000Z</time>
      </trkpt>
      <trkpt lat="46.36504" lon="5.16737">
        <ele>227.19999694824</ele>
        <time>2020-10-24T12:37:19.000Z</time>
      </trkpt>
      <trkpt lat="46.36508" lon="5.16748">
        <ele>227</ele>
        <time>2020-10-24T12:37:20.000Z</time>
      </trkpt>
      <trkpt lat="46.36516" lon="5.1677">
        <ele>227</ele>
        <time>2020-10-24T12:37:22.000Z</time>
      </trkpt>
      <trkpt lat="46.36521" lon="5.16781">
        <ele>226.39999389648</ele>
        <time>2020-10-24T12:37:23.000Z</time>
      </trkpt>
      <trkpt lat="46.36525" lon="5.16792">
        <ele>226.19999694824</ele>
        <time>2020-10-24T12:37:24.000Z</time>
      </trkpt>
      <trkpt lat="46.36534" lon="5.16815">
        <ele>225.80000305176</ele>
        <time>2020-10-24T12:37:26.000Z</time>
      </trkpt>
      <trkpt lat="46.36538" lon="5.16826">
        <ele>225.80000305176</ele>
        <time>2020-10-24T12:37:27.000Z</time>
      </trkpt>
      <trkpt lat="46.36543" lon="5.16837">
        <ele>225.60000610352</ele>
        <time>2020-10-24T12:37:28.000Z</time>
      </trkpt>
      <trkpt lat="46.36547" lon="5.16849">
        <ele>225.39999389648</ele>
        <time>2020-10-24T12:37:29.000Z</time>
      </trkpt>
      <trkpt lat="46.36551" lon="5.1686">
        <ele>225.19999694824</ele>
        <time>2020-10-24T12:37:30.000Z</time>
      </trkpt>
      <trkpt lat="46.3656" lon="5.16882">
        <ele>224.80000305176</ele>
        <time>2020-10-24T12:37:32.000Z</time>
      </trkpt>
      <trkpt lat="46.36569" lon="5.16903">
        <ele>224.19999694824</ele>
        <time>2020-10-24T12:37:34.000Z</time>
      </trkpt>
      <trkpt lat="46.36572" lon="5.16914">
        <ele>224</ele>
        <time>2020-10-24T12:37:35.000Z</time>
      </trkpt>
      <trkpt lat="46.36575" lon="5.16925">
        <ele>224</ele>
        <time>2020-10-24T12:37:36.000Z</time>
      </trkpt>
      <trkpt lat="46.36583" lon="5.16944">
        <ele>223.80000305176</ele>
        <time>2020-10-24T12:37:38.000Z</time>
      </trkpt>
      <trkpt lat="46.3659" lon="5.16963">
        <ele>223.80000305176</ele>
        <time>2020-10-24T12:37:40.000Z</time>
      </trkpt>
      <trkpt lat="46.36597" lon="5.1698">
        <ele>223.80000305176</ele>
        <time>2020-10-24T12:37:42.000Z</time>
      </trkpt>
      <trkpt lat="46.36603" lon="5.16996">
        <ele>223.80000305176</ele>
        <time>2020-10-24T12:37:44.000Z</time>
      </trkpt>
      <trkpt lat="46.36609" lon="5.17012">
        <ele>224.39999389648</ele>
        <time>2020-10-24T12:37:46.000Z</time>
      </trkpt>
      <trkpt lat="46.36614" lon="5.17028">
        <ele>225.19999694824</ele>
        <time>2020-10-24T12:37:48.000Z</time>
      </trkpt>
      <trkpt lat="46.3662" lon="5.17042">
        <ele>226</ele>
        <time>2020-10-24T12:37:50.000Z</time>
      </trkpt>
      <trkpt lat="46.36622" lon="5.17049">
        <ele>226.39999389648</ele>
        <time>2020-10-24T12:37:51.000Z</time>
      </trkpt>
      <trkpt lat="46.36625" lon="5.17056">
        <ele>227</ele>
        <time>2020-10-24T12:37:52.000Z</time>
      </trkpt>
      <trkpt lat="46.36631" lon="5.1707">
        <ele>227.80000305176</ele>
        <time>2020-10-24T12:37:54.000Z</time>
      </trkpt>
      <trkpt lat="46.36636" lon="5.17084">
        <ele>228.80000305176</ele>
        <time>2020-10-24T12:37:56.000Z</time>
      </trkpt>
      <trkpt lat="46.36639" lon="5.1709">
        <ele>229</ele>
        <time>2020-10-24T12:37:57.000Z</time>
      </trkpt>
      <trkpt lat="46.36642" lon="5.17097">
        <ele>229.19999694824</ele>
        <time>2020-10-24T12:37:58.000Z</time>
      </trkpt>
      <trkpt lat="46.36647" lon="5.17111">
        <ele>229.80000305176</ele>
        <time>2020-10-24T12:38:00.000Z</time>
      </trkpt>
      <trkpt lat="46.36649" lon="5.17117">
        <ele>230</ele>
        <time>2020-10-24T12:38:01.000Z</time>
      </trkpt>
      <trkpt lat="46.36651" lon="5.17124">
        <ele>230.60000610352</ele>
        <time>2020-10-24T12:38:02.000Z</time>
      </trkpt>
      <trkpt lat="46.36656" lon="5.17137">
        <ele>231</ele>
        <time>2020-10-24T12:38:04.000Z</time>
      </trkpt>
      <trkpt lat="46.36659" lon="5.17144">
        <ele>231.19999694824</ele>
        <time>2020-10-24T12:38:05.000Z</time>
      </trkpt>
      <trkpt lat="46.36661" lon="5.1715">
        <ele>231.60000610352</ele>
        <time>2020-10-24T12:38:06.000Z</time>
      </trkpt>
      <trkpt lat="46.36666" lon="5.17164">
        <ele>232</ele>
        <time>2020-10-24T12:38:08.000Z</time>
      </trkpt>
      <trkpt lat="46.36671" lon="5.17176">
        <ele>232</ele>
        <time>2020-10-24T12:38:10.000Z</time>
      </trkpt>
      <trkpt lat="46.36676" lon="5.17189">
        <ele>232.19999694824</ele>
        <time>2020-10-24T12:38:12.000Z</time>
      </trkpt>
      <trkpt lat="46.36678" lon="5.17195">
        <ele>232.39999389648</ele>
        <time>2020-10-24T12:38:13.000Z</time>
      </trkpt>
      <trkpt lat="46.3668" lon="5.17202">
        <ele>232.39999389648</ele>
        <time>2020-10-24T12:38:14.000Z</time>
      </trkpt>
      <trkpt lat="46.36685" lon="5.17214">
        <ele>232.60000610352</ele>
        <time>2020-10-24T12:38:16.000Z</time>
      </trkpt>
      <trkpt lat="46.36689" lon="5.17227">
        <ele>232.80000305176</ele>
        <time>2020-10-24T12:38:18.000Z</time>
      </trkpt>
      <trkpt lat="46.36694" lon="5.1724">
        <ele>233</ele>
        <time>2020-10-24T12:38:20.000Z</time>
      </trkpt>
      <trkpt lat="46.36699" lon="5.17254">
        <ele>233.39999389648</ele>
        <time>2020-10-24T12:38:22.000Z</time>
      </trkpt>
      <trkpt lat="46.36704" lon="5.17267">
        <ele>233.80000305176</ele>
        <time>2020-10-24T12:38:24.000Z</time>
      </trkpt>
      <trkpt lat="46.36708" lon="5.1728">
        <ele>234.39999389648</ele>
        <time>2020-10-24T12:38:26.000Z</time>
      </trkpt>
      <trkpt lat="46.3671" lon="5.17287">
        <ele>234.60000610352</ele>
        <time>2020-10-24T12:38:27.000Z</time>
      </trkpt>
      <trkpt lat="46.36713" lon="5.17294">
        <ele>234.60000610352</ele>
        <time>2020-10-24T12:38:28.000Z</time>
      </trkpt>
      <trkpt lat="46.36719" lon="5.17308">
        <ele>234.80000305176</ele>
        <time>2020-10-24T12:38:30.000Z</time>
      </trkpt>
      <trkpt lat="46.36726" lon="5.17323">
        <ele>235</ele>
        <time>2020-10-24T12:38:32.000Z</time>
      </trkpt>
      <trkpt lat="46.3673" lon="5.1733">
        <ele>235</ele>
        <time>2020-10-24T12:38:33.000Z</time>
      </trkpt>
      <trkpt lat="46.36735" lon="5.17336">
        <ele>235</ele>
        <time>2020-10-24T12:38:34.000Z</time>
      </trkpt>
      <trkpt lat="46.36744" lon="5.17349">
        <ele>235</ele>
        <time>2020-10-24T12:38:36.000Z</time>
      </trkpt>
      <trkpt lat="46.36753" lon="5.17362">
        <ele>235.19999694824</ele>
        <time>2020-10-24T12:38:38.000Z</time>
      </trkpt>
      <trkpt lat="46.36763" lon="5.17375">
        <ele>235.19999694824</ele>
        <time>2020-10-24T12:38:40.000Z</time>
      </trkpt>
      <trkpt lat="46.36768" lon="5.17381">
        <ele>235.19999694824</ele>
        <time>2020-10-24T12:38:41.000Z</time>
      </trkpt>
      <trkpt lat="46.36773" lon="5.17388">
        <ele>235.39999389648</ele>
        <time>2020-10-24T12:38:42.000Z</time>
      </trkpt>
      <trkpt lat="46.36783" lon="5.17401">
        <ele>235.19999694824</ele>
        <time>2020-10-24T12:38:44.000Z</time>
      </trkpt>
      <trkpt lat="46.36792" lon="5.17414">
        <ele>235</ele>
        <time>2020-10-24T12:38:46.000Z</time>
      </trkpt>
      <trkpt lat="46.36802" lon="5.17426">
        <ele>235</ele>
        <time>2020-10-24T12:38:48.000Z</time>
      </trkpt>
      <trkpt lat="46.36813" lon="5.17436">
        <ele>235.19999694824</ele>
        <time>2020-10-24T12:38:50.000Z</time>
      </trkpt>
      <trkpt lat="46.36824" lon="5.17445">
        <ele>235.19999694824</ele>
        <time>2020-10-24T12:38:52.000Z</time>
      </trkpt>
      <trkpt lat="46.36835" lon="5.17453">
        <ele>235.19999694824</ele>
        <time>2020-10-24T12:38:54.000Z</time>
      </trkpt>
      <trkpt lat="46.36846" lon="5.17459">
        <ele>235.19999694824</ele>
        <time>2020-10-24T12:38:56.000Z</time>
      </trkpt>
      <trkpt lat="46.36856" lon="5.17465">
        <ele>235.39999389648</ele>
        <time>2020-10-24T12:38:58.000Z</time>
      </trkpt>
      <trkpt lat="46.36868" lon="5.17469">
        <ele>235.60000610352</ele>
        <time>2020-10-24T12:39:00.000Z</time>
      </trkpt>
      <trkpt lat="46.36874" lon="5.17471">
        <ele>235.80000305176</ele>
        <time>2020-10-24T12:39:01.000Z</time>
      </trkpt>
      <trkpt lat="46.3688" lon="5.17471">
        <ele>236</ele>
        <time>2020-10-24T12:39:02.000Z</time>
      </trkpt>
      <trkpt lat="46.36892" lon="5.17472">
        <ele>236.19999694824</ele>
        <time>2020-10-24T12:39:04.000Z</time>
      </trkpt>
      <trkpt lat="46.36898" lon="5.17471">
        <ele>236.19999694824</ele>
        <time>2020-10-24T12:39:06.000Z</time>
      </trkpt>
      <trkpt lat="46.36901" lon="5.1747">
        <ele>236.39999389648</ele>
        <time>2020-10-24T12:39:08.000Z</time>
      </trkpt>
      <trkpt lat="46.36903" lon="5.1747">
        <ele>236.60000610352</ele>
        <time>2020-10-24T12:39:10.000Z</time>
      </trkpt>
      <trkpt lat="46.36905" lon="5.17471">
        <ele>236.60000610352</ele>
        <time>2020-10-24T12:39:11.000Z</time>
      </trkpt>
      <trkpt lat="46.36908" lon="5.17472">
        <ele>236.60000610352</ele>
        <time>2020-10-24T12:39:12.000Z</time>
      </trkpt>
      <trkpt lat="46.36912" lon="5.17474">
        <ele>236.80000305176</ele>
        <time>2020-10-24T12:39:13.000Z</time>
      </trkpt>
      <trkpt lat="46.36916" lon="5.17474">
        <ele>236.60000610352</ele>
        <time>2020-10-24T12:39:14.000Z</time>
      </trkpt>
      <trkpt lat="46.36927" lon="5.17474">
        <ele>236.39999389648</ele>
        <time>2020-10-24T12:39:16.000Z</time>
      </trkpt>
      <trkpt lat="46.36939" lon="5.17475">
        <ele>236.39999389648</ele>
        <time>2020-10-24T12:39:18.000Z</time>
      </trkpt>
      <trkpt lat="46.36945" lon="5.17476">
        <ele>236.39999389648</ele>
        <time>2020-10-24T12:39:19.000Z</time>
      </trkpt>
      <trkpt lat="46.36951" lon="5.17477">
        <ele>236.39999389648</ele>
        <time>2020-10-24T12:39:20.000Z</time>
      </trkpt>
      <trkpt lat="46.36957" lon="5.17479">
        <ele>236.39999389648</ele>
        <time>2020-10-24T12:39:21.000Z</time>
      </trkpt>
      <trkpt lat="46.36963" lon="5.17482">
        <ele>236.19999694824</ele>
        <time>2020-10-24T12:39:22.000Z</time>
      </trkpt>
      <trkpt lat="46.36976" lon="5.17488">
        <ele>235.80000305176</ele>
        <time>2020-10-24T12:39:24.000Z</time>
      </trkpt>
      <trkpt lat="46.36982" lon="5.17492">
        <ele>235.60000610352</ele>
        <time>2020-10-24T12:39:25.000Z</time>
      </trkpt>
      <trkpt lat="46.36987" lon="5.17496">
        <ele>235.39999389648</ele>
        <time>2020-10-24T12:39:26.000Z</time>
      </trkpt>
      <trkpt lat="46.36992" lon="5.17503">
        <ele>235.19999694824</ele>
        <time>2020-10-24T12:39:27.000Z</time>
      </trkpt>
      <trkpt lat="46.36995" lon="5.1751">
        <ele>235.19999694824</ele>
        <time>2020-10-24T12:39:28.000Z</time>
      </trkpt>
      <trkpt lat="46.36998" lon="5.17523">
        <ele>235.19999694824</ele>
        <time>2020-10-24T12:39:30.000Z</time>
      </trkpt>
      <trkpt lat="46.37003" lon="5.17533">
        <ele>235.19999694824</ele>
        <time>2020-10-24T12:39:32.000Z</time>
      </trkpt>
      <trkpt lat="46.37006" lon="5.17536">
        <ele>235.19999694824</ele>
        <time>2020-10-24T12:39:33.000Z</time>
      </trkpt>
      <trkpt lat="46.3701" lon="5.17538">
        <ele>235.19999694824</ele>
        <time>2020-10-24T12:39:34.000Z</time>
      </trkpt>
      <trkpt lat="46.37019" lon="5.17545">
        <ele>235.19999694824</ele>
        <time>2020-10-24T12:39:36.000Z</time>
      </trkpt>
      <trkpt lat="46.37023" lon="5.17551">
        <ele>235.39999389648</ele>
        <time>2020-10-24T12:39:37.000Z</time>
      </trkpt>
      <trkpt lat="46.37026" lon="5.17557">
        <ele>235.60000610352</ele>
        <time>2020-10-24T12:39:38.000Z</time>
      </trkpt>
      <trkpt lat="46.37026" lon="5.17565">
        <ele>235.80000305176</ele>
        <time>2020-10-24T12:39:39.000Z</time>
      </trkpt>
      <trkpt lat="46.37024" lon="5.17572">
        <ele>236</ele>
        <time>2020-10-24T12:39:40.000Z</time>
      </trkpt>
      <trkpt lat="46.37022" lon="5.17588">
        <ele>236.19999694824</ele>
        <time>2020-10-24T12:39:42.000Z</time>
      </trkpt>
      <trkpt lat="46.37021" lon="5.17596">
        <ele>236.19999694824</ele>
        <time>2020-10-24T12:39:43.000Z</time>
      </trkpt>
      <trkpt lat="46.3702" lon="5.17605">
        <ele>236.19999694824</ele>
        <time>2020-10-24T12:39:44.000Z</time>
      </trkpt>
      <trkpt lat="46.3702" lon="5.17623">
        <ele>236.19999694824</ele>
        <time>2020-10-24T12:39:46.000Z</time>
      </trkpt>
      <trkpt lat="46.3702" lon="5.17641">
        <ele>236.19999694824</ele>
        <time>2020-10-24T12:39:48.000Z</time>
      </trkpt>
      <trkpt lat="46.3702" lon="5.1766">
        <ele>235.80000305176</ele>
        <time>2020-10-24T12:39:50.000Z</time>
      </trkpt>
      <trkpt lat="46.37022" lon="5.17681">
        <ele>234.80000305176</ele>
        <time>2020-10-24T12:39:52.000Z</time>
      </trkpt>
      <trkpt lat="46.37023" lon="5.17692">
        <ele>234.39999389648</ele>
        <time>2020-10-24T12:39:53.000Z</time>
      </trkpt>
      <trkpt lat="46.37026" lon="5.17704">
        <ele>234.19999694824</ele>
        <time>2020-10-24T12:39:54.000Z</time>
      </trkpt>
      <trkpt lat="46.3703" lon="5.1773">
        <ele>234</ele>
        <time>2020-10-24T12:39:56.000Z</time>
      </trkpt>
      <trkpt lat="46.37033" lon="5.17742">
        <ele>233.80000305176</ele>
        <time>2020-10-24T12:39:57.000Z</time>
      </trkpt>
      <trkpt lat="46.37036" lon="5.17755">
        <ele>233.39999389648</ele>
        <time>2020-10-24T12:39:58.000Z</time>
      </trkpt>
      <trkpt lat="46.37044" lon="5.17782">
        <ele>232.19999694824</ele>
        <time>2020-10-24T12:40:00.000Z</time>
      </trkpt>
      <trkpt lat="46.37051" lon="5.1781">
        <ele>230.39999389648</ele>
        <time>2020-10-24T12:40:02.000Z</time>
      </trkpt>
      <trkpt lat="46.37058" lon="5.17838">
        <ele>228.80000305176</ele>
        <time>2020-10-24T12:40:04.000Z</time>
      </trkpt>
      <trkpt lat="46.37064" lon="5.17867">
        <ele>228</ele>
        <time>2020-10-24T12:40:06.000Z</time>
      </trkpt>
      <trkpt lat="46.37067" lon="5.17882">
        <ele>227.60000610352</ele>
        <time>2020-10-24T12:40:07.000Z</time>
      </trkpt>
      <trkpt lat="46.3707" lon="5.17896">
        <ele>227.19999694824</ele>
        <time>2020-10-24T12:40:08.000Z</time>
      </trkpt>
      <trkpt lat="46.37073" lon="5.17911">
        <ele>226.60000610352</ele>
        <time>2020-10-24T12:40:09.000Z</time>
      </trkpt>
      <trkpt lat="46.37076" lon="5.17925">
        <ele>226</ele>
        <time>2020-10-24T12:40:10.000Z</time>
      </trkpt>
      <trkpt lat="46.37079" lon="5.17939">
        <ele>225.39999389648</ele>
        <time>2020-10-24T12:40:11.000Z</time>
      </trkpt>
      <trkpt lat="46.37082" lon="5.17952">
        <ele>224.60000610352</ele>
        <time>2020-10-24T12:40:12.000Z</time>
      </trkpt>
      <trkpt lat="46.37086" lon="5.17966">
        <ele>224</ele>
        <time>2020-10-24T12:40:13.000Z</time>
      </trkpt>
      <trkpt lat="46.37089" lon="5.17979">
        <ele>223.19999694824</ele>
        <time>2020-10-24T12:40:14.000Z</time>
      </trkpt>
      <trkpt lat="46.37093" lon="5.17992">
        <ele>222.60000610352</ele>
        <time>2020-10-24T12:40:15.000Z</time>
      </trkpt>
      <trkpt lat="46.37097" lon="5.18005">
        <ele>222.19999694824</ele>
        <time>2020-10-24T12:40:16.000Z</time>
      </trkpt>
      <trkpt lat="46.37101" lon="5.18017">
        <ele>222</ele>
        <time>2020-10-24T12:40:17.000Z</time>
      </trkpt>
      <trkpt lat="46.37107" lon="5.18028">
        <ele>221.80000305176</ele>
        <time>2020-10-24T12:40:18.000Z</time>
      </trkpt>
      <trkpt lat="46.37121" lon="5.18046">
        <ele>221.60000610352</ele>
        <time>2020-10-24T12:40:20.000Z</time>
      </trkpt>
      <trkpt lat="46.37128" lon="5.18054">
        <ele>221.60000610352</ele>
        <time>2020-10-24T12:40:21.000Z</time>
      </trkpt>
      <trkpt lat="46.37135" lon="5.18061">
        <ele>221.60000610352</ele>
        <time>2020-10-24T12:40:22.000Z</time>
      </trkpt>
      <trkpt lat="46.3715" lon="5.18076">
        <ele>221.60000610352</ele>
        <time>2020-10-24T12:40:24.000Z</time>
      </trkpt>
      <trkpt lat="46.37165" lon="5.18089">
        <ele>221.60000610352</ele>
        <time>2020-10-24T12:40:26.000Z</time>
      </trkpt>
      <trkpt lat="46.37178" lon="5.18101">
        <ele>221.80000305176</ele>
        <time>2020-10-24T12:40:28.000Z</time>
      </trkpt>
      <trkpt lat="46.37185" lon="5.18108">
        <ele>221.80000305176</ele>
        <time>2020-10-24T12:40:29.000Z</time>
      </trkpt>
      <trkpt lat="46.3719" lon="5.18116">
        <ele>221.80000305176</ele>
        <time>2020-10-24T12:40:30.000Z</time>
      </trkpt>
      <trkpt lat="46.37199" lon="5.18134">
        <ele>222</ele>
        <time>2020-10-24T12:40:32.000Z</time>
      </trkpt>
      <trkpt lat="46.37202" lon="5.18145">
        <ele>222</ele>
        <time>2020-10-24T12:40:33.000Z</time>
      </trkpt>
      <trkpt lat="46.37205" lon="5.18156">
        <ele>222.19999694824</ele>
        <time>2020-10-24T12:40:34.000Z</time>
      </trkpt>
      <trkpt lat="46.37207" lon="5.18178">
        <ele>222.19999694824</ele>
        <time>2020-10-24T12:40:36.000Z</time>
      </trkpt>
      <trkpt lat="46.37207" lon="5.1819">
        <ele>222.19999694824</ele>
        <time>2020-10-24T12:40:37.000Z</time>
      </trkpt>
      <trkpt lat="46.37206" lon="5.18201">
        <ele>222.19999694824</ele>
        <time>2020-10-24T12:40:38.000Z</time>
      </trkpt>
      <trkpt lat="46.37206" lon="5.18224">
        <ele>222.39999389648</ele>
        <time>2020-10-24T12:40:40.000Z</time>
      </trkpt>
      <trkpt lat="46.37207" lon="5.18235">
        <ele>222.39999389648</ele>
        <time>2020-10-24T12:40:41.000Z</time>
      </trkpt>
      <trkpt lat="46.37208" lon="5.18246">
        <ele>222.39999389648</ele>
        <time>2020-10-24T12:40:42.000Z</time>
      </trkpt>
      <trkpt lat="46.3721" lon="5.18257">
        <ele>222.60000610352</ele>
        <time>2020-10-24T12:40:43.000Z</time>
      </trkpt>
      <trkpt lat="46.37211" lon="5.18268">
        <ele>222.60000610352</ele>
        <time>2020-10-24T12:40:44.000Z</time>
      </trkpt>
      <trkpt lat="46.37214" lon="5.18289">
        <ele>222.60000610352</ele>
        <time>2020-10-24T12:40:46.000Z</time>
      </trkpt>
      <trkpt lat="46.37217" lon="5.1831">
        <ele>222.60000610352</ele>
        <time>2020-10-24T12:40:48.000Z</time>
      </trkpt>
      <trkpt lat="46.37219" lon="5.18331">
        <ele>222.60000610352</ele>
        <time>2020-10-24T12:40:50.000Z</time>
      </trkpt>
      <trkpt lat="46.37219" lon="5.1835">
        <ele>222.60000610352</ele>
        <time>2020-10-24T12:40:52.000Z</time>
      </trkpt>
      <trkpt lat="46.3722" lon="5.18369">
        <ele>223</ele>
        <time>2020-10-24T12:40:54.000Z</time>
      </trkpt>
      <trkpt lat="46.3722" lon="5.18387">
        <ele>223</ele>
        <time>2020-10-24T12:40:56.000Z</time>
      </trkpt>
      <trkpt lat="46.37221" lon="5.18404">
        <ele>223.39999389648</ele>
        <time>2020-10-24T12:40:58.000Z</time>
      </trkpt>
      <trkpt lat="46.37221" lon="5.18412">
        <ele>223.80000305176</ele>
        <time>2020-10-24T12:40:59.000Z</time>
      </trkpt>
      <trkpt lat="46.37221" lon="5.1842">
        <ele>224.19999694824</ele>
        <time>2020-10-24T12:41:00.000Z</time>
      </trkpt>
      <trkpt lat="46.37222" lon="5.18435">
        <ele>225.19999694824</ele>
        <time>2020-10-24T12:41:02.000Z</time>
      </trkpt>
      <trkpt lat="46.37222" lon="5.18442">
        <ele>225.60000610352</ele>
        <time>2020-10-24T12:41:03.000Z</time>
      </trkpt>
      <trkpt lat="46.37222" lon="5.18449">
        <ele>226</ele>
        <time>2020-10-24T12:41:04.000Z</time>
      </trkpt>
      <trkpt lat="46.37222" lon="5.18456">
        <ele>226.39999389648</ele>
        <time>2020-10-24T12:41:05.000Z</time>
      </trkpt>
      <trkpt lat="46.37222" lon="5.18463">
        <ele>226.60000610352</ele>
        <time>2020-10-24T12:41:06.000Z</time>
      </trkpt>
      <trkpt lat="46.37221" lon="5.18469">
        <ele>226.80000305176</ele>
        <time>2020-10-24T12:41:07.000Z</time>
      </trkpt>
      <trkpt lat="46.3722" lon="5.18476">
        <ele>227.39999389648</ele>
        <time>2020-10-24T12:41:08.000Z</time>
      </trkpt>
      <trkpt lat="46.37218" lon="5.18482">
        <ele>227.80000305176</ele>
        <time>2020-10-24T12:41:09.000Z</time>
      </trkpt>
      <trkpt lat="46.37216" lon="5.18488">
        <ele>228.19999694824</ele>
        <time>2020-10-24T12:41:10.000Z</time>
      </trkpt>
      <trkpt lat="46.37214" lon="5.18494">
        <ele>228.39999389648</ele>
        <time>2020-10-24T12:41:11.000Z</time>
      </trkpt>
      <trkpt lat="46.37211" lon="5.185">
        <ele>228.80000305176</ele>
        <time>2020-10-24T12:41:12.000Z</time>
      </trkpt>
      <trkpt lat="46.37205" lon="5.18513">
        <ele>229.80000305176</ele>
        <time>2020-10-24T12:41:14.000Z</time>
      </trkpt>
      <trkpt lat="46.37202" lon="5.18519">
        <ele>230.39999389648</ele>
        <time>2020-10-24T12:41:15.000Z</time>
      </trkpt>
      <trkpt lat="46.37199" lon="5.18526">
        <ele>230.60000610352</ele>
        <time>2020-10-24T12:41:16.000Z</time>
      </trkpt>
      <trkpt lat="46.37196" lon="5.18533">
        <ele>230.80000305176</ele>
        <time>2020-10-24T12:41:17.000Z</time>
      </trkpt>
      <trkpt lat="46.37194" lon="5.1854">
        <ele>231</ele>
        <time>2020-10-24T12:41:18.000Z</time>
      </trkpt>
      <trkpt lat="46.3719" lon="5.18554">
        <ele>231</ele>
        <time>2020-10-24T12:41:20.000Z</time>
      </trkpt>
      <trkpt lat="46.37189" lon="5.18561">
        <ele>231.19999694824</ele>
        <time>2020-10-24T12:41:21.000Z</time>
      </trkpt>
      <trkpt lat="46.37189" lon="5.18569">
        <ele>231.19999694824</ele>
        <time>2020-10-24T12:41:22.000Z</time>
      </trkpt>
      <trkpt lat="46.37189" lon="5.18585">
        <ele>231.19999694824</ele>
        <time>2020-10-24T12:41:24.000Z</time>
      </trkpt>
      <trkpt lat="46.3719" lon="5.18593">
        <ele>231.39999389648</ele>
        <time>2020-10-24T12:41:25.000Z</time>
      </trkpt>
      <trkpt lat="46.37191" lon="5.18602">
        <ele>231.39999389648</ele>
        <time>2020-10-24T12:41:26.000Z</time>
      </trkpt>
      <trkpt lat="46.37192" lon="5.1862">
        <ele>231.60000610352</ele>
        <time>2020-10-24T12:41:28.000Z</time>
      </trkpt>
      <trkpt lat="46.37193" lon="5.18639">
        <ele>231.60000610352</ele>
        <time>2020-10-24T12:41:30.000Z</time>
      </trkpt>
      <trkpt lat="46.37195" lon="5.18658">
        <ele>231.60000610352</ele>
        <time>2020-10-24T12:41:32.000Z</time>
      </trkpt>
      <trkpt lat="46.37197" lon="5.18678">
        <ele>231.60000610352</ele>
        <time>2020-10-24T12:41:34.000Z</time>
      </trkpt>
      <trkpt lat="46.37199" lon="5.18698">
        <ele>231.60000610352</ele>
        <time>2020-10-24T12:41:36.000Z</time>
      </trkpt>
      <trkpt lat="46.37203" lon="5.18717">
        <ele>231.60000610352</ele>
        <time>2020-10-24T12:41:38.000Z</time>
      </trkpt>
      <trkpt lat="46.37208" lon="5.18736">
        <ele>231.39999389648</ele>
        <time>2020-10-24T12:41:40.000Z</time>
      </trkpt>
      <trkpt lat="46.37212" lon="5.18755">
        <ele>231.39999389648</ele>
        <time>2020-10-24T12:41:42.000Z</time>
      </trkpt>
      <trkpt lat="46.37214" lon="5.18775">
        <ele>231.19999694824</ele>
        <time>2020-10-24T12:41:44.000Z</time>
      </trkpt>
      <trkpt lat="46.37215" lon="5.18785">
        <ele>231.19999694824</ele>
        <time>2020-10-24T12:41:45.000Z</time>
      </trkpt>
      <trkpt lat="46.37215" lon="5.18795">
        <ele>231.19999694824</ele>
        <time>2020-10-24T12:41:46.000Z</time>
      </trkpt>
      <trkpt lat="46.37214" lon="5.18805">
        <ele>231.19999694824</ele>
        <time>2020-10-24T12:41:47.000Z</time>
      </trkpt>
      <trkpt lat="46.37213" lon="5.18815">
        <ele>231.19999694824</ele>
        <time>2020-10-24T12:41:48.000Z</time>
      </trkpt>
      <trkpt lat="46.37211" lon="5.18824">
        <ele>231.19999694824</ele>
        <time>2020-10-24T12:41:49.000Z</time>
      </trkpt>
      <trkpt lat="46.37209" lon="5.18833">
        <ele>231.19999694824</ele>
        <time>2020-10-24T12:41:50.000Z</time>
      </trkpt>
      <trkpt lat="46.37205" lon="5.1885">
        <ele>231.39999389648</ele>
        <time>2020-10-24T12:41:52.000Z</time>
      </trkpt>
      <trkpt lat="46.372" lon="5.18868">
        <ele>231.19999694824</ele>
        <time>2020-10-24T12:41:54.000Z</time>
      </trkpt>
      <trkpt lat="46.37197" lon="5.18886">
        <ele>231.39999389648</ele>
        <time>2020-10-24T12:41:56.000Z</time>
      </trkpt>
      <trkpt lat="46.37196" lon="5.18894">
        <ele>231.60000610352</ele>
        <time>2020-10-24T12:41:57.000Z</time>
      </trkpt>
      <trkpt lat="46.37194" lon="5.18903">
        <ele>231.60000610352</ele>
        <time>2020-10-24T12:41:58.000Z</time>
      </trkpt>
      <trkpt lat="46.37192" lon="5.18921">
        <ele>231.80000305176</ele>
        <time>2020-10-24T12:42:00.000Z</time>
      </trkpt>
      <trkpt lat="46.37189" lon="5.18938">
        <ele>232</ele>
        <time>2020-10-24T12:42:02.000Z</time>
      </trkpt>
      <trkpt lat="46.37187" lon="5.18955">
        <ele>232.19999694824</ele>
        <time>2020-10-24T12:42:04.000Z</time>
      </trkpt>
      <trkpt lat="46.37185" lon="5.18971">
        <ele>232.80000305176</ele>
        <time>2020-10-24T12:42:06.000Z</time>
      </trkpt>
      <trkpt lat="46.37182" lon="5.18988">
        <ele>233.19999694824</ele>
        <time>2020-10-24T12:42:08.000Z</time>
      </trkpt>
      <trkpt lat="46.37179" lon="5.19004">
        <ele>233.60000610352</ele>
        <time>2020-10-24T12:42:10.000Z</time>
      </trkpt>
      <trkpt lat="46.37177" lon="5.19019">
        <ele>233.80000305176</ele>
        <time>2020-10-24T12:42:12.000Z</time>
      </trkpt>
      <trkpt lat="46.37174" lon="5.19033">
        <ele>234.19999694824</ele>
        <time>2020-10-24T12:42:14.000Z</time>
      </trkpt>
      <trkpt lat="46.37173" lon="5.1904">
        <ele>234.39999389648</ele>
        <time>2020-10-24T12:42:15.000Z</time>
      </trkpt>
      <trkpt lat="46.37171" lon="5.19046">
        <ele>234.39999389648</ele>
        <time>2020-10-24T12:42:16.000Z</time>
      </trkpt>
      <trkpt lat="46.3717" lon="5.19052">
        <ele>234.60000610352</ele>
        <time>2020-10-24T12:42:17.000Z</time>
      </trkpt>
      <trkpt lat="46.37171" lon="5.19057">
        <ele>235</ele>
        <time>2020-10-24T12:42:18.000Z</time>
      </trkpt>
      <trkpt lat="46.37172" lon="5.19062">
        <ele>235.39999389648</ele>
        <time>2020-10-24T12:42:19.000Z</time>
      </trkpt>
      <trkpt lat="46.37173" lon="5.19066">
        <ele>235.60000610352</ele>
        <time>2020-10-24T12:42:20.000Z</time>
      </trkpt>
      <trkpt lat="46.37176" lon="5.19071">
        <ele>236.19999694824</ele>
        <time>2020-10-24T12:42:22.000Z</time>
      </trkpt>
      <trkpt lat="46.37177" lon="5.19071">
        <ele>236.60000610352</ele>
        <time>2020-10-24T12:42:23.000Z</time>
      </trkpt>
      <trkpt lat="46.37178" lon="5.19071">
        <ele>237</ele>
        <time>2020-10-24T12:42:24.000Z</time>
      </trkpt>
      <trkpt lat="46.37177" lon="5.19071">
        <ele>237.60000610352</ele>
        <time>2020-10-24T12:42:26.000Z</time>
      </trkpt>
      <trkpt lat="46.37178" lon="5.19067">
        <ele>239</ele>
        <time>2020-10-24T12:43:26.000Z</time>
      </trkpt>
      <trkpt lat="46.37176" lon="5.19066">
        <ele>239</ele>
        <time>2020-10-24T12:43:27.000Z</time>
      </trkpt>
      <trkpt lat="46.37175" lon="5.19066">
        <ele>239</ele>
        <time>2020-10-24T12:43:28.000Z</time>
      </trkpt>
      <trkpt lat="46.3717" lon="5.19069">
        <ele>239</ele>
        <time>2020-10-24T12:43:30.000Z</time>
      </trkpt>
      <trkpt lat="46.37168" lon="5.19073">
        <ele>239</ele>
        <time>2020-10-24T12:43:31.000Z</time>
      </trkpt>
      <trkpt lat="46.37165" lon="5.19078">
        <ele>239</ele>
        <time>2020-10-24T12:43:32.000Z</time>
      </trkpt>
      <trkpt lat="46.37162" lon="5.19092">
        <ele>238.80000305176</ele>
        <time>2020-10-24T12:43:34.000Z</time>
      </trkpt>
      <trkpt lat="46.37159" lon="5.19109">
        <ele>238.60000610352</ele>
        <time>2020-10-24T12:43:36.000Z</time>
      </trkpt>
      <trkpt lat="46.37155" lon="5.19126">
        <ele>238.39999389648</ele>
        <time>2020-10-24T12:43:38.000Z</time>
      </trkpt>
      <trkpt lat="46.37151" lon="5.19144">
        <ele>238</ele>
        <time>2020-10-24T12:43:40.000Z</time>
      </trkpt>
      <trkpt lat="46.37146" lon="5.19162">
        <ele>237.60000610352</ele>
        <time>2020-10-24T12:43:42.000Z</time>
      </trkpt>
      <trkpt lat="46.37144" lon="5.19171">
        <ele>237.19999694824</ele>
        <time>2020-10-24T12:43:43.000Z</time>
      </trkpt>
      <trkpt lat="46.37142" lon="5.19181">
        <ele>237</ele>
        <time>2020-10-24T12:43:44.000Z</time>
      </trkpt>
      <trkpt lat="46.37138" lon="5.192">
        <ele>236.80000305176</ele>
        <time>2020-10-24T12:43:46.000Z</time>
      </trkpt>
      <trkpt lat="46.37134" lon="5.19219">
        <ele>236.60000610352</ele>
        <time>2020-10-24T12:43:48.000Z</time>
      </trkpt>
      <trkpt lat="46.37129" lon="5.1924">
        <ele>236.39999389648</ele>
        <time>2020-10-24T12:43:50.000Z</time>
      </trkpt>
      <trkpt lat="46.37124" lon="5.1926">
        <ele>236.39999389648</ele>
        <time>2020-10-24T12:43:52.000Z</time>
      </trkpt>
      <trkpt lat="46.37122" lon="5.1927">
        <ele>236.19999694824</ele>
        <time>2020-10-24T12:43:53.000Z</time>
      </trkpt>
      <trkpt lat="46.3712" lon="5.1928">
        <ele>235.80000305176</ele>
        <time>2020-10-24T12:43:54.000Z</time>
      </trkpt>
      <trkpt lat="46.37115" lon="5.19301">
        <ele>235.19999694824</ele>
        <time>2020-10-24T12:43:56.000Z</time>
      </trkpt>
      <trkpt lat="46.37112" lon="5.19311">
        <ele>235</ele>
        <time>2020-10-24T12:43:57.000Z</time>
      </trkpt>
      <trkpt lat="46.3711" lon="5.19321">
        <ele>234.80000305176</ele>
        <time>2020-10-24T12:43:58.000Z</time>
      </trkpt>
      <trkpt lat="46.37106" lon="5.19342">
        <ele>234.39999389648</ele>
        <time>2020-10-24T12:44:00.000Z</time>
      </trkpt>
      <trkpt lat="46.37103" lon="5.19362">
        <ele>234.19999694824</ele>
        <time>2020-10-24T12:44:02.000Z</time>
      </trkpt>
      <trkpt lat="46.371" lon="5.19384">
        <ele>234.19999694824</ele>
        <time>2020-10-24T12:44:04.000Z</time>
      </trkpt>
      <trkpt lat="46.37098" lon="5.19405">
        <ele>234</ele>
        <time>2020-10-24T12:44:06.000Z</time>
      </trkpt>
      <trkpt lat="46.37097" lon="5.19426">
        <ele>234</ele>
        <time>2020-10-24T12:44:08.000Z</time>
      </trkpt>
      <trkpt lat="46.37098" lon="5.19448">
        <ele>234</ele>
        <time>2020-10-24T12:44:10.000Z</time>
      </trkpt>
      <trkpt lat="46.371" lon="5.1947">
        <ele>234</ele>
        <time>2020-10-24T12:44:12.000Z</time>
      </trkpt>
      <trkpt lat="46.37102" lon="5.19493">
        <ele>234</ele>
        <time>2020-10-24T12:44:14.000Z</time>
      </trkpt>
      <trkpt lat="46.37104" lon="5.19517">
        <ele>233.80000305176</ele>
        <time>2020-10-24T12:44:16.000Z</time>
      </trkpt>
      <trkpt lat="46.37105" lon="5.19541">
        <ele>233.60000610352</ele>
        <time>2020-10-24T12:44:18.000Z</time>
      </trkpt>
      <trkpt lat="46.37103" lon="5.19564">
        <ele>233.19999694824</ele>
        <time>2020-10-24T12:44:20.000Z</time>
      </trkpt>
      <trkpt lat="46.37102" lon="5.19576">
        <ele>232.80000305176</ele>
        <time>2020-10-24T12:44:21.000Z</time>
      </trkpt>
      <trkpt lat="46.371" lon="5.19587">
        <ele>232.60000610352</ele>
        <time>2020-10-24T12:44:22.000Z</time>
      </trkpt>
      <trkpt lat="46.37098" lon="5.19598">
        <ele>232.39999389648</ele>
        <time>2020-10-24T12:44:23.000Z</time>
      </trkpt>
      <trkpt lat="46.37095" lon="5.19609">
        <ele>232.19999694824</ele>
        <time>2020-10-24T12:44:24.000Z</time>
      </trkpt>
      <trkpt lat="46.3709" lon="5.19631">
        <ele>232.19999694824</ele>
        <time>2020-10-24T12:44:26.000Z</time>
      </trkpt>
      <trkpt lat="46.37086" lon="5.19654">
        <ele>231.60000610352</ele>
        <time>2020-10-24T12:44:28.000Z</time>
      </trkpt>
      <trkpt lat="46.37082" lon="5.19677">
        <ele>231</ele>
        <time>2020-10-24T12:44:30.000Z</time>
      </trkpt>
      <trkpt lat="46.3708" lon="5.19689">
        <ele>231</ele>
        <time>2020-10-24T12:44:31.000Z</time>
      </trkpt>
      <trkpt lat="46.37079" lon="5.19701">
        <ele>230.80000305176</ele>
        <time>2020-10-24T12:44:32.000Z</time>
      </trkpt>
      <trkpt lat="46.37076" lon="5.19725">
        <ele>230.39999389648</ele>
        <time>2020-10-24T12:44:34.000Z</time>
      </trkpt>
      <trkpt lat="46.37073" lon="5.19749">
        <ele>229.80000305176</ele>
        <time>2020-10-24T12:44:36.000Z</time>
      </trkpt>
      <trkpt lat="46.3707" lon="5.19775">
        <ele>229.39999389648</ele>
        <time>2020-10-24T12:44:38.000Z</time>
      </trkpt>
      <trkpt lat="46.37068" lon="5.19788">
        <ele>229.19999694824</ele>
        <time>2020-10-24T12:44:39.000Z</time>
      </trkpt>
      <trkpt lat="46.37066" lon="5.19801">
        <ele>229.19999694824</ele>
        <time>2020-10-24T12:44:40.000Z</time>
      </trkpt>
      <trkpt lat="46.37057" lon="5.19825">
        <ele>228.60000610352</ele>
        <time>2020-10-24T12:44:42.000Z</time>
      </trkpt>
      <trkpt lat="46.37051" lon="5.19836">
        <ele>228</ele>
        <time>2020-10-24T12:44:43.000Z</time>
      </trkpt>
      <trkpt lat="46.37045" lon="5.19845">
        <ele>227.80000305176</ele>
        <time>2020-10-24T12:44:44.000Z</time>
      </trkpt>
      <trkpt lat="46.37038" lon="5.19854">
        <ele>227.39999389648</ele>
        <time>2020-10-24T12:44:45.000Z</time>
      </trkpt>
      <trkpt lat="46.37031" lon="5.19862">
        <ele>226.80000305176</ele>
        <time>2020-10-24T12:44:46.000Z</time>
      </trkpt>
      <trkpt lat="46.37018" lon="5.19879">
        <ele>225.39999389648</ele>
        <time>2020-10-24T12:44:48.000Z</time>
      </trkpt>
      <trkpt lat="46.37007" lon="5.19898">
        <ele>224.80000305176</ele>
        <time>2020-10-24T12:44:50.000Z</time>
      </trkpt>
      <trkpt lat="46.37003" lon="5.19909">
        <ele>224.39999389648</ele>
        <time>2020-10-24T12:44:51.000Z</time>
      </trkpt>
      <trkpt lat="46.37" lon="5.19921">
        <ele>224</ele>
        <time>2020-10-24T12:44:52.000Z</time>
      </trkpt>
      <trkpt lat="46.36996" lon="5.19945">
        <ele>223.80000305176</ele>
        <time>2020-10-24T12:44:54.000Z</time>
      </trkpt>
      <trkpt lat="46.36994" lon="5.19957">
        <ele>223.80000305176</ele>
        <time>2020-10-24T12:44:55.000Z</time>
      </trkpt>
      <trkpt lat="46.36992" lon="5.19969">
        <ele>223.60000610352</ele>
        <time>2020-10-24T12:44:56.000Z</time>
      </trkpt>
      <trkpt lat="46.36988" lon="5.19993">
        <ele>223.39999389648</ele>
        <time>2020-10-24T12:44:58.000Z</time>
      </trkpt>
      <trkpt lat="46.36983" lon="5.20016">
        <ele>223.19999694824</ele>
        <time>2020-10-24T12:45:00.000Z</time>
      </trkpt>
      <trkpt lat="46.36978" lon="5.20038">
        <ele>223.19999694824</ele>
        <time>2020-10-24T12:45:02.000Z</time>
      </trkpt>
      <trkpt lat="46.36973" lon="5.2006">
        <ele>223.19999694824</ele>
        <time>2020-10-24T12:45:04.000Z</time>
      </trkpt>
      <trkpt lat="46.36968" lon="5.20081">
        <ele>223.19999694824</ele>
        <time>2020-10-24T12:45:06.000Z</time>
      </trkpt>
      <trkpt lat="46.36963" lon="5.201">
        <ele>223.19999694824</ele>
        <time>2020-10-24T12:45:08.000Z</time>
      </trkpt>
      <trkpt lat="46.36961" lon="5.20108">
        <ele>223.19999694824</ele>
        <time>2020-10-24T12:45:09.000Z</time>
      </trkpt>
      <trkpt lat="46.36959" lon="5.20117">
        <ele>223.39999389648</ele>
        <time>2020-10-24T12:45:10.000Z</time>
      </trkpt>
      <trkpt lat="46.36956" lon="5.20133">
        <ele>223.39999389648</ele>
        <time>2020-10-24T12:45:12.000Z</time>
      </trkpt>
      <trkpt lat="46.36953" lon="5.20149">
        <ele>223.60000610352</ele>
        <time>2020-10-24T12:45:14.000Z</time>
      </trkpt>
      <trkpt lat="46.36952" lon="5.20157">
        <ele>224</ele>
        <time>2020-10-24T12:45:15.000Z</time>
      </trkpt>
      <trkpt lat="46.36951" lon="5.20164">
        <ele>224.39999389648</ele>
        <time>2020-10-24T12:45:16.000Z</time>
      </trkpt>
      <trkpt lat="46.36951" lon="5.20181">
        <ele>225.60000610352</ele>
        <time>2020-10-24T12:45:18.000Z</time>
      </trkpt>
      <trkpt lat="46.36951" lon="5.20196">
        <ele>226.39999389648</ele>
        <time>2020-10-24T12:45:20.000Z</time>
      </trkpt>
      <trkpt lat="46.36951" lon="5.20203">
        <ele>226.80000305176</ele>
        <time>2020-10-24T12:45:21.000Z</time>
      </trkpt>
      <trkpt lat="46.36952" lon="5.20209">
        <ele>227</ele>
        <time>2020-10-24T12:45:22.000Z</time>
      </trkpt>
      <trkpt lat="46.36951" lon="5.20222">
        <ele>227.80000305176</ele>
        <time>2020-10-24T12:45:24.000Z</time>
      </trkpt>
      <trkpt lat="46.36951" lon="5.20235">
        <ele>228.60000610352</ele>
        <time>2020-10-24T12:45:26.000Z</time>
      </trkpt>
      <trkpt lat="46.36951" lon="5.20241">
        <ele>229</ele>
        <time>2020-10-24T12:45:27.000Z</time>
      </trkpt>
      <trkpt lat="46.36951" lon="5.20248">
        <ele>229.39999389648</ele>
        <time>2020-10-24T12:45:28.000Z</time>
      </trkpt>
      <trkpt lat="46.36951" lon="5.20261">
        <ele>230.19999694824</ele>
        <time>2020-10-24T12:45:30.000Z</time>
      </trkpt>
      <trkpt lat="46.36951" lon="5.20273">
        <ele>231</ele>
        <time>2020-10-24T12:45:32.000Z</time>
      </trkpt>
      <trkpt lat="46.36951" lon="5.2028">
        <ele>231.19999694824</ele>
        <time>2020-10-24T12:45:33.000Z</time>
      </trkpt>
      <trkpt lat="46.3695" lon="5.20287">
        <ele>231.39999389648</ele>
        <time>2020-10-24T12:45:34.000Z</time>
      </trkpt>
      <trkpt lat="46.3695" lon="5.20294">
        <ele>231.80000305176</ele>
        <time>2020-10-24T12:45:35.000Z</time>
      </trkpt>
      <trkpt lat="46.3695" lon="5.203">
        <ele>231.80000305176</ele>
        <time>2020-10-24T12:45:36.000Z</time>
      </trkpt>
      <trkpt lat="46.3695" lon="5.20307">
        <ele>232.19999694824</ele>
        <time>2020-10-24T12:45:37.000Z</time>
      </trkpt>
      <trkpt lat="46.3695" lon="5.20313">
        <ele>232.39999389648</ele>
        <time>2020-10-24T12:45:38.000Z</time>
      </trkpt>
      <trkpt lat="46.36949" lon="5.20326">
        <ele>233.39999389648</ele>
        <time>2020-10-24T12:45:40.000Z</time>
      </trkpt>
      <trkpt lat="46.36949" lon="5.2034">
        <ele>234</ele>
        <time>2020-10-24T12:45:42.000Z</time>
      </trkpt>
      <trkpt lat="46.36949" lon="5.20348">
        <ele>234.19999694824</ele>
        <time>2020-10-24T12:45:43.000Z</time>
      </trkpt>
      <trkpt lat="46.36949" lon="5.20355">
        <ele>234.39999389648</ele>
        <time>2020-10-24T12:45:44.000Z</time>
      </trkpt>
      <trkpt lat="46.36949" lon="5.2037">
        <ele>234.80000305176</ele>
        <time>2020-10-24T12:45:46.000Z</time>
      </trkpt>
      <trkpt lat="46.36948" lon="5.20385">
        <ele>235.39999389648</ele>
        <time>2020-10-24T12:45:48.000Z</time>
      </trkpt>
      <trkpt lat="46.36947" lon="5.20394">
        <ele>235.60000610352</ele>
        <time>2020-10-24T12:45:49.000Z</time>
      </trkpt>
      <trkpt lat="46.36947" lon="5.20402">
        <ele>235.80000305176</ele>
        <time>2020-10-24T12:45:50.000Z</time>
      </trkpt>
      <trkpt lat="46.36946" lon="5.20419">
        <ele>236</ele>
        <time>2020-10-24T12:45:52.000Z</time>
      </trkpt>
      <trkpt lat="46.36944" lon="5.20435">
        <ele>236</ele>
        <time>2020-10-24T12:45:54.000Z</time>
      </trkpt>
      <trkpt lat="46.36944" lon="5.20442">
        <ele>236</ele>
        <time>2020-10-24T12:45:55.000Z</time>
      </trkpt>
      <trkpt lat="46.36943" lon="5.2045">
        <ele>236</ele>
        <time>2020-10-24T12:45:56.000Z</time>
      </trkpt>
      <trkpt lat="46.36942" lon="5.20457">
        <ele>236.19999694824</ele>
        <time>2020-10-24T12:45:57.000Z</time>
      </trkpt>
      <trkpt lat="46.3694" lon="5.20465">
        <ele>236.19999694824</ele>
        <time>2020-10-24T12:45:58.000Z</time>
      </trkpt>
      <trkpt lat="46.36937" lon="5.2048">
        <ele>236.60000610352</ele>
        <time>2020-10-24T12:46:00.000Z</time>
      </trkpt>
      <trkpt lat="46.36935" lon="5.20487">
        <ele>236.60000610352</ele>
        <time>2020-10-24T12:46:01.000Z</time>
      </trkpt>
      <trkpt lat="46.36933" lon="5.20495">
        <ele>236.60000610352</ele>
        <time>2020-10-24T12:46:02.000Z</time>
      </trkpt>
      <trkpt lat="46.36928" lon="5.2051">
        <ele>236.80000305176</ele>
        <time>2020-10-24T12:46:04.000Z</time>
      </trkpt>
      <trkpt lat="46.36922" lon="5.20524">
        <ele>237</ele>
        <time>2020-10-24T12:46:06.000Z</time>
      </trkpt>
      <trkpt lat="46.36915" lon="5.20539">
        <ele>237.19999694824</ele>
        <time>2020-10-24T12:46:08.000Z</time>
      </trkpt>
      <trkpt lat="46.36908" lon="5.20554">
        <ele>237.19999694824</ele>
        <time>2020-10-24T12:46:10.000Z</time>
      </trkpt>
      <trkpt lat="46.36901" lon="5.2057">
        <ele>237.19999694824</ele>
        <time>2020-10-24T12:46:12.000Z</time>
      </trkpt>
      <trkpt lat="46.36898" lon="5.20578">
        <ele>237.19999694824</ele>
        <time>2020-10-24T12:46:13.000Z</time>
      </trkpt>
      <trkpt lat="46.36896" lon="5.20586">
        <ele>237.19999694824</ele>
        <time>2020-10-24T12:46:14.000Z</time>
      </trkpt>
      <trkpt lat="46.3689" lon="5.20603">
        <ele>237.19999694824</ele>
        <time>2020-10-24T12:46:16.000Z</time>
      </trkpt>
      <trkpt lat="46.36884" lon="5.2062">
        <ele>237.19999694824</ele>
        <time>2020-10-24T12:46:18.000Z</time>
      </trkpt>
      <trkpt lat="46.36878" lon="5.20637">
        <ele>237.19999694824</ele>
        <time>2020-10-24T12:46:20.000Z</time>
      </trkpt>
      <trkpt lat="46.3687" lon="5.20655">
        <ele>237.19999694824</ele>
        <time>2020-10-24T12:46:22.000Z</time>
      </trkpt>
      <trkpt lat="46.36866" lon="5.20663">
        <ele>237</ele>
        <time>2020-10-24T12:46:23.000Z</time>
      </trkpt>
      <trkpt lat="46.36862" lon="5.20671">
        <ele>236.80000305176</ele>
        <time>2020-10-24T12:46:24.000Z</time>
      </trkpt>
      <trkpt lat="46.36851" lon="5.20686">
        <ele>236.39999389648</ele>
        <time>2020-10-24T12:46:26.000Z</time>
      </trkpt>
      <trkpt lat="46.36839" lon="5.207">
        <ele>236.19999694824</ele>
        <time>2020-10-24T12:46:28.000Z</time>
      </trkpt>
      <trkpt lat="46.36827" lon="5.20714">
        <ele>235.80000305176</ele>
        <time>2020-10-24T12:46:30.000Z</time>
      </trkpt>
      <trkpt lat="46.36816" lon="5.20729">
        <ele>235.80000305176</ele>
        <time>2020-10-24T12:46:32.000Z</time>
      </trkpt>
      <trkpt lat="46.36811" lon="5.20737">
        <ele>235.60000610352</ele>
        <time>2020-10-24T12:46:33.000Z</time>
      </trkpt>
      <trkpt lat="46.36806" lon="5.20746">
        <ele>235.60000610352</ele>
        <time>2020-10-24T12:46:34.000Z</time>
      </trkpt>
      <trkpt lat="46.368" lon="5.20764">
        <ele>235.60000610352</ele>
        <time>2020-10-24T12:46:36.000Z</time>
      </trkpt>
      <trkpt lat="46.36796" lon="5.20782">
        <ele>235.60000610352</ele>
        <time>2020-10-24T12:46:38.000Z</time>
      </trkpt>
      <trkpt lat="46.36795" lon="5.20793">
        <ele>235.60000610352</ele>
        <time>2020-10-24T12:46:39.000Z</time>
      </trkpt>
      <trkpt lat="46.36794" lon="5.20803">
        <ele>235.60000610352</ele>
        <time>2020-10-24T12:46:40.000Z</time>
      </trkpt>
      <trkpt lat="46.36793" lon="5.20827">
        <ele>235.60000610352</ele>
        <time>2020-10-24T12:46:42.000Z</time>
      </trkpt>
      <trkpt lat="46.36793" lon="5.2084">
        <ele>235.60000610352</ele>
        <time>2020-10-24T12:46:43.000Z</time>
      </trkpt>
      <trkpt lat="46.36793" lon="5.20853">
        <ele>235.60000610352</ele>
        <time>2020-10-24T12:46:44.000Z</time>
      </trkpt>
      <trkpt lat="46.36794" lon="5.20881">
        <ele>235.60000610352</ele>
        <time>2020-10-24T12:46:46.000Z</time>
      </trkpt>
      <trkpt lat="46.36794" lon="5.20909">
        <ele>235.60000610352</ele>
        <time>2020-10-24T12:46:48.000Z</time>
      </trkpt>
      <trkpt lat="46.36793" lon="5.20937">
        <ele>235.39999389648</ele>
        <time>2020-10-24T12:46:50.000Z</time>
      </trkpt>
      <trkpt lat="46.36793" lon="5.20951">
        <ele>235.39999389648</ele>
        <time>2020-10-24T12:46:51.000Z</time>
      </trkpt>
      <trkpt lat="46.36794" lon="5.20964">
        <ele>234.80000305176</ele>
        <time>2020-10-24T12:46:52.000Z</time>
      </trkpt>
      <trkpt lat="46.36794" lon="5.20978">
        <ele>234.19999694824</ele>
        <time>2020-10-24T12:46:53.000Z</time>
      </trkpt>
      <trkpt lat="46.36794" lon="5.20991">
        <ele>233.60000610352</ele>
        <time>2020-10-24T12:46:54.000Z</time>
      </trkpt>
      <trkpt lat="46.36794" lon="5.21005">
        <ele>233</ele>
        <time>2020-10-24T12:46:55.000Z</time>
      </trkpt>
      <trkpt lat="46.36794" lon="5.21018">
        <ele>232.19999694824</ele>
        <time>2020-10-24T12:46:56.000Z</time>
      </trkpt>
      <trkpt lat="46.36794" lon="5.21031">
        <ele>231.39999389648</ele>
        <time>2020-10-24T12:46:57.000Z</time>
      </trkpt>
      <trkpt lat="46.36795" lon="5.21045">
        <ele>230.80000305176</ele>
        <time>2020-10-24T12:46:58.000Z</time>
      </trkpt>
      <trkpt lat="46.36795" lon="5.21057">
        <ele>230</ele>
        <time>2020-10-24T12:46:59.000Z</time>
      </trkpt>
      <trkpt lat="46.36795" lon="5.2107">
        <ele>229.80000305176</ele>
        <time>2020-10-24T12:47:00.000Z</time>
      </trkpt>
      <trkpt lat="46.36796" lon="5.21095">
        <ele>229.39999389648</ele>
        <time>2020-10-24T12:47:02.000Z</time>
      </trkpt>
      <trkpt lat="46.36797" lon="5.21118">
        <ele>229.39999389648</ele>
        <time>2020-10-24T12:47:04.000Z</time>
      </trkpt>
      <trkpt lat="46.36797" lon="5.2114">
        <ele>229.19999694824</ele>
        <time>2020-10-24T12:47:06.000Z</time>
      </trkpt>
      <trkpt lat="46.36798" lon="5.21151">
        <ele>229.19999694824</ele>
        <time>2020-10-24T12:47:07.000Z</time>
      </trkpt>
      <trkpt lat="46.36798" lon="5.21161">
        <ele>229.19999694824</ele>
        <time>2020-10-24T12:47:08.000Z</time>
      </trkpt>
      <trkpt lat="46.36798" lon="5.21181">
        <ele>229.39999389648</ele>
        <time>2020-10-24T12:47:10.000Z</time>
      </trkpt>
      <trkpt lat="46.36798" lon="5.21199">
        <ele>229.60000610352</ele>
        <time>2020-10-24T12:47:12.000Z</time>
      </trkpt>
      <trkpt lat="46.36798" lon="5.21208">
        <ele>229.80000305176</ele>
        <time>2020-10-24T12:47:13.000Z</time>
      </trkpt>
      <trkpt lat="46.36798" lon="5.21216">
        <ele>230</ele>
        <time>2020-10-24T12:47:14.000Z</time>
      </trkpt>
      <trkpt lat="46.36797" lon="5.21233">
        <ele>231.19999694824</ele>
        <time>2020-10-24T12:47:16.000Z</time>
      </trkpt>
      <trkpt lat="46.36797" lon="5.2125">
        <ele>231.80000305176</ele>
        <time>2020-10-24T12:47:18.000Z</time>
      </trkpt>
      <trkpt lat="46.36796" lon="5.21266">
        <ele>232.60000610352</ele>
        <time>2020-10-24T12:47:20.000Z</time>
      </trkpt>
      <trkpt lat="46.36796" lon="5.21283">
        <ele>233.80000305176</ele>
        <time>2020-10-24T12:47:22.000Z</time>
      </trkpt>
      <trkpt lat="46.36796" lon="5.21299">
        <ele>234.19999694824</ele>
        <time>2020-10-24T12:47:24.000Z</time>
      </trkpt>
      <trkpt lat="46.36795" lon="5.21315">
        <ele>234.80000305176</ele>
        <time>2020-10-24T12:47:26.000Z</time>
      </trkpt>
      <trkpt lat="46.36793" lon="5.2133">
        <ele>235.80000305176</ele>
        <time>2020-10-24T12:47:28.000Z</time>
      </trkpt>
      <trkpt lat="46.36792" lon="5.21338">
        <ele>236.19999694824</ele>
        <time>2020-10-24T12:47:29.000Z</time>
      </trkpt>
      <trkpt lat="46.3679" lon="5.21345">
        <ele>236.39999389648</ele>
        <time>2020-10-24T12:47:30.000Z</time>
      </trkpt>
      <trkpt lat="46.36785" lon="5.21358">
        <ele>236.80000305176</ele>
        <time>2020-10-24T12:47:32.000Z</time>
      </trkpt>
      <trkpt lat="46.36778" lon="5.21371">
        <ele>237.19999694824</ele>
        <time>2020-10-24T12:47:34.000Z</time>
      </trkpt>
      <trkpt lat="46.36774" lon="5.21377">
        <ele>237.19999694824</ele>
        <time>2020-10-24T12:47:35.000Z</time>
      </trkpt>
      <trkpt lat="46.3677" lon="5.21383">
        <ele>237.39999389648</ele>
        <time>2020-10-24T12:47:36.000Z</time>
      </trkpt>
      <trkpt lat="46.36762" lon="5.21395">
        <ele>237.80000305176</ele>
        <time>2020-10-24T12:47:38.000Z</time>
      </trkpt>
      <trkpt lat="46.36755" lon="5.21408">
        <ele>238</ele>
        <time>2020-10-24T12:47:40.000Z</time>
      </trkpt>
      <trkpt lat="46.36752" lon="5.21416">
        <ele>238.19999694824</ele>
        <time>2020-10-24T12:47:41.000Z</time>
      </trkpt>
      <trkpt lat="46.36749" lon="5.21424">
        <ele>238.19999694824</ele>
        <time>2020-10-24T12:47:42.000Z</time>
      </trkpt>
      <trkpt lat="46.36744" lon="5.2144">
        <ele>238.60000610352</ele>
        <time>2020-10-24T12:47:44.000Z</time>
      </trkpt>
      <trkpt lat="46.3674" lon="5.21457">
        <ele>238.80000305176</ele>
        <time>2020-10-24T12:47:46.000Z</time>
      </trkpt>
      <trkpt lat="46.36738" lon="5.21466">
        <ele>238.80000305176</ele>
        <time>2020-10-24T12:47:47.000Z</time>
      </trkpt>
      <trkpt lat="46.36736" lon="5.21474">
        <ele>239</ele>
        <time>2020-10-24T12:47:48.000Z</time>
      </trkpt>
      <trkpt lat="46.36731" lon="5.2149">
        <ele>239.19999694824</ele>
        <time>2020-10-24T12:47:50.000Z</time>
      </trkpt>
      <trkpt lat="46.36727" lon="5.21506">
        <ele>239.19999694824</ele>
        <time>2020-10-24T12:47:52.000Z</time>
      </trkpt>
      <trkpt lat="46.36723" lon="5.21523">
        <ele>239.19999694824</ele>
        <time>2020-10-24T12:47:54.000Z</time>
      </trkpt>
      <trkpt lat="46.36721" lon="5.21532">
        <ele>239.19999694824</ele>
        <time>2020-10-24T12:47:55.000Z</time>
      </trkpt>
      <trkpt lat="46.36718" lon="5.21541">
        <ele>239.19999694824</ele>
        <time>2020-10-24T12:47:56.000Z</time>
      </trkpt>
      <trkpt lat="46.36712" lon="5.2156">
        <ele>239.19999694824</ele>
        <time>2020-10-24T12:47:58.000Z</time>
      </trkpt>
      <trkpt lat="46.36706" lon="5.21578">
        <ele>239</ele>
        <time>2020-10-24T12:48:00.000Z</time>
      </trkpt>
      <trkpt lat="46.36699" lon="5.21596">
        <ele>238.80000305176</ele>
        <time>2020-10-24T12:48:02.000Z</time>
      </trkpt>
      <trkpt lat="46.36691" lon="5.21612">
        <ele>238.39999389648</ele>
        <time>2020-10-24T12:48:04.000Z</time>
      </trkpt>
      <trkpt lat="46.36686" lon="5.2162">
        <ele>238.39999389648</ele>
        <time>2020-10-24T12:48:05.000Z</time>
      </trkpt>
      <trkpt lat="46.36681" lon="5.21626">
        <ele>238.39999389648</ele>
        <time>2020-10-24T12:48:06.000Z</time>
      </trkpt>
      <trkpt lat="46.36676" lon="5.21633">
        <ele>238.39999389648</ele>
        <time>2020-10-24T12:48:07.000Z</time>
      </trkpt>
      <trkpt lat="46.3667" lon="5.21638">
        <ele>238.19999694824</ele>
        <time>2020-10-24T12:48:08.000Z</time>
      </trkpt>
      <trkpt lat="46.3666" lon="5.2165">
        <ele>238.19999694824</ele>
        <time>2020-10-24T12:48:10.000Z</time>
      </trkpt>
      <trkpt lat="46.3665" lon="5.21662">
        <ele>238.39999389648</ele>
        <time>2020-10-24T12:48:12.000Z</time>
      </trkpt>
      <trkpt lat="46.36641" lon="5.21677">
        <ele>238.39999389648</ele>
        <time>2020-10-24T12:48:14.000Z</time>
      </trkpt>
      <trkpt lat="46.36635" lon="5.21693">
        <ele>238.39999389648</ele>
        <time>2020-10-24T12:48:16.000Z</time>
      </trkpt>
      <trkpt lat="46.36632" lon="5.21702">
        <ele>238.39999389648</ele>
        <time>2020-10-24T12:48:17.000Z</time>
      </trkpt>
      <trkpt lat="46.36629" lon="5.21712">
        <ele>238.39999389648</ele>
        <time>2020-10-24T12:48:18.000Z</time>
      </trkpt>
      <trkpt lat="46.36627" lon="5.21721">
        <ele>238.39999389648</ele>
        <time>2020-10-24T12:48:19.000Z</time>
      </trkpt>
      <trkpt lat="46.36625" lon="5.21731">
        <ele>238.19999694824</ele>
        <time>2020-10-24T12:48:20.000Z</time>
      </trkpt>
      <trkpt lat="46.3662" lon="5.2175">
        <ele>238.19999694824</ele>
        <time>2020-10-24T12:48:22.000Z</time>
      </trkpt>
      <trkpt lat="46.36616" lon="5.2177">
        <ele>238.19999694824</ele>
        <time>2020-10-24T12:48:24.000Z</time>
      </trkpt>
      <trkpt lat="46.36613" lon="5.21791">
        <ele>238.19999694824</ele>
        <time>2020-10-24T12:48:26.000Z</time>
      </trkpt>
      <trkpt lat="46.36612" lon="5.21801">
        <ele>238.19999694824</ele>
        <time>2020-10-24T12:48:27.000Z</time>
      </trkpt>
      <trkpt lat="46.3661" lon="5.21812">
        <ele>238.19999694824</ele>
        <time>2020-10-24T12:48:28.000Z</time>
      </trkpt>
      <trkpt lat="46.36607" lon="5.21834">
        <ele>238.19999694824</ele>
        <time>2020-10-24T12:48:30.000Z</time>
      </trkpt>
      <trkpt lat="46.36604" lon="5.21855">
        <ele>238</ele>
        <time>2020-10-24T12:48:32.000Z</time>
      </trkpt>
      <trkpt lat="46.36601" lon="5.21877">
        <ele>237.80000305176</ele>
        <time>2020-10-24T12:48:34.000Z</time>
      </trkpt>
      <trkpt lat="46.36598" lon="5.21898">
        <ele>237.60000610352</ele>
        <time>2020-10-24T12:48:36.000Z</time>
      </trkpt>
      <trkpt lat="46.36596" lon="5.21908">
        <ele>237.39999389648</ele>
        <time>2020-10-24T12:48:37.000Z</time>
      </trkpt>
      <trkpt lat="46.36595" lon="5.21918">
        <ele>237.39999389648</ele>
        <time>2020-10-24T12:48:38.000Z</time>
      </trkpt>
      <trkpt lat="46.36594" lon="5.21929">
        <ele>237</ele>
        <time>2020-10-24T12:48:39.000Z</time>
      </trkpt>
      <trkpt lat="46.36592" lon="5.21939">
        <ele>236.80000305176</ele>
        <time>2020-10-24T12:48:40.000Z</time>
      </trkpt>
      <trkpt lat="46.36589" lon="5.21961">
        <ele>236.60000610352</ele>
        <time>2020-10-24T12:48:42.000Z</time>
      </trkpt>
      <trkpt lat="46.36585" lon="5.21983">
        <ele>236.60000610352</ele>
        <time>2020-10-24T12:48:44.000Z</time>
      </trkpt>
      <trkpt lat="46.36582" lon="5.21995">
        <ele>236.60000610352</ele>
        <time>2020-10-24T12:48:45.000Z</time>
      </trkpt>
      <trkpt lat="46.36579" lon="5.22006">
        <ele>236.39999389648</ele>
        <time>2020-10-24T12:48:46.000Z</time>
      </trkpt>
      <trkpt lat="46.36573" lon="5.22029">
        <ele>236.39999389648</ele>
        <time>2020-10-24T12:48:48.000Z</time>
      </trkpt>
      <trkpt lat="46.36567" lon="5.22052">
        <ele>236</ele>
        <time>2020-10-24T12:48:50.000Z</time>
      </trkpt>
      <trkpt lat="46.36564" lon="5.22064">
        <ele>235.80000305176</ele>
        <time>2020-10-24T12:48:51.000Z</time>
      </trkpt>
      <trkpt lat="46.36562" lon="5.22076">
        <ele>235.19999694824</ele>
        <time>2020-10-24T12:48:52.000Z</time>
      </trkpt>
      <trkpt lat="46.36555" lon="5.22101">
        <ele>234.19999694824</ele>
        <time>2020-10-24T12:48:54.000Z</time>
      </trkpt>
      <trkpt lat="46.36547" lon="5.22125">
        <ele>233.19999694824</ele>
        <time>2020-10-24T12:48:56.000Z</time>
      </trkpt>
      <trkpt lat="46.36535" lon="5.22147">
        <ele>232.60000610352</ele>
        <time>2020-10-24T12:48:58.000Z</time>
      </trkpt>
      <trkpt lat="46.36527" lon="5.22156">
        <ele>232.19999694824</ele>
        <time>2020-10-24T12:48:59.000Z</time>
      </trkpt>
      <trkpt lat="46.36519" lon="5.22164">
        <ele>231.60000610352</ele>
        <time>2020-10-24T12:49:00.000Z</time>
      </trkpt>
      <trkpt lat="46.36511" lon="5.22173">
        <ele>231.19999694824</ele>
        <time>2020-10-24T12:49:01.000Z</time>
      </trkpt>
      <trkpt lat="46.36502" lon="5.2218">
        <ele>230.60000610352</ele>
        <time>2020-10-24T12:49:02.000Z</time>
      </trkpt>
      <trkpt lat="46.36493" lon="5.22188">
        <ele>230</ele>
        <time>2020-10-24T12:49:03.000Z</time>
      </trkpt>
      <trkpt lat="46.36484" lon="5.22195">
        <ele>229.19999694824</ele>
        <time>2020-10-24T12:49:04.000Z</time>
      </trkpt>
      <trkpt lat="46.36476" lon="5.22203">
        <ele>228.60000610352</ele>
        <time>2020-10-24T12:49:05.000Z</time>
      </trkpt>
      <trkpt lat="46.36467" lon="5.2221">
        <ele>226.80000305176</ele>
        <time>2020-10-24T12:49:06.000Z</time>
      </trkpt>
      <trkpt lat="46.36459" lon="5.22217">
        <ele>225.80000305176</ele>
        <time>2020-10-24T12:49:07.000Z</time>
      </trkpt>
      <trkpt lat="46.36451" lon="5.22225">
        <ele>225</ele>
        <time>2020-10-24T12:49:08.000Z</time>
      </trkpt>
      <trkpt lat="46.36443" lon="5.22233">
        <ele>224.39999389648</ele>
        <time>2020-10-24T12:49:09.000Z</time>
      </trkpt>
      <trkpt lat="46.36435" lon="5.22241">
        <ele>224</ele>
        <time>2020-10-24T12:49:10.000Z</time>
      </trkpt>
      <trkpt lat="46.36427" lon="5.22249">
        <ele>223.80000305176</ele>
        <time>2020-10-24T12:49:11.000Z</time>
      </trkpt>
      <trkpt lat="46.36419" lon="5.22257">
        <ele>223.60000610352</ele>
        <time>2020-10-24T12:49:12.000Z</time>
      </trkpt>
      <trkpt lat="46.36403" lon="5.22274">
        <ele>223.39999389648</ele>
        <time>2020-10-24T12:49:14.000Z</time>
      </trkpt>
      <trkpt lat="46.36386" lon="5.22288">
        <ele>223.19999694824</ele>
        <time>2020-10-24T12:49:16.000Z</time>
      </trkpt>
      <trkpt lat="46.36369" lon="5.22301">
        <ele>223</ele>
        <time>2020-10-24T12:49:18.000Z</time>
      </trkpt>
      <trkpt lat="46.3636" lon="5.22305">
        <ele>222.80000305176</ele>
        <time>2020-10-24T12:49:19.000Z</time>
      </trkpt>
      <trkpt lat="46.36351" lon="5.22308">
        <ele>222.80000305176</ele>
        <time>2020-10-24T12:49:20.000Z</time>
      </trkpt>
      <trkpt lat="46.36341" lon="5.22309">
        <ele>222.60000610352</ele>
        <time>2020-10-24T12:49:21.000Z</time>
      </trkpt>
      <trkpt lat="46.36332" lon="5.2231">
        <ele>222.39999389648</ele>
        <time>2020-10-24T12:49:22.000Z</time>
      </trkpt>
      <trkpt lat="46.36323" lon="5.2231">
        <ele>222.39999389648</ele>
        <time>2020-10-24T12:49:23.000Z</time>
      </trkpt>
      <trkpt lat="46.36315" lon="5.22311">
        <ele>222</ele>
        <time>2020-10-24T12:49:24.000Z</time>
      </trkpt>
      <trkpt lat="46.36299" lon="5.22318">
        <ele>221.80000305176</ele>
        <time>2020-10-24T12:49:26.000Z</time>
      </trkpt>
      <trkpt lat="46.36287" lon="5.22332">
        <ele>221.60000610352</ele>
        <time>2020-10-24T12:49:28.000Z</time>
      </trkpt>
      <trkpt lat="46.36283" lon="5.22341">
        <ele>221.60000610352</ele>
        <time>2020-10-24T12:49:29.000Z</time>
      </trkpt>
      <trkpt lat="46.36279" lon="5.22351">
        <ele>221.60000610352</ele>
        <time>2020-10-24T12:49:30.000Z</time>
      </trkpt>
      <trkpt lat="46.36274" lon="5.22372">
        <ele>221.60000610352</ele>
        <time>2020-10-24T12:49:32.000Z</time>
      </trkpt>
      <trkpt lat="46.36273" lon="5.22382">
        <ele>221.60000610352</ele>
        <time>2020-10-24T12:49:33.000Z</time>
      </trkpt>
      <trkpt lat="46.36272" lon="5.22392">
        <ele>222</ele>
        <time>2020-10-24T12:49:34.000Z</time>
      </trkpt>
      <trkpt lat="46.3627" lon="5.22413">
        <ele>222.39999389648</ele>
        <time>2020-10-24T12:49:36.000Z</time>
      </trkpt>
      <trkpt lat="46.36268" lon="5.22433">
        <ele>222.60000610352</ele>
        <time>2020-10-24T12:49:38.000Z</time>
      </trkpt>
      <trkpt lat="46.36266" lon="5.22452">
        <ele>223.39999389648</ele>
        <time>2020-10-24T12:49:40.000Z</time>
      </trkpt>
      <trkpt lat="46.36264" lon="5.22461">
        <ele>223.60000610352</ele>
        <time>2020-10-24T12:49:41.000Z</time>
      </trkpt>
      <trkpt lat="46.36262" lon="5.2247">
        <ele>224</ele>
        <time>2020-10-24T12:49:42.000Z</time>
      </trkpt>
      <trkpt lat="46.36257" lon="5.22487">
        <ele>224.60000610352</ele>
        <time>2020-10-24T12:49:44.000Z</time>
      </trkpt>
      <trkpt lat="46.3625" lon="5.22503">
        <ele>225.60000610352</ele>
        <time>2020-10-24T12:49:46.000Z</time>
      </trkpt>
      <trkpt lat="46.3624" lon="5.22517">
        <ele>226.19999694824</ele>
        <time>2020-10-24T12:49:48.000Z</time>
      </trkpt>
      <trkpt lat="46.36235" lon="5.22525">
        <ele>226.19999694824</ele>
        <time>2020-10-24T12:49:49.000Z</time>
      </trkpt>
      <trkpt lat="46.36229" lon="5.22532">
        <ele>226.19999694824</ele>
        <time>2020-10-24T12:49:50.000Z</time>
      </trkpt>
      <trkpt lat="46.36215" lon="5.22548">
        <ele>226.19999694824</ele>
        <time>2020-10-24T12:49:52.000Z</time>
      </trkpt>
      <trkpt lat="46.36201" lon="5.22565">
        <ele>226.19999694824</ele>
        <time>2020-10-24T12:49:54.000Z</time>
      </trkpt>
      <trkpt lat="46.36193" lon="5.22574">
        <ele>226.19999694824</ele>
        <time>2020-10-24T12:49:55.000Z</time>
      </trkpt>
      <trkpt lat="46.36186" lon="5.22584">
        <ele>226</ele>
        <time>2020-10-24T12:49:56.000Z</time>
      </trkpt>
      <trkpt lat="46.36179" lon="5.22595">
        <ele>225.60000610352</ele>
        <time>2020-10-24T12:49:57.000Z</time>
      </trkpt>
      <trkpt lat="46.36173" lon="5.22607">
        <ele>225</ele>
        <time>2020-10-24T12:49:58.000Z</time>
      </trkpt>
      <trkpt lat="46.36168" lon="5.2262">
        <ele>224.39999389648</ele>
        <time>2020-10-24T12:49:59.000Z</time>
      </trkpt>
      <trkpt lat="46.36164" lon="5.22633">
        <ele>223.80000305176</ele>
        <time>2020-10-24T12:50:00.000Z</time>
      </trkpt>
      <trkpt lat="46.36161" lon="5.22647">
        <ele>223.19999694824</ele>
        <time>2020-10-24T12:50:01.000Z</time>
      </trkpt>
      <trkpt lat="46.36157" lon="5.2266">
        <ele>222.60000610352</ele>
        <time>2020-10-24T12:50:02.000Z</time>
      </trkpt>
      <trkpt lat="46.36152" lon="5.22673">
        <ele>220.80000305176</ele>
        <time>2020-10-24T12:50:03.000Z</time>
      </trkpt>
      <trkpt lat="46.36147" lon="5.22685">
        <ele>220</ele>
        <time>2020-10-24T12:50:04.000Z</time>
      </trkpt>
      <trkpt lat="46.36141" lon="5.22696">
        <ele>219.19999694824</ele>
        <time>2020-10-24T12:50:05.000Z</time>
      </trkpt>
      <trkpt lat="46.36134" lon="5.22706">
        <ele>218.60000610352</ele>
        <time>2020-10-24T12:50:06.000Z</time>
      </trkpt>
      <trkpt lat="46.36128" lon="5.22716">
        <ele>218.39999389648</ele>
        <time>2020-10-24T12:50:07.000Z</time>
      </trkpt>
      <trkpt lat="46.36122" lon="5.22725">
        <ele>218</ele>
        <time>2020-10-24T12:50:08.000Z</time>
      </trkpt>
      <trkpt lat="46.36111" lon="5.22745">
        <ele>217.80000305176</ele>
        <time>2020-10-24T12:50:10.000Z</time>
      </trkpt>
      <trkpt lat="46.36101" lon="5.22765">
        <ele>217.80000305176</ele>
        <time>2020-10-24T12:50:12.000Z</time>
      </trkpt>
      <trkpt lat="46.36093" lon="5.22785">
        <ele>217.80000305176</ele>
        <time>2020-10-24T12:50:14.000Z</time>
      </trkpt>
      <trkpt lat="46.36086" lon="5.22805">
        <ele>217.80000305176</ele>
        <time>2020-10-24T12:50:16.000Z</time>
      </trkpt>
      <trkpt lat="46.36082" lon="5.22813">
        <ele>217.80000305176</ele>
        <time>2020-10-24T12:50:17.000Z</time>
      </trkpt>
      <trkpt lat="46.36078" lon="5.22822">
        <ele>217.80000305176</ele>
        <time>2020-10-24T12:50:18.000Z</time>
      </trkpt>
      <trkpt lat="46.3607" lon="5.22837">
        <ele>217.80000305176</ele>
        <time>2020-10-24T12:50:20.000Z</time>
      </trkpt>
      <trkpt lat="46.36061" lon="5.22849">
        <ele>218</ele>
        <time>2020-10-24T12:50:22.000Z</time>
      </trkpt>
      <trkpt lat="46.36053" lon="5.22859">
        <ele>218.39999389648</ele>
        <time>2020-10-24T12:50:24.000Z</time>
      </trkpt>
      <trkpt lat="46.36045" lon="5.22868">
        <ele>219.19999694824</ele>
        <time>2020-10-24T12:50:26.000Z</time>
      </trkpt>
      <trkpt lat="46.36038" lon="5.22877">
        <ele>219.39999389648</ele>
        <time>2020-10-24T12:50:28.000Z</time>
      </trkpt>
      <trkpt lat="46.36031" lon="5.22885">
        <ele>221</ele>
        <time>2020-10-24T12:50:30.000Z</time>
      </trkpt>
      <trkpt lat="46.36023" lon="5.22892">
        <ele>222.39999389648</ele>
        <time>2020-10-24T12:50:32.000Z</time>
      </trkpt>
      <trkpt lat="46.36019" lon="5.22895">
        <ele>222.80000305176</ele>
        <time>2020-10-24T12:50:33.000Z</time>
      </trkpt>
      <trkpt lat="46.36016" lon="5.22898">
        <ele>223.39999389648</ele>
        <time>2020-10-24T12:50:34.000Z</time>
      </trkpt>
      <trkpt lat="46.36012" lon="5.22901">
        <ele>223.80000305176</ele>
        <time>2020-10-24T12:50:35.000Z</time>
      </trkpt>
      <trkpt lat="46.36008" lon="5.22903">
        <ele>224</ele>
        <time>2020-10-24T12:50:36.000Z</time>
      </trkpt>
      <trkpt lat="46.36" lon="5.22908">
        <ele>224.60000610352</ele>
        <time>2020-10-24T12:50:38.000Z</time>
      </trkpt>
      <trkpt lat="46.35993" lon="5.22912">
        <ele>225.39999389648</ele>
        <time>2020-10-24T12:50:40.000Z</time>
      </trkpt>
      <trkpt lat="46.3599" lon="5.22914">
        <ele>225.60000610352</ele>
        <time>2020-10-24T12:50:41.000Z</time>
      </trkpt>
      <trkpt lat="46.35986" lon="5.22915">
        <ele>226</ele>
        <time>2020-10-24T12:50:42.000Z</time>
      </trkpt>
      <trkpt lat="46.35979" lon="5.22919">
        <ele>226.80000305176</ele>
        <time>2020-10-24T12:50:44.000Z</time>
      </trkpt>
      <trkpt lat="46.35972" lon="5.22922">
        <ele>227.39999389648</ele>
        <time>2020-10-24T12:50:46.000Z</time>
      </trkpt>
      <trkpt lat="46.35969" lon="5.22923">
        <ele>227.80000305176</ele>
        <time>2020-10-24T12:50:47.000Z</time>
      </trkpt>
      <trkpt lat="46.35965" lon="5.22924">
        <ele>228.19999694824</ele>
        <time>2020-10-24T12:50:48.000Z</time>
      </trkpt>
      <trkpt lat="46.35958" lon="5.22927">
        <ele>229</ele>
        <time>2020-10-24T12:50:50.000Z</time>
      </trkpt>
      <trkpt lat="46.35951" lon="5.2293">
        <ele>229.60000610352</ele>
        <time>2020-10-24T12:50:52.000Z</time>
      </trkpt>
      <trkpt lat="46.35944" lon="5.22934">
        <ele>230.39999389648</ele>
        <time>2020-10-24T12:50:54.000Z</time>
      </trkpt>
      <trkpt lat="46.35938" lon="5.22938">
        <ele>231</ele>
        <time>2020-10-24T12:50:56.000Z</time>
      </trkpt>
      <trkpt lat="46.35932" lon="5.22943">
        <ele>231.80000305176</ele>
        <time>2020-10-24T12:50:58.000Z</time>
      </trkpt>
      <trkpt lat="46.35929" lon="5.22946">
        <ele>232</ele>
        <time>2020-10-24T12:50:59.000Z</time>
      </trkpt>
      <trkpt lat="46.35926" lon="5.22949">
        <ele>232.19999694824</ele>
        <time>2020-10-24T12:51:00.000Z</time>
      </trkpt>
      <trkpt lat="46.35921" lon="5.22956">
        <ele>232.60000610352</ele>
        <time>2020-10-24T12:51:02.000Z</time>
      </trkpt>
      <trkpt lat="46.35917" lon="5.22963">
        <ele>233</ele>
        <time>2020-10-24T12:51:04.000Z</time>
      </trkpt>
      <trkpt lat="46.35912" lon="5.22971">
        <ele>233.60000610352</ele>
        <time>2020-10-24T12:51:06.000Z</time>
      </trkpt>
      <trkpt lat="46.3591" lon="5.22975">
        <ele>234</ele>
        <time>2020-10-24T12:51:07.000Z</time>
      </trkpt>
      <trkpt lat="46.35908" lon="5.22979">
        <ele>234.19999694824</ele>
        <time>2020-10-24T12:51:08.000Z</time>
      </trkpt>
      <trkpt lat="46.35903" lon="5.22988">
        <ele>234.80000305176</ele>
        <time>2020-10-24T12:51:10.000Z</time>
      </trkpt>
      <trkpt lat="46.359" lon="5.22992">
        <ele>235</ele>
        <time>2020-10-24T12:51:11.000Z</time>
      </trkpt>
      <trkpt lat="46.35898" lon="5.22996">
        <ele>235.19999694824</ele>
        <time>2020-10-24T12:51:12.000Z</time>
      </trkpt>
      <trkpt lat="46.35893" lon="5.23005">
        <ele>235.60000610352</ele>
        <time>2020-10-24T12:51:14.000Z</time>
      </trkpt>
      <trkpt lat="46.35889" lon="5.23013">
        <ele>236</ele>
        <time>2020-10-24T12:51:16.000Z</time>
      </trkpt>
      <trkpt lat="46.35884" lon="5.23022">
        <ele>236.19999694824</ele>
        <time>2020-10-24T12:51:18.000Z</time>
      </trkpt>
      <trkpt lat="46.35879" lon="5.2303">
        <ele>236.39999389648</ele>
        <time>2020-10-24T12:51:20.000Z</time>
      </trkpt>
      <trkpt lat="46.35874" lon="5.23039">
        <ele>236.80000305176</ele>
        <time>2020-10-24T12:51:22.000Z</time>
      </trkpt>
      <trkpt lat="46.35869" lon="5.23047">
        <ele>237.39999389648</ele>
        <time>2020-10-24T12:51:24.000Z</time>
      </trkpt>
      <trkpt lat="46.35864" lon="5.23057">
        <ele>238</ele>
        <time>2020-10-24T12:51:26.000Z</time>
      </trkpt>
      <trkpt lat="46.35861" lon="5.23062">
        <ele>238.19999694824</ele>
        <time>2020-10-24T12:51:27.000Z</time>
      </trkpt>
      <trkpt lat="46.35858" lon="5.23068">
        <ele>238.60000610352</ele>
        <time>2020-10-24T12:51:28.000Z</time>
      </trkpt>
      <trkpt lat="46.35851" lon="5.23078">
        <ele>238.80000305176</ele>
        <time>2020-10-24T12:51:30.000Z</time>
      </trkpt>
      <trkpt lat="46.35845" lon="5.23088">
        <ele>239</ele>
        <time>2020-10-24T12:51:32.000Z</time>
      </trkpt>
      <trkpt lat="46.35838" lon="5.23098">
        <ele>239</ele>
        <time>2020-10-24T12:51:34.000Z</time>
      </trkpt>
      <trkpt lat="46.35831" lon="5.23108">
        <ele>239</ele>
        <time>2020-10-24T12:51:36.000Z</time>
      </trkpt>
      <trkpt lat="46.35823" lon="5.23117">
        <ele>239.19999694824</ele>
        <time>2020-10-24T12:51:38.000Z</time>
      </trkpt>
      <trkpt lat="46.35815" lon="5.23125">
        <ele>239.19999694824</ele>
        <time>2020-10-24T12:51:40.000Z</time>
      </trkpt>
      <trkpt lat="46.35806" lon="5.23134">
        <ele>239.39999389648</ele>
        <time>2020-10-24T12:51:42.000Z</time>
      </trkpt>
      <trkpt lat="46.35797" lon="5.23142">
        <ele>239.60000610352</ele>
        <time>2020-10-24T12:51:44.000Z</time>
      </trkpt>
      <trkpt lat="46.35793" lon="5.23147">
        <ele>239.60000610352</ele>
        <time>2020-10-24T12:51:45.000Z</time>
      </trkpt>
      <trkpt lat="46.35789" lon="5.23152">
        <ele>239.60000610352</ele>
        <time>2020-10-24T12:51:46.000Z</time>
      </trkpt>
      <trkpt lat="46.35781" lon="5.23163">
        <ele>239.60000610352</ele>
        <time>2020-10-24T12:51:48.000Z</time>
      </trkpt>
      <trkpt lat="46.35775" lon="5.23175">
        <ele>239.60000610352</ele>
        <time>2020-10-24T12:51:50.000Z</time>
      </trkpt>
      <trkpt lat="46.35772" lon="5.23182">
        <ele>239.60000610352</ele>
        <time>2020-10-24T12:51:51.000Z</time>
      </trkpt>
      <trkpt lat="46.3577" lon="5.23188">
        <ele>239.60000610352</ele>
        <time>2020-10-24T12:51:52.000Z</time>
      </trkpt>
      <trkpt lat="46.35765" lon="5.23203">
        <ele>240.19999694824</ele>
        <time>2020-10-24T12:51:54.000Z</time>
      </trkpt>
      <trkpt lat="46.35763" lon="5.2321">
        <ele>240.19999694824</ele>
        <time>2020-10-24T12:51:55.000Z</time>
      </trkpt>
      <trkpt lat="46.35761" lon="5.23217">
        <ele>240.60000610352</ele>
        <time>2020-10-24T12:51:56.000Z</time>
      </trkpt>
      <trkpt lat="46.35757" lon="5.23232">
        <ele>240.80000305176</ele>
        <time>2020-10-24T12:51:58.000Z</time>
      </trkpt>
      <trkpt lat="46.35752" lon="5.23246">
        <ele>241</ele>
        <time>2020-10-24T12:52:00.000Z</time>
      </trkpt>
      <trkpt lat="46.35748" lon="5.2326">
        <ele>241.39999389648</ele>
        <time>2020-10-24T12:52:02.000Z</time>
      </trkpt>
      <trkpt lat="46.35746" lon="5.23266">
        <ele>241.39999389648</ele>
        <time>2020-10-24T12:52:03.000Z</time>
      </trkpt>
      <trkpt lat="46.35744" lon="5.23273">
        <ele>241.60000610352</ele>
        <time>2020-10-24T12:52:04.000Z</time>
      </trkpt>
      <trkpt lat="46.35742" lon="5.2328">
        <ele>241.60000610352</ele>
        <time>2020-10-24T12:52:05.000Z</time>
      </trkpt>
      <trkpt lat="46.3574" lon="5.23287">
        <ele>241.60000610352</ele>
        <time>2020-10-24T12:52:06.000Z</time>
      </trkpt>
      <trkpt lat="46.35736" lon="5.23301">
        <ele>242</ele>
        <time>2020-10-24T12:52:08.000Z</time>
      </trkpt>
      <trkpt lat="46.35733" lon="5.23309">
        <ele>242.19999694824</ele>
        <time>2020-10-24T12:52:09.000Z</time>
      </trkpt>
      <trkpt lat="46.35731" lon="5.23316">
        <ele>242.19999694824</ele>
        <time>2020-10-24T12:52:10.000Z</time>
      </trkpt>
      <trkpt lat="46.35726" lon="5.23333">
        <ele>242.39999389648</ele>
        <time>2020-10-24T12:52:12.000Z</time>
      </trkpt>
      <trkpt lat="46.3572" lon="5.23349">
        <ele>242.39999389648</ele>
        <time>2020-10-24T12:52:14.000Z</time>
      </trkpt>
      <trkpt lat="46.35713" lon="5.23366">
        <ele>242.39999389648</ele>
        <time>2020-10-24T12:52:16.000Z</time>
      </trkpt>
      <trkpt lat="46.35706" lon="5.23381">
        <ele>242.39999389648</ele>
        <time>2020-10-24T12:52:18.000Z</time>
      </trkpt>
      <trkpt lat="46.35698" lon="5.23396">
        <ele>242.39999389648</ele>
        <time>2020-10-24T12:52:20.000Z</time>
      </trkpt>
      <trkpt lat="46.35689" lon="5.23409">
        <ele>242.39999389648</ele>
        <time>2020-10-24T12:52:22.000Z</time>
      </trkpt>
      <trkpt lat="46.35685" lon="5.23415">
        <ele>242.39999389648</ele>
        <time>2020-10-24T12:52:23.000Z</time>
      </trkpt>
      <trkpt lat="46.3568" lon="5.23422">
        <ele>242.39999389648</ele>
        <time>2020-10-24T12:52:24.000Z</time>
      </trkpt>
      <trkpt lat="46.35673" lon="5.23435">
        <ele>242.39999389648</ele>
        <time>2020-10-24T12:52:26.000Z</time>
      </trkpt>
      <trkpt lat="46.35666" lon="5.2345">
        <ele>242.39999389648</ele>
        <time>2020-10-24T12:52:28.000Z</time>
      </trkpt>
      <trkpt lat="46.35663" lon="5.23457">
        <ele>242.39999389648</ele>
        <time>2020-10-24T12:52:29.000Z</time>
      </trkpt>
      <trkpt lat="46.35661" lon="5.23466">
        <ele>242.60000610352</ele>
        <time>2020-10-24T12:52:30.000Z</time>
      </trkpt>
      <trkpt lat="46.35659" lon="5.23475">
        <ele>242.60000610352</ele>
        <time>2020-10-24T12:52:31.000Z</time>
      </trkpt>
      <trkpt lat="46.35657" lon="5.23483">
        <ele>242.80000305176</ele>
        <time>2020-10-24T12:52:32.000Z</time>
      </trkpt>
      <trkpt lat="46.35654" lon="5.23501">
        <ele>243</ele>
        <time>2020-10-24T12:52:34.000Z</time>
      </trkpt>
      <trkpt lat="46.35651" lon="5.23518">
        <ele>243.19999694824</ele>
        <time>2020-10-24T12:52:36.000Z</time>
      </trkpt>
      <trkpt lat="46.35648" lon="5.23536">
        <ele>243.19999694824</ele>
        <time>2020-10-24T12:52:38.000Z</time>
      </trkpt>
      <trkpt lat="46.35646" lon="5.23544">
        <ele>243.19999694824</ele>
        <time>2020-10-24T12:52:39.000Z</time>
      </trkpt>
      <trkpt lat="46.35643" lon="5.23552">
        <ele>243.19999694824</ele>
        <time>2020-10-24T12:52:40.000Z</time>
      </trkpt>
      <trkpt lat="46.3564" lon="5.23559">
        <ele>243.19999694824</ele>
        <time>2020-10-24T12:52:41.000Z</time>
      </trkpt>
      <trkpt lat="46.35636" lon="5.23565">
        <ele>243.39999389648</ele>
        <time>2020-10-24T12:52:42.000Z</time>
      </trkpt>
      <trkpt lat="46.35627" lon="5.23574">
        <ele>243.60000610352</ele>
        <time>2020-10-24T12:52:44.000Z</time>
      </trkpt>
      <trkpt lat="46.35621" lon="5.23578">
        <ele>243.80000305176</ele>
        <time>2020-10-24T12:52:45.000Z</time>
      </trkpt>
      <trkpt lat="46.35616" lon="5.23581">
        <ele>243.80000305176</ele>
        <time>2020-10-24T12:52:46.000Z</time>
      </trkpt>
      <trkpt lat="46.3561" lon="5.23583">
        <ele>243.80000305176</ele>
        <time>2020-10-24T12:52:47.000Z</time>
      </trkpt>
      <trkpt lat="46.35604" lon="5.23586">
        <ele>244</ele>
        <time>2020-10-24T12:52:48.000Z</time>
      </trkpt>
      <trkpt lat="46.35592" lon="5.23591">
        <ele>244.19999694824</ele>
        <time>2020-10-24T12:52:50.000Z</time>
      </trkpt>
      <trkpt lat="46.35585" lon="5.23593">
        <ele>244.39999389648</ele>
        <time>2020-10-24T12:52:51.000Z</time>
      </trkpt>
      <trkpt lat="46.35579" lon="5.23595">
        <ele>244.39999389648</ele>
        <time>2020-10-24T12:52:52.000Z</time>
      </trkpt>
      <trkpt lat="46.35566" lon="5.23598">
        <ele>244.39999389648</ele>
        <time>2020-10-24T12:52:54.000Z</time>
      </trkpt>
      <trkpt lat="46.35553" lon="5.23601">
        <ele>244.60000610352</ele>
        <time>2020-10-24T12:52:56.000Z</time>
      </trkpt>
      <trkpt lat="46.3554" lon="5.23604">
        <ele>244.60000610352</ele>
        <time>2020-10-24T12:52:58.000Z</time>
      </trkpt>
      <trkpt lat="46.35527" lon="5.23606">
        <ele>244.80000305176</ele>
        <time>2020-10-24T12:53:00.000Z</time>
      </trkpt>
      <trkpt lat="46.35514" lon="5.23607">
        <ele>245</ele>
        <time>2020-10-24T12:53:02.000Z</time>
      </trkpt>
      <trkpt lat="46.355" lon="5.23608">
        <ele>245</ele>
        <time>2020-10-24T12:53:04.000Z</time>
      </trkpt>
      <trkpt lat="46.35487" lon="5.23608">
        <ele>245.19999694824</ele>
        <time>2020-10-24T12:53:06.000Z</time>
      </trkpt>
      <trkpt lat="46.35474" lon="5.23606">
        <ele>245.19999694824</ele>
        <time>2020-10-24T12:53:08.000Z</time>
      </trkpt>
      <trkpt lat="46.35461" lon="5.23603">
        <ele>245.19999694824</ele>
        <time>2020-10-24T12:53:10.000Z</time>
      </trkpt>
      <trkpt lat="46.35449" lon="5.23599">
        <ele>245.19999694824</ele>
        <time>2020-10-24T12:53:12.000Z</time>
      </trkpt>
      <trkpt lat="46.35436" lon="5.23595">
        <ele>245.19999694824</ele>
        <time>2020-10-24T12:53:14.000Z</time>
      </trkpt>
      <trkpt lat="46.35424" lon="5.23593">
        <ele>245.19999694824</ele>
        <time>2020-10-24T12:53:16.000Z</time>
      </trkpt>
      <trkpt lat="46.35411" lon="5.23592">
        <ele>245.19999694824</ele>
        <time>2020-10-24T12:53:18.000Z</time>
      </trkpt>
      <trkpt lat="46.35398" lon="5.23592">
        <ele>245.19999694824</ele>
        <time>2020-10-24T12:53:20.000Z</time>
      </trkpt>
      <trkpt lat="46.35385" lon="5.23593">
        <ele>245.39999389648</ele>
        <time>2020-10-24T12:53:22.000Z</time>
      </trkpt>
      <trkpt lat="46.35372" lon="5.23595">
        <ele>245.39999389648</ele>
        <time>2020-10-24T12:53:24.000Z</time>
      </trkpt>
      <trkpt lat="46.35359" lon="5.23598">
        <ele>245.39999389648</ele>
        <time>2020-10-24T12:53:26.000Z</time>
      </trkpt>
      <trkpt lat="46.35353" lon="5.236">
        <ele>245.39999389648</ele>
        <time>2020-10-24T12:53:27.000Z</time>
      </trkpt>
      <trkpt lat="46.35347" lon="5.23604">
        <ele>245.39999389648</ele>
        <time>2020-10-24T12:53:28.000Z</time>
      </trkpt>
      <trkpt lat="46.35342" lon="5.2361">
        <ele>245.39999389648</ele>
        <time>2020-10-24T12:53:29.000Z</time>
      </trkpt>
      <trkpt lat="46.35337" lon="5.23616">
        <ele>245.39999389648</ele>
        <time>2020-10-24T12:53:30.000Z</time>
      </trkpt>
      <trkpt lat="46.35329" lon="5.23632">
        <ele>245.39999389648</ele>
        <time>2020-10-24T12:53:32.000Z</time>
      </trkpt>
      <trkpt lat="46.35326" lon="5.23641">
        <ele>245.39999389648</ele>
        <time>2020-10-24T12:53:33.000Z</time>
      </trkpt>
      <trkpt lat="46.35323" lon="5.2365">
        <ele>245.39999389648</ele>
        <time>2020-10-24T12:53:34.000Z</time>
      </trkpt>
      <trkpt lat="46.35316" lon="5.23669">
        <ele>245.19999694824</ele>
        <time>2020-10-24T12:53:36.000Z</time>
      </trkpt>
      <trkpt lat="46.35311" lon="5.23687">
        <ele>245.19999694824</ele>
        <time>2020-10-24T12:53:38.000Z</time>
      </trkpt>
      <trkpt lat="46.35305" lon="5.23706">
        <ele>245.19999694824</ele>
        <time>2020-10-24T12:53:40.000Z</time>
      </trkpt>
      <trkpt lat="46.35303" lon="5.23715">
        <ele>245.19999694824</ele>
        <time>2020-10-24T12:53:41.000Z</time>
      </trkpt>
      <trkpt lat="46.353" lon="5.23724">
        <ele>245</ele>
        <time>2020-10-24T12:53:42.000Z</time>
      </trkpt>
      <trkpt lat="46.35294" lon="5.23743">
        <ele>244.60000610352</ele>
        <time>2020-10-24T12:53:44.000Z</time>
      </trkpt>
      <trkpt lat="46.35288" lon="5.23763">
        <ele>244.60000610352</ele>
        <time>2020-10-24T12:53:46.000Z</time>
      </trkpt>
      <trkpt lat="46.35282" lon="5.23782">
        <ele>244.39999389648</ele>
        <time>2020-10-24T12:53:48.000Z</time>
      </trkpt>
      <trkpt lat="46.35276" lon="5.23801">
        <ele>244.39999389648</ele>
        <time>2020-10-24T12:53:50.000Z</time>
      </trkpt>
      <trkpt lat="46.35273" lon="5.2381">
        <ele>244.39999389648</ele>
        <time>2020-10-24T12:53:51.000Z</time>
      </trkpt>
      <trkpt lat="46.3527" lon="5.23819">
        <ele>244.19999694824</ele>
        <time>2020-10-24T12:53:52.000Z</time>
      </trkpt>
      <trkpt lat="46.35265" lon="5.23838">
        <ele>244</ele>
        <time>2020-10-24T12:53:54.000Z</time>
      </trkpt>
      <trkpt lat="46.35259" lon="5.23857">
        <ele>243.80000305176</ele>
        <time>2020-10-24T12:53:56.000Z</time>
      </trkpt>
      <trkpt lat="46.35253" lon="5.23876">
        <ele>243.80000305176</ele>
        <time>2020-10-24T12:53:58.000Z</time>
      </trkpt>
      <trkpt lat="46.35247" lon="5.23894">
        <ele>243.80000305176</ele>
        <time>2020-10-24T12:54:00.000Z</time>
      </trkpt>
      <trkpt lat="46.35242" lon="5.23913">
        <ele>243.80000305176</ele>
        <time>2020-10-24T12:54:02.000Z</time>
      </trkpt>
      <trkpt lat="46.35239" lon="5.23922">
        <ele>243.80000305176</ele>
        <time>2020-10-24T12:54:03.000Z</time>
      </trkpt>
      <trkpt lat="46.35236" lon="5.23931">
        <ele>243.80000305176</ele>
        <time>2020-10-24T12:54:04.000Z</time>
      </trkpt>
      <trkpt lat="46.3523" lon="5.23948">
        <ele>243.80000305176</ele>
        <time>2020-10-24T12:54:06.000Z</time>
      </trkpt>
      <trkpt lat="46.35223" lon="5.23965">
        <ele>244</ele>
        <time>2020-10-24T12:54:08.000Z</time>
      </trkpt>
      <trkpt lat="46.35216" lon="5.23982">
        <ele>244.19999694824</ele>
        <time>2020-10-24T12:54:10.000Z</time>
      </trkpt>
      <trkpt lat="46.35212" lon="5.2399">
        <ele>244.19999694824</ele>
        <time>2020-10-24T12:54:11.000Z</time>
      </trkpt>
      <trkpt lat="46.35208" lon="5.23998">
        <ele>244.19999694824</ele>
        <time>2020-10-24T12:54:12.000Z</time>
      </trkpt>
      <trkpt lat="46.352" lon="5.24013">
        <ele>244.60000610352</ele>
        <time>2020-10-24T12:54:14.000Z</time>
      </trkpt>
      <trkpt lat="46.35192" lon="5.24029">
        <ele>244.60000610352</ele>
        <time>2020-10-24T12:54:16.000Z</time>
      </trkpt>
      <trkpt lat="46.35184" lon="5.24044">
        <ele>244.80000305176</ele>
        <time>2020-10-24T12:54:18.000Z</time>
      </trkpt>
      <trkpt lat="46.35176" lon="5.24059">
        <ele>245</ele>
        <time>2020-10-24T12:54:20.000Z</time>
      </trkpt>
      <trkpt lat="46.35169" lon="5.24073">
        <ele>245.19999694824</ele>
        <time>2020-10-24T12:54:22.000Z</time>
      </trkpt>
      <trkpt lat="46.35161" lon="5.24087">
        <ele>245.39999389648</ele>
        <time>2020-10-24T12:54:24.000Z</time>
      </trkpt>
      <trkpt lat="46.35154" lon="5.24102">
        <ele>245.39999389648</ele>
        <time>2020-10-24T12:54:26.000Z</time>
      </trkpt>
      <trkpt lat="46.35146" lon="5.24117">
        <ele>245.39999389648</ele>
        <time>2020-10-24T12:54:28.000Z</time>
      </trkpt>
      <trkpt lat="46.35139" lon="5.24132">
        <ele>245.80000305176</ele>
        <time>2020-10-24T12:54:30.000Z</time>
      </trkpt>
      <trkpt lat="46.35131" lon="5.24148">
        <ele>246</ele>
        <time>2020-10-24T12:54:32.000Z</time>
      </trkpt>
      <trkpt lat="46.35124" lon="5.24163">
        <ele>246.19999694824</ele>
        <time>2020-10-24T12:54:34.000Z</time>
      </trkpt>
      <trkpt lat="46.35117" lon="5.24178">
        <ele>246.19999694824</ele>
        <time>2020-10-24T12:54:36.000Z</time>
      </trkpt>
      <trkpt lat="46.35109" lon="5.24194">
        <ele>246.19999694824</ele>
        <time>2020-10-24T12:54:38.000Z</time>
      </trkpt>
      <trkpt lat="46.35101" lon="5.24208">
        <ele>246.19999694824</ele>
        <time>2020-10-24T12:54:40.000Z</time>
      </trkpt>
      <trkpt lat="46.35097" lon="5.24215">
        <ele>246.19999694824</ele>
        <time>2020-10-24T12:54:41.000Z</time>
      </trkpt>
      <trkpt lat="46.35092" lon="5.24221">
        <ele>246.19999694824</ele>
        <time>2020-10-24T12:54:42.000Z</time>
      </trkpt>
      <trkpt lat="46.35082" lon="5.24232">
        <ele>246.19999694824</ele>
        <time>2020-10-24T12:54:44.000Z</time>
      </trkpt>
      <trkpt lat="46.35071" lon="5.24242">
        <ele>246.19999694824</ele>
        <time>2020-10-24T12:54:46.000Z</time>
      </trkpt>
      <trkpt lat="46.3506" lon="5.24252">
        <ele>246.19999694824</ele>
        <time>2020-10-24T12:54:48.000Z</time>
      </trkpt>
      <trkpt lat="46.35049" lon="5.24262">
        <ele>246.19999694824</ele>
        <time>2020-10-24T12:54:50.000Z</time>
      </trkpt>
      <trkpt lat="46.35038" lon="5.24272">
        <ele>246</ele>
        <time>2020-10-24T12:54:52.000Z</time>
      </trkpt>
      <trkpt lat="46.35028" lon="5.24283">
        <ele>245.80000305176</ele>
        <time>2020-10-24T12:54:54.000Z</time>
      </trkpt>
      <trkpt lat="46.35019" lon="5.24295">
        <ele>245.60000610352</ele>
        <time>2020-10-24T12:54:56.000Z</time>
      </trkpt>
      <trkpt lat="46.3501" lon="5.24309">
        <ele>245.60000610352</ele>
        <time>2020-10-24T12:54:58.000Z</time>
      </trkpt>
      <trkpt lat="46.35001" lon="5.24322">
        <ele>245.60000610352</ele>
        <time>2020-10-24T12:55:00.000Z</time>
      </trkpt>
      <trkpt lat="46.34992" lon="5.24336">
        <ele>245.60000610352</ele>
        <time>2020-10-24T12:55:02.000Z</time>
      </trkpt>
      <trkpt lat="46.34983" lon="5.24351">
        <ele>245.60000610352</ele>
        <time>2020-10-24T12:55:04.000Z</time>
      </trkpt>
      <trkpt lat="46.34979" lon="5.24358">
        <ele>245.60000610352</ele>
        <time>2020-10-24T12:55:05.000Z</time>
      </trkpt>
      <trkpt lat="46.34975" lon="5.24366">
        <ele>245.60000610352</ele>
        <time>2020-10-24T12:55:06.000Z</time>
      </trkpt>
      <trkpt lat="46.34967" lon="5.24382">
        <ele>245.60000610352</ele>
        <time>2020-10-24T12:55:08.000Z</time>
      </trkpt>
      <trkpt lat="46.3496" lon="5.24398">
        <ele>245.80000305176</ele>
        <time>2020-10-24T12:55:10.000Z</time>
      </trkpt>
      <trkpt lat="46.34953" lon="5.24414">
        <ele>245.80000305176</ele>
        <time>2020-10-24T12:55:12.000Z</time>
      </trkpt>
      <trkpt lat="46.34949" lon="5.24423">
        <ele>245.80000305176</ele>
        <time>2020-10-24T12:55:13.000Z</time>
      </trkpt>
      <trkpt lat="46.34946" lon="5.24432">
        <ele>245.80000305176</ele>
        <time>2020-10-24T12:55:14.000Z</time>
      </trkpt>
      <trkpt lat="46.34938" lon="5.2445">
        <ele>245.80000305176</ele>
        <time>2020-10-24T12:55:16.000Z</time>
      </trkpt>
      <trkpt lat="46.34928" lon="5.24469">
        <ele>245.80000305176</ele>
        <time>2020-10-24T12:55:18.000Z</time>
      </trkpt>
      <trkpt lat="46.34923" lon="5.24478">
        <ele>245.80000305176</ele>
        <time>2020-10-24T12:55:19.000Z</time>
      </trkpt>
      <trkpt lat="46.34918" lon="5.24487">
        <ele>245.60000610352</ele>
        <time>2020-10-24T12:55:20.000Z</time>
      </trkpt>
      <trkpt lat="46.34907" lon="5.24505">
        <ele>245.19999694824</ele>
        <time>2020-10-24T12:55:22.000Z</time>
      </trkpt>
      <trkpt lat="46.34901" lon="5.24514">
        <ele>244.80000305176</ele>
        <time>2020-10-24T12:55:23.000Z</time>
      </trkpt>
      <trkpt lat="46.34896" lon="5.24524">
        <ele>244.19999694824</ele>
        <time>2020-10-24T12:55:24.000Z</time>
      </trkpt>
      <trkpt lat="46.34891" lon="5.24533">
        <ele>243.60000610352</ele>
        <time>2020-10-24T12:55:25.000Z</time>
      </trkpt>
      <trkpt lat="46.34885" lon="5.24543">
        <ele>243</ele>
        <time>2020-10-24T12:55:26.000Z</time>
      </trkpt>
      <trkpt lat="46.34881" lon="5.24554">
        <ele>242.60000610352</ele>
        <time>2020-10-24T12:55:27.000Z</time>
      </trkpt>
      <trkpt lat="46.34877" lon="5.24566">
        <ele>242.19999694824</ele>
        <time>2020-10-24T12:55:28.000Z</time>
      </trkpt>
      <trkpt lat="46.3487" lon="5.24591">
        <ele>241.80000305176</ele>
        <time>2020-10-24T12:55:30.000Z</time>
      </trkpt>
      <trkpt lat="46.34868" lon="5.24605">
        <ele>241.60000610352</ele>
        <time>2020-10-24T12:55:31.000Z</time>
      </trkpt>
      <trkpt lat="46.34865" lon="5.2462">
        <ele>241.39999389648</ele>
        <time>2020-10-24T12:55:32.000Z</time>
      </trkpt>
      <trkpt lat="46.34862" lon="5.2465">
        <ele>241</ele>
        <time>2020-10-24T12:55:34.000Z</time>
      </trkpt>
      <trkpt lat="46.3486" lon="5.24681">
        <ele>239.39999389648</ele>
        <time>2020-10-24T12:55:36.000Z</time>
      </trkpt>
      <trkpt lat="46.34858" lon="5.24696">
        <ele>238.39999389648</ele>
        <time>2020-10-24T12:55:37.000Z</time>
      </trkpt>
      <trkpt lat="46.34856" lon="5.24711">
        <ele>237.39999389648</ele>
        <time>2020-10-24T12:55:38.000Z</time>
      </trkpt>
      <trkpt lat="46.34854" lon="5.24725">
        <ele>236.39999389648</ele>
        <time>2020-10-24T12:55:39.000Z</time>
      </trkpt>
      <trkpt lat="46.3485" lon="5.24739">
        <ele>235.39999389648</ele>
        <time>2020-10-24T12:55:40.000Z</time>
      </trkpt>
      <trkpt lat="46.34846" lon="5.24752">
        <ele>234.60000610352</ele>
        <time>2020-10-24T12:55:41.000Z</time>
      </trkpt>
      <trkpt lat="46.34842" lon="5.24764">
        <ele>233.60000610352</ele>
        <time>2020-10-24T12:55:42.000Z</time>
      </trkpt>
      <trkpt lat="46.34838" lon="5.24777">
        <ele>233.19999694824</ele>
        <time>2020-10-24T12:55:43.000Z</time>
      </trkpt>
      <trkpt lat="46.34833" lon="5.24788">
        <ele>233</ele>
        <time>2020-10-24T12:55:44.000Z</time>
      </trkpt>
      <trkpt lat="46.34823" lon="5.24809">
        <ele>232.80000305176</ele>
        <time>2020-10-24T12:55:46.000Z</time>
      </trkpt>
      <trkpt lat="46.34812" lon="5.24827">
        <ele>232.80000305176</ele>
        <time>2020-10-24T12:55:48.000Z</time>
      </trkpt>
      <trkpt lat="46.34801" lon="5.24844">
        <ele>232.80000305176</ele>
        <time>2020-10-24T12:55:50.000Z</time>
      </trkpt>
      <trkpt lat="46.34792" lon="5.2486">
        <ele>233</ele>
        <time>2020-10-24T12:55:52.000Z</time>
      </trkpt>
      <trkpt lat="46.34783" lon="5.24877">
        <ele>233.80000305176</ele>
        <time>2020-10-24T12:55:54.000Z</time>
      </trkpt>
      <trkpt lat="46.34775" lon="5.24895">
        <ele>234.60000610352</ele>
        <time>2020-10-24T12:55:56.000Z</time>
      </trkpt>
      <trkpt lat="46.34767" lon="5.24914">
        <ele>235.39999389648</ele>
        <time>2020-10-24T12:55:58.000Z</time>
      </trkpt>
      <trkpt lat="46.34764" lon="5.24923">
        <ele>235.60000610352</ele>
        <time>2020-10-24T12:55:59.000Z</time>
      </trkpt>
      <trkpt lat="46.3476" lon="5.24932">
        <ele>236</ele>
        <time>2020-10-24T12:56:00.000Z</time>
      </trkpt>
      <trkpt lat="46.34753" lon="5.24949">
        <ele>236.60000610352</ele>
        <time>2020-10-24T12:56:02.000Z</time>
      </trkpt>
      <trkpt lat="46.3475" lon="5.24959">
        <ele>236.80000305176</ele>
        <time>2020-10-24T12:56:03.000Z</time>
      </trkpt>
      <trkpt lat="46.34747" lon="5.24967">
        <ele>237</ele>
        <time>2020-10-24T12:56:04.000Z</time>
      </trkpt>
      <trkpt lat="46.34741" lon="5.24984">
        <ele>237.39999389648</ele>
        <time>2020-10-24T12:56:06.000Z</time>
      </trkpt>
      <trkpt lat="46.34735" lon="5.25">
        <ele>238</ele>
        <time>2020-10-24T12:56:08.000Z</time>
      </trkpt>
      <trkpt lat="46.34729" lon="5.25017">
        <ele>238.60000610352</ele>
        <time>2020-10-24T12:56:10.000Z</time>
      </trkpt>
      <trkpt lat="46.34723" lon="5.25035">
        <ele>239.19999694824</ele>
        <time>2020-10-24T12:56:12.000Z</time>
      </trkpt>
      <trkpt lat="46.34716" lon="5.25053">
        <ele>239.19999694824</ele>
        <time>2020-10-24T12:56:14.000Z</time>
      </trkpt>
      <trkpt lat="46.34709" lon="5.25074">
        <ele>239.39999389648</ele>
        <time>2020-10-24T12:56:16.000Z</time>
      </trkpt>
      <trkpt lat="46.34702" lon="5.25095">
        <ele>239.39999389648</ele>
        <time>2020-10-24T12:56:18.000Z</time>
      </trkpt>
      <trkpt lat="46.34694" lon="5.25119">
        <ele>239.39999389648</ele>
        <time>2020-10-24T12:56:20.000Z</time>
      </trkpt>
      <trkpt lat="46.34686" lon="5.25144">
        <ele>239.19999694824</ele>
        <time>2020-10-24T12:56:22.000Z</time>
      </trkpt>
      <trkpt lat="46.34679" lon="5.25171">
        <ele>238.39999389648</ele>
        <time>2020-10-24T12:56:24.000Z</time>
      </trkpt>
      <trkpt lat="46.34675" lon="5.25185">
        <ele>238</ele>
        <time>2020-10-24T12:56:25.000Z</time>
      </trkpt>
      <trkpt lat="46.34672" lon="5.25199">
        <ele>237.39999389648</ele>
        <time>2020-10-24T12:56:26.000Z</time>
      </trkpt>
      <trkpt lat="46.34669" lon="5.25213">
        <ele>236.60000610352</ele>
        <time>2020-10-24T12:56:27.000Z</time>
      </trkpt>
      <trkpt lat="46.34666" lon="5.25227">
        <ele>236</ele>
        <time>2020-10-24T12:56:28.000Z</time>
      </trkpt>
      <trkpt lat="46.34662" lon="5.25241">
        <ele>235.19999694824</ele>
        <time>2020-10-24T12:56:29.000Z</time>
      </trkpt>
      <trkpt lat="46.34659" lon="5.25254">
        <ele>234.60000610352</ele>
        <time>2020-10-24T12:56:30.000Z</time>
      </trkpt>
      <trkpt lat="46.34656" lon="5.25267">
        <ele>233.19999694824</ele>
        <time>2020-10-24T12:56:31.000Z</time>
      </trkpt>
      <trkpt lat="46.34652" lon="5.2528">
        <ele>232.60000610352</ele>
        <time>2020-10-24T12:56:32.000Z</time>
      </trkpt>
      <trkpt lat="46.34649" lon="5.25292">
        <ele>232</ele>
        <time>2020-10-24T12:56:33.000Z</time>
      </trkpt>
      <trkpt lat="46.34646" lon="5.25304">
        <ele>231.39999389648</ele>
        <time>2020-10-24T12:56:34.000Z</time>
      </trkpt>
      <trkpt lat="46.34644" lon="5.25316">
        <ele>231</ele>
        <time>2020-10-24T12:56:35.000Z</time>
      </trkpt>
      <trkpt lat="46.34641" lon="5.25328">
        <ele>230.80000305176</ele>
        <time>2020-10-24T12:56:36.000Z</time>
      </trkpt>
      <trkpt lat="46.34636" lon="5.2535">
        <ele>230.60000610352</ele>
        <time>2020-10-24T12:56:38.000Z</time>
      </trkpt>
      <trkpt lat="46.34632" lon="5.25371">
        <ele>230.60000610352</ele>
        <time>2020-10-24T12:56:40.000Z</time>
      </trkpt>
      <trkpt lat="46.34629" lon="5.2539">
        <ele>230.60000610352</ele>
        <time>2020-10-24T12:56:42.000Z</time>
      </trkpt>
      <trkpt lat="46.34627" lon="5.25407">
        <ele>230.60000610352</ele>
        <time>2020-10-24T12:56:44.000Z</time>
      </trkpt>
      <trkpt lat="46.34626" lon="5.25415">
        <ele>230.80000305176</ele>
        <time>2020-10-24T12:56:45.000Z</time>
      </trkpt>
      <trkpt lat="46.34625" lon="5.25424">
        <ele>231.19999694824</ele>
        <time>2020-10-24T12:56:46.000Z</time>
      </trkpt>
      <trkpt lat="46.34622" lon="5.2544">
        <ele>232</ele>
        <time>2020-10-24T12:56:48.000Z</time>
      </trkpt>
      <trkpt lat="46.34621" lon="5.25447">
        <ele>232.39999389648</ele>
        <time>2020-10-24T12:56:49.000Z</time>
      </trkpt>
      <trkpt lat="46.34619" lon="5.25455">
        <ele>232.80000305176</ele>
        <time>2020-10-24T12:56:50.000Z</time>
      </trkpt>
      <trkpt lat="46.34616" lon="5.25469">
        <ele>233.60000610352</ele>
        <time>2020-10-24T12:56:52.000Z</time>
      </trkpt>
      <trkpt lat="46.34612" lon="5.25483">
        <ele>234.19999694824</ele>
        <time>2020-10-24T12:56:54.000Z</time>
      </trkpt>
      <trkpt lat="46.34609" lon="5.25496">
        <ele>234.39999389648</ele>
        <time>2020-10-24T12:56:56.000Z</time>
      </trkpt>
      <trkpt lat="46.34607" lon="5.25509">
        <ele>234.80000305176</ele>
        <time>2020-10-24T12:56:58.000Z</time>
      </trkpt>
      <trkpt lat="46.34606" lon="5.25515">
        <ele>235.39999389648</ele>
        <time>2020-10-24T12:56:59.000Z</time>
      </trkpt>
      <trkpt lat="46.34605" lon="5.25521">
        <ele>235.60000610352</ele>
        <time>2020-10-24T12:57:00.000Z</time>
      </trkpt>
      <trkpt lat="46.34605" lon="5.25527">
        <ele>236</ele>
        <time>2020-10-24T12:57:01.000Z</time>
      </trkpt>
      <trkpt lat="46.34604" lon="5.25534">
        <ele>236.39999389648</ele>
        <time>2020-10-24T12:57:02.000Z</time>
      </trkpt>
      <trkpt lat="46.34602" lon="5.25546">
        <ele>237</ele>
        <time>2020-10-24T12:57:04.000Z</time>
      </trkpt>
      <trkpt lat="46.346" lon="5.25559">
        <ele>237.80000305176</ele>
        <time>2020-10-24T12:57:06.000Z</time>
      </trkpt>
      <trkpt lat="46.34599" lon="5.25565">
        <ele>238.19999694824</ele>
        <time>2020-10-24T12:57:07.000Z</time>
      </trkpt>
      <trkpt lat="46.34597" lon="5.2557">
        <ele>238.60000610352</ele>
        <time>2020-10-24T12:57:08.000Z</time>
      </trkpt>
      <trkpt lat="46.34594" lon="5.25582">
        <ele>239.19999694824</ele>
        <time>2020-10-24T12:57:10.000Z</time>
      </trkpt>
      <trkpt lat="46.34591" lon="5.25587">
        <ele>239.60000610352</ele>
        <time>2020-10-24T12:57:11.000Z</time>
      </trkpt>
      <trkpt lat="46.34588" lon="5.25592">
        <ele>239.80000305176</ele>
        <time>2020-10-24T12:57:12.000Z</time>
      </trkpt>
      <trkpt lat="46.34585" lon="5.25597">
        <ele>240</ele>
        <time>2020-10-24T12:57:13.000Z</time>
      </trkpt>
      <trkpt lat="46.34582" lon="5.25601">
        <ele>240.19999694824</ele>
        <time>2020-10-24T12:57:14.000Z</time>
      </trkpt>
      <trkpt lat="46.34574" lon="5.25608">
        <ele>241</ele>
        <time>2020-10-24T12:57:16.000Z</time>
      </trkpt>
      <trkpt lat="46.3457" lon="5.2561">
        <ele>241.39999389648</ele>
        <time>2020-10-24T12:57:17.000Z</time>
      </trkpt>
      <trkpt lat="46.34566" lon="5.25613">
        <ele>241.80000305176</ele>
        <time>2020-10-24T12:57:18.000Z</time>
      </trkpt>
      <trkpt lat="46.34562" lon="5.25616">
        <ele>242</ele>
        <time>2020-10-24T12:57:19.000Z</time>
      </trkpt>
      <trkpt lat="46.34557" lon="5.25618">
        <ele>242.19999694824</ele>
        <time>2020-10-24T12:57:20.000Z</time>
      </trkpt>
      <trkpt lat="46.34553" lon="5.25621">
        <ele>242.39999389648</ele>
        <time>2020-10-24T12:57:21.000Z</time>
      </trkpt>
      <trkpt lat="46.34548" lon="5.25623">
        <ele>242.80000305176</ele>
        <time>2020-10-24T12:57:22.000Z</time>
      </trkpt>
      <trkpt lat="46.34539" lon="5.25626">
        <ele>243.19999694824</ele>
        <time>2020-10-24T12:57:24.000Z</time>
      </trkpt>
      <trkpt lat="46.34534" lon="5.25628">
        <ele>243.60000610352</ele>
        <time>2020-10-24T12:57:25.000Z</time>
      </trkpt>
      <trkpt lat="46.3453" lon="5.25629">
        <ele>243.80000305176</ele>
        <time>2020-10-24T12:57:26.000Z</time>
      </trkpt>
      <trkpt lat="46.34525" lon="5.25631">
        <ele>244.19999694824</ele>
        <time>2020-10-24T12:57:27.000Z</time>
      </trkpt>
      <trkpt lat="46.34521" lon="5.25632">
        <ele>244.39999389648</ele>
        <time>2020-10-24T12:57:28.000Z</time>
      </trkpt>
      <trkpt lat="46.34517" lon="5.25633">
        <ele>244.60000610352</ele>
        <time>2020-10-24T12:57:29.000Z</time>
      </trkpt>
      <trkpt lat="46.34512" lon="5.25635">
        <ele>244.80000305176</ele>
        <time>2020-10-24T12:57:30.000Z</time>
      </trkpt>
      <trkpt lat="46.34503" lon="5.25638">
        <ele>245.19999694824</ele>
        <time>2020-10-24T12:57:32.000Z</time>
      </trkpt>
      <trkpt lat="46.34493" lon="5.25642">
        <ele>245.39999389648</ele>
        <time>2020-10-24T12:57:34.000Z</time>
      </trkpt>
      <trkpt lat="46.34488" lon="5.25644">
        <ele>245.39999389648</ele>
        <time>2020-10-24T12:57:35.000Z</time>
      </trkpt>
      <trkpt lat="46.34483" lon="5.25645">
        <ele>245.39999389648</ele>
        <time>2020-10-24T12:57:36.000Z</time>
      </trkpt>
      <trkpt lat="46.34478" lon="5.25646">
        <ele>245.39999389648</ele>
        <time>2020-10-24T12:57:37.000Z</time>
      </trkpt>
      <trkpt lat="46.34472" lon="5.25646">
        <ele>245.39999389648</ele>
        <time>2020-10-24T12:57:38.000Z</time>
      </trkpt>
      <trkpt lat="46.34466" lon="5.25646">
        <ele>245.39999389648</ele>
        <time>2020-10-24T12:57:39.000Z</time>
      </trkpt>
      <trkpt lat="46.3446" lon="5.25647">
        <ele>245.39999389648</ele>
        <time>2020-10-24T12:57:40.000Z</time>
      </trkpt>
      <trkpt lat="46.34449" lon="5.25646">
        <ele>245.19999694824</ele>
        <time>2020-10-24T12:57:42.000Z</time>
      </trkpt>
      <trkpt lat="46.34443" lon="5.25645">
        <ele>245</ele>
        <time>2020-10-24T12:57:43.000Z</time>
      </trkpt>
      <trkpt lat="46.34437" lon="5.25643">
        <ele>244.60000610352</ele>
        <time>2020-10-24T12:57:44.000Z</time>
      </trkpt>
      <trkpt lat="46.34432" lon="5.25641">
        <ele>244.39999389648</ele>
        <time>2020-10-24T12:57:45.000Z</time>
      </trkpt>
      <trkpt lat="46.34427" lon="5.2564">
        <ele>244.19999694824</ele>
        <time>2020-10-24T12:57:46.000Z</time>
      </trkpt>
      <trkpt lat="46.34419" lon="5.25643">
        <ele>243.60000610352</ele>
        <time>2020-10-24T12:57:48.000Z</time>
      </trkpt>
      <trkpt lat="46.34413" lon="5.25656">
        <ele>243.39999389648</ele>
        <time>2020-10-24T12:57:50.000Z</time>
      </trkpt>
      <trkpt lat="46.34411" lon="5.25663">
        <ele>243.19999694824</ele>
        <time>2020-10-24T12:57:51.000Z</time>
      </trkpt>
      <trkpt lat="46.34409" lon="5.25672">
        <ele>243</ele>
        <time>2020-10-24T12:57:52.000Z</time>
      </trkpt>
      <trkpt lat="46.34405" lon="5.25692">
        <ele>242.80000305176</ele>
        <time>2020-10-24T12:57:54.000Z</time>
      </trkpt>
      <trkpt lat="46.34402" lon="5.25703">
        <ele>242.60000610352</ele>
        <time>2020-10-24T12:57:55.000Z</time>
      </trkpt>
      <trkpt lat="46.34399" lon="5.25713">
        <ele>242.60000610352</ele>
        <time>2020-10-24T12:57:56.000Z</time>
      </trkpt>
      <trkpt lat="46.34393" lon="5.2573">
        <ele>242.19999694824</ele>
        <time>2020-10-24T12:57:58.000Z</time>
      </trkpt>
      <trkpt lat="46.3439" lon="5.25737">
        <ele>241.60000610352</ele>
        <time>2020-10-24T12:57:59.000Z</time>
      </trkpt>
      <trkpt lat="46.34386" lon="5.25744">
        <ele>240.80000305176</ele>
        <time>2020-10-24T12:58:00.000Z</time>
      </trkpt>
      <trkpt lat="46.34383" lon="5.25749">
        <ele>239.60000610352</ele>
        <time>2020-10-24T12:58:01.000Z</time>
      </trkpt>
      <trkpt lat="46.34379" lon="5.25754">
        <ele>238.60000610352</ele>
        <time>2020-10-24T12:58:02.000Z</time>
      </trkpt>
      <trkpt lat="46.34376" lon="5.25759">
        <ele>237.80000305176</ele>
        <time>2020-10-24T12:58:03.000Z</time>
      </trkpt>
      <trkpt lat="46.34372" lon="5.25765">
        <ele>237.60000610352</ele>
        <time>2020-10-24T12:58:04.000Z</time>
      </trkpt>
      <trkpt lat="46.34367" lon="5.25779">
        <ele>237.19999694824</ele>
        <time>2020-10-24T12:58:06.000Z</time>
      </trkpt>
      <trkpt lat="46.34363" lon="5.25786">
        <ele>237</ele>
        <time>2020-10-24T12:58:07.000Z</time>
      </trkpt>
      <trkpt lat="46.34358" lon="5.25792">
        <ele>236.80000305176</ele>
        <time>2020-10-24T12:58:08.000Z</time>
      </trkpt>
      <trkpt lat="46.34348" lon="5.25801">
        <ele>236.80000305176</ele>
        <time>2020-10-24T12:58:10.000Z</time>
      </trkpt>
      <trkpt lat="46.34344" lon="5.25805">
        <ele>236.80000305176</ele>
        <time>2020-10-24T12:58:11.000Z</time>
      </trkpt>
      <trkpt lat="46.3434" lon="5.25809">
        <ele>236.80000305176</ele>
        <time>2020-10-24T12:58:12.000Z</time>
      </trkpt>
      <trkpt lat="46.34334" lon="5.25819">
        <ele>236.80000305176</ele>
        <time>2020-10-24T12:58:14.000Z</time>
      </trkpt>
      <trkpt lat="46.34331" lon="5.25824">
        <ele>237</ele>
        <time>2020-10-24T12:58:15.000Z</time>
      </trkpt>
      <trkpt lat="46.34328" lon="5.25829">
        <ele>237</ele>
        <time>2020-10-24T12:58:16.000Z</time>
      </trkpt>
      <trkpt lat="46.34321" lon="5.25832">
        <ele>237</ele>
        <time>2020-10-24T12:58:18.000Z</time>
      </trkpt>
      <trkpt lat="46.34312" lon="5.2583">
        <ele>237.19999694824</ele>
        <time>2020-10-24T12:58:20.000Z</time>
      </trkpt>
      <trkpt lat="46.34303" lon="5.25828">
        <ele>237.60000610352</ele>
        <time>2020-10-24T12:58:22.000Z</time>
      </trkpt>
      <trkpt lat="46.34299" lon="5.25827">
        <ele>237.80000305176</ele>
        <time>2020-10-24T12:58:23.000Z</time>
      </trkpt>
      <trkpt lat="46.34295" lon="5.25826">
        <ele>238</ele>
        <time>2020-10-24T12:58:24.000Z</time>
      </trkpt>
      <trkpt lat="46.34291" lon="5.25827">
        <ele>238.19999694824</ele>
        <time>2020-10-24T12:58:26.000Z</time>
      </trkpt>
      <trkpt lat="46.34289" lon="5.25829">
        <ele>238.39999389648</ele>
        <time>2020-10-24T12:58:27.000Z</time>
      </trkpt>
      <trkpt lat="46.34288" lon="5.25833">
        <ele>238.39999389648</ele>
        <time>2020-10-24T12:58:28.000Z</time>
      </trkpt>
      <trkpt lat="46.34286" lon="5.25841">
        <ele>238.60000610352</ele>
        <time>2020-10-24T12:58:30.000Z</time>
      </trkpt>
      <trkpt lat="46.34286" lon="5.25844">
        <ele>238.80000305176</ele>
        <time>2020-10-24T12:58:31.000Z</time>
      </trkpt>
      <trkpt lat="46.34285" lon="5.25849">
        <ele>239</ele>
        <time>2020-10-24T12:58:32.000Z</time>
      </trkpt>
      <trkpt lat="46.34282" lon="5.25859">
        <ele>239.19999694824</ele>
        <time>2020-10-24T12:58:34.000Z</time>
      </trkpt>
      <trkpt lat="46.34279" lon="5.25868">
        <ele>239.19999694824</ele>
        <time>2020-10-24T12:58:36.000Z</time>
      </trkpt>
      <trkpt lat="46.34277" lon="5.25871">
        <ele>239.19999694824</ele>
        <time>2020-10-24T12:58:37.000Z</time>
      </trkpt>
      <trkpt lat="46.34274" lon="5.25874">
        <ele>239.19999694824</ele>
        <time>2020-10-24T12:58:38.000Z</time>
      </trkpt>
      <trkpt lat="46.3427" lon="5.25876">
        <ele>239.19999694824</ele>
        <time>2020-10-24T12:58:39.000Z</time>
      </trkpt>
      <trkpt lat="46.34265" lon="5.25877">
        <ele>239.39999389648</ele>
        <time>2020-10-24T12:58:40.000Z</time>
      </trkpt>
      <trkpt lat="46.34257" lon="5.25881">
        <ele>239.60000610352</ele>
        <time>2020-10-24T12:58:42.000Z</time>
      </trkpt>
      <trkpt lat="46.34253" lon="5.25885">
        <ele>239.60000610352</ele>
        <time>2020-10-24T12:58:43.000Z</time>
      </trkpt>
      <trkpt lat="46.3425" lon="5.25889">
        <ele>239.60000610352</ele>
        <time>2020-10-24T12:58:44.000Z</time>
      </trkpt>
      <trkpt lat="46.34246" lon="5.25893">
        <ele>239.80000305176</ele>
        <time>2020-10-24T12:58:45.000Z</time>
      </trkpt>
      <trkpt lat="46.34242" lon="5.25897">
        <ele>240</ele>
        <time>2020-10-24T12:58:46.000Z</time>
      </trkpt>
      <trkpt lat="46.34236" lon="5.25906">
        <ele>240.39999389648</ele>
        <time>2020-10-24T12:58:48.000Z</time>
      </trkpt>
      <trkpt lat="46.3423" lon="5.25915">
        <ele>240.60000610352</ele>
        <time>2020-10-24T12:58:50.000Z</time>
      </trkpt>
      <trkpt lat="46.34227" lon="5.2592">
        <ele>240.80000305176</ele>
        <time>2020-10-24T12:58:51.000Z</time>
      </trkpt>
      <trkpt lat="46.34225" lon="5.25925">
        <ele>241</ele>
        <time>2020-10-24T12:58:52.000Z</time>
      </trkpt>
      <trkpt lat="46.34219" lon="5.25935">
        <ele>241.60000610352</ele>
        <time>2020-10-24T12:58:54.000Z</time>
      </trkpt>
      <trkpt lat="46.34214" lon="5.25947">
        <ele>242</ele>
        <time>2020-10-24T12:58:56.000Z</time>
      </trkpt>
      <trkpt lat="46.34209" lon="5.25958">
        <ele>242.60000610352</ele>
        <time>2020-10-24T12:58:58.000Z</time>
      </trkpt>
      <trkpt lat="46.34204" lon="5.25969">
        <ele>243</ele>
        <time>2020-10-24T12:59:00.000Z</time>
      </trkpt>
      <trkpt lat="46.34201" lon="5.25975">
        <ele>243.19999694824</ele>
        <time>2020-10-24T12:59:01.000Z</time>
      </trkpt>
      <trkpt lat="46.34199" lon="5.25981">
        <ele>243.39999389648</ele>
        <time>2020-10-24T12:59:02.000Z</time>
      </trkpt>
      <trkpt lat="46.34193" lon="5.25993">
        <ele>244</ele>
        <time>2020-10-24T12:59:04.000Z</time>
      </trkpt>
      <trkpt lat="46.34188" lon="5.26005">
        <ele>244.60000610352</ele>
        <time>2020-10-24T12:59:06.000Z</time>
      </trkpt>
      <trkpt lat="46.34182" lon="5.26017">
        <ele>245.19999694824</ele>
        <time>2020-10-24T12:59:08.000Z</time>
      </trkpt>
      <trkpt lat="46.34179" lon="5.26023">
        <ele>245.19999694824</ele>
        <time>2020-10-24T12:59:09.000Z</time>
      </trkpt>
      <trkpt lat="46.34176" lon="5.26029">
        <ele>245.39999389648</ele>
        <time>2020-10-24T12:59:10.000Z</time>
      </trkpt>
      <trkpt lat="46.34171" lon="5.26042">
        <ele>245.80000305176</ele>
        <time>2020-10-24T12:59:12.000Z</time>
      </trkpt>
      <trkpt lat="46.34166" lon="5.26054">
        <ele>246</ele>
        <time>2020-10-24T12:59:14.000Z</time>
      </trkpt>
      <trkpt lat="46.34164" lon="5.26061">
        <ele>246.19999694824</ele>
        <time>2020-10-24T12:59:15.000Z</time>
      </trkpt>
      <trkpt lat="46.34162" lon="5.26068">
        <ele>246.39999389648</ele>
        <time>2020-10-24T12:59:16.000Z</time>
      </trkpt>
      <trkpt lat="46.34161" lon="5.26075">
        <ele>246.60000610352</ele>
        <time>2020-10-24T12:59:17.000Z</time>
      </trkpt>
      <trkpt lat="46.34159" lon="5.26082">
        <ele>247</ele>
        <time>2020-10-24T12:59:18.000Z</time>
      </trkpt>
      <trkpt lat="46.34158" lon="5.26093">
        <ele>247.19999694824</ele>
        <time>2020-10-24T12:59:20.000Z</time>
      </trkpt>
      <trkpt lat="46.34157" lon="5.26096">
        <ele>247.19999694824</ele>
        <time>2020-10-24T12:59:21.000Z</time>
      </trkpt>
      <trkpt lat="46.34157" lon="5.26098">
        <ele>247.39999389648</ele>
        <time>2020-10-24T12:59:22.000Z</time>
      </trkpt>
      <trkpt lat="46.34157" lon="5.26098">
        <ele>247.39999389648</ele>
        <time>2020-10-24T12:59:24.000Z</time>
      </trkpt>
      <trkpt lat="46.34155" lon="5.26102">
        <ele>247.80000305176</ele>
        <time>2020-10-24T12:59:27.000Z</time>
      </trkpt>
      <trkpt lat="46.34154" lon="5.26104">
        <ele>248</ele>
        <time>2020-10-24T12:59:28.000Z</time>
      </trkpt>
      <trkpt lat="46.34153" lon="5.26114">
        <ele>248</ele>
        <time>2020-10-24T12:59:30.000Z</time>
      </trkpt>
      <trkpt lat="46.34152" lon="5.2612">
        <ele>248</ele>
        <time>2020-10-24T12:59:31.000Z</time>
      </trkpt>
      <trkpt lat="46.34151" lon="5.26128">
        <ele>248</ele>
        <time>2020-10-24T12:59:32.000Z</time>
      </trkpt>
      <trkpt lat="46.3415" lon="5.26145">
        <ele>248</ele>
        <time>2020-10-24T12:59:34.000Z</time>
      </trkpt>
      <trkpt lat="46.34148" lon="5.26165">
        <ele>248</ele>
        <time>2020-10-24T12:59:36.000Z</time>
      </trkpt>
      <trkpt lat="46.34146" lon="5.26185">
        <ele>247.80000305176</ele>
        <time>2020-10-24T12:59:38.000Z</time>
      </trkpt>
      <trkpt lat="46.34144" lon="5.26205">
        <ele>247.19999694824</ele>
        <time>2020-10-24T12:59:40.000Z</time>
      </trkpt>
      <trkpt lat="46.34143" lon="5.26215">
        <ele>247.19999694824</ele>
        <time>2020-10-24T12:59:41.000Z</time>
      </trkpt>
      <trkpt lat="46.34142" lon="5.26225">
        <ele>246.80000305176</ele>
        <time>2020-10-24T12:59:42.000Z</time>
      </trkpt>
      <trkpt lat="46.3414" lon="5.26243">
        <ele>246.39999389648</ele>
        <time>2020-10-24T12:59:44.000Z</time>
      </trkpt>
      <trkpt lat="46.34139" lon="5.26251">
        <ele>246</ele>
        <time>2020-10-24T12:59:45.000Z</time>
      </trkpt>
      <trkpt lat="46.34138" lon="5.26258">
        <ele>245.80000305176</ele>
        <time>2020-10-24T12:59:46.000Z</time>
      </trkpt>
      <trkpt lat="46.34137" lon="5.26274">
        <ele>245.39999389648</ele>
        <time>2020-10-24T12:59:48.000Z</time>
      </trkpt>
      <trkpt lat="46.34135" lon="5.26293">
        <ele>245.19999694824</ele>
        <time>2020-10-24T12:59:50.000Z</time>
      </trkpt>
      <trkpt lat="46.34134" lon="5.26303">
        <ele>245.19999694824</ele>
        <time>2020-10-24T12:59:51.000Z</time>
      </trkpt>
      <trkpt lat="46.34134" lon="5.26313">
        <ele>245</ele>
        <time>2020-10-24T12:59:52.000Z</time>
      </trkpt>
      <trkpt lat="46.34132" lon="5.26324">
        <ele>245</ele>
        <time>2020-10-24T12:59:53.000Z</time>
      </trkpt>
      <trkpt lat="46.34131" lon="5.26335">
        <ele>244.80000305176</ele>
        <time>2020-10-24T12:59:54.000Z</time>
      </trkpt>
      <trkpt lat="46.34129" lon="5.26358">
        <ele>244</ele>
        <time>2020-10-24T12:59:56.000Z</time>
      </trkpt>
      <trkpt lat="46.34128" lon="5.2637">
        <ele>243.39999389648</ele>
        <time>2020-10-24T12:59:57.000Z</time>
      </trkpt>
      <trkpt lat="46.34126" lon="5.26381">
        <ele>242.60000610352</ele>
        <time>2020-10-24T12:59:58.000Z</time>
      </trkpt>
      <trkpt lat="46.34125" lon="5.26393">
        <ele>242</ele>
        <time>2020-10-24T12:59:59.000Z</time>
      </trkpt>
      <trkpt lat="46.34123" lon="5.26405">
        <ele>241.39999389648</ele>
        <time>2020-10-24T13:00:00.000Z</time>
      </trkpt>
      <trkpt lat="46.3412" lon="5.2643">
        <ele>240.39999389648</ele>
        <time>2020-10-24T13:00:02.000Z</time>
      </trkpt>
      <trkpt lat="46.34118" lon="5.26443">
        <ele>240.19999694824</ele>
        <time>2020-10-24T13:00:03.000Z</time>
      </trkpt>
      <trkpt lat="46.34116" lon="5.26455">
        <ele>240</ele>
        <time>2020-10-24T13:00:04.000Z</time>
      </trkpt>
      <trkpt lat="46.34112" lon="5.26482">
        <ele>239.39999389648</ele>
        <time>2020-10-24T13:00:06.000Z</time>
      </trkpt>
      <trkpt lat="46.34107" lon="5.26509">
        <ele>238</ele>
        <time>2020-10-24T13:00:08.000Z</time>
      </trkpt>
      <trkpt lat="46.34105" lon="5.26523">
        <ele>237.39999389648</ele>
        <time>2020-10-24T13:00:09.000Z</time>
      </trkpt>
      <trkpt lat="46.34102" lon="5.26538">
        <ele>236.80000305176</ele>
        <time>2020-10-24T13:00:10.000Z</time>
      </trkpt>
      <trkpt lat="46.34096" lon="5.26566">
        <ele>235.80000305176</ele>
        <time>2020-10-24T13:00:12.000Z</time>
      </trkpt>
      <trkpt lat="46.34087" lon="5.26595">
        <ele>233.80000305176</ele>
        <time>2020-10-24T13:00:14.000Z</time>
      </trkpt>
      <trkpt lat="46.34078" lon="5.26623">
        <ele>232</ele>
        <time>2020-10-24T13:00:16.000Z</time>
      </trkpt>
      <trkpt lat="46.34067" lon="5.2665">
        <ele>230</ele>
        <time>2020-10-24T13:00:18.000Z</time>
      </trkpt>
      <trkpt lat="46.34055" lon="5.26676">
        <ele>228.19999694824</ele>
        <time>2020-10-24T13:00:20.000Z</time>
      </trkpt>
      <trkpt lat="46.34044" lon="5.26703">
        <ele>226.60000610352</ele>
        <time>2020-10-24T13:00:22.000Z</time>
      </trkpt>
      <trkpt lat="46.34032" lon="5.26729">
        <ele>225.60000610352</ele>
        <time>2020-10-24T13:00:24.000Z</time>
      </trkpt>
      <trkpt lat="46.34021" lon="5.26755">
        <ele>224</ele>
        <time>2020-10-24T13:00:26.000Z</time>
      </trkpt>
      <trkpt lat="46.34011" lon="5.2678">
        <ele>223.19999694824</ele>
        <time>2020-10-24T13:00:28.000Z</time>
      </trkpt>
      <trkpt lat="46.34005" lon="5.26793">
        <ele>222.60000610352</ele>
        <time>2020-10-24T13:00:29.000Z</time>
      </trkpt>
      <trkpt lat="46.34" lon="5.26805">
        <ele>221.80000305176</ele>
        <time>2020-10-24T13:00:30.000Z</time>
      </trkpt>
      <trkpt lat="46.33995" lon="5.26818">
        <ele>221</ele>
        <time>2020-10-24T13:00:31.000Z</time>
      </trkpt>
      <trkpt lat="46.3399" lon="5.2683">
        <ele>220.39999389648</ele>
        <time>2020-10-24T13:00:32.000Z</time>
      </trkpt>
      <trkpt lat="46.33985" lon="5.26842">
        <ele>220</ele>
        <time>2020-10-24T13:00:33.000Z</time>
      </trkpt>
      <trkpt lat="46.3398" lon="5.26854">
        <ele>219.60000610352</ele>
        <time>2020-10-24T13:00:34.000Z</time>
      </trkpt>
      <trkpt lat="46.3397" lon="5.26878">
        <ele>219.19999694824</ele>
        <time>2020-10-24T13:00:36.000Z</time>
      </trkpt>
      <trkpt lat="46.33965" lon="5.26889">
        <ele>219.19999694824</ele>
        <time>2020-10-24T13:00:37.000Z</time>
      </trkpt>
      <trkpt lat="46.3396" lon="5.269">
        <ele>219</ele>
        <time>2020-10-24T13:00:38.000Z</time>
      </trkpt>
      <trkpt lat="46.33951" lon="5.26923">
        <ele>219</ele>
        <time>2020-10-24T13:00:40.000Z</time>
      </trkpt>
      <trkpt lat="46.33942" lon="5.26944">
        <ele>219</ele>
        <time>2020-10-24T13:00:42.000Z</time>
      </trkpt>
      <trkpt lat="46.33933" lon="5.26965">
        <ele>219</ele>
        <time>2020-10-24T13:00:44.000Z</time>
      </trkpt>
      <trkpt lat="46.33929" lon="5.26975">
        <ele>219</ele>
        <time>2020-10-24T13:00:45.000Z</time>
      </trkpt>
      <trkpt lat="46.33925" lon="5.26985">
        <ele>219</ele>
        <time>2020-10-24T13:00:46.000Z</time>
      </trkpt>
      <trkpt lat="46.33916" lon="5.27005">
        <ele>219</ele>
        <time>2020-10-24T13:00:48.000Z</time>
      </trkpt>
      <trkpt lat="46.33908" lon="5.27024">
        <ele>219</ele>
        <time>2020-10-24T13:00:50.000Z</time>
      </trkpt>
      <trkpt lat="46.33901" lon="5.27044">
        <ele>219.19999694824</ele>
        <time>2020-10-24T13:00:52.000Z</time>
      </trkpt>
      <trkpt lat="46.33896" lon="5.27066">
        <ele>219.39999389648</ele>
        <time>2020-10-24T13:00:54.000Z</time>
      </trkpt>
      <trkpt lat="46.33894" lon="5.27089">
        <ele>219.80000305176</ele>
        <time>2020-10-24T13:00:56.000Z</time>
      </trkpt>
      <trkpt lat="46.33894" lon="5.27112">
        <ele>219.80000305176</ele>
        <time>2020-10-24T13:00:58.000Z</time>
      </trkpt>
      <trkpt lat="46.33895" lon="5.27135">
        <ele>219.80000305176</ele>
        <time>2020-10-24T13:01:00.000Z</time>
      </trkpt>
      <trkpt lat="46.33896" lon="5.27146">
        <ele>219.80000305176</ele>
        <time>2020-10-24T13:01:01.000Z</time>
      </trkpt>
      <trkpt lat="46.33897" lon="5.27158">
        <ele>220</ele>
        <time>2020-10-24T13:01:02.000Z</time>
      </trkpt>
      <trkpt lat="46.33899" lon="5.27181">
        <ele>220</ele>
        <time>2020-10-24T13:01:04.000Z</time>
      </trkpt>
      <trkpt lat="46.339" lon="5.27204">
        <ele>220</ele>
        <time>2020-10-24T13:01:06.000Z</time>
      </trkpt>
      <trkpt lat="46.33901" lon="5.27227">
        <ele>219.80000305176</ele>
        <time>2020-10-24T13:01:08.000Z</time>
      </trkpt>
      <trkpt lat="46.33902" lon="5.27238">
        <ele>219.80000305176</ele>
        <time>2020-10-24T13:01:09.000Z</time>
      </trkpt>
      <trkpt lat="46.33903" lon="5.27249">
        <ele>219.80000305176</ele>
        <time>2020-10-24T13:01:10.000Z</time>
      </trkpt>
      <trkpt lat="46.33904" lon="5.27271">
        <ele>219.80000305176</ele>
        <time>2020-10-24T13:01:12.000Z</time>
      </trkpt>
      <trkpt lat="46.33906" lon="5.27293">
        <ele>219.80000305176</ele>
        <time>2020-10-24T13:01:14.000Z</time>
      </trkpt>
      <trkpt lat="46.33907" lon="5.27314">
        <ele>219.80000305176</ele>
        <time>2020-10-24T13:01:16.000Z</time>
      </trkpt>
      <trkpt lat="46.33908" lon="5.27325">
        <ele>219.80000305176</ele>
        <time>2020-10-24T13:01:17.000Z</time>
      </trkpt>
      <trkpt lat="46.33908" lon="5.27336">
        <ele>219.80000305176</ele>
        <time>2020-10-24T13:01:18.000Z</time>
      </trkpt>
      <trkpt lat="46.33909" lon="5.27356">
        <ele>219.80000305176</ele>
        <time>2020-10-24T13:01:20.000Z</time>
      </trkpt>
      <trkpt lat="46.33909" lon="5.27376">
        <ele>219.80000305176</ele>
        <time>2020-10-24T13:01:22.000Z</time>
      </trkpt>
      <trkpt lat="46.33909" lon="5.27395">
        <ele>220</ele>
        <time>2020-10-24T13:01:24.000Z</time>
      </trkpt>
      <trkpt lat="46.33907" lon="5.27414">
        <ele>220</ele>
        <time>2020-10-24T13:01:26.000Z</time>
      </trkpt>
      <trkpt lat="46.33905" lon="5.2743">
        <ele>220.39999389648</ele>
        <time>2020-10-24T13:01:28.000Z</time>
      </trkpt>
      <trkpt lat="46.33903" lon="5.27446">
        <ele>220.60000610352</ele>
        <time>2020-10-24T13:01:30.000Z</time>
      </trkpt>
      <trkpt lat="46.339" lon="5.2746">
        <ele>221</ele>
        <time>2020-10-24T13:01:32.000Z</time>
      </trkpt>
      <trkpt lat="46.33899" lon="5.27466">
        <ele>221.39999389648</ele>
        <time>2020-10-24T13:01:33.000Z</time>
      </trkpt>
      <trkpt lat="46.33897" lon="5.27473">
        <ele>221.60000610352</ele>
        <time>2020-10-24T13:01:34.000Z</time>
      </trkpt>
      <trkpt lat="46.33895" lon="5.27486">
        <ele>222</ele>
        <time>2020-10-24T13:01:36.000Z</time>
      </trkpt>
      <trkpt lat="46.33892" lon="5.27498">
        <ele>223</ele>
        <time>2020-10-24T13:01:38.000Z</time>
      </trkpt>
      <trkpt lat="46.3389" lon="5.2751">
        <ele>223.60000610352</ele>
        <time>2020-10-24T13:01:40.000Z</time>
      </trkpt>
      <trkpt lat="46.33887" lon="5.27521">
        <ele>224</ele>
        <time>2020-10-24T13:01:42.000Z</time>
      </trkpt>
      <trkpt lat="46.33886" lon="5.27527">
        <ele>224.39999389648</ele>
        <time>2020-10-24T13:01:43.000Z</time>
      </trkpt>
      <trkpt lat="46.33885" lon="5.27533">
        <ele>224.80000305176</ele>
        <time>2020-10-24T13:01:44.000Z</time>
      </trkpt>
      <trkpt lat="46.33883" lon="5.27544">
        <ele>225.19999694824</ele>
        <time>2020-10-24T13:01:46.000Z</time>
      </trkpt>
      <trkpt lat="46.33882" lon="5.27549">
        <ele>225.60000610352</ele>
        <time>2020-10-24T13:01:47.000Z</time>
      </trkpt>
      <trkpt lat="46.3388" lon="5.27555">
        <ele>226</ele>
        <time>2020-10-24T13:01:48.000Z</time>
      </trkpt>
      <trkpt lat="46.33878" lon="5.27566">
        <ele>226.80000305176</ele>
        <time>2020-10-24T13:01:50.000Z</time>
      </trkpt>
      <trkpt lat="46.33876" lon="5.27577">
        <ele>227.39999389648</ele>
        <time>2020-10-24T13:01:52.000Z</time>
      </trkpt>
      <trkpt lat="46.33874" lon="5.27588">
        <ele>227.60000610352</ele>
        <time>2020-10-24T13:01:54.000Z</time>
      </trkpt>
      <trkpt lat="46.33871" lon="5.27599">
        <ele>228.19999694824</ele>
        <time>2020-10-24T13:01:56.000Z</time>
      </trkpt>
      <trkpt lat="46.33869" lon="5.2761">
        <ele>228.60000610352</ele>
        <time>2020-10-24T13:01:58.000Z</time>
      </trkpt>
      <trkpt lat="46.33867" lon="5.27621">
        <ele>229</ele>
        <time>2020-10-24T13:02:00.000Z</time>
      </trkpt>
      <trkpt lat="46.33866" lon="5.27626">
        <ele>229.19999694824</ele>
        <time>2020-10-24T13:02:01.000Z</time>
      </trkpt>
      <trkpt lat="46.33865" lon="5.27632">
        <ele>229.39999389648</ele>
        <time>2020-10-24T13:02:02.000Z</time>
      </trkpt>
      <trkpt lat="46.33862" lon="5.27643">
        <ele>229.80000305176</ele>
        <time>2020-10-24T13:02:04.000Z</time>
      </trkpt>
      <trkpt lat="46.3386" lon="5.27654">
        <ele>230.80000305176</ele>
        <time>2020-10-24T13:02:06.000Z</time>
      </trkpt>
      <trkpt lat="46.33857" lon="5.27664">
        <ele>231.60000610352</ele>
        <time>2020-10-24T13:02:08.000Z</time>
      </trkpt>
      <trkpt lat="46.33855" lon="5.27674">
        <ele>232</ele>
        <time>2020-10-24T13:02:10.000Z</time>
      </trkpt>
      <trkpt lat="46.33852" lon="5.27685">
        <ele>232.19999694824</ele>
        <time>2020-10-24T13:02:12.000Z</time>
      </trkpt>
      <trkpt lat="46.33849" lon="5.27696">
        <ele>232.60000610352</ele>
        <time>2020-10-24T13:02:14.000Z</time>
      </trkpt>
      <trkpt lat="46.33846" lon="5.27706">
        <ele>232.80000305176</ele>
        <time>2020-10-24T13:02:16.000Z</time>
      </trkpt>
      <trkpt lat="46.33844" lon="5.27711">
        <ele>233.19999694824</ele>
        <time>2020-10-24T13:02:17.000Z</time>
      </trkpt>
      <trkpt lat="46.33842" lon="5.27717">
        <ele>233.60000610352</ele>
        <time>2020-10-24T13:02:18.000Z</time>
      </trkpt>
      <trkpt lat="46.3384" lon="5.27722">
        <ele>233.80000305176</ele>
        <time>2020-10-24T13:02:19.000Z</time>
      </trkpt>
      <trkpt lat="46.33838" lon="5.27727">
        <ele>233.80000305176</ele>
        <time>2020-10-24T13:02:20.000Z</time>
      </trkpt>
      <trkpt lat="46.33833" lon="5.27736">
        <ele>234.19999694824</ele>
        <time>2020-10-24T13:02:22.000Z</time>
      </trkpt>
      <trkpt lat="46.3383" lon="5.27741">
        <ele>234.39999389648</ele>
        <time>2020-10-24T13:02:23.000Z</time>
      </trkpt>
      <trkpt lat="46.33828" lon="5.27745">
        <ele>234.60000610352</ele>
        <time>2020-10-24T13:02:24.000Z</time>
      </trkpt>
      <trkpt lat="46.33822" lon="5.27754">
        <ele>235</ele>
        <time>2020-10-24T13:02:26.000Z</time>
      </trkpt>
      <trkpt lat="46.33819" lon="5.27759">
        <ele>235</ele>
        <time>2020-10-24T13:02:27.000Z</time>
      </trkpt>
      <trkpt lat="46.33816" lon="5.27763">
        <ele>235.19999694824</ele>
        <time>2020-10-24T13:02:28.000Z</time>
      </trkpt>
      <trkpt lat="46.33814" lon="5.27767">
        <ele>235.39999389648</ele>
        <time>2020-10-24T13:02:29.000Z</time>
      </trkpt>
      <trkpt lat="46.33811" lon="5.27772">
        <ele>235.60000610352</ele>
        <time>2020-10-24T13:02:30.000Z</time>
      </trkpt>
      <trkpt lat="46.33805" lon="5.27781">
        <ele>236</ele>
        <time>2020-10-24T13:02:32.000Z</time>
      </trkpt>
      <trkpt lat="46.33799" lon="5.27791">
        <ele>236.39999389648</ele>
        <time>2020-10-24T13:02:34.000Z</time>
      </trkpt>
      <trkpt lat="46.33797" lon="5.27795">
        <ele>236.39999389648</ele>
        <time>2020-10-24T13:02:35.000Z</time>
      </trkpt>
      <trkpt lat="46.33794" lon="5.278">
        <ele>236.60000610352</ele>
        <time>2020-10-24T13:02:36.000Z</time>
      </trkpt>
      <trkpt lat="46.33788" lon="5.27809">
        <ele>236.80000305176</ele>
        <time>2020-10-24T13:02:38.000Z</time>
      </trkpt>
      <trkpt lat="46.33782" lon="5.27819">
        <ele>237.19999694824</ele>
        <time>2020-10-24T13:02:40.000Z</time>
      </trkpt>
      <trkpt lat="46.33779" lon="5.27823">
        <ele>237.60000610352</ele>
        <time>2020-10-24T13:02:41.000Z</time>
      </trkpt>
      <trkpt lat="46.33776" lon="5.27828">
        <ele>237.60000610352</ele>
        <time>2020-10-24T13:02:42.000Z</time>
      </trkpt>
      <trkpt lat="46.33771" lon="5.27837">
        <ele>238</ele>
        <time>2020-10-24T13:02:44.000Z</time>
      </trkpt>
      <trkpt lat="46.33764" lon="5.27846">
        <ele>238.60000610352</ele>
        <time>2020-10-24T13:02:46.000Z</time>
      </trkpt>
      <trkpt lat="46.33761" lon="5.27851">
        <ele>238.60000610352</ele>
        <time>2020-10-24T13:02:47.000Z</time>
      </trkpt>
      <trkpt lat="46.33758" lon="5.27856">
        <ele>238.80000305176</ele>
        <time>2020-10-24T13:02:48.000Z</time>
      </trkpt>
      <trkpt lat="46.33752" lon="5.27866">
        <ele>239</ele>
        <time>2020-10-24T13:02:50.000Z</time>
      </trkpt>
      <trkpt lat="46.33746" lon="5.27876">
        <ele>239.39999389648</ele>
        <time>2020-10-24T13:02:52.000Z</time>
      </trkpt>
      <trkpt lat="46.3374" lon="5.27886">
        <ele>239.80000305176</ele>
        <time>2020-10-24T13:02:54.000Z</time>
      </trkpt>
      <trkpt lat="46.33733" lon="5.27896">
        <ele>240</ele>
        <time>2020-10-24T13:02:56.000Z</time>
      </trkpt>
      <trkpt lat="46.33727" lon="5.27906">
        <ele>240.60000610352</ele>
        <time>2020-10-24T13:02:58.000Z</time>
      </trkpt>
      <trkpt lat="46.3372" lon="5.27916">
        <ele>241</ele>
        <time>2020-10-24T13:03:00.000Z</time>
      </trkpt>
      <trkpt lat="46.33714" lon="5.27926">
        <ele>241.39999389648</ele>
        <time>2020-10-24T13:03:02.000Z</time>
      </trkpt>
      <trkpt lat="46.33708" lon="5.27936">
        <ele>241.60000610352</ele>
        <time>2020-10-24T13:03:04.000Z</time>
      </trkpt>
      <trkpt lat="46.33702" lon="5.27946">
        <ele>241.60000610352</ele>
        <time>2020-10-24T13:03:06.000Z</time>
      </trkpt>
      <trkpt lat="46.33695" lon="5.27956">
        <ele>241.80000305176</ele>
        <time>2020-10-24T13:03:08.000Z</time>
      </trkpt>
      <trkpt lat="46.33689" lon="5.27966">
        <ele>242</ele>
        <time>2020-10-24T13:03:10.000Z</time>
      </trkpt>
      <trkpt lat="46.33686" lon="5.27971">
        <ele>242.39999389648</ele>
        <time>2020-10-24T13:03:11.000Z</time>
      </trkpt>
      <trkpt lat="46.33683" lon="5.27976">
        <ele>243</ele>
        <time>2020-10-24T13:03:12.000Z</time>
      </trkpt>
      <trkpt lat="46.33677" lon="5.27985">
        <ele>243.19999694824</ele>
        <time>2020-10-24T13:03:14.000Z</time>
      </trkpt>
      <trkpt lat="46.3367" lon="5.27995">
        <ele>243.60000610352</ele>
        <time>2020-10-24T13:03:16.000Z</time>
      </trkpt>
      <trkpt lat="46.33664" lon="5.28005">
        <ele>244</ele>
        <time>2020-10-24T13:03:18.000Z</time>
      </trkpt>
      <trkpt lat="46.33658" lon="5.28015">
        <ele>244.39999389648</ele>
        <time>2020-10-24T13:03:20.000Z</time>
      </trkpt>
      <trkpt lat="46.33651" lon="5.28026">
        <ele>244.80000305176</ele>
        <time>2020-10-24T13:03:22.000Z</time>
      </trkpt>
      <trkpt lat="46.33644" lon="5.28037">
        <ele>245</ele>
        <time>2020-10-24T13:03:24.000Z</time>
      </trkpt>
      <trkpt lat="46.33637" lon="5.28048">
        <ele>245.19999694824</ele>
        <time>2020-10-24T13:03:26.000Z</time>
      </trkpt>
      <trkpt lat="46.3363" lon="5.2806">
        <ele>245.39999389648</ele>
        <time>2020-10-24T13:03:28.000Z</time>
      </trkpt>
      <trkpt lat="46.33626" lon="5.28065">
        <ele>245.39999389648</ele>
        <time>2020-10-24T13:03:29.000Z</time>
      </trkpt>
      <trkpt lat="46.33622" lon="5.28071">
        <ele>245.60000610352</ele>
        <time>2020-10-24T13:03:30.000Z</time>
      </trkpt>
      <trkpt lat="46.33615" lon="5.28084">
        <ele>245.60000610352</ele>
        <time>2020-10-24T13:03:32.000Z</time>
      </trkpt>
      <trkpt lat="46.33607" lon="5.28098">
        <ele>245.60000610352</ele>
        <time>2020-10-24T13:03:34.000Z</time>
      </trkpt>
      <trkpt lat="46.33599" lon="5.28112">
        <ele>245.60000610352</ele>
        <time>2020-10-24T13:03:36.000Z</time>
      </trkpt>
      <trkpt lat="46.33592" lon="5.28128">
        <ele>245.60000610352</ele>
        <time>2020-10-24T13:03:38.000Z</time>
      </trkpt>
      <trkpt lat="46.33584" lon="5.28146">
        <ele>245.60000610352</ele>
        <time>2020-10-24T13:03:40.000Z</time>
      </trkpt>
      <trkpt lat="46.33577" lon="5.28164">
        <ele>245.60000610352</ele>
        <time>2020-10-24T13:03:42.000Z</time>
      </trkpt>
      <trkpt lat="46.33574" lon="5.28174">
        <ele>245.39999389648</ele>
        <time>2020-10-24T13:03:43.000Z</time>
      </trkpt>
      <trkpt lat="46.3357" lon="5.28184">
        <ele>245.19999694824</ele>
        <time>2020-10-24T13:03:44.000Z</time>
      </trkpt>
      <trkpt lat="46.33564" lon="5.28204">
        <ele>244.60000610352</ele>
        <time>2020-10-24T13:03:46.000Z</time>
      </trkpt>
      <trkpt lat="46.33561" lon="5.28215">
        <ele>244.60000610352</ele>
        <time>2020-10-24T13:03:47.000Z</time>
      </trkpt>
      <trkpt lat="46.33558" lon="5.28226">
        <ele>244.39999389648</ele>
        <time>2020-10-24T13:03:48.000Z</time>
      </trkpt>
      <trkpt lat="46.33553" lon="5.28247">
        <ele>244</ele>
        <time>2020-10-24T13:03:50.000Z</time>
      </trkpt>
      <trkpt lat="46.33549" lon="5.28269">
        <ele>243.60000610352</ele>
        <time>2020-10-24T13:03:52.000Z</time>
      </trkpt>
      <trkpt lat="46.33546" lon="5.28291">
        <ele>243</ele>
        <time>2020-10-24T13:03:54.000Z</time>
      </trkpt>
      <trkpt lat="46.33544" lon="5.28312">
        <ele>242.39999389648</ele>
        <time>2020-10-24T13:03:56.000Z</time>
      </trkpt>
      <trkpt lat="46.33544" lon="5.28322">
        <ele>242.19999694824</ele>
        <time>2020-10-24T13:03:57.000Z</time>
      </trkpt>
      <trkpt lat="46.33543" lon="5.28332">
        <ele>242.19999694824</ele>
        <time>2020-10-24T13:03:58.000Z</time>
      </trkpt>
      <trkpt lat="46.33542" lon="5.28352">
        <ele>242.19999694824</ele>
        <time>2020-10-24T13:04:00.000Z</time>
      </trkpt>
      <trkpt lat="46.33542" lon="5.2837">
        <ele>242.19999694824</ele>
        <time>2020-10-24T13:04:02.000Z</time>
      </trkpt>
      <trkpt lat="46.33542" lon="5.28388">
        <ele>242.19999694824</ele>
        <time>2020-10-24T13:04:04.000Z</time>
      </trkpt>
      <trkpt lat="46.33542" lon="5.28406">
        <ele>242.19999694824</ele>
        <time>2020-10-24T13:04:06.000Z</time>
      </trkpt>
      <trkpt lat="46.33542" lon="5.28424">
        <ele>242.80000305176</ele>
        <time>2020-10-24T13:04:08.000Z</time>
      </trkpt>
      <trkpt lat="46.33542" lon="5.28441">
        <ele>243.60000610352</ele>
        <time>2020-10-24T13:04:10.000Z</time>
      </trkpt>
      <trkpt lat="46.33542" lon="5.28459">
        <ele>244.19999694824</ele>
        <time>2020-10-24T13:04:12.000Z</time>
      </trkpt>
      <trkpt lat="46.33541" lon="5.28475">
        <ele>244.80000305176</ele>
        <time>2020-10-24T13:04:14.000Z</time>
      </trkpt>
      <trkpt lat="46.33541" lon="5.28492">
        <ele>245.19999694824</ele>
        <time>2020-10-24T13:04:16.000Z</time>
      </trkpt>
      <trkpt lat="46.33542" lon="5.28508">
        <ele>245.60000610352</ele>
        <time>2020-10-24T13:04:18.000Z</time>
      </trkpt>
      <trkpt lat="46.33543" lon="5.28524">
        <ele>246</ele>
        <time>2020-10-24T13:04:20.000Z</time>
      </trkpt>
      <trkpt lat="46.33545" lon="5.2854">
        <ele>246.60000610352</ele>
        <time>2020-10-24T13:04:22.000Z</time>
      </trkpt>
      <trkpt lat="46.33548" lon="5.28556">
        <ele>247.19999694824</ele>
        <time>2020-10-24T13:04:24.000Z</time>
      </trkpt>
      <trkpt lat="46.33551" lon="5.28572">
        <ele>248</ele>
        <time>2020-10-24T13:04:26.000Z</time>
      </trkpt>
      <trkpt lat="46.33553" lon="5.28588">
        <ele>248.19999694824</ele>
        <time>2020-10-24T13:04:28.000Z</time>
      </trkpt>
      <trkpt lat="46.33555" lon="5.28605">
        <ele>248.60000610352</ele>
        <time>2020-10-24T13:04:30.000Z</time>
      </trkpt>
      <trkpt lat="46.33557" lon="5.28622">
        <ele>249</ele>
        <time>2020-10-24T13:04:32.000Z</time>
      </trkpt>
      <trkpt lat="46.33557" lon="5.28631">
        <ele>249.39999389648</ele>
        <time>2020-10-24T13:04:33.000Z</time>
      </trkpt>
      <trkpt lat="46.33558" lon="5.2864">
        <ele>249.60000610352</ele>
        <time>2020-10-24T13:04:34.000Z</time>
      </trkpt>
      <trkpt lat="46.3356" lon="5.28658">
        <ele>250</ele>
        <time>2020-10-24T13:04:36.000Z</time>
      </trkpt>
      <trkpt lat="46.33561" lon="5.28677">
        <ele>250</ele>
        <time>2020-10-24T13:04:38.000Z</time>
      </trkpt>
      <trkpt lat="46.33562" lon="5.28694">
        <ele>250.19999694824</ele>
        <time>2020-10-24T13:04:40.000Z</time>
      </trkpt>
      <trkpt lat="46.33564" lon="5.28712">
        <ele>250.19999694824</ele>
        <time>2020-10-24T13:04:42.000Z</time>
      </trkpt>
      <trkpt lat="46.33565" lon="5.2873">
        <ele>250.39999389648</ele>
        <time>2020-10-24T13:04:44.000Z</time>
      </trkpt>
      <trkpt lat="46.33566" lon="5.28747">
        <ele>250.39999389648</ele>
        <time>2020-10-24T13:04:46.000Z</time>
      </trkpt>
      <trkpt lat="46.33568" lon="5.28765">
        <ele>250.39999389648</ele>
        <time>2020-10-24T13:04:48.000Z</time>
      </trkpt>
      <trkpt lat="46.33568" lon="5.28774">
        <ele>250.39999389648</ele>
        <time>2020-10-24T13:04:49.000Z</time>
      </trkpt>
      <trkpt lat="46.33568" lon="5.28782">
        <ele>250.39999389648</ele>
        <time>2020-10-24T13:04:50.000Z</time>
      </trkpt>
      <trkpt lat="46.33568" lon="5.288">
        <ele>250.39999389648</ele>
        <time>2020-10-24T13:04:52.000Z</time>
      </trkpt>
      <trkpt lat="46.33566" lon="5.28819">
        <ele>250.39999389648</ele>
        <time>2020-10-24T13:04:54.000Z</time>
      </trkpt>
      <trkpt lat="46.33564" lon="5.28828">
        <ele>250.39999389648</ele>
        <time>2020-10-24T13:04:55.000Z</time>
      </trkpt>
      <trkpt lat="46.33562" lon="5.28838">
        <ele>250.39999389648</ele>
        <time>2020-10-24T13:04:56.000Z</time>
      </trkpt>
      <trkpt lat="46.33557" lon="5.28857">
        <ele>250.39999389648</ele>
        <time>2020-10-24T13:04:58.000Z</time>
      </trkpt>
      <trkpt lat="46.33552" lon="5.28877">
        <ele>250.19999694824</ele>
        <time>2020-10-24T13:05:00.000Z</time>
      </trkpt>
      <trkpt lat="46.33547" lon="5.28897">
        <ele>249.80000305176</ele>
        <time>2020-10-24T13:05:02.000Z</time>
      </trkpt>
      <trkpt lat="46.33541" lon="5.28918">
        <ele>249.60000610352</ele>
        <time>2020-10-24T13:05:04.000Z</time>
      </trkpt>
      <trkpt lat="46.33536" lon="5.28938">
        <ele>249.19999694824</ele>
        <time>2020-10-24T13:05:06.000Z</time>
      </trkpt>
      <trkpt lat="46.33531" lon="5.28958">
        <ele>248.80000305176</ele>
        <time>2020-10-24T13:05:08.000Z</time>
      </trkpt>
      <trkpt lat="46.33525" lon="5.28978">
        <ele>248.60000610352</ele>
        <time>2020-10-24T13:05:10.000Z</time>
      </trkpt>
      <trkpt lat="46.3352" lon="5.28996">
        <ele>248.60000610352</ele>
        <time>2020-10-24T13:05:12.000Z</time>
      </trkpt>
      <trkpt lat="46.33516" lon="5.29014">
        <ele>248.60000610352</ele>
        <time>2020-10-24T13:05:14.000Z</time>
      </trkpt>
      <trkpt lat="46.33511" lon="5.29031">
        <ele>248.60000610352</ele>
        <time>2020-10-24T13:05:16.000Z</time>
      </trkpt>
      <trkpt lat="46.33506" lon="5.29048">
        <ele>248.60000610352</ele>
        <time>2020-10-24T13:05:18.000Z</time>
      </trkpt>
      <trkpt lat="46.33501" lon="5.29064">
        <ele>249</ele>
        <time>2020-10-24T13:05:20.000Z</time>
      </trkpt>
      <trkpt lat="46.33496" lon="5.2908">
        <ele>249.60000610352</ele>
        <time>2020-10-24T13:05:22.000Z</time>
      </trkpt>
      <trkpt lat="46.33493" lon="5.29088">
        <ele>250</ele>
        <time>2020-10-24T13:05:23.000Z</time>
      </trkpt>
      <trkpt lat="46.33491" lon="5.29095">
        <ele>250.39999389648</ele>
        <time>2020-10-24T13:05:24.000Z</time>
      </trkpt>
      <trkpt lat="46.33488" lon="5.29103">
        <ele>250.80000305176</ele>
        <time>2020-10-24T13:05:25.000Z</time>
      </trkpt>
      <trkpt lat="46.33485" lon="5.2911">
        <ele>251</ele>
        <time>2020-10-24T13:05:26.000Z</time>
      </trkpt>
      <trkpt lat="46.33479" lon="5.29125">
        <ele>251.60000610352</ele>
        <time>2020-10-24T13:05:28.000Z</time>
      </trkpt>
      <trkpt lat="46.33476" lon="5.29132">
        <ele>252</ele>
        <time>2020-10-24T13:05:29.000Z</time>
      </trkpt>
      <trkpt lat="46.33473" lon="5.2914">
        <ele>252.19999694824</ele>
        <time>2020-10-24T13:05:30.000Z</time>
      </trkpt>
      <trkpt lat="46.33467" lon="5.29154">
        <ele>252.39999389648</ele>
        <time>2020-10-24T13:05:32.000Z</time>
      </trkpt>
      <trkpt lat="46.33464" lon="5.29162">
        <ele>252.39999389648</ele>
        <time>2020-10-24T13:05:33.000Z</time>
      </trkpt>
      <trkpt lat="46.33461" lon="5.29169">
        <ele>252.60000610352</ele>
        <time>2020-10-24T13:05:34.000Z</time>
      </trkpt>
      <trkpt lat="46.33454" lon="5.29184">
        <ele>252.60000610352</ele>
        <time>2020-10-24T13:05:36.000Z</time>
      </trkpt>
      <trkpt lat="46.33448" lon="5.292">
        <ele>252.80000305176</ele>
        <time>2020-10-24T13:05:38.000Z</time>
      </trkpt>
      <trkpt lat="46.33445" lon="5.29208">
        <ele>253</ele>
        <time>2020-10-24T13:05:39.000Z</time>
      </trkpt>
      <trkpt lat="46.33442" lon="5.29216">
        <ele>253.19999694824</ele>
        <time>2020-10-24T13:05:40.000Z</time>
      </trkpt>
      <trkpt lat="46.33436" lon="5.29233">
        <ele>253.60000610352</ele>
        <time>2020-10-24T13:05:42.000Z</time>
      </trkpt>
      <trkpt lat="46.33429" lon="5.29249">
        <ele>253.80000305176</ele>
        <time>2020-10-24T13:05:44.000Z</time>
      </trkpt>
      <trkpt lat="46.33423" lon="5.29265">
        <ele>253.80000305176</ele>
        <time>2020-10-24T13:05:46.000Z</time>
      </trkpt>
      <trkpt lat="46.33422" lon="5.29283">
        <ele>253.80000305176</ele>
        <time>2020-10-24T13:05:48.000Z</time>
      </trkpt>
      <trkpt lat="46.3343" lon="5.29299">
        <ele>253.80000305176</ele>
        <time>2020-10-24T13:05:50.000Z</time>
      </trkpt>
      <trkpt lat="46.33435" lon="5.29305">
        <ele>253.80000305176</ele>
        <time>2020-10-24T13:05:51.000Z</time>
      </trkpt>
      <trkpt lat="46.33442" lon="5.29311">
        <ele>253.80000305176</ele>
        <time>2020-10-24T13:05:52.000Z</time>
      </trkpt>
      <trkpt lat="46.33448" lon="5.29316">
        <ele>253.80000305176</ele>
        <time>2020-10-24T13:05:53.000Z</time>
      </trkpt>
      <trkpt lat="46.33455" lon="5.2932">
        <ele>253.80000305176</ele>
        <time>2020-10-24T13:05:54.000Z</time>
      </trkpt>
      <trkpt lat="46.33468" lon="5.29329">
        <ele>253.80000305176</ele>
        <time>2020-10-24T13:05:56.000Z</time>
      </trkpt>
      <trkpt lat="46.33482" lon="5.29336">
        <ele>253.80000305176</ele>
        <time>2020-10-24T13:05:58.000Z</time>
      </trkpt>
      <trkpt lat="46.33496" lon="5.29342">
        <ele>253.80000305176</ele>
        <time>2020-10-24T13:06:00.000Z</time>
      </trkpt>
      <trkpt lat="46.33511" lon="5.29348">
        <ele>254</ele>
        <time>2020-10-24T13:06:02.000Z</time>
      </trkpt>
      <trkpt lat="46.33525" lon="5.29353">
        <ele>254.39999389648</ele>
        <time>2020-10-24T13:06:04.000Z</time>
      </trkpt>
      <trkpt lat="46.33539" lon="5.29359">
        <ele>254.60000610352</ele>
        <time>2020-10-24T13:06:06.000Z</time>
      </trkpt>
      <trkpt lat="46.33553" lon="5.29363">
        <ele>254.60000610352</ele>
        <time>2020-10-24T13:06:08.000Z</time>
      </trkpt>
      <trkpt lat="46.33568" lon="5.29368">
        <ele>254.80000305176</ele>
        <time>2020-10-24T13:06:10.000Z</time>
      </trkpt>
      <trkpt lat="46.33582" lon="5.29372">
        <ele>254.80000305176</ele>
        <time>2020-10-24T13:06:12.000Z</time>
      </trkpt>
      <trkpt lat="46.33597" lon="5.29375">
        <ele>254.80000305176</ele>
        <time>2020-10-24T13:06:14.000Z</time>
      </trkpt>
      <trkpt lat="46.33605" lon="5.29375">
        <ele>255</ele>
        <time>2020-10-24T13:06:15.000Z</time>
      </trkpt>
      <trkpt lat="46.33612" lon="5.29375">
        <ele>255</ele>
        <time>2020-10-24T13:06:16.000Z</time>
      </trkpt>
      <trkpt lat="46.3362" lon="5.29373">
        <ele>255</ele>
        <time>2020-10-24T13:06:17.000Z</time>
      </trkpt>
      <trkpt lat="46.33628" lon="5.29371">
        <ele>255</ele>
        <time>2020-10-24T13:06:18.000Z</time>
      </trkpt>
      <trkpt lat="46.33645" lon="5.29368">
        <ele>254.80000305176</ele>
        <time>2020-10-24T13:06:20.000Z</time>
      </trkpt>
      <trkpt lat="46.33653" lon="5.29368">
        <ele>254.80000305176</ele>
        <time>2020-10-24T13:06:21.000Z</time>
      </trkpt>
      <trkpt lat="46.33661" lon="5.29368">
        <ele>254.80000305176</ele>
        <time>2020-10-24T13:06:22.000Z</time>
      </trkpt>
      <trkpt lat="46.33669" lon="5.29371">
        <ele>254.80000305176</ele>
        <time>2020-10-24T13:06:23.000Z</time>
      </trkpt>
      <trkpt lat="46.33677" lon="5.29375">
        <ele>254.80000305176</ele>
        <time>2020-10-24T13:06:24.000Z</time>
      </trkpt>
      <trkpt lat="46.3369" lon="5.29388">
        <ele>254.39999389648</ele>
        <time>2020-10-24T13:06:26.000Z</time>
      </trkpt>
      <trkpt lat="46.33702" lon="5.29404">
        <ele>254</ele>
        <time>2020-10-24T13:06:28.000Z</time>
      </trkpt>
      <trkpt lat="46.33713" lon="5.29421">
        <ele>253.80000305176</ele>
        <time>2020-10-24T13:06:30.000Z</time>
      </trkpt>
      <trkpt lat="46.33724" lon="5.29437">
        <ele>253.60000610352</ele>
        <time>2020-10-24T13:06:32.000Z</time>
      </trkpt>
      <trkpt lat="46.3373" lon="5.29445">
        <ele>253.39999389648</ele>
        <time>2020-10-24T13:06:33.000Z</time>
      </trkpt>
      <trkpt lat="46.33736" lon="5.29453">
        <ele>253.39999389648</ele>
        <time>2020-10-24T13:06:34.000Z</time>
      </trkpt>
      <trkpt lat="46.33743" lon="5.29461">
        <ele>253.39999389648</ele>
        <time>2020-10-24T13:06:35.000Z</time>
      </trkpt>
      <trkpt lat="46.33749" lon="5.29469">
        <ele>253.39999389648</ele>
        <time>2020-10-24T13:06:36.000Z</time>
      </trkpt>
      <trkpt lat="46.33762" lon="5.29482">
        <ele>253.19999694824</ele>
        <time>2020-10-24T13:06:38.000Z</time>
      </trkpt>
      <trkpt lat="46.33775" lon="5.29495">
        <ele>253.19999694824</ele>
        <time>2020-10-24T13:06:40.000Z</time>
      </trkpt>
      <trkpt lat="46.33789" lon="5.29506">
        <ele>253</ele>
        <time>2020-10-24T13:06:42.000Z</time>
      </trkpt>
      <trkpt lat="46.33804" lon="5.29515">
        <ele>253</ele>
        <time>2020-10-24T13:06:44.000Z</time>
      </trkpt>
      <trkpt lat="46.33812" lon="5.29518">
        <ele>252.80000305176</ele>
        <time>2020-10-24T13:06:45.000Z</time>
      </trkpt>
      <trkpt lat="46.3382" lon="5.2952">
        <ele>252.80000305176</ele>
        <time>2020-10-24T13:06:46.000Z</time>
      </trkpt>
      <trkpt lat="46.33836" lon="5.29521">
        <ele>252.80000305176</ele>
        <time>2020-10-24T13:06:48.000Z</time>
      </trkpt>
      <trkpt lat="46.33845" lon="5.2952">
        <ele>252.80000305176</ele>
        <time>2020-10-24T13:06:49.000Z</time>
      </trkpt>
      <trkpt lat="46.33853" lon="5.2952">
        <ele>252.80000305176</ele>
        <time>2020-10-24T13:06:50.000Z</time>
      </trkpt>
      <trkpt lat="46.33869" lon="5.2952">
        <ele>252.60000610352</ele>
        <time>2020-10-24T13:06:52.000Z</time>
      </trkpt>
      <trkpt lat="46.33885" lon="5.2952">
        <ele>252.60000610352</ele>
        <time>2020-10-24T13:06:54.000Z</time>
      </trkpt>
      <trkpt lat="46.33901" lon="5.2952">
        <ele>252.60000610352</ele>
        <time>2020-10-24T13:06:56.000Z</time>
      </trkpt>
      <trkpt lat="46.33917" lon="5.29519">
        <ele>252.60000610352</ele>
        <time>2020-10-24T13:06:58.000Z</time>
      </trkpt>
      <trkpt lat="46.33925" lon="5.29518">
        <ele>252.60000610352</ele>
        <time>2020-10-24T13:06:59.000Z</time>
      </trkpt>
      <trkpt lat="46.33933" lon="5.29516">
        <ele>252.60000610352</ele>
        <time>2020-10-24T13:07:00.000Z</time>
      </trkpt>
      <trkpt lat="46.3394" lon="5.29513">
        <ele>252.60000610352</ele>
        <time>2020-10-24T13:07:01.000Z</time>
      </trkpt>
      <trkpt lat="46.33947" lon="5.29509">
        <ele>252.60000610352</ele>
        <time>2020-10-24T13:07:02.000Z</time>
      </trkpt>
      <trkpt lat="46.33953" lon="5.29502">
        <ele>252.80000305176</ele>
        <time>2020-10-24T13:07:03.000Z</time>
      </trkpt>
      <trkpt lat="46.33957" lon="5.29493">
        <ele>252.60000610352</ele>
        <time>2020-10-24T13:07:04.000Z</time>
      </trkpt>
      <trkpt lat="46.33963" lon="5.29473">
        <ele>253</ele>
        <time>2020-10-24T13:07:06.000Z</time>
      </trkpt>
      <trkpt lat="46.33966" lon="5.29463">
        <ele>253.19999694824</ele>
        <time>2020-10-24T13:07:07.000Z</time>
      </trkpt>
      <trkpt lat="46.33969" lon="5.29453">
        <ele>253.19999694824</ele>
        <time>2020-10-24T13:07:08.000Z</time>
      </trkpt>
      <trkpt lat="46.33977" lon="5.29432">
        <ele>253.19999694824</ele>
        <time>2020-10-24T13:07:10.000Z</time>
      </trkpt>
      <trkpt lat="46.33982" lon="5.29423">
        <ele>253.19999694824</ele>
        <time>2020-10-24T13:07:11.000Z</time>
      </trkpt>
      <trkpt lat="46.33988" lon="5.29413">
        <ele>253.19999694824</ele>
        <time>2020-10-24T13:07:12.000Z</time>
      </trkpt>
      <trkpt lat="46.34001" lon="5.29397">
        <ele>253.19999694824</ele>
        <time>2020-10-24T13:07:14.000Z</time>
      </trkpt>
      <trkpt lat="46.34009" lon="5.29389">
        <ele>253.19999694824</ele>
        <time>2020-10-24T13:07:15.000Z</time>
      </trkpt>
      <trkpt lat="46.34017" lon="5.29384">
        <ele>253.19999694824</ele>
        <time>2020-10-24T13:07:16.000Z</time>
      </trkpt>
      <trkpt lat="46.34035" lon="5.29375">
        <ele>252.80000305176</ele>
        <time>2020-10-24T13:07:18.000Z</time>
      </trkpt>
      <trkpt lat="46.34044" lon="5.29371">
        <ele>252.60000610352</ele>
        <time>2020-10-24T13:07:19.000Z</time>
      </trkpt>
      <trkpt lat="46.34053" lon="5.29367">
        <ele>252.39999389648</ele>
        <time>2020-10-24T13:07:20.000Z</time>
      </trkpt>
      <trkpt lat="46.3407" lon="5.29354">
        <ele>252</ele>
        <time>2020-10-24T13:07:22.000Z</time>
      </trkpt>
      <trkpt lat="46.34084" lon="5.29333">
        <ele>251.19999694824</ele>
        <time>2020-10-24T13:07:24.000Z</time>
      </trkpt>
      <trkpt lat="46.34089" lon="5.29322">
        <ele>250.80000305176</ele>
        <time>2020-10-24T13:07:25.000Z</time>
      </trkpt>
      <trkpt lat="46.34094" lon="5.2931">
        <ele>250.39999389648</ele>
        <time>2020-10-24T13:07:26.000Z</time>
      </trkpt>
      <trkpt lat="46.341" lon="5.29299">
        <ele>250</ele>
        <time>2020-10-24T13:07:27.000Z</time>
      </trkpt>
      <trkpt lat="46.34106" lon="5.29289">
        <ele>249.80000305176</ele>
        <time>2020-10-24T13:07:28.000Z</time>
      </trkpt>
      <trkpt lat="46.34113" lon="5.2928">
        <ele>249.60000610352</ele>
        <time>2020-10-24T13:07:29.000Z</time>
      </trkpt>
      <trkpt lat="46.34121" lon="5.29274">
        <ele>249.39999389648</ele>
        <time>2020-10-24T13:07:30.000Z</time>
      </trkpt>
      <trkpt lat="46.34138" lon="5.29268">
        <ele>249</ele>
        <time>2020-10-24T13:07:32.000Z</time>
      </trkpt>
      <trkpt lat="46.34147" lon="5.29266">
        <ele>249</ele>
        <time>2020-10-24T13:07:33.000Z</time>
      </trkpt>
      <trkpt lat="46.34156" lon="5.29265">
        <ele>249</ele>
        <time>2020-10-24T13:07:34.000Z</time>
      </trkpt>
      <trkpt lat="46.34173" lon="5.29263">
        <ele>249</ele>
        <time>2020-10-24T13:07:36.000Z</time>
      </trkpt>
      <trkpt lat="46.3419" lon="5.29261">
        <ele>249</ele>
        <time>2020-10-24T13:07:38.000Z</time>
      </trkpt>
      <trkpt lat="46.34199" lon="5.29262">
        <ele>249</ele>
        <time>2020-10-24T13:07:39.000Z</time>
      </trkpt>
      <trkpt lat="46.34207" lon="5.29264">
        <ele>249.19999694824</ele>
        <time>2020-10-24T13:07:40.000Z</time>
      </trkpt>
      <trkpt lat="46.34222" lon="5.29271">
        <ele>249.39999389648</ele>
        <time>2020-10-24T13:07:42.000Z</time>
      </trkpt>
      <trkpt lat="46.3423" lon="5.29275">
        <ele>249.60000610352</ele>
        <time>2020-10-24T13:07:43.000Z</time>
      </trkpt>
      <trkpt lat="46.34238" lon="5.29278">
        <ele>249.80000305176</ele>
        <time>2020-10-24T13:07:44.000Z</time>
      </trkpt>
      <trkpt lat="46.34255" lon="5.29283">
        <ele>250</ele>
        <time>2020-10-24T13:07:46.000Z</time>
      </trkpt>
      <trkpt lat="46.34263" lon="5.29286">
        <ele>250.19999694824</ele>
        <time>2020-10-24T13:07:47.000Z</time>
      </trkpt>
      <trkpt lat="46.34272" lon="5.29288">
        <ele>250.39999389648</ele>
        <time>2020-10-24T13:07:48.000Z</time>
      </trkpt>
      <trkpt lat="46.34281" lon="5.2929">
        <ele>250.60000610352</ele>
        <time>2020-10-24T13:07:49.000Z</time>
      </trkpt>
      <trkpt lat="46.3429" lon="5.29293">
        <ele>250.60000610352</ele>
        <time>2020-10-24T13:07:50.000Z</time>
      </trkpt>
      <trkpt lat="46.34306" lon="5.29298">
        <ele>250.80000305176</ele>
        <time>2020-10-24T13:07:52.000Z</time>
      </trkpt>
      <trkpt lat="46.34321" lon="5.29305">
        <ele>250.80000305176</ele>
        <time>2020-10-24T13:07:54.000Z</time>
      </trkpt>
      <trkpt lat="46.34336" lon="5.29315">
        <ele>251</ele>
        <time>2020-10-24T13:07:56.000Z</time>
      </trkpt>
      <trkpt lat="46.3435" lon="5.29325">
        <ele>251</ele>
        <time>2020-10-24T13:07:58.000Z</time>
      </trkpt>
      <trkpt lat="46.34357" lon="5.2933">
        <ele>251</ele>
        <time>2020-10-24T13:07:59.000Z</time>
      </trkpt>
      <trkpt lat="46.34364" lon="5.29334">
        <ele>251</ele>
        <time>2020-10-24T13:08:00.000Z</time>
      </trkpt>
      <trkpt lat="46.34379" lon="5.29339">
        <ele>251</ele>
        <time>2020-10-24T13:08:02.000Z</time>
      </trkpt>
      <trkpt lat="46.34386" lon="5.29341">
        <ele>251</ele>
        <time>2020-10-24T13:08:03.000Z</time>
      </trkpt>
      <trkpt lat="46.34393" lon="5.29344">
        <ele>251.19999694824</ele>
        <time>2020-10-24T13:08:04.000Z</time>
      </trkpt>
      <trkpt lat="46.34407" lon="5.29354">
        <ele>251.80000305176</ele>
        <time>2020-10-24T13:08:06.000Z</time>
      </trkpt>
      <trkpt lat="46.34413" lon="5.2936">
        <ele>252</ele>
        <time>2020-10-24T13:08:07.000Z</time>
      </trkpt>
      <trkpt lat="46.34418" lon="5.29368">
        <ele>252.19999694824</ele>
        <time>2020-10-24T13:08:08.000Z</time>
      </trkpt>
      <trkpt lat="46.34423" lon="5.29376">
        <ele>252.19999694824</ele>
        <time>2020-10-24T13:08:09.000Z</time>
      </trkpt>
      <trkpt lat="46.34427" lon="5.29385">
        <ele>252.39999389648</ele>
        <time>2020-10-24T13:08:10.000Z</time>
      </trkpt>
      <trkpt lat="46.34431" lon="5.29394">
        <ele>252.60000610352</ele>
        <time>2020-10-24T13:08:11.000Z</time>
      </trkpt>
      <trkpt lat="46.34435" lon="5.29403">
        <ele>252.60000610352</ele>
        <time>2020-10-24T13:08:12.000Z</time>
      </trkpt>
      <trkpt lat="46.34443" lon="5.2942">
        <ele>252.60000610352</ele>
        <time>2020-10-24T13:08:14.000Z</time>
      </trkpt>
      <trkpt lat="46.34453" lon="5.29435">
        <ele>253</ele>
        <time>2020-10-24T13:08:16.000Z</time>
      </trkpt>
      <trkpt lat="46.34458" lon="5.29442">
        <ele>253</ele>
        <time>2020-10-24T13:08:17.000Z</time>
      </trkpt>
      <trkpt lat="46.34463" lon="5.2945">
        <ele>253.19999694824</ele>
        <time>2020-10-24T13:08:18.000Z</time>
      </trkpt>
      <trkpt lat="46.34469" lon="5.29471">
        <ele>253.19999694824</ele>
        <time>2020-10-24T13:08:20.000Z</time>
      </trkpt>
      <trkpt lat="46.34467" lon="5.29494">
        <ele>253.19999694824</ele>
        <time>2020-10-24T13:08:22.000Z</time>
      </trkpt>
      <trkpt lat="46.34465" lon="5.29505">
        <ele>253.19999694824</ele>
        <time>2020-10-24T13:08:23.000Z</time>
      </trkpt>
      <trkpt lat="46.34463" lon="5.29516">
        <ele>253.19999694824</ele>
        <time>2020-10-24T13:08:24.000Z</time>
      </trkpt>
      <trkpt lat="46.3446" lon="5.29539">
        <ele>253.19999694824</ele>
        <time>2020-10-24T13:08:26.000Z</time>
      </trkpt>
      <trkpt lat="46.34457" lon="5.29563">
        <ele>253</ele>
        <time>2020-10-24T13:08:28.000Z</time>
      </trkpt>
      <trkpt lat="46.34457" lon="5.29574">
        <ele>252.39999389648</ele>
        <time>2020-10-24T13:08:29.000Z</time>
      </trkpt>
      <trkpt lat="46.3446" lon="5.29586">
        <ele>252</ele>
        <time>2020-10-24T13:08:30.000Z</time>
      </trkpt>
      <trkpt lat="46.34473" lon="5.29601">
        <ele>251.60000610352</ele>
        <time>2020-10-24T13:08:32.000Z</time>
      </trkpt>
      <trkpt lat="46.34491" lon="5.29607">
        <ele>251</ele>
        <time>2020-10-24T13:08:34.000Z</time>
      </trkpt>
      <trkpt lat="46.345" lon="5.29609">
        <ele>250.80000305176</ele>
        <time>2020-10-24T13:08:35.000Z</time>
      </trkpt>
      <trkpt lat="46.34509" lon="5.29611">
        <ele>250.39999389648</ele>
        <time>2020-10-24T13:08:36.000Z</time>
      </trkpt>
      <trkpt lat="46.34528" lon="5.29614">
        <ele>249.39999389648</ele>
        <time>2020-10-24T13:08:38.000Z</time>
      </trkpt>
      <trkpt lat="46.34546" lon="5.29617">
        <ele>248.80000305176</ele>
        <time>2020-10-24T13:08:40.000Z</time>
      </trkpt>
      <trkpt lat="46.34565" lon="5.2962">
        <ele>248.39999389648</ele>
        <time>2020-10-24T13:08:42.000Z</time>
      </trkpt>
      <trkpt lat="46.34583" lon="5.29623">
        <ele>248</ele>
        <time>2020-10-24T13:08:44.000Z</time>
      </trkpt>
      <trkpt lat="46.346" lon="5.29626">
        <ele>248</ele>
        <time>2020-10-24T13:08:46.000Z</time>
      </trkpt>
      <trkpt lat="46.34618" lon="5.2963">
        <ele>248</ele>
        <time>2020-10-24T13:08:48.000Z</time>
      </trkpt>
      <trkpt lat="46.34634" lon="5.29634">
        <ele>248</ele>
        <time>2020-10-24T13:08:50.000Z</time>
      </trkpt>
      <trkpt lat="46.3465" lon="5.29637">
        <ele>248</ele>
        <time>2020-10-24T13:08:52.000Z</time>
      </trkpt>
      <trkpt lat="46.34666" lon="5.29639">
        <ele>248</ele>
        <time>2020-10-24T13:08:54.000Z</time>
      </trkpt>
      <trkpt lat="46.34682" lon="5.29641">
        <ele>248.39999389648</ele>
        <time>2020-10-24T13:08:56.000Z</time>
      </trkpt>
      <trkpt lat="46.34697" lon="5.29645">
        <ele>248.60000610352</ele>
        <time>2020-10-24T13:08:58.000Z</time>
      </trkpt>
      <trkpt lat="46.34705" lon="5.29647">
        <ele>248.60000610352</ele>
        <time>2020-10-24T13:08:59.000Z</time>
      </trkpt>
      <trkpt lat="46.34713" lon="5.29647">
        <ele>248.60000610352</ele>
        <time>2020-10-24T13:09:00.000Z</time>
      </trkpt>
      <trkpt lat="46.34727" lon="5.29642">
        <ele>248.80000305176</ele>
        <time>2020-10-24T13:09:02.000Z</time>
      </trkpt>
      <trkpt lat="46.34733" lon="5.29638">
        <ele>248.80000305176</ele>
        <time>2020-10-24T13:09:03.000Z</time>
      </trkpt>
      <trkpt lat="46.3474" lon="5.29633">
        <ele>248.80000305176</ele>
        <time>2020-10-24T13:09:04.000Z</time>
      </trkpt>
      <trkpt lat="46.34754" lon="5.29624">
        <ele>249.19999694824</ele>
        <time>2020-10-24T13:09:06.000Z</time>
      </trkpt>
      <trkpt lat="46.34762" lon="5.29622">
        <ele>249.60000610352</ele>
        <time>2020-10-24T13:09:07.000Z</time>
      </trkpt>
      <trkpt lat="46.34769" lon="5.2962">
        <ele>249.60000610352</ele>
        <time>2020-10-24T13:09:08.000Z</time>
      </trkpt>
      <trkpt lat="46.34783" lon="5.29618">
        <ele>250</ele>
        <time>2020-10-24T13:09:10.000Z</time>
      </trkpt>
      <trkpt lat="46.34797" lon="5.29617">
        <ele>250.39999389648</ele>
        <time>2020-10-24T13:09:12.000Z</time>
      </trkpt>
      <trkpt lat="46.34805" lon="5.29616">
        <ele>250.39999389648</ele>
        <time>2020-10-24T13:09:13.000Z</time>
      </trkpt>
      <trkpt lat="46.34812" lon="5.29616">
        <ele>250.60000610352</ele>
        <time>2020-10-24T13:09:14.000Z</time>
      </trkpt>
      <trkpt lat="46.34827" lon="5.29617">
        <ele>251</ele>
        <time>2020-10-24T13:09:16.000Z</time>
      </trkpt>
      <trkpt lat="46.34842" lon="5.2962">
        <ele>251.60000610352</ele>
        <time>2020-10-24T13:09:18.000Z</time>
      </trkpt>
      <trkpt lat="46.34857" lon="5.29626">
        <ele>252.19999694824</ele>
        <time>2020-10-24T13:09:20.000Z</time>
      </trkpt>
      <trkpt lat="46.34871" lon="5.29633">
        <ele>252.39999389648</ele>
        <time>2020-10-24T13:09:22.000Z</time>
      </trkpt>
      <trkpt lat="46.34884" lon="5.29641">
        <ele>252.39999389648</ele>
        <time>2020-10-24T13:09:24.000Z</time>
      </trkpt>
      <trkpt lat="46.34891" lon="5.29646">
        <ele>252.39999389648</ele>
        <time>2020-10-24T13:09:25.000Z</time>
      </trkpt>
      <trkpt lat="46.34897" lon="5.29651">
        <ele>252.39999389648</ele>
        <time>2020-10-24T13:09:26.000Z</time>
      </trkpt>
      <trkpt lat="46.34911" lon="5.2966">
        <ele>252.39999389648</ele>
        <time>2020-10-24T13:09:28.000Z</time>
      </trkpt>
      <trkpt lat="46.34918" lon="5.29664">
        <ele>252.19999694824</ele>
        <time>2020-10-24T13:09:29.000Z</time>
      </trkpt>
      <trkpt lat="46.34926" lon="5.29667">
        <ele>252.19999694824</ele>
        <time>2020-10-24T13:09:30.000Z</time>
      </trkpt>
      <trkpt lat="46.34934" lon="5.29667">
        <ele>252</ele>
        <time>2020-10-24T13:09:31.000Z</time>
      </trkpt>
      <trkpt lat="46.34942" lon="5.29665">
        <ele>252</ele>
        <time>2020-10-24T13:09:32.000Z</time>
      </trkpt>
      <trkpt lat="46.34956" lon="5.29655">
        <ele>252</ele>
        <time>2020-10-24T13:09:34.000Z</time>
      </trkpt>
      <trkpt lat="46.34963" lon="5.29649">
        <ele>251.80000305176</ele>
        <time>2020-10-24T13:09:35.000Z</time>
      </trkpt>
      <trkpt lat="46.34969" lon="5.29643">
        <ele>251.80000305176</ele>
        <time>2020-10-24T13:09:36.000Z</time>
      </trkpt>
      <trkpt lat="46.34983" lon="5.29637">
        <ele>251.80000305176</ele>
        <time>2020-10-24T13:09:38.000Z</time>
      </trkpt>
      <trkpt lat="46.34998" lon="5.29635">
        <ele>251.80000305176</ele>
        <time>2020-10-24T13:09:40.000Z</time>
      </trkpt>
      <trkpt lat="46.35006" lon="5.29636">
        <ele>251.80000305176</ele>
        <time>2020-10-24T13:09:41.000Z</time>
      </trkpt>
      <trkpt lat="46.35014" lon="5.29637">
        <ele>251.80000305176</ele>
        <time>2020-10-24T13:09:42.000Z</time>
      </trkpt>
      <trkpt lat="46.35031" lon="5.2964">
        <ele>251.60000610352</ele>
        <time>2020-10-24T13:09:44.000Z</time>
      </trkpt>
      <trkpt lat="46.35039" lon="5.29643">
        <ele>251.60000610352</ele>
        <time>2020-10-24T13:09:45.000Z</time>
      </trkpt>
      <trkpt lat="46.35048" lon="5.29647">
        <ele>251.60000610352</ele>
        <time>2020-10-24T13:09:46.000Z</time>
      </trkpt>
      <trkpt lat="46.35057" lon="5.29652">
        <ele>251.60000610352</ele>
        <time>2020-10-24T13:09:47.000Z</time>
      </trkpt>
      <trkpt lat="46.35065" lon="5.29657">
        <ele>251.60000610352</ele>
        <time>2020-10-24T13:09:48.000Z</time>
      </trkpt>
      <trkpt lat="46.35074" lon="5.29661">
        <ele>251.60000610352</ele>
        <time>2020-10-24T13:09:49.000Z</time>
      </trkpt>
      <trkpt lat="46.35084" lon="5.29663">
        <ele>251.60000610352</ele>
        <time>2020-10-24T13:09:50.000Z</time>
      </trkpt>
      <trkpt lat="46.35093" lon="5.29664">
        <ele>251.39999389648</ele>
        <time>2020-10-24T13:09:51.000Z</time>
      </trkpt>
      <trkpt lat="46.35102" lon="5.29664">
        <ele>251</ele>
        <time>2020-10-24T13:09:52.000Z</time>
      </trkpt>
      <trkpt lat="46.35111" lon="5.29664">
        <ele>250.39999389648</ele>
        <time>2020-10-24T13:09:53.000Z</time>
      </trkpt>
      <trkpt lat="46.3512" lon="5.29663">
        <ele>250</ele>
        <time>2020-10-24T13:09:54.000Z</time>
      </trkpt>
      <trkpt lat="46.35137" lon="5.29661">
        <ele>249.19999694824</ele>
        <time>2020-10-24T13:09:56.000Z</time>
      </trkpt>
      <trkpt lat="46.35154" lon="5.29659">
        <ele>249</ele>
        <time>2020-10-24T13:09:58.000Z</time>
      </trkpt>
      <trkpt lat="46.35169" lon="5.29658">
        <ele>249</ele>
        <time>2020-10-24T13:10:00.000Z</time>
      </trkpt>
      <trkpt lat="46.35184" lon="5.29656">
        <ele>249</ele>
        <time>2020-10-24T13:10:02.000Z</time>
      </trkpt>
      <trkpt lat="46.35192" lon="5.29655">
        <ele>249</ele>
        <time>2020-10-24T13:10:03.000Z</time>
      </trkpt>
      <trkpt lat="46.35199" lon="5.29653">
        <ele>249.19999694824</ele>
        <time>2020-10-24T13:10:04.000Z</time>
      </trkpt>
      <trkpt lat="46.35214" lon="5.2965">
        <ele>249.60000610352</ele>
        <time>2020-10-24T13:10:06.000Z</time>
      </trkpt>
      <trkpt lat="46.35229" lon="5.29647">
        <ele>250.19999694824</ele>
        <time>2020-10-24T13:10:08.000Z</time>
      </trkpt>
      <trkpt lat="46.35236" lon="5.29646">
        <ele>250.39999389648</ele>
        <time>2020-10-24T13:10:09.000Z</time>
      </trkpt>
      <trkpt lat="46.35244" lon="5.29645">
        <ele>251</ele>
        <time>2020-10-24T13:10:10.000Z</time>
      </trkpt>
      <trkpt lat="46.35252" lon="5.29645">
        <ele>251.39999389648</ele>
        <time>2020-10-24T13:10:11.000Z</time>
      </trkpt>
      <trkpt lat="46.3526" lon="5.29645">
        <ele>251.80000305176</ele>
        <time>2020-10-24T13:10:12.000Z</time>
      </trkpt>
      <trkpt lat="46.35275" lon="5.29646">
        <ele>252.19999694824</ele>
        <time>2020-10-24T13:10:14.000Z</time>
      </trkpt>
      <trkpt lat="46.3529" lon="5.29647">
        <ele>252.19999694824</ele>
        <time>2020-10-24T13:10:16.000Z</time>
      </trkpt>
      <trkpt lat="46.35305" lon="5.29649">
        <ele>252.39999389648</ele>
        <time>2020-10-24T13:10:18.000Z</time>
      </trkpt>
      <trkpt lat="46.3532" lon="5.29652">
        <ele>252.60000610352</ele>
        <time>2020-10-24T13:10:20.000Z</time>
      </trkpt>
      <trkpt lat="46.35328" lon="5.29654">
        <ele>252.80000305176</ele>
        <time>2020-10-24T13:10:21.000Z</time>
      </trkpt>
      <trkpt lat="46.35336" lon="5.29656">
        <ele>253</ele>
        <time>2020-10-24T13:10:22.000Z</time>
      </trkpt>
      <trkpt lat="46.35351" lon="5.2966">
        <ele>253.19999694824</ele>
        <time>2020-10-24T13:10:24.000Z</time>
      </trkpt>
      <trkpt lat="46.35366" lon="5.29664">
        <ele>253.19999694824</ele>
        <time>2020-10-24T13:10:26.000Z</time>
      </trkpt>
      <trkpt lat="46.35381" lon="5.29669">
        <ele>253.19999694824</ele>
        <time>2020-10-24T13:10:28.000Z</time>
      </trkpt>
      <trkpt lat="46.35396" lon="5.29674">
        <ele>253.19999694824</ele>
        <time>2020-10-24T13:10:30.000Z</time>
      </trkpt>
      <trkpt lat="46.35403" lon="5.29677">
        <ele>253.19999694824</ele>
        <time>2020-10-24T13:10:31.000Z</time>
      </trkpt>
      <trkpt lat="46.3541" lon="5.2968">
        <ele>253.19999694824</ele>
        <time>2020-10-24T13:10:32.000Z</time>
      </trkpt>
      <trkpt lat="46.35425" lon="5.29684">
        <ele>253.19999694824</ele>
        <time>2020-10-24T13:10:34.000Z</time>
      </trkpt>
      <trkpt lat="46.3544" lon="5.29688">
        <ele>253.19999694824</ele>
        <time>2020-10-24T13:10:36.000Z</time>
      </trkpt>
      <trkpt lat="46.35454" lon="5.29693">
        <ele>253.19999694824</ele>
        <time>2020-10-24T13:10:38.000Z</time>
      </trkpt>
      <trkpt lat="46.35462" lon="5.29695">
        <ele>253.19999694824</ele>
        <time>2020-10-24T13:10:39.000Z</time>
      </trkpt>
      <trkpt lat="46.35469" lon="5.29695">
        <ele>253.19999694824</ele>
        <time>2020-10-24T13:10:40.000Z</time>
      </trkpt>
      <trkpt lat="46.35483" lon="5.29689">
        <ele>253.19999694824</ele>
        <time>2020-10-24T13:10:42.000Z</time>
      </trkpt>
      <trkpt lat="46.35494" lon="5.29674">
        <ele>253</ele>
        <time>2020-10-24T13:10:44.000Z</time>
      </trkpt>
      <trkpt lat="46.355" lon="5.29666">
        <ele>253</ele>
        <time>2020-10-24T13:10:45.000Z</time>
      </trkpt>
      <trkpt lat="46.35507" lon="5.29659">
        <ele>253</ele>
        <time>2020-10-24T13:10:46.000Z</time>
      </trkpt>
      <trkpt lat="46.35523" lon="5.29651">
        <ele>253</ele>
        <time>2020-10-24T13:10:48.000Z</time>
      </trkpt>
      <trkpt lat="46.35531" lon="5.2965">
        <ele>252.80000305176</ele>
        <time>2020-10-24T13:10:49.000Z</time>
      </trkpt>
      <trkpt lat="46.35539" lon="5.29649">
        <ele>252.60000610352</ele>
        <time>2020-10-24T13:10:50.000Z</time>
      </trkpt>
      <trkpt lat="46.35556" lon="5.29646">
        <ele>252.39999389648</ele>
        <time>2020-10-24T13:10:52.000Z</time>
      </trkpt>
      <trkpt lat="46.35572" lon="5.29642">
        <ele>252.39999389648</ele>
        <time>2020-10-24T13:10:54.000Z</time>
      </trkpt>
      <trkpt lat="46.35588" lon="5.29636">
        <ele>252.39999389648</ele>
        <time>2020-10-24T13:10:56.000Z</time>
      </trkpt>
      <trkpt lat="46.35604" lon="5.29628">
        <ele>252.39999389648</ele>
        <time>2020-10-24T13:10:58.000Z</time>
      </trkpt>
      <trkpt lat="46.35621" lon="5.29619">
        <ele>252.39999389648</ele>
        <time>2020-10-24T13:11:00.000Z</time>
      </trkpt>
      <trkpt lat="46.35637" lon="5.2961">
        <ele>252.39999389648</ele>
        <time>2020-10-24T13:11:02.000Z</time>
      </trkpt>
      <trkpt lat="46.35653" lon="5.29601">
        <ele>252.39999389648</ele>
        <time>2020-10-24T13:11:04.000Z</time>
      </trkpt>
      <trkpt lat="46.35669" lon="5.2959">
        <ele>252.39999389648</ele>
        <time>2020-10-24T13:11:06.000Z</time>
      </trkpt>
      <trkpt lat="46.35676" lon="5.29584">
        <ele>252.39999389648</ele>
        <time>2020-10-24T13:11:07.000Z</time>
      </trkpt>
      <trkpt lat="46.35683" lon="5.29577">
        <ele>252.39999389648</ele>
        <time>2020-10-24T13:11:08.000Z</time>
      </trkpt>
      <trkpt lat="46.35697" lon="5.29564">
        <ele>252.19999694824</ele>
        <time>2020-10-24T13:11:10.000Z</time>
      </trkpt>
      <trkpt lat="46.35713" lon="5.29553">
        <ele>252.19999694824</ele>
        <time>2020-10-24T13:11:12.000Z</time>
      </trkpt>
      <trkpt lat="46.35721" lon="5.2955">
        <ele>252.19999694824</ele>
        <time>2020-10-24T13:11:13.000Z</time>
      </trkpt>
      <trkpt lat="46.35729" lon="5.29548">
        <ele>252.19999694824</ele>
        <time>2020-10-24T13:11:14.000Z</time>
      </trkpt>
      <trkpt lat="46.35747" lon="5.29545">
        <ele>252.19999694824</ele>
        <time>2020-10-24T13:11:16.000Z</time>
      </trkpt>
      <trkpt lat="46.35755" lon="5.29545">
        <ele>252.19999694824</ele>
        <time>2020-10-24T13:11:17.000Z</time>
      </trkpt>
      <trkpt lat="46.35764" lon="5.29545">
        <ele>252.19999694824</ele>
        <time>2020-10-24T13:11:18.000Z</time>
      </trkpt>
      <trkpt lat="46.35781" lon="5.29545">
        <ele>252</ele>
        <time>2020-10-24T13:11:20.000Z</time>
      </trkpt>
      <trkpt lat="46.35798" lon="5.29546">
        <ele>251.60000610352</ele>
        <time>2020-10-24T13:11:22.000Z</time>
      </trkpt>
      <trkpt lat="46.35816" lon="5.29545">
        <ele>251.19999694824</ele>
        <time>2020-10-24T13:11:24.000Z</time>
      </trkpt>
      <trkpt lat="46.35833" lon="5.29545">
        <ele>250.80000305176</ele>
        <time>2020-10-24T13:11:26.000Z</time>
      </trkpt>
      <trkpt lat="46.35842" lon="5.29545">
        <ele>250.60000610352</ele>
        <time>2020-10-24T13:11:27.000Z</time>
      </trkpt>
      <trkpt lat="46.3585" lon="5.29546">
        <ele>250.39999389648</ele>
        <time>2020-10-24T13:11:28.000Z</time>
      </trkpt>
      <trkpt lat="46.35867" lon="5.29548">
        <ele>249.80000305176</ele>
        <time>2020-10-24T13:11:30.000Z</time>
      </trkpt>
      <trkpt lat="46.35876" lon="5.2955">
        <ele>249.60000610352</ele>
        <time>2020-10-24T13:11:31.000Z</time>
      </trkpt>
      <trkpt lat="46.35886" lon="5.29552">
        <ele>249.39999389648</ele>
        <time>2020-10-24T13:11:32.000Z</time>
      </trkpt>
      <trkpt lat="46.35906" lon="5.29553">
        <ele>249.39999389648</ele>
        <time>2020-10-24T13:11:34.000Z</time>
      </trkpt>
      <trkpt lat="46.35928" lon="5.29554">
        <ele>249</ele>
        <time>2020-10-24T13:11:36.000Z</time>
      </trkpt>
      <trkpt lat="46.35939" lon="5.29554">
        <ele>248.60000610352</ele>
        <time>2020-10-24T13:11:37.000Z</time>
      </trkpt>
      <trkpt lat="46.3595" lon="5.29553">
        <ele>248.39999389648</ele>
        <time>2020-10-24T13:11:38.000Z</time>
      </trkpt>
      <trkpt lat="46.3597" lon="5.29551">
        <ele>247.80000305176</ele>
        <time>2020-10-24T13:11:40.000Z</time>
      </trkpt>
      <trkpt lat="46.3598" lon="5.2955">
        <ele>247.39999389648</ele>
        <time>2020-10-24T13:11:41.000Z</time>
      </trkpt>
      <trkpt lat="46.35989" lon="5.29549">
        <ele>247</ele>
        <time>2020-10-24T13:11:42.000Z</time>
      </trkpt>
      <trkpt lat="46.36008" lon="5.29546">
        <ele>246.39999389648</ele>
        <time>2020-10-24T13:11:44.000Z</time>
      </trkpt>
      <trkpt lat="46.36018" lon="5.29545">
        <ele>246.19999694824</ele>
        <time>2020-10-24T13:11:45.000Z</time>
      </trkpt>
      <trkpt lat="46.36027" lon="5.29544">
        <ele>246.19999694824</ele>
        <time>2020-10-24T13:11:46.000Z</time>
      </trkpt>
      <trkpt lat="46.36045" lon="5.29541">
        <ele>246.19999694824</ele>
        <time>2020-10-24T13:11:48.000Z</time>
      </trkpt>
      <trkpt lat="46.36063" lon="5.29539">
        <ele>246.19999694824</ele>
        <time>2020-10-24T13:11:50.000Z</time>
      </trkpt>
      <trkpt lat="46.36081" lon="5.29537">
        <ele>246.19999694824</ele>
        <time>2020-10-24T13:11:52.000Z</time>
      </trkpt>
      <trkpt lat="46.36098" lon="5.29535">
        <ele>246.19999694824</ele>
        <time>2020-10-24T13:11:54.000Z</time>
      </trkpt>
      <trkpt lat="46.36115" lon="5.29533">
        <ele>246.39999389648</ele>
        <time>2020-10-24T13:11:56.000Z</time>
      </trkpt>
      <trkpt lat="46.36132" lon="5.29532">
        <ele>246.60000610352</ele>
        <time>2020-10-24T13:11:58.000Z</time>
      </trkpt>
      <trkpt lat="46.36149" lon="5.2953">
        <ele>246.60000610352</ele>
        <time>2020-10-24T13:12:00.000Z</time>
      </trkpt>
      <trkpt lat="46.36164" lon="5.29526">
        <ele>246.80000305176</ele>
        <time>2020-10-24T13:12:02.000Z</time>
      </trkpt>
      <trkpt lat="46.36172" lon="5.29523">
        <ele>247</ele>
        <time>2020-10-24T13:12:03.000Z</time>
      </trkpt>
      <trkpt lat="46.36179" lon="5.29519">
        <ele>247.39999389648</ele>
        <time>2020-10-24T13:12:04.000Z</time>
      </trkpt>
      <trkpt lat="46.36192" lon="5.29509">
        <ele>247.60000610352</ele>
        <time>2020-10-24T13:12:06.000Z</time>
      </trkpt>
      <trkpt lat="46.36199" lon="5.29503">
        <ele>247.80000305176</ele>
        <time>2020-10-24T13:12:07.000Z</time>
      </trkpt>
      <trkpt lat="46.36206" lon="5.29496">
        <ele>248</ele>
        <time>2020-10-24T13:12:08.000Z</time>
      </trkpt>
      <trkpt lat="46.36219" lon="5.29482">
        <ele>248.39999389648</ele>
        <time>2020-10-24T13:12:10.000Z</time>
      </trkpt>
      <trkpt lat="46.36227" lon="5.29476">
        <ele>248.39999389648</ele>
        <time>2020-10-24T13:12:11.000Z</time>
      </trkpt>
      <trkpt lat="46.36235" lon="5.2947">
        <ele>248.39999389648</ele>
        <time>2020-10-24T13:12:12.000Z</time>
      </trkpt>
      <trkpt lat="46.36253" lon="5.29466">
        <ele>248.39999389648</ele>
        <time>2020-10-24T13:12:14.000Z</time>
      </trkpt>
      <trkpt lat="46.36262" lon="5.29467">
        <ele>248.39999389648</ele>
        <time>2020-10-24T13:12:15.000Z</time>
      </trkpt>
      <trkpt lat="46.36272" lon="5.29469">
        <ele>248.39999389648</ele>
        <time>2020-10-24T13:12:16.000Z</time>
      </trkpt>
      <trkpt lat="46.3629" lon="5.29475">
        <ele>248</ele>
        <time>2020-10-24T13:12:18.000Z</time>
      </trkpt>
      <trkpt lat="46.36298" lon="5.2948">
        <ele>247.60000610352</ele>
        <time>2020-10-24T13:12:19.000Z</time>
      </trkpt>
      <trkpt lat="46.36306" lon="5.29485">
        <ele>247.39999389648</ele>
        <time>2020-10-24T13:12:20.000Z</time>
      </trkpt>
      <trkpt lat="46.36321" lon="5.29497">
        <ele>247.39999389648</ele>
        <time>2020-10-24T13:12:22.000Z</time>
      </trkpt>
      <trkpt lat="46.36334" lon="5.2951">
        <ele>247.39999389648</ele>
        <time>2020-10-24T13:12:24.000Z</time>
      </trkpt>
      <trkpt lat="46.36346" lon="5.29525">
        <ele>247.39999389648</ele>
        <time>2020-10-24T13:12:26.000Z</time>
      </trkpt>
      <trkpt lat="46.36357" lon="5.29541">
        <ele>247.39999389648</ele>
        <time>2020-10-24T13:12:28.000Z</time>
      </trkpt>
      <trkpt lat="46.36362" lon="5.2955">
        <ele>247.39999389648</ele>
        <time>2020-10-24T13:12:29.000Z</time>
      </trkpt>
      <trkpt lat="46.36366" lon="5.2956">
        <ele>247.80000305176</ele>
        <time>2020-10-24T13:12:30.000Z</time>
      </trkpt>
      <trkpt lat="46.36376" lon="5.29579">
        <ele>248.60000610352</ele>
        <time>2020-10-24T13:12:32.000Z</time>
      </trkpt>
      <trkpt lat="46.36381" lon="5.29588">
        <ele>249</ele>
        <time>2020-10-24T13:12:33.000Z</time>
      </trkpt>
      <trkpt lat="46.36387" lon="5.29596">
        <ele>249.19999694824</ele>
        <time>2020-10-24T13:12:34.000Z</time>
      </trkpt>
      <trkpt lat="46.36401" lon="5.2961">
        <ele>249.39999389648</ele>
        <time>2020-10-24T13:12:36.000Z</time>
      </trkpt>
      <trkpt lat="46.36416" lon="5.29622">
        <ele>249.60000610352</ele>
        <time>2020-10-24T13:12:38.000Z</time>
      </trkpt>
      <trkpt lat="46.36423" lon="5.29628">
        <ele>249.60000610352</ele>
        <time>2020-10-24T13:12:39.000Z</time>
      </trkpt>
      <trkpt lat="46.3643" lon="5.29633">
        <ele>249.60000610352</ele>
        <time>2020-10-24T13:12:40.000Z</time>
      </trkpt>
      <trkpt lat="46.36446" lon="5.29644">
        <ele>249.60000610352</ele>
        <time>2020-10-24T13:12:42.000Z</time>
      </trkpt>
      <trkpt lat="46.36461" lon="5.29655">
        <ele>249.39999389648</ele>
        <time>2020-10-24T13:12:44.000Z</time>
      </trkpt>
      <trkpt lat="46.36477" lon="5.29666">
        <ele>249.19999694824</ele>
        <time>2020-10-24T13:12:46.000Z</time>
      </trkpt>
      <trkpt lat="46.36493" lon="5.29674">
        <ele>249</ele>
        <time>2020-10-24T13:12:48.000Z</time>
      </trkpt>
      <trkpt lat="46.36509" lon="5.29681">
        <ele>248.80000305176</ele>
        <time>2020-10-24T13:12:50.000Z</time>
      </trkpt>
      <trkpt lat="46.36525" lon="5.29687">
        <ele>248.80000305176</ele>
        <time>2020-10-24T13:12:52.000Z</time>
      </trkpt>
      <trkpt lat="46.36541" lon="5.29693">
        <ele>248.60000610352</ele>
        <time>2020-10-24T13:12:54.000Z</time>
      </trkpt>
      <trkpt lat="46.36549" lon="5.29696">
        <ele>248.60000610352</ele>
        <time>2020-10-24T13:12:55.000Z</time>
      </trkpt>
      <trkpt lat="46.36557" lon="5.29699">
        <ele>248.60000610352</ele>
        <time>2020-10-24T13:12:56.000Z</time>
      </trkpt>
      <trkpt lat="46.36572" lon="5.29705">
        <ele>248.60000610352</ele>
        <time>2020-10-24T13:12:58.000Z</time>
      </trkpt>
      <trkpt lat="46.36587" lon="5.29713">
        <ele>248.39999389648</ele>
        <time>2020-10-24T13:13:00.000Z</time>
      </trkpt>
      <trkpt lat="46.36603" lon="5.2972">
        <ele>248.19999694824</ele>
        <time>2020-10-24T13:13:02.000Z</time>
      </trkpt>
      <trkpt lat="46.36618" lon="5.29728">
        <ele>248.39999389648</ele>
        <time>2020-10-24T13:13:04.000Z</time>
      </trkpt>
      <trkpt lat="46.36633" lon="5.29735">
        <ele>248.19999694824</ele>
        <time>2020-10-24T13:13:06.000Z</time>
      </trkpt>
      <trkpt lat="46.36648" lon="5.29742">
        <ele>248.19999694824</ele>
        <time>2020-10-24T13:13:08.000Z</time>
      </trkpt>
      <trkpt lat="46.36663" lon="5.2975">
        <ele>248.19999694824</ele>
        <time>2020-10-24T13:13:10.000Z</time>
      </trkpt>
      <trkpt lat="46.36671" lon="5.29754">
        <ele>248.19999694824</ele>
        <time>2020-10-24T13:13:11.000Z</time>
      </trkpt>
      <trkpt lat="46.36678" lon="5.29759">
        <ele>247.80000305176</ele>
        <time>2020-10-24T13:13:12.000Z</time>
      </trkpt>
      <trkpt lat="46.36686" lon="5.29764">
        <ele>247.80000305176</ele>
        <time>2020-10-24T13:13:13.000Z</time>
      </trkpt>
      <trkpt lat="46.36693" lon="5.29768">
        <ele>247.60000610352</ele>
        <time>2020-10-24T13:13:14.000Z</time>
      </trkpt>
      <trkpt lat="46.36708" lon="5.29779">
        <ele>247.60000610352</ele>
        <time>2020-10-24T13:13:16.000Z</time>
      </trkpt>
      <trkpt lat="46.36715" lon="5.29785">
        <ele>247.39999389648</ele>
        <time>2020-10-24T13:13:17.000Z</time>
      </trkpt>
      <trkpt lat="46.36721" lon="5.29791">
        <ele>247.39999389648</ele>
        <time>2020-10-24T13:13:18.000Z</time>
      </trkpt>
      <trkpt lat="46.36735" lon="5.29803">
        <ele>247.39999389648</ele>
        <time>2020-10-24T13:13:20.000Z</time>
      </trkpt>
      <trkpt lat="46.36749" lon="5.29813">
        <ele>247.39999389648</ele>
        <time>2020-10-24T13:13:22.000Z</time>
      </trkpt>
      <trkpt lat="46.36762" lon="5.29823">
        <ele>247.39999389648</ele>
        <time>2020-10-24T13:13:24.000Z</time>
      </trkpt>
      <trkpt lat="46.36776" lon="5.29832">
        <ele>247.39999389648</ele>
        <time>2020-10-24T13:13:26.000Z</time>
      </trkpt>
      <trkpt lat="46.3679" lon="5.29839">
        <ele>247.39999389648</ele>
        <time>2020-10-24T13:13:28.000Z</time>
      </trkpt>
      <trkpt lat="46.36804" lon="5.29845">
        <ele>247.60000610352</ele>
        <time>2020-10-24T13:13:30.000Z</time>
      </trkpt>
      <trkpt lat="46.36811" lon="5.29846">
        <ele>247.80000305176</ele>
        <time>2020-10-24T13:13:31.000Z</time>
      </trkpt>
      <trkpt lat="46.36818" lon="5.29846">
        <ele>248</ele>
        <time>2020-10-24T13:13:32.000Z</time>
      </trkpt>
      <trkpt lat="46.36831" lon="5.29844">
        <ele>248.39999389648</ele>
        <time>2020-10-24T13:13:34.000Z</time>
      </trkpt>
      <trkpt lat="46.36845" lon="5.2984">
        <ele>248.60000610352</ele>
        <time>2020-10-24T13:13:36.000Z</time>
      </trkpt>
      <trkpt lat="46.3686" lon="5.29835">
        <ele>249</ele>
        <time>2020-10-24T13:13:38.000Z</time>
      </trkpt>
      <trkpt lat="46.36874" lon="5.2983">
        <ele>249.39999389648</ele>
        <time>2020-10-24T13:13:40.000Z</time>
      </trkpt>
      <trkpt lat="46.36882" lon="5.29828">
        <ele>249.39999389648</ele>
        <time>2020-10-24T13:13:41.000Z</time>
      </trkpt>
      <trkpt lat="46.3689" lon="5.29825">
        <ele>249.39999389648</ele>
        <time>2020-10-24T13:13:42.000Z</time>
      </trkpt>
      <trkpt lat="46.36906" lon="5.2982">
        <ele>249.39999389648</ele>
        <time>2020-10-24T13:13:44.000Z</time>
      </trkpt>
      <trkpt lat="46.36923" lon="5.29816">
        <ele>249.39999389648</ele>
        <time>2020-10-24T13:13:46.000Z</time>
      </trkpt>
      <trkpt lat="46.36932" lon="5.29814">
        <ele>249.39999389648</ele>
        <time>2020-10-24T13:13:47.000Z</time>
      </trkpt>
      <trkpt lat="46.36941" lon="5.29814">
        <ele>249.39999389648</ele>
        <time>2020-10-24T13:13:48.000Z</time>
      </trkpt>
      <trkpt lat="46.3696" lon="5.29816">
        <ele>248.60000610352</ele>
        <time>2020-10-24T13:13:50.000Z</time>
      </trkpt>
      <trkpt lat="46.3697" lon="5.29819">
        <ele>248.19999694824</ele>
        <time>2020-10-24T13:13:51.000Z</time>
      </trkpt>
      <trkpt lat="46.3698" lon="5.29821">
        <ele>247.80000305176</ele>
        <time>2020-10-24T13:13:52.000Z</time>
      </trkpt>
      <trkpt lat="46.3699" lon="5.29822">
        <ele>247.39999389648</ele>
        <time>2020-10-24T13:13:53.000Z</time>
      </trkpt>
      <trkpt lat="46.37" lon="5.29822">
        <ele>246.80000305176</ele>
        <time>2020-10-24T13:13:54.000Z</time>
      </trkpt>
      <trkpt lat="46.3701" lon="5.29822">
        <ele>246.39999389648</ele>
        <time>2020-10-24T13:13:55.000Z</time>
      </trkpt>
      <trkpt lat="46.3702" lon="5.29824">
        <ele>245.80000305176</ele>
        <time>2020-10-24T13:13:56.000Z</time>
      </trkpt>
      <trkpt lat="46.3703" lon="5.29828">
        <ele>245.19999694824</ele>
        <time>2020-10-24T13:13:57.000Z</time>
      </trkpt>
      <trkpt lat="46.37039" lon="5.29834">
        <ele>244.19999694824</ele>
        <time>2020-10-24T13:13:58.000Z</time>
      </trkpt>
      <trkpt lat="46.37047" lon="5.2984">
        <ele>243.39999389648</ele>
        <time>2020-10-24T13:13:59.000Z</time>
      </trkpt>
      <trkpt lat="46.37055" lon="5.29846">
        <ele>243</ele>
        <time>2020-10-24T13:14:00.000Z</time>
      </trkpt>
      <trkpt lat="46.3707" lon="5.29857">
        <ele>242.60000610352</ele>
        <time>2020-10-24T13:14:02.000Z</time>
      </trkpt>
      <trkpt lat="46.37077" lon="5.29863">
        <ele>242.39999389648</ele>
        <time>2020-10-24T13:14:03.000Z</time>
      </trkpt>
      <trkpt lat="46.37085" lon="5.29868">
        <ele>242.39999389648</ele>
        <time>2020-10-24T13:14:04.000Z</time>
      </trkpt>
      <trkpt lat="46.37099" lon="5.29878">
        <ele>242.39999389648</ele>
        <time>2020-10-24T13:14:06.000Z</time>
      </trkpt>
      <trkpt lat="46.37112" lon="5.29889">
        <ele>242.39999389648</ele>
        <time>2020-10-24T13:14:08.000Z</time>
      </trkpt>
      <trkpt lat="46.37119" lon="5.29894">
        <ele>242.60000610352</ele>
        <time>2020-10-24T13:14:09.000Z</time>
      </trkpt>
      <trkpt lat="46.37125" lon="5.29898">
        <ele>242.60000610352</ele>
        <time>2020-10-24T13:14:10.000Z</time>
      </trkpt>
      <trkpt lat="46.37138" lon="5.29907">
        <ele>243.60000610352</ele>
        <time>2020-10-24T13:14:12.000Z</time>
      </trkpt>
      <trkpt lat="46.3715" lon="5.29915">
        <ele>244</ele>
        <time>2020-10-24T13:14:14.000Z</time>
      </trkpt>
      <trkpt lat="46.37157" lon="5.29919">
        <ele>244.19999694824</ele>
        <time>2020-10-24T13:14:15.000Z</time>
      </trkpt>
      <trkpt lat="46.37163" lon="5.29923">
        <ele>244.39999389648</ele>
        <time>2020-10-24T13:14:16.000Z</time>
      </trkpt>
      <trkpt lat="46.37175" lon="5.2993">
        <ele>245.39999389648</ele>
        <time>2020-10-24T13:14:18.000Z</time>
      </trkpt>
      <trkpt lat="46.37182" lon="5.29932">
        <ele>246</ele>
        <time>2020-10-24T13:14:19.000Z</time>
      </trkpt>
      <trkpt lat="46.37189" lon="5.29933">
        <ele>246.39999389648</ele>
        <time>2020-10-24T13:14:20.000Z</time>
      </trkpt>
      <trkpt lat="46.37195" lon="5.29932">
        <ele>246.80000305176</ele>
        <time>2020-10-24T13:14:21.000Z</time>
      </trkpt>
      <trkpt lat="46.37202" lon="5.29931">
        <ele>247</ele>
        <time>2020-10-24T13:14:22.000Z</time>
      </trkpt>
      <trkpt lat="46.37214" lon="5.29926">
        <ele>247.39999389648</ele>
        <time>2020-10-24T13:14:24.000Z</time>
      </trkpt>
      <trkpt lat="46.37227" lon="5.2992">
        <ele>247.39999389648</ele>
        <time>2020-10-24T13:14:26.000Z</time>
      </trkpt>
      <trkpt lat="46.3724" lon="5.29916">
        <ele>247.39999389648</ele>
        <time>2020-10-24T13:14:28.000Z</time>
      </trkpt>
      <trkpt lat="46.37253" lon="5.29912">
        <ele>247.39999389648</ele>
        <time>2020-10-24T13:14:30.000Z</time>
      </trkpt>
      <trkpt lat="46.3726" lon="5.2991">
        <ele>247.39999389648</ele>
        <time>2020-10-24T13:14:31.000Z</time>
      </trkpt>
      <trkpt lat="46.37268" lon="5.29909">
        <ele>247.39999389648</ele>
        <time>2020-10-24T13:14:32.000Z</time>
      </trkpt>
      <trkpt lat="46.37283" lon="5.29908">
        <ele>247.19999694824</ele>
        <time>2020-10-24T13:14:34.000Z</time>
      </trkpt>
      <trkpt lat="46.37291" lon="5.29909">
        <ele>247</ele>
        <time>2020-10-24T13:14:35.000Z</time>
      </trkpt>
      <trkpt lat="46.37298" lon="5.29913">
        <ele>246.80000305176</ele>
        <time>2020-10-24T13:14:36.000Z</time>
      </trkpt>
      <trkpt lat="46.37309" lon="5.29928">
        <ele>246.19999694824</ele>
        <time>2020-10-24T13:14:38.000Z</time>
      </trkpt>
      <trkpt lat="46.37312" lon="5.29938">
        <ele>245.80000305176</ele>
        <time>2020-10-24T13:14:39.000Z</time>
      </trkpt>
      <trkpt lat="46.37313" lon="5.29949">
        <ele>245.19999694824</ele>
        <time>2020-10-24T13:14:40.000Z</time>
      </trkpt>
      <trkpt lat="46.3731" lon="5.29959">
        <ele>244.60000610352</ele>
        <time>2020-10-24T13:14:41.000Z</time>
      </trkpt>
      <trkpt lat="46.37304" lon="5.29967">
        <ele>244</ele>
        <time>2020-10-24T13:14:42.000Z</time>
      </trkpt>
      <trkpt lat="46.37296" lon="5.29972">
        <ele>243.39999389648</ele>
        <time>2020-10-24T13:14:43.000Z</time>
      </trkpt>
      <trkpt lat="46.37288" lon="5.29976">
        <ele>242.80000305176</ele>
        <time>2020-10-24T13:14:44.000Z</time>
      </trkpt>
      <trkpt lat="46.37279" lon="5.29981">
        <ele>242.39999389648</ele>
        <time>2020-10-24T13:14:45.000Z</time>
      </trkpt>
      <trkpt lat="46.37271" lon="5.29988">
        <ele>242</ele>
        <time>2020-10-24T13:14:46.000Z</time>
      </trkpt>
      <trkpt lat="46.3726" lon="5.30009">
        <ele>240.60000610352</ele>
        <time>2020-10-24T13:14:48.000Z</time>
      </trkpt>
      <trkpt lat="46.37257" lon="5.30037">
        <ele>239</ele>
        <time>2020-10-24T13:14:50.000Z</time>
      </trkpt>
      <trkpt lat="46.37257" lon="5.30051">
        <ele>238.39999389648</ele>
        <time>2020-10-24T13:14:51.000Z</time>
      </trkpt>
      <trkpt lat="46.37257" lon="5.30065">
        <ele>237.80000305176</ele>
        <time>2020-10-24T13:14:52.000Z</time>
      </trkpt>
      <trkpt lat="46.37258" lon="5.30093">
        <ele>236.60000610352</ele>
        <time>2020-10-24T13:14:54.000Z</time>
      </trkpt>
      <trkpt lat="46.37259" lon="5.30122">
        <ele>235.39999389648</ele>
        <time>2020-10-24T13:14:56.000Z</time>
      </trkpt>
      <trkpt lat="46.37258" lon="5.30137">
        <ele>234.80000305176</ele>
        <time>2020-10-24T13:14:57.000Z</time>
      </trkpt>
      <trkpt lat="46.37256" lon="5.30151">
        <ele>234.19999694824</ele>
        <time>2020-10-24T13:14:58.000Z</time>
      </trkpt>
      <trkpt lat="46.37245" lon="5.30176">
        <ele>233</ele>
        <time>2020-10-24T13:15:00.000Z</time>
      </trkpt>
      <trkpt lat="46.37227" lon="5.30193">
        <ele>232.19999694824</ele>
        <time>2020-10-24T13:15:02.000Z</time>
      </trkpt>
      <trkpt lat="46.37217" lon="5.30198">
        <ele>232</ele>
        <time>2020-10-24T13:15:03.000Z</time>
      </trkpt>
      <trkpt lat="46.37207" lon="5.30203">
        <ele>231</ele>
        <time>2020-10-24T13:15:04.000Z</time>
      </trkpt>
      <trkpt lat="46.37196" lon="5.30209">
        <ele>230.39999389648</ele>
        <time>2020-10-24T13:15:05.000Z</time>
      </trkpt>
      <trkpt lat="46.37186" lon="5.30214">
        <ele>229.80000305176</ele>
        <time>2020-10-24T13:15:06.000Z</time>
      </trkpt>
      <trkpt lat="46.37176" lon="5.3022">
        <ele>229.19999694824</ele>
        <time>2020-10-24T13:15:07.000Z</time>
      </trkpt>
      <trkpt lat="46.37166" lon="5.30227">
        <ele>228</ele>
        <time>2020-10-24T13:15:08.000Z</time>
      </trkpt>
      <trkpt lat="46.37148" lon="5.30245">
        <ele>226.19999694824</ele>
        <time>2020-10-24T13:15:10.000Z</time>
      </trkpt>
      <trkpt lat="46.37142" lon="5.30258">
        <ele>225.19999694824</ele>
        <time>2020-10-24T13:15:11.000Z</time>
      </trkpt>
      <trkpt lat="46.37137" lon="5.30273">
        <ele>224.19999694824</ele>
        <time>2020-10-24T13:15:12.000Z</time>
      </trkpt>
      <trkpt lat="46.37135" lon="5.30288">
        <ele>223.39999389648</ele>
        <time>2020-10-24T13:15:13.000Z</time>
      </trkpt>
      <trkpt lat="46.37133" lon="5.30304">
        <ele>222.80000305176</ele>
        <time>2020-10-24T13:15:14.000Z</time>
      </trkpt>
      <trkpt lat="46.37132" lon="5.3032">
        <ele>222.60000610352</ele>
        <time>2020-10-24T13:15:15.000Z</time>
      </trkpt>
      <trkpt lat="46.3713" lon="5.30335">
        <ele>222.19999694824</ele>
        <time>2020-10-24T13:15:16.000Z</time>
      </trkpt>
      <trkpt lat="46.37128" lon="5.30365">
        <ele>221.60000610352</ele>
        <time>2020-10-24T13:15:18.000Z</time>
      </trkpt>
      <trkpt lat="46.37126" lon="5.30395">
        <ele>221</ele>
        <time>2020-10-24T13:15:20.000Z</time>
      </trkpt>
      <trkpt lat="46.37124" lon="5.30423">
        <ele>220.80000305176</ele>
        <time>2020-10-24T13:15:22.000Z</time>
      </trkpt>
      <trkpt lat="46.37122" lon="5.30451">
        <ele>220.39999389648</ele>
        <time>2020-10-24T13:15:24.000Z</time>
      </trkpt>
      <trkpt lat="46.3712" lon="5.30479">
        <ele>220.39999389648</ele>
        <time>2020-10-24T13:15:26.000Z</time>
      </trkpt>
      <trkpt lat="46.37118" lon="5.30505">
        <ele>220.39999389648</ele>
        <time>2020-10-24T13:15:28.000Z</time>
      </trkpt>
      <trkpt lat="46.37116" lon="5.30531">
        <ele>220.39999389648</ele>
        <time>2020-10-24T13:15:30.000Z</time>
      </trkpt>
      <trkpt lat="46.37114" lon="5.30544">
        <ele>220.19999694824</ele>
        <time>2020-10-24T13:15:31.000Z</time>
      </trkpt>
      <trkpt lat="46.37114" lon="5.30557">
        <ele>220.19999694824</ele>
        <time>2020-10-24T13:15:32.000Z</time>
      </trkpt>
      <trkpt lat="46.37112" lon="5.30581">
        <ele>220.19999694824</ele>
        <time>2020-10-24T13:15:34.000Z</time>
      </trkpt>
      <trkpt lat="46.37113" lon="5.30605">
        <ele>220.19999694824</ele>
        <time>2020-10-24T13:15:36.000Z</time>
      </trkpt>
      <trkpt lat="46.37114" lon="5.30617">
        <ele>220.19999694824</ele>
        <time>2020-10-24T13:15:37.000Z</time>
      </trkpt>
      <trkpt lat="46.37116" lon="5.30629">
        <ele>220.19999694824</ele>
        <time>2020-10-24T13:15:38.000Z</time>
      </trkpt>
      <trkpt lat="46.3712" lon="5.30651">
        <ele>220.19999694824</ele>
        <time>2020-10-24T13:15:40.000Z</time>
      </trkpt>
      <trkpt lat="46.37126" lon="5.30672">
        <ele>220.19999694824</ele>
        <time>2020-10-24T13:15:42.000Z</time>
      </trkpt>
      <trkpt lat="46.37132" lon="5.30693">
        <ele>220.19999694824</ele>
        <time>2020-10-24T13:15:44.000Z</time>
      </trkpt>
      <trkpt lat="46.37137" lon="5.30714">
        <ele>220.19999694824</ele>
        <time>2020-10-24T13:15:46.000Z</time>
      </trkpt>
      <trkpt lat="46.37144" lon="5.30733">
        <ele>220.19999694824</ele>
        <time>2020-10-24T13:15:48.000Z</time>
      </trkpt>
      <trkpt lat="46.37147" lon="5.30743">
        <ele>220.39999389648</ele>
        <time>2020-10-24T13:15:49.000Z</time>
      </trkpt>
      <trkpt lat="46.37151" lon="5.30752">
        <ele>220.39999389648</ele>
        <time>2020-10-24T13:15:50.000Z</time>
      </trkpt>
      <trkpt lat="46.37158" lon="5.30771">
        <ele>220.60000610352</ele>
        <time>2020-10-24T13:15:52.000Z</time>
      </trkpt>
      <trkpt lat="46.37166" lon="5.30789">
        <ele>220.80000305176</ele>
        <time>2020-10-24T13:15:54.000Z</time>
      </trkpt>
      <trkpt lat="46.37174" lon="5.30807">
        <ele>221.19999694824</ele>
        <time>2020-10-24T13:15:56.000Z</time>
      </trkpt>
      <trkpt lat="46.37178" lon="5.30815">
        <ele>221.39999389648</ele>
        <time>2020-10-24T13:15:57.000Z</time>
      </trkpt>
      <trkpt lat="46.37183" lon="5.30824">
        <ele>221.60000610352</ele>
        <time>2020-10-24T13:15:58.000Z</time>
      </trkpt>
      <trkpt lat="46.37194" lon="5.30839">
        <ele>221.80000305176</ele>
        <time>2020-10-24T13:16:00.000Z</time>
      </trkpt>
      <trkpt lat="46.37204" lon="5.30855">
        <ele>222</ele>
        <time>2020-10-24T13:16:02.000Z</time>
      </trkpt>
      <trkpt lat="46.37215" lon="5.30871">
        <ele>222</ele>
        <time>2020-10-24T13:16:04.000Z</time>
      </trkpt>
      <trkpt lat="46.37226" lon="5.30886">
        <ele>222</ele>
        <time>2020-10-24T13:16:06.000Z</time>
      </trkpt>
      <trkpt lat="46.37236" lon="5.30902">
        <ele>222</ele>
        <time>2020-10-24T13:16:08.000Z</time>
      </trkpt>
      <trkpt lat="46.37247" lon="5.30917">
        <ele>222</ele>
        <time>2020-10-24T13:16:10.000Z</time>
      </trkpt>
      <trkpt lat="46.37258" lon="5.30932">
        <ele>222</ele>
        <time>2020-10-24T13:16:12.000Z</time>
      </trkpt>
      <trkpt lat="46.37269" lon="5.30947">
        <ele>222</ele>
        <time>2020-10-24T13:16:14.000Z</time>
      </trkpt>
      <trkpt lat="46.3728" lon="5.30963">
        <ele>222</ele>
        <time>2020-10-24T13:16:16.000Z</time>
      </trkpt>
      <trkpt lat="46.3729" lon="5.30978">
        <ele>222.19999694824</ele>
        <time>2020-10-24T13:16:18.000Z</time>
      </trkpt>
      <trkpt lat="46.37301" lon="5.30994">
        <ele>222.19999694824</ele>
        <time>2020-10-24T13:16:20.000Z</time>
      </trkpt>
      <trkpt lat="46.37312" lon="5.31009">
        <ele>222.19999694824</ele>
        <time>2020-10-24T13:16:22.000Z</time>
      </trkpt>
      <trkpt lat="46.37318" lon="5.31017">
        <ele>222.19999694824</ele>
        <time>2020-10-24T13:16:23.000Z</time>
      </trkpt>
      <trkpt lat="46.37323" lon="5.31025">
        <ele>222.19999694824</ele>
        <time>2020-10-24T13:16:24.000Z</time>
      </trkpt>
      <trkpt lat="46.37334" lon="5.31041">
        <ele>222.19999694824</ele>
        <time>2020-10-24T13:16:26.000Z</time>
      </trkpt>
      <trkpt lat="46.37345" lon="5.31057">
        <ele>222.39999389648</ele>
        <time>2020-10-24T13:16:28.000Z</time>
      </trkpt>
      <trkpt lat="46.37356" lon="5.31072">
        <ele>222.39999389648</ele>
        <time>2020-10-24T13:16:30.000Z</time>
      </trkpt>
      <trkpt lat="46.37366" lon="5.31088">
        <ele>222.39999389648</ele>
        <time>2020-10-24T13:16:32.000Z</time>
      </trkpt>
      <trkpt lat="46.37377" lon="5.31103">
        <ele>222.39999389648</ele>
        <time>2020-10-24T13:16:34.000Z</time>
      </trkpt>
      <trkpt lat="46.37387" lon="5.31118">
        <ele>222.39999389648</ele>
        <time>2020-10-24T13:16:36.000Z</time>
      </trkpt>
      <trkpt lat="46.37397" lon="5.31133">
        <ele>222.39999389648</ele>
        <time>2020-10-24T13:16:38.000Z</time>
      </trkpt>
      <trkpt lat="46.37407" lon="5.31147">
        <ele>222.60000610352</ele>
        <time>2020-10-24T13:16:40.000Z</time>
      </trkpt>
      <trkpt lat="46.37417" lon="5.31162">
        <ele>222.80000305176</ele>
        <time>2020-10-24T13:16:42.000Z</time>
      </trkpt>
      <trkpt lat="46.37427" lon="5.31177">
        <ele>223.39999389648</ele>
        <time>2020-10-24T13:16:44.000Z</time>
      </trkpt>
      <trkpt lat="46.37437" lon="5.31192">
        <ele>223.80000305176</ele>
        <time>2020-10-24T13:16:46.000Z</time>
      </trkpt>
      <trkpt lat="46.37448" lon="5.31206">
        <ele>224</ele>
        <time>2020-10-24T13:16:48.000Z</time>
      </trkpt>
      <trkpt lat="46.37458" lon="5.31222">
        <ele>224.19999694824</ele>
        <time>2020-10-24T13:16:50.000Z</time>
      </trkpt>
      <trkpt lat="46.37469" lon="5.31237">
        <ele>224.19999694824</ele>
        <time>2020-10-24T13:16:52.000Z</time>
      </trkpt>
      <trkpt lat="46.37474" lon="5.31245">
        <ele>224.19999694824</ele>
        <time>2020-10-24T13:16:53.000Z</time>
      </trkpt>
      <trkpt lat="46.3748" lon="5.31253">
        <ele>224.19999694824</ele>
        <time>2020-10-24T13:16:54.000Z</time>
      </trkpt>
      <trkpt lat="46.37491" lon="5.31269">
        <ele>224.19999694824</ele>
        <time>2020-10-24T13:16:56.000Z</time>
      </trkpt>
      <trkpt lat="46.37502" lon="5.31285">
        <ele>224.19999694824</ele>
        <time>2020-10-24T13:16:58.000Z</time>
      </trkpt>
      <trkpt lat="46.37513" lon="5.31301">
        <ele>224.19999694824</ele>
        <time>2020-10-24T13:17:00.000Z</time>
      </trkpt>
      <trkpt lat="46.37524" lon="5.31316">
        <ele>224.39999389648</ele>
        <time>2020-10-24T13:17:02.000Z</time>
      </trkpt>
      <trkpt lat="46.37534" lon="5.31332">
        <ele>224.19999694824</ele>
        <time>2020-10-24T13:17:04.000Z</time>
      </trkpt>
      <trkpt lat="46.37544" lon="5.31347">
        <ele>224.19999694824</ele>
        <time>2020-10-24T13:17:06.000Z</time>
      </trkpt>
      <trkpt lat="46.37554" lon="5.31363">
        <ele>224</ele>
        <time>2020-10-24T13:17:08.000Z</time>
      </trkpt>
      <trkpt lat="46.37559" lon="5.31371">
        <ele>223.80000305176</ele>
        <time>2020-10-24T13:17:09.000Z</time>
      </trkpt>
      <trkpt lat="46.37565" lon="5.31379">
        <ele>223.80000305176</ele>
        <time>2020-10-24T13:17:10.000Z</time>
      </trkpt>
      <trkpt lat="46.37575" lon="5.31395">
        <ele>223.80000305176</ele>
        <time>2020-10-24T13:17:12.000Z</time>
      </trkpt>
      <trkpt lat="46.37586" lon="5.3141">
        <ele>223.80000305176</ele>
        <time>2020-10-24T13:17:14.000Z</time>
      </trkpt>
      <trkpt lat="46.37598" lon="5.31425">
        <ele>223.80000305176</ele>
        <time>2020-10-24T13:17:16.000Z</time>
      </trkpt>
      <trkpt lat="46.37608" lon="5.31441">
        <ele>223.80000305176</ele>
        <time>2020-10-24T13:17:18.000Z</time>
      </trkpt>
      <trkpt lat="46.37619" lon="5.31457">
        <ele>223.80000305176</ele>
        <time>2020-10-24T13:17:20.000Z</time>
      </trkpt>
      <trkpt lat="46.37631" lon="5.31473">
        <ele>223.60000610352</ele>
        <time>2020-10-24T13:17:22.000Z</time>
      </trkpt>
      <trkpt lat="46.37642" lon="5.31488">
        <ele>223.60000610352</ele>
        <time>2020-10-24T13:17:24.000Z</time>
      </trkpt>
      <trkpt lat="46.37653" lon="5.31504">
        <ele>223.60000610352</ele>
        <time>2020-10-24T13:17:26.000Z</time>
      </trkpt>
      <trkpt lat="46.37658" lon="5.31511">
        <ele>223.60000610352</ele>
        <time>2020-10-24T13:17:27.000Z</time>
      </trkpt>
      <trkpt lat="46.37663" lon="5.31519">
        <ele>223.60000610352</ele>
        <time>2020-10-24T13:17:28.000Z</time>
      </trkpt>
      <trkpt lat="46.37674" lon="5.31534">
        <ele>223.60000610352</ele>
        <time>2020-10-24T13:17:30.000Z</time>
      </trkpt>
      <trkpt lat="46.37685" lon="5.31549">
        <ele>223.39999389648</ele>
        <time>2020-10-24T13:17:32.000Z</time>
      </trkpt>
      <trkpt lat="46.37695" lon="5.31564">
        <ele>223.60000610352</ele>
        <time>2020-10-24T13:17:34.000Z</time>
      </trkpt>
      <trkpt lat="46.37705" lon="5.31579">
        <ele>223.80000305176</ele>
        <time>2020-10-24T13:17:36.000Z</time>
      </trkpt>
      <trkpt lat="46.37715" lon="5.31593">
        <ele>223.80000305176</ele>
        <time>2020-10-24T13:17:38.000Z</time>
      </trkpt>
      <trkpt lat="46.37724" lon="5.31608">
        <ele>223.60000610352</ele>
        <time>2020-10-24T13:17:40.000Z</time>
      </trkpt>
      <trkpt lat="46.37734" lon="5.31622">
        <ele>224</ele>
        <time>2020-10-24T13:17:42.000Z</time>
      </trkpt>
      <trkpt lat="46.37739" lon="5.31629">
        <ele>224</ele>
        <time>2020-10-24T13:17:43.000Z</time>
      </trkpt>
      <trkpt lat="46.37744" lon="5.31637">
        <ele>224.19999694824</ele>
        <time>2020-10-24T13:17:44.000Z</time>
      </trkpt>
      <trkpt lat="46.37753" lon="5.31651">
        <ele>224.19999694824</ele>
        <time>2020-10-24T13:17:46.000Z</time>
      </trkpt>
      <trkpt lat="46.37763" lon="5.31666">
        <ele>224.19999694824</ele>
        <time>2020-10-24T13:17:48.000Z</time>
      </trkpt>
      <trkpt lat="46.37769" lon="5.31673">
        <ele>224.19999694824</ele>
        <time>2020-10-24T13:17:49.000Z</time>
      </trkpt>
      <trkpt lat="46.37773" lon="5.3168">
        <ele>224.39999389648</ele>
        <time>2020-10-24T13:17:50.000Z</time>
      </trkpt>
      <trkpt lat="46.37783" lon="5.31695">
        <ele>224.39999389648</ele>
        <time>2020-10-24T13:17:52.000Z</time>
      </trkpt>
      <trkpt lat="46.37787" lon="5.31702">
        <ele>224.60000610352</ele>
        <time>2020-10-24T13:17:53.000Z</time>
      </trkpt>
      <trkpt lat="46.37792" lon="5.3171">
        <ele>224.60000610352</ele>
        <time>2020-10-24T13:17:54.000Z</time>
      </trkpt>
      <trkpt lat="46.37802" lon="5.31724">
        <ele>224.60000610352</ele>
        <time>2020-10-24T13:17:56.000Z</time>
      </trkpt>
      <trkpt lat="46.37811" lon="5.31739">
        <ele>224.80000305176</ele>
        <time>2020-10-24T13:17:58.000Z</time>
      </trkpt>
      <trkpt lat="46.37821" lon="5.31753">
        <ele>224.60000610352</ele>
        <time>2020-10-24T13:18:00.000Z</time>
      </trkpt>
      <trkpt lat="46.37832" lon="5.31769">
        <ele>225</ele>
        <time>2020-10-24T13:18:02.000Z</time>
      </trkpt>
      <trkpt lat="46.37842" lon="5.31784">
        <ele>225.19999694824</ele>
        <time>2020-10-24T13:18:04.000Z</time>
      </trkpt>
      <trkpt lat="46.37852" lon="5.31799">
        <ele>225.19999694824</ele>
        <time>2020-10-24T13:18:06.000Z</time>
      </trkpt>
      <trkpt lat="46.37862" lon="5.31815">
        <ele>225.19999694824</ele>
        <time>2020-10-24T13:18:08.000Z</time>
      </trkpt>
      <trkpt lat="46.37872" lon="5.31829">
        <ele>225.39999389648</ele>
        <time>2020-10-24T13:18:10.000Z</time>
      </trkpt>
      <trkpt lat="46.37882" lon="5.31845">
        <ele>225.39999389648</ele>
        <time>2020-10-24T13:18:12.000Z</time>
      </trkpt>
      <trkpt lat="46.37892" lon="5.3186">
        <ele>225.60000610352</ele>
        <time>2020-10-24T13:18:14.000Z</time>
      </trkpt>
      <trkpt lat="46.37901" lon="5.31874">
        <ele>225.80000305176</ele>
        <time>2020-10-24T13:18:16.000Z</time>
      </trkpt>
      <trkpt lat="46.3791" lon="5.31889">
        <ele>226</ele>
        <time>2020-10-24T13:18:18.000Z</time>
      </trkpt>
      <trkpt lat="46.37918" lon="5.31905">
        <ele>226.19999694824</ele>
        <time>2020-10-24T13:18:20.000Z</time>
      </trkpt>
      <trkpt lat="46.37924" lon="5.31923">
        <ele>226.39999389648</ele>
        <time>2020-10-24T13:18:22.000Z</time>
      </trkpt>
      <trkpt lat="46.37927" lon="5.31933">
        <ele>226.60000610352</ele>
        <time>2020-10-24T13:18:23.000Z</time>
      </trkpt>
      <trkpt lat="46.3793" lon="5.31943">
        <ele>226.60000610352</ele>
        <time>2020-10-24T13:18:24.000Z</time>
      </trkpt>
      <trkpt lat="46.37935" lon="5.31963">
        <ele>226.60000610352</ele>
        <time>2020-10-24T13:18:26.000Z</time>
      </trkpt>
      <trkpt lat="46.37939" lon="5.31983">
        <ele>226.60000610352</ele>
        <time>2020-10-24T13:18:28.000Z</time>
      </trkpt>
      <trkpt lat="46.37945" lon="5.32003">
        <ele>226.60000610352</ele>
        <time>2020-10-24T13:18:30.000Z</time>
      </trkpt>
      <trkpt lat="46.37951" lon="5.32023">
        <ele>226.60000610352</ele>
        <time>2020-10-24T13:18:32.000Z</time>
      </trkpt>
      <trkpt lat="46.37959" lon="5.32041">
        <ele>226.39999389648</ele>
        <time>2020-10-24T13:18:34.000Z</time>
      </trkpt>
      <trkpt lat="46.37964" lon="5.32049">
        <ele>226.39999389648</ele>
        <time>2020-10-24T13:18:35.000Z</time>
      </trkpt>
      <trkpt lat="46.37969" lon="5.32057">
        <ele>226.19999694824</ele>
        <time>2020-10-24T13:18:36.000Z</time>
      </trkpt>
      <trkpt lat="46.37978" lon="5.32073">
        <ele>226.19999694824</ele>
        <time>2020-10-24T13:18:38.000Z</time>
      </trkpt>
      <trkpt lat="46.37982" lon="5.32081">
        <ele>226.19999694824</ele>
        <time>2020-10-24T13:18:39.000Z</time>
      </trkpt>
      <trkpt lat="46.37987" lon="5.32089">
        <ele>226.19999694824</ele>
        <time>2020-10-24T13:18:40.000Z</time>
      </trkpt>
      <trkpt lat="46.37997" lon="5.32103">
        <ele>226.19999694824</ele>
        <time>2020-10-24T13:18:42.000Z</time>
      </trkpt>
      <trkpt lat="46.38005" lon="5.32118">
        <ele>226.19999694824</ele>
        <time>2020-10-24T13:18:44.000Z</time>
      </trkpt>
      <trkpt lat="46.38008" lon="5.32126">
        <ele>226.19999694824</ele>
        <time>2020-10-24T13:18:45.000Z</time>
      </trkpt>
      <trkpt lat="46.38012" lon="5.32134">
        <ele>226.19999694824</ele>
        <time>2020-10-24T13:18:46.000Z</time>
      </trkpt>
      <trkpt lat="46.38018" lon="5.32149">
        <ele>226.39999389648</ele>
        <time>2020-10-24T13:18:48.000Z</time>
      </trkpt>
      <trkpt lat="46.38022" lon="5.32166">
        <ele>226.80000305176</ele>
        <time>2020-10-24T13:18:50.000Z</time>
      </trkpt>
      <trkpt lat="46.38026" lon="5.32183">
        <ele>227</ele>
        <time>2020-10-24T13:18:52.000Z</time>
      </trkpt>
      <trkpt lat="46.38028" lon="5.32192">
        <ele>227.39999389648</ele>
        <time>2020-10-24T13:18:53.000Z</time>
      </trkpt>
      <trkpt lat="46.3803" lon="5.32201">
        <ele>227.60000610352</ele>
        <time>2020-10-24T13:18:54.000Z</time>
      </trkpt>
      <trkpt lat="46.38033" lon="5.32209">
        <ele>228</ele>
        <time>2020-10-24T13:18:55.000Z</time>
      </trkpt>
      <trkpt lat="46.38035" lon="5.32217">
        <ele>228.19999694824</ele>
        <time>2020-10-24T13:18:56.000Z</time>
      </trkpt>
      <trkpt lat="46.3804" lon="5.32233">
        <ele>228.60000610352</ele>
        <time>2020-10-24T13:18:58.000Z</time>
      </trkpt>
      <trkpt lat="46.38044" lon="5.32249">
        <ele>228.80000305176</ele>
        <time>2020-10-24T13:19:00.000Z</time>
      </trkpt>
      <trkpt lat="46.38047" lon="5.32255">
        <ele>228.80000305176</ele>
        <time>2020-10-24T13:19:01.000Z</time>
      </trkpt>
      <trkpt lat="46.3805" lon="5.3226">
        <ele>228.80000305176</ele>
        <time>2020-10-24T13:19:02.000Z</time>
      </trkpt>
      <trkpt lat="46.38061" lon="5.32268">
        <ele>228.80000305176</ele>
        <time>2020-10-24T13:19:04.000Z</time>
      </trkpt>
      <trkpt lat="46.38066" lon="5.32272">
        <ele>228.80000305176</ele>
        <time>2020-10-24T13:19:05.000Z</time>
      </trkpt>
      <trkpt lat="46.38072" lon="5.32277">
        <ele>228.80000305176</ele>
        <time>2020-10-24T13:19:06.000Z</time>
      </trkpt>
      <trkpt lat="46.38082" lon="5.32292">
        <ele>228.80000305176</ele>
        <time>2020-10-24T13:19:08.000Z</time>
      </trkpt>
      <trkpt lat="46.38086" lon="5.323">
        <ele>228.80000305176</ele>
        <time>2020-10-24T13:19:09.000Z</time>
      </trkpt>
      <trkpt lat="46.3809" lon="5.32308">
        <ele>228.80000305176</ele>
        <time>2020-10-24T13:19:10.000Z</time>
      </trkpt>
      <trkpt lat="46.38098" lon="5.32325">
        <ele>228.80000305176</ele>
        <time>2020-10-24T13:19:12.000Z</time>
      </trkpt>
      <trkpt lat="46.38106" lon="5.32342">
        <ele>227.60000610352</ele>
        <time>2020-10-24T13:19:14.000Z</time>
      </trkpt>
      <trkpt lat="46.38111" lon="5.32349">
        <ele>227.39999389648</ele>
        <time>2020-10-24T13:19:15.000Z</time>
      </trkpt>
      <trkpt lat="46.38116" lon="5.32356">
        <ele>227.19999694824</ele>
        <time>2020-10-24T13:19:16.000Z</time>
      </trkpt>
      <trkpt lat="46.38127" lon="5.3237">
        <ele>227.19999694824</ele>
        <time>2020-10-24T13:19:18.000Z</time>
      </trkpt>
      <trkpt lat="46.38139" lon="5.32381">
        <ele>227.19999694824</ele>
        <time>2020-10-24T13:19:20.000Z</time>
      </trkpt>
      <trkpt lat="46.38151" lon="5.32392">
        <ele>227.19999694824</ele>
        <time>2020-10-24T13:19:22.000Z</time>
      </trkpt>
      <trkpt lat="46.38163" lon="5.32403">
        <ele>227.60000610352</ele>
        <time>2020-10-24T13:19:24.000Z</time>
      </trkpt>
      <trkpt lat="46.38176" lon="5.32415">
        <ele>227.60000610352</ele>
        <time>2020-10-24T13:19:26.000Z</time>
      </trkpt>
      <trkpt lat="46.38182" lon="5.32422">
        <ele>227.60000610352</ele>
        <time>2020-10-24T13:19:27.000Z</time>
      </trkpt>
      <trkpt lat="46.38189" lon="5.32428">
        <ele>227.60000610352</ele>
        <time>2020-10-24T13:19:28.000Z</time>
      </trkpt>
      <trkpt lat="46.38201" lon="5.3244">
        <ele>227.60000610352</ele>
        <time>2020-10-24T13:19:30.000Z</time>
      </trkpt>
      <trkpt lat="46.38214" lon="5.32452">
        <ele>227.60000610352</ele>
        <time>2020-10-24T13:19:32.000Z</time>
      </trkpt>
      <trkpt lat="46.38227" lon="5.32463">
        <ele>227.60000610352</ele>
        <time>2020-10-24T13:19:34.000Z</time>
      </trkpt>
      <trkpt lat="46.38234" lon="5.32467">
        <ele>227.60000610352</ele>
        <time>2020-10-24T13:19:35.000Z</time>
      </trkpt>
      <trkpt lat="46.38241" lon="5.3247">
        <ele>227.80000305176</ele>
        <time>2020-10-24T13:19:36.000Z</time>
      </trkpt>
      <trkpt lat="46.38255" lon="5.32473">
        <ele>227.60000610352</ele>
        <time>2020-10-24T13:19:38.000Z</time>
      </trkpt>
      <trkpt lat="46.38263" lon="5.32473">
        <ele>227.60000610352</ele>
        <time>2020-10-24T13:19:39.000Z</time>
      </trkpt>
      <trkpt lat="46.38271" lon="5.32474">
        <ele>227.80000305176</ele>
        <time>2020-10-24T13:19:40.000Z</time>
      </trkpt>
      <trkpt lat="46.38286" lon="5.32477">
        <ele>227.80000305176</ele>
        <time>2020-10-24T13:19:42.000Z</time>
      </trkpt>
      <trkpt lat="46.38293" lon="5.32479">
        <ele>227.80000305176</ele>
        <time>2020-10-24T13:19:43.000Z</time>
      </trkpt>
      <trkpt lat="46.38301" lon="5.32481">
        <ele>227.80000305176</ele>
        <time>2020-10-24T13:19:44.000Z</time>
      </trkpt>
      <trkpt lat="46.38316" lon="5.32487">
        <ele>227.80000305176</ele>
        <time>2020-10-24T13:19:46.000Z</time>
      </trkpt>
      <trkpt lat="46.38331" lon="5.32493">
        <ele>228</ele>
        <time>2020-10-24T13:19:48.000Z</time>
      </trkpt>
      <trkpt lat="46.38346" lon="5.32498">
        <ele>228</ele>
        <time>2020-10-24T13:19:50.000Z</time>
      </trkpt>
      <trkpt lat="46.38353" lon="5.32501">
        <ele>228</ele>
        <time>2020-10-24T13:19:51.000Z</time>
      </trkpt>
      <trkpt lat="46.38361" lon="5.32503">
        <ele>228</ele>
        <time>2020-10-24T13:19:52.000Z</time>
      </trkpt>
      <trkpt lat="46.38377" lon="5.32505">
        <ele>228</ele>
        <time>2020-10-24T13:19:54.000Z</time>
      </trkpt>
      <trkpt lat="46.38384" lon="5.32504">
        <ele>228</ele>
        <time>2020-10-24T13:19:55.000Z</time>
      </trkpt>
      <trkpt lat="46.38392" lon="5.32501">
        <ele>228</ele>
        <time>2020-10-24T13:19:56.000Z</time>
      </trkpt>
      <trkpt lat="46.38403" lon="5.32488">
        <ele>228</ele>
        <time>2020-10-24T13:19:58.000Z</time>
      </trkpt>
      <trkpt lat="46.38409" lon="5.32468">
        <ele>228</ele>
        <time>2020-10-24T13:20:00.000Z</time>
      </trkpt>
      <trkpt lat="46.38411" lon="5.32458">
        <ele>228.19999694824</ele>
        <time>2020-10-24T13:20:01.000Z</time>
      </trkpt>
      <trkpt lat="46.38413" lon="5.32448">
        <ele>228.19999694824</ele>
        <time>2020-10-24T13:20:02.000Z</time>
      </trkpt>
      <trkpt lat="46.38417" lon="5.32429">
        <ele>228.19999694824</ele>
        <time>2020-10-24T13:20:04.000Z</time>
      </trkpt>
      <trkpt lat="46.38422" lon="5.32411">
        <ele>228</ele>
        <time>2020-10-24T13:20:06.000Z</time>
      </trkpt>
      <trkpt lat="46.38426" lon="5.32404">
        <ele>228.19999694824</ele>
        <time>2020-10-24T13:20:07.000Z</time>
      </trkpt>
      <trkpt lat="46.38431" lon="5.32397">
        <ele>228.39999389648</ele>
        <time>2020-10-24T13:20:08.000Z</time>
      </trkpt>
      <trkpt lat="46.38436" lon="5.32389">
        <ele>228.60000610352</ele>
        <time>2020-10-24T13:20:09.000Z</time>
      </trkpt>
      <trkpt lat="46.38442" lon="5.32382">
        <ele>228.80000305176</ele>
        <time>2020-10-24T13:20:10.000Z</time>
      </trkpt>
      <trkpt lat="46.38455" lon="5.32373">
        <ele>229</ele>
        <time>2020-10-24T13:20:12.000Z</time>
      </trkpt>
      <trkpt lat="46.38469" lon="5.32372">
        <ele>229</ele>
        <time>2020-10-24T13:20:14.000Z</time>
      </trkpt>
      <trkpt lat="46.38476" lon="5.32374">
        <ele>229</ele>
        <time>2020-10-24T13:20:15.000Z</time>
      </trkpt>
      <trkpt lat="46.38482" lon="5.32377">
        <ele>229</ele>
        <time>2020-10-24T13:20:16.000Z</time>
      </trkpt>
      <trkpt lat="46.38496" lon="5.32385">
        <ele>229</ele>
        <time>2020-10-24T13:20:18.000Z</time>
      </trkpt>
      <trkpt lat="46.38508" lon="5.32397">
        <ele>228.80000305176</ele>
        <time>2020-10-24T13:20:20.000Z</time>
      </trkpt>
      <trkpt lat="46.38519" lon="5.3241">
        <ele>228.60000610352</ele>
        <time>2020-10-24T13:20:22.000Z</time>
      </trkpt>
      <trkpt lat="46.3853" lon="5.32423">
        <ele>228.39999389648</ele>
        <time>2020-10-24T13:20:24.000Z</time>
      </trkpt>
      <trkpt lat="46.38543" lon="5.32433">
        <ele>228.39999389648</ele>
        <time>2020-10-24T13:20:26.000Z</time>
      </trkpt>
      <trkpt lat="46.38555" lon="5.32443">
        <ele>228.39999389648</ele>
        <time>2020-10-24T13:20:28.000Z</time>
      </trkpt>
      <trkpt lat="46.38567" lon="5.32453">
        <ele>228.39999389648</ele>
        <time>2020-10-24T13:20:30.000Z</time>
      </trkpt>
      <trkpt lat="46.38579" lon="5.32465">
        <ele>228.39999389648</ele>
        <time>2020-10-24T13:20:32.000Z</time>
      </trkpt>
      <trkpt lat="46.38584" lon="5.32471">
        <ele>228.60000610352</ele>
        <time>2020-10-24T13:20:33.000Z</time>
      </trkpt>
      <trkpt lat="46.38589" lon="5.32477">
        <ele>228.60000610352</ele>
        <time>2020-10-24T13:20:34.000Z</time>
      </trkpt>
      <trkpt lat="46.386" lon="5.32488">
        <ele>228.80000305176</ele>
        <time>2020-10-24T13:20:36.000Z</time>
      </trkpt>
      <trkpt lat="46.38612" lon="5.32498">
        <ele>228.80000305176</ele>
        <time>2020-10-24T13:20:38.000Z</time>
      </trkpt>
      <trkpt lat="46.38619" lon="5.32502">
        <ele>229</ele>
        <time>2020-10-24T13:20:39.000Z</time>
      </trkpt>
      <trkpt lat="46.38625" lon="5.32506">
        <ele>229.19999694824</ele>
        <time>2020-10-24T13:20:40.000Z</time>
      </trkpt>
      <trkpt lat="46.38637" lon="5.32516">
        <ele>229.39999389648</ele>
        <time>2020-10-24T13:20:42.000Z</time>
      </trkpt>
      <trkpt lat="46.38649" lon="5.32525">
        <ele>229.80000305176</ele>
        <time>2020-10-24T13:20:44.000Z</time>
      </trkpt>
      <trkpt lat="46.38655" lon="5.3253">
        <ele>229.80000305176</ele>
        <time>2020-10-24T13:20:45.000Z</time>
      </trkpt>
      <trkpt lat="46.38661" lon="5.32536">
        <ele>229.80000305176</ele>
        <time>2020-10-24T13:20:46.000Z</time>
      </trkpt>
      <trkpt lat="46.38671" lon="5.32546">
        <ele>229.80000305176</ele>
        <time>2020-10-24T13:20:48.000Z</time>
      </trkpt>
      <trkpt lat="46.38682" lon="5.32557">
        <ele>229.80000305176</ele>
        <time>2020-10-24T13:20:50.000Z</time>
      </trkpt>
      <trkpt lat="46.38687" lon="5.32563">
        <ele>230</ele>
        <time>2020-10-24T13:20:51.000Z</time>
      </trkpt>
      <trkpt lat="46.38693" lon="5.32569">
        <ele>230</ele>
        <time>2020-10-24T13:20:52.000Z</time>
      </trkpt>
      <trkpt lat="46.38703" lon="5.3258">
        <ele>230.39999389648</ele>
        <time>2020-10-24T13:20:54.000Z</time>
      </trkpt>
      <trkpt lat="46.38715" lon="5.3259">
        <ele>230.60000610352</ele>
        <time>2020-10-24T13:20:56.000Z</time>
      </trkpt>
      <trkpt lat="46.38721" lon="5.32594">
        <ele>230.80000305176</ele>
        <time>2020-10-24T13:20:57.000Z</time>
      </trkpt>
      <trkpt lat="46.38727" lon="5.32599">
        <ele>230.80000305176</ele>
        <time>2020-10-24T13:20:58.000Z</time>
      </trkpt>
      <trkpt lat="46.38738" lon="5.32609">
        <ele>230.80000305176</ele>
        <time>2020-10-24T13:21:00.000Z</time>
      </trkpt>
      <trkpt lat="46.3875" lon="5.32618">
        <ele>230.80000305176</ele>
        <time>2020-10-24T13:21:02.000Z</time>
      </trkpt>
      <trkpt lat="46.38762" lon="5.32627">
        <ele>230.80000305176</ele>
        <time>2020-10-24T13:21:04.000Z</time>
      </trkpt>
      <trkpt lat="46.38773" lon="5.32634">
        <ele>230.80000305176</ele>
        <time>2020-10-24T13:21:06.000Z</time>
      </trkpt>
      <trkpt lat="46.38778" lon="5.32638">
        <ele>230.80000305176</ele>
        <time>2020-10-24T13:21:07.000Z</time>
      </trkpt>
      <trkpt lat="46.38783" lon="5.32643">
        <ele>231</ele>
        <time>2020-10-24T13:21:08.000Z</time>
      </trkpt>
      <trkpt lat="46.38788" lon="5.32657">
        <ele>231</ele>
        <time>2020-10-24T13:21:10.000Z</time>
      </trkpt>
      <trkpt lat="46.3879" lon="5.32677">
        <ele>231</ele>
        <time>2020-10-24T13:21:12.000Z</time>
      </trkpt>
      <trkpt lat="46.3879" lon="5.32688">
        <ele>231</ele>
        <time>2020-10-24T13:21:13.000Z</time>
      </trkpt>
      <trkpt lat="46.3879" lon="5.32699">
        <ele>231</ele>
        <time>2020-10-24T13:21:14.000Z</time>
      </trkpt>
      <trkpt lat="46.38789" lon="5.3272">
        <ele>230.80000305176</ele>
        <time>2020-10-24T13:21:16.000Z</time>
      </trkpt>
      <trkpt lat="46.38786" lon="5.32741">
        <ele>230.80000305176</ele>
        <time>2020-10-24T13:21:18.000Z</time>
      </trkpt>
      <trkpt lat="46.38781" lon="5.32761">
        <ele>230.39999389648</ele>
        <time>2020-10-24T13:21:20.000Z</time>
      </trkpt>
      <trkpt lat="46.38775" lon="5.32779">
        <ele>230</ele>
        <time>2020-10-24T13:21:22.000Z</time>
      </trkpt>
      <trkpt lat="46.38769" lon="5.32797">
        <ele>230</ele>
        <time>2020-10-24T13:21:24.000Z</time>
      </trkpt>
      <trkpt lat="46.38764" lon="5.32815">
        <ele>230</ele>
        <time>2020-10-24T13:21:26.000Z</time>
      </trkpt>
      <trkpt lat="46.38761" lon="5.32834">
        <ele>230</ele>
        <time>2020-10-24T13:21:28.000Z</time>
      </trkpt>
      <trkpt lat="46.3876" lon="5.32853">
        <ele>230</ele>
        <time>2020-10-24T13:21:30.000Z</time>
      </trkpt>
      <trkpt lat="46.3876" lon="5.3287">
        <ele>230.19999694824</ele>
        <time>2020-10-24T13:21:32.000Z</time>
      </trkpt>
      <trkpt lat="46.38764" lon="5.32888">
        <ele>230.60000610352</ele>
        <time>2020-10-24T13:21:34.000Z</time>
      </trkpt>
      <trkpt lat="46.38772" lon="5.32902">
        <ele>230.80000305176</ele>
        <time>2020-10-24T13:21:36.000Z</time>
      </trkpt>
      <trkpt lat="46.38776" lon="5.32908">
        <ele>230.80000305176</ele>
        <time>2020-10-24T13:21:37.000Z</time>
      </trkpt>
      <trkpt lat="46.38782" lon="5.32911">
        <ele>231</ele>
        <time>2020-10-24T13:21:38.000Z</time>
      </trkpt>
      <trkpt lat="46.38794" lon="5.32916">
        <ele>231</ele>
        <time>2020-10-24T13:21:40.000Z</time>
      </trkpt>
      <trkpt lat="46.38801" lon="5.32918">
        <ele>231.19999694824</ele>
        <time>2020-10-24T13:21:41.000Z</time>
      </trkpt>
      <trkpt lat="46.38807" lon="5.3292">
        <ele>231.19999694824</ele>
        <time>2020-10-24T13:21:42.000Z</time>
      </trkpt>
      <trkpt lat="46.38821" lon="5.32926">
        <ele>231.60000610352</ele>
        <time>2020-10-24T13:21:44.000Z</time>
      </trkpt>
      <trkpt lat="46.38835" lon="5.32932">
        <ele>231.60000610352</ele>
        <time>2020-10-24T13:21:46.000Z</time>
      </trkpt>
      <trkpt lat="46.38849" lon="5.32938">
        <ele>231.60000610352</ele>
        <time>2020-10-24T13:21:48.000Z</time>
      </trkpt>
      <trkpt lat="46.38864" lon="5.32944">
        <ele>231.80000305176</ele>
        <time>2020-10-24T13:21:50.000Z</time>
      </trkpt>
      <trkpt lat="46.38877" lon="5.3295">
        <ele>231.80000305176</ele>
        <time>2020-10-24T13:21:52.000Z</time>
      </trkpt>
      <trkpt lat="46.38891" lon="5.32955">
        <ele>231.80000305176</ele>
        <time>2020-10-24T13:21:54.000Z</time>
      </trkpt>
      <trkpt lat="46.38898" lon="5.32958">
        <ele>231.80000305176</ele>
        <time>2020-10-24T13:21:55.000Z</time>
      </trkpt>
      <trkpt lat="46.38904" lon="5.32961">
        <ele>231.80000305176</ele>
        <time>2020-10-24T13:21:56.000Z</time>
      </trkpt>
      <trkpt lat="46.38917" lon="5.32966">
        <ele>231.80000305176</ele>
        <time>2020-10-24T13:21:58.000Z</time>
      </trkpt>
      <trkpt lat="46.3893" lon="5.3297">
        <ele>231.80000305176</ele>
        <time>2020-10-24T13:22:00.000Z</time>
      </trkpt>
      <trkpt lat="46.38943" lon="5.32975">
        <ele>231.80000305176</ele>
        <time>2020-10-24T13:22:02.000Z</time>
      </trkpt>
      <trkpt lat="46.38955" lon="5.32979">
        <ele>231.80000305176</ele>
        <time>2020-10-24T13:22:04.000Z</time>
      </trkpt>
      <trkpt lat="46.38961" lon="5.32981">
        <ele>232</ele>
        <time>2020-10-24T13:22:05.000Z</time>
      </trkpt>
      <trkpt lat="46.38967" lon="5.32983">
        <ele>232.19999694824</ele>
        <time>2020-10-24T13:22:06.000Z</time>
      </trkpt>
      <trkpt lat="46.3898" lon="5.32987">
        <ele>232.39999389648</ele>
        <time>2020-10-24T13:22:08.000Z</time>
      </trkpt>
      <trkpt lat="46.38992" lon="5.32992">
        <ele>232.60000610352</ele>
        <time>2020-10-24T13:22:10.000Z</time>
      </trkpt>
      <trkpt lat="46.39005" lon="5.32996">
        <ele>233</ele>
        <time>2020-10-24T13:22:12.000Z</time>
      </trkpt>
      <trkpt lat="46.39011" lon="5.32999">
        <ele>233.19999694824</ele>
        <time>2020-10-24T13:22:13.000Z</time>
      </trkpt>
      <trkpt lat="46.39017" lon="5.33001">
        <ele>233.19999694824</ele>
        <time>2020-10-24T13:22:14.000Z</time>
      </trkpt>
      <trkpt lat="46.3903" lon="5.33005">
        <ele>233.39999389648</ele>
        <time>2020-10-24T13:22:16.000Z</time>
      </trkpt>
      <trkpt lat="46.39042" lon="5.3301">
        <ele>233.80000305176</ele>
        <time>2020-10-24T13:22:18.000Z</time>
      </trkpt>
      <trkpt lat="46.39055" lon="5.33015">
        <ele>234</ele>
        <time>2020-10-24T13:22:20.000Z</time>
      </trkpt>
      <trkpt lat="46.39068" lon="5.3302">
        <ele>234</ele>
        <time>2020-10-24T13:22:22.000Z</time>
      </trkpt>
      <trkpt lat="46.39082" lon="5.33024">
        <ele>234</ele>
        <time>2020-10-24T13:22:24.000Z</time>
      </trkpt>
      <trkpt lat="46.39088" lon="5.33025">
        <ele>234</ele>
        <time>2020-10-24T13:22:25.000Z</time>
      </trkpt>
      <trkpt lat="46.39095" lon="5.33025">
        <ele>234</ele>
        <time>2020-10-24T13:22:26.000Z</time>
      </trkpt>
      <trkpt lat="46.39101" lon="5.33024">
        <ele>234</ele>
        <time>2020-10-24T13:22:27.000Z</time>
      </trkpt>
      <trkpt lat="46.39108" lon="5.33022">
        <ele>234</ele>
        <time>2020-10-24T13:22:28.000Z</time>
      </trkpt>
      <trkpt lat="46.39121" lon="5.33019">
        <ele>234</ele>
        <time>2020-10-24T13:22:30.000Z</time>
      </trkpt>
      <trkpt lat="46.39135" lon="5.33015">
        <ele>233.60000610352</ele>
        <time>2020-10-24T13:22:32.000Z</time>
      </trkpt>
      <trkpt lat="46.39142" lon="5.33013">
        <ele>233.60000610352</ele>
        <time>2020-10-24T13:22:33.000Z</time>
      </trkpt>
      <trkpt lat="46.39149" lon="5.33011">
        <ele>233.60000610352</ele>
        <time>2020-10-24T13:22:34.000Z</time>
      </trkpt>
      <trkpt lat="46.39163" lon="5.33007">
        <ele>233.60000610352</ele>
        <time>2020-10-24T13:22:36.000Z</time>
      </trkpt>
      <trkpt lat="46.39177" lon="5.33002">
        <ele>233.60000610352</ele>
        <time>2020-10-24T13:22:38.000Z</time>
      </trkpt>
      <trkpt lat="46.39191" lon="5.32997">
        <ele>233.60000610352</ele>
        <time>2020-10-24T13:22:40.000Z</time>
      </trkpt>
      <trkpt lat="46.39199" lon="5.32994">
        <ele>233.60000610352</ele>
        <time>2020-10-24T13:22:41.000Z</time>
      </trkpt>
      <trkpt lat="46.39206" lon="5.32991">
        <ele>233.60000610352</ele>
        <time>2020-10-24T13:22:42.000Z</time>
      </trkpt>
      <trkpt lat="46.3922" lon="5.32986">
        <ele>233.60000610352</ele>
        <time>2020-10-24T13:22:44.000Z</time>
      </trkpt>
      <trkpt lat="46.39234" lon="5.3298">
        <ele>233.60000610352</ele>
        <time>2020-10-24T13:22:46.000Z</time>
      </trkpt>
      <trkpt lat="46.39247" lon="5.32975">
        <ele>233.80000305176</ele>
        <time>2020-10-24T13:22:48.000Z</time>
      </trkpt>
      <trkpt lat="46.39261" lon="5.32969">
        <ele>233.80000305176</ele>
        <time>2020-10-24T13:22:50.000Z</time>
      </trkpt>
      <trkpt lat="46.39267" lon="5.32966">
        <ele>233.80000305176</ele>
        <time>2020-10-24T13:22:51.000Z</time>
      </trkpt>
      <trkpt lat="46.39274" lon="5.32963">
        <ele>233.80000305176</ele>
        <time>2020-10-24T13:22:52.000Z</time>
      </trkpt>
      <trkpt lat="46.39286" lon="5.32957">
        <ele>234</ele>
        <time>2020-10-24T13:22:54.000Z</time>
      </trkpt>
      <trkpt lat="46.39298" lon="5.32951">
        <ele>234.19999694824</ele>
        <time>2020-10-24T13:22:56.000Z</time>
      </trkpt>
      <trkpt lat="46.3931" lon="5.32946">
        <ele>234.39999389648</ele>
        <time>2020-10-24T13:22:58.000Z</time>
      </trkpt>
      <trkpt lat="46.39316" lon="5.32943">
        <ele>234.39999389648</ele>
        <time>2020-10-24T13:22:59.000Z</time>
      </trkpt>
      <trkpt lat="46.39322" lon="5.3294">
        <ele>234.60000610352</ele>
        <time>2020-10-24T13:23:00.000Z</time>
      </trkpt>
      <trkpt lat="46.39333" lon="5.32934">
        <ele>235.19999694824</ele>
        <time>2020-10-24T13:23:02.000Z</time>
      </trkpt>
      <trkpt lat="46.39343" lon="5.32929">
        <ele>235.60000610352</ele>
        <time>2020-10-24T13:23:04.000Z</time>
      </trkpt>
      <trkpt lat="46.39347" lon="5.32925">
        <ele>235.60000610352</ele>
        <time>2020-10-24T13:23:05.000Z</time>
      </trkpt>
      <trkpt lat="46.3935" lon="5.3292">
        <ele>235.80000305176</ele>
        <time>2020-10-24T13:23:06.000Z</time>
      </trkpt>
      <trkpt lat="46.39354" lon="5.32908">
        <ele>236.19999694824</ele>
        <time>2020-10-24T13:23:08.000Z</time>
      </trkpt>
      <trkpt lat="46.39356" lon="5.32902">
        <ele>236.19999694824</ele>
        <time>2020-10-24T13:23:09.000Z</time>
      </trkpt>
      <trkpt lat="46.39358" lon="5.32896">
        <ele>236.60000610352</ele>
        <time>2020-10-24T13:23:10.000Z</time>
      </trkpt>
      <trkpt lat="46.39363" lon="5.32886">
        <ele>237</ele>
        <time>2020-10-24T13:23:12.000Z</time>
      </trkpt>
      <trkpt lat="46.39366" lon="5.32884">
        <ele>237.19999694824</ele>
        <time>2020-10-24T13:23:13.000Z</time>
      </trkpt>
      <trkpt lat="46.3937" lon="5.32885">
        <ele>237.19999694824</ele>
        <time>2020-10-24T13:23:14.000Z</time>
      </trkpt>
      <trkpt lat="46.39374" lon="5.32888">
        <ele>237.60000610352</ele>
        <time>2020-10-24T13:23:15.000Z</time>
      </trkpt>
      <trkpt lat="46.39379" lon="5.32892">
        <ele>237.80000305176</ele>
        <time>2020-10-24T13:23:16.000Z</time>
      </trkpt>
      <trkpt lat="46.39388" lon="5.32899">
        <ele>238.19999694824</ele>
        <time>2020-10-24T13:23:18.000Z</time>
      </trkpt>
      <trkpt lat="46.39394" lon="5.32902">
        <ele>238.60000610352</ele>
        <time>2020-10-24T13:23:19.000Z</time>
      </trkpt>
      <trkpt lat="46.394" lon="5.32905">
        <ele>239</ele>
        <time>2020-10-24T13:23:20.000Z</time>
      </trkpt>
      <trkpt lat="46.39405" lon="5.32906">
        <ele>239.19999694824</ele>
        <time>2020-10-24T13:23:21.000Z</time>
      </trkpt>
      <trkpt lat="46.39411" lon="5.32907">
        <ele>239.39999389648</ele>
        <time>2020-10-24T13:23:22.000Z</time>
      </trkpt>
      <trkpt lat="46.39423" lon="5.32907">
        <ele>239.60000610352</ele>
        <time>2020-10-24T13:23:24.000Z</time>
      </trkpt>
      <trkpt lat="46.39429" lon="5.32906">
        <ele>239.60000610352</ele>
        <time>2020-10-24T13:23:25.000Z</time>
      </trkpt>
      <trkpt lat="46.39434" lon="5.32905">
        <ele>239.60000610352</ele>
        <time>2020-10-24T13:23:26.000Z</time>
      </trkpt>
      <trkpt lat="46.39439" lon="5.32903">
        <ele>239.60000610352</ele>
        <time>2020-10-24T13:23:27.000Z</time>
      </trkpt>
      <trkpt lat="46.39444" lon="5.32901">
        <ele>239.80000305176</ele>
        <time>2020-10-24T13:23:28.000Z</time>
      </trkpt>
      <trkpt lat="46.39454" lon="5.32898">
        <ele>240.19999694824</ele>
        <time>2020-10-24T13:23:30.000Z</time>
      </trkpt>
      <trkpt lat="46.39459" lon="5.32896">
        <ele>240.80000305176</ele>
        <time>2020-10-24T13:23:31.000Z</time>
      </trkpt>
      <trkpt lat="46.39464" lon="5.32895">
        <ele>241.19999694824</ele>
        <time>2020-10-24T13:23:32.000Z</time>
      </trkpt>
      <trkpt lat="46.39474" lon="5.32891">
        <ele>241.80000305176</ele>
        <time>2020-10-24T13:23:34.000Z</time>
      </trkpt>
      <trkpt lat="46.39484" lon="5.32888">
        <ele>242.39999389648</ele>
        <time>2020-10-24T13:23:36.000Z</time>
      </trkpt>
      <trkpt lat="46.39493" lon="5.32884">
        <ele>243</ele>
        <time>2020-10-24T13:23:38.000Z</time>
      </trkpt>
      <trkpt lat="46.39502" lon="5.32881">
        <ele>243.39999389648</ele>
        <time>2020-10-24T13:23:40.000Z</time>
      </trkpt>
      <trkpt lat="46.39507" lon="5.32879">
        <ele>243.60000610352</ele>
        <time>2020-10-24T13:23:41.000Z</time>
      </trkpt>
      <trkpt lat="46.39511" lon="5.32877">
        <ele>243.80000305176</ele>
        <time>2020-10-24T13:23:42.000Z</time>
      </trkpt>
      <trkpt lat="46.3952" lon="5.32873">
        <ele>244.19999694824</ele>
        <time>2020-10-24T13:23:44.000Z</time>
      </trkpt>
      <trkpt lat="46.3953" lon="5.32869">
        <ele>244.80000305176</ele>
        <time>2020-10-24T13:23:46.000Z</time>
      </trkpt>
      <trkpt lat="46.39539" lon="5.32866">
        <ele>245.39999389648</ele>
        <time>2020-10-24T13:23:48.000Z</time>
      </trkpt>
      <trkpt lat="46.39545" lon="5.32864">
        <ele>245.60000610352</ele>
        <time>2020-10-24T13:23:49.000Z</time>
      </trkpt>
      <trkpt lat="46.3955" lon="5.32862">
        <ele>245.80000305176</ele>
        <time>2020-10-24T13:23:50.000Z</time>
      </trkpt>
      <trkpt lat="46.3956" lon="5.32856">
        <ele>246.39999389648</ele>
        <time>2020-10-24T13:23:52.000Z</time>
      </trkpt>
      <trkpt lat="46.39565" lon="5.32853">
        <ele>246.60000610352</ele>
        <time>2020-10-24T13:23:53.000Z</time>
      </trkpt>
      <trkpt lat="46.39571" lon="5.32849">
        <ele>246.80000305176</ele>
        <time>2020-10-24T13:23:54.000Z</time>
      </trkpt>
      <trkpt lat="46.39582" lon="5.32843">
        <ele>246.80000305176</ele>
        <time>2020-10-24T13:23:56.000Z</time>
      </trkpt>
      <trkpt lat="46.39594" lon="5.32837">
        <ele>246.80000305176</ele>
        <time>2020-10-24T13:23:58.000Z</time>
      </trkpt>
      <trkpt lat="46.39607" lon="5.32832">
        <ele>246.80000305176</ele>
        <time>2020-10-24T13:24:00.000Z</time>
      </trkpt>
      <trkpt lat="46.39619" lon="5.32828">
        <ele>246.80000305176</ele>
        <time>2020-10-24T13:24:02.000Z</time>
      </trkpt>
      <trkpt lat="46.39625" lon="5.32827">
        <ele>246.80000305176</ele>
        <time>2020-10-24T13:24:03.000Z</time>
      </trkpt>
      <trkpt lat="46.39631" lon="5.32825">
        <ele>246.80000305176</ele>
        <time>2020-10-24T13:24:04.000Z</time>
      </trkpt>
      <trkpt lat="46.39642" lon="5.32822">
        <ele>246.80000305176</ele>
        <time>2020-10-24T13:24:06.000Z</time>
      </trkpt>
      <trkpt lat="46.39653" lon="5.3282">
        <ele>246.80000305176</ele>
        <time>2020-10-24T13:24:08.000Z</time>
      </trkpt>
      <trkpt lat="46.39664" lon="5.32816">
        <ele>246.80000305176</ele>
        <time>2020-10-24T13:24:10.000Z</time>
      </trkpt>
      <trkpt lat="46.39669" lon="5.32814">
        <ele>246.80000305176</ele>
        <time>2020-10-24T13:24:11.000Z</time>
      </trkpt>
      <trkpt lat="46.39674" lon="5.32812">
        <ele>247</ele>
        <time>2020-10-24T13:24:12.000Z</time>
      </trkpt>
      <trkpt lat="46.39684" lon="5.32806">
        <ele>247.19999694824</ele>
        <time>2020-10-24T13:24:14.000Z</time>
      </trkpt>
      <trkpt lat="46.39689" lon="5.32804">
        <ele>247.60000610352</ele>
        <time>2020-10-24T13:24:15.000Z</time>
      </trkpt>
      <trkpt lat="46.39694" lon="5.32801">
        <ele>248</ele>
        <time>2020-10-24T13:24:16.000Z</time>
      </trkpt>
      <trkpt lat="46.39704" lon="5.32795">
        <ele>248.80000305176</ele>
        <time>2020-10-24T13:24:18.000Z</time>
      </trkpt>
      <trkpt lat="46.39715" lon="5.32789">
        <ele>249.19999694824</ele>
        <time>2020-10-24T13:24:20.000Z</time>
      </trkpt>
      <trkpt lat="46.39725" lon="5.32784">
        <ele>250</ele>
        <time>2020-10-24T13:24:22.000Z</time>
      </trkpt>
      <trkpt lat="46.39735" lon="5.32778">
        <ele>250.60000610352</ele>
        <time>2020-10-24T13:24:24.000Z</time>
      </trkpt>
      <trkpt lat="46.39746" lon="5.32772">
        <ele>251.19999694824</ele>
        <time>2020-10-24T13:24:26.000Z</time>
      </trkpt>
      <trkpt lat="46.39756" lon="5.32766">
        <ele>251.80000305176</ele>
        <time>2020-10-24T13:24:28.000Z</time>
      </trkpt>
      <trkpt lat="46.39766" lon="5.32761">
        <ele>252.19999694824</ele>
        <time>2020-10-24T13:24:30.000Z</time>
      </trkpt>
      <trkpt lat="46.39777" lon="5.32755">
        <ele>252.80000305176</ele>
        <time>2020-10-24T13:24:32.000Z</time>
      </trkpt>
      <trkpt lat="46.39787" lon="5.3275">
        <ele>253.19999694824</ele>
        <time>2020-10-24T13:24:34.000Z</time>
      </trkpt>
      <trkpt lat="46.39792" lon="5.32747">
        <ele>253.39999389648</ele>
        <time>2020-10-24T13:24:35.000Z</time>
      </trkpt>
      <trkpt lat="46.39798" lon="5.32745">
        <ele>253.60000610352</ele>
        <time>2020-10-24T13:24:36.000Z</time>
      </trkpt>
      <trkpt lat="46.39808" lon="5.3274">
        <ele>254.19999694824</ele>
        <time>2020-10-24T13:24:38.000Z</time>
      </trkpt>
      <trkpt lat="46.39814" lon="5.32737">
        <ele>254.39999389648</ele>
        <time>2020-10-24T13:24:39.000Z</time>
      </trkpt>
      <trkpt lat="46.39819" lon="5.32735">
        <ele>255</ele>
        <time>2020-10-24T13:24:40.000Z</time>
      </trkpt>
      <trkpt lat="46.3983" lon="5.3273">
        <ele>255.39999389648</ele>
        <time>2020-10-24T13:24:42.000Z</time>
      </trkpt>
      <trkpt lat="46.39841" lon="5.32725">
        <ele>255.60000610352</ele>
        <time>2020-10-24T13:24:44.000Z</time>
      </trkpt>
      <trkpt lat="46.39846" lon="5.32722">
        <ele>255.80000305176</ele>
        <time>2020-10-24T13:24:45.000Z</time>
      </trkpt>
      <trkpt lat="46.39851" lon="5.3272">
        <ele>256</ele>
        <time>2020-10-24T13:24:46.000Z</time>
      </trkpt>
      <trkpt lat="46.39862" lon="5.32715">
        <ele>256.60000610352</ele>
        <time>2020-10-24T13:24:48.000Z</time>
      </trkpt>
      <trkpt lat="46.39867" lon="5.32713">
        <ele>256.79998779297</ele>
        <time>2020-10-24T13:24:49.000Z</time>
      </trkpt>
      <trkpt lat="46.39873" lon="5.3271">
        <ele>257.20001220703</ele>
        <time>2020-10-24T13:24:50.000Z</time>
      </trkpt>
      <trkpt lat="46.39884" lon="5.32706">
        <ele>257.60000610352</ele>
        <time>2020-10-24T13:24:52.000Z</time>
      </trkpt>
      <trkpt lat="46.39894" lon="5.32701">
        <ele>258</ele>
        <time>2020-10-24T13:24:54.000Z</time>
      </trkpt>
      <trkpt lat="46.39899" lon="5.32699">
        <ele>258</ele>
        <time>2020-10-24T13:24:55.000Z</time>
      </trkpt>
      <trkpt lat="46.39905" lon="5.32696">
        <ele>258.20001220703</ele>
        <time>2020-10-24T13:24:56.000Z</time>
      </trkpt>
      <trkpt lat="46.39915" lon="5.32691">
        <ele>258.39999389648</ele>
        <time>2020-10-24T13:24:58.000Z</time>
      </trkpt>
      <trkpt lat="46.39926" lon="5.32686">
        <ele>258.79998779297</ele>
        <time>2020-10-24T13:25:00.000Z</time>
      </trkpt>
      <trkpt lat="46.39936" lon="5.32681">
        <ele>259.20001220703</ele>
        <time>2020-10-24T13:25:02.000Z</time>
      </trkpt>
      <trkpt lat="46.39947" lon="5.32676">
        <ele>259.60000610352</ele>
        <time>2020-10-24T13:25:04.000Z</time>
      </trkpt>
      <trkpt lat="46.39959" lon="5.32671">
        <ele>260.20001220703</ele>
        <time>2020-10-24T13:25:06.000Z</time>
      </trkpt>
      <trkpt lat="46.3997" lon="5.32666">
        <ele>260.39999389648</ele>
        <time>2020-10-24T13:25:08.000Z</time>
      </trkpt>
      <trkpt lat="46.39981" lon="5.32661">
        <ele>260.60000610352</ele>
        <time>2020-10-24T13:25:10.000Z</time>
      </trkpt>
      <trkpt lat="46.39993" lon="5.32655">
        <ele>260.79998779297</ele>
        <time>2020-10-24T13:25:12.000Z</time>
      </trkpt>
      <trkpt lat="46.40004" lon="5.3265">
        <ele>261.20001220703</ele>
        <time>2020-10-24T13:25:14.000Z</time>
      </trkpt>
      <trkpt lat="46.4001" lon="5.32647">
        <ele>261.20001220703</ele>
        <time>2020-10-24T13:25:15.000Z</time>
      </trkpt>
      <trkpt lat="46.40015" lon="5.32644">
        <ele>261.39999389648</ele>
        <time>2020-10-24T13:25:16.000Z</time>
      </trkpt>
      <trkpt lat="46.40026" lon="5.32638">
        <ele>262</ele>
        <time>2020-10-24T13:25:18.000Z</time>
      </trkpt>
      <trkpt lat="46.40038" lon="5.32632">
        <ele>262.39999389648</ele>
        <time>2020-10-24T13:25:20.000Z</time>
      </trkpt>
      <trkpt lat="46.40043" lon="5.32629">
        <ele>262.39999389648</ele>
        <time>2020-10-24T13:25:21.000Z</time>
      </trkpt>
      <trkpt lat="46.40049" lon="5.32626">
        <ele>262.60000610352</ele>
        <time>2020-10-24T13:25:22.000Z</time>
      </trkpt>
      <trkpt lat="46.40055" lon="5.32625">
        <ele>262.60000610352</ele>
        <time>2020-10-24T13:25:23.000Z</time>
      </trkpt>
      <trkpt lat="46.40061" lon="5.32625">
        <ele>262.60000610352</ele>
        <time>2020-10-24T13:25:24.000Z</time>
      </trkpt>
      <trkpt lat="46.40071" lon="5.32635">
        <ele>262.60000610352</ele>
        <time>2020-10-24T13:25:26.000Z</time>
      </trkpt>
      <trkpt lat="46.40074" lon="5.32643">
        <ele>262.60000610352</ele>
        <time>2020-10-24T13:25:27.000Z</time>
      </trkpt>
      <trkpt lat="46.40076" lon="5.32651">
        <ele>262.60000610352</ele>
        <time>2020-10-24T13:25:28.000Z</time>
      </trkpt>
      <trkpt lat="46.40078" lon="5.3266">
        <ele>262.60000610352</ele>
        <time>2020-10-24T13:25:29.000Z</time>
      </trkpt>
      <trkpt lat="46.40079" lon="5.32669">
        <ele>262.60000610352</ele>
        <time>2020-10-24T13:25:30.000Z</time>
      </trkpt>
      <trkpt lat="46.40082" lon="5.32685">
        <ele>262.60000610352</ele>
        <time>2020-10-24T13:25:32.000Z</time>
      </trkpt>
      <trkpt lat="46.40086" lon="5.327">
        <ele>262.39999389648</ele>
        <time>2020-10-24T13:25:34.000Z</time>
      </trkpt>
      <trkpt lat="46.40089" lon="5.3271">
        <ele>262.20001220703</ele>
        <time>2020-10-24T13:25:36.000Z</time>
      </trkpt>
      <trkpt lat="46.40089" lon="5.32712">
        <ele>262.20001220703</ele>
        <time>2020-10-24T13:25:38.000Z</time>
      </trkpt>
      <trkpt lat="46.4009" lon="5.32714">
        <ele>263.39999389648</ele>
        <time>2020-10-24T13:26:11.000Z</time>
      </trkpt>
      <trkpt lat="46.40091" lon="5.32716">
        <ele>263.39999389648</ele>
        <time>2020-10-24T13:26:12.000Z</time>
      </trkpt>
      <trkpt lat="46.40093" lon="5.3272">
        <ele>263.60000610352</ele>
        <time>2020-10-24T13:26:14.000Z</time>
      </trkpt>
      <trkpt lat="46.40096" lon="5.32728">
        <ele>263.60000610352</ele>
        <time>2020-10-24T13:26:16.000Z</time>
      </trkpt>
      <trkpt lat="46.401" lon="5.32739">
        <ele>263.39999389648</ele>
        <time>2020-10-24T13:26:18.000Z</time>
      </trkpt>
      <trkpt lat="46.40105" lon="5.32751">
        <ele>263.60000610352</ele>
        <time>2020-10-24T13:26:20.000Z</time>
      </trkpt>
      <trkpt lat="46.40107" lon="5.32757">
        <ele>263.39999389648</ele>
        <time>2020-10-24T13:26:21.000Z</time>
      </trkpt>
      <trkpt lat="46.4011" lon="5.32763">
        <ele>263.39999389648</ele>
        <time>2020-10-24T13:26:22.000Z</time>
      </trkpt>
      <trkpt lat="46.40116" lon="5.32776">
        <ele>263.39999389648</ele>
        <time>2020-10-24T13:26:24.000Z</time>
      </trkpt>
      <trkpt lat="46.40121" lon="5.32789">
        <ele>263.20001220703</ele>
        <time>2020-10-24T13:26:26.000Z</time>
      </trkpt>
      <trkpt lat="46.40127" lon="5.32801">
        <ele>263</ele>
        <time>2020-10-24T13:26:28.000Z</time>
      </trkpt>
      <trkpt lat="46.40129" lon="5.32808">
        <ele>263</ele>
        <time>2020-10-24T13:26:29.000Z</time>
      </trkpt>
      <trkpt lat="46.40132" lon="5.32815">
        <ele>263</ele>
        <time>2020-10-24T13:26:30.000Z</time>
      </trkpt>
      <trkpt lat="46.40138" lon="5.32829">
        <ele>263</ele>
        <time>2020-10-24T13:26:32.000Z</time>
      </trkpt>
      <trkpt lat="46.40144" lon="5.32843">
        <ele>263</ele>
        <time>2020-10-24T13:26:34.000Z</time>
      </trkpt>
      <trkpt lat="46.4015" lon="5.32857">
        <ele>263</ele>
        <time>2020-10-24T13:26:36.000Z</time>
      </trkpt>
      <trkpt lat="46.40157" lon="5.32871">
        <ele>263</ele>
        <time>2020-10-24T13:26:38.000Z</time>
      </trkpt>
      <trkpt lat="46.40163" lon="5.32886">
        <ele>263.20001220703</ele>
        <time>2020-10-24T13:26:40.000Z</time>
      </trkpt>
      <trkpt lat="46.4017" lon="5.329">
        <ele>263.20001220703</ele>
        <time>2020-10-24T13:26:42.000Z</time>
      </trkpt>
      <trkpt lat="46.40177" lon="5.32915">
        <ele>263.20001220703</ele>
        <time>2020-10-24T13:26:44.000Z</time>
      </trkpt>
      <trkpt lat="46.40185" lon="5.32931">
        <ele>263.20001220703</ele>
        <time>2020-10-24T13:26:46.000Z</time>
      </trkpt>
      <trkpt lat="46.40193" lon="5.32946">
        <ele>263.20001220703</ele>
        <time>2020-10-24T13:26:48.000Z</time>
      </trkpt>
      <trkpt lat="46.40202" lon="5.32961">
        <ele>263.39999389648</ele>
        <time>2020-10-24T13:26:50.000Z</time>
      </trkpt>
      <trkpt lat="46.40211" lon="5.32976">
        <ele>263.39999389648</ele>
        <time>2020-10-24T13:26:52.000Z</time>
      </trkpt>
      <trkpt lat="46.40216" lon="5.32984">
        <ele>263.39999389648</ele>
        <time>2020-10-24T13:26:53.000Z</time>
      </trkpt>
      <trkpt lat="46.40221" lon="5.32991">
        <ele>263.39999389648</ele>
        <time>2020-10-24T13:26:54.000Z</time>
      </trkpt>
      <trkpt lat="46.40231" lon="5.33006">
        <ele>263.39999389648</ele>
        <time>2020-10-24T13:26:56.000Z</time>
      </trkpt>
      <trkpt lat="46.4024" lon="5.3302">
        <ele>263.60000610352</ele>
        <time>2020-10-24T13:26:58.000Z</time>
      </trkpt>
      <trkpt lat="46.4025" lon="5.33033">
        <ele>263.60000610352</ele>
        <time>2020-10-24T13:27:00.000Z</time>
      </trkpt>
      <trkpt lat="46.40255" lon="5.3304">
        <ele>263.60000610352</ele>
        <time>2020-10-24T13:27:01.000Z</time>
      </trkpt>
      <trkpt lat="46.40259" lon="5.33047">
        <ele>263.60000610352</ele>
        <time>2020-10-24T13:27:02.000Z</time>
      </trkpt>
      <trkpt lat="46.40269" lon="5.33061">
        <ele>263.79998779297</ele>
        <time>2020-10-24T13:27:04.000Z</time>
      </trkpt>
      <trkpt lat="46.40279" lon="5.33074">
        <ele>264</ele>
        <time>2020-10-24T13:27:06.000Z</time>
      </trkpt>
      <trkpt lat="46.40288" lon="5.33088">
        <ele>264.20001220703</ele>
        <time>2020-10-24T13:27:08.000Z</time>
      </trkpt>
      <trkpt lat="46.40298" lon="5.33102">
        <ele>264.20001220703</ele>
        <time>2020-10-24T13:27:10.000Z</time>
      </trkpt>
      <trkpt lat="46.40308" lon="5.33117">
        <ele>264.20001220703</ele>
        <time>2020-10-24T13:27:12.000Z</time>
      </trkpt>
      <trkpt lat="46.40318" lon="5.33131">
        <ele>264.20001220703</ele>
        <time>2020-10-24T13:27:14.000Z</time>
      </trkpt>
      <trkpt lat="46.40328" lon="5.33146">
        <ele>264.20001220703</ele>
        <time>2020-10-24T13:27:16.000Z</time>
      </trkpt>
      <trkpt lat="46.40339" lon="5.33162">
        <ele>264</ele>
        <time>2020-10-24T13:27:18.000Z</time>
      </trkpt>
      <trkpt lat="46.40351" lon="5.33177">
        <ele>264</ele>
        <time>2020-10-24T13:27:20.000Z</time>
      </trkpt>
      <trkpt lat="46.40362" lon="5.33193">
        <ele>263.60000610352</ele>
        <time>2020-10-24T13:27:22.000Z</time>
      </trkpt>
      <trkpt lat="46.40374" lon="5.33208">
        <ele>263.39999389648</ele>
        <time>2020-10-24T13:27:24.000Z</time>
      </trkpt>
      <trkpt lat="46.40386" lon="5.33224">
        <ele>263</ele>
        <time>2020-10-24T13:27:26.000Z</time>
      </trkpt>
      <trkpt lat="46.40398" lon="5.3324">
        <ele>262.79998779297</ele>
        <time>2020-10-24T13:27:28.000Z</time>
      </trkpt>
      <trkpt lat="46.40405" lon="5.33247">
        <ele>262.39999389648</ele>
        <time>2020-10-24T13:27:29.000Z</time>
      </trkpt>
      <trkpt lat="46.40412" lon="5.33254">
        <ele>262.20001220703</ele>
        <time>2020-10-24T13:27:30.000Z</time>
      </trkpt>
      <trkpt lat="46.40426" lon="5.33268">
        <ele>261.79998779297</ele>
        <time>2020-10-24T13:27:32.000Z</time>
      </trkpt>
      <trkpt lat="46.40433" lon="5.33275">
        <ele>261.39999389648</ele>
        <time>2020-10-24T13:27:33.000Z</time>
      </trkpt>
      <trkpt lat="46.4044" lon="5.33281">
        <ele>261.20001220703</ele>
        <time>2020-10-24T13:27:34.000Z</time>
      </trkpt>
      <trkpt lat="46.40455" lon="5.3329">
        <ele>260.79998779297</ele>
        <time>2020-10-24T13:27:36.000Z</time>
      </trkpt>
      <trkpt lat="46.40471" lon="5.33296">
        <ele>260.60000610352</ele>
        <time>2020-10-24T13:27:38.000Z</time>
      </trkpt>
      <trkpt lat="46.40486" lon="5.33303">
        <ele>260.60000610352</ele>
        <time>2020-10-24T13:27:40.000Z</time>
      </trkpt>
      <trkpt lat="46.405" lon="5.33312">
        <ele>260.60000610352</ele>
        <time>2020-10-24T13:27:42.000Z</time>
      </trkpt>
      <trkpt lat="46.40505" lon="5.33319">
        <ele>260.60000610352</ele>
        <time>2020-10-24T13:27:43.000Z</time>
      </trkpt>
      <trkpt lat="46.4051" lon="5.33326">
        <ele>260.60000610352</ele>
        <time>2020-10-24T13:27:44.000Z</time>
      </trkpt>
      <trkpt lat="46.4052" lon="5.33339">
        <ele>260.60000610352</ele>
        <time>2020-10-24T13:27:46.000Z</time>
      </trkpt>
      <trkpt lat="46.40526" lon="5.33344">
        <ele>260.60000610352</ele>
        <time>2020-10-24T13:27:47.000Z</time>
      </trkpt>
      <trkpt lat="46.40532" lon="5.33347">
        <ele>260.79998779297</ele>
        <time>2020-10-24T13:27:48.000Z</time>
      </trkpt>
      <trkpt lat="46.40544" lon="5.33354">
        <ele>261.20001220703</ele>
        <time>2020-10-24T13:27:50.000Z</time>
      </trkpt>
      <trkpt lat="46.40556" lon="5.33361">
        <ele>261.39999389648</ele>
        <time>2020-10-24T13:27:52.000Z</time>
      </trkpt>
      <trkpt lat="46.40567" lon="5.33368">
        <ele>261.60000610352</ele>
        <time>2020-10-24T13:27:54.000Z</time>
      </trkpt>
      <trkpt lat="46.40573" lon="5.33371">
        <ele>261.60000610352</ele>
        <time>2020-10-24T13:27:55.000Z</time>
      </trkpt>
      <trkpt lat="46.40578" lon="5.33375">
        <ele>262</ele>
        <time>2020-10-24T13:27:56.000Z</time>
      </trkpt>
      <trkpt lat="46.40589" lon="5.33381">
        <ele>262.60000610352</ele>
        <time>2020-10-24T13:27:58.000Z</time>
      </trkpt>
      <trkpt lat="46.406" lon="5.33387">
        <ele>263.39999389648</ele>
        <time>2020-10-24T13:28:00.000Z</time>
      </trkpt>
      <trkpt lat="46.40606" lon="5.3339">
        <ele>263.60000610352</ele>
        <time>2020-10-24T13:28:01.000Z</time>
      </trkpt>
      <trkpt lat="46.40611" lon="5.33394">
        <ele>264</ele>
        <time>2020-10-24T13:28:02.000Z</time>
      </trkpt>
      <trkpt lat="46.40617" lon="5.33397">
        <ele>264.39999389648</ele>
        <time>2020-10-24T13:28:03.000Z</time>
      </trkpt>
      <trkpt lat="46.40622" lon="5.33401">
        <ele>264.79998779297</ele>
        <time>2020-10-24T13:28:04.000Z</time>
      </trkpt>
      <trkpt lat="46.40632" lon="5.33407">
        <ele>265.79998779297</ele>
        <time>2020-10-24T13:28:06.000Z</time>
      </trkpt>
      <trkpt lat="46.40637" lon="5.33411">
        <ele>266</ele>
        <time>2020-10-24T13:28:07.000Z</time>
      </trkpt>
      <trkpt lat="46.40642" lon="5.33414">
        <ele>266.39999389648</ele>
        <time>2020-10-24T13:28:08.000Z</time>
      </trkpt>
      <trkpt lat="46.40652" lon="5.3342">
        <ele>266.79998779297</ele>
        <time>2020-10-24T13:28:10.000Z</time>
      </trkpt>
      <trkpt lat="46.40657" lon="5.33423">
        <ele>266.79998779297</ele>
        <time>2020-10-24T13:28:11.000Z</time>
      </trkpt>
      <trkpt lat="46.40661" lon="5.33426">
        <ele>267.20001220703</ele>
        <time>2020-10-24T13:28:12.000Z</time>
      </trkpt>
      <trkpt lat="46.40671" lon="5.33432">
        <ele>267.79998779297</ele>
        <time>2020-10-24T13:28:14.000Z</time>
      </trkpt>
      <trkpt lat="46.40676" lon="5.33436">
        <ele>268.20001220703</ele>
        <time>2020-10-24T13:28:15.000Z</time>
      </trkpt>
      <trkpt lat="46.40682" lon="5.33439">
        <ele>268.60000610352</ele>
        <time>2020-10-24T13:28:16.000Z</time>
      </trkpt>
      <trkpt lat="46.40692" lon="5.33445">
        <ele>269</ele>
        <time>2020-10-24T13:28:18.000Z</time>
      </trkpt>
      <trkpt lat="46.40702" lon="5.33451">
        <ele>269.60000610352</ele>
        <time>2020-10-24T13:28:20.000Z</time>
      </trkpt>
      <trkpt lat="46.40713" lon="5.33458">
        <ele>270</ele>
        <time>2020-10-24T13:28:22.000Z</time>
      </trkpt>
      <trkpt lat="46.40723" lon="5.33464">
        <ele>270.39999389648</ele>
        <time>2020-10-24T13:28:24.000Z</time>
      </trkpt>
      <trkpt lat="46.40729" lon="5.33467">
        <ele>270.60000610352</ele>
        <time>2020-10-24T13:28:25.000Z</time>
      </trkpt>
      <trkpt lat="46.40734" lon="5.3347">
        <ele>271</ele>
        <time>2020-10-24T13:28:26.000Z</time>
      </trkpt>
      <trkpt lat="46.40739" lon="5.33473">
        <ele>271.20001220703</ele>
        <time>2020-10-24T13:28:27.000Z</time>
      </trkpt>
      <trkpt lat="46.40744" lon="5.33476">
        <ele>271.39999389648</ele>
        <time>2020-10-24T13:28:28.000Z</time>
      </trkpt>
      <trkpt lat="46.40754" lon="5.33482">
        <ele>271.79998779297</ele>
        <time>2020-10-24T13:28:30.000Z</time>
      </trkpt>
      <trkpt lat="46.40765" lon="5.33487">
        <ele>272</ele>
        <time>2020-10-24T13:28:32.000Z</time>
      </trkpt>
      <trkpt lat="46.40775" lon="5.33492">
        <ele>272.60000610352</ele>
        <time>2020-10-24T13:28:34.000Z</time>
      </trkpt>
      <trkpt lat="46.4078" lon="5.33494">
        <ele>273</ele>
        <time>2020-10-24T13:28:35.000Z</time>
      </trkpt>
      <trkpt lat="46.40785" lon="5.33495">
        <ele>273.20001220703</ele>
        <time>2020-10-24T13:28:36.000Z</time>
      </trkpt>
      <trkpt lat="46.40795" lon="5.33499">
        <ele>273.39999389648</ele>
        <time>2020-10-24T13:28:38.000Z</time>
      </trkpt>
      <trkpt lat="46.40806" lon="5.33502">
        <ele>273.79998779297</ele>
        <time>2020-10-24T13:28:40.000Z</time>
      </trkpt>
      <trkpt lat="46.40816" lon="5.33505">
        <ele>274</ele>
        <time>2020-10-24T13:28:42.000Z</time>
      </trkpt>
      <trkpt lat="46.40826" lon="5.33508">
        <ele>274.39999389648</ele>
        <time>2020-10-24T13:28:44.000Z</time>
      </trkpt>
      <trkpt lat="46.40831" lon="5.33509">
        <ele>274.79998779297</ele>
        <time>2020-10-24T13:28:45.000Z</time>
      </trkpt>
      <trkpt lat="46.40837" lon="5.3351">
        <ele>274.79998779297</ele>
        <time>2020-10-24T13:28:46.000Z</time>
      </trkpt>
      <trkpt lat="46.40842" lon="5.33512">
        <ele>275</ele>
        <time>2020-10-24T13:28:47.000Z</time>
      </trkpt>
      <trkpt lat="46.40847" lon="5.33513">
        <ele>275.39999389648</ele>
        <time>2020-10-24T13:28:48.000Z</time>
      </trkpt>
      <trkpt lat="46.40858" lon="5.33516">
        <ele>275.79998779297</ele>
        <time>2020-10-24T13:28:50.000Z</time>
      </trkpt>
      <trkpt lat="46.40869" lon="5.33519">
        <ele>276.20001220703</ele>
        <time>2020-10-24T13:28:52.000Z</time>
      </trkpt>
      <trkpt lat="46.40875" lon="5.33521">
        <ele>276.39999389648</ele>
        <time>2020-10-24T13:28:53.000Z</time>
      </trkpt>
      <trkpt lat="46.4088" lon="5.33522">
        <ele>276.60000610352</ele>
        <time>2020-10-24T13:28:54.000Z</time>
      </trkpt>
      <trkpt lat="46.4089" lon="5.33524">
        <ele>277</ele>
        <time>2020-10-24T13:28:56.000Z</time>
      </trkpt>
      <trkpt lat="46.40901" lon="5.33527">
        <ele>277.39999389648</ele>
        <time>2020-10-24T13:28:58.000Z</time>
      </trkpt>
      <trkpt lat="46.40912" lon="5.3353">
        <ele>277.79998779297</ele>
        <time>2020-10-24T13:29:00.000Z</time>
      </trkpt>
      <trkpt lat="46.40922" lon="5.33533">
        <ele>278.39999389648</ele>
        <time>2020-10-24T13:29:02.000Z</time>
      </trkpt>
      <trkpt lat="46.40933" lon="5.33536">
        <ele>278.79998779297</ele>
        <time>2020-10-24T13:29:04.000Z</time>
      </trkpt>
      <trkpt lat="46.40939" lon="5.33537">
        <ele>278.79998779297</ele>
        <time>2020-10-24T13:29:05.000Z</time>
      </trkpt>
      <trkpt lat="46.40945" lon="5.33539">
        <ele>279</ele>
        <time>2020-10-24T13:29:06.000Z</time>
      </trkpt>
      <trkpt lat="46.40958" lon="5.33543">
        <ele>279</ele>
        <time>2020-10-24T13:29:08.000Z</time>
      </trkpt>
      <trkpt lat="46.40971" lon="5.33546">
        <ele>279</ele>
        <time>2020-10-24T13:29:10.000Z</time>
      </trkpt>
      <trkpt lat="46.40986" lon="5.3355">
        <ele>279</ele>
        <time>2020-10-24T13:29:12.000Z</time>
      </trkpt>
      <trkpt lat="46.41001" lon="5.33554">
        <ele>279</ele>
        <time>2020-10-24T13:29:14.000Z</time>
      </trkpt>
      <trkpt lat="46.41016" lon="5.33558">
        <ele>279</ele>
        <time>2020-10-24T13:29:16.000Z</time>
      </trkpt>
      <trkpt lat="46.41033" lon="5.33563">
        <ele>278.79998779297</ele>
        <time>2020-10-24T13:29:18.000Z</time>
      </trkpt>
      <trkpt lat="46.41041" lon="5.33565">
        <ele>278.39999389648</ele>
        <time>2020-10-24T13:29:19.000Z</time>
      </trkpt>
      <trkpt lat="46.4105" lon="5.33567">
        <ele>278.20001220703</ele>
        <time>2020-10-24T13:29:20.000Z</time>
      </trkpt>
      <trkpt lat="46.41067" lon="5.33574">
        <ele>277.39999389648</ele>
        <time>2020-10-24T13:29:22.000Z</time>
      </trkpt>
      <trkpt lat="46.41076" lon="5.33578">
        <ele>277.20001220703</ele>
        <time>2020-10-24T13:29:23.000Z</time>
      </trkpt>
      <trkpt lat="46.41084" lon="5.33582">
        <ele>276.79998779297</ele>
        <time>2020-10-24T13:29:24.000Z</time>
      </trkpt>
      <trkpt lat="46.41093" lon="5.33587">
        <ele>276.39999389648</ele>
        <time>2020-10-24T13:29:25.000Z</time>
      </trkpt>
      <trkpt lat="46.41102" lon="5.33592">
        <ele>276</ele>
        <time>2020-10-24T13:29:26.000Z</time>
      </trkpt>
      <trkpt lat="46.4112" lon="5.33604">
        <ele>275.20001220703</ele>
        <time>2020-10-24T13:29:28.000Z</time>
      </trkpt>
      <trkpt lat="46.41128" lon="5.3361">
        <ele>274.39999389648</ele>
        <time>2020-10-24T13:29:29.000Z</time>
      </trkpt>
      <trkpt lat="46.41137" lon="5.33616">
        <ele>274.20001220703</ele>
        <time>2020-10-24T13:29:30.000Z</time>
      </trkpt>
      <trkpt lat="46.41153" lon="5.3363">
        <ele>273.60000610352</ele>
        <time>2020-10-24T13:29:32.000Z</time>
      </trkpt>
      <trkpt lat="46.41161" lon="5.33637">
        <ele>273.39999389648</ele>
        <time>2020-10-24T13:29:33.000Z</time>
      </trkpt>
      <trkpt lat="46.41169" lon="5.33644">
        <ele>273</ele>
        <time>2020-10-24T13:29:34.000Z</time>
      </trkpt>
      <trkpt lat="46.41184" lon="5.33658">
        <ele>272.39999389648</ele>
        <time>2020-10-24T13:29:36.000Z</time>
      </trkpt>
      <trkpt lat="46.41191" lon="5.33665">
        <ele>272.39999389648</ele>
        <time>2020-10-24T13:29:37.000Z</time>
      </trkpt>
      <trkpt lat="46.41199" lon="5.33672">
        <ele>272.20001220703</ele>
        <time>2020-10-24T13:29:38.000Z</time>
      </trkpt>
      <trkpt lat="46.41206" lon="5.33679">
        <ele>272.20001220703</ele>
        <time>2020-10-24T13:29:39.000Z</time>
      </trkpt>
      <trkpt lat="46.41213" lon="5.33685">
        <ele>272.20001220703</ele>
        <time>2020-10-24T13:29:40.000Z</time>
      </trkpt>
      <trkpt lat="46.41227" lon="5.33697">
        <ele>272.20001220703</ele>
        <time>2020-10-24T13:29:42.000Z</time>
      </trkpt>
      <trkpt lat="46.4124" lon="5.33709">
        <ele>272.20001220703</ele>
        <time>2020-10-24T13:29:44.000Z</time>
      </trkpt>
      <trkpt lat="46.41246" lon="5.33715">
        <ele>272.39999389648</ele>
        <time>2020-10-24T13:29:45.000Z</time>
      </trkpt>
      <trkpt lat="46.41252" lon="5.33721">
        <ele>272.60000610352</ele>
        <time>2020-10-24T13:29:46.000Z</time>
      </trkpt>
      <trkpt lat="46.41265" lon="5.33733">
        <ele>272.79998779297</ele>
        <time>2020-10-24T13:29:48.000Z</time>
      </trkpt>
      <trkpt lat="46.41277" lon="5.33745">
        <ele>273.20001220703</ele>
        <time>2020-10-24T13:29:50.000Z</time>
      </trkpt>
      <trkpt lat="46.41283" lon="5.33751">
        <ele>273.60000610352</ele>
        <time>2020-10-24T13:29:51.000Z</time>
      </trkpt>
      <trkpt lat="46.41289" lon="5.33757">
        <ele>274</ele>
        <time>2020-10-24T13:29:52.000Z</time>
      </trkpt>
      <trkpt lat="46.41294" lon="5.33764">
        <ele>274.20001220703</ele>
        <time>2020-10-24T13:29:53.000Z</time>
      </trkpt>
      <trkpt lat="46.413" lon="5.33771">
        <ele>274.39999389648</ele>
        <time>2020-10-24T13:29:54.000Z</time>
      </trkpt>
      <trkpt lat="46.41311" lon="5.33783">
        <ele>275</ele>
        <time>2020-10-24T13:29:56.000Z</time>
      </trkpt>
      <trkpt lat="46.41323" lon="5.33793">
        <ele>275.20001220703</ele>
        <time>2020-10-24T13:29:58.000Z</time>
      </trkpt>
      <trkpt lat="46.41329" lon="5.33797">
        <ele>275.39999389648</ele>
        <time>2020-10-24T13:29:59.000Z</time>
      </trkpt>
      <trkpt lat="46.41335" lon="5.338">
        <ele>275.39999389648</ele>
        <time>2020-10-24T13:30:00.000Z</time>
      </trkpt>
      <trkpt lat="46.41347" lon="5.33805">
        <ele>275.79998779297</ele>
        <time>2020-10-24T13:30:02.000Z</time>
      </trkpt>
      <trkpt lat="46.41353" lon="5.33807">
        <ele>276.20001220703</ele>
        <time>2020-10-24T13:30:03.000Z</time>
      </trkpt>
      <trkpt lat="46.41359" lon="5.33809">
        <ele>276.60000610352</ele>
        <time>2020-10-24T13:30:04.000Z</time>
      </trkpt>
      <trkpt lat="46.41365" lon="5.3381">
        <ele>276.79998779297</ele>
        <time>2020-10-24T13:30:05.000Z</time>
      </trkpt>
      <trkpt lat="46.41371" lon="5.33812">
        <ele>277.20001220703</ele>
        <time>2020-10-24T13:30:06.000Z</time>
      </trkpt>
      <trkpt lat="46.41377" lon="5.33814">
        <ele>277.39999389648</ele>
        <time>2020-10-24T13:30:07.000Z</time>
      </trkpt>
      <trkpt lat="46.41383" lon="5.33815">
        <ele>278</ele>
        <time>2020-10-24T13:30:08.000Z</time>
      </trkpt>
      <trkpt lat="46.41389" lon="5.33817">
        <ele>278.60000610352</ele>
        <time>2020-10-24T13:30:09.000Z</time>
      </trkpt>
      <trkpt lat="46.41395" lon="5.33818">
        <ele>279</ele>
        <time>2020-10-24T13:30:10.000Z</time>
      </trkpt>
      <trkpt lat="46.41408" lon="5.33822">
        <ele>279.79998779297</ele>
        <time>2020-10-24T13:30:12.000Z</time>
      </trkpt>
      <trkpt lat="46.4142" lon="5.33826">
        <ele>280.20001220703</ele>
        <time>2020-10-24T13:30:14.000Z</time>
      </trkpt>
      <trkpt lat="46.41432" lon="5.33829">
        <ele>280.60000610352</ele>
        <time>2020-10-24T13:30:16.000Z</time>
      </trkpt>
      <trkpt lat="46.41437" lon="5.33831">
        <ele>280.79998779297</ele>
        <time>2020-10-24T13:30:17.000Z</time>
      </trkpt>
      <trkpt lat="46.41443" lon="5.33833">
        <ele>280.79998779297</ele>
        <time>2020-10-24T13:30:18.000Z</time>
      </trkpt>
      <trkpt lat="46.41455" lon="5.33838">
        <ele>281.39999389648</ele>
        <time>2020-10-24T13:30:20.000Z</time>
      </trkpt>
      <trkpt lat="46.41465" lon="5.33843">
        <ele>281.79998779297</ele>
        <time>2020-10-24T13:30:22.000Z</time>
      </trkpt>
      <trkpt lat="46.41475" lon="5.3385">
        <ele>282.39999389648</ele>
        <time>2020-10-24T13:30:24.000Z</time>
      </trkpt>
      <trkpt lat="46.41484" lon="5.33857">
        <ele>283</ele>
        <time>2020-10-24T13:30:26.000Z</time>
      </trkpt>
      <trkpt lat="46.41493" lon="5.33864">
        <ele>283.20001220703</ele>
        <time>2020-10-24T13:30:28.000Z</time>
      </trkpt>
      <trkpt lat="46.41504" lon="5.33869">
        <ele>284.20001220703</ele>
        <time>2020-10-24T13:30:30.000Z</time>
      </trkpt>
      <trkpt lat="46.41514" lon="5.33874">
        <ele>285</ele>
        <time>2020-10-24T13:30:32.000Z</time>
      </trkpt>
      <trkpt lat="46.4152" lon="5.33875">
        <ele>285.39999389648</ele>
        <time>2020-10-24T13:30:33.000Z</time>
      </trkpt>
      <trkpt lat="46.41525" lon="5.33876">
        <ele>285.60000610352</ele>
        <time>2020-10-24T13:30:34.000Z</time>
      </trkpt>
      <trkpt lat="46.41536" lon="5.33878">
        <ele>285.79998779297</ele>
        <time>2020-10-24T13:30:36.000Z</time>
      </trkpt>
      <trkpt lat="46.41547" lon="5.3388">
        <ele>286</ele>
        <time>2020-10-24T13:30:38.000Z</time>
      </trkpt>
      <trkpt lat="46.41553" lon="5.33881">
        <ele>286</ele>
        <time>2020-10-24T13:30:39.000Z</time>
      </trkpt>
      <trkpt lat="46.41559" lon="5.33882">
        <ele>286.20001220703</ele>
        <time>2020-10-24T13:30:40.000Z</time>
      </trkpt>
      <trkpt lat="46.41564" lon="5.33883">
        <ele>286.39999389648</ele>
        <time>2020-10-24T13:30:41.000Z</time>
      </trkpt>
      <trkpt lat="46.4157" lon="5.33884">
        <ele>286.60000610352</ele>
        <time>2020-10-24T13:30:42.000Z</time>
      </trkpt>
      <trkpt lat="46.41582" lon="5.33886">
        <ele>287</ele>
        <time>2020-10-24T13:30:44.000Z</time>
      </trkpt>
      <trkpt lat="46.41594" lon="5.33887">
        <ele>287.20001220703</ele>
        <time>2020-10-24T13:30:46.000Z</time>
      </trkpt>
      <trkpt lat="46.416" lon="5.33887">
        <ele>287.39999389648</ele>
        <time>2020-10-24T13:30:47.000Z</time>
      </trkpt>
      <trkpt lat="46.41607" lon="5.33887">
        <ele>287.60000610352</ele>
        <time>2020-10-24T13:30:48.000Z</time>
      </trkpt>
      <trkpt lat="46.4162" lon="5.33884">
        <ele>287.79998779297</ele>
        <time>2020-10-24T13:30:50.000Z</time>
      </trkpt>
      <trkpt lat="46.41634" lon="5.3388">
        <ele>287.79998779297</ele>
        <time>2020-10-24T13:30:52.000Z</time>
      </trkpt>
      <trkpt lat="46.41648" lon="5.33879">
        <ele>287.79998779297</ele>
        <time>2020-10-24T13:30:54.000Z</time>
      </trkpt>
      <trkpt lat="46.41662" lon="5.33879">
        <ele>287.79998779297</ele>
        <time>2020-10-24T13:30:56.000Z</time>
      </trkpt>
      <trkpt lat="46.41669" lon="5.33879">
        <ele>287.60000610352</ele>
        <time>2020-10-24T13:30:57.000Z</time>
      </trkpt>
      <trkpt lat="46.41677" lon="5.33879">
        <ele>287.60000610352</ele>
        <time>2020-10-24T13:30:58.000Z</time>
      </trkpt>
      <trkpt lat="46.41693" lon="5.33877">
        <ele>287</ele>
        <time>2020-10-24T13:31:00.000Z</time>
      </trkpt>
      <trkpt lat="46.41711" lon="5.33873">
        <ele>286.39999389648</ele>
        <time>2020-10-24T13:31:02.000Z</time>
      </trkpt>
      <trkpt lat="46.41729" lon="5.33868">
        <ele>285.39999389648</ele>
        <time>2020-10-24T13:31:04.000Z</time>
      </trkpt>
      <trkpt lat="46.41739" lon="5.33864">
        <ele>285.20001220703</ele>
        <time>2020-10-24T13:31:05.000Z</time>
      </trkpt>
      <trkpt lat="46.41749" lon="5.33862">
        <ele>284.79998779297</ele>
        <time>2020-10-24T13:31:06.000Z</time>
      </trkpt>
      <trkpt lat="46.4176" lon="5.33861">
        <ele>284.60000610352</ele>
        <time>2020-10-24T13:31:07.000Z</time>
      </trkpt>
      <trkpt lat="46.4177" lon="5.33863">
        <ele>284</ele>
        <time>2020-10-24T13:31:08.000Z</time>
      </trkpt>
      <trkpt lat="46.41791" lon="5.3387">
        <ele>282.60000610352</ele>
        <time>2020-10-24T13:31:10.000Z</time>
      </trkpt>
      <trkpt lat="46.41813" lon="5.33876">
        <ele>281</ele>
        <time>2020-10-24T13:31:12.000Z</time>
      </trkpt>
      <trkpt lat="46.41835" lon="5.33882">
        <ele>279.60000610352</ele>
        <time>2020-10-24T13:31:14.000Z</time>
      </trkpt>
      <trkpt lat="46.41858" lon="5.33884">
        <ele>277.60000610352</ele>
        <time>2020-10-24T13:31:16.000Z</time>
      </trkpt>
      <trkpt lat="46.41881" lon="5.33883">
        <ele>275.79998779297</ele>
        <time>2020-10-24T13:31:18.000Z</time>
      </trkpt>
      <trkpt lat="46.41904" lon="5.33881">
        <ele>274.20001220703</ele>
        <time>2020-10-24T13:31:20.000Z</time>
      </trkpt>
      <trkpt lat="46.41926" lon="5.33876">
        <ele>272.20001220703</ele>
        <time>2020-10-24T13:31:22.000Z</time>
      </trkpt>
      <trkpt lat="46.41936" lon="5.33875">
        <ele>272</ele>
        <time>2020-10-24T13:31:23.000Z</time>
      </trkpt>
      <trkpt lat="46.41947" lon="5.33875">
        <ele>271.79998779297</ele>
        <time>2020-10-24T13:31:24.000Z</time>
      </trkpt>
      <trkpt lat="46.41957" lon="5.33876">
        <ele>271.79998779297</ele>
        <time>2020-10-24T13:31:25.000Z</time>
      </trkpt>
      <trkpt lat="46.41966" lon="5.33879">
        <ele>271.79998779297</ele>
        <time>2020-10-24T13:31:26.000Z</time>
      </trkpt>
      <trkpt lat="46.41984" lon="5.33889">
        <ele>271.79998779297</ele>
        <time>2020-10-24T13:31:28.000Z</time>
      </trkpt>
      <trkpt lat="46.41993" lon="5.33895">
        <ele>271.79998779297</ele>
        <time>2020-10-24T13:31:29.000Z</time>
      </trkpt>
      <trkpt lat="46.42001" lon="5.339">
        <ele>271.79998779297</ele>
        <time>2020-10-24T13:31:30.000Z</time>
      </trkpt>
      <trkpt lat="46.4201" lon="5.33904">
        <ele>271.79998779297</ele>
        <time>2020-10-24T13:31:31.000Z</time>
      </trkpt>
      <trkpt lat="46.42018" lon="5.33906">
        <ele>272</ele>
        <time>2020-10-24T13:31:32.000Z</time>
      </trkpt>
      <trkpt lat="46.42027" lon="5.33906">
        <ele>272.39999389648</ele>
        <time>2020-10-24T13:31:33.000Z</time>
      </trkpt>
      <trkpt lat="46.42036" lon="5.33906">
        <ele>273.20001220703</ele>
        <time>2020-10-24T13:31:34.000Z</time>
      </trkpt>
      <trkpt lat="46.42045" lon="5.33905">
        <ele>274</ele>
        <time>2020-10-24T13:31:35.000Z</time>
      </trkpt>
      <trkpt lat="46.42054" lon="5.33905">
        <ele>274.79998779297</ele>
        <time>2020-10-24T13:31:36.000Z</time>
      </trkpt>
      <trkpt lat="46.42063" lon="5.33904">
        <ele>275.39999389648</ele>
        <time>2020-10-24T13:31:37.000Z</time>
      </trkpt>
      <trkpt lat="46.42072" lon="5.33904">
        <ele>276.20001220703</ele>
        <time>2020-10-24T13:31:38.000Z</time>
      </trkpt>
      <trkpt lat="46.42081" lon="5.33904">
        <ele>276.60000610352</ele>
        <time>2020-10-24T13:31:39.000Z</time>
      </trkpt>
      <trkpt lat="46.42089" lon="5.33906">
        <ele>277.20001220703</ele>
        <time>2020-10-24T13:31:40.000Z</time>
      </trkpt>
      <trkpt lat="46.42098" lon="5.33908">
        <ele>277.79998779297</ele>
        <time>2020-10-24T13:31:41.000Z</time>
      </trkpt>
      <trkpt lat="46.42106" lon="5.33911">
        <ele>278.39999389648</ele>
        <time>2020-10-24T13:31:42.000Z</time>
      </trkpt>
      <trkpt lat="46.42114" lon="5.33915">
        <ele>279</ele>
        <time>2020-10-24T13:31:43.000Z</time>
      </trkpt>
      <trkpt lat="46.42122" lon="5.33919">
        <ele>279.20001220703</ele>
        <time>2020-10-24T13:31:44.000Z</time>
      </trkpt>
      <trkpt lat="46.42138" lon="5.33927">
        <ele>279.60000610352</ele>
        <time>2020-10-24T13:31:46.000Z</time>
      </trkpt>
      <trkpt lat="46.42153" lon="5.33933">
        <ele>279.79998779297</ele>
        <time>2020-10-24T13:31:48.000Z</time>
      </trkpt>
      <trkpt lat="46.42169" lon="5.33939">
        <ele>280.20001220703</ele>
        <time>2020-10-24T13:31:50.000Z</time>
      </trkpt>
      <trkpt lat="46.42187" lon="5.33938">
        <ele>280.20001220703</ele>
        <time>2020-10-24T13:31:52.000Z</time>
      </trkpt>
      <trkpt lat="46.42204" lon="5.33928">
        <ele>279.79998779297</ele>
        <time>2020-10-24T13:31:54.000Z</time>
      </trkpt>
      <trkpt lat="46.42211" lon="5.33918">
        <ele>279.79998779297</ele>
        <time>2020-10-24T13:31:55.000Z</time>
      </trkpt>
      <trkpt lat="46.42218" lon="5.33907">
        <ele>279.79998779297</ele>
        <time>2020-10-24T13:31:56.000Z</time>
      </trkpt>
      <trkpt lat="46.42224" lon="5.33896">
        <ele>279.60000610352</ele>
        <time>2020-10-24T13:31:57.000Z</time>
      </trkpt>
      <trkpt lat="46.4223" lon="5.33884">
        <ele>279</ele>
        <time>2020-10-24T13:31:58.000Z</time>
      </trkpt>
      <trkpt lat="46.42236" lon="5.33873">
        <ele>278.20001220703</ele>
        <time>2020-10-24T13:31:59.000Z</time>
      </trkpt>
      <trkpt lat="46.42242" lon="5.33861">
        <ele>277.60000610352</ele>
        <time>2020-10-24T13:32:00.000Z</time>
      </trkpt>
      <trkpt lat="46.42248" lon="5.33849">
        <ele>276.79998779297</ele>
        <time>2020-10-24T13:32:01.000Z</time>
      </trkpt>
      <trkpt lat="46.42254" lon="5.33837">
        <ele>276.20001220703</ele>
        <time>2020-10-24T13:32:02.000Z</time>
      </trkpt>
      <trkpt lat="46.4226" lon="5.33825">
        <ele>275.39999389648</ele>
        <time>2020-10-24T13:32:03.000Z</time>
      </trkpt>
      <trkpt lat="46.42265" lon="5.33813">
        <ele>274.79998779297</ele>
        <time>2020-10-24T13:32:04.000Z</time>
      </trkpt>
      <trkpt lat="46.42271" lon="5.33802">
        <ele>274.20001220703</ele>
        <time>2020-10-24T13:32:05.000Z</time>
      </trkpt>
      <trkpt lat="46.42277" lon="5.3379">
        <ele>273.60000610352</ele>
        <time>2020-10-24T13:32:06.000Z</time>
      </trkpt>
      <trkpt lat="46.42283" lon="5.33779">
        <ele>273</ele>
        <time>2020-10-24T13:32:07.000Z</time>
      </trkpt>
      <trkpt lat="46.42289" lon="5.33767">
        <ele>272.39999389648</ele>
        <time>2020-10-24T13:32:08.000Z</time>
      </trkpt>
      <trkpt lat="46.42295" lon="5.33756">
        <ele>271.79998779297</ele>
        <time>2020-10-24T13:32:09.000Z</time>
      </trkpt>
      <trkpt lat="46.42302" lon="5.33746">
        <ele>271.60000610352</ele>
        <time>2020-10-24T13:32:10.000Z</time>
      </trkpt>
      <trkpt lat="46.42317" lon="5.33726">
        <ele>271.20001220703</ele>
        <time>2020-10-24T13:32:12.000Z</time>
      </trkpt>
      <trkpt lat="46.42335" lon="5.3371">
        <ele>270.79998779297</ele>
        <time>2020-10-24T13:32:14.000Z</time>
      </trkpt>
      <trkpt lat="46.42355" lon="5.33697">
        <ele>270.20001220703</ele>
        <time>2020-10-24T13:32:16.000Z</time>
      </trkpt>
      <trkpt lat="46.42376" lon="5.33685">
        <ele>268.79998779297</ele>
        <time>2020-10-24T13:32:18.000Z</time>
      </trkpt>
      <trkpt lat="46.42387" lon="5.33681">
        <ele>268.20001220703</ele>
        <time>2020-10-24T13:32:19.000Z</time>
      </trkpt>
      <trkpt lat="46.42398" lon="5.33679">
        <ele>267.60000610352</ele>
        <time>2020-10-24T13:32:20.000Z</time>
      </trkpt>
      <trkpt lat="46.42419" lon="5.33684">
        <ele>266.60000610352</ele>
        <time>2020-10-24T13:32:22.000Z</time>
      </trkpt>
      <trkpt lat="46.42429" lon="5.33689">
        <ele>265.79998779297</ele>
        <time>2020-10-24T13:32:23.000Z</time>
      </trkpt>
      <trkpt lat="46.42439" lon="5.33695">
        <ele>264.79998779297</ele>
        <time>2020-10-24T13:32:24.000Z</time>
      </trkpt>
      <trkpt lat="46.42449" lon="5.33701">
        <ele>263.60000610352</ele>
        <time>2020-10-24T13:32:25.000Z</time>
      </trkpt>
      <trkpt lat="46.42459" lon="5.33708">
        <ele>262.79998779297</ele>
        <time>2020-10-24T13:32:26.000Z</time>
      </trkpt>
      <trkpt lat="46.42468" lon="5.33716">
        <ele>262</ele>
        <time>2020-10-24T13:32:27.000Z</time>
      </trkpt>
      <trkpt lat="46.42477" lon="5.33724">
        <ele>261.39999389648</ele>
        <time>2020-10-24T13:32:28.000Z</time>
      </trkpt>
      <trkpt lat="46.42496" lon="5.33741">
        <ele>260.79998779297</ele>
        <time>2020-10-24T13:32:30.000Z</time>
      </trkpt>
      <trkpt lat="46.42516" lon="5.33755">
        <ele>260.79998779297</ele>
        <time>2020-10-24T13:32:32.000Z</time>
      </trkpt>
      <trkpt lat="46.42526" lon="5.33762">
        <ele>260.60000610352</ele>
        <time>2020-10-24T13:32:33.000Z</time>
      </trkpt>
      <trkpt lat="46.42537" lon="5.33769">
        <ele>260.60000610352</ele>
        <time>2020-10-24T13:32:34.000Z</time>
      </trkpt>
      <trkpt lat="46.42559" lon="5.33784">
        <ele>260.39999389648</ele>
        <time>2020-10-24T13:32:36.000Z</time>
      </trkpt>
      <trkpt lat="46.42582" lon="5.33795">
        <ele>260.20001220703</ele>
        <time>2020-10-24T13:32:38.000Z</time>
      </trkpt>
      <trkpt lat="46.42594" lon="5.33799">
        <ele>259.60000610352</ele>
        <time>2020-10-24T13:32:39.000Z</time>
      </trkpt>
      <trkpt lat="46.42605" lon="5.33801">
        <ele>259.20001220703</ele>
        <time>2020-10-24T13:32:40.000Z</time>
      </trkpt>
      <trkpt lat="46.42617" lon="5.33802">
        <ele>258.60000610352</ele>
        <time>2020-10-24T13:32:41.000Z</time>
      </trkpt>
      <trkpt lat="46.42629" lon="5.33801">
        <ele>257.79998779297</ele>
        <time>2020-10-24T13:32:42.000Z</time>
      </trkpt>
      <trkpt lat="46.4264" lon="5.33801">
        <ele>256.79998779297</ele>
        <time>2020-10-24T13:32:43.000Z</time>
      </trkpt>
      <trkpt lat="46.42652" lon="5.338">
        <ele>255.80000305176</ele>
        <time>2020-10-24T13:32:44.000Z</time>
      </trkpt>
      <trkpt lat="46.42663" lon="5.33798">
        <ele>253.39999389648</ele>
        <time>2020-10-24T13:32:45.000Z</time>
      </trkpt>
      <trkpt lat="46.42674" lon="5.33798">
        <ele>253</ele>
        <time>2020-10-24T13:32:46.000Z</time>
      </trkpt>
      <trkpt lat="46.42686" lon="5.33797">
        <ele>252.80000305176</ele>
        <time>2020-10-24T13:32:47.000Z</time>
      </trkpt>
      <trkpt lat="46.42697" lon="5.33797">
        <ele>252.60000610352</ele>
        <time>2020-10-24T13:32:48.000Z</time>
      </trkpt>
      <trkpt lat="46.42708" lon="5.33798">
        <ele>252.39999389648</ele>
        <time>2020-10-24T13:32:49.000Z</time>
      </trkpt>
      <trkpt lat="46.42719" lon="5.338">
        <ele>252.39999389648</ele>
        <time>2020-10-24T13:32:50.000Z</time>
      </trkpt>
      <trkpt lat="46.42741" lon="5.33808">
        <ele>252.39999389648</ele>
        <time>2020-10-24T13:32:52.000Z</time>
      </trkpt>
      <trkpt lat="46.42762" lon="5.3382">
        <ele>252.19999694824</ele>
        <time>2020-10-24T13:32:54.000Z</time>
      </trkpt>
      <trkpt lat="46.42785" lon="5.3383">
        <ele>252</ele>
        <time>2020-10-24T13:32:56.000Z</time>
      </trkpt>
      <trkpt lat="46.42797" lon="5.33833">
        <ele>251.80000305176</ele>
        <time>2020-10-24T13:32:57.000Z</time>
      </trkpt>
      <trkpt lat="46.42809" lon="5.33835">
        <ele>251.80000305176</ele>
        <time>2020-10-24T13:32:58.000Z</time>
      </trkpt>
      <trkpt lat="46.42821" lon="5.33836">
        <ele>251.39999389648</ele>
        <time>2020-10-24T13:32:59.000Z</time>
      </trkpt>
      <trkpt lat="46.42833" lon="5.33837">
        <ele>251</ele>
        <time>2020-10-24T13:33:00.000Z</time>
      </trkpt>
      <trkpt lat="46.42856" lon="5.33839">
        <ele>250</ele>
        <time>2020-10-24T13:33:02.000Z</time>
      </trkpt>
      <trkpt lat="46.42879" lon="5.3384">
        <ele>248.19999694824</ele>
        <time>2020-10-24T13:33:04.000Z</time>
      </trkpt>
      <trkpt lat="46.42902" lon="5.33841">
        <ele>246.80000305176</ele>
        <time>2020-10-24T13:33:06.000Z</time>
      </trkpt>
      <trkpt lat="46.42924" lon="5.33847">
        <ele>246.39999389648</ele>
        <time>2020-10-24T13:33:08.000Z</time>
      </trkpt>
      <trkpt lat="46.42945" lon="5.33856">
        <ele>246.39999389648</ele>
        <time>2020-10-24T13:33:10.000Z</time>
      </trkpt>
      <trkpt lat="46.42964" lon="5.33868">
        <ele>246.39999389648</ele>
        <time>2020-10-24T13:33:12.000Z</time>
      </trkpt>
      <trkpt lat="46.42983" lon="5.33881">
        <ele>246.39999389648</ele>
        <time>2020-10-24T13:33:14.000Z</time>
      </trkpt>
      <trkpt lat="46.43002" lon="5.33895">
        <ele>246.60000610352</ele>
        <time>2020-10-24T13:33:16.000Z</time>
      </trkpt>
      <trkpt lat="46.43019" lon="5.33909">
        <ele>247</ele>
        <time>2020-10-24T13:33:18.000Z</time>
      </trkpt>
      <trkpt lat="46.43028" lon="5.33917">
        <ele>247.19999694824</ele>
        <time>2020-10-24T13:33:19.000Z</time>
      </trkpt>
      <trkpt lat="46.43036" lon="5.33924">
        <ele>247.39999389648</ele>
        <time>2020-10-24T13:33:20.000Z</time>
      </trkpt>
      <trkpt lat="46.43053" lon="5.33939">
        <ele>247.80000305176</ele>
        <time>2020-10-24T13:33:22.000Z</time>
      </trkpt>
      <trkpt lat="46.4306" lon="5.33947">
        <ele>247.80000305176</ele>
        <time>2020-10-24T13:33:23.000Z</time>
      </trkpt>
      <trkpt lat="46.43068" lon="5.33954">
        <ele>248</ele>
        <time>2020-10-24T13:33:24.000Z</time>
      </trkpt>
      <trkpt lat="46.43084" lon="5.33969">
        <ele>248.39999389648</ele>
        <time>2020-10-24T13:33:26.000Z</time>
      </trkpt>
      <trkpt lat="46.43091" lon="5.33976">
        <ele>248.60000610352</ele>
        <time>2020-10-24T13:33:27.000Z</time>
      </trkpt>
      <trkpt lat="46.43098" lon="5.33983">
        <ele>248.60000610352</ele>
        <time>2020-10-24T13:33:28.000Z</time>
      </trkpt>
      <trkpt lat="46.43111" lon="5.33998">
        <ele>248.80000305176</ele>
        <time>2020-10-24T13:33:30.000Z</time>
      </trkpt>
      <trkpt lat="46.43116" lon="5.34005">
        <ele>248.80000305176</ele>
        <time>2020-10-24T13:33:31.000Z</time>
      </trkpt>
      <trkpt lat="46.43122" lon="5.34013">
        <ele>249</ele>
        <time>2020-10-24T13:33:32.000Z</time>
      </trkpt>
      <trkpt lat="46.43132" lon="5.34029">
        <ele>249</ele>
        <time>2020-10-24T13:33:34.000Z</time>
      </trkpt>
      <trkpt lat="46.43142" lon="5.34044">
        <ele>249.19999694824</ele>
        <time>2020-10-24T13:33:36.000Z</time>
      </trkpt>
      <trkpt lat="46.43149" lon="5.34057">
        <ele>249.19999694824</ele>
        <time>2020-10-24T13:33:38.000Z</time>
      </trkpt>
      <trkpt lat="46.43157" lon="5.3407">
        <ele>249.39999389648</ele>
        <time>2020-10-24T13:33:40.000Z</time>
      </trkpt>
      <trkpt lat="46.43167" lon="5.34085">
        <ele>249.39999389648</ele>
        <time>2020-10-24T13:33:42.000Z</time>
      </trkpt>
      <trkpt lat="46.43178" lon="5.34101">
        <ele>249.39999389648</ele>
        <time>2020-10-24T13:33:44.000Z</time>
      </trkpt>
      <trkpt lat="46.4319" lon="5.34116">
        <ele>249.39999389648</ele>
        <time>2020-10-24T13:33:46.000Z</time>
      </trkpt>
      <trkpt lat="46.43203" lon="5.34131">
        <ele>249.39999389648</ele>
        <time>2020-10-24T13:33:48.000Z</time>
      </trkpt>
      <trkpt lat="46.43216" lon="5.34145">
        <ele>248.80000305176</ele>
        <time>2020-10-24T13:33:50.000Z</time>
      </trkpt>
      <trkpt lat="46.43228" lon="5.34158">
        <ele>248.19999694824</ele>
        <time>2020-10-24T13:33:52.000Z</time>
      </trkpt>
      <trkpt lat="46.43241" lon="5.34169">
        <ele>247.80000305176</ele>
        <time>2020-10-24T13:33:54.000Z</time>
      </trkpt>
      <trkpt lat="46.43254" lon="5.3418">
        <ele>247.60000610352</ele>
        <time>2020-10-24T13:33:56.000Z</time>
      </trkpt>
      <trkpt lat="46.43266" lon="5.34191">
        <ele>247.60000610352</ele>
        <time>2020-10-24T13:33:58.000Z</time>
      </trkpt>
      <trkpt lat="46.43278" lon="5.34202">
        <ele>247.60000610352</ele>
        <time>2020-10-24T13:34:00.000Z</time>
      </trkpt>
      <trkpt lat="46.43289" lon="5.34211">
        <ele>247.60000610352</ele>
        <time>2020-10-24T13:34:02.000Z</time>
      </trkpt>
      <trkpt lat="46.43295" lon="5.34215">
        <ele>247.60000610352</ele>
        <time>2020-10-24T13:34:03.000Z</time>
      </trkpt>
      <trkpt lat="46.433" lon="5.34219">
        <ele>247.80000305176</ele>
        <time>2020-10-24T13:34:04.000Z</time>
      </trkpt>
      <trkpt lat="46.43311" lon="5.34227">
        <ele>248.19999694824</ele>
        <time>2020-10-24T13:34:06.000Z</time>
      </trkpt>
      <trkpt lat="46.43322" lon="5.34234">
        <ele>249</ele>
        <time>2020-10-24T13:34:08.000Z</time>
      </trkpt>
      <trkpt lat="46.43332" lon="5.34239">
        <ele>250</ele>
        <time>2020-10-24T13:34:10.000Z</time>
      </trkpt>
      <trkpt lat="46.43337" lon="5.34241">
        <ele>250.19999694824</ele>
        <time>2020-10-24T13:34:11.000Z</time>
      </trkpt>
      <trkpt lat="46.43343" lon="5.34243">
        <ele>250.39999389648</ele>
        <time>2020-10-24T13:34:12.000Z</time>
      </trkpt>
      <trkpt lat="46.43353" lon="5.34248">
        <ele>251</ele>
        <time>2020-10-24T13:34:14.000Z</time>
      </trkpt>
      <trkpt lat="46.43358" lon="5.34251">
        <ele>251.39999389648</ele>
        <time>2020-10-24T13:34:15.000Z</time>
      </trkpt>
      <trkpt lat="46.43363" lon="5.34255">
        <ele>251.80000305176</ele>
        <time>2020-10-24T13:34:16.000Z</time>
      </trkpt>
      <trkpt lat="46.43368" lon="5.34258">
        <ele>252.19999694824</ele>
        <time>2020-10-24T13:34:17.000Z</time>
      </trkpt>
      <trkpt lat="46.43371" lon="5.34261">
        <ele>252.39999389648</ele>
        <time>2020-10-24T13:34:18.000Z</time>
      </trkpt>
      <trkpt lat="46.43379" lon="5.34267">
        <ele>252.80000305176</ele>
        <time>2020-10-24T13:34:20.000Z</time>
      </trkpt>
      <trkpt lat="46.43383" lon="5.3427">
        <ele>252.80000305176</ele>
        <time>2020-10-24T13:34:21.000Z</time>
      </trkpt>
      <trkpt lat="46.43386" lon="5.34273">
        <ele>253</ele>
        <time>2020-10-24T13:34:22.000Z</time>
      </trkpt>
      <trkpt lat="46.43394" lon="5.34279">
        <ele>253.80000305176</ele>
        <time>2020-10-24T13:34:24.000Z</time>
      </trkpt>
      <trkpt lat="46.43401" lon="5.34285">
        <ele>254.60000610352</ele>
        <time>2020-10-24T13:34:26.000Z</time>
      </trkpt>
      <trkpt lat="46.43404" lon="5.34287">
        <ele>255</ele>
        <time>2020-10-24T13:34:27.000Z</time>
      </trkpt>
      <trkpt lat="46.43408" lon="5.3429">
        <ele>255.60000610352</ele>
        <time>2020-10-24T13:34:28.000Z</time>
      </trkpt>
      <trkpt lat="46.43412" lon="5.34292">
        <ele>256</ele>
        <time>2020-10-24T13:34:29.000Z</time>
      </trkpt>
      <trkpt lat="46.43415" lon="5.34295">
        <ele>256.60000610352</ele>
        <time>2020-10-24T13:34:30.000Z</time>
      </trkpt>
      <trkpt lat="46.43423" lon="5.34301">
        <ele>257.20001220703</ele>
        <time>2020-10-24T13:34:32.000Z</time>
      </trkpt>
      <trkpt lat="46.43431" lon="5.34307">
        <ele>257.79998779297</ele>
        <time>2020-10-24T13:34:34.000Z</time>
      </trkpt>
      <trkpt lat="46.43435" lon="5.34307">
        <ele>258.20001220703</ele>
        <time>2020-10-24T13:34:35.000Z</time>
      </trkpt>
      <trkpt lat="46.43438" lon="5.34306">
        <ele>258.60000610352</ele>
        <time>2020-10-24T13:34:36.000Z</time>
      </trkpt>
      <trkpt lat="46.43442" lon="5.34303">
        <ele>259.20001220703</ele>
        <time>2020-10-24T13:34:37.000Z</time>
      </trkpt>
      <trkpt lat="46.43444" lon="5.34301">
        <ele>259.39999389648</ele>
        <time>2020-10-24T13:34:38.000Z</time>
      </trkpt>
      <trkpt lat="46.43449" lon="5.34297">
        <ele>259.79998779297</ele>
        <time>2020-10-24T13:34:40.000Z</time>
      </trkpt>
      <trkpt lat="46.43453" lon="5.34291">
        <ele>260.20001220703</ele>
        <time>2020-10-24T13:34:42.000Z</time>
      </trkpt>
      <trkpt lat="46.43453" lon="5.34288">
        <ele>260.39999389648</ele>
        <time>2020-10-24T13:34:43.000Z</time>
      </trkpt>
      <trkpt lat="46.43454" lon="5.34287">
        <ele>260.79998779297</ele>
        <time>2020-10-24T13:34:44.000Z</time>
      </trkpt>
      <trkpt lat="46.43455" lon="5.34287">
        <ele>261.39999389648</ele>
        <time>2020-10-24T13:34:46.000Z</time>
      </trkpt>
      <trkpt lat="46.43455" lon="5.34284">
        <ele>263.39999389648</ele>
        <time>2020-10-24T13:35:12.000Z</time>
      </trkpt>
      <trkpt lat="46.43454" lon="5.34281">
        <ele>263.39999389648</ele>
        <time>2020-10-24T13:35:14.000Z</time>
      </trkpt>
      <trkpt lat="46.43452" lon="5.34274">
        <ele>263.39999389648</ele>
        <time>2020-10-24T13:35:16.000Z</time>
      </trkpt>
      <trkpt lat="46.43452" lon="5.34262">
        <ele>263.39999389648</ele>
        <time>2020-10-24T13:35:18.000Z</time>
      </trkpt>
      <trkpt lat="46.43451" lon="5.34247">
        <ele>263.20001220703</ele>
        <time>2020-10-24T13:35:20.000Z</time>
      </trkpt>
      <trkpt lat="46.43453" lon="5.34231">
        <ele>263</ele>
        <time>2020-10-24T13:35:22.000Z</time>
      </trkpt>
      <trkpt lat="46.43457" lon="5.34214">
        <ele>262.60000610352</ele>
        <time>2020-10-24T13:35:24.000Z</time>
      </trkpt>
      <trkpt lat="46.4346" lon="5.34207">
        <ele>262.60000610352</ele>
        <time>2020-10-24T13:35:25.000Z</time>
      </trkpt>
      <trkpt lat="46.43462" lon="5.34198">
        <ele>262.39999389648</ele>
        <time>2020-10-24T13:35:26.000Z</time>
      </trkpt>
      <trkpt lat="46.43464" lon="5.3419">
        <ele>262.39999389648</ele>
        <time>2020-10-24T13:35:27.000Z</time>
      </trkpt>
      <trkpt lat="46.43465" lon="5.3418">
        <ele>262.39999389648</ele>
        <time>2020-10-24T13:35:28.000Z</time>
      </trkpt>
      <trkpt lat="46.43468" lon="5.3416">
        <ele>262.20001220703</ele>
        <time>2020-10-24T13:35:30.000Z</time>
      </trkpt>
      <trkpt lat="46.43469" lon="5.34139">
        <ele>262</ele>
        <time>2020-10-24T13:35:32.000Z</time>
      </trkpt>
      <trkpt lat="46.4347" lon="5.34128">
        <ele>262</ele>
        <time>2020-10-24T13:35:33.000Z</time>
      </trkpt>
      <trkpt lat="46.43471" lon="5.34117">
        <ele>261.79998779297</ele>
        <time>2020-10-24T13:35:34.000Z</time>
      </trkpt>
      <trkpt lat="46.43473" lon="5.34093">
        <ele>261.39999389648</ele>
        <time>2020-10-24T13:35:36.000Z</time>
      </trkpt>
      <trkpt lat="46.43476" lon="5.3407">
        <ele>261</ele>
        <time>2020-10-24T13:35:38.000Z</time>
      </trkpt>
      <trkpt lat="46.43479" lon="5.34047">
        <ele>260.60000610352</ele>
        <time>2020-10-24T13:35:40.000Z</time>
      </trkpt>
      <trkpt lat="46.43481" lon="5.34023">
        <ele>260.20001220703</ele>
        <time>2020-10-24T13:35:42.000Z</time>
      </trkpt>
      <trkpt lat="46.43484" lon="5.33999">
        <ele>259.60000610352</ele>
        <time>2020-10-24T13:35:44.000Z</time>
      </trkpt>
      <trkpt lat="46.43485" lon="5.33975">
        <ele>259.39999389648</ele>
        <time>2020-10-24T13:35:46.000Z</time>
      </trkpt>
      <trkpt lat="46.43488" lon="5.33951">
        <ele>259.20001220703</ele>
        <time>2020-10-24T13:35:48.000Z</time>
      </trkpt>
      <trkpt lat="46.4349" lon="5.33925">
        <ele>258.79998779297</ele>
        <time>2020-10-24T13:35:50.000Z</time>
      </trkpt>
      <trkpt lat="46.43491" lon="5.33911">
        <ele>258.60000610352</ele>
        <time>2020-10-24T13:35:51.000Z</time>
      </trkpt>
      <trkpt lat="46.43493" lon="5.33898">
        <ele>258.39999389648</ele>
        <time>2020-10-24T13:35:52.000Z</time>
      </trkpt>
      <trkpt lat="46.43495" lon="5.33871">
        <ele>258</ele>
        <time>2020-10-24T13:35:54.000Z</time>
      </trkpt>
      <trkpt lat="46.43498" lon="5.33844">
        <ele>257.20001220703</ele>
        <time>2020-10-24T13:35:56.000Z</time>
      </trkpt>
      <trkpt lat="46.435" lon="5.3383">
        <ele>256.39999389648</ele>
        <time>2020-10-24T13:35:57.000Z</time>
      </trkpt>
      <trkpt lat="46.43501" lon="5.33816">
        <ele>255.60000610352</ele>
        <time>2020-10-24T13:35:58.000Z</time>
      </trkpt>
      <trkpt lat="46.43505" lon="5.33789">
        <ele>253.60000610352</ele>
        <time>2020-10-24T13:36:00.000Z</time>
      </trkpt>
      <trkpt lat="46.43507" lon="5.33777">
        <ele>253.19999694824</ele>
        <time>2020-10-24T13:36:01.000Z</time>
      </trkpt>
      <trkpt lat="46.43509" lon="5.33768">
        <ele>252.80000305176</ele>
        <time>2020-10-24T13:36:02.000Z</time>
      </trkpt>
      <trkpt lat="46.43511" lon="5.33761">
        <ele>251.80000305176</ele>
        <time>2020-10-24T13:36:03.000Z</time>
      </trkpt>
      <trkpt lat="46.4351" lon="5.33752">
        <ele>251</ele>
        <time>2020-10-24T13:36:04.000Z</time>
      </trkpt>
      <trkpt lat="46.43507" lon="5.33744">
        <ele>250.39999389648</ele>
        <time>2020-10-24T13:36:05.000Z</time>
      </trkpt>
      <trkpt lat="46.43503" lon="5.33735">
        <ele>250</ele>
        <time>2020-10-24T13:36:06.000Z</time>
      </trkpt>
      <trkpt lat="46.43493" lon="5.33715">
        <ele>249.39999389648</ele>
        <time>2020-10-24T13:36:08.000Z</time>
      </trkpt>
      <trkpt lat="46.43488" lon="5.33705">
        <ele>249.19999694824</ele>
        <time>2020-10-24T13:36:09.000Z</time>
      </trkpt>
      <trkpt lat="46.43483" lon="5.33694">
        <ele>249</ele>
        <time>2020-10-24T13:36:10.000Z</time>
      </trkpt>
      <trkpt lat="46.43474" lon="5.3367">
        <ele>248.60000610352</ele>
        <time>2020-10-24T13:36:12.000Z</time>
      </trkpt>
      <trkpt lat="46.4347" lon="5.33657">
        <ele>248.39999389648</ele>
        <time>2020-10-24T13:36:13.000Z</time>
      </trkpt>
      <trkpt lat="46.43467" lon="5.33644">
        <ele>248</ele>
        <time>2020-10-24T13:36:14.000Z</time>
      </trkpt>
      <trkpt lat="46.43465" lon="5.3363">
        <ele>247.19999694824</ele>
        <time>2020-10-24T13:36:15.000Z</time>
      </trkpt>
      <trkpt lat="46.43463" lon="5.33615">
        <ele>246.60000610352</ele>
        <time>2020-10-24T13:36:16.000Z</time>
      </trkpt>
      <trkpt lat="46.43463" lon="5.33601">
        <ele>246.19999694824</ele>
        <time>2020-10-24T13:36:17.000Z</time>
      </trkpt>
      <trkpt lat="46.43463" lon="5.33586">
        <ele>245.80000305176</ele>
        <time>2020-10-24T13:36:18.000Z</time>
      </trkpt>
      <trkpt lat="46.43465" lon="5.33571">
        <ele>245.19999694824</ele>
        <time>2020-10-24T13:36:19.000Z</time>
      </trkpt>
      <trkpt lat="46.43468" lon="5.33556">
        <ele>244.60000610352</ele>
        <time>2020-10-24T13:36:20.000Z</time>
      </trkpt>
      <trkpt lat="46.43472" lon="5.33542">
        <ele>244.19999694824</ele>
        <time>2020-10-24T13:36:21.000Z</time>
      </trkpt>
      <trkpt lat="46.43478" lon="5.3353">
        <ele>243.80000305176</ele>
        <time>2020-10-24T13:36:22.000Z</time>
      </trkpt>
      <trkpt lat="46.43484" lon="5.33519">
        <ele>243.19999694824</ele>
        <time>2020-10-24T13:36:23.000Z</time>
      </trkpt>
      <trkpt lat="46.43492" lon="5.33508">
        <ele>242.80000305176</ele>
        <time>2020-10-24T13:36:24.000Z</time>
      </trkpt>
      <trkpt lat="46.43506" lon="5.33488">
        <ele>241.80000305176</ele>
        <time>2020-10-24T13:36:26.000Z</time>
      </trkpt>
      <trkpt lat="46.43521" lon="5.3347">
        <ele>240.39999389648</ele>
        <time>2020-10-24T13:36:28.000Z</time>
      </trkpt>
      <trkpt lat="46.43536" lon="5.33455">
        <ele>240.19999694824</ele>
        <time>2020-10-24T13:36:30.000Z</time>
      </trkpt>
      <trkpt lat="46.43553" lon="5.33448">
        <ele>240.19999694824</ele>
        <time>2020-10-24T13:36:32.000Z</time>
      </trkpt>
      <trkpt lat="46.43562" lon="5.33448">
        <ele>240.19999694824</ele>
        <time>2020-10-24T13:36:33.000Z</time>
      </trkpt>
      <trkpt lat="46.43571" lon="5.33449">
        <ele>240.19999694824</ele>
        <time>2020-10-24T13:36:34.000Z</time>
      </trkpt>
      <trkpt lat="46.4358" lon="5.3345">
        <ele>240.19999694824</ele>
        <time>2020-10-24T13:36:35.000Z</time>
      </trkpt>
      <trkpt lat="46.43588" lon="5.33451">
        <ele>240.19999694824</ele>
        <time>2020-10-24T13:36:36.000Z</time>
      </trkpt>
      <trkpt lat="46.43606" lon="5.33451">
        <ele>240.19999694824</ele>
        <time>2020-10-24T13:36:38.000Z</time>
      </trkpt>
      <trkpt lat="46.43623" lon="5.33451">
        <ele>240.80000305176</ele>
        <time>2020-10-24T13:36:40.000Z</time>
      </trkpt>
      <trkpt lat="46.43641" lon="5.3345">
        <ele>241</ele>
        <time>2020-10-24T13:36:42.000Z</time>
      </trkpt>
      <trkpt lat="46.43659" lon="5.3345">
        <ele>241</ele>
        <time>2020-10-24T13:36:44.000Z</time>
      </trkpt>
      <trkpt lat="46.43678" lon="5.33449">
        <ele>241.19999694824</ele>
        <time>2020-10-24T13:36:46.000Z</time>
      </trkpt>
      <trkpt lat="46.43687" lon="5.33448">
        <ele>241.39999389648</ele>
        <time>2020-10-24T13:36:47.000Z</time>
      </trkpt>
      <trkpt lat="46.43696" lon="5.33448">
        <ele>241.39999389648</ele>
        <time>2020-10-24T13:36:48.000Z</time>
      </trkpt>
      <trkpt lat="46.43714" lon="5.33448">
        <ele>241</ele>
        <time>2020-10-24T13:36:50.000Z</time>
      </trkpt>
      <trkpt lat="46.43732" lon="5.33446">
        <ele>241</ele>
        <time>2020-10-24T13:36:52.000Z</time>
      </trkpt>
      <trkpt lat="46.4375" lon="5.33444">
        <ele>240.80000305176</ele>
        <time>2020-10-24T13:36:54.000Z</time>
      </trkpt>
      <trkpt lat="46.43767" lon="5.33441">
        <ele>240.80000305176</ele>
        <time>2020-10-24T13:36:56.000Z</time>
      </trkpt>
      <trkpt lat="46.43784" lon="5.33438">
        <ele>240.80000305176</ele>
        <time>2020-10-24T13:36:58.000Z</time>
      </trkpt>
      <trkpt lat="46.438" lon="5.33436">
        <ele>240.60000610352</ele>
        <time>2020-10-24T13:37:00.000Z</time>
      </trkpt>
      <trkpt lat="46.43817" lon="5.33435">
        <ele>241</ele>
        <time>2020-10-24T13:37:02.000Z</time>
      </trkpt>
      <trkpt lat="46.43834" lon="5.33435">
        <ele>241</ele>
        <time>2020-10-24T13:37:04.000Z</time>
      </trkpt>
      <trkpt lat="46.4385" lon="5.33435">
        <ele>241.19999694824</ele>
        <time>2020-10-24T13:37:06.000Z</time>
      </trkpt>
      <trkpt lat="46.43866" lon="5.33437">
        <ele>241.19999694824</ele>
        <time>2020-10-24T13:37:08.000Z</time>
      </trkpt>
      <trkpt lat="46.43874" lon="5.33439">
        <ele>241.19999694824</ele>
        <time>2020-10-24T13:37:09.000Z</time>
      </trkpt>
      <trkpt lat="46.43882" lon="5.33441">
        <ele>241.39999389648</ele>
        <time>2020-10-24T13:37:10.000Z</time>
      </trkpt>
      <trkpt lat="46.43897" lon="5.33446">
        <ele>241.39999389648</ele>
        <time>2020-10-24T13:37:12.000Z</time>
      </trkpt>
      <trkpt lat="46.43913" lon="5.33453">
        <ele>241.39999389648</ele>
        <time>2020-10-24T13:37:14.000Z</time>
      </trkpt>
      <trkpt lat="46.43928" lon="5.33461">
        <ele>241.60000610352</ele>
        <time>2020-10-24T13:37:16.000Z</time>
      </trkpt>
      <trkpt lat="46.43943" lon="5.3347">
        <ele>241.60000610352</ele>
        <time>2020-10-24T13:37:18.000Z</time>
      </trkpt>
      <trkpt lat="46.4395" lon="5.33475">
        <ele>241.80000305176</ele>
        <time>2020-10-24T13:37:19.000Z</time>
      </trkpt>
      <trkpt lat="46.43957" lon="5.3348">
        <ele>241.80000305176</ele>
        <time>2020-10-24T13:37:20.000Z</time>
      </trkpt>
      <trkpt lat="46.43965" lon="5.33485">
        <ele>241.80000305176</ele>
        <time>2020-10-24T13:37:21.000Z</time>
      </trkpt>
      <trkpt lat="46.43972" lon="5.33489">
        <ele>241.80000305176</ele>
        <time>2020-10-24T13:37:22.000Z</time>
      </trkpt>
      <trkpt lat="46.43987" lon="5.33497">
        <ele>242.19999694824</ele>
        <time>2020-10-24T13:37:24.000Z</time>
      </trkpt>
      <trkpt lat="46.44001" lon="5.33504">
        <ele>242.19999694824</ele>
        <time>2020-10-24T13:37:26.000Z</time>
      </trkpt>
      <trkpt lat="46.44016" lon="5.33511">
        <ele>242.39999389648</ele>
        <time>2020-10-24T13:37:28.000Z</time>
      </trkpt>
      <trkpt lat="46.44031" lon="5.33518">
        <ele>242.39999389648</ele>
        <time>2020-10-24T13:37:30.000Z</time>
      </trkpt>
      <trkpt lat="46.44046" lon="5.33523">
        <ele>242.39999389648</ele>
        <time>2020-10-24T13:37:32.000Z</time>
      </trkpt>
      <trkpt lat="46.44053" lon="5.33526">
        <ele>242.39999389648</ele>
        <time>2020-10-24T13:37:33.000Z</time>
      </trkpt>
      <trkpt lat="46.4406" lon="5.33531">
        <ele>242.60000610352</ele>
        <time>2020-10-24T13:37:34.000Z</time>
      </trkpt>
      <trkpt lat="46.44068" lon="5.33548">
        <ele>242.60000610352</ele>
        <time>2020-10-24T13:37:36.000Z</time>
      </trkpt>
      <trkpt lat="46.44072" lon="5.33568">
        <ele>242.80000305176</ele>
        <time>2020-10-24T13:37:38.000Z</time>
      </trkpt>
      <trkpt lat="46.44077" lon="5.33588">
        <ele>243</ele>
        <time>2020-10-24T13:37:40.000Z</time>
      </trkpt>
      <trkpt lat="46.44081" lon="5.33597">
        <ele>243</ele>
        <time>2020-10-24T13:37:41.000Z</time>
      </trkpt>
      <trkpt lat="46.44085" lon="5.33606">
        <ele>243</ele>
        <time>2020-10-24T13:37:42.000Z</time>
      </trkpt>
      <trkpt lat="46.44095" lon="5.33621">
        <ele>243.19999694824</ele>
        <time>2020-10-24T13:37:44.000Z</time>
      </trkpt>
      <trkpt lat="46.44101" lon="5.33628">
        <ele>243.19999694824</ele>
        <time>2020-10-24T13:37:45.000Z</time>
      </trkpt>
      <trkpt lat="46.44106" lon="5.33635">
        <ele>243.19999694824</ele>
        <time>2020-10-24T13:37:46.000Z</time>
      </trkpt>
      <trkpt lat="46.44118" lon="5.33648">
        <ele>243.19999694824</ele>
        <time>2020-10-24T13:37:48.000Z</time>
      </trkpt>
      <trkpt lat="46.44129" lon="5.33661">
        <ele>243.39999389648</ele>
        <time>2020-10-24T13:37:50.000Z</time>
      </trkpt>
      <trkpt lat="46.44141" lon="5.33674">
        <ele>243.39999389648</ele>
        <time>2020-10-24T13:37:52.000Z</time>
      </trkpt>
      <trkpt lat="46.44153" lon="5.33687">
        <ele>243.39999389648</ele>
        <time>2020-10-24T13:37:54.000Z</time>
      </trkpt>
      <trkpt lat="46.44158" lon="5.33693">
        <ele>243.39999389648</ele>
        <time>2020-10-24T13:37:55.000Z</time>
      </trkpt>
      <trkpt lat="46.44164" lon="5.33699">
        <ele>243.39999389648</ele>
        <time>2020-10-24T13:37:56.000Z</time>
      </trkpt>
      <trkpt lat="46.44176" lon="5.33711">
        <ele>243.60000610352</ele>
        <time>2020-10-24T13:37:58.000Z</time>
      </trkpt>
      <trkpt lat="46.44188" lon="5.33723">
        <ele>243.60000610352</ele>
        <time>2020-10-24T13:38:00.000Z</time>
      </trkpt>
      <trkpt lat="46.442" lon="5.33734">
        <ele>243.80000305176</ele>
        <time>2020-10-24T13:38:02.000Z</time>
      </trkpt>
      <trkpt lat="46.44213" lon="5.33743">
        <ele>243.80000305176</ele>
        <time>2020-10-24T13:38:04.000Z</time>
      </trkpt>
      <trkpt lat="46.44219" lon="5.33748">
        <ele>244</ele>
        <time>2020-10-24T13:38:05.000Z</time>
      </trkpt>
      <trkpt lat="46.44225" lon="5.33752">
        <ele>244</ele>
        <time>2020-10-24T13:38:06.000Z</time>
      </trkpt>
      <trkpt lat="46.44238" lon="5.33761">
        <ele>244</ele>
        <time>2020-10-24T13:38:08.000Z</time>
      </trkpt>
      <trkpt lat="46.44251" lon="5.3377">
        <ele>244.19999694824</ele>
        <time>2020-10-24T13:38:10.000Z</time>
      </trkpt>
      <trkpt lat="46.44263" lon="5.33779">
        <ele>244.19999694824</ele>
        <time>2020-10-24T13:38:12.000Z</time>
      </trkpt>
      <trkpt lat="46.4427" lon="5.33784">
        <ele>244.39999389648</ele>
        <time>2020-10-24T13:38:13.000Z</time>
      </trkpt>
      <trkpt lat="46.44276" lon="5.33789">
        <ele>244.39999389648</ele>
        <time>2020-10-24T13:38:14.000Z</time>
      </trkpt>
      <trkpt lat="46.44288" lon="5.33799">
        <ele>244.60000610352</ele>
        <time>2020-10-24T13:38:16.000Z</time>
      </trkpt>
      <trkpt lat="46.44301" lon="5.3381">
        <ele>244.60000610352</ele>
        <time>2020-10-24T13:38:18.000Z</time>
      </trkpt>
      <trkpt lat="46.44313" lon="5.33822">
        <ele>244.80000305176</ele>
        <time>2020-10-24T13:38:20.000Z</time>
      </trkpt>
      <trkpt lat="46.44319" lon="5.33829">
        <ele>244.80000305176</ele>
        <time>2020-10-24T13:38:21.000Z</time>
      </trkpt>
      <trkpt lat="46.44325" lon="5.33835">
        <ele>245</ele>
        <time>2020-10-24T13:38:22.000Z</time>
      </trkpt>
      <trkpt lat="46.44336" lon="5.33849">
        <ele>245</ele>
        <time>2020-10-24T13:38:24.000Z</time>
      </trkpt>
      <trkpt lat="46.44347" lon="5.33864">
        <ele>245.19999694824</ele>
        <time>2020-10-24T13:38:26.000Z</time>
      </trkpt>
      <trkpt lat="46.44357" lon="5.33879">
        <ele>245.19999694824</ele>
        <time>2020-10-24T13:38:28.000Z</time>
      </trkpt>
      <trkpt lat="46.44368" lon="5.33893">
        <ele>245.39999389648</ele>
        <time>2020-10-24T13:38:30.000Z</time>
      </trkpt>
      <trkpt lat="46.44379" lon="5.33908">
        <ele>245.80000305176</ele>
        <time>2020-10-24T13:38:32.000Z</time>
      </trkpt>
      <trkpt lat="46.44391" lon="5.3392">
        <ele>245.80000305176</ele>
        <time>2020-10-24T13:38:34.000Z</time>
      </trkpt>
      <trkpt lat="46.44403" lon="5.33932">
        <ele>245.80000305176</ele>
        <time>2020-10-24T13:38:36.000Z</time>
      </trkpt>
      <trkpt lat="46.44416" lon="5.33942">
        <ele>246</ele>
        <time>2020-10-24T13:38:38.000Z</time>
      </trkpt>
      <trkpt lat="46.44428" lon="5.33952">
        <ele>246</ele>
        <time>2020-10-24T13:38:40.000Z</time>
      </trkpt>
      <trkpt lat="46.44441" lon="5.33961">
        <ele>246.19999694824</ele>
        <time>2020-10-24T13:38:42.000Z</time>
      </trkpt>
      <trkpt lat="46.44453" lon="5.33971">
        <ele>246.19999694824</ele>
        <time>2020-10-24T13:38:44.000Z</time>
      </trkpt>
      <trkpt lat="46.44465" lon="5.33982">
        <ele>246.19999694824</ele>
        <time>2020-10-24T13:38:46.000Z</time>
      </trkpt>
      <trkpt lat="46.44475" lon="5.33994">
        <ele>246.60000610352</ele>
        <time>2020-10-24T13:38:48.000Z</time>
      </trkpt>
      <trkpt lat="46.44485" lon="5.34008">
        <ele>246.80000305176</ele>
        <time>2020-10-24T13:38:50.000Z</time>
      </trkpt>
      <trkpt lat="46.4449" lon="5.34016">
        <ele>247</ele>
        <time>2020-10-24T13:38:51.000Z</time>
      </trkpt>
      <trkpt lat="46.44494" lon="5.34023">
        <ele>247.19999694824</ele>
        <time>2020-10-24T13:38:52.000Z</time>
      </trkpt>
      <trkpt lat="46.44503" lon="5.34039">
        <ele>247.39999389648</ele>
        <time>2020-10-24T13:38:54.000Z</time>
      </trkpt>
      <trkpt lat="46.4451" lon="5.34056">
        <ele>247.80000305176</ele>
        <time>2020-10-24T13:38:56.000Z</time>
      </trkpt>
      <trkpt lat="46.44517" lon="5.34074">
        <ele>248.19999694824</ele>
        <time>2020-10-24T13:38:58.000Z</time>
      </trkpt>
      <trkpt lat="46.4452" lon="5.34083">
        <ele>248.19999694824</ele>
        <time>2020-10-24T13:38:59.000Z</time>
      </trkpt>
      <trkpt lat="46.44523" lon="5.34092">
        <ele>248.19999694824</ele>
        <time>2020-10-24T13:39:00.000Z</time>
      </trkpt>
      <trkpt lat="46.44529" lon="5.3411">
        <ele>248.60000610352</ele>
        <time>2020-10-24T13:39:02.000Z</time>
      </trkpt>
      <trkpt lat="46.44534" lon="5.34129">
        <ele>248.80000305176</ele>
        <time>2020-10-24T13:39:04.000Z</time>
      </trkpt>
      <trkpt lat="46.44536" lon="5.34138">
        <ele>249</ele>
        <time>2020-10-24T13:39:05.000Z</time>
      </trkpt>
      <trkpt lat="46.44538" lon="5.34147">
        <ele>249</ele>
        <time>2020-10-24T13:39:06.000Z</time>
      </trkpt>
      <trkpt lat="46.44542" lon="5.34165">
        <ele>249.19999694824</ele>
        <time>2020-10-24T13:39:08.000Z</time>
      </trkpt>
      <trkpt lat="46.44544" lon="5.34183">
        <ele>249.19999694824</ele>
        <time>2020-10-24T13:39:10.000Z</time>
      </trkpt>
      <trkpt lat="46.44544" lon="5.34192">
        <ele>249.19999694824</ele>
        <time>2020-10-24T13:39:11.000Z</time>
      </trkpt>
      <trkpt lat="46.44544" lon="5.34201">
        <ele>249.39999389648</ele>
        <time>2020-10-24T13:39:12.000Z</time>
      </trkpt>
      <trkpt lat="46.44542" lon="5.34216">
        <ele>249.39999389648</ele>
        <time>2020-10-24T13:39:14.000Z</time>
      </trkpt>
      <trkpt lat="46.4454" lon="5.34223">
        <ele>249.60000610352</ele>
        <time>2020-10-24T13:39:15.000Z</time>
      </trkpt>
      <trkpt lat="46.44539" lon="5.34228">
        <ele>250</ele>
        <time>2020-10-24T13:39:16.000Z</time>
      </trkpt>
      <trkpt lat="46.44539" lon="5.34232">
        <ele>250.19999694824</ele>
        <time>2020-10-24T13:39:17.000Z</time>
      </trkpt>
      <trkpt lat="46.44539" lon="5.34234">
        <ele>250.39999389648</ele>
        <time>2020-10-24T13:39:18.000Z</time>
      </trkpt>
      <trkpt lat="46.4454" lon="5.34237">
        <ele>251</ele>
        <time>2020-10-24T13:39:20.000Z</time>
      </trkpt>
      <trkpt lat="46.44543" lon="5.34243">
        <ele>251.60000610352</ele>
        <time>2020-10-24T13:39:22.000Z</time>
      </trkpt>
      <trkpt lat="46.44545" lon="5.34247">
        <ele>252</ele>
        <time>2020-10-24T13:39:23.000Z</time>
      </trkpt>
      <trkpt lat="46.44548" lon="5.3425">
        <ele>252.39999389648</ele>
        <time>2020-10-24T13:39:24.000Z</time>
      </trkpt>
      <trkpt lat="46.44553" lon="5.34252">
        <ele>252.60000610352</ele>
        <time>2020-10-24T13:39:25.000Z</time>
      </trkpt>
      <trkpt lat="46.44558" lon="5.34253">
        <ele>252.80000305176</ele>
        <time>2020-10-24T13:39:26.000Z</time>
      </trkpt>
      <trkpt lat="46.44568" lon="5.34257">
        <ele>253.19999694824</ele>
        <time>2020-10-24T13:39:28.000Z</time>
      </trkpt>
      <trkpt lat="46.44578" lon="5.3426">
        <ele>253.19999694824</ele>
        <time>2020-10-24T13:39:30.000Z</time>
      </trkpt>
      <trkpt lat="46.44588" lon="5.34265">
        <ele>253.39999389648</ele>
        <time>2020-10-24T13:39:32.000Z</time>
      </trkpt>
      <trkpt lat="46.44599" lon="5.34272">
        <ele>253.39999389648</ele>
        <time>2020-10-24T13:39:34.000Z</time>
      </trkpt>
      <trkpt lat="46.44609" lon="5.34279">
        <ele>253.80000305176</ele>
        <time>2020-10-24T13:39:36.000Z</time>
      </trkpt>
      <trkpt lat="46.44619" lon="5.34287">
        <ele>254.19999694824</ele>
        <time>2020-10-24T13:39:38.000Z</time>
      </trkpt>
      <trkpt lat="46.4463" lon="5.34294">
        <ele>254.60000610352</ele>
        <time>2020-10-24T13:39:40.000Z</time>
      </trkpt>
      <trkpt lat="46.44641" lon="5.343">
        <ele>255</ele>
        <time>2020-10-24T13:39:42.000Z</time>
      </trkpt>
      <trkpt lat="46.44651" lon="5.34306">
        <ele>255.19999694824</ele>
        <time>2020-10-24T13:39:44.000Z</time>
      </trkpt>
      <trkpt lat="46.44656" lon="5.34309">
        <ele>255.39999389648</ele>
        <time>2020-10-24T13:39:45.000Z</time>
      </trkpt>
      <trkpt lat="46.44662" lon="5.3431">
        <ele>255.39999389648</ele>
        <time>2020-10-24T13:39:46.000Z</time>
      </trkpt>
      <trkpt lat="46.44671" lon="5.34301">
        <ele>255.60000610352</ele>
        <time>2020-10-24T13:39:48.000Z</time>
      </trkpt>
      <trkpt lat="46.44677" lon="5.34288">
        <ele>255.60000610352</ele>
        <time>2020-10-24T13:39:50.000Z</time>
      </trkpt>
      <trkpt lat="46.44685" lon="5.34281">
        <ele>255.80000305176</ele>
        <time>2020-10-24T13:39:52.000Z</time>
      </trkpt>
      <trkpt lat="46.44695" lon="5.34281">
        <ele>255.80000305176</ele>
        <time>2020-10-24T13:39:54.000Z</time>
      </trkpt>
      <trkpt lat="46.44705" lon="5.34281">
        <ele>256</ele>
        <time>2020-10-24T13:39:56.000Z</time>
      </trkpt>
      <trkpt lat="46.4471" lon="5.34281">
        <ele>256</ele>
        <time>2020-10-24T13:39:57.000Z</time>
      </trkpt>
      <trkpt lat="46.44715" lon="5.3428">
        <ele>256.20001220703</ele>
        <time>2020-10-24T13:39:58.000Z</time>
      </trkpt>
      <trkpt lat="46.4472" lon="5.34279">
        <ele>256.60000610352</ele>
        <time>2020-10-24T13:39:59.000Z</time>
      </trkpt>
      <trkpt lat="46.44725" lon="5.34277">
        <ele>257</ele>
        <time>2020-10-24T13:40:00.000Z</time>
      </trkpt>
      <trkpt lat="46.44729" lon="5.34274">
        <ele>257.20001220703</ele>
        <time>2020-10-24T13:40:01.000Z</time>
      </trkpt>
      <trkpt lat="46.44734" lon="5.34271">
        <ele>257.60000610352</ele>
        <time>2020-10-24T13:40:02.000Z</time>
      </trkpt>
      <trkpt lat="46.44738" lon="5.34267">
        <ele>257.79998779297</ele>
        <time>2020-10-24T13:40:03.000Z</time>
      </trkpt>
      <trkpt lat="46.44742" lon="5.34264">
        <ele>258.20001220703</ele>
        <time>2020-10-24T13:40:04.000Z</time>
      </trkpt>
      <trkpt lat="46.44747" lon="5.34261">
        <ele>258.39999389648</ele>
        <time>2020-10-24T13:40:05.000Z</time>
      </trkpt>
      <trkpt lat="46.44751" lon="5.34257">
        <ele>258.60000610352</ele>
        <time>2020-10-24T13:40:06.000Z</time>
      </trkpt>
      <trkpt lat="46.44758" lon="5.34248">
        <ele>259.20001220703</ele>
        <time>2020-10-24T13:40:08.000Z</time>
      </trkpt>
      <trkpt lat="46.44762" lon="5.34243">
        <ele>259.39999389648</ele>
        <time>2020-10-24T13:40:09.000Z</time>
      </trkpt>
      <trkpt lat="46.44765" lon="5.34238">
        <ele>259.60000610352</ele>
        <time>2020-10-24T13:40:10.000Z</time>
      </trkpt>
      <trkpt lat="46.44771" lon="5.34228">
        <ele>260.20001220703</ele>
        <time>2020-10-24T13:40:12.000Z</time>
      </trkpt>
      <trkpt lat="46.44777" lon="5.34217">
        <ele>260.39999389648</ele>
        <time>2020-10-24T13:40:14.000Z</time>
      </trkpt>
      <trkpt lat="46.44782" lon="5.34206">
        <ele>260.79998779297</ele>
        <time>2020-10-24T13:40:16.000Z</time>
      </trkpt>
      <trkpt lat="46.44787" lon="5.34194">
        <ele>261.39999389648</ele>
        <time>2020-10-24T13:40:18.000Z</time>
      </trkpt>
      <trkpt lat="46.44792" lon="5.34183">
        <ele>262</ele>
        <time>2020-10-24T13:40:20.000Z</time>
      </trkpt>
      <trkpt lat="46.44798" lon="5.34171">
        <ele>262.39999389648</ele>
        <time>2020-10-24T13:40:22.000Z</time>
      </trkpt>
      <trkpt lat="46.44802" lon="5.34159">
        <ele>262.60000610352</ele>
        <time>2020-10-24T13:40:24.000Z</time>
      </trkpt>
      <trkpt lat="46.44807" lon="5.34148">
        <ele>262.79998779297</ele>
        <time>2020-10-24T13:40:26.000Z</time>
      </trkpt>
      <trkpt lat="46.4481" lon="5.34143">
        <ele>263</ele>
        <time>2020-10-24T13:40:27.000Z</time>
      </trkpt>
      <trkpt lat="46.44813" lon="5.34138">
        <ele>263.20001220703</ele>
        <time>2020-10-24T13:40:28.000Z</time>
      </trkpt>
      <trkpt lat="46.4482" lon="5.34127">
        <ele>263.39999389648</ele>
        <time>2020-10-24T13:40:30.000Z</time>
      </trkpt>
      <trkpt lat="46.44827" lon="5.34117">
        <ele>263.79998779297</ele>
        <time>2020-10-24T13:40:32.000Z</time>
      </trkpt>
      <trkpt lat="46.44831" lon="5.34113">
        <ele>264</ele>
        <time>2020-10-24T13:40:33.000Z</time>
      </trkpt>
      <trkpt lat="46.44835" lon="5.34109">
        <ele>264.39999389648</ele>
        <time>2020-10-24T13:40:34.000Z</time>
      </trkpt>
      <trkpt lat="46.44843" lon="5.34101">
        <ele>264.79998779297</ele>
        <time>2020-10-24T13:40:36.000Z</time>
      </trkpt>
      <trkpt lat="46.44852" lon="5.34096">
        <ele>265.60000610352</ele>
        <time>2020-10-24T13:40:38.000Z</time>
      </trkpt>
      <trkpt lat="46.44861" lon="5.34092">
        <ele>266</ele>
        <time>2020-10-24T13:40:40.000Z</time>
      </trkpt>
      <trkpt lat="46.4487" lon="5.34089">
        <ele>266.39999389648</ele>
        <time>2020-10-24T13:40:42.000Z</time>
      </trkpt>
      <trkpt lat="46.44875" lon="5.34089">
        <ele>266.79998779297</ele>
        <time>2020-10-24T13:40:43.000Z</time>
      </trkpt>
      <trkpt lat="46.4488" lon="5.34088">
        <ele>267</ele>
        <time>2020-10-24T13:40:44.000Z</time>
      </trkpt>
      <trkpt lat="46.44889" lon="5.34088">
        <ele>267.20001220703</ele>
        <time>2020-10-24T13:40:46.000Z</time>
      </trkpt>
      <trkpt lat="46.44894" lon="5.34089">
        <ele>267.39999389648</ele>
        <time>2020-10-24T13:40:47.000Z</time>
      </trkpt>
      <trkpt lat="46.44899" lon="5.3409">
        <ele>267.79998779297</ele>
        <time>2020-10-24T13:40:48.000Z</time>
      </trkpt>
      <trkpt lat="46.44908" lon="5.34092">
        <ele>268.20001220703</ele>
        <time>2020-10-24T13:40:50.000Z</time>
      </trkpt>
      <trkpt lat="46.44917" lon="5.34095">
        <ele>268.60000610352</ele>
        <time>2020-10-24T13:40:52.000Z</time>
      </trkpt>
      <trkpt lat="46.44927" lon="5.34098">
        <ele>269</ele>
        <time>2020-10-24T13:40:54.000Z</time>
      </trkpt>
      <trkpt lat="46.44932" lon="5.341">
        <ele>269.20001220703</ele>
        <time>2020-10-24T13:40:55.000Z</time>
      </trkpt>
      <trkpt lat="46.44936" lon="5.34101">
        <ele>269.60000610352</ele>
        <time>2020-10-24T13:40:56.000Z</time>
      </trkpt>
      <trkpt lat="46.44946" lon="5.34104">
        <ele>270.20001220703</ele>
        <time>2020-10-24T13:40:58.000Z</time>
      </trkpt>
      <trkpt lat="46.44956" lon="5.34107">
        <ele>270.60000610352</ele>
        <time>2020-10-24T13:41:00.000Z</time>
      </trkpt>
      <trkpt lat="46.44965" lon="5.3411">
        <ele>270.79998779297</ele>
        <time>2020-10-24T13:41:02.000Z</time>
      </trkpt>
      <trkpt lat="46.44975" lon="5.34112">
        <ele>271</ele>
        <time>2020-10-24T13:41:04.000Z</time>
      </trkpt>
      <trkpt lat="46.4498" lon="5.34114">
        <ele>271.20001220703</ele>
        <time>2020-10-24T13:41:05.000Z</time>
      </trkpt>
      <trkpt lat="46.44985" lon="5.34115">
        <ele>271.79998779297</ele>
        <time>2020-10-24T13:41:06.000Z</time>
      </trkpt>
      <trkpt lat="46.44994" lon="5.34118">
        <ele>272.39999389648</ele>
        <time>2020-10-24T13:41:08.000Z</time>
      </trkpt>
      <trkpt lat="46.45004" lon="5.3412">
        <ele>272.60000610352</ele>
        <time>2020-10-24T13:41:10.000Z</time>
      </trkpt>
      <trkpt lat="46.45014" lon="5.34121">
        <ele>273</ele>
        <time>2020-10-24T13:41:12.000Z</time>
      </trkpt>
      <trkpt lat="46.45023" lon="5.34123">
        <ele>273.39999389648</ele>
        <time>2020-10-24T13:41:14.000Z</time>
      </trkpt>
      <trkpt lat="46.45028" lon="5.34123">
        <ele>273.60000610352</ele>
        <time>2020-10-24T13:41:15.000Z</time>
      </trkpt>
      <trkpt lat="46.45033" lon="5.34123">
        <ele>273.60000610352</ele>
        <time>2020-10-24T13:41:16.000Z</time>
      </trkpt>
      <trkpt lat="46.45042" lon="5.34123">
        <ele>274.20001220703</ele>
        <time>2020-10-24T13:41:18.000Z</time>
      </trkpt>
      <trkpt lat="46.45051" lon="5.34122">
        <ele>274.60000610352</ele>
        <time>2020-10-24T13:41:20.000Z</time>
      </trkpt>
      <trkpt lat="46.45061" lon="5.34122">
        <ele>275.20001220703</ele>
        <time>2020-10-24T13:41:22.000Z</time>
      </trkpt>
      <trkpt lat="46.45071" lon="5.3412">
        <ele>275.39999389648</ele>
        <time>2020-10-24T13:41:24.000Z</time>
      </trkpt>
      <trkpt lat="46.45081" lon="5.34118">
        <ele>275.79998779297</ele>
        <time>2020-10-24T13:41:26.000Z</time>
      </trkpt>
      <trkpt lat="46.45091" lon="5.34116">
        <ele>276.20001220703</ele>
        <time>2020-10-24T13:41:28.000Z</time>
      </trkpt>
      <trkpt lat="46.45102" lon="5.34114">
        <ele>276.79998779297</ele>
        <time>2020-10-24T13:41:30.000Z</time>
      </trkpt>
      <trkpt lat="46.45107" lon="5.34113">
        <ele>277</ele>
        <time>2020-10-24T13:41:31.000Z</time>
      </trkpt>
      <trkpt lat="46.45113" lon="5.34112">
        <ele>277.20001220703</ele>
        <time>2020-10-24T13:41:32.000Z</time>
      </trkpt>
      <trkpt lat="46.45123" lon="5.34109">
        <ele>277.60000610352</ele>
        <time>2020-10-24T13:41:34.000Z</time>
      </trkpt>
      <trkpt lat="46.45134" lon="5.34107">
        <ele>277.79998779297</ele>
        <time>2020-10-24T13:41:36.000Z</time>
      </trkpt>
      <trkpt lat="46.45146" lon="5.34105">
        <ele>278</ele>
        <time>2020-10-24T13:41:38.000Z</time>
      </trkpt>
      <trkpt lat="46.45157" lon="5.34102">
        <ele>278</ele>
        <time>2020-10-24T13:41:40.000Z</time>
      </trkpt>
      <trkpt lat="46.45169" lon="5.34099">
        <ele>278</ele>
        <time>2020-10-24T13:41:42.000Z</time>
      </trkpt>
      <trkpt lat="46.45181" lon="5.34096">
        <ele>278</ele>
        <time>2020-10-24T13:41:44.000Z</time>
      </trkpt>
      <trkpt lat="46.45193" lon="5.34094">
        <ele>278</ele>
        <time>2020-10-24T13:41:46.000Z</time>
      </trkpt>
      <trkpt lat="46.45206" lon="5.34091">
        <ele>277.60000610352</ele>
        <time>2020-10-24T13:41:48.000Z</time>
      </trkpt>
      <trkpt lat="46.45218" lon="5.34088">
        <ele>277.60000610352</ele>
        <time>2020-10-24T13:41:50.000Z</time>
      </trkpt>
      <trkpt lat="46.45225" lon="5.34087">
        <ele>277.39999389648</ele>
        <time>2020-10-24T13:41:51.000Z</time>
      </trkpt>
      <trkpt lat="46.45231" lon="5.34085">
        <ele>277.20001220703</ele>
        <time>2020-10-24T13:41:52.000Z</time>
      </trkpt>
      <trkpt lat="46.45244" lon="5.34083">
        <ele>277</ele>
        <time>2020-10-24T13:41:54.000Z</time>
      </trkpt>
      <trkpt lat="46.45257" lon="5.3408">
        <ele>276.39999389648</ele>
        <time>2020-10-24T13:41:56.000Z</time>
      </trkpt>
      <trkpt lat="46.4527" lon="5.34077">
        <ele>276</ele>
        <time>2020-10-24T13:41:58.000Z</time>
      </trkpt>
      <trkpt lat="46.45283" lon="5.34074">
        <ele>275.79998779297</ele>
        <time>2020-10-24T13:42:00.000Z</time>
      </trkpt>
      <trkpt lat="46.45289" lon="5.34073">
        <ele>275.60000610352</ele>
        <time>2020-10-24T13:42:01.000Z</time>
      </trkpt>
      <trkpt lat="46.45296" lon="5.34071">
        <ele>275.39999389648</ele>
        <time>2020-10-24T13:42:02.000Z</time>
      </trkpt>
      <trkpt lat="46.45309" lon="5.34068">
        <ele>275.20001220703</ele>
        <time>2020-10-24T13:42:04.000Z</time>
      </trkpt>
      <trkpt lat="46.45322" lon="5.34064">
        <ele>275</ele>
        <time>2020-10-24T13:42:06.000Z</time>
      </trkpt>
      <trkpt lat="46.45328" lon="5.34063">
        <ele>274.79998779297</ele>
        <time>2020-10-24T13:42:07.000Z</time>
      </trkpt>
      <trkpt lat="46.45335" lon="5.34062">
        <ele>274.79998779297</ele>
        <time>2020-10-24T13:42:08.000Z</time>
      </trkpt>
      <trkpt lat="46.45347" lon="5.3406">
        <ele>274.39999389648</ele>
        <time>2020-10-24T13:42:10.000Z</time>
      </trkpt>
      <trkpt lat="46.45359" lon="5.34058">
        <ele>274</ele>
        <time>2020-10-24T13:42:12.000Z</time>
      </trkpt>
      <trkpt lat="46.45373" lon="5.34055">
        <ele>273.79998779297</ele>
        <time>2020-10-24T13:42:14.000Z</time>
      </trkpt>
      <trkpt lat="46.45389" lon="5.34053">
        <ele>273.60000610352</ele>
        <time>2020-10-24T13:42:16.000Z</time>
      </trkpt>
      <trkpt lat="46.45405" lon="5.34051">
        <ele>273.20001220703</ele>
        <time>2020-10-24T13:42:18.000Z</time>
      </trkpt>
      <trkpt lat="46.45413" lon="5.34049">
        <ele>273.20001220703</ele>
        <time>2020-10-24T13:42:19.000Z</time>
      </trkpt>
      <trkpt lat="46.4542" lon="5.34048">
        <ele>273</ele>
        <time>2020-10-24T13:42:20.000Z</time>
      </trkpt>
      <trkpt lat="46.45436" lon="5.34046">
        <ele>272.60000610352</ele>
        <time>2020-10-24T13:42:22.000Z</time>
      </trkpt>
      <trkpt lat="46.45445" lon="5.34044">
        <ele>272.39999389648</ele>
        <time>2020-10-24T13:42:23.000Z</time>
      </trkpt>
      <trkpt lat="46.45453" lon="5.34042">
        <ele>272.20001220703</ele>
        <time>2020-10-24T13:42:24.000Z</time>
      </trkpt>
      <trkpt lat="46.45461" lon="5.34039">
        <ele>271.79998779297</ele>
        <time>2020-10-24T13:42:25.000Z</time>
      </trkpt>
      <trkpt lat="46.45469" lon="5.34035">
        <ele>271.20001220703</ele>
        <time>2020-10-24T13:42:26.000Z</time>
      </trkpt>
      <trkpt lat="46.45486" lon="5.34025">
        <ele>270.60000610352</ele>
        <time>2020-10-24T13:42:28.000Z</time>
      </trkpt>
      <trkpt lat="46.45495" lon="5.34018">
        <ele>269.79998779297</ele>
        <time>2020-10-24T13:42:29.000Z</time>
      </trkpt>
      <trkpt lat="46.45504" lon="5.34011">
        <ele>269.60000610352</ele>
        <time>2020-10-24T13:42:30.000Z</time>
      </trkpt>
      <trkpt lat="46.4552" lon="5.33995">
        <ele>269.20001220703</ele>
        <time>2020-10-24T13:42:32.000Z</time>
      </trkpt>
      <trkpt lat="46.45528" lon="5.33986">
        <ele>268.79998779297</ele>
        <time>2020-10-24T13:42:33.000Z</time>
      </trkpt>
      <trkpt lat="46.45536" lon="5.33977">
        <ele>268.39999389648</ele>
        <time>2020-10-24T13:42:34.000Z</time>
      </trkpt>
      <trkpt lat="46.45543" lon="5.33967">
        <ele>268</ele>
        <time>2020-10-24T13:42:35.000Z</time>
      </trkpt>
      <trkpt lat="46.4555" lon="5.33956">
        <ele>267.60000610352</ele>
        <time>2020-10-24T13:42:36.000Z</time>
      </trkpt>
      <trkpt lat="46.45563" lon="5.33932">
        <ele>266.39999389648</ele>
        <time>2020-10-24T13:42:38.000Z</time>
      </trkpt>
      <trkpt lat="46.45569" lon="5.33919">
        <ele>266</ele>
        <time>2020-10-24T13:42:39.000Z</time>
      </trkpt>
      <trkpt lat="46.45574" lon="5.33906">
        <ele>265.60000610352</ele>
        <time>2020-10-24T13:42:40.000Z</time>
      </trkpt>
      <trkpt lat="46.4558" lon="5.33893">
        <ele>265.20001220703</ele>
        <time>2020-10-24T13:42:41.000Z</time>
      </trkpt>
      <trkpt lat="46.45586" lon="5.3388">
        <ele>264.60000610352</ele>
        <time>2020-10-24T13:42:42.000Z</time>
      </trkpt>
      <trkpt lat="46.45592" lon="5.33867">
        <ele>264</ele>
        <time>2020-10-24T13:42:43.000Z</time>
      </trkpt>
      <trkpt lat="46.45598" lon="5.33853">
        <ele>263.60000610352</ele>
        <time>2020-10-24T13:42:44.000Z</time>
      </trkpt>
      <trkpt lat="46.45603" lon="5.3384">
        <ele>263</ele>
        <time>2020-10-24T13:42:45.000Z</time>
      </trkpt>
      <trkpt lat="46.45609" lon="5.33826">
        <ele>262.39999389648</ele>
        <time>2020-10-24T13:42:46.000Z</time>
      </trkpt>
      <trkpt lat="46.45621" lon="5.33799">
        <ele>261.20001220703</ele>
        <time>2020-10-24T13:42:48.000Z</time>
      </trkpt>
      <trkpt lat="46.45632" lon="5.33772">
        <ele>260.20001220703</ele>
        <time>2020-10-24T13:42:50.000Z</time>
      </trkpt>
      <trkpt lat="46.45644" lon="5.33745">
        <ele>259.60000610352</ele>
        <time>2020-10-24T13:42:52.000Z</time>
      </trkpt>
      <trkpt lat="46.4565" lon="5.33732">
        <ele>259</ele>
        <time>2020-10-24T13:42:53.000Z</time>
      </trkpt>
      <trkpt lat="46.45655" lon="5.33718">
        <ele>258.60000610352</ele>
        <time>2020-10-24T13:42:54.000Z</time>
      </trkpt>
      <trkpt lat="46.45666" lon="5.33692">
        <ele>257.79998779297</ele>
        <time>2020-10-24T13:42:56.000Z</time>
      </trkpt>
      <trkpt lat="46.45677" lon="5.33664">
        <ele>257</ele>
        <time>2020-10-24T13:42:58.000Z</time>
      </trkpt>
      <trkpt lat="46.45682" lon="5.33651">
        <ele>256.79998779297</ele>
        <time>2020-10-24T13:42:59.000Z</time>
      </trkpt>
      <trkpt lat="46.45687" lon="5.33639">
        <ele>256.39999389648</ele>
        <time>2020-10-24T13:43:00.000Z</time>
      </trkpt>
      <trkpt lat="46.45698" lon="5.33614">
        <ele>255.80000305176</ele>
        <time>2020-10-24T13:43:02.000Z</time>
      </trkpt>
      <trkpt lat="46.45708" lon="5.33589">
        <ele>255.19999694824</ele>
        <time>2020-10-24T13:43:04.000Z</time>
      </trkpt>
      <trkpt lat="46.45718" lon="5.33565">
        <ele>254.80000305176</ele>
        <time>2020-10-24T13:43:06.000Z</time>
      </trkpt>
      <trkpt lat="46.45729" lon="5.33539">
        <ele>254.80000305176</ele>
        <time>2020-10-24T13:43:08.000Z</time>
      </trkpt>
      <trkpt lat="46.4574" lon="5.33513">
        <ele>254.60000610352</ele>
        <time>2020-10-24T13:43:10.000Z</time>
      </trkpt>
      <trkpt lat="46.45751" lon="5.33487">
        <ele>254.60000610352</ele>
        <time>2020-10-24T13:43:12.000Z</time>
      </trkpt>
      <trkpt lat="46.45761" lon="5.33461">
        <ele>254.19999694824</ele>
        <time>2020-10-24T13:43:14.000Z</time>
      </trkpt>
      <trkpt lat="46.45766" lon="5.33449">
        <ele>253.80000305176</ele>
        <time>2020-10-24T13:43:15.000Z</time>
      </trkpt>
      <trkpt lat="46.45772" lon="5.33436">
        <ele>253.19999694824</ele>
        <time>2020-10-24T13:43:16.000Z</time>
      </trkpt>
      <trkpt lat="46.45782" lon="5.33412">
        <ele>252.39999389648</ele>
        <time>2020-10-24T13:43:18.000Z</time>
      </trkpt>
      <trkpt lat="46.45787" lon="5.33401">
        <ele>252</ele>
        <time>2020-10-24T13:43:19.000Z</time>
      </trkpt>
      <trkpt lat="46.45793" lon="5.33389">
        <ele>251.80000305176</ele>
        <time>2020-10-24T13:43:20.000Z</time>
      </trkpt>
      <trkpt lat="46.45804" lon="5.33367">
        <ele>251.60000610352</ele>
        <time>2020-10-24T13:43:22.000Z</time>
      </trkpt>
      <trkpt lat="46.45815" lon="5.33345">
        <ele>251.60000610352</ele>
        <time>2020-10-24T13:43:24.000Z</time>
      </trkpt>
      <trkpt lat="46.45827" lon="5.33324">
        <ele>251.39999389648</ele>
        <time>2020-10-24T13:43:26.000Z</time>
      </trkpt>
      <trkpt lat="46.45838" lon="5.33302">
        <ele>251.19999694824</ele>
        <time>2020-10-24T13:43:28.000Z</time>
      </trkpt>
      <trkpt lat="46.45848" lon="5.33282">
        <ele>251</ele>
        <time>2020-10-24T13:43:30.000Z</time>
      </trkpt>
      <trkpt lat="46.45854" lon="5.33272">
        <ele>251</ele>
        <time>2020-10-24T13:43:31.000Z</time>
      </trkpt>
      <trkpt lat="46.4586" lon="5.33262">
        <ele>251</ele>
        <time>2020-10-24T13:43:32.000Z</time>
      </trkpt>
      <trkpt lat="46.45866" lon="5.33253">
        <ele>251</ele>
        <time>2020-10-24T13:43:33.000Z</time>
      </trkpt>
      <trkpt lat="46.45872" lon="5.33244">
        <ele>251</ele>
        <time>2020-10-24T13:43:34.000Z</time>
      </trkpt>
      <trkpt lat="46.45885" lon="5.33228">
        <ele>251</ele>
        <time>2020-10-24T13:43:36.000Z</time>
      </trkpt>
      <trkpt lat="46.45892" lon="5.3322">
        <ele>251</ele>
        <time>2020-10-24T13:43:37.000Z</time>
      </trkpt>
      <trkpt lat="46.45899" lon="5.33212">
        <ele>251</ele>
        <time>2020-10-24T13:43:38.000Z</time>
      </trkpt>
      <trkpt lat="46.45913" lon="5.33197">
        <ele>250.80000305176</ele>
        <time>2020-10-24T13:43:40.000Z</time>
      </trkpt>
      <trkpt lat="46.45926" lon="5.33182">
        <ele>250.80000305176</ele>
        <time>2020-10-24T13:43:42.000Z</time>
      </trkpt>
      <trkpt lat="46.4594" lon="5.33167">
        <ele>250.80000305176</ele>
        <time>2020-10-24T13:43:44.000Z</time>
      </trkpt>
      <trkpt lat="46.45954" lon="5.33151">
        <ele>250.80000305176</ele>
        <time>2020-10-24T13:43:46.000Z</time>
      </trkpt>
      <trkpt lat="46.45961" lon="5.33143">
        <ele>250.80000305176</ele>
        <time>2020-10-24T13:43:47.000Z</time>
      </trkpt>
      <trkpt lat="46.45968" lon="5.33135">
        <ele>250.80000305176</ele>
        <time>2020-10-24T13:43:48.000Z</time>
      </trkpt>
      <trkpt lat="46.45983" lon="5.3312">
        <ele>250.80000305176</ele>
        <time>2020-10-24T13:43:50.000Z</time>
      </trkpt>
      <trkpt lat="46.45997" lon="5.33105">
        <ele>250.80000305176</ele>
        <time>2020-10-24T13:43:52.000Z</time>
      </trkpt>
      <trkpt lat="46.46012" lon="5.33091">
        <ele>250.60000610352</ele>
        <time>2020-10-24T13:43:54.000Z</time>
      </trkpt>
      <trkpt lat="46.46027" lon="5.33076">
        <ele>250.19999694824</ele>
        <time>2020-10-24T13:43:56.000Z</time>
      </trkpt>
      <trkpt lat="46.46041" lon="5.33062">
        <ele>250</ele>
        <time>2020-10-24T13:43:58.000Z</time>
      </trkpt>
      <trkpt lat="46.46048" lon="5.33055">
        <ele>250</ele>
        <time>2020-10-24T13:43:59.000Z</time>
      </trkpt>
      <trkpt lat="46.46056" lon="5.33048">
        <ele>250</ele>
        <time>2020-10-24T13:44:00.000Z</time>
      </trkpt>
      <trkpt lat="46.46063" lon="5.33042">
        <ele>250</ele>
        <time>2020-10-24T13:44:01.000Z</time>
      </trkpt>
      <trkpt lat="46.4607" lon="5.33035">
        <ele>250</ele>
        <time>2020-10-24T13:44:02.000Z</time>
      </trkpt>
      <trkpt lat="46.46085" lon="5.33023">
        <ele>249.80000305176</ele>
        <time>2020-10-24T13:44:04.000Z</time>
      </trkpt>
      <trkpt lat="46.46101" lon="5.33012">
        <ele>249.80000305176</ele>
        <time>2020-10-24T13:44:06.000Z</time>
      </trkpt>
      <trkpt lat="46.46117" lon="5.33003">
        <ele>249.80000305176</ele>
        <time>2020-10-24T13:44:08.000Z</time>
      </trkpt>
      <trkpt lat="46.46133" lon="5.32993">
        <ele>249.80000305176</ele>
        <time>2020-10-24T13:44:10.000Z</time>
      </trkpt>
      <trkpt lat="46.46149" lon="5.32983">
        <ele>249.80000305176</ele>
        <time>2020-10-24T13:44:12.000Z</time>
      </trkpt>
      <trkpt lat="46.46166" lon="5.32972">
        <ele>249.80000305176</ele>
        <time>2020-10-24T13:44:14.000Z</time>
      </trkpt>
      <trkpt lat="46.46175" lon="5.32967">
        <ele>249.80000305176</ele>
        <time>2020-10-24T13:44:15.000Z</time>
      </trkpt>
      <trkpt lat="46.46183" lon="5.32961">
        <ele>249.80000305176</ele>
        <time>2020-10-24T13:44:16.000Z</time>
      </trkpt>
      <trkpt lat="46.462" lon="5.32949">
        <ele>249.60000610352</ele>
        <time>2020-10-24T13:44:18.000Z</time>
      </trkpt>
      <trkpt lat="46.46214" lon="5.32933">
        <ele>249.39999389648</ele>
        <time>2020-10-24T13:44:20.000Z</time>
      </trkpt>
      <trkpt lat="46.46227" lon="5.32915">
        <ele>249</ele>
        <time>2020-10-24T13:44:22.000Z</time>
      </trkpt>
      <trkpt lat="46.46233" lon="5.32906">
        <ele>248.80000305176</ele>
        <time>2020-10-24T13:44:23.000Z</time>
      </trkpt>
      <trkpt lat="46.46239" lon="5.32896">
        <ele>248.60000610352</ele>
        <time>2020-10-24T13:44:24.000Z</time>
      </trkpt>
      <trkpt lat="46.46245" lon="5.32887">
        <ele>248.39999389648</ele>
        <time>2020-10-24T13:44:25.000Z</time>
      </trkpt>
      <trkpt lat="46.46251" lon="5.32878">
        <ele>248.39999389648</ele>
        <time>2020-10-24T13:44:26.000Z</time>
      </trkpt>
      <trkpt lat="46.46263" lon="5.3286">
        <ele>248.39999389648</ele>
        <time>2020-10-24T13:44:28.000Z</time>
      </trkpt>
      <trkpt lat="46.46275" lon="5.32843">
        <ele>248.39999389648</ele>
        <time>2020-10-24T13:44:30.000Z</time>
      </trkpt>
      <trkpt lat="46.46287" lon="5.32828">
        <ele>248.39999389648</ele>
        <time>2020-10-24T13:44:32.000Z</time>
      </trkpt>
      <trkpt lat="46.46299" lon="5.32812">
        <ele>248.39999389648</ele>
        <time>2020-10-24T13:44:34.000Z</time>
      </trkpt>
      <trkpt lat="46.4631" lon="5.32795">
        <ele>248.39999389648</ele>
        <time>2020-10-24T13:44:36.000Z</time>
      </trkpt>
      <trkpt lat="46.46314" lon="5.32786">
        <ele>248.39999389648</ele>
        <time>2020-10-24T13:44:37.000Z</time>
      </trkpt>
      <trkpt lat="46.46318" lon="5.32776">
        <ele>248.39999389648</ele>
        <time>2020-10-24T13:44:38.000Z</time>
      </trkpt>
      <trkpt lat="46.46323" lon="5.32753">
        <ele>248.39999389648</ele>
        <time>2020-10-24T13:44:40.000Z</time>
      </trkpt>
      <trkpt lat="46.46325" lon="5.3273">
        <ele>248.39999389648</ele>
        <time>2020-10-24T13:44:42.000Z</time>
      </trkpt>
      <trkpt lat="46.46326" lon="5.32719">
        <ele>248.39999389648</ele>
        <time>2020-10-24T13:44:43.000Z</time>
      </trkpt>
      <trkpt lat="46.46325" lon="5.32708">
        <ele>248.39999389648</ele>
        <time>2020-10-24T13:44:44.000Z</time>
      </trkpt>
      <trkpt lat="46.46325" lon="5.32685">
        <ele>248.39999389648</ele>
        <time>2020-10-24T13:44:46.000Z</time>
      </trkpt>
      <trkpt lat="46.46324" lon="5.32663">
        <ele>248</ele>
        <time>2020-10-24T13:44:48.000Z</time>
      </trkpt>
      <trkpt lat="46.46324" lon="5.32652">
        <ele>247.80000305176</ele>
        <time>2020-10-24T13:44:49.000Z</time>
      </trkpt>
      <trkpt lat="46.46324" lon="5.32641">
        <ele>247.80000305176</ele>
        <time>2020-10-24T13:44:50.000Z</time>
      </trkpt>
      <trkpt lat="46.46324" lon="5.3262">
        <ele>247.60000610352</ele>
        <time>2020-10-24T13:44:52.000Z</time>
      </trkpt>
      <trkpt lat="46.46326" lon="5.32598">
        <ele>247.60000610352</ele>
        <time>2020-10-24T13:44:54.000Z</time>
      </trkpt>
      <trkpt lat="46.46327" lon="5.32588">
        <ele>247.60000610352</ele>
        <time>2020-10-24T13:44:55.000Z</time>
      </trkpt>
      <trkpt lat="46.46329" lon="5.32578">
        <ele>247.60000610352</ele>
        <time>2020-10-24T13:44:56.000Z</time>
      </trkpt>
      <trkpt lat="46.46333" lon="5.32559">
        <ele>247.80000305176</ele>
        <time>2020-10-24T13:44:58.000Z</time>
      </trkpt>
      <trkpt lat="46.46339" lon="5.3254">
        <ele>248</ele>
        <time>2020-10-24T13:45:00.000Z</time>
      </trkpt>
      <trkpt lat="46.46342" lon="5.32531">
        <ele>248.19999694824</ele>
        <time>2020-10-24T13:45:01.000Z</time>
      </trkpt>
      <trkpt lat="46.46345" lon="5.32522">
        <ele>248.19999694824</ele>
        <time>2020-10-24T13:45:02.000Z</time>
      </trkpt>
      <trkpt lat="46.46353" lon="5.32504">
        <ele>248.60000610352</ele>
        <time>2020-10-24T13:45:04.000Z</time>
      </trkpt>
      <trkpt lat="46.4636" lon="5.32486">
        <ele>248.80000305176</ele>
        <time>2020-10-24T13:45:06.000Z</time>
      </trkpt>
      <trkpt lat="46.46364" lon="5.32478">
        <ele>248.80000305176</ele>
        <time>2020-10-24T13:45:07.000Z</time>
      </trkpt>
      <trkpt lat="46.46367" lon="5.32469">
        <ele>248.80000305176</ele>
        <time>2020-10-24T13:45:08.000Z</time>
      </trkpt>
      <trkpt lat="46.46371" lon="5.3246">
        <ele>248.80000305176</ele>
        <time>2020-10-24T13:45:09.000Z</time>
      </trkpt>
      <trkpt lat="46.46374" lon="5.32451">
        <ele>249</ele>
        <time>2020-10-24T13:45:10.000Z</time>
      </trkpt>
      <trkpt lat="46.4638" lon="5.32433">
        <ele>249</ele>
        <time>2020-10-24T13:45:12.000Z</time>
      </trkpt>
      <trkpt lat="46.46387" lon="5.32415">
        <ele>249</ele>
        <time>2020-10-24T13:45:14.000Z</time>
      </trkpt>
      <trkpt lat="46.46395" lon="5.32397">
        <ele>249</ele>
        <time>2020-10-24T13:45:16.000Z</time>
      </trkpt>
      <trkpt lat="46.46403" lon="5.3238">
        <ele>249</ele>
        <time>2020-10-24T13:45:18.000Z</time>
      </trkpt>
      <trkpt lat="46.46412" lon="5.32363">
        <ele>249</ele>
        <time>2020-10-24T13:45:20.000Z</time>
      </trkpt>
      <trkpt lat="46.46421" lon="5.32347">
        <ele>249</ele>
        <time>2020-10-24T13:45:22.000Z</time>
      </trkpt>
      <trkpt lat="46.4643" lon="5.3233">
        <ele>249</ele>
        <time>2020-10-24T13:45:24.000Z</time>
      </trkpt>
      <trkpt lat="46.46439" lon="5.32312">
        <ele>249</ele>
        <time>2020-10-24T13:45:26.000Z</time>
      </trkpt>
      <trkpt lat="46.46444" lon="5.32304">
        <ele>249</ele>
        <time>2020-10-24T13:45:27.000Z</time>
      </trkpt>
      <trkpt lat="46.46449" lon="5.32295">
        <ele>249</ele>
        <time>2020-10-24T13:45:28.000Z</time>
      </trkpt>
      <trkpt lat="46.46458" lon="5.32278">
        <ele>249</ele>
        <time>2020-10-24T13:45:30.000Z</time>
      </trkpt>
      <trkpt lat="46.46468" lon="5.32261">
        <ele>249</ele>
        <time>2020-10-24T13:45:32.000Z</time>
      </trkpt>
      <trkpt lat="46.46477" lon="5.32244">
        <ele>249</ele>
        <time>2020-10-24T13:45:34.000Z</time>
      </trkpt>
      <trkpt lat="46.46487" lon="5.32227">
        <ele>249</ele>
        <time>2020-10-24T13:45:36.000Z</time>
      </trkpt>
      <trkpt lat="46.46496" lon="5.3221">
        <ele>248.80000305176</ele>
        <time>2020-10-24T13:45:38.000Z</time>
      </trkpt>
      <trkpt lat="46.46501" lon="5.32201">
        <ele>248.80000305176</ele>
        <time>2020-10-24T13:45:39.000Z</time>
      </trkpt>
      <trkpt lat="46.46506" lon="5.32192">
        <ele>248.80000305176</ele>
        <time>2020-10-24T13:45:40.000Z</time>
      </trkpt>
      <trkpt lat="46.46515" lon="5.32174">
        <ele>248.80000305176</ele>
        <time>2020-10-24T13:45:42.000Z</time>
      </trkpt>
      <trkpt lat="46.46525" lon="5.32157">
        <ele>248.80000305176</ele>
        <time>2020-10-24T13:45:44.000Z</time>
      </trkpt>
      <trkpt lat="46.46535" lon="5.32139">
        <ele>248.60000610352</ele>
        <time>2020-10-24T13:45:46.000Z</time>
      </trkpt>
      <trkpt lat="46.46545" lon="5.32122">
        <ele>248.39999389648</ele>
        <time>2020-10-24T13:45:48.000Z</time>
      </trkpt>
      <trkpt lat="46.46554" lon="5.32104">
        <ele>248.39999389648</ele>
        <time>2020-10-24T13:45:50.000Z</time>
      </trkpt>
      <trkpt lat="46.46564" lon="5.32086">
        <ele>248.19999694824</ele>
        <time>2020-10-24T13:45:52.000Z</time>
      </trkpt>
      <trkpt lat="46.46574" lon="5.32069">
        <ele>248.19999694824</ele>
        <time>2020-10-24T13:45:54.000Z</time>
      </trkpt>
      <trkpt lat="46.46583" lon="5.32052">
        <ele>248.19999694824</ele>
        <time>2020-10-24T13:45:56.000Z</time>
      </trkpt>
      <trkpt lat="46.46592" lon="5.32035">
        <ele>248.19999694824</ele>
        <time>2020-10-24T13:45:58.000Z</time>
      </trkpt>
      <trkpt lat="46.46602" lon="5.32019">
        <ele>248.19999694824</ele>
        <time>2020-10-24T13:46:00.000Z</time>
      </trkpt>
      <trkpt lat="46.46611" lon="5.32002">
        <ele>248.19999694824</ele>
        <time>2020-10-24T13:46:02.000Z</time>
      </trkpt>
      <trkpt lat="46.46616" lon="5.31994">
        <ele>248.39999389648</ele>
        <time>2020-10-24T13:46:03.000Z</time>
      </trkpt>
      <trkpt lat="46.46621" lon="5.31986">
        <ele>248.39999389648</ele>
        <time>2020-10-24T13:46:04.000Z</time>
      </trkpt>
      <trkpt lat="46.4663" lon="5.3197">
        <ele>248.39999389648</ele>
        <time>2020-10-24T13:46:06.000Z</time>
      </trkpt>
      <trkpt lat="46.4664" lon="5.31954">
        <ele>248.39999389648</ele>
        <time>2020-10-24T13:46:08.000Z</time>
      </trkpt>
      <trkpt lat="46.46651" lon="5.31939">
        <ele>248.39999389648</ele>
        <time>2020-10-24T13:46:10.000Z</time>
      </trkpt>
      <trkpt lat="46.46657" lon="5.31932">
        <ele>248.39999389648</ele>
        <time>2020-10-24T13:46:11.000Z</time>
      </trkpt>
      <trkpt lat="46.46664" lon="5.31926">
        <ele>248.39999389648</ele>
        <time>2020-10-24T13:46:12.000Z</time>
      </trkpt>
      <trkpt lat="46.46677" lon="5.31913">
        <ele>248.19999694824</ele>
        <time>2020-10-24T13:46:14.000Z</time>
      </trkpt>
      <trkpt lat="46.46691" lon="5.31901">
        <ele>247.80000305176</ele>
        <time>2020-10-24T13:46:16.000Z</time>
      </trkpt>
      <trkpt lat="46.46698" lon="5.31896">
        <ele>247.80000305176</ele>
        <time>2020-10-24T13:46:17.000Z</time>
      </trkpt>
      <trkpt lat="46.46705" lon="5.3189">
        <ele>247.60000610352</ele>
        <time>2020-10-24T13:46:18.000Z</time>
      </trkpt>
      <trkpt lat="46.4672" lon="5.31879">
        <ele>247.19999694824</ele>
        <time>2020-10-24T13:46:20.000Z</time>
      </trkpt>
      <trkpt lat="46.46735" lon="5.31867">
        <ele>247</ele>
        <time>2020-10-24T13:46:22.000Z</time>
      </trkpt>
      <trkpt lat="46.46748" lon="5.31854">
        <ele>246.80000305176</ele>
        <time>2020-10-24T13:46:24.000Z</time>
      </trkpt>
      <trkpt lat="46.46754" lon="5.31848">
        <ele>246.80000305176</ele>
        <time>2020-10-24T13:46:25.000Z</time>
      </trkpt>
      <trkpt lat="46.4676" lon="5.31841">
        <ele>246.80000305176</ele>
        <time>2020-10-24T13:46:26.000Z</time>
      </trkpt>
      <trkpt lat="46.46772" lon="5.31827">
        <ele>246.80000305176</ele>
        <time>2020-10-24T13:46:28.000Z</time>
      </trkpt>
      <trkpt lat="46.46784" lon="5.31813">
        <ele>246.80000305176</ele>
        <time>2020-10-24T13:46:30.000Z</time>
      </trkpt>
      <trkpt lat="46.46795" lon="5.31798">
        <ele>246.80000305176</ele>
        <time>2020-10-24T13:46:32.000Z</time>
      </trkpt>
      <trkpt lat="46.46807" lon="5.31784">
        <ele>246.80000305176</ele>
        <time>2020-10-24T13:46:34.000Z</time>
      </trkpt>
      <trkpt lat="46.46818" lon="5.3177">
        <ele>246.80000305176</ele>
        <time>2020-10-24T13:46:36.000Z</time>
      </trkpt>
      <trkpt lat="46.46829" lon="5.31756">
        <ele>247</ele>
        <time>2020-10-24T13:46:38.000Z</time>
      </trkpt>
      <trkpt lat="46.4684" lon="5.31742">
        <ele>247</ele>
        <time>2020-10-24T13:46:40.000Z</time>
      </trkpt>
      <trkpt lat="46.46852" lon="5.31728">
        <ele>247</ele>
        <time>2020-10-24T13:46:42.000Z</time>
      </trkpt>
      <trkpt lat="46.46862" lon="5.31715">
        <ele>247.19999694824</ele>
        <time>2020-10-24T13:46:44.000Z</time>
      </trkpt>
      <trkpt lat="46.46873" lon="5.31702">
        <ele>247.19999694824</ele>
        <time>2020-10-24T13:46:46.000Z</time>
      </trkpt>
      <trkpt lat="46.46883" lon="5.3169">
        <ele>247.39999389648</ele>
        <time>2020-10-24T13:46:48.000Z</time>
      </trkpt>
      <trkpt lat="46.46888" lon="5.31684">
        <ele>247.60000610352</ele>
        <time>2020-10-24T13:46:49.000Z</time>
      </trkpt>
      <trkpt lat="46.46893" lon="5.31678">
        <ele>247.60000610352</ele>
        <time>2020-10-24T13:46:50.000Z</time>
      </trkpt>
      <trkpt lat="46.46903" lon="5.31666">
        <ele>247.80000305176</ele>
        <time>2020-10-24T13:46:52.000Z</time>
      </trkpt>
      <trkpt lat="46.46913" lon="5.31652">
        <ele>248</ele>
        <time>2020-10-24T13:46:54.000Z</time>
      </trkpt>
      <trkpt lat="46.46919" lon="5.31646">
        <ele>248</ele>
        <time>2020-10-24T13:46:55.000Z</time>
      </trkpt>
      <trkpt lat="46.46924" lon="5.31639">
        <ele>248.19999694824</ele>
        <time>2020-10-24T13:46:56.000Z</time>
      </trkpt>
      <trkpt lat="46.46935" lon="5.31625">
        <ele>248.39999389648</ele>
        <time>2020-10-24T13:46:58.000Z</time>
      </trkpt>
      <trkpt lat="46.46945" lon="5.31611">
        <ele>248.39999389648</ele>
        <time>2020-10-24T13:47:00.000Z</time>
      </trkpt>
      <trkpt lat="46.46955" lon="5.31597">
        <ele>248.39999389648</ele>
        <time>2020-10-24T13:47:02.000Z</time>
      </trkpt>
      <trkpt lat="46.46966" lon="5.31583">
        <ele>248.39999389648</ele>
        <time>2020-10-24T13:47:04.000Z</time>
      </trkpt>
      <trkpt lat="46.46978" lon="5.31568">
        <ele>248.39999389648</ele>
        <time>2020-10-24T13:47:06.000Z</time>
      </trkpt>
      <trkpt lat="46.4699" lon="5.31554">
        <ele>248.39999389648</ele>
        <time>2020-10-24T13:47:08.000Z</time>
      </trkpt>
      <trkpt lat="46.47002" lon="5.3154">
        <ele>248.19999694824</ele>
        <time>2020-10-24T13:47:10.000Z</time>
      </trkpt>
      <trkpt lat="46.47015" lon="5.31524">
        <ele>248.19999694824</ele>
        <time>2020-10-24T13:47:12.000Z</time>
      </trkpt>
      <trkpt lat="46.47028" lon="5.31507">
        <ele>248</ele>
        <time>2020-10-24T13:47:14.000Z</time>
      </trkpt>
      <trkpt lat="46.47041" lon="5.31491">
        <ele>248</ele>
        <time>2020-10-24T13:47:16.000Z</time>
      </trkpt>
      <trkpt lat="46.47055" lon="5.31476">
        <ele>247.80000305176</ele>
        <time>2020-10-24T13:47:18.000Z</time>
      </trkpt>
      <trkpt lat="46.47068" lon="5.3146">
        <ele>247.80000305176</ele>
        <time>2020-10-24T13:47:20.000Z</time>
      </trkpt>
      <trkpt lat="46.47081" lon="5.31444">
        <ele>247.39999389648</ele>
        <time>2020-10-24T13:47:22.000Z</time>
      </trkpt>
      <trkpt lat="46.47087" lon="5.31436">
        <ele>247.39999389648</ele>
        <time>2020-10-24T13:47:23.000Z</time>
      </trkpt>
      <trkpt lat="46.47092" lon="5.31428">
        <ele>247.39999389648</ele>
        <time>2020-10-24T13:47:24.000Z</time>
      </trkpt>
      <trkpt lat="46.47104" lon="5.31411">
        <ele>247.19999694824</ele>
        <time>2020-10-24T13:47:26.000Z</time>
      </trkpt>
      <trkpt lat="46.47115" lon="5.31395">
        <ele>247.19999694824</ele>
        <time>2020-10-24T13:47:28.000Z</time>
      </trkpt>
      <trkpt lat="46.47126" lon="5.31379">
        <ele>247.19999694824</ele>
        <time>2020-10-24T13:47:30.000Z</time>
      </trkpt>
      <trkpt lat="46.47137" lon="5.31363">
        <ele>247</ele>
        <time>2020-10-24T13:47:32.000Z</time>
      </trkpt>
      <trkpt lat="46.47147" lon="5.31348">
        <ele>246.80000305176</ele>
        <time>2020-10-24T13:47:34.000Z</time>
      </trkpt>
      <trkpt lat="46.47156" lon="5.31334">
        <ele>246.80000305176</ele>
        <time>2020-10-24T13:47:36.000Z</time>
      </trkpt>
      <trkpt lat="46.47167" lon="5.31318">
        <ele>246.60000610352</ele>
        <time>2020-10-24T13:47:38.000Z</time>
      </trkpt>
      <trkpt lat="46.47177" lon="5.31302">
        <ele>246.60000610352</ele>
        <time>2020-10-24T13:47:40.000Z</time>
      </trkpt>
      <trkpt lat="46.47187" lon="5.31285">
        <ele>246.39999389648</ele>
        <time>2020-10-24T13:47:42.000Z</time>
      </trkpt>
      <trkpt lat="46.47197" lon="5.3127">
        <ele>246.19999694824</ele>
        <time>2020-10-24T13:47:44.000Z</time>
      </trkpt>
      <trkpt lat="46.47208" lon="5.31255">
        <ele>246.19999694824</ele>
        <time>2020-10-24T13:47:46.000Z</time>
      </trkpt>
      <trkpt lat="46.47219" lon="5.31239">
        <ele>246</ele>
        <time>2020-10-24T13:47:48.000Z</time>
      </trkpt>
      <trkpt lat="46.4723" lon="5.31224">
        <ele>245.80000305176</ele>
        <time>2020-10-24T13:47:50.000Z</time>
      </trkpt>
      <trkpt lat="46.47235" lon="5.31217">
        <ele>245.60000610352</ele>
        <time>2020-10-24T13:47:51.000Z</time>
      </trkpt>
      <trkpt lat="46.47241" lon="5.3121">
        <ele>245.60000610352</ele>
        <time>2020-10-24T13:47:52.000Z</time>
      </trkpt>
      <trkpt lat="46.47252" lon="5.31193">
        <ele>245.39999389648</ele>
        <time>2020-10-24T13:47:54.000Z</time>
      </trkpt>
      <trkpt lat="46.47263" lon="5.31177">
        <ele>245.19999694824</ele>
        <time>2020-10-24T13:47:56.000Z</time>
      </trkpt>
      <trkpt lat="46.47275" lon="5.31161">
        <ele>245</ele>
        <time>2020-10-24T13:47:58.000Z</time>
      </trkpt>
      <trkpt lat="46.47287" lon="5.31145">
        <ele>244.80000305176</ele>
        <time>2020-10-24T13:48:00.000Z</time>
      </trkpt>
      <trkpt lat="46.47298" lon="5.31129">
        <ele>244.60000610352</ele>
        <time>2020-10-24T13:48:02.000Z</time>
      </trkpt>
      <trkpt lat="46.47304" lon="5.31121">
        <ele>244.60000610352</ele>
        <time>2020-10-24T13:48:03.000Z</time>
      </trkpt>
      <trkpt lat="46.47309" lon="5.31113">
        <ele>244.60000610352</ele>
        <time>2020-10-24T13:48:04.000Z</time>
      </trkpt>
      <trkpt lat="46.47321" lon="5.31097">
        <ele>244.39999389648</ele>
        <time>2020-10-24T13:48:06.000Z</time>
      </trkpt>
      <trkpt lat="46.47326" lon="5.31089">
        <ele>244.39999389648</ele>
        <time>2020-10-24T13:48:07.000Z</time>
      </trkpt>
      <trkpt lat="46.47332" lon="5.31081">
        <ele>244.39999389648</ele>
        <time>2020-10-24T13:48:08.000Z</time>
      </trkpt>
      <trkpt lat="46.47346" lon="5.31068">
        <ele>244.39999389648</ele>
        <time>2020-10-24T13:48:10.000Z</time>
      </trkpt>
      <trkpt lat="46.4736" lon="5.31056">
        <ele>244.19999694824</ele>
        <time>2020-10-24T13:48:12.000Z</time>
      </trkpt>
      <trkpt lat="46.47377" lon="5.31046">
        <ele>244</ele>
        <time>2020-10-24T13:48:14.000Z</time>
      </trkpt>
      <trkpt lat="46.47394" lon="5.31037">
        <ele>244</ele>
        <time>2020-10-24T13:48:16.000Z</time>
      </trkpt>
      <trkpt lat="46.47411" lon="5.31026">
        <ele>243.60000610352</ele>
        <time>2020-10-24T13:48:18.000Z</time>
      </trkpt>
      <trkpt lat="46.4742" lon="5.3102">
        <ele>243.39999389648</ele>
        <time>2020-10-24T13:48:19.000Z</time>
      </trkpt>
      <trkpt lat="46.47429" lon="5.31014">
        <ele>243.19999694824</ele>
        <time>2020-10-24T13:48:20.000Z</time>
      </trkpt>
      <trkpt lat="46.47447" lon="5.31002">
        <ele>242.19999694824</ele>
        <time>2020-10-24T13:48:22.000Z</time>
      </trkpt>
      <trkpt lat="46.47466" lon="5.3099">
        <ele>241.60000610352</ele>
        <time>2020-10-24T13:48:24.000Z</time>
      </trkpt>
      <trkpt lat="46.47475" lon="5.30984">
        <ele>241</ele>
        <time>2020-10-24T13:48:25.000Z</time>
      </trkpt>
      <trkpt lat="46.47484" lon="5.30978">
        <ele>240.60000610352</ele>
        <time>2020-10-24T13:48:26.000Z</time>
      </trkpt>
      <trkpt lat="46.47493" lon="5.30972">
        <ele>240</ele>
        <time>2020-10-24T13:48:27.000Z</time>
      </trkpt>
      <trkpt lat="46.47501" lon="5.30967">
        <ele>239.39999389648</ele>
        <time>2020-10-24T13:48:28.000Z</time>
      </trkpt>
      <trkpt lat="46.47518" lon="5.30956">
        <ele>238.39999389648</ele>
        <time>2020-10-24T13:48:30.000Z</time>
      </trkpt>
      <trkpt lat="46.47526" lon="5.30951">
        <ele>238.19999694824</ele>
        <time>2020-10-24T13:48:31.000Z</time>
      </trkpt>
      <trkpt lat="46.47535" lon="5.30946">
        <ele>238.19999694824</ele>
        <time>2020-10-24T13:48:32.000Z</time>
      </trkpt>
      <trkpt lat="46.4755" lon="5.30936">
        <ele>238</ele>
        <time>2020-10-24T13:48:34.000Z</time>
      </trkpt>
      <trkpt lat="46.47565" lon="5.30928">
        <ele>238</ele>
        <time>2020-10-24T13:48:36.000Z</time>
      </trkpt>
      <trkpt lat="46.47581" lon="5.30921">
        <ele>238</ele>
        <time>2020-10-24T13:48:38.000Z</time>
      </trkpt>
      <trkpt lat="46.47595" lon="5.30914">
        <ele>238.19999694824</ele>
        <time>2020-10-24T13:48:40.000Z</time>
      </trkpt>
      <trkpt lat="46.4761" lon="5.30908">
        <ele>238.80000305176</ele>
        <time>2020-10-24T13:48:42.000Z</time>
      </trkpt>
      <trkpt lat="46.47624" lon="5.30901">
        <ele>239.60000610352</ele>
        <time>2020-10-24T13:48:44.000Z</time>
      </trkpt>
      <trkpt lat="46.47639" lon="5.30896">
        <ele>240.39999389648</ele>
        <time>2020-10-24T13:48:46.000Z</time>
      </trkpt>
      <trkpt lat="46.47646" lon="5.30893">
        <ele>240.60000610352</ele>
        <time>2020-10-24T13:48:47.000Z</time>
      </trkpt>
      <trkpt lat="46.47653" lon="5.30891">
        <ele>240.80000305176</ele>
        <time>2020-10-24T13:48:48.000Z</time>
      </trkpt>
      <trkpt lat="46.4766" lon="5.3089">
        <ele>241</ele>
        <time>2020-10-24T13:48:49.000Z</time>
      </trkpt>
      <trkpt lat="46.47667" lon="5.3089">
        <ele>241.19999694824</ele>
        <time>2020-10-24T13:48:50.000Z</time>
      </trkpt>
      <trkpt lat="46.47675" lon="5.30891">
        <ele>241.39999389648</ele>
        <time>2020-10-24T13:48:51.000Z</time>
      </trkpt>
      <trkpt lat="46.47682" lon="5.30892">
        <ele>241.80000305176</ele>
        <time>2020-10-24T13:48:52.000Z</time>
      </trkpt>
      <trkpt lat="46.47689" lon="5.30895">
        <ele>242</ele>
        <time>2020-10-24T13:48:53.000Z</time>
      </trkpt>
      <trkpt lat="46.47696" lon="5.30898">
        <ele>242.19999694824</ele>
        <time>2020-10-24T13:48:54.000Z</time>
      </trkpt>
      <trkpt lat="46.4771" lon="5.30903">
        <ele>242.60000610352</ele>
        <time>2020-10-24T13:48:56.000Z</time>
      </trkpt>
      <trkpt lat="46.47717" lon="5.30905">
        <ele>242.80000305176</ele>
        <time>2020-10-24T13:48:57.000Z</time>
      </trkpt>
      <trkpt lat="46.47724" lon="5.30907">
        <ele>243</ele>
        <time>2020-10-24T13:48:58.000Z</time>
      </trkpt>
      <trkpt lat="46.47738" lon="5.30908">
        <ele>243.60000610352</ele>
        <time>2020-10-24T13:49:00.000Z</time>
      </trkpt>
      <trkpt lat="46.47752" lon="5.30907">
        <ele>244.19999694824</ele>
        <time>2020-10-24T13:49:02.000Z</time>
      </trkpt>
      <trkpt lat="46.47764" lon="5.30901">
        <ele>244.80000305176</ele>
        <time>2020-10-24T13:49:04.000Z</time>
      </trkpt>
      <trkpt lat="46.47775" lon="5.30893">
        <ele>245.39999389648</ele>
        <time>2020-10-24T13:49:06.000Z</time>
      </trkpt>
      <trkpt lat="46.47786" lon="5.30883">
        <ele>246</ele>
        <time>2020-10-24T13:49:08.000Z</time>
      </trkpt>
      <trkpt lat="46.47791" lon="5.30876">
        <ele>246.60000610352</ele>
        <time>2020-10-24T13:49:09.000Z</time>
      </trkpt>
      <trkpt lat="46.47795" lon="5.3087">
        <ele>247</ele>
        <time>2020-10-24T13:49:10.000Z</time>
      </trkpt>
      <trkpt lat="46.47804" lon="5.30855">
        <ele>247.80000305176</ele>
        <time>2020-10-24T13:49:12.000Z</time>
      </trkpt>
      <trkpt lat="46.47813" lon="5.3084">
        <ele>248.60000610352</ele>
        <time>2020-10-24T13:49:14.000Z</time>
      </trkpt>
      <trkpt lat="46.47818" lon="5.30833">
        <ele>248.80000305176</ele>
        <time>2020-10-24T13:49:15.000Z</time>
      </trkpt>
      <trkpt lat="46.47823" lon="5.30826">
        <ele>248.80000305176</ele>
        <time>2020-10-24T13:49:16.000Z</time>
      </trkpt>
      <trkpt lat="46.47828" lon="5.30819">
        <ele>248.80000305176</ele>
        <time>2020-10-24T13:49:17.000Z</time>
      </trkpt>
      <trkpt lat="46.47834" lon="5.30814">
        <ele>248.80000305176</ele>
        <time>2020-10-24T13:49:18.000Z</time>
      </trkpt>
      <trkpt lat="46.47841" lon="5.30808">
        <ele>248.80000305176</ele>
        <time>2020-10-24T13:49:19.000Z</time>
      </trkpt>
      <trkpt lat="46.47848" lon="5.30804">
        <ele>249</ele>
        <time>2020-10-24T13:49:20.000Z</time>
      </trkpt>
      <trkpt lat="46.47864" lon="5.308">
        <ele>249</ele>
        <time>2020-10-24T13:49:22.000Z</time>
      </trkpt>
      <trkpt lat="46.47873" lon="5.308">
        <ele>249</ele>
        <time>2020-10-24T13:49:23.000Z</time>
      </trkpt>
      <trkpt lat="46.47882" lon="5.30801">
        <ele>248.80000305176</ele>
        <time>2020-10-24T13:49:24.000Z</time>
      </trkpt>
      <trkpt lat="46.479" lon="5.30807">
        <ele>248.60000610352</ele>
        <time>2020-10-24T13:49:26.000Z</time>
      </trkpt>
      <trkpt lat="46.47909" lon="5.3081">
        <ele>248.19999694824</ele>
        <time>2020-10-24T13:49:27.000Z</time>
      </trkpt>
      <trkpt lat="46.47919" lon="5.30814">
        <ele>248</ele>
        <time>2020-10-24T13:49:28.000Z</time>
      </trkpt>
      <trkpt lat="46.47929" lon="5.30816">
        <ele>246.80000305176</ele>
        <time>2020-10-24T13:49:29.000Z</time>
      </trkpt>
      <trkpt lat="46.4794" lon="5.30818">
        <ele>246</ele>
        <time>2020-10-24T13:49:30.000Z</time>
      </trkpt>
      <trkpt lat="46.47951" lon="5.30818">
        <ele>245.39999389648</ele>
        <time>2020-10-24T13:49:31.000Z</time>
      </trkpt>
      <trkpt lat="46.47961" lon="5.30817">
        <ele>244.60000610352</ele>
        <time>2020-10-24T13:49:32.000Z</time>
      </trkpt>
      <trkpt lat="46.47972" lon="5.30814">
        <ele>243.80000305176</ele>
        <time>2020-10-24T13:49:33.000Z</time>
      </trkpt>
      <trkpt lat="46.47982" lon="5.3081">
        <ele>243.19999694824</ele>
        <time>2020-10-24T13:49:34.000Z</time>
      </trkpt>
      <trkpt lat="46.47992" lon="5.30805">
        <ele>242.60000610352</ele>
        <time>2020-10-24T13:49:35.000Z</time>
      </trkpt>
      <trkpt lat="46.48001" lon="5.308">
        <ele>241.80000305176</ele>
        <time>2020-10-24T13:49:36.000Z</time>
      </trkpt>
      <trkpt lat="46.4801" lon="5.30795">
        <ele>241.39999389648</ele>
        <time>2020-10-24T13:49:37.000Z</time>
      </trkpt>
      <trkpt lat="46.4802" lon="5.3079">
        <ele>241</ele>
        <time>2020-10-24T13:49:38.000Z</time>
      </trkpt>
      <trkpt lat="46.48038" lon="5.3078">
        <ele>240.80000305176</ele>
        <time>2020-10-24T13:49:40.000Z</time>
      </trkpt>
      <trkpt lat="46.48056" lon="5.3077">
        <ele>240.80000305176</ele>
        <time>2020-10-24T13:49:42.000Z</time>
      </trkpt>
      <trkpt lat="46.48073" lon="5.3076">
        <ele>240.80000305176</ele>
        <time>2020-10-24T13:49:44.000Z</time>
      </trkpt>
      <trkpt lat="46.4809" lon="5.3075">
        <ele>240.80000305176</ele>
        <time>2020-10-24T13:49:46.000Z</time>
      </trkpt>
      <trkpt lat="46.48108" lon="5.3074">
        <ele>241.19999694824</ele>
        <time>2020-10-24T13:49:48.000Z</time>
      </trkpt>
      <trkpt lat="46.48117" lon="5.30736">
        <ele>241.39999389648</ele>
        <time>2020-10-24T13:49:49.000Z</time>
      </trkpt>
      <trkpt lat="46.48126" lon="5.30731">
        <ele>241.39999389648</ele>
        <time>2020-10-24T13:49:50.000Z</time>
      </trkpt>
      <trkpt lat="46.48143" lon="5.30721">
        <ele>241.60000610352</ele>
        <time>2020-10-24T13:49:52.000Z</time>
      </trkpt>
      <trkpt lat="46.48161" lon="5.30711">
        <ele>241.60000610352</ele>
        <time>2020-10-24T13:49:54.000Z</time>
      </trkpt>
      <trkpt lat="46.48178" lon="5.30701">
        <ele>241.60000610352</ele>
        <time>2020-10-24T13:49:56.000Z</time>
      </trkpt>
      <trkpt lat="46.48196" lon="5.30692">
        <ele>241.39999389648</ele>
        <time>2020-10-24T13:49:58.000Z</time>
      </trkpt>
      <trkpt lat="46.48205" lon="5.30688">
        <ele>241.19999694824</ele>
        <time>2020-10-24T13:49:59.000Z</time>
      </trkpt>
      <trkpt lat="46.48214" lon="5.30685">
        <ele>241</ele>
        <time>2020-10-24T13:50:00.000Z</time>
      </trkpt>
      <trkpt lat="46.48224" lon="5.30683">
        <ele>240.80000305176</ele>
        <time>2020-10-24T13:50:01.000Z</time>
      </trkpt>
      <trkpt lat="46.48234" lon="5.30683">
        <ele>240.60000610352</ele>
        <time>2020-10-24T13:50:02.000Z</time>
      </trkpt>
      <trkpt lat="46.48244" lon="5.30684">
        <ele>240.39999389648</ele>
        <time>2020-10-24T13:50:03.000Z</time>
      </trkpt>
      <trkpt lat="46.48254" lon="5.30686">
        <ele>240</ele>
        <time>2020-10-24T13:50:04.000Z</time>
      </trkpt>
      <trkpt lat="46.48264" lon="5.30689">
        <ele>239.80000305176</ele>
        <time>2020-10-24T13:50:05.000Z</time>
      </trkpt>
      <trkpt lat="46.48274" lon="5.30692">
        <ele>239.39999389648</ele>
        <time>2020-10-24T13:50:06.000Z</time>
      </trkpt>
      <trkpt lat="46.48284" lon="5.30694">
        <ele>239</ele>
        <time>2020-10-24T13:50:07.000Z</time>
      </trkpt>
      <trkpt lat="46.48294" lon="5.30696">
        <ele>238.80000305176</ele>
        <time>2020-10-24T13:50:08.000Z</time>
      </trkpt>
      <trkpt lat="46.48304" lon="5.30697">
        <ele>238.60000610352</ele>
        <time>2020-10-24T13:50:09.000Z</time>
      </trkpt>
      <trkpt lat="46.48313" lon="5.30696">
        <ele>238.39999389648</ele>
        <time>2020-10-24T13:50:10.000Z</time>
      </trkpt>
      <trkpt lat="46.48323" lon="5.30694">
        <ele>238</ele>
        <time>2020-10-24T13:50:11.000Z</time>
      </trkpt>
      <trkpt lat="46.48332" lon="5.3069">
        <ele>237.80000305176</ele>
        <time>2020-10-24T13:50:12.000Z</time>
      </trkpt>
      <trkpt lat="46.48349" lon="5.30678">
        <ele>237.19999694824</ele>
        <time>2020-10-24T13:50:14.000Z</time>
      </trkpt>
      <trkpt lat="46.48357" lon="5.30671">
        <ele>237.19999694824</ele>
        <time>2020-10-24T13:50:15.000Z</time>
      </trkpt>
      <trkpt lat="46.48364" lon="5.30664">
        <ele>237.19999694824</ele>
        <time>2020-10-24T13:50:16.000Z</time>
      </trkpt>
      <trkpt lat="46.48379" lon="5.30649">
        <ele>237</ele>
        <time>2020-10-24T13:50:18.000Z</time>
      </trkpt>
      <trkpt lat="46.48393" lon="5.30636">
        <ele>237</ele>
        <time>2020-10-24T13:50:20.000Z</time>
      </trkpt>
      <trkpt lat="46.48407" lon="5.30623">
        <ele>237</ele>
        <time>2020-10-24T13:50:22.000Z</time>
      </trkpt>
      <trkpt lat="46.48421" lon="5.30609">
        <ele>237</ele>
        <time>2020-10-24T13:50:24.000Z</time>
      </trkpt>
      <trkpt lat="46.48434" lon="5.30596">
        <ele>237.39999389648</ele>
        <time>2020-10-24T13:50:26.000Z</time>
      </trkpt>
      <trkpt lat="46.48447" lon="5.30583">
        <ele>238</ele>
        <time>2020-10-24T13:50:28.000Z</time>
      </trkpt>
      <trkpt lat="46.48454" lon="5.30577">
        <ele>238.19999694824</ele>
        <time>2020-10-24T13:50:29.000Z</time>
      </trkpt>
      <trkpt lat="46.4846" lon="5.30571">
        <ele>238.19999694824</ele>
        <time>2020-10-24T13:50:30.000Z</time>
      </trkpt>
      <trkpt lat="46.48473" lon="5.30559">
        <ele>238.39999389648</ele>
        <time>2020-10-24T13:50:32.000Z</time>
      </trkpt>
      <trkpt lat="46.48485" lon="5.30546">
        <ele>238.60000610352</ele>
        <time>2020-10-24T13:50:34.000Z</time>
      </trkpt>
      <trkpt lat="46.48497" lon="5.30535">
        <ele>238.80000305176</ele>
        <time>2020-10-24T13:50:36.000Z</time>
      </trkpt>
      <trkpt lat="46.48509" lon="5.30523">
        <ele>239</ele>
        <time>2020-10-24T13:50:38.000Z</time>
      </trkpt>
      <trkpt lat="46.48515" lon="5.30518">
        <ele>239.19999694824</ele>
        <time>2020-10-24T13:50:39.000Z</time>
      </trkpt>
      <trkpt lat="46.48521" lon="5.30513">
        <ele>239.19999694824</ele>
        <time>2020-10-24T13:50:40.000Z</time>
      </trkpt>
      <trkpt lat="46.48533" lon="5.30504">
        <ele>239.39999389648</ele>
        <time>2020-10-24T13:50:42.000Z</time>
      </trkpt>
      <trkpt lat="46.48546" lon="5.30497">
        <ele>239.60000610352</ele>
        <time>2020-10-24T13:50:44.000Z</time>
      </trkpt>
      <trkpt lat="46.48551" lon="5.30493">
        <ele>240</ele>
        <time>2020-10-24T13:50:45.000Z</time>
      </trkpt>
      <trkpt lat="46.48557" lon="5.30493">
        <ele>239.80000305176</ele>
        <time>2020-10-24T13:50:46.000Z</time>
      </trkpt>
      <trkpt lat="46.48561" lon="5.30497">
        <ele>240</ele>
        <time>2020-10-24T13:50:47.000Z</time>
      </trkpt>
      <trkpt lat="46.48564" lon="5.30504">
        <ele>240.19999694824</ele>
        <time>2020-10-24T13:50:48.000Z</time>
      </trkpt>
      <trkpt lat="46.48564" lon="5.30513">
        <ele>240.19999694824</ele>
        <time>2020-10-24T13:50:49.000Z</time>
      </trkpt>
      <trkpt lat="46.48563" lon="5.30521">
        <ele>240.19999694824</ele>
        <time>2020-10-24T13:50:50.000Z</time>
      </trkpt>
      <trkpt lat="46.48561" lon="5.3053">
        <ele>240.19999694824</ele>
        <time>2020-10-24T13:50:51.000Z</time>
      </trkpt>
      <trkpt lat="46.4856" lon="5.30539">
        <ele>240.19999694824</ele>
        <time>2020-10-24T13:50:52.000Z</time>
      </trkpt>
      <trkpt lat="46.48557" lon="5.3056">
        <ele>240.19999694824</ele>
        <time>2020-10-24T13:50:54.000Z</time>
      </trkpt>
      <trkpt lat="46.48555" lon="5.30571">
        <ele>240.19999694824</ele>
        <time>2020-10-24T13:50:55.000Z</time>
      </trkpt>
      <trkpt lat="46.48553" lon="5.30582">
        <ele>240</ele>
        <time>2020-10-24T13:50:56.000Z</time>
      </trkpt>
      <trkpt lat="46.48549" lon="5.30604">
        <ele>240</ele>
        <time>2020-10-24T13:50:58.000Z</time>
      </trkpt>
      <trkpt lat="46.48546" lon="5.30625">
        <ele>239.60000610352</ele>
        <time>2020-10-24T13:51:00.000Z</time>
      </trkpt>
      <trkpt lat="46.48543" lon="5.30648">
        <ele>239.39999389648</ele>
        <time>2020-10-24T13:51:02.000Z</time>
      </trkpt>
      <trkpt lat="46.48542" lon="5.30661">
        <ele>239.19999694824</ele>
        <time>2020-10-24T13:51:03.000Z</time>
      </trkpt>
      <trkpt lat="46.48543" lon="5.30673">
        <ele>239</ele>
        <time>2020-10-24T13:51:04.000Z</time>
      </trkpt>
      <trkpt lat="46.48543" lon="5.30685">
        <ele>238.60000610352</ele>
        <time>2020-10-24T13:51:05.000Z</time>
      </trkpt>
      <trkpt lat="46.48545" lon="5.30698">
        <ele>238.19999694824</ele>
        <time>2020-10-24T13:51:06.000Z</time>
      </trkpt>
      <trkpt lat="46.48549" lon="5.3071">
        <ele>237.80000305176</ele>
        <time>2020-10-24T13:51:07.000Z</time>
      </trkpt>
      <trkpt lat="46.48553" lon="5.30722">
        <ele>237.19999694824</ele>
        <time>2020-10-24T13:51:08.000Z</time>
      </trkpt>
      <trkpt lat="46.48566" lon="5.30742">
        <ele>236.39999389648</ele>
        <time>2020-10-24T13:51:10.000Z</time>
      </trkpt>
      <trkpt lat="46.48572" lon="5.3075">
        <ele>236</ele>
        <time>2020-10-24T13:51:11.000Z</time>
      </trkpt>
      <trkpt lat="46.48579" lon="5.30758">
        <ele>235.60000610352</ele>
        <time>2020-10-24T13:51:12.000Z</time>
      </trkpt>
      <trkpt lat="46.48587" lon="5.30765">
        <ele>235</ele>
        <time>2020-10-24T13:51:13.000Z</time>
      </trkpt>
      <trkpt lat="46.48594" lon="5.30772">
        <ele>234.39999389648</ele>
        <time>2020-10-24T13:51:14.000Z</time>
      </trkpt>
      <trkpt lat="46.48602" lon="5.30779">
        <ele>234</ele>
        <time>2020-10-24T13:51:15.000Z</time>
      </trkpt>
      <trkpt lat="46.4861" lon="5.30786">
        <ele>233.39999389648</ele>
        <time>2020-10-24T13:51:16.000Z</time>
      </trkpt>
      <trkpt lat="46.48626" lon="5.30798">
        <ele>232.80000305176</ele>
        <time>2020-10-24T13:51:18.000Z</time>
      </trkpt>
      <trkpt lat="46.48643" lon="5.30809">
        <ele>231.80000305176</ele>
        <time>2020-10-24T13:51:20.000Z</time>
      </trkpt>
      <trkpt lat="46.48651" lon="5.30815">
        <ele>231.60000610352</ele>
        <time>2020-10-24T13:51:21.000Z</time>
      </trkpt>
      <trkpt lat="46.48659" lon="5.30819">
        <ele>231.39999389648</ele>
        <time>2020-10-24T13:51:22.000Z</time>
      </trkpt>
      <trkpt lat="46.48674" lon="5.30829">
        <ele>231.39999389648</ele>
        <time>2020-10-24T13:51:24.000Z</time>
      </trkpt>
      <trkpt lat="46.48688" lon="5.30837">
        <ele>231.39999389648</ele>
        <time>2020-10-24T13:51:26.000Z</time>
      </trkpt>
      <trkpt lat="46.48694" lon="5.30842">
        <ele>231.39999389648</ele>
        <time>2020-10-24T13:51:27.000Z</time>
      </trkpt>
      <trkpt lat="46.48701" lon="5.30847">
        <ele>231.39999389648</ele>
        <time>2020-10-24T13:51:28.000Z</time>
      </trkpt>
      <trkpt lat="46.48706" lon="5.30853">
        <ele>231.19999694824</ele>
        <time>2020-10-24T13:51:29.000Z</time>
      </trkpt>
      <trkpt lat="46.48711" lon="5.30861">
        <ele>231.60000610352</ele>
        <time>2020-10-24T13:51:30.000Z</time>
      </trkpt>
      <trkpt lat="46.48714" lon="5.3087">
        <ele>231.80000305176</ele>
        <time>2020-10-24T13:51:31.000Z</time>
      </trkpt>
      <trkpt lat="46.48716" lon="5.3088">
        <ele>232</ele>
        <time>2020-10-24T13:51:32.000Z</time>
      </trkpt>
      <trkpt lat="46.48715" lon="5.309">
        <ele>232.80000305176</ele>
        <time>2020-10-24T13:51:34.000Z</time>
      </trkpt>
      <trkpt lat="46.48708" lon="5.30916">
        <ele>233.19999694824</ele>
        <time>2020-10-24T13:51:36.000Z</time>
      </trkpt>
      <trkpt lat="46.48703" lon="5.30922">
        <ele>233.39999389648</ele>
        <time>2020-10-24T13:51:37.000Z</time>
      </trkpt>
      <trkpt lat="46.48699" lon="5.30929">
        <ele>233.60000610352</ele>
        <time>2020-10-24T13:51:38.000Z</time>
      </trkpt>
      <trkpt lat="46.48691" lon="5.30943">
        <ele>233.80000305176</ele>
        <time>2020-10-24T13:51:40.000Z</time>
      </trkpt>
      <trkpt lat="46.48688" lon="5.3095">
        <ele>233.80000305176</ele>
        <time>2020-10-24T13:51:41.000Z</time>
      </trkpt>
      <trkpt lat="46.48684" lon="5.30957">
        <ele>234</ele>
        <time>2020-10-24T13:51:42.000Z</time>
      </trkpt>
      <trkpt lat="46.48681" lon="5.30964">
        <ele>234.19999694824</ele>
        <time>2020-10-24T13:51:43.000Z</time>
      </trkpt>
      <trkpt lat="46.48677" lon="5.30972">
        <ele>234.60000610352</ele>
        <time>2020-10-24T13:51:44.000Z</time>
      </trkpt>
      <trkpt lat="46.48674" lon="5.30979">
        <ele>235.19999694824</ele>
        <time>2020-10-24T13:51:45.000Z</time>
      </trkpt>
      <trkpt lat="46.48671" lon="5.30986">
        <ele>235.60000610352</ele>
        <time>2020-10-24T13:51:46.000Z</time>
      </trkpt>
      <trkpt lat="46.48664" lon="5.31001">
        <ele>236.60000610352</ele>
        <time>2020-10-24T13:51:48.000Z</time>
      </trkpt>
      <trkpt lat="46.48657" lon="5.31015">
        <ele>237.19999694824</ele>
        <time>2020-10-24T13:51:50.000Z</time>
      </trkpt>
      <trkpt lat="46.48653" lon="5.31023">
        <ele>237.19999694824</ele>
        <time>2020-10-24T13:51:51.000Z</time>
      </trkpt>
      <trkpt lat="46.48649" lon="5.31032">
        <ele>237.39999389648</ele>
        <time>2020-10-24T13:51:52.000Z</time>
      </trkpt>
      <trkpt lat="46.48641" lon="5.31048">
        <ele>237.39999389648</ele>
        <time>2020-10-24T13:51:54.000Z</time>
      </trkpt>
      <trkpt lat="46.48633" lon="5.31066">
        <ele>237.39999389648</ele>
        <time>2020-10-24T13:51:56.000Z</time>
      </trkpt>
      <trkpt lat="46.48624" lon="5.31083">
        <ele>237.39999389648</ele>
        <time>2020-10-24T13:51:58.000Z</time>
      </trkpt>
      <trkpt lat="46.4862" lon="5.31093">
        <ele>237.19999694824</ele>
        <time>2020-10-24T13:51:59.000Z</time>
      </trkpt>
      <trkpt lat="46.48615" lon="5.31102">
        <ele>237</ele>
        <time>2020-10-24T13:52:00.000Z</time>
      </trkpt>
      <trkpt lat="46.48606" lon="5.31121">
        <ele>236.39999389648</ele>
        <time>2020-10-24T13:52:02.000Z</time>
      </trkpt>
      <trkpt lat="46.48597" lon="5.3114">
        <ele>236</ele>
        <time>2020-10-24T13:52:04.000Z</time>
      </trkpt>
      <trkpt lat="46.48587" lon="5.31159">
        <ele>235.60000610352</ele>
        <time>2020-10-24T13:52:06.000Z</time>
      </trkpt>
      <trkpt lat="46.48582" lon="5.31169">
        <ele>235.39999389648</ele>
        <time>2020-10-24T13:52:07.000Z</time>
      </trkpt>
      <trkpt lat="46.48577" lon="5.31179">
        <ele>235.39999389648</ele>
        <time>2020-10-24T13:52:08.000Z</time>
      </trkpt>
      <trkpt lat="46.48568" lon="5.31199">
        <ele>234.80000305176</ele>
        <time>2020-10-24T13:52:10.000Z</time>
      </trkpt>
      <trkpt lat="46.48563" lon="5.31209">
        <ele>234.19999694824</ele>
        <time>2020-10-24T13:52:11.000Z</time>
      </trkpt>
      <trkpt lat="46.48558" lon="5.31219">
        <ele>233.80000305176</ele>
        <time>2020-10-24T13:52:12.000Z</time>
      </trkpt>
      <trkpt lat="46.48555" lon="5.3123">
        <ele>233.39999389648</ele>
        <time>2020-10-24T13:52:13.000Z</time>
      </trkpt>
      <trkpt lat="46.48552" lon="5.31241">
        <ele>233</ele>
        <time>2020-10-24T13:52:14.000Z</time>
      </trkpt>
      <trkpt lat="46.4855" lon="5.31265">
        <ele>232.19999694824</ele>
        <time>2020-10-24T13:52:16.000Z</time>
      </trkpt>
      <trkpt lat="46.4855" lon="5.31276">
        <ele>232</ele>
        <time>2020-10-24T13:52:17.000Z</time>
      </trkpt>
      <trkpt lat="46.48551" lon="5.31288">
        <ele>231.80000305176</ele>
        <time>2020-10-24T13:52:18.000Z</time>
      </trkpt>
      <trkpt lat="46.48553" lon="5.3131">
        <ele>231</ele>
        <time>2020-10-24T13:52:20.000Z</time>
      </trkpt>
      <trkpt lat="46.48555" lon="5.31332">
        <ele>230.39999389648</ele>
        <time>2020-10-24T13:52:22.000Z</time>
      </trkpt>
      <trkpt lat="46.48557" lon="5.31343">
        <ele>230.39999389648</ele>
        <time>2020-10-24T13:52:23.000Z</time>
      </trkpt>
      <trkpt lat="46.48559" lon="5.31353">
        <ele>230.19999694824</ele>
        <time>2020-10-24T13:52:24.000Z</time>
      </trkpt>
      <trkpt lat="46.48568" lon="5.31374">
        <ele>230</ele>
        <time>2020-10-24T13:52:26.000Z</time>
      </trkpt>
      <trkpt lat="46.48574" lon="5.31382">
        <ele>230</ele>
        <time>2020-10-24T13:52:27.000Z</time>
      </trkpt>
      <trkpt lat="46.48581" lon="5.3139">
        <ele>230</ele>
        <time>2020-10-24T13:52:28.000Z</time>
      </trkpt>
      <trkpt lat="46.48595" lon="5.31408">
        <ele>230</ele>
        <time>2020-10-24T13:52:30.000Z</time>
      </trkpt>
      <trkpt lat="46.48601" lon="5.31419">
        <ele>229.80000305176</ele>
        <time>2020-10-24T13:52:31.000Z</time>
      </trkpt>
      <trkpt lat="46.48605" lon="5.31432">
        <ele>229.39999389648</ele>
        <time>2020-10-24T13:52:32.000Z</time>
      </trkpt>
      <trkpt lat="46.48607" lon="5.3146">
        <ele>228.60000610352</ele>
        <time>2020-10-24T13:52:34.000Z</time>
      </trkpt>
      <trkpt lat="46.48607" lon="5.31475">
        <ele>228</ele>
        <time>2020-10-24T13:52:35.000Z</time>
      </trkpt>
      <trkpt lat="46.48607" lon="5.31488">
        <ele>227.60000610352</ele>
        <time>2020-10-24T13:52:36.000Z</time>
      </trkpt>
      <trkpt lat="46.48612" lon="5.31512">
        <ele>226</ele>
        <time>2020-10-24T13:52:38.000Z</time>
      </trkpt>
      <trkpt lat="46.4862" lon="5.31531">
        <ele>224.39999389648</ele>
        <time>2020-10-24T13:52:40.000Z</time>
      </trkpt>
      <trkpt lat="46.48626" lon="5.31539">
        <ele>224.19999694824</ele>
        <time>2020-10-24T13:52:41.000Z</time>
      </trkpt>
      <trkpt lat="46.48632" lon="5.31547">
        <ele>224.19999694824</ele>
        <time>2020-10-24T13:52:42.000Z</time>
      </trkpt>
      <trkpt lat="46.48643" lon="5.31561">
        <ele>224</ele>
        <time>2020-10-24T13:52:44.000Z</time>
      </trkpt>
      <trkpt lat="46.48656" lon="5.31576">
        <ele>223.60000610352</ele>
        <time>2020-10-24T13:52:46.000Z</time>
      </trkpt>
      <trkpt lat="46.48662" lon="5.31584">
        <ele>223.60000610352</ele>
        <time>2020-10-24T13:52:47.000Z</time>
      </trkpt>
      <trkpt lat="46.48668" lon="5.31592">
        <ele>223.60000610352</ele>
        <time>2020-10-24T13:52:48.000Z</time>
      </trkpt>
      <trkpt lat="46.48679" lon="5.31607">
        <ele>224</ele>
        <time>2020-10-24T13:52:50.000Z</time>
      </trkpt>
      <trkpt lat="46.4869" lon="5.31623">
        <ele>223.80000305176</ele>
        <time>2020-10-24T13:52:52.000Z</time>
      </trkpt>
      <trkpt lat="46.487" lon="5.31638">
        <ele>223.80000305176</ele>
        <time>2020-10-24T13:52:54.000Z</time>
      </trkpt>
      <trkpt lat="46.48711" lon="5.31654">
        <ele>224</ele>
        <time>2020-10-24T13:52:56.000Z</time>
      </trkpt>
      <trkpt lat="46.48722" lon="5.31668">
        <ele>224</ele>
        <time>2020-10-24T13:52:58.000Z</time>
      </trkpt>
      <trkpt lat="46.48736" lon="5.31684">
        <ele>224</ele>
        <time>2020-10-24T13:53:00.000Z</time>
      </trkpt>
      <trkpt lat="46.48749" lon="5.31699">
        <ele>224</ele>
        <time>2020-10-24T13:53:02.000Z</time>
      </trkpt>
      <trkpt lat="46.48755" lon="5.31707">
        <ele>224</ele>
        <time>2020-10-24T13:53:03.000Z</time>
      </trkpt>
      <trkpt lat="46.48759" lon="5.31716">
        <ele>224</ele>
        <time>2020-10-24T13:53:04.000Z</time>
      </trkpt>
      <trkpt lat="46.48766" lon="5.31736">
        <ele>224</ele>
        <time>2020-10-24T13:53:06.000Z</time>
      </trkpt>
      <trkpt lat="46.48769" lon="5.31758">
        <ele>224</ele>
        <time>2020-10-24T13:53:08.000Z</time>
      </trkpt>
      <trkpt lat="46.4877" lon="5.31768">
        <ele>224</ele>
        <time>2020-10-24T13:53:09.000Z</time>
      </trkpt>
      <trkpt lat="46.48771" lon="5.31779">
        <ele>224</ele>
        <time>2020-10-24T13:53:10.000Z</time>
      </trkpt>
      <trkpt lat="46.48773" lon="5.31802">
        <ele>223.60000610352</ele>
        <time>2020-10-24T13:53:12.000Z</time>
      </trkpt>
      <trkpt lat="46.4878" lon="5.31825">
        <ele>223.60000610352</ele>
        <time>2020-10-24T13:53:14.000Z</time>
      </trkpt>
      <trkpt lat="46.48793" lon="5.31842">
        <ele>223.39999389648</ele>
        <time>2020-10-24T13:53:16.000Z</time>
      </trkpt>
      <trkpt lat="46.488" lon="5.31847">
        <ele>223.39999389648</ele>
        <time>2020-10-24T13:53:17.000Z</time>
      </trkpt>
      <trkpt lat="46.48809" lon="5.31851">
        <ele>223.39999389648</ele>
        <time>2020-10-24T13:53:18.000Z</time>
      </trkpt>
      <trkpt lat="46.48816" lon="5.31856">
        <ele>223.39999389648</ele>
        <time>2020-10-24T13:53:19.000Z</time>
      </trkpt>
      <trkpt lat="46.48823" lon="5.31862">
        <ele>223.39999389648</ele>
        <time>2020-10-24T13:53:20.000Z</time>
      </trkpt>
      <trkpt lat="46.48829" lon="5.31871">
        <ele>223.39999389648</ele>
        <time>2020-10-24T13:53:21.000Z</time>
      </trkpt>
      <trkpt lat="46.48834" lon="5.31881">
        <ele>223.39999389648</ele>
        <time>2020-10-24T13:53:22.000Z</time>
      </trkpt>
      <trkpt lat="46.48838" lon="5.31903">
        <ele>223.39999389648</ele>
        <time>2020-10-24T13:53:24.000Z</time>
      </trkpt>
      <trkpt lat="46.4884" lon="5.31914">
        <ele>223.39999389648</ele>
        <time>2020-10-24T13:53:25.000Z</time>
      </trkpt>
      <trkpt lat="46.48841" lon="5.31925">
        <ele>223.39999389648</ele>
        <time>2020-10-24T13:53:26.000Z</time>
      </trkpt>
      <trkpt lat="46.48843" lon="5.31946">
        <ele>223.60000610352</ele>
        <time>2020-10-24T13:53:28.000Z</time>
      </trkpt>
      <trkpt lat="46.48845" lon="5.31966">
        <ele>223.60000610352</ele>
        <time>2020-10-24T13:53:30.000Z</time>
      </trkpt>
      <trkpt lat="46.48846" lon="5.31976">
        <ele>223.60000610352</ele>
        <time>2020-10-24T13:53:31.000Z</time>
      </trkpt>
      <trkpt lat="46.48846" lon="5.31986">
        <ele>223.60000610352</ele>
        <time>2020-10-24T13:53:32.000Z</time>
      </trkpt>
      <trkpt lat="46.48845" lon="5.32006">
        <ele>223.80000305176</ele>
        <time>2020-10-24T13:53:34.000Z</time>
      </trkpt>
      <trkpt lat="46.48842" lon="5.32025">
        <ele>224.19999694824</ele>
        <time>2020-10-24T13:53:36.000Z</time>
      </trkpt>
      <trkpt lat="46.48841" lon="5.32035">
        <ele>224.39999389648</ele>
        <time>2020-10-24T13:53:37.000Z</time>
      </trkpt>
      <trkpt lat="46.4884" lon="5.32044">
        <ele>224.80000305176</ele>
        <time>2020-10-24T13:53:38.000Z</time>
      </trkpt>
      <trkpt lat="46.48836" lon="5.32063">
        <ele>225.19999694824</ele>
        <time>2020-10-24T13:53:40.000Z</time>
      </trkpt>
      <trkpt lat="46.48834" lon="5.32072">
        <ele>225.39999389648</ele>
        <time>2020-10-24T13:53:41.000Z</time>
      </trkpt>
      <trkpt lat="46.48832" lon="5.32081">
        <ele>225.60000610352</ele>
        <time>2020-10-24T13:53:42.000Z</time>
      </trkpt>
      <trkpt lat="46.4883" lon="5.32099">
        <ele>225.80000305176</ele>
        <time>2020-10-24T13:53:44.000Z</time>
      </trkpt>
      <trkpt lat="46.48828" lon="5.32108">
        <ele>225.80000305176</ele>
        <time>2020-10-24T13:53:45.000Z</time>
      </trkpt>
      <trkpt lat="46.48827" lon="5.32117">
        <ele>226</ele>
        <time>2020-10-24T13:53:46.000Z</time>
      </trkpt>
      <trkpt lat="46.48824" lon="5.32134">
        <ele>226</ele>
        <time>2020-10-24T13:53:48.000Z</time>
      </trkpt>
      <trkpt lat="46.48824" lon="5.32143">
        <ele>226</ele>
        <time>2020-10-24T13:53:49.000Z</time>
      </trkpt>
      <trkpt lat="46.48824" lon="5.32152">
        <ele>226.19999694824</ele>
        <time>2020-10-24T13:53:50.000Z</time>
      </trkpt>
      <trkpt lat="46.48824" lon="5.32161">
        <ele>226.39999389648</ele>
        <time>2020-10-24T13:53:51.000Z</time>
      </trkpt>
      <trkpt lat="46.48824" lon="5.32169">
        <ele>226.60000610352</ele>
        <time>2020-10-24T13:53:52.000Z</time>
      </trkpt>
      <trkpt lat="46.48825" lon="5.32186">
        <ele>227</ele>
        <time>2020-10-24T13:53:54.000Z</time>
      </trkpt>
      <trkpt lat="46.48827" lon="5.32202">
        <ele>227.39999389648</ele>
        <time>2020-10-24T13:53:56.000Z</time>
      </trkpt>
      <trkpt lat="46.48828" lon="5.3221">
        <ele>227.60000610352</ele>
        <time>2020-10-24T13:53:57.000Z</time>
      </trkpt>
      <trkpt lat="46.4883" lon="5.32218">
        <ele>227.80000305176</ele>
        <time>2020-10-24T13:53:58.000Z</time>
      </trkpt>
      <trkpt lat="46.48831" lon="5.32225">
        <ele>228</ele>
        <time>2020-10-24T13:53:59.000Z</time>
      </trkpt>
      <trkpt lat="46.48834" lon="5.32232">
        <ele>228.19999694824</ele>
        <time>2020-10-24T13:54:00.000Z</time>
      </trkpt>
      <trkpt lat="46.48839" lon="5.32245">
        <ele>228.60000610352</ele>
        <time>2020-10-24T13:54:02.000Z</time>
      </trkpt>
      <trkpt lat="46.48843" lon="5.32252">
        <ele>228.80000305176</ele>
        <time>2020-10-24T13:54:03.000Z</time>
      </trkpt>
      <trkpt lat="46.48847" lon="5.32259">
        <ele>229.19999694824</ele>
        <time>2020-10-24T13:54:04.000Z</time>
      </trkpt>
      <trkpt lat="46.48857" lon="5.32273">
        <ele>229.39999389648</ele>
        <time>2020-10-24T13:54:06.000Z</time>
      </trkpt>
      <trkpt lat="46.48869" lon="5.32289">
        <ele>229.39999389648</ele>
        <time>2020-10-24T13:54:08.000Z</time>
      </trkpt>
      <trkpt lat="46.48881" lon="5.32308">
        <ele>229.39999389648</ele>
        <time>2020-10-24T13:54:10.000Z</time>
      </trkpt>
      <trkpt lat="46.48888" lon="5.32318">
        <ele>229.39999389648</ele>
        <time>2020-10-24T13:54:11.000Z</time>
      </trkpt>
      <trkpt lat="46.48894" lon="5.32329">
        <ele>229.39999389648</ele>
        <time>2020-10-24T13:54:12.000Z</time>
      </trkpt>
      <trkpt lat="46.48907" lon="5.32352">
        <ele>228.39999389648</ele>
        <time>2020-10-24T13:54:14.000Z</time>
      </trkpt>
      <trkpt lat="46.48911" lon="5.32365">
        <ele>227.60000610352</ele>
        <time>2020-10-24T13:54:15.000Z</time>
      </trkpt>
      <trkpt lat="46.48915" lon="5.32379">
        <ele>226.80000305176</ele>
        <time>2020-10-24T13:54:16.000Z</time>
      </trkpt>
      <trkpt lat="46.48919" lon="5.32391">
        <ele>226</ele>
        <time>2020-10-24T13:54:17.000Z</time>
      </trkpt>
      <trkpt lat="46.48923" lon="5.32404">
        <ele>225</ele>
        <time>2020-10-24T13:54:18.000Z</time>
      </trkpt>
      <trkpt lat="46.4893" lon="5.32428">
        <ele>223</ele>
        <time>2020-10-24T13:54:20.000Z</time>
      </trkpt>
      <trkpt lat="46.48938" lon="5.32453">
        <ele>221.19999694824</ele>
        <time>2020-10-24T13:54:22.000Z</time>
      </trkpt>
      <trkpt lat="46.48945" lon="5.32477">
        <ele>220.60000610352</ele>
        <time>2020-10-24T13:54:24.000Z</time>
      </trkpt>
      <trkpt lat="46.48951" lon="5.32501">
        <ele>220.39999389648</ele>
        <time>2020-10-24T13:54:26.000Z</time>
      </trkpt>
      <trkpt lat="46.48954" lon="5.32514">
        <ele>220.39999389648</ele>
        <time>2020-10-24T13:54:27.000Z</time>
      </trkpt>
      <trkpt lat="46.48956" lon="5.32526">
        <ele>220.39999389648</ele>
        <time>2020-10-24T13:54:28.000Z</time>
      </trkpt>
      <trkpt lat="46.48956" lon="5.32539">
        <ele>220.39999389648</ele>
        <time>2020-10-24T13:54:29.000Z</time>
      </trkpt>
      <trkpt lat="46.48954" lon="5.32552">
        <ele>220.39999389648</ele>
        <time>2020-10-24T13:54:30.000Z</time>
      </trkpt>
      <trkpt lat="46.48944" lon="5.32573">
        <ele>220.39999389648</ele>
        <time>2020-10-24T13:54:32.000Z</time>
      </trkpt>
      <trkpt lat="46.48931" lon="5.32587">
        <ele>220.60000610352</ele>
        <time>2020-10-24T13:54:34.000Z</time>
      </trkpt>
      <trkpt lat="46.48926" lon="5.32595">
        <ele>220.60000610352</ele>
        <time>2020-10-24T13:54:35.000Z</time>
      </trkpt>
      <trkpt lat="46.48921" lon="5.32602">
        <ele>220.80000305176</ele>
        <time>2020-10-24T13:54:36.000Z</time>
      </trkpt>
      <trkpt lat="46.48916" lon="5.32618">
        <ele>220.80000305176</ele>
        <time>2020-10-24T13:54:38.000Z</time>
      </trkpt>
      <trkpt lat="46.48916" lon="5.32626">
        <ele>221</ele>
        <time>2020-10-24T13:54:39.000Z</time>
      </trkpt>
      <trkpt lat="46.48917" lon="5.32634">
        <ele>221.19999694824</ele>
        <time>2020-10-24T13:54:40.000Z</time>
      </trkpt>
      <trkpt lat="46.48922" lon="5.32648">
        <ele>222</ele>
        <time>2020-10-24T13:54:42.000Z</time>
      </trkpt>
      <trkpt lat="46.48925" lon="5.32654">
        <ele>222.60000610352</ele>
        <time>2020-10-24T13:54:43.000Z</time>
      </trkpt>
      <trkpt lat="46.48928" lon="5.32659">
        <ele>223.19999694824</ele>
        <time>2020-10-24T13:54:44.000Z</time>
      </trkpt>
      <trkpt lat="46.48932" lon="5.32664">
        <ele>223.80000305176</ele>
        <time>2020-10-24T13:54:45.000Z</time>
      </trkpt>
      <trkpt lat="46.48936" lon="5.32669">
        <ele>224.60000610352</ele>
        <time>2020-10-24T13:54:46.000Z</time>
      </trkpt>
      <trkpt lat="46.48939" lon="5.32673">
        <ele>225.19999694824</ele>
        <time>2020-10-24T13:54:47.000Z</time>
      </trkpt>
      <trkpt lat="46.48942" lon="5.32677">
        <ele>225.80000305176</ele>
        <time>2020-10-24T13:54:48.000Z</time>
      </trkpt>
      <trkpt lat="46.48945" lon="5.32682">
        <ele>226.19999694824</ele>
        <time>2020-10-24T13:54:49.000Z</time>
      </trkpt>
      <trkpt lat="46.48948" lon="5.32686">
        <ele>226.80000305176</ele>
        <time>2020-10-24T13:54:50.000Z</time>
      </trkpt>
      <trkpt lat="46.48951" lon="5.32689">
        <ele>227.39999389648</ele>
        <time>2020-10-24T13:54:51.000Z</time>
      </trkpt>
      <trkpt lat="46.48955" lon="5.32692">
        <ele>227.80000305176</ele>
        <time>2020-10-24T13:54:52.000Z</time>
      </trkpt>
      <trkpt lat="46.48958" lon="5.32695">
        <ele>228.19999694824</ele>
        <time>2020-10-24T13:54:53.000Z</time>
      </trkpt>
      <trkpt lat="46.48962" lon="5.32698">
        <ele>228.60000610352</ele>
        <time>2020-10-24T13:54:54.000Z</time>
      </trkpt>
      <trkpt lat="46.4897" lon="5.32702">
        <ele>229.39999389648</ele>
        <time>2020-10-24T13:54:56.000Z</time>
      </trkpt>
      <trkpt lat="46.48974" lon="5.32703">
        <ele>229.80000305176</ele>
        <time>2020-10-24T13:54:57.000Z</time>
      </trkpt>
      <trkpt lat="46.48978" lon="5.32705">
        <ele>230</ele>
        <time>2020-10-24T13:54:58.000Z</time>
      </trkpt>
      <trkpt lat="46.48983" lon="5.32706">
        <ele>230.39999389648</ele>
        <time>2020-10-24T13:54:59.000Z</time>
      </trkpt>
      <trkpt lat="46.48987" lon="5.32706">
        <ele>230.60000610352</ele>
        <time>2020-10-24T13:55:00.000Z</time>
      </trkpt>
      <trkpt lat="46.48992" lon="5.32707">
        <ele>230.80000305176</ele>
        <time>2020-10-24T13:55:01.000Z</time>
      </trkpt>
      <trkpt lat="46.48996" lon="5.32707">
        <ele>231.19999694824</ele>
        <time>2020-10-24T13:55:02.000Z</time>
      </trkpt>
      <trkpt lat="46.49004" lon="5.32708">
        <ele>231.80000305176</ele>
        <time>2020-10-24T13:55:04.000Z</time>
      </trkpt>
      <trkpt lat="46.49008" lon="5.32708">
        <ele>232</ele>
        <time>2020-10-24T13:55:05.000Z</time>
      </trkpt>
      <trkpt lat="46.49013" lon="5.32708">
        <ele>232</ele>
        <time>2020-10-24T13:55:06.000Z</time>
      </trkpt>
      <trkpt lat="46.49021" lon="5.32707">
        <ele>232.80000305176</ele>
        <time>2020-10-24T13:55:08.000Z</time>
      </trkpt>
      <trkpt lat="46.49025" lon="5.32707">
        <ele>233</ele>
        <time>2020-10-24T13:55:09.000Z</time>
      </trkpt>
      <trkpt lat="46.4903" lon="5.32706">
        <ele>233.19999694824</ele>
        <time>2020-10-24T13:55:10.000Z</time>
      </trkpt>
      <trkpt lat="46.49038" lon="5.32705">
        <ele>233.80000305176</ele>
        <time>2020-10-24T13:55:12.000Z</time>
      </trkpt>
      <trkpt lat="46.49047" lon="5.32704">
        <ele>234.19999694824</ele>
        <time>2020-10-24T13:55:14.000Z</time>
      </trkpt>
      <trkpt lat="46.49055" lon="5.32703">
        <ele>234.60000610352</ele>
        <time>2020-10-24T13:55:16.000Z</time>
      </trkpt>
      <trkpt lat="46.49063" lon="5.327">
        <ele>235.19999694824</ele>
        <time>2020-10-24T13:55:18.000Z</time>
      </trkpt>
      <trkpt lat="46.49068" lon="5.32699">
        <ele>235.39999389648</ele>
        <time>2020-10-24T13:55:19.000Z</time>
      </trkpt>
      <trkpt lat="46.49072" lon="5.32698">
        <ele>235.39999389648</ele>
        <time>2020-10-24T13:55:20.000Z</time>
      </trkpt>
      <trkpt lat="46.49079" lon="5.32697">
        <ele>235.80000305176</ele>
        <time>2020-10-24T13:55:22.000Z</time>
      </trkpt>
      <trkpt lat="46.49087" lon="5.32696">
        <ele>236.39999389648</ele>
        <time>2020-10-24T13:55:24.000Z</time>
      </trkpt>
      <trkpt lat="46.49095" lon="5.32695">
        <ele>237</ele>
        <time>2020-10-24T13:55:26.000Z</time>
      </trkpt>
      <trkpt lat="46.49103" lon="5.32694">
        <ele>237.60000610352</ele>
        <time>2020-10-24T13:55:28.000Z</time>
      </trkpt>
      <trkpt lat="46.49111" lon="5.32696">
        <ele>238.39999389648</ele>
        <time>2020-10-24T13:55:30.000Z</time>
      </trkpt>
      <trkpt lat="46.49114" lon="5.32698">
        <ele>238.80000305176</ele>
        <time>2020-10-24T13:55:31.000Z</time>
      </trkpt>
      <trkpt lat="46.49118" lon="5.32701">
        <ele>238.80000305176</ele>
        <time>2020-10-24T13:55:32.000Z</time>
      </trkpt>
      <trkpt lat="46.49124" lon="5.32709">
        <ele>239.19999694824</ele>
        <time>2020-10-24T13:55:34.000Z</time>
      </trkpt>
      <trkpt lat="46.49129" lon="5.3272">
        <ele>239.39999389648</ele>
        <time>2020-10-24T13:55:36.000Z</time>
      </trkpt>
      <trkpt lat="46.49132" lon="5.32732">
        <ele>239.80000305176</ele>
        <time>2020-10-24T13:55:38.000Z</time>
      </trkpt>
      <trkpt lat="46.49135" lon="5.32744">
        <ele>240</ele>
        <time>2020-10-24T13:55:40.000Z</time>
      </trkpt>
      <trkpt lat="46.49138" lon="5.32758">
        <ele>240</ele>
        <time>2020-10-24T13:55:42.000Z</time>
      </trkpt>
      <trkpt lat="46.49141" lon="5.32773">
        <ele>240.19999694824</ele>
        <time>2020-10-24T13:55:44.000Z</time>
      </trkpt>
      <trkpt lat="46.49143" lon="5.3279">
        <ele>240.19999694824</ele>
        <time>2020-10-24T13:55:46.000Z</time>
      </trkpt>
      <trkpt lat="46.49144" lon="5.32808">
        <ele>240.19999694824</ele>
        <time>2020-10-24T13:55:48.000Z</time>
      </trkpt>
      <trkpt lat="46.49142" lon="5.32828">
        <ele>240.19999694824</ele>
        <time>2020-10-24T13:55:50.000Z</time>
      </trkpt>
      <trkpt lat="46.49138" lon="5.32848">
        <ele>240.19999694824</ele>
        <time>2020-10-24T13:55:52.000Z</time>
      </trkpt>
      <trkpt lat="46.49133" lon="5.32866">
        <ele>240.19999694824</ele>
        <time>2020-10-24T13:55:54.000Z</time>
      </trkpt>
      <trkpt lat="46.49131" lon="5.32875">
        <ele>240</ele>
        <time>2020-10-24T13:55:55.000Z</time>
      </trkpt>
      <trkpt lat="46.49129" lon="5.32884">
        <ele>239.80000305176</ele>
        <time>2020-10-24T13:55:56.000Z</time>
      </trkpt>
      <trkpt lat="46.49126" lon="5.32903">
        <ele>238.80000305176</ele>
        <time>2020-10-24T13:55:58.000Z</time>
      </trkpt>
      <trkpt lat="46.49126" lon="5.32912">
        <ele>238.80000305176</ele>
        <time>2020-10-24T13:55:59.000Z</time>
      </trkpt>
      <trkpt lat="46.49125" lon="5.32922">
        <ele>238.60000610352</ele>
        <time>2020-10-24T13:56:00.000Z</time>
      </trkpt>
      <trkpt lat="46.49125" lon="5.32942">
        <ele>238.60000610352</ele>
        <time>2020-10-24T13:56:02.000Z</time>
      </trkpt>
      <trkpt lat="46.49126" lon="5.32962">
        <ele>238.60000610352</ele>
        <time>2020-10-24T13:56:04.000Z</time>
      </trkpt>
      <trkpt lat="46.49127" lon="5.3298">
        <ele>238.60000610352</ele>
        <time>2020-10-24T13:56:06.000Z</time>
      </trkpt>
      <trkpt lat="46.49129" lon="5.32997">
        <ele>238.60000610352</ele>
        <time>2020-10-24T13:56:08.000Z</time>
      </trkpt>
      <trkpt lat="46.49131" lon="5.33015">
        <ele>238.80000305176</ele>
        <time>2020-10-24T13:56:10.000Z</time>
      </trkpt>
      <trkpt lat="46.49133" lon="5.33024">
        <ele>239.19999694824</ele>
        <time>2020-10-24T13:56:11.000Z</time>
      </trkpt>
      <trkpt lat="46.49134" lon="5.33033">
        <ele>239.19999694824</ele>
        <time>2020-10-24T13:56:12.000Z</time>
      </trkpt>
      <trkpt lat="46.49137" lon="5.3305">
        <ele>239.60000610352</ele>
        <time>2020-10-24T13:56:14.000Z</time>
      </trkpt>
      <trkpt lat="46.49141" lon="5.33069">
        <ele>239.80000305176</ele>
        <time>2020-10-24T13:56:16.000Z</time>
      </trkpt>
      <trkpt lat="46.49144" lon="5.33078">
        <ele>240</ele>
        <time>2020-10-24T13:56:17.000Z</time>
      </trkpt>
      <trkpt lat="46.49147" lon="5.33086">
        <ele>240</ele>
        <time>2020-10-24T13:56:18.000Z</time>
      </trkpt>
      <trkpt lat="46.49153" lon="5.33104">
        <ele>240.39999389648</ele>
        <time>2020-10-24T13:56:20.000Z</time>
      </trkpt>
      <trkpt lat="46.49157" lon="5.33113">
        <ele>240.39999389648</ele>
        <time>2020-10-24T13:56:21.000Z</time>
      </trkpt>
      <trkpt lat="46.49162" lon="5.33121">
        <ele>240.60000610352</ele>
        <time>2020-10-24T13:56:22.000Z</time>
      </trkpt>
      <trkpt lat="46.49167" lon="5.33129">
        <ele>240.60000610352</ele>
        <time>2020-10-24T13:56:23.000Z</time>
      </trkpt>
      <trkpt lat="46.49173" lon="5.33136">
        <ele>240.60000610352</ele>
        <time>2020-10-24T13:56:24.000Z</time>
      </trkpt>
      <trkpt lat="46.49179" lon="5.33142">
        <ele>240.60000610352</ele>
        <time>2020-10-24T13:56:25.000Z</time>
      </trkpt>
      <trkpt lat="46.49185" lon="5.33148">
        <ele>240.60000610352</ele>
        <time>2020-10-24T13:56:26.000Z</time>
      </trkpt>
      <trkpt lat="46.49197" lon="5.33158">
        <ele>240.80000305176</ele>
        <time>2020-10-24T13:56:28.000Z</time>
      </trkpt>
      <trkpt lat="46.49208" lon="5.33168">
        <ele>241</ele>
        <time>2020-10-24T13:56:30.000Z</time>
      </trkpt>
      <trkpt lat="46.49214" lon="5.33173">
        <ele>241</ele>
        <time>2020-10-24T13:56:31.000Z</time>
      </trkpt>
      <trkpt lat="46.4922" lon="5.33178">
        <ele>241</ele>
        <time>2020-10-24T13:56:32.000Z</time>
      </trkpt>
      <trkpt lat="46.49232" lon="5.33187">
        <ele>241</ele>
        <time>2020-10-24T13:56:34.000Z</time>
      </trkpt>
      <trkpt lat="46.49237" lon="5.33192">
        <ele>241</ele>
        <time>2020-10-24T13:56:35.000Z</time>
      </trkpt>
      <trkpt lat="46.49243" lon="5.33198">
        <ele>241.19999694824</ele>
        <time>2020-10-24T13:56:36.000Z</time>
      </trkpt>
      <trkpt lat="46.49252" lon="5.33212">
        <ele>241.19999694824</ele>
        <time>2020-10-24T13:56:38.000Z</time>
      </trkpt>
      <trkpt lat="46.49259" lon="5.33228">
        <ele>241.60000610352</ele>
        <time>2020-10-24T13:56:40.000Z</time>
      </trkpt>
      <trkpt lat="46.49265" lon="5.33245">
        <ele>241.80000305176</ele>
        <time>2020-10-24T13:56:42.000Z</time>
      </trkpt>
      <trkpt lat="46.49268" lon="5.33254">
        <ele>242</ele>
        <time>2020-10-24T13:56:43.000Z</time>
      </trkpt>
      <trkpt lat="46.4927" lon="5.33263">
        <ele>242.19999694824</ele>
        <time>2020-10-24T13:56:44.000Z</time>
      </trkpt>
      <trkpt lat="46.49273" lon="5.33282">
        <ele>242.60000610352</ele>
        <time>2020-10-24T13:56:46.000Z</time>
      </trkpt>
      <trkpt lat="46.49277" lon="5.333">
        <ele>243</ele>
        <time>2020-10-24T13:56:48.000Z</time>
      </trkpt>
      <trkpt lat="46.49278" lon="5.33309">
        <ele>243.19999694824</ele>
        <time>2020-10-24T13:56:49.000Z</time>
      </trkpt>
      <trkpt lat="46.4928" lon="5.33318">
        <ele>243.19999694824</ele>
        <time>2020-10-24T13:56:50.000Z</time>
      </trkpt>
      <trkpt lat="46.49284" lon="5.33336">
        <ele>243.60000610352</ele>
        <time>2020-10-24T13:56:52.000Z</time>
      </trkpt>
      <trkpt lat="46.49287" lon="5.33354">
        <ele>243.80000305176</ele>
        <time>2020-10-24T13:56:54.000Z</time>
      </trkpt>
      <trkpt lat="46.49291" lon="5.33371">
        <ele>244</ele>
        <time>2020-10-24T13:56:56.000Z</time>
      </trkpt>
      <trkpt lat="46.49295" lon="5.33389">
        <ele>244</ele>
        <time>2020-10-24T13:56:58.000Z</time>
      </trkpt>
      <trkpt lat="46.49298" lon="5.33406">
        <ele>244.19999694824</ele>
        <time>2020-10-24T13:57:00.000Z</time>
      </trkpt>
      <trkpt lat="46.49302" lon="5.33423">
        <ele>244.80000305176</ele>
        <time>2020-10-24T13:57:02.000Z</time>
      </trkpt>
      <trkpt lat="46.49305" lon="5.3344">
        <ele>245.19999694824</ele>
        <time>2020-10-24T13:57:04.000Z</time>
      </trkpt>
      <trkpt lat="46.49308" lon="5.33458">
        <ele>245.39999389648</ele>
        <time>2020-10-24T13:57:06.000Z</time>
      </trkpt>
      <trkpt lat="46.49311" lon="5.33476">
        <ele>245.60000610352</ele>
        <time>2020-10-24T13:57:08.000Z</time>
      </trkpt>
      <trkpt lat="46.49313" lon="5.33495">
        <ele>245.80000305176</ele>
        <time>2020-10-24T13:57:10.000Z</time>
      </trkpt>
      <trkpt lat="46.49316" lon="5.33514">
        <ele>246</ele>
        <time>2020-10-24T13:57:12.000Z</time>
      </trkpt>
      <trkpt lat="46.49317" lon="5.33532">
        <ele>246</ele>
        <time>2020-10-24T13:57:14.000Z</time>
      </trkpt>
      <trkpt lat="46.49317" lon="5.33552">
        <ele>246</ele>
        <time>2020-10-24T13:57:16.000Z</time>
      </trkpt>
      <trkpt lat="46.49316" lon="5.33562">
        <ele>246</ele>
        <time>2020-10-24T13:57:17.000Z</time>
      </trkpt>
      <trkpt lat="46.49315" lon="5.33571">
        <ele>246</ele>
        <time>2020-10-24T13:57:18.000Z</time>
      </trkpt>
      <trkpt lat="46.49311" lon="5.33589">
        <ele>246</ele>
        <time>2020-10-24T13:57:20.000Z</time>
      </trkpt>
      <trkpt lat="46.49308" lon="5.33608">
        <ele>246</ele>
        <time>2020-10-24T13:57:22.000Z</time>
      </trkpt>
      <trkpt lat="46.49306" lon="5.33617">
        <ele>246</ele>
        <time>2020-10-24T13:57:23.000Z</time>
      </trkpt>
      <trkpt lat="46.49305" lon="5.33626">
        <ele>246</ele>
        <time>2020-10-24T13:57:24.000Z</time>
      </trkpt>
      <trkpt lat="46.49304" lon="5.33645">
        <ele>246</ele>
        <time>2020-10-24T13:57:26.000Z</time>
      </trkpt>
      <trkpt lat="46.49303" lon="5.33665">
        <ele>246</ele>
        <time>2020-10-24T13:57:28.000Z</time>
      </trkpt>
      <trkpt lat="46.49302" lon="5.33684">
        <ele>246</ele>
        <time>2020-10-24T13:57:30.000Z</time>
      </trkpt>
      <trkpt lat="46.49301" lon="5.33703">
        <ele>246</ele>
        <time>2020-10-24T13:57:32.000Z</time>
      </trkpt>
      <trkpt lat="46.493" lon="5.33722">
        <ele>246</ele>
        <time>2020-10-24T13:57:34.000Z</time>
      </trkpt>
      <trkpt lat="46.49298" lon="5.3374">
        <ele>246</ele>
        <time>2020-10-24T13:57:36.000Z</time>
      </trkpt>
      <trkpt lat="46.49297" lon="5.33749">
        <ele>246.19999694824</ele>
        <time>2020-10-24T13:57:37.000Z</time>
      </trkpt>
      <trkpt lat="46.49296" lon="5.33759">
        <ele>246.39999389648</ele>
        <time>2020-10-24T13:57:38.000Z</time>
      </trkpt>
      <trkpt lat="46.49293" lon="5.33777">
        <ele>246.39999389648</ele>
        <time>2020-10-24T13:57:40.000Z</time>
      </trkpt>
      <trkpt lat="46.49289" lon="5.33795">
        <ele>246.60000610352</ele>
        <time>2020-10-24T13:57:42.000Z</time>
      </trkpt>
      <trkpt lat="46.49285" lon="5.33812">
        <ele>246.80000305176</ele>
        <time>2020-10-24T13:57:44.000Z</time>
      </trkpt>
      <trkpt lat="46.49282" lon="5.3383">
        <ele>247</ele>
        <time>2020-10-24T13:57:46.000Z</time>
      </trkpt>
      <trkpt lat="46.49278" lon="5.33849">
        <ele>247.39999389648</ele>
        <time>2020-10-24T13:57:48.000Z</time>
      </trkpt>
      <trkpt lat="46.49274" lon="5.33867">
        <ele>247.60000610352</ele>
        <time>2020-10-24T13:57:50.000Z</time>
      </trkpt>
      <trkpt lat="46.49271" lon="5.33886">
        <ele>247.60000610352</ele>
        <time>2020-10-24T13:57:52.000Z</time>
      </trkpt>
      <trkpt lat="46.49269" lon="5.33895">
        <ele>247.60000610352</ele>
        <time>2020-10-24T13:57:53.000Z</time>
      </trkpt>
      <trkpt lat="46.49268" lon="5.33905">
        <ele>247.60000610352</ele>
        <time>2020-10-24T13:57:54.000Z</time>
      </trkpt>
      <trkpt lat="46.49265" lon="5.33924">
        <ele>247.60000610352</ele>
        <time>2020-10-24T13:57:56.000Z</time>
      </trkpt>
      <trkpt lat="46.49261" lon="5.33944">
        <ele>247.60000610352</ele>
        <time>2020-10-24T13:57:58.000Z</time>
      </trkpt>
      <trkpt lat="46.49257" lon="5.33964">
        <ele>247.80000305176</ele>
        <time>2020-10-24T13:58:00.000Z</time>
      </trkpt>
      <trkpt lat="46.49253" lon="5.33984">
        <ele>247.80000305176</ele>
        <time>2020-10-24T13:58:02.000Z</time>
      </trkpt>
      <trkpt lat="46.49249" lon="5.34004">
        <ele>247.80000305176</ele>
        <time>2020-10-24T13:58:04.000Z</time>
      </trkpt>
      <trkpt lat="46.49245" lon="5.34024">
        <ele>247.80000305176</ele>
        <time>2020-10-24T13:58:06.000Z</time>
      </trkpt>
      <trkpt lat="46.49241" lon="5.34044">
        <ele>247.60000610352</ele>
        <time>2020-10-24T13:58:08.000Z</time>
      </trkpt>
      <trkpt lat="46.49237" lon="5.34064">
        <ele>247.60000610352</ele>
        <time>2020-10-24T13:58:10.000Z</time>
      </trkpt>
      <trkpt lat="46.49232" lon="5.34085">
        <ele>247.60000610352</ele>
        <time>2020-10-24T13:58:12.000Z</time>
      </trkpt>
      <trkpt lat="46.49228" lon="5.34109">
        <ele>247.60000610352</ele>
        <time>2020-10-24T13:58:14.000Z</time>
      </trkpt>
      <trkpt lat="46.49223" lon="5.34132">
        <ele>247.60000610352</ele>
        <time>2020-10-24T13:58:16.000Z</time>
      </trkpt>
      <trkpt lat="46.49219" lon="5.34157">
        <ele>247.60000610352</ele>
        <time>2020-10-24T13:58:18.000Z</time>
      </trkpt>
      <trkpt lat="46.49214" lon="5.34182">
        <ele>246.80000305176</ele>
        <time>2020-10-24T13:58:20.000Z</time>
      </trkpt>
      <trkpt lat="46.49212" lon="5.34195">
        <ele>246.19999694824</ele>
        <time>2020-10-24T13:58:21.000Z</time>
      </trkpt>
      <trkpt lat="46.4921" lon="5.34207">
        <ele>245.80000305176</ele>
        <time>2020-10-24T13:58:22.000Z</time>
      </trkpt>
      <trkpt lat="46.49208" lon="5.34219">
        <ele>245.19999694824</ele>
        <time>2020-10-24T13:58:23.000Z</time>
      </trkpt>
      <trkpt lat="46.49205" lon="5.34231">
        <ele>244.80000305176</ele>
        <time>2020-10-24T13:58:24.000Z</time>
      </trkpt>
      <trkpt lat="46.49201" lon="5.34253">
        <ele>244</ele>
        <time>2020-10-24T13:58:26.000Z</time>
      </trkpt>
      <trkpt lat="46.49196" lon="5.34274">
        <ele>243.80000305176</ele>
        <time>2020-10-24T13:58:28.000Z</time>
      </trkpt>
      <trkpt lat="46.49192" lon="5.34295">
        <ele>243.80000305176</ele>
        <time>2020-10-24T13:58:30.000Z</time>
      </trkpt>
      <trkpt lat="46.49189" lon="5.34316">
        <ele>243.80000305176</ele>
        <time>2020-10-24T13:58:32.000Z</time>
      </trkpt>
      <trkpt lat="46.49187" lon="5.34326">
        <ele>243.80000305176</ele>
        <time>2020-10-24T13:58:33.000Z</time>
      </trkpt>
      <trkpt lat="46.49185" lon="5.34336">
        <ele>243.80000305176</ele>
        <time>2020-10-24T13:58:34.000Z</time>
      </trkpt>
      <trkpt lat="46.49181" lon="5.34356">
        <ele>244</ele>
        <time>2020-10-24T13:58:36.000Z</time>
      </trkpt>
      <trkpt lat="46.49177" lon="5.34378">
        <ele>244.39999389648</ele>
        <time>2020-10-24T13:58:38.000Z</time>
      </trkpt>
      <trkpt lat="46.49172" lon="5.34401">
        <ele>244.60000610352</ele>
        <time>2020-10-24T13:58:40.000Z</time>
      </trkpt>
      <trkpt lat="46.49167" lon="5.34426">
        <ele>244.60000610352</ele>
        <time>2020-10-24T13:58:42.000Z</time>
      </trkpt>
      <trkpt lat="46.49163" lon="5.34451">
        <ele>244.60000610352</ele>
        <time>2020-10-24T13:58:44.000Z</time>
      </trkpt>
      <trkpt lat="46.4916" lon="5.34463">
        <ele>244.60000610352</ele>
        <time>2020-10-24T13:58:45.000Z</time>
      </trkpt>
      <trkpt lat="46.49158" lon="5.34475">
        <ele>244.60000610352</ele>
        <time>2020-10-24T13:58:46.000Z</time>
      </trkpt>
      <trkpt lat="46.49154" lon="5.34499">
        <ele>244.19999694824</ele>
        <time>2020-10-24T13:58:48.000Z</time>
      </trkpt>
      <trkpt lat="46.49149" lon="5.34521">
        <ele>244</ele>
        <time>2020-10-24T13:58:50.000Z</time>
      </trkpt>
      <trkpt lat="46.49147" lon="5.34532">
        <ele>244</ele>
        <time>2020-10-24T13:58:51.000Z</time>
      </trkpt>
      <trkpt lat="46.49144" lon="5.34543">
        <ele>244</ele>
        <time>2020-10-24T13:58:52.000Z</time>
      </trkpt>
      <trkpt lat="46.4914" lon="5.34563">
        <ele>244</ele>
        <time>2020-10-24T13:58:54.000Z</time>
      </trkpt>
      <trkpt lat="46.49137" lon="5.34582">
        <ele>244</ele>
        <time>2020-10-24T13:58:56.000Z</time>
      </trkpt>
      <trkpt lat="46.49135" lon="5.34592">
        <ele>244</ele>
        <time>2020-10-24T13:58:57.000Z</time>
      </trkpt>
      <trkpt lat="46.49134" lon="5.34601">
        <ele>244</ele>
        <time>2020-10-24T13:58:58.000Z</time>
      </trkpt>
      <trkpt lat="46.4913" lon="5.3462">
        <ele>244.39999389648</ele>
        <time>2020-10-24T13:59:00.000Z</time>
      </trkpt>
      <trkpt lat="46.49126" lon="5.34641">
        <ele>244.60000610352</ele>
        <time>2020-10-24T13:59:02.000Z</time>
      </trkpt>
      <trkpt lat="46.49124" lon="5.34652">
        <ele>244.60000610352</ele>
        <time>2020-10-24T13:59:03.000Z</time>
      </trkpt>
      <trkpt lat="46.49122" lon="5.34663">
        <ele>244.60000610352</ele>
        <time>2020-10-24T13:59:04.000Z</time>
      </trkpt>
      <trkpt lat="46.49118" lon="5.34686">
        <ele>244.80000305176</ele>
        <time>2020-10-24T13:59:06.000Z</time>
      </trkpt>
      <trkpt lat="46.49113" lon="5.34708">
        <ele>244.80000305176</ele>
        <time>2020-10-24T13:59:08.000Z</time>
      </trkpt>
      <trkpt lat="46.49111" lon="5.34719">
        <ele>244.80000305176</ele>
        <time>2020-10-24T13:59:09.000Z</time>
      </trkpt>
      <trkpt lat="46.49109" lon="5.3473">
        <ele>244.60000610352</ele>
        <time>2020-10-24T13:59:10.000Z</time>
      </trkpt>
      <trkpt lat="46.49106" lon="5.34751">
        <ele>244.60000610352</ele>
        <time>2020-10-24T13:59:12.000Z</time>
      </trkpt>
      <trkpt lat="46.49102" lon="5.34771">
        <ele>244.60000610352</ele>
        <time>2020-10-24T13:59:14.000Z</time>
      </trkpt>
      <trkpt lat="46.49098" lon="5.34791">
        <ele>244.39999389648</ele>
        <time>2020-10-24T13:59:16.000Z</time>
      </trkpt>
      <trkpt lat="46.49095" lon="5.34811">
        <ele>244.39999389648</ele>
        <time>2020-10-24T13:59:18.000Z</time>
      </trkpt>
      <trkpt lat="46.49091" lon="5.34831">
        <ele>244.60000610352</ele>
        <time>2020-10-24T13:59:20.000Z</time>
      </trkpt>
      <trkpt lat="46.49086" lon="5.34851">
        <ele>244.80000305176</ele>
        <time>2020-10-24T13:59:22.000Z</time>
      </trkpt>
      <trkpt lat="46.49084" lon="5.34861">
        <ele>245</ele>
        <time>2020-10-24T13:59:23.000Z</time>
      </trkpt>
      <trkpt lat="46.49082" lon="5.34871">
        <ele>245.19999694824</ele>
        <time>2020-10-24T13:59:24.000Z</time>
      </trkpt>
      <trkpt lat="46.49078" lon="5.3489">
        <ele>245.39999389648</ele>
        <time>2020-10-24T13:59:26.000Z</time>
      </trkpt>
      <trkpt lat="46.49074" lon="5.3491">
        <ele>245.80000305176</ele>
        <time>2020-10-24T13:59:28.000Z</time>
      </trkpt>
      <trkpt lat="46.49069" lon="5.3493">
        <ele>246.39999389648</ele>
        <time>2020-10-24T13:59:30.000Z</time>
      </trkpt>
      <trkpt lat="46.49065" lon="5.34951">
        <ele>246.80000305176</ele>
        <time>2020-10-24T13:59:32.000Z</time>
      </trkpt>
      <trkpt lat="46.49063" lon="5.34961">
        <ele>247</ele>
        <time>2020-10-24T13:59:33.000Z</time>
      </trkpt>
      <trkpt lat="46.49061" lon="5.34971">
        <ele>247.19999694824</ele>
        <time>2020-10-24T13:59:34.000Z</time>
      </trkpt>
      <trkpt lat="46.49057" lon="5.34991">
        <ele>247.39999389648</ele>
        <time>2020-10-24T13:59:36.000Z</time>
      </trkpt>
      <trkpt lat="46.49054" lon="5.3501">
        <ele>247.80000305176</ele>
        <time>2020-10-24T13:59:38.000Z</time>
      </trkpt>
      <trkpt lat="46.4905" lon="5.3503">
        <ele>248.19999694824</ele>
        <time>2020-10-24T13:59:40.000Z</time>
      </trkpt>
      <trkpt lat="46.49046" lon="5.35049">
        <ele>248.60000610352</ele>
        <time>2020-10-24T13:59:42.000Z</time>
      </trkpt>
      <trkpt lat="46.49042" lon="5.35068">
        <ele>249</ele>
        <time>2020-10-24T13:59:44.000Z</time>
      </trkpt>
      <trkpt lat="46.4904" lon="5.35078">
        <ele>249.39999389648</ele>
        <time>2020-10-24T13:59:45.000Z</time>
      </trkpt>
      <trkpt lat="46.49038" lon="5.35088">
        <ele>249.80000305176</ele>
        <time>2020-10-24T13:59:46.000Z</time>
      </trkpt>
      <trkpt lat="46.49033" lon="5.35106">
        <ele>250.19999694824</ele>
        <time>2020-10-24T13:59:48.000Z</time>
      </trkpt>
      <trkpt lat="46.49031" lon="5.35115">
        <ele>250.39999389648</ele>
        <time>2020-10-24T13:59:49.000Z</time>
      </trkpt>
      <trkpt lat="46.49028" lon="5.35125">
        <ele>250.60000610352</ele>
        <time>2020-10-24T13:59:50.000Z</time>
      </trkpt>
      <trkpt lat="46.49021" lon="5.35142">
        <ele>250.80000305176</ele>
        <time>2020-10-24T13:59:52.000Z</time>
      </trkpt>
      <trkpt lat="46.49014" lon="5.3516">
        <ele>251</ele>
        <time>2020-10-24T13:59:54.000Z</time>
      </trkpt>
      <trkpt lat="46.49006" lon="5.35178">
        <ele>251.19999694824</ele>
        <time>2020-10-24T13:59:56.000Z</time>
      </trkpt>
      <trkpt lat="46.48998" lon="5.35196">
        <ele>251.19999694824</ele>
        <time>2020-10-24T13:59:58.000Z</time>
      </trkpt>
      <trkpt lat="46.48993" lon="5.35205">
        <ele>251.19999694824</ele>
        <time>2020-10-24T13:59:59.000Z</time>
      </trkpt>
      <trkpt lat="46.48989" lon="5.35215">
        <ele>251.19999694824</ele>
        <time>2020-10-24T14:00:00.000Z</time>
      </trkpt>
      <trkpt lat="46.48981" lon="5.35234">
        <ele>251.19999694824</ele>
        <time>2020-10-24T14:00:02.000Z</time>
      </trkpt>
      <trkpt lat="46.48972" lon="5.35253">
        <ele>251.19999694824</ele>
        <time>2020-10-24T14:00:04.000Z</time>
      </trkpt>
      <trkpt lat="46.48963" lon="5.35272">
        <ele>250.60000610352</ele>
        <time>2020-10-24T14:00:06.000Z</time>
      </trkpt>
      <trkpt lat="46.48959" lon="5.35282">
        <ele>250.19999694824</ele>
        <time>2020-10-24T14:00:07.000Z</time>
      </trkpt>
      <trkpt lat="46.48954" lon="5.35292">
        <ele>249.80000305176</ele>
        <time>2020-10-24T14:00:08.000Z</time>
      </trkpt>
      <trkpt lat="46.48946" lon="5.35311">
        <ele>249.39999389648</ele>
        <time>2020-10-24T14:00:10.000Z</time>
      </trkpt>
      <trkpt lat="46.48937" lon="5.35329">
        <ele>249</ele>
        <time>2020-10-24T14:00:12.000Z</time>
      </trkpt>
      <trkpt lat="46.48929" lon="5.35348">
        <ele>248.80000305176</ele>
        <time>2020-10-24T14:00:14.000Z</time>
      </trkpt>
      <trkpt lat="46.48921" lon="5.35366">
        <ele>248.80000305176</ele>
        <time>2020-10-24T14:00:16.000Z</time>
      </trkpt>
      <trkpt lat="46.48913" lon="5.35384">
        <ele>248.80000305176</ele>
        <time>2020-10-24T14:00:18.000Z</time>
      </trkpt>
      <trkpt lat="46.48906" lon="5.35402">
        <ele>248.80000305176</ele>
        <time>2020-10-24T14:00:20.000Z</time>
      </trkpt>
      <trkpt lat="46.48898" lon="5.35419">
        <ele>248.80000305176</ele>
        <time>2020-10-24T14:00:22.000Z</time>
      </trkpt>
      <trkpt lat="46.48895" lon="5.35427">
        <ele>248.80000305176</ele>
        <time>2020-10-24T14:00:23.000Z</time>
      </trkpt>
      <trkpt lat="46.48891" lon="5.35435">
        <ele>249</ele>
        <time>2020-10-24T14:00:24.000Z</time>
      </trkpt>
      <trkpt lat="46.48884" lon="5.35451">
        <ele>249.19999694824</ele>
        <time>2020-10-24T14:00:26.000Z</time>
      </trkpt>
      <trkpt lat="46.48877" lon="5.35467">
        <ele>249.19999694824</ele>
        <time>2020-10-24T14:00:28.000Z</time>
      </trkpt>
      <trkpt lat="46.4887" lon="5.35483">
        <ele>249.60000610352</ele>
        <time>2020-10-24T14:00:30.000Z</time>
      </trkpt>
      <trkpt lat="46.48867" lon="5.35491">
        <ele>249.80000305176</ele>
        <time>2020-10-24T14:00:31.000Z</time>
      </trkpt>
      <trkpt lat="46.48863" lon="5.35498">
        <ele>249.80000305176</ele>
        <time>2020-10-24T14:00:32.000Z</time>
      </trkpt>
      <trkpt lat="46.48857" lon="5.35514">
        <ele>250</ele>
        <time>2020-10-24T14:00:34.000Z</time>
      </trkpt>
      <trkpt lat="46.4885" lon="5.35529">
        <ele>250.19999694824</ele>
        <time>2020-10-24T14:00:36.000Z</time>
      </trkpt>
      <trkpt lat="46.48847" lon="5.35537">
        <ele>250.39999389648</ele>
        <time>2020-10-24T14:00:37.000Z</time>
      </trkpt>
      <trkpt lat="46.48843" lon="5.35545">
        <ele>250.60000610352</ele>
        <time>2020-10-24T14:00:38.000Z</time>
      </trkpt>
      <trkpt lat="46.4884" lon="5.35553">
        <ele>250.80000305176</ele>
        <time>2020-10-24T14:00:39.000Z</time>
      </trkpt>
      <trkpt lat="46.48836" lon="5.35562">
        <ele>250.80000305176</ele>
        <time>2020-10-24T14:00:40.000Z</time>
      </trkpt>
      <trkpt lat="46.48829" lon="5.35579">
        <ele>250.80000305176</ele>
        <time>2020-10-24T14:00:42.000Z</time>
      </trkpt>
      <trkpt lat="46.48822" lon="5.35595">
        <ele>250.80000305176</ele>
        <time>2020-10-24T14:00:44.000Z</time>
      </trkpt>
      <trkpt lat="46.48814" lon="5.35613">
        <ele>250.80000305176</ele>
        <time>2020-10-24T14:00:46.000Z</time>
      </trkpt>
      <trkpt lat="46.48811" lon="5.35621">
        <ele>250.80000305176</ele>
        <time>2020-10-24T14:00:47.000Z</time>
      </trkpt>
      <trkpt lat="46.48807" lon="5.35629">
        <ele>250.80000305176</ele>
        <time>2020-10-24T14:00:48.000Z</time>
      </trkpt>
      <trkpt lat="46.48804" lon="5.35637">
        <ele>250.80000305176</ele>
        <time>2020-10-24T14:00:49.000Z</time>
      </trkpt>
      <trkpt lat="46.488" lon="5.35645">
        <ele>250.80000305176</ele>
        <time>2020-10-24T14:00:50.000Z</time>
      </trkpt>
      <trkpt lat="46.48793" lon="5.35661">
        <ele>250.60000610352</ele>
        <time>2020-10-24T14:00:52.000Z</time>
      </trkpt>
      <trkpt lat="46.48785" lon="5.35677">
        <ele>250.60000610352</ele>
        <time>2020-10-24T14:00:54.000Z</time>
      </trkpt>
      <trkpt lat="46.48782" lon="5.35685">
        <ele>250.60000610352</ele>
        <time>2020-10-24T14:00:55.000Z</time>
      </trkpt>
      <trkpt lat="46.48778" lon="5.35694">
        <ele>250.60000610352</ele>
        <time>2020-10-24T14:00:56.000Z</time>
      </trkpt>
      <trkpt lat="46.4877" lon="5.35712">
        <ele>250.60000610352</ele>
        <time>2020-10-24T14:00:58.000Z</time>
      </trkpt>
      <trkpt lat="46.48763" lon="5.35729">
        <ele>250.60000610352</ele>
        <time>2020-10-24T14:01:00.000Z</time>
      </trkpt>
      <trkpt lat="46.48756" lon="5.35746">
        <ele>250.60000610352</ele>
        <time>2020-10-24T14:01:02.000Z</time>
      </trkpt>
      <trkpt lat="46.48752" lon="5.35754">
        <ele>250.60000610352</ele>
        <time>2020-10-24T14:01:03.000Z</time>
      </trkpt>
      <trkpt lat="46.48749" lon="5.35762">
        <ele>250.60000610352</ele>
        <time>2020-10-24T14:01:04.000Z</time>
      </trkpt>
      <trkpt lat="46.48742" lon="5.35777">
        <ele>250.60000610352</ele>
        <time>2020-10-24T14:01:06.000Z</time>
      </trkpt>
      <trkpt lat="46.48735" lon="5.35794">
        <ele>250.60000610352</ele>
        <time>2020-10-24T14:01:08.000Z</time>
      </trkpt>
      <trkpt lat="46.48728" lon="5.35808">
        <ele>250.60000610352</ele>
        <time>2020-10-24T14:01:10.000Z</time>
      </trkpt>
      <trkpt lat="46.48724" lon="5.35816">
        <ele>250.60000610352</ele>
        <time>2020-10-24T14:01:11.000Z</time>
      </trkpt>
      <trkpt lat="46.48721" lon="5.35824">
        <ele>250.60000610352</ele>
        <time>2020-10-24T14:01:12.000Z</time>
      </trkpt>
      <trkpt lat="46.48715" lon="5.3584">
        <ele>250.80000305176</ele>
        <time>2020-10-24T14:01:14.000Z</time>
      </trkpt>
      <trkpt lat="46.48709" lon="5.35856">
        <ele>251</ele>
        <time>2020-10-24T14:01:16.000Z</time>
      </trkpt>
      <trkpt lat="46.48705" lon="5.35863">
        <ele>251.19999694824</ele>
        <time>2020-10-24T14:01:17.000Z</time>
      </trkpt>
      <trkpt lat="46.48702" lon="5.35871">
        <ele>251.39999389648</ele>
        <time>2020-10-24T14:01:18.000Z</time>
      </trkpt>
      <trkpt lat="46.48696" lon="5.35885">
        <ele>251.60000610352</ele>
        <time>2020-10-24T14:01:20.000Z</time>
      </trkpt>
      <trkpt lat="46.48691" lon="5.359">
        <ele>251.80000305176</ele>
        <time>2020-10-24T14:01:22.000Z</time>
      </trkpt>
      <trkpt lat="46.48688" lon="5.35908">
        <ele>251.80000305176</ele>
        <time>2020-10-24T14:01:23.000Z</time>
      </trkpt>
      <trkpt lat="46.48686" lon="5.35916">
        <ele>252</ele>
        <time>2020-10-24T14:01:24.000Z</time>
      </trkpt>
      <trkpt lat="46.48683" lon="5.35933">
        <ele>252.39999389648</ele>
        <time>2020-10-24T14:01:26.000Z</time>
      </trkpt>
      <trkpt lat="46.48681" lon="5.35951">
        <ele>253</ele>
        <time>2020-10-24T14:01:28.000Z</time>
      </trkpt>
      <trkpt lat="46.4868" lon="5.3596">
        <ele>253.39999389648</ele>
        <time>2020-10-24T14:01:29.000Z</time>
      </trkpt>
      <trkpt lat="46.48679" lon="5.35969">
        <ele>253.60000610352</ele>
        <time>2020-10-24T14:01:30.000Z</time>
      </trkpt>
      <trkpt lat="46.48676" lon="5.35988">
        <ele>254.19999694824</ele>
        <time>2020-10-24T14:01:32.000Z</time>
      </trkpt>
      <trkpt lat="46.48672" lon="5.36006">
        <ele>254.39999389648</ele>
        <time>2020-10-24T14:01:34.000Z</time>
      </trkpt>
      <trkpt lat="46.48671" lon="5.36016">
        <ele>254.39999389648</ele>
        <time>2020-10-24T14:01:35.000Z</time>
      </trkpt>
      <trkpt lat="46.48668" lon="5.36026">
        <ele>254.39999389648</ele>
        <time>2020-10-24T14:01:36.000Z</time>
      </trkpt>
      <trkpt lat="46.48664" lon="5.36047">
        <ele>254.39999389648</ele>
        <time>2020-10-24T14:01:38.000Z</time>
      </trkpt>
      <trkpt lat="46.48659" lon="5.3607">
        <ele>254.39999389648</ele>
        <time>2020-10-24T14:01:40.000Z</time>
      </trkpt>
      <trkpt lat="46.48656" lon="5.36081">
        <ele>254.39999389648</ele>
        <time>2020-10-24T14:01:41.000Z</time>
      </trkpt>
      <trkpt lat="46.48654" lon="5.36093">
        <ele>254.19999694824</ele>
        <time>2020-10-24T14:01:42.000Z</time>
      </trkpt>
      <trkpt lat="46.48649" lon="5.36115">
        <ele>253.39999389648</ele>
        <time>2020-10-24T14:01:44.000Z</time>
      </trkpt>
      <trkpt lat="46.48645" lon="5.36137">
        <ele>252.39999389648</ele>
        <time>2020-10-24T14:01:46.000Z</time>
      </trkpt>
      <trkpt lat="46.48643" lon="5.36159">
        <ele>251.80000305176</ele>
        <time>2020-10-24T14:01:48.000Z</time>
      </trkpt>
      <trkpt lat="46.48642" lon="5.3618">
        <ele>251.39999389648</ele>
        <time>2020-10-24T14:01:50.000Z</time>
      </trkpt>
      <trkpt lat="46.4864" lon="5.362">
        <ele>251.39999389648</ele>
        <time>2020-10-24T14:01:52.000Z</time>
      </trkpt>
      <trkpt lat="46.48639" lon="5.3622">
        <ele>251.39999389648</ele>
        <time>2020-10-24T14:01:54.000Z</time>
      </trkpt>
      <trkpt lat="46.48637" lon="5.36239">
        <ele>251.39999389648</ele>
        <time>2020-10-24T14:01:56.000Z</time>
      </trkpt>
      <trkpt lat="46.48635" lon="5.36257">
        <ele>251.80000305176</ele>
        <time>2020-10-24T14:01:58.000Z</time>
      </trkpt>
      <trkpt lat="46.48633" lon="5.36274">
        <ele>252.19999694824</ele>
        <time>2020-10-24T14:02:00.000Z</time>
      </trkpt>
      <trkpt lat="46.48629" lon="5.36291">
        <ele>252.60000610352</ele>
        <time>2020-10-24T14:02:02.000Z</time>
      </trkpt>
      <trkpt lat="46.48627" lon="5.36299">
        <ele>252.60000610352</ele>
        <time>2020-10-24T14:02:03.000Z</time>
      </trkpt>
      <trkpt lat="46.48623" lon="5.36305">
        <ele>253</ele>
        <time>2020-10-24T14:02:04.000Z</time>
      </trkpt>
      <trkpt lat="46.48614" lon="5.36314">
        <ele>253.60000610352</ele>
        <time>2020-10-24T14:02:06.000Z</time>
      </trkpt>
      <trkpt lat="46.48605" lon="5.36317">
        <ele>253.80000305176</ele>
        <time>2020-10-24T14:02:08.000Z</time>
      </trkpt>
      <trkpt lat="46.486" lon="5.36318">
        <ele>253.80000305176</ele>
        <time>2020-10-24T14:02:09.000Z</time>
      </trkpt>
      <trkpt lat="46.48595" lon="5.36318">
        <ele>254.19999694824</ele>
        <time>2020-10-24T14:02:10.000Z</time>
      </trkpt>
      <trkpt lat="46.4859" lon="5.36319">
        <ele>254.39999389648</ele>
        <time>2020-10-24T14:02:11.000Z</time>
      </trkpt>
      <trkpt lat="46.48585" lon="5.3632">
        <ele>254.80000305176</ele>
        <time>2020-10-24T14:02:12.000Z</time>
      </trkpt>
      <trkpt lat="46.48575" lon="5.36321">
        <ele>255.60000610352</ele>
        <time>2020-10-24T14:02:14.000Z</time>
      </trkpt>
      <trkpt lat="46.4857" lon="5.36322">
        <ele>255.80000305176</ele>
        <time>2020-10-24T14:02:15.000Z</time>
      </trkpt>
      <trkpt lat="46.48566" lon="5.36323">
        <ele>256</ele>
        <time>2020-10-24T14:02:16.000Z</time>
      </trkpt>
      <trkpt lat="46.48556" lon="5.36324">
        <ele>256.60000610352</ele>
        <time>2020-10-24T14:02:18.000Z</time>
      </trkpt>
      <trkpt lat="46.48546" lon="5.36326">
        <ele>257.20001220703</ele>
        <time>2020-10-24T14:02:20.000Z</time>
      </trkpt>
      <trkpt lat="46.48541" lon="5.36326">
        <ele>257.39999389648</ele>
        <time>2020-10-24T14:02:21.000Z</time>
      </trkpt>
      <trkpt lat="46.48536" lon="5.36327">
        <ele>257.60000610352</ele>
        <time>2020-10-24T14:02:22.000Z</time>
      </trkpt>
      <trkpt lat="46.48525" lon="5.36329">
        <ele>258</ele>
        <time>2020-10-24T14:02:24.000Z</time>
      </trkpt>
      <trkpt lat="46.48515" lon="5.36331">
        <ele>258.39999389648</ele>
        <time>2020-10-24T14:02:26.000Z</time>
      </trkpt>
      <trkpt lat="46.48505" lon="5.36332">
        <ele>258.60000610352</ele>
        <time>2020-10-24T14:02:28.000Z</time>
      </trkpt>
      <trkpt lat="46.48499" lon="5.36333">
        <ele>258.60000610352</ele>
        <time>2020-10-24T14:02:29.000Z</time>
      </trkpt>
      <trkpt lat="46.48494" lon="5.36334">
        <ele>258.79998779297</ele>
        <time>2020-10-24T14:02:30.000Z</time>
      </trkpt>
      <trkpt lat="46.48483" lon="5.36335">
        <ele>258.79998779297</ele>
        <time>2020-10-24T14:02:32.000Z</time>
      </trkpt>
      <trkpt lat="46.48472" lon="5.36337">
        <ele>259</ele>
        <time>2020-10-24T14:02:34.000Z</time>
      </trkpt>
      <trkpt lat="46.48461" lon="5.36339">
        <ele>259.20001220703</ele>
        <time>2020-10-24T14:02:36.000Z</time>
      </trkpt>
      <trkpt lat="46.48449" lon="5.36341">
        <ele>259.20001220703</ele>
        <time>2020-10-24T14:02:38.000Z</time>
      </trkpt>
      <trkpt lat="46.48444" lon="5.36342">
        <ele>259.39999389648</ele>
        <time>2020-10-24T14:02:39.000Z</time>
      </trkpt>
      <trkpt lat="46.48438" lon="5.36344">
        <ele>259.39999389648</ele>
        <time>2020-10-24T14:02:40.000Z</time>
      </trkpt>
      <trkpt lat="46.48427" lon="5.36347">
        <ele>259.39999389648</ele>
        <time>2020-10-24T14:02:42.000Z</time>
      </trkpt>
      <trkpt lat="46.48416" lon="5.36353">
        <ele>259.60000610352</ele>
        <time>2020-10-24T14:02:44.000Z</time>
      </trkpt>
      <trkpt lat="46.4841" lon="5.36356">
        <ele>259.60000610352</ele>
        <time>2020-10-24T14:02:45.000Z</time>
      </trkpt>
      <trkpt lat="46.48405" lon="5.3636">
        <ele>259.60000610352</ele>
        <time>2020-10-24T14:02:46.000Z</time>
      </trkpt>
      <trkpt lat="46.48395" lon="5.36369">
        <ele>259.60000610352</ele>
        <time>2020-10-24T14:02:48.000Z</time>
      </trkpt>
      <trkpt lat="46.48385" lon="5.36379">
        <ele>259.60000610352</ele>
        <time>2020-10-24T14:02:50.000Z</time>
      </trkpt>
      <trkpt lat="46.4838" lon="5.36384">
        <ele>259.60000610352</ele>
        <time>2020-10-24T14:02:51.000Z</time>
      </trkpt>
      <trkpt lat="46.48376" lon="5.36389">
        <ele>259.60000610352</ele>
        <time>2020-10-24T14:02:52.000Z</time>
      </trkpt>
      <trkpt lat="46.48366" lon="5.36399">
        <ele>259.79998779297</ele>
        <time>2020-10-24T14:02:54.000Z</time>
      </trkpt>
      <trkpt lat="46.48357" lon="5.3641">
        <ele>259.79998779297</ele>
        <time>2020-10-24T14:02:56.000Z</time>
      </trkpt>
      <trkpt lat="46.48349" lon="5.36419">
        <ele>259.79998779297</ele>
        <time>2020-10-24T14:02:58.000Z</time>
      </trkpt>
      <trkpt lat="46.48344" lon="5.36424">
        <ele>260</ele>
        <time>2020-10-24T14:02:59.000Z</time>
      </trkpt>
      <trkpt lat="46.4834" lon="5.36428">
        <ele>260</ele>
        <time>2020-10-24T14:03:00.000Z</time>
      </trkpt>
      <trkpt lat="46.48332" lon="5.36437">
        <ele>260</ele>
        <time>2020-10-24T14:03:02.000Z</time>
      </trkpt>
      <trkpt lat="46.48324" lon="5.36446">
        <ele>260.20001220703</ele>
        <time>2020-10-24T14:03:04.000Z</time>
      </trkpt>
      <trkpt lat="46.48317" lon="5.36454">
        <ele>260.20001220703</ele>
        <time>2020-10-24T14:03:06.000Z</time>
      </trkpt>
      <trkpt lat="46.48309" lon="5.36463">
        <ele>260.79998779297</ele>
        <time>2020-10-24T14:03:08.000Z</time>
      </trkpt>
      <trkpt lat="46.48302" lon="5.36472">
        <ele>261.39999389648</ele>
        <time>2020-10-24T14:03:10.000Z</time>
      </trkpt>
      <trkpt lat="46.48294" lon="5.3648">
        <ele>261.79998779297</ele>
        <time>2020-10-24T14:03:12.000Z</time>
      </trkpt>
      <trkpt lat="46.48286" lon="5.36489">
        <ele>262.20001220703</ele>
        <time>2020-10-24T14:03:14.000Z</time>
      </trkpt>
      <trkpt lat="46.48279" lon="5.36497">
        <ele>262.60000610352</ele>
        <time>2020-10-24T14:03:16.000Z</time>
      </trkpt>
      <trkpt lat="46.48275" lon="5.36501">
        <ele>262.79998779297</ele>
        <time>2020-10-24T14:03:17.000Z</time>
      </trkpt>
      <trkpt lat="46.48272" lon="5.36505">
        <ele>262.79998779297</ele>
        <time>2020-10-24T14:03:18.000Z</time>
      </trkpt>
      <trkpt lat="46.48264" lon="5.36513">
        <ele>263</ele>
        <time>2020-10-24T14:03:20.000Z</time>
      </trkpt>
      <trkpt lat="46.48257" lon="5.36522">
        <ele>263.20001220703</ele>
        <time>2020-10-24T14:03:22.000Z</time>
      </trkpt>
      <trkpt lat="46.4825" lon="5.3653">
        <ele>263.39999389648</ele>
        <time>2020-10-24T14:03:24.000Z</time>
      </trkpt>
      <trkpt lat="46.48242" lon="5.36539">
        <ele>264</ele>
        <time>2020-10-24T14:03:26.000Z</time>
      </trkpt>
      <trkpt lat="46.48234" lon="5.36547">
        <ele>264.39999389648</ele>
        <time>2020-10-24T14:03:28.000Z</time>
      </trkpt>
      <trkpt lat="46.48226" lon="5.36554">
        <ele>264.60000610352</ele>
        <time>2020-10-24T14:03:30.000Z</time>
      </trkpt>
      <trkpt lat="46.48217" lon="5.36556">
        <ele>264.79998779297</ele>
        <time>2020-10-24T14:03:32.000Z</time>
      </trkpt>
      <trkpt lat="46.48212" lon="5.36556">
        <ele>265</ele>
        <time>2020-10-24T14:03:33.000Z</time>
      </trkpt>
      <trkpt lat="46.48207" lon="5.36557">
        <ele>265.20001220703</ele>
        <time>2020-10-24T14:03:34.000Z</time>
      </trkpt>
      <trkpt lat="46.48203" lon="5.36558">
        <ele>265.20001220703</ele>
        <time>2020-10-24T14:03:35.000Z</time>
      </trkpt>
      <trkpt lat="46.48198" lon="5.36561">
        <ele>265.39999389648</ele>
        <time>2020-10-24T14:03:36.000Z</time>
      </trkpt>
      <trkpt lat="46.48194" lon="5.36566">
        <ele>265.39999389648</ele>
        <time>2020-10-24T14:03:37.000Z</time>
      </trkpt>
      <trkpt lat="46.48192" lon="5.36571">
        <ele>265.60000610352</ele>
        <time>2020-10-24T14:03:38.000Z</time>
      </trkpt>
      <trkpt lat="46.48188" lon="5.36584">
        <ele>265.79998779297</ele>
        <time>2020-10-24T14:03:40.000Z</time>
      </trkpt>
      <trkpt lat="46.48185" lon="5.36591">
        <ele>265.79998779297</ele>
        <time>2020-10-24T14:03:41.000Z</time>
      </trkpt>
      <trkpt lat="46.48183" lon="5.36597">
        <ele>265.79998779297</ele>
        <time>2020-10-24T14:03:42.000Z</time>
      </trkpt>
      <trkpt lat="46.48176" lon="5.36607">
        <ele>266</ele>
        <time>2020-10-24T14:03:44.000Z</time>
      </trkpt>
      <trkpt lat="46.48173" lon="5.36611">
        <ele>266</ele>
        <time>2020-10-24T14:03:45.000Z</time>
      </trkpt>
      <trkpt lat="46.48169" lon="5.36616">
        <ele>266.20001220703</ele>
        <time>2020-10-24T14:03:46.000Z</time>
      </trkpt>
      <trkpt lat="46.48161" lon="5.36624">
        <ele>266.20001220703</ele>
        <time>2020-10-24T14:03:48.000Z</time>
      </trkpt>
      <trkpt lat="46.48153" lon="5.36633">
        <ele>266.39999389648</ele>
        <time>2020-10-24T14:03:50.000Z</time>
      </trkpt>
      <trkpt lat="46.48145" lon="5.36642">
        <ele>266.60000610352</ele>
        <time>2020-10-24T14:03:52.000Z</time>
      </trkpt>
      <trkpt lat="46.48137" lon="5.36651">
        <ele>266.79998779297</ele>
        <time>2020-10-24T14:03:54.000Z</time>
      </trkpt>
      <trkpt lat="46.48129" lon="5.36661">
        <ele>267.20001220703</ele>
        <time>2020-10-24T14:03:56.000Z</time>
      </trkpt>
      <trkpt lat="46.4812" lon="5.3667">
        <ele>267.39999389648</ele>
        <time>2020-10-24T14:03:58.000Z</time>
      </trkpt>
      <trkpt lat="46.48117" lon="5.36674">
        <ele>267.39999389648</ele>
        <time>2020-10-24T14:03:59.000Z</time>
      </trkpt>
      <trkpt lat="46.48113" lon="5.36678">
        <ele>267.39999389648</ele>
        <time>2020-10-24T14:04:00.000Z</time>
      </trkpt>
      <trkpt lat="46.4811" lon="5.36681">
        <ele>267.39999389648</ele>
        <time>2020-10-24T14:04:01.000Z</time>
      </trkpt>
      <trkpt lat="46.48109" lon="5.36686">
        <ele>267.39999389648</ele>
        <time>2020-10-24T14:04:02.000Z</time>
      </trkpt>
      <trkpt lat="46.48109" lon="5.36691">
        <ele>267.39999389648</ele>
        <time>2020-10-24T14:04:03.000Z</time>
      </trkpt>
      <trkpt lat="46.4811" lon="5.36697">
        <ele>267.60000610352</ele>
        <time>2020-10-24T14:04:04.000Z</time>
      </trkpt>
      <trkpt lat="46.48116" lon="5.36707">
        <ele>267.60000610352</ele>
        <time>2020-10-24T14:04:06.000Z</time>
      </trkpt>
      <trkpt lat="46.4812" lon="5.36711">
        <ele>267.79998779297</ele>
        <time>2020-10-24T14:04:07.000Z</time>
      </trkpt>
      <trkpt lat="46.48124" lon="5.36715">
        <ele>268</ele>
        <time>2020-10-24T14:04:08.000Z</time>
      </trkpt>
      <trkpt lat="46.48128" lon="5.36718">
        <ele>268.39999389648</ele>
        <time>2020-10-24T14:04:09.000Z</time>
      </trkpt>
      <trkpt lat="46.48132" lon="5.36722">
        <ele>268.79998779297</ele>
        <time>2020-10-24T14:04:10.000Z</time>
      </trkpt>
      <trkpt lat="46.4814" lon="5.36728">
        <ele>269.39999389648</ele>
        <time>2020-10-24T14:04:12.000Z</time>
      </trkpt>
      <trkpt lat="46.48144" lon="5.36732">
        <ele>269.60000610352</ele>
        <time>2020-10-24T14:04:13.000Z</time>
      </trkpt>
      <trkpt lat="46.48148" lon="5.36735">
        <ele>269.79998779297</ele>
        <time>2020-10-24T14:04:14.000Z</time>
      </trkpt>
      <trkpt lat="46.48156" lon="5.36742">
        <ele>270.20001220703</ele>
        <time>2020-10-24T14:04:16.000Z</time>
      </trkpt>
      <trkpt lat="46.4816" lon="5.36745">
        <ele>270.39999389648</ele>
        <time>2020-10-24T14:04:17.000Z</time>
      </trkpt>
      <trkpt lat="46.48164" lon="5.36748">
        <ele>270.79998779297</ele>
        <time>2020-10-24T14:04:18.000Z</time>
      </trkpt>
      <trkpt lat="46.48172" lon="5.36755">
        <ele>271.20001220703</ele>
        <time>2020-10-24T14:04:20.000Z</time>
      </trkpt>
      <trkpt lat="46.48176" lon="5.36758">
        <ele>271.39999389648</ele>
        <time>2020-10-24T14:04:21.000Z</time>
      </trkpt>
      <trkpt lat="46.4818" lon="5.36762">
        <ele>271.60000610352</ele>
        <time>2020-10-24T14:04:22.000Z</time>
      </trkpt>
      <trkpt lat="46.48187" lon="5.36768">
        <ele>272</ele>
        <time>2020-10-24T14:04:24.000Z</time>
      </trkpt>
      <trkpt lat="46.48195" lon="5.36774">
        <ele>272.60000610352</ele>
        <time>2020-10-24T14:04:26.000Z</time>
      </trkpt>
      <trkpt lat="46.48202" lon="5.3678">
        <ele>273</ele>
        <time>2020-10-24T14:04:28.000Z</time>
      </trkpt>
      <trkpt lat="46.4821" lon="5.36786">
        <ele>273.39999389648</ele>
        <time>2020-10-24T14:04:30.000Z</time>
      </trkpt>
      <trkpt lat="46.48213" lon="5.36789">
        <ele>273.79998779297</ele>
        <time>2020-10-24T14:04:31.000Z</time>
      </trkpt>
      <trkpt lat="46.48217" lon="5.36792">
        <ele>274</ele>
        <time>2020-10-24T14:04:32.000Z</time>
      </trkpt>
      <trkpt lat="46.48225" lon="5.36798">
        <ele>274.60000610352</ele>
        <time>2020-10-24T14:04:34.000Z</time>
      </trkpt>
      <trkpt lat="46.48232" lon="5.36804">
        <ele>275</ele>
        <time>2020-10-24T14:04:36.000Z</time>
      </trkpt>
      <trkpt lat="46.48239" lon="5.36811">
        <ele>275.60000610352</ele>
        <time>2020-10-24T14:04:38.000Z</time>
      </trkpt>
      <trkpt lat="46.48246" lon="5.36817">
        <ele>276</ele>
        <time>2020-10-24T14:04:40.000Z</time>
      </trkpt>
      <trkpt lat="46.48253" lon="5.36823">
        <ele>276.60000610352</ele>
        <time>2020-10-24T14:04:42.000Z</time>
      </trkpt>
      <trkpt lat="46.48259" lon="5.3683">
        <ele>277</ele>
        <time>2020-10-24T14:04:44.000Z</time>
      </trkpt>
      <trkpt lat="46.48262" lon="5.36834">
        <ele>277.20001220703</ele>
        <time>2020-10-24T14:04:45.000Z</time>
      </trkpt>
      <trkpt lat="46.48265" lon="5.36838">
        <ele>277.39999389648</ele>
        <time>2020-10-24T14:04:46.000Z</time>
      </trkpt>
    </trkseg>
  </trk>
</gpx>